<?xml version="1.0" encoding="UTF-8" standalone="no" ?>
<gpx xmlns="http://www.topografix.com/GPX/1/1" xmlns:xsi="http://www.w3.org/2001/XMLSchema-instance" xsi:schemaLocation="http://www.topografix.com/GPX/1/1 http://www.topografix.com/GPX/1/1/gpx.xsd" version="1.1" creator="VisuGPX - https://www.visugpx.com">
  <metadata>
    <name>2017-06-20 Bike ride-Amberieux-Rance O 37</name>
    <desc><![CDATA[2017-06-20 Bike ride-Amberieux-Rance O 37]]></desc>
  </metadata>
  <wpt lat="45.92473" lon="4.73696">
    <ele>174</ele>
    <name><![CDATA[2017-06-20 10:31 (Start)]]></name>
  </wpt>
  <wpt lat="45.92467" lon="4.73703">
    <ele>174</ele>
    <name><![CDATA[2017-06-20 10:31 (End)]]></name>
    <desc><![CDATA[Created by Google My Tracks on Android  Name: 2017-06-20 10:31 Activity type: biking Description: - Total distance: 36.64 km (22.8 mi) Total time: 2:06:23 Moving time: 1:57:07 Average speed: 17.39 km/h (10.8 mi/h) Average moving speed: 18.77 km/h (11.7 mi/h) Max speed: 51.49 km/h (32.0 mi/h) Average pace: 3:27 min/km (5:33 min/mi) Average moving pace: 3:12 min/km (5:09 min/mi) Fastest pace: 1:10 min/km (1:53 min/mi) Max elevation: 292 m (957 ft) Min elevation: 163 m (534 ft) Elevation gain: 603 m (1979 ft) Max grade: 18 % Min grade: -15 % Recorded: 20/06/2017 10:31]]></desc>
  </wpt>
  <trk>
    <name><![CDATA[2017-06-20 10:31]]></name>
    <trkseg>
      <trkpt lat="45.92473" lon="4.73696">
        <ele>174</ele>
        <time>2017-06-20T08:31:24.913Z</time>
      </trkpt>
      <trkpt lat="45.92637" lon="4.73679">
        <ele>173</ele>
        <time>2017-06-20T08:34:19Z</time>
      </trkpt>
      <trkpt lat="45.92641" lon="4.73685">
        <ele>173</ele>
        <time>2017-06-20T08:34:20Z</time>
      </trkpt>
      <trkpt lat="45.92645" lon="4.73691">
        <ele>173</ele>
        <time>2017-06-20T08:34:21Z</time>
      </trkpt>
      <trkpt lat="45.92649" lon="4.73696">
        <ele>173</ele>
        <time>2017-06-20T08:34:22Z</time>
      </trkpt>
      <trkpt lat="45.92654" lon="4.73701">
        <ele>173</ele>
        <time>2017-06-20T08:34:23Z</time>
      </trkpt>
      <trkpt lat="45.92659" lon="4.73705">
        <ele>173</ele>
        <time>2017-06-20T08:34:24Z</time>
      </trkpt>
      <trkpt lat="45.92664" lon="4.73709">
        <ele>173</ele>
        <time>2017-06-20T08:34:25Z</time>
      </trkpt>
      <trkpt lat="45.92669" lon="4.73711">
        <ele>174</ele>
        <time>2017-06-20T08:34:26Z</time>
      </trkpt>
      <trkpt lat="45.92675" lon="4.73714">
        <ele>174</ele>
        <time>2017-06-20T08:34:27Z</time>
      </trkpt>
      <trkpt lat="45.9268" lon="4.73715">
        <ele>173</ele>
        <time>2017-06-20T08:34:28Z</time>
      </trkpt>
      <trkpt lat="45.92686" lon="4.73716">
        <ele>173</ele>
        <time>2017-06-20T08:34:29Z</time>
      </trkpt>
      <trkpt lat="45.92692" lon="4.73718">
        <ele>173</ele>
        <time>2017-06-20T08:34:30Z</time>
      </trkpt>
      <trkpt lat="45.92697" lon="4.7372">
        <ele>173</ele>
        <time>2017-06-20T08:34:31Z</time>
      </trkpt>
      <trkpt lat="45.92702" lon="4.73721">
        <ele>173</ele>
        <time>2017-06-20T08:34:32Z</time>
      </trkpt>
      <trkpt lat="45.92707" lon="4.73723">
        <ele>173</ele>
        <time>2017-06-20T08:34:33Z</time>
      </trkpt>
      <trkpt lat="45.92716" lon="4.73726">
        <ele>173</ele>
        <time>2017-06-20T08:34:35Z</time>
      </trkpt>
      <trkpt lat="45.9272" lon="4.73727">
        <ele>173</ele>
        <time>2017-06-20T08:34:36Z</time>
      </trkpt>
      <trkpt lat="45.92725" lon="4.73726">
        <ele>173</ele>
        <time>2017-06-20T08:34:37Z</time>
      </trkpt>
      <trkpt lat="45.9273" lon="4.73726">
        <ele>173</ele>
        <time>2017-06-20T08:34:38Z</time>
      </trkpt>
      <trkpt lat="45.92734" lon="4.73727">
        <ele>173</ele>
        <time>2017-06-20T08:34:39Z</time>
      </trkpt>
      <trkpt lat="45.92743" lon="4.73727">
        <ele>173</ele>
        <time>2017-06-20T08:34:41Z</time>
      </trkpt>
      <trkpt lat="45.92747" lon="4.73728">
        <ele>173</ele>
        <time>2017-06-20T08:34:42Z</time>
      </trkpt>
      <trkpt lat="45.92754" lon="4.73729">
        <ele>172</ele>
        <time>2017-06-20T08:34:44Z</time>
      </trkpt>
      <trkpt lat="45.92758" lon="4.7373">
        <ele>172</ele>
        <time>2017-06-20T08:34:45Z</time>
      </trkpt>
      <trkpt lat="45.92762" lon="4.73731">
        <ele>172</ele>
        <time>2017-06-20T08:34:46Z</time>
      </trkpt>
      <trkpt lat="45.92766" lon="4.73735">
        <ele>172</ele>
        <time>2017-06-20T08:34:47Z</time>
      </trkpt>
      <trkpt lat="45.92773" lon="4.73743">
        <ele>172</ele>
        <time>2017-06-20T08:34:49Z</time>
      </trkpt>
      <trkpt lat="45.92775" lon="4.73747">
        <ele>172</ele>
        <time>2017-06-20T08:34:50Z</time>
      </trkpt>
      <trkpt lat="45.92779" lon="4.73752">
        <ele>173</ele>
        <time>2017-06-20T08:34:51Z</time>
      </trkpt>
      <trkpt lat="45.92781" lon="4.73759">
        <ele>173</ele>
        <time>2017-06-20T08:34:52Z</time>
      </trkpt>
      <trkpt lat="45.92784" lon="4.73763">
        <ele>173</ele>
        <time>2017-06-20T08:34:53Z</time>
      </trkpt>
      <trkpt lat="45.92788" lon="4.73766">
        <ele>173</ele>
        <time>2017-06-20T08:34:54Z</time>
      </trkpt>
      <trkpt lat="45.92793" lon="4.73769">
        <ele>173</ele>
        <time>2017-06-20T08:34:55Z</time>
      </trkpt>
      <trkpt lat="45.92799" lon="4.73774">
        <ele>173</ele>
        <time>2017-06-20T08:34:56Z</time>
      </trkpt>
      <trkpt lat="45.92804" lon="4.73778">
        <ele>173</ele>
        <time>2017-06-20T08:34:57Z</time>
      </trkpt>
      <trkpt lat="45.92809" lon="4.73783">
        <ele>173</ele>
        <time>2017-06-20T08:34:58Z</time>
      </trkpt>
      <trkpt lat="45.92814" lon="4.73788">
        <ele>173</ele>
        <time>2017-06-20T08:34:59Z</time>
      </trkpt>
      <trkpt lat="45.92819" lon="4.73793">
        <ele>173</ele>
        <time>2017-06-20T08:35:00Z</time>
      </trkpt>
      <trkpt lat="45.92824" lon="4.73797">
        <ele>173</ele>
        <time>2017-06-20T08:35:01Z</time>
      </trkpt>
      <trkpt lat="45.9283" lon="4.73803">
        <ele>173</ele>
        <time>2017-06-20T08:35:02Z</time>
      </trkpt>
      <trkpt lat="45.92835" lon="4.73805">
        <ele>173</ele>
        <time>2017-06-20T08:35:03Z</time>
      </trkpt>
      <trkpt lat="45.9284" lon="4.7381">
        <ele>173</ele>
        <time>2017-06-20T08:35:04Z</time>
      </trkpt>
      <trkpt lat="45.92845" lon="4.73815">
        <ele>173</ele>
        <time>2017-06-20T08:35:05Z</time>
      </trkpt>
      <trkpt lat="45.92848" lon="4.7382">
        <ele>173</ele>
        <time>2017-06-20T08:35:06Z</time>
      </trkpt>
      <trkpt lat="45.92851" lon="4.73826">
        <ele>173</ele>
        <time>2017-06-20T08:35:07Z</time>
      </trkpt>
      <trkpt lat="45.92853" lon="4.73834">
        <ele>173</ele>
        <time>2017-06-20T08:35:08Z</time>
      </trkpt>
      <trkpt lat="45.92856" lon="4.73841">
        <ele>173</ele>
        <time>2017-06-20T08:35:09Z</time>
      </trkpt>
      <trkpt lat="45.92858" lon="4.73847">
        <ele>173</ele>
        <time>2017-06-20T08:35:10Z</time>
      </trkpt>
      <trkpt lat="45.9286" lon="4.73853">
        <ele>173</ele>
        <time>2017-06-20T08:35:11Z</time>
      </trkpt>
      <trkpt lat="45.92861" lon="4.73859">
        <ele>173</ele>
        <time>2017-06-20T08:35:12Z</time>
      </trkpt>
      <trkpt lat="45.92863" lon="4.73866">
        <ele>173</ele>
        <time>2017-06-20T08:35:13Z</time>
      </trkpt>
      <trkpt lat="45.92865" lon="4.73873">
        <ele>173</ele>
        <time>2017-06-20T08:35:14Z</time>
      </trkpt>
      <trkpt lat="45.92867" lon="4.73881">
        <ele>173</ele>
        <time>2017-06-20T08:35:15Z</time>
      </trkpt>
      <trkpt lat="45.92869" lon="4.73889">
        <ele>173</ele>
        <time>2017-06-20T08:35:16Z</time>
      </trkpt>
      <trkpt lat="45.92871" lon="4.73897">
        <ele>173</ele>
        <time>2017-06-20T08:35:17Z</time>
      </trkpt>
      <trkpt lat="45.92872" lon="4.73905">
        <ele>173</ele>
        <time>2017-06-20T08:35:18Z</time>
      </trkpt>
      <trkpt lat="45.92876" lon="4.73912">
        <ele>173</ele>
        <time>2017-06-20T08:35:19Z</time>
      </trkpt>
      <trkpt lat="45.92878" lon="4.73919">
        <ele>172</ele>
        <time>2017-06-20T08:35:20Z</time>
      </trkpt>
      <trkpt lat="45.92879" lon="4.73927">
        <ele>172</ele>
        <time>2017-06-20T08:35:21Z</time>
      </trkpt>
      <trkpt lat="45.92878" lon="4.73934">
        <ele>172</ele>
        <time>2017-06-20T08:35:22Z</time>
      </trkpt>
      <trkpt lat="45.92878" lon="4.73942">
        <ele>172</ele>
        <time>2017-06-20T08:35:23Z</time>
      </trkpt>
      <trkpt lat="45.92878" lon="4.7395">
        <ele>172</ele>
        <time>2017-06-20T08:35:24Z</time>
      </trkpt>
      <trkpt lat="45.92878" lon="4.73958">
        <ele>172</ele>
        <time>2017-06-20T08:35:25Z</time>
      </trkpt>
      <trkpt lat="45.92878" lon="4.73965">
        <ele>172</ele>
        <time>2017-06-20T08:35:26Z</time>
      </trkpt>
      <trkpt lat="45.92876" lon="4.73971">
        <ele>172</ele>
        <time>2017-06-20T08:35:27Z</time>
      </trkpt>
      <trkpt lat="45.92874" lon="4.73978">
        <ele>173</ele>
        <time>2017-06-20T08:35:28Z</time>
      </trkpt>
      <trkpt lat="45.92873" lon="4.73986">
        <ele>173</ele>
        <time>2017-06-20T08:35:29Z</time>
      </trkpt>
      <trkpt lat="45.92871" lon="4.73993">
        <ele>173</ele>
        <time>2017-06-20T08:35:30Z</time>
      </trkpt>
      <trkpt lat="45.92869" lon="4.74">
        <ele>172</ele>
        <time>2017-06-20T08:35:31Z</time>
      </trkpt>
      <trkpt lat="45.92867" lon="4.74008">
        <ele>172</ele>
        <time>2017-06-20T08:35:32Z</time>
      </trkpt>
      <trkpt lat="45.92866" lon="4.74014">
        <ele>172</ele>
        <time>2017-06-20T08:35:33Z</time>
      </trkpt>
      <trkpt lat="45.92864" lon="4.74022">
        <ele>172</ele>
        <time>2017-06-20T08:35:34Z</time>
      </trkpt>
      <trkpt lat="45.92863" lon="4.74029">
        <ele>172</ele>
        <time>2017-06-20T08:35:35Z</time>
      </trkpt>
      <trkpt lat="45.9286" lon="4.74036">
        <ele>172</ele>
        <time>2017-06-20T08:35:36Z</time>
      </trkpt>
      <trkpt lat="45.92859" lon="4.74043">
        <ele>172</ele>
        <time>2017-06-20T08:35:37Z</time>
      </trkpt>
      <trkpt lat="45.92857" lon="4.74049">
        <ele>172</ele>
        <time>2017-06-20T08:35:38Z</time>
      </trkpt>
      <trkpt lat="45.92853" lon="4.74054">
        <ele>172</ele>
        <time>2017-06-20T08:35:39Z</time>
      </trkpt>
      <trkpt lat="45.92848" lon="4.74061">
        <ele>172</ele>
        <time>2017-06-20T08:35:40Z</time>
      </trkpt>
      <trkpt lat="45.92844" lon="4.74066">
        <ele>172</ele>
        <time>2017-06-20T08:35:41Z</time>
      </trkpt>
      <trkpt lat="45.92841" lon="4.74071">
        <ele>172</ele>
        <time>2017-06-20T08:35:42Z</time>
      </trkpt>
      <trkpt lat="45.92836" lon="4.74078">
        <ele>171</ele>
        <time>2017-06-20T08:35:43Z</time>
      </trkpt>
      <trkpt lat="45.9283" lon="4.74084">
        <ele>171</ele>
        <time>2017-06-20T08:35:44Z</time>
      </trkpt>
      <trkpt lat="45.92826" lon="4.7409">
        <ele>171</ele>
        <time>2017-06-20T08:35:45Z</time>
      </trkpt>
      <trkpt lat="45.92821" lon="4.74096">
        <ele>171</ele>
        <time>2017-06-20T08:35:46Z</time>
      </trkpt>
      <trkpt lat="45.92811" lon="4.74107">
        <ele>172</ele>
        <time>2017-06-20T08:35:48Z</time>
      </trkpt>
      <trkpt lat="45.92807" lon="4.74117">
        <ele>172</ele>
        <time>2017-06-20T08:35:50Z</time>
      </trkpt>
      <trkpt lat="45.92803" lon="4.74122">
        <ele>172</ele>
        <time>2017-06-20T08:35:51Z</time>
      </trkpt>
      <trkpt lat="45.92799" lon="4.74127">
        <ele>172</ele>
        <time>2017-06-20T08:35:52Z</time>
      </trkpt>
      <trkpt lat="45.92795" lon="4.74132">
        <ele>172</ele>
        <time>2017-06-20T08:35:53Z</time>
      </trkpt>
      <trkpt lat="45.92791" lon="4.74137">
        <ele>172</ele>
        <time>2017-06-20T08:35:54Z</time>
      </trkpt>
      <trkpt lat="45.92786" lon="4.74142">
        <ele>172</ele>
        <time>2017-06-20T08:35:55Z</time>
      </trkpt>
      <trkpt lat="45.92781" lon="4.74147">
        <ele>172</ele>
        <time>2017-06-20T08:35:56Z</time>
      </trkpt>
      <trkpt lat="45.92777" lon="4.74152">
        <ele>172</ele>
        <time>2017-06-20T08:35:57Z</time>
      </trkpt>
      <trkpt lat="45.92773" lon="4.74155">
        <ele>172</ele>
        <time>2017-06-20T08:35:58Z</time>
      </trkpt>
      <trkpt lat="45.92769" lon="4.7416">
        <ele>172</ele>
        <time>2017-06-20T08:35:59Z</time>
      </trkpt>
      <trkpt lat="45.92764" lon="4.74165">
        <ele>172</ele>
        <time>2017-06-20T08:36:00Z</time>
      </trkpt>
      <trkpt lat="45.9276" lon="4.7417">
        <ele>172</ele>
        <time>2017-06-20T08:36:01Z</time>
      </trkpt>
      <trkpt lat="45.92756" lon="4.74175">
        <ele>172</ele>
        <time>2017-06-20T08:36:02Z</time>
      </trkpt>
      <trkpt lat="45.92752" lon="4.74181">
        <ele>172</ele>
        <time>2017-06-20T08:36:03Z</time>
      </trkpt>
      <trkpt lat="45.92749" lon="4.74186">
        <ele>172</ele>
        <time>2017-06-20T08:36:04Z</time>
      </trkpt>
      <trkpt lat="45.92745" lon="4.74192">
        <ele>171</ele>
        <time>2017-06-20T08:36:05Z</time>
      </trkpt>
      <trkpt lat="45.92741" lon="4.74197">
        <ele>171</ele>
        <time>2017-06-20T08:36:06Z</time>
      </trkpt>
      <trkpt lat="45.92737" lon="4.74203">
        <ele>171</ele>
        <time>2017-06-20T08:36:07Z</time>
      </trkpt>
      <trkpt lat="45.92733" lon="4.74208">
        <ele>171</ele>
        <time>2017-06-20T08:36:08Z</time>
      </trkpt>
      <trkpt lat="45.92729" lon="4.74214">
        <ele>171</ele>
        <time>2017-06-20T08:36:09Z</time>
      </trkpt>
      <trkpt lat="45.92726" lon="4.7422">
        <ele>171</ele>
        <time>2017-06-20T08:36:10Z</time>
      </trkpt>
      <trkpt lat="45.92722" lon="4.74225">
        <ele>171</ele>
        <time>2017-06-20T08:36:11Z</time>
      </trkpt>
      <trkpt lat="45.92718" lon="4.74231">
        <ele>171</ele>
        <time>2017-06-20T08:36:12Z</time>
      </trkpt>
      <trkpt lat="45.92714" lon="4.74237">
        <ele>171</ele>
        <time>2017-06-20T08:36:13Z</time>
      </trkpt>
      <trkpt lat="45.92711" lon="4.74243">
        <ele>171</ele>
        <time>2017-06-20T08:36:14Z</time>
      </trkpt>
      <trkpt lat="45.92707" lon="4.74249">
        <ele>171</ele>
        <time>2017-06-20T08:36:15Z</time>
      </trkpt>
      <trkpt lat="45.92703" lon="4.74255">
        <ele>171</ele>
        <time>2017-06-20T08:36:16Z</time>
      </trkpt>
      <trkpt lat="45.92699" lon="4.7426">
        <ele>171</ele>
        <time>2017-06-20T08:36:17Z</time>
      </trkpt>
      <trkpt lat="45.92695" lon="4.74266">
        <ele>171</ele>
        <time>2017-06-20T08:36:18Z</time>
      </trkpt>
      <trkpt lat="45.92692" lon="4.74272">
        <ele>171</ele>
        <time>2017-06-20T08:36:19Z</time>
      </trkpt>
      <trkpt lat="45.92688" lon="4.74277">
        <ele>171</ele>
        <time>2017-06-20T08:36:20Z</time>
      </trkpt>
      <trkpt lat="45.92684" lon="4.74283">
        <ele>171</ele>
        <time>2017-06-20T08:36:21Z</time>
      </trkpt>
      <trkpt lat="45.92681" lon="4.74289">
        <ele>171</ele>
        <time>2017-06-20T08:36:22Z</time>
      </trkpt>
      <trkpt lat="45.92677" lon="4.74295">
        <ele>171</ele>
        <time>2017-06-20T08:36:23Z</time>
      </trkpt>
      <trkpt lat="45.92674" lon="4.74301">
        <ele>171</ele>
        <time>2017-06-20T08:36:24Z</time>
      </trkpt>
      <trkpt lat="45.9267" lon="4.74308">
        <ele>171</ele>
        <time>2017-06-20T08:36:25Z</time>
      </trkpt>
      <trkpt lat="45.92667" lon="4.74313">
        <ele>171</ele>
        <time>2017-06-20T08:36:26Z</time>
      </trkpt>
      <trkpt lat="45.92663" lon="4.7432">
        <ele>171</ele>
        <time>2017-06-20T08:36:27Z</time>
      </trkpt>
      <trkpt lat="45.9266" lon="4.74326">
        <ele>171</ele>
        <time>2017-06-20T08:36:28Z</time>
      </trkpt>
      <trkpt lat="45.92657" lon="4.74331">
        <ele>171</ele>
        <time>2017-06-20T08:36:29Z</time>
      </trkpt>
      <trkpt lat="45.92653" lon="4.74338">
        <ele>171</ele>
        <time>2017-06-20T08:36:30Z</time>
      </trkpt>
      <trkpt lat="45.9265" lon="4.74345">
        <ele>171</ele>
        <time>2017-06-20T08:36:31Z</time>
      </trkpt>
      <trkpt lat="45.92647" lon="4.74351">
        <ele>171</ele>
        <time>2017-06-20T08:36:32Z</time>
      </trkpt>
      <trkpt lat="45.92644" lon="4.74357">
        <ele>171</ele>
        <time>2017-06-20T08:36:33Z</time>
      </trkpt>
      <trkpt lat="45.9264" lon="4.74363">
        <ele>171</ele>
        <time>2017-06-20T08:36:34Z</time>
      </trkpt>
      <trkpt lat="45.92637" lon="4.74369">
        <ele>171</ele>
        <time>2017-06-20T08:36:35Z</time>
      </trkpt>
      <trkpt lat="45.92634" lon="4.74375">
        <ele>170</ele>
        <time>2017-06-20T08:36:36Z</time>
      </trkpt>
      <trkpt lat="45.9263" lon="4.74382">
        <ele>170</ele>
        <time>2017-06-20T08:36:37Z</time>
      </trkpt>
      <trkpt lat="45.92627" lon="4.74388">
        <ele>170</ele>
        <time>2017-06-20T08:36:38Z</time>
      </trkpt>
      <trkpt lat="45.92623" lon="4.74394">
        <ele>170</ele>
        <time>2017-06-20T08:36:39Z</time>
      </trkpt>
      <trkpt lat="45.92619" lon="4.744">
        <ele>170</ele>
        <time>2017-06-20T08:36:40Z</time>
      </trkpt>
      <trkpt lat="45.92616" lon="4.74406">
        <ele>170</ele>
        <time>2017-06-20T08:36:41Z</time>
      </trkpt>
      <trkpt lat="45.92613" lon="4.74413">
        <ele>170</ele>
        <time>2017-06-20T08:36:42Z</time>
      </trkpt>
      <trkpt lat="45.92609" lon="4.74419">
        <ele>170</ele>
        <time>2017-06-20T08:36:43Z</time>
      </trkpt>
      <trkpt lat="45.92605" lon="4.74425">
        <ele>170</ele>
        <time>2017-06-20T08:36:44Z</time>
      </trkpt>
      <trkpt lat="45.92601" lon="4.74431">
        <ele>170</ele>
        <time>2017-06-20T08:36:45Z</time>
      </trkpt>
      <trkpt lat="45.92598" lon="4.74438">
        <ele>170</ele>
        <time>2017-06-20T08:36:46Z</time>
      </trkpt>
      <trkpt lat="45.92594" lon="4.74444">
        <ele>170</ele>
        <time>2017-06-20T08:36:47Z</time>
      </trkpt>
      <trkpt lat="45.92591" lon="4.74451">
        <ele>170</ele>
        <time>2017-06-20T08:36:48Z</time>
      </trkpt>
      <trkpt lat="45.92587" lon="4.74458">
        <ele>170</ele>
        <time>2017-06-20T08:36:49Z</time>
      </trkpt>
      <trkpt lat="45.92584" lon="4.74464">
        <ele>170</ele>
        <time>2017-06-20T08:36:50Z</time>
      </trkpt>
      <trkpt lat="45.9258" lon="4.7447">
        <ele>170</ele>
        <time>2017-06-20T08:36:51Z</time>
      </trkpt>
      <trkpt lat="45.92577" lon="4.74477">
        <ele>170</ele>
        <time>2017-06-20T08:36:52Z</time>
      </trkpt>
      <trkpt lat="45.92574" lon="4.74483">
        <ele>170</ele>
        <time>2017-06-20T08:36:53Z</time>
      </trkpt>
      <trkpt lat="45.92571" lon="4.74489">
        <ele>170</ele>
        <time>2017-06-20T08:36:54Z</time>
      </trkpt>
      <trkpt lat="45.92567" lon="4.74496">
        <ele>170</ele>
        <time>2017-06-20T08:36:55Z</time>
      </trkpt>
      <trkpt lat="45.92564" lon="4.74501">
        <ele>170</ele>
        <time>2017-06-20T08:36:56Z</time>
      </trkpt>
      <trkpt lat="45.9256" lon="4.74507">
        <ele>170</ele>
        <time>2017-06-20T08:36:57Z</time>
      </trkpt>
      <trkpt lat="45.92557" lon="4.74514">
        <ele>170</ele>
        <time>2017-06-20T08:36:58Z</time>
      </trkpt>
      <trkpt lat="45.92554" lon="4.7452">
        <ele>170</ele>
        <time>2017-06-20T08:36:59Z</time>
      </trkpt>
      <trkpt lat="45.92551" lon="4.74527">
        <ele>170</ele>
        <time>2017-06-20T08:37:00Z</time>
      </trkpt>
      <trkpt lat="45.92547" lon="4.74533">
        <ele>170</ele>
        <time>2017-06-20T08:37:01Z</time>
      </trkpt>
      <trkpt lat="45.92543" lon="4.74539">
        <ele>170</ele>
        <time>2017-06-20T08:37:02Z</time>
      </trkpt>
      <trkpt lat="45.9254" lon="4.74545">
        <ele>171</ele>
        <time>2017-06-20T08:37:03Z</time>
      </trkpt>
      <trkpt lat="45.92536" lon="4.74551">
        <ele>171</ele>
        <time>2017-06-20T08:37:04Z</time>
      </trkpt>
      <trkpt lat="45.92532" lon="4.74557">
        <ele>171</ele>
        <time>2017-06-20T08:37:05Z</time>
      </trkpt>
      <trkpt lat="45.92528" lon="4.74562">
        <ele>171</ele>
        <time>2017-06-20T08:37:06Z</time>
      </trkpt>
      <trkpt lat="45.92524" lon="4.74568">
        <ele>171</ele>
        <time>2017-06-20T08:37:07Z</time>
      </trkpt>
      <trkpt lat="45.92519" lon="4.74573">
        <ele>171</ele>
        <time>2017-06-20T08:37:08Z</time>
      </trkpt>
      <trkpt lat="45.92515" lon="4.74578">
        <ele>171</ele>
        <time>2017-06-20T08:37:09Z</time>
      </trkpt>
      <trkpt lat="45.92511" lon="4.74582">
        <ele>171</ele>
        <time>2017-06-20T08:37:10Z</time>
      </trkpt>
      <trkpt lat="45.92507" lon="4.74587">
        <ele>171</ele>
        <time>2017-06-20T08:37:11Z</time>
      </trkpt>
      <trkpt lat="45.92502" lon="4.74591">
        <ele>171</ele>
        <time>2017-06-20T08:37:12Z</time>
      </trkpt>
      <trkpt lat="45.92498" lon="4.74597">
        <ele>171</ele>
        <time>2017-06-20T08:37:13Z</time>
      </trkpt>
      <trkpt lat="45.92494" lon="4.74602">
        <ele>171</ele>
        <time>2017-06-20T08:37:14Z</time>
      </trkpt>
      <trkpt lat="45.9249" lon="4.74607">
        <ele>171</ele>
        <time>2017-06-20T08:37:15Z</time>
      </trkpt>
      <trkpt lat="45.92486" lon="4.74611">
        <ele>171</ele>
        <time>2017-06-20T08:37:16Z</time>
      </trkpt>
      <trkpt lat="45.92481" lon="4.74616">
        <ele>171</ele>
        <time>2017-06-20T08:37:17Z</time>
      </trkpt>
      <trkpt lat="45.92477" lon="4.74621">
        <ele>171</ele>
        <time>2017-06-20T08:37:18Z</time>
      </trkpt>
      <trkpt lat="45.92474" lon="4.74627">
        <ele>171</ele>
        <time>2017-06-20T08:37:19Z</time>
      </trkpt>
      <trkpt lat="45.9247" lon="4.74632">
        <ele>171</ele>
        <time>2017-06-20T08:37:20Z</time>
      </trkpt>
      <trkpt lat="45.92466" lon="4.74638">
        <ele>171</ele>
        <time>2017-06-20T08:37:21Z</time>
      </trkpt>
      <trkpt lat="45.92463" lon="4.74644">
        <ele>171</ele>
        <time>2017-06-20T08:37:22Z</time>
      </trkpt>
      <trkpt lat="45.9246" lon="4.74649">
        <ele>171</ele>
        <time>2017-06-20T08:37:23Z</time>
      </trkpt>
      <trkpt lat="45.92456" lon="4.74655">
        <ele>171</ele>
        <time>2017-06-20T08:37:24Z</time>
      </trkpt>
      <trkpt lat="45.92453" lon="4.74661">
        <ele>171</ele>
        <time>2017-06-20T08:37:25Z</time>
      </trkpt>
      <trkpt lat="45.9245" lon="4.74667">
        <ele>171</ele>
        <time>2017-06-20T08:37:26Z</time>
      </trkpt>
      <trkpt lat="45.92447" lon="4.74674">
        <ele>171</ele>
        <time>2017-06-20T08:37:27Z</time>
      </trkpt>
      <trkpt lat="45.92443" lon="4.7468">
        <ele>171</ele>
        <time>2017-06-20T08:37:28Z</time>
      </trkpt>
      <trkpt lat="45.92441" lon="4.74687">
        <ele>171</ele>
        <time>2017-06-20T08:37:29Z</time>
      </trkpt>
      <trkpt lat="45.92438" lon="4.74694">
        <ele>171</ele>
        <time>2017-06-20T08:37:30Z</time>
      </trkpt>
      <trkpt lat="45.92435" lon="4.74701">
        <ele>171</ele>
        <time>2017-06-20T08:37:31Z</time>
      </trkpt>
      <trkpt lat="45.92432" lon="4.74708">
        <ele>171</ele>
        <time>2017-06-20T08:37:32Z</time>
      </trkpt>
      <trkpt lat="45.92429" lon="4.74715">
        <ele>171</ele>
        <time>2017-06-20T08:37:33Z</time>
      </trkpt>
      <trkpt lat="45.92427" lon="4.74722">
        <ele>171</ele>
        <time>2017-06-20T08:37:34Z</time>
      </trkpt>
      <trkpt lat="45.92425" lon="4.74729">
        <ele>171</ele>
        <time>2017-06-20T08:37:35Z</time>
      </trkpt>
      <trkpt lat="45.92423" lon="4.74736">
        <ele>171</ele>
        <time>2017-06-20T08:37:36Z</time>
      </trkpt>
      <trkpt lat="45.92421" lon="4.74743">
        <ele>172</ele>
        <time>2017-06-20T08:37:37Z</time>
      </trkpt>
      <trkpt lat="45.92419" lon="4.7475">
        <ele>172</ele>
        <time>2017-06-20T08:37:38Z</time>
      </trkpt>
      <trkpt lat="45.92417" lon="4.74757">
        <ele>172</ele>
        <time>2017-06-20T08:37:39Z</time>
      </trkpt>
      <trkpt lat="45.92415" lon="4.74765">
        <ele>172</ele>
        <time>2017-06-20T08:37:40Z</time>
      </trkpt>
      <trkpt lat="45.92413" lon="4.74772">
        <ele>172</ele>
        <time>2017-06-20T08:37:41Z</time>
      </trkpt>
      <trkpt lat="45.9241" lon="4.74779">
        <ele>171</ele>
        <time>2017-06-20T08:37:42Z</time>
      </trkpt>
      <trkpt lat="45.92409" lon="4.74787">
        <ele>171</ele>
        <time>2017-06-20T08:37:43Z</time>
      </trkpt>
      <trkpt lat="45.92407" lon="4.74794">
        <ele>171</ele>
        <time>2017-06-20T08:37:44Z</time>
      </trkpt>
      <trkpt lat="45.92405" lon="4.748">
        <ele>171</ele>
        <time>2017-06-20T08:37:45Z</time>
      </trkpt>
      <trkpt lat="45.92404" lon="4.74808">
        <ele>171</ele>
        <time>2017-06-20T08:37:46Z</time>
      </trkpt>
      <trkpt lat="45.92402" lon="4.74815">
        <ele>171</ele>
        <time>2017-06-20T08:37:47Z</time>
      </trkpt>
      <trkpt lat="45.92401" lon="4.74823">
        <ele>171</ele>
        <time>2017-06-20T08:37:48Z</time>
      </trkpt>
      <trkpt lat="45.92399" lon="4.74831">
        <ele>171</ele>
        <time>2017-06-20T08:37:49Z</time>
      </trkpt>
      <trkpt lat="45.92397" lon="4.7484">
        <ele>171</ele>
        <time>2017-06-20T08:37:50Z</time>
      </trkpt>
      <trkpt lat="45.92395" lon="4.74848">
        <ele>171</ele>
        <time>2017-06-20T08:37:51Z</time>
      </trkpt>
      <trkpt lat="45.92393" lon="4.74856">
        <ele>171</ele>
        <time>2017-06-20T08:37:52Z</time>
      </trkpt>
      <trkpt lat="45.9239" lon="4.74864">
        <ele>171</ele>
        <time>2017-06-20T08:37:53Z</time>
      </trkpt>
      <trkpt lat="45.92388" lon="4.74872">
        <ele>171</ele>
        <time>2017-06-20T08:37:54Z</time>
      </trkpt>
      <trkpt lat="45.92385" lon="4.74879">
        <ele>171</ele>
        <time>2017-06-20T08:37:55Z</time>
      </trkpt>
      <trkpt lat="45.92382" lon="4.74886">
        <ele>171</ele>
        <time>2017-06-20T08:37:56Z</time>
      </trkpt>
      <trkpt lat="45.9238" lon="4.74893">
        <ele>171</ele>
        <time>2017-06-20T08:37:57Z</time>
      </trkpt>
      <trkpt lat="45.92377" lon="4.749">
        <ele>171</ele>
        <time>2017-06-20T08:37:58Z</time>
      </trkpt>
      <trkpt lat="45.92374" lon="4.74907">
        <ele>171</ele>
        <time>2017-06-20T08:37:59Z</time>
      </trkpt>
      <trkpt lat="45.92371" lon="4.74914">
        <ele>171</ele>
        <time>2017-06-20T08:38:00Z</time>
      </trkpt>
      <trkpt lat="45.92369" lon="4.7492">
        <ele>170</ele>
        <time>2017-06-20T08:38:01Z</time>
      </trkpt>
      <trkpt lat="45.92367" lon="4.74927">
        <ele>170</ele>
        <time>2017-06-20T08:38:02Z</time>
      </trkpt>
      <trkpt lat="45.92365" lon="4.74934">
        <ele>170</ele>
        <time>2017-06-20T08:38:03Z</time>
      </trkpt>
      <trkpt lat="45.92362" lon="4.7494">
        <ele>170</ele>
        <time>2017-06-20T08:38:04Z</time>
      </trkpt>
      <trkpt lat="45.9236" lon="4.74947">
        <ele>170</ele>
        <time>2017-06-20T08:38:05Z</time>
      </trkpt>
      <trkpt lat="45.92357" lon="4.74953">
        <ele>170</ele>
        <time>2017-06-20T08:38:06Z</time>
      </trkpt>
      <trkpt lat="45.92354" lon="4.7496">
        <ele>170</ele>
        <time>2017-06-20T08:38:07Z</time>
      </trkpt>
      <trkpt lat="45.92351" lon="4.74966">
        <ele>170</ele>
        <time>2017-06-20T08:38:08Z</time>
      </trkpt>
      <trkpt lat="45.92349" lon="4.74973">
        <ele>170</ele>
        <time>2017-06-20T08:38:09Z</time>
      </trkpt>
      <trkpt lat="45.92347" lon="4.7498">
        <ele>170</ele>
        <time>2017-06-20T08:38:10Z</time>
      </trkpt>
      <trkpt lat="45.92345" lon="4.74987">
        <ele>170</ele>
        <time>2017-06-20T08:38:11Z</time>
      </trkpt>
      <trkpt lat="45.92342" lon="4.74993">
        <ele>170</ele>
        <time>2017-06-20T08:38:12Z</time>
      </trkpt>
      <trkpt lat="45.92339" lon="4.75">
        <ele>170</ele>
        <time>2017-06-20T08:38:13Z</time>
      </trkpt>
      <trkpt lat="45.92336" lon="4.75006">
        <ele>170</ele>
        <time>2017-06-20T08:38:14Z</time>
      </trkpt>
      <trkpt lat="45.92333" lon="4.75013">
        <ele>171</ele>
        <time>2017-06-20T08:38:15Z</time>
      </trkpt>
      <trkpt lat="45.9233" lon="4.7502">
        <ele>171</ele>
        <time>2017-06-20T08:38:16Z</time>
      </trkpt>
      <trkpt lat="45.92327" lon="4.75027">
        <ele>171</ele>
        <time>2017-06-20T08:38:17Z</time>
      </trkpt>
      <trkpt lat="45.92323" lon="4.75034">
        <ele>171</ele>
        <time>2017-06-20T08:38:18Z</time>
      </trkpt>
      <trkpt lat="45.92319" lon="4.75041">
        <ele>172</ele>
        <time>2017-06-20T08:38:19Z</time>
      </trkpt>
      <trkpt lat="45.92315" lon="4.75048">
        <ele>172</ele>
        <time>2017-06-20T08:38:20Z</time>
      </trkpt>
      <trkpt lat="45.92311" lon="4.75054">
        <ele>172</ele>
        <time>2017-06-20T08:38:21Z</time>
      </trkpt>
      <trkpt lat="45.92307" lon="4.7506">
        <ele>172</ele>
        <time>2017-06-20T08:38:22Z</time>
      </trkpt>
      <trkpt lat="45.92302" lon="4.75065">
        <ele>172</ele>
        <time>2017-06-20T08:38:23Z</time>
      </trkpt>
      <trkpt lat="45.92298" lon="4.75071">
        <ele>172</ele>
        <time>2017-06-20T08:38:24Z</time>
      </trkpt>
      <trkpt lat="45.92294" lon="4.75076">
        <ele>172</ele>
        <time>2017-06-20T08:38:25Z</time>
      </trkpt>
      <trkpt lat="45.92289" lon="4.7508">
        <ele>172</ele>
        <time>2017-06-20T08:38:26Z</time>
      </trkpt>
      <trkpt lat="45.92285" lon="4.75085">
        <ele>173</ele>
        <time>2017-06-20T08:38:27Z</time>
      </trkpt>
      <trkpt lat="45.92281" lon="4.75089">
        <ele>173</ele>
        <time>2017-06-20T08:38:28Z</time>
      </trkpt>
      <trkpt lat="45.92277" lon="4.75093">
        <ele>173</ele>
        <time>2017-06-20T08:38:29Z</time>
      </trkpt>
      <trkpt lat="45.92273" lon="4.75098">
        <ele>173</ele>
        <time>2017-06-20T08:38:30Z</time>
      </trkpt>
      <trkpt lat="45.92268" lon="4.75102">
        <ele>173</ele>
        <time>2017-06-20T08:38:31Z</time>
      </trkpt>
      <trkpt lat="45.92264" lon="4.75107">
        <ele>174</ele>
        <time>2017-06-20T08:38:32Z</time>
      </trkpt>
      <trkpt lat="45.92259" lon="4.75113">
        <ele>174</ele>
        <time>2017-06-20T08:38:33Z</time>
      </trkpt>
      <trkpt lat="45.92255" lon="4.75118">
        <ele>174</ele>
        <time>2017-06-20T08:38:34Z</time>
      </trkpt>
      <trkpt lat="45.9225" lon="4.75123">
        <ele>174</ele>
        <time>2017-06-20T08:38:35Z</time>
      </trkpt>
      <trkpt lat="45.92247" lon="4.75128">
        <ele>174</ele>
        <time>2017-06-20T08:38:36Z</time>
      </trkpt>
      <trkpt lat="45.92243" lon="4.75133">
        <ele>174</ele>
        <time>2017-06-20T08:38:37Z</time>
      </trkpt>
      <trkpt lat="45.92239" lon="4.75138">
        <ele>174</ele>
        <time>2017-06-20T08:38:38Z</time>
      </trkpt>
      <trkpt lat="45.92236" lon="4.75143">
        <ele>174</ele>
        <time>2017-06-20T08:38:39Z</time>
      </trkpt>
      <trkpt lat="45.92233" lon="4.75149">
        <ele>174</ele>
        <time>2017-06-20T08:38:40Z</time>
      </trkpt>
      <trkpt lat="45.9223" lon="4.75154">
        <ele>174</ele>
        <time>2017-06-20T08:38:41Z</time>
      </trkpt>
      <trkpt lat="45.92227" lon="4.7516">
        <ele>174</ele>
        <time>2017-06-20T08:38:42Z</time>
      </trkpt>
      <trkpt lat="45.92224" lon="4.75166">
        <ele>174</ele>
        <time>2017-06-20T08:38:43Z</time>
      </trkpt>
      <trkpt lat="45.92222" lon="4.75173">
        <ele>175</ele>
        <time>2017-06-20T08:38:44Z</time>
      </trkpt>
      <trkpt lat="45.9222" lon="4.75179">
        <ele>175</ele>
        <time>2017-06-20T08:38:45Z</time>
      </trkpt>
      <trkpt lat="45.92218" lon="4.75186">
        <ele>175</ele>
        <time>2017-06-20T08:38:46Z</time>
      </trkpt>
      <trkpt lat="45.92216" lon="4.75192">
        <ele>175</ele>
        <time>2017-06-20T08:38:47Z</time>
      </trkpt>
      <trkpt lat="45.92214" lon="4.75198">
        <ele>175</ele>
        <time>2017-06-20T08:38:48Z</time>
      </trkpt>
      <trkpt lat="45.92213" lon="4.75205">
        <ele>175</ele>
        <time>2017-06-20T08:38:49Z</time>
      </trkpt>
      <trkpt lat="45.92212" lon="4.75211">
        <ele>175</ele>
        <time>2017-06-20T08:38:50Z</time>
      </trkpt>
      <trkpt lat="45.92211" lon="4.75218">
        <ele>175</ele>
        <time>2017-06-20T08:38:51Z</time>
      </trkpt>
      <trkpt lat="45.9221" lon="4.75224">
        <ele>175</ele>
        <time>2017-06-20T08:38:52Z</time>
      </trkpt>
      <trkpt lat="45.9221" lon="4.75231">
        <ele>175</ele>
        <time>2017-06-20T08:38:53Z</time>
      </trkpt>
      <trkpt lat="45.92209" lon="4.75238">
        <ele>175</ele>
        <time>2017-06-20T08:38:54Z</time>
      </trkpt>
      <trkpt lat="45.92209" lon="4.75244">
        <ele>175</ele>
        <time>2017-06-20T08:38:55Z</time>
      </trkpt>
      <trkpt lat="45.9221" lon="4.75256">
        <ele>175</ele>
        <time>2017-06-20T08:38:57Z</time>
      </trkpt>
      <trkpt lat="45.9221" lon="4.75262">
        <ele>176</ele>
        <time>2017-06-20T08:38:58Z</time>
      </trkpt>
      <trkpt lat="45.9221" lon="4.75275">
        <ele>176</ele>
        <time>2017-06-20T08:39:00Z</time>
      </trkpt>
      <trkpt lat="45.9221" lon="4.75281">
        <ele>176</ele>
        <time>2017-06-20T08:39:01Z</time>
      </trkpt>
      <trkpt lat="45.9221" lon="4.75288">
        <ele>176</ele>
        <time>2017-06-20T08:39:02Z</time>
      </trkpt>
      <trkpt lat="45.9221" lon="4.75296">
        <ele>176</ele>
        <time>2017-06-20T08:39:03Z</time>
      </trkpt>
      <trkpt lat="45.9221" lon="4.75304">
        <ele>176</ele>
        <time>2017-06-20T08:39:04Z</time>
      </trkpt>
      <trkpt lat="45.9221" lon="4.75312">
        <ele>176</ele>
        <time>2017-06-20T08:39:05Z</time>
      </trkpt>
      <trkpt lat="45.92209" lon="4.75319">
        <ele>176</ele>
        <time>2017-06-20T08:39:06Z</time>
      </trkpt>
      <trkpt lat="45.92208" lon="4.75326">
        <ele>176</ele>
        <time>2017-06-20T08:39:07Z</time>
      </trkpt>
      <trkpt lat="45.92207" lon="4.75333">
        <ele>176</ele>
        <time>2017-06-20T08:39:08Z</time>
      </trkpt>
      <trkpt lat="45.92205" lon="4.7534">
        <ele>177</ele>
        <time>2017-06-20T08:39:09Z</time>
      </trkpt>
      <trkpt lat="45.92202" lon="4.75352">
        <ele>177</ele>
        <time>2017-06-20T08:39:11Z</time>
      </trkpt>
      <trkpt lat="45.92201" lon="4.75358">
        <ele>177</ele>
        <time>2017-06-20T08:39:12Z</time>
      </trkpt>
      <trkpt lat="45.92199" lon="4.75364">
        <ele>177</ele>
        <time>2017-06-20T08:39:13Z</time>
      </trkpt>
      <trkpt lat="45.92197" lon="4.7537">
        <ele>177</ele>
        <time>2017-06-20T08:39:14Z</time>
      </trkpt>
      <trkpt lat="45.92195" lon="4.75376">
        <ele>177</ele>
        <time>2017-06-20T08:39:15Z</time>
      </trkpt>
      <trkpt lat="45.92192" lon="4.75383">
        <ele>177</ele>
        <time>2017-06-20T08:39:16Z</time>
      </trkpt>
      <trkpt lat="45.9219" lon="4.75389">
        <ele>177</ele>
        <time>2017-06-20T08:39:17Z</time>
      </trkpt>
      <trkpt lat="45.92188" lon="4.75395">
        <ele>177</ele>
        <time>2017-06-20T08:39:18Z</time>
      </trkpt>
      <trkpt lat="45.92184" lon="4.75406">
        <ele>177</ele>
        <time>2017-06-20T08:39:20Z</time>
      </trkpt>
      <trkpt lat="45.92182" lon="4.75412">
        <ele>177</ele>
        <time>2017-06-20T08:39:21Z</time>
      </trkpt>
      <trkpt lat="45.92177" lon="4.75423">
        <ele>177</ele>
        <time>2017-06-20T08:39:23Z</time>
      </trkpt>
      <trkpt lat="45.92175" lon="4.75429">
        <ele>177</ele>
        <time>2017-06-20T08:39:24Z</time>
      </trkpt>
      <trkpt lat="45.92172" lon="4.75435">
        <ele>177</ele>
        <time>2017-06-20T08:39:25Z</time>
      </trkpt>
      <trkpt lat="45.9217" lon="4.75441">
        <ele>177</ele>
        <time>2017-06-20T08:39:26Z</time>
      </trkpt>
      <trkpt lat="45.92167" lon="4.75448">
        <ele>176</ele>
        <time>2017-06-20T08:39:27Z</time>
      </trkpt>
      <trkpt lat="45.92164" lon="4.75454">
        <ele>176</ele>
        <time>2017-06-20T08:39:28Z</time>
      </trkpt>
      <trkpt lat="45.92161" lon="4.75461">
        <ele>176</ele>
        <time>2017-06-20T08:39:29Z</time>
      </trkpt>
      <trkpt lat="45.92158" lon="4.75469">
        <ele>176</ele>
        <time>2017-06-20T08:39:30Z</time>
      </trkpt>
      <trkpt lat="45.92155" lon="4.75475">
        <ele>176</ele>
        <time>2017-06-20T08:39:31Z</time>
      </trkpt>
      <trkpt lat="45.92152" lon="4.75483">
        <ele>176</ele>
        <time>2017-06-20T08:39:32Z</time>
      </trkpt>
      <trkpt lat="45.92149" lon="4.7549">
        <ele>176</ele>
        <time>2017-06-20T08:39:33Z</time>
      </trkpt>
      <trkpt lat="45.92147" lon="4.75497">
        <ele>175</ele>
        <time>2017-06-20T08:39:34Z</time>
      </trkpt>
      <trkpt lat="45.92142" lon="4.75506">
        <ele>174</ele>
        <time>2017-06-20T08:39:35Z</time>
      </trkpt>
      <trkpt lat="45.92138" lon="4.75513">
        <ele>174</ele>
        <time>2017-06-20T08:39:36Z</time>
      </trkpt>
      <trkpt lat="45.92134" lon="4.7552">
        <ele>174</ele>
        <time>2017-06-20T08:39:37Z</time>
      </trkpt>
      <trkpt lat="45.92131" lon="4.75526">
        <ele>174</ele>
        <time>2017-06-20T08:39:38Z</time>
      </trkpt>
      <trkpt lat="45.92127" lon="4.75533">
        <ele>174</ele>
        <time>2017-06-20T08:39:39Z</time>
      </trkpt>
      <trkpt lat="45.92124" lon="4.75539">
        <ele>174</ele>
        <time>2017-06-20T08:39:40Z</time>
      </trkpt>
      <trkpt lat="45.92121" lon="4.75545">
        <ele>174</ele>
        <time>2017-06-20T08:39:41Z</time>
      </trkpt>
      <trkpt lat="45.92118" lon="4.75551">
        <ele>174</ele>
        <time>2017-06-20T08:39:42Z</time>
      </trkpt>
      <trkpt lat="45.92115" lon="4.75557">
        <ele>174</ele>
        <time>2017-06-20T08:39:43Z</time>
      </trkpt>
      <trkpt lat="45.92112" lon="4.75563">
        <ele>174</ele>
        <time>2017-06-20T08:39:44Z</time>
      </trkpt>
      <trkpt lat="45.9211" lon="4.7557">
        <ele>174</ele>
        <time>2017-06-20T08:39:45Z</time>
      </trkpt>
      <trkpt lat="45.92109" lon="4.75577">
        <ele>174</ele>
        <time>2017-06-20T08:39:46Z</time>
      </trkpt>
      <trkpt lat="45.92109" lon="4.75583">
        <ele>174</ele>
        <time>2017-06-20T08:39:47Z</time>
      </trkpt>
      <trkpt lat="45.92112" lon="4.7559">
        <ele>174</ele>
        <time>2017-06-20T08:39:48Z</time>
      </trkpt>
      <trkpt lat="45.92115" lon="4.75594">
        <ele>174</ele>
        <time>2017-06-20T08:39:49Z</time>
      </trkpt>
      <trkpt lat="45.92119" lon="4.75599">
        <ele>174</ele>
        <time>2017-06-20T08:39:50Z</time>
      </trkpt>
      <trkpt lat="45.92123" lon="4.75603">
        <ele>174</ele>
        <time>2017-06-20T08:39:51Z</time>
      </trkpt>
      <trkpt lat="45.92126" lon="4.75607">
        <ele>174</ele>
        <time>2017-06-20T08:39:52Z</time>
      </trkpt>
      <trkpt lat="45.9213" lon="4.75611">
        <ele>174</ele>
        <time>2017-06-20T08:39:53Z</time>
      </trkpt>
      <trkpt lat="45.92134" lon="4.75616">
        <ele>174</ele>
        <time>2017-06-20T08:39:54Z</time>
      </trkpt>
      <trkpt lat="45.92138" lon="4.7562">
        <ele>174</ele>
        <time>2017-06-20T08:39:55Z</time>
      </trkpt>
      <trkpt lat="45.92143" lon="4.75624">
        <ele>174</ele>
        <time>2017-06-20T08:39:56Z</time>
      </trkpt>
      <trkpt lat="45.92147" lon="4.75628">
        <ele>174</ele>
        <time>2017-06-20T08:39:57Z</time>
      </trkpt>
      <trkpt lat="45.92151" lon="4.75632">
        <ele>174</ele>
        <time>2017-06-20T08:39:58Z</time>
      </trkpt>
      <trkpt lat="45.92155" lon="4.75636">
        <ele>174</ele>
        <time>2017-06-20T08:39:59Z</time>
      </trkpt>
      <trkpt lat="45.9216" lon="4.7564">
        <ele>174</ele>
        <time>2017-06-20T08:40:00Z</time>
      </trkpt>
      <trkpt lat="45.92164" lon="4.75644">
        <ele>174</ele>
        <time>2017-06-20T08:40:01Z</time>
      </trkpt>
      <trkpt lat="45.92168" lon="4.75648">
        <ele>174</ele>
        <time>2017-06-20T08:40:02Z</time>
      </trkpt>
      <trkpt lat="45.92172" lon="4.75651">
        <ele>174</ele>
        <time>2017-06-20T08:40:03Z</time>
      </trkpt>
      <trkpt lat="45.92176" lon="4.75655">
        <ele>174</ele>
        <time>2017-06-20T08:40:04Z</time>
      </trkpt>
      <trkpt lat="45.92183" lon="4.75661">
        <ele>174</ele>
        <time>2017-06-20T08:40:06Z</time>
      </trkpt>
      <trkpt lat="45.92186" lon="4.75664">
        <ele>174</ele>
        <time>2017-06-20T08:40:07Z</time>
      </trkpt>
      <trkpt lat="45.9219" lon="4.75668">
        <ele>174</ele>
        <time>2017-06-20T08:40:08Z</time>
      </trkpt>
      <trkpt lat="45.92194" lon="4.75672">
        <ele>174</ele>
        <time>2017-06-20T08:40:09Z</time>
      </trkpt>
      <trkpt lat="45.92198" lon="4.75677">
        <ele>174</ele>
        <time>2017-06-20T08:40:10Z</time>
      </trkpt>
      <trkpt lat="45.92203" lon="4.75682">
        <ele>174</ele>
        <time>2017-06-20T08:40:11Z</time>
      </trkpt>
      <trkpt lat="45.92207" lon="4.75686">
        <ele>174</ele>
        <time>2017-06-20T08:40:12Z</time>
      </trkpt>
      <trkpt lat="45.92212" lon="4.75691">
        <ele>174</ele>
        <time>2017-06-20T08:40:13Z</time>
      </trkpt>
      <trkpt lat="45.92216" lon="4.75696">
        <ele>174</ele>
        <time>2017-06-20T08:40:14Z</time>
      </trkpt>
      <trkpt lat="45.9222" lon="4.757">
        <ele>174</ele>
        <time>2017-06-20T08:40:15Z</time>
      </trkpt>
      <trkpt lat="45.92224" lon="4.75704">
        <ele>174</ele>
        <time>2017-06-20T08:40:16Z</time>
      </trkpt>
      <trkpt lat="45.92228" lon="4.75708">
        <ele>174</ele>
        <time>2017-06-20T08:40:17Z</time>
      </trkpt>
      <trkpt lat="45.92232" lon="4.75714">
        <ele>174</ele>
        <time>2017-06-20T08:40:18Z</time>
      </trkpt>
      <trkpt lat="45.92236" lon="4.7572">
        <ele>174</ele>
        <time>2017-06-20T08:40:19Z</time>
      </trkpt>
      <trkpt lat="45.92239" lon="4.75727">
        <ele>174</ele>
        <time>2017-06-20T08:40:20Z</time>
      </trkpt>
      <trkpt lat="45.92241" lon="4.75735">
        <ele>174</ele>
        <time>2017-06-20T08:40:21Z</time>
      </trkpt>
      <trkpt lat="45.92244" lon="4.75744">
        <ele>174</ele>
        <time>2017-06-20T08:40:22Z</time>
      </trkpt>
      <trkpt lat="45.92246" lon="4.75751">
        <ele>174</ele>
        <time>2017-06-20T08:40:23Z</time>
      </trkpt>
      <trkpt lat="45.92247" lon="4.75759">
        <ele>174</ele>
        <time>2017-06-20T08:40:24Z</time>
      </trkpt>
      <trkpt lat="45.92248" lon="4.75766">
        <ele>174</ele>
        <time>2017-06-20T08:40:25Z</time>
      </trkpt>
      <trkpt lat="45.92249" lon="4.75773">
        <ele>174</ele>
        <time>2017-06-20T08:40:26Z</time>
      </trkpt>
      <trkpt lat="45.9225" lon="4.7578">
        <ele>173</ele>
        <time>2017-06-20T08:40:27Z</time>
      </trkpt>
      <trkpt lat="45.92251" lon="4.75786">
        <ele>174</ele>
        <time>2017-06-20T08:40:28Z</time>
      </trkpt>
      <trkpt lat="45.92252" lon="4.75793">
        <ele>174</ele>
        <time>2017-06-20T08:40:29Z</time>
      </trkpt>
      <trkpt lat="45.92254" lon="4.75799">
        <ele>174</ele>
        <time>2017-06-20T08:40:30Z</time>
      </trkpt>
      <trkpt lat="45.92255" lon="4.75806">
        <ele>174</ele>
        <time>2017-06-20T08:40:31Z</time>
      </trkpt>
      <trkpt lat="45.92257" lon="4.75812">
        <ele>174</ele>
        <time>2017-06-20T08:40:32Z</time>
      </trkpt>
      <trkpt lat="45.9226" lon="4.75818">
        <ele>174</ele>
        <time>2017-06-20T08:40:33Z</time>
      </trkpt>
      <trkpt lat="45.92263" lon="4.75823">
        <ele>174</ele>
        <time>2017-06-20T08:40:34Z</time>
      </trkpt>
      <trkpt lat="45.92267" lon="4.75829">
        <ele>174</ele>
        <time>2017-06-20T08:40:35Z</time>
      </trkpt>
      <trkpt lat="45.92271" lon="4.75833">
        <ele>174</ele>
        <time>2017-06-20T08:40:36Z</time>
      </trkpt>
      <trkpt lat="45.92275" lon="4.75837">
        <ele>173</ele>
        <time>2017-06-20T08:40:37Z</time>
      </trkpt>
      <trkpt lat="45.9228" lon="4.75841">
        <ele>173</ele>
        <time>2017-06-20T08:40:38Z</time>
      </trkpt>
      <trkpt lat="45.92285" lon="4.75845">
        <ele>173</ele>
        <time>2017-06-20T08:40:39Z</time>
      </trkpt>
      <trkpt lat="45.9229" lon="4.75848">
        <ele>173</ele>
        <time>2017-06-20T08:40:40Z</time>
      </trkpt>
      <trkpt lat="45.92295" lon="4.7585">
        <ele>173</ele>
        <time>2017-06-20T08:40:41Z</time>
      </trkpt>
      <trkpt lat="45.923" lon="4.75854">
        <ele>173</ele>
        <time>2017-06-20T08:40:42Z</time>
      </trkpt>
      <trkpt lat="45.92305" lon="4.75857">
        <ele>173</ele>
        <time>2017-06-20T08:40:43Z</time>
      </trkpt>
      <trkpt lat="45.92309" lon="4.75859">
        <ele>173</ele>
        <time>2017-06-20T08:40:44Z</time>
      </trkpt>
      <trkpt lat="45.92315" lon="4.75862">
        <ele>173</ele>
        <time>2017-06-20T08:40:45Z</time>
      </trkpt>
      <trkpt lat="45.9232" lon="4.75865">
        <ele>173</ele>
        <time>2017-06-20T08:40:46Z</time>
      </trkpt>
      <trkpt lat="45.92325" lon="4.75869">
        <ele>173</ele>
        <time>2017-06-20T08:40:47Z</time>
      </trkpt>
      <trkpt lat="45.9233" lon="4.75872">
        <ele>173</ele>
        <time>2017-06-20T08:40:48Z</time>
      </trkpt>
      <trkpt lat="45.92335" lon="4.75875">
        <ele>173</ele>
        <time>2017-06-20T08:40:49Z</time>
      </trkpt>
      <trkpt lat="45.9234" lon="4.75878">
        <ele>173</ele>
        <time>2017-06-20T08:40:50Z</time>
      </trkpt>
      <trkpt lat="45.92345" lon="4.75881">
        <ele>173</ele>
        <time>2017-06-20T08:40:51Z</time>
      </trkpt>
      <trkpt lat="45.9235" lon="4.75885">
        <ele>173</ele>
        <time>2017-06-20T08:40:52Z</time>
      </trkpt>
      <trkpt lat="45.92355" lon="4.75888">
        <ele>173</ele>
        <time>2017-06-20T08:40:53Z</time>
      </trkpt>
      <trkpt lat="45.9236" lon="4.75892">
        <ele>173</ele>
        <time>2017-06-20T08:40:54Z</time>
      </trkpt>
      <trkpt lat="45.92365" lon="4.75896">
        <ele>173</ele>
        <time>2017-06-20T08:40:55Z</time>
      </trkpt>
      <trkpt lat="45.92371" lon="4.75899">
        <ele>173</ele>
        <time>2017-06-20T08:40:56Z</time>
      </trkpt>
      <trkpt lat="45.92376" lon="4.75903">
        <ele>173</ele>
        <time>2017-06-20T08:40:57Z</time>
      </trkpt>
      <trkpt lat="45.92381" lon="4.75906">
        <ele>173</ele>
        <time>2017-06-20T08:40:58Z</time>
      </trkpt>
      <trkpt lat="45.92385" lon="4.75909">
        <ele>173</ele>
        <time>2017-06-20T08:40:59Z</time>
      </trkpt>
      <trkpt lat="45.9239" lon="4.75912">
        <ele>173</ele>
        <time>2017-06-20T08:41:00Z</time>
      </trkpt>
      <trkpt lat="45.92395" lon="4.75916">
        <ele>173</ele>
        <time>2017-06-20T08:41:01Z</time>
      </trkpt>
      <trkpt lat="45.924" lon="4.7592">
        <ele>172</ele>
        <time>2017-06-20T08:41:02Z</time>
      </trkpt>
      <trkpt lat="45.92406" lon="4.75924">
        <ele>172</ele>
        <time>2017-06-20T08:41:03Z</time>
      </trkpt>
      <trkpt lat="45.92411" lon="4.75927">
        <ele>172</ele>
        <time>2017-06-20T08:41:04Z</time>
      </trkpt>
      <trkpt lat="45.92417" lon="4.75931">
        <ele>172</ele>
        <time>2017-06-20T08:41:05Z</time>
      </trkpt>
      <trkpt lat="45.92422" lon="4.75936">
        <ele>172</ele>
        <time>2017-06-20T08:41:06Z</time>
      </trkpt>
      <trkpt lat="45.92428" lon="4.7594">
        <ele>172</ele>
        <time>2017-06-20T08:41:07Z</time>
      </trkpt>
      <trkpt lat="45.92433" lon="4.75944">
        <ele>172</ele>
        <time>2017-06-20T08:41:08Z</time>
      </trkpt>
      <trkpt lat="45.92439" lon="4.75949">
        <ele>172</ele>
        <time>2017-06-20T08:41:09Z</time>
      </trkpt>
      <trkpt lat="45.92444" lon="4.75953">
        <ele>172</ele>
        <time>2017-06-20T08:41:10Z</time>
      </trkpt>
      <trkpt lat="45.92449" lon="4.75957">
        <ele>172</ele>
        <time>2017-06-20T08:41:11Z</time>
      </trkpt>
      <trkpt lat="45.92455" lon="4.75961">
        <ele>172</ele>
        <time>2017-06-20T08:41:12Z</time>
      </trkpt>
      <trkpt lat="45.9246" lon="4.75965">
        <ele>172</ele>
        <time>2017-06-20T08:41:13Z</time>
      </trkpt>
      <trkpt lat="45.92465" lon="4.75969">
        <ele>172</ele>
        <time>2017-06-20T08:41:14Z</time>
      </trkpt>
      <trkpt lat="45.9247" lon="4.75973">
        <ele>172</ele>
        <time>2017-06-20T08:41:15Z</time>
      </trkpt>
      <trkpt lat="45.92476" lon="4.75977">
        <ele>172</ele>
        <time>2017-06-20T08:41:16Z</time>
      </trkpt>
      <trkpt lat="45.92481" lon="4.75981">
        <ele>172</ele>
        <time>2017-06-20T08:41:17Z</time>
      </trkpt>
      <trkpt lat="45.92486" lon="4.75985">
        <ele>172</ele>
        <time>2017-06-20T08:41:18Z</time>
      </trkpt>
      <trkpt lat="45.92492" lon="4.75989">
        <ele>172</ele>
        <time>2017-06-20T08:41:19Z</time>
      </trkpt>
      <trkpt lat="45.92496" lon="4.75993">
        <ele>172</ele>
        <time>2017-06-20T08:41:20Z</time>
      </trkpt>
      <trkpt lat="45.92501" lon="4.75996">
        <ele>172</ele>
        <time>2017-06-20T08:41:21Z</time>
      </trkpt>
      <trkpt lat="45.92506" lon="4.76">
        <ele>172</ele>
        <time>2017-06-20T08:41:22Z</time>
      </trkpt>
      <trkpt lat="45.9251" lon="4.76003">
        <ele>172</ele>
        <time>2017-06-20T08:41:23Z</time>
      </trkpt>
      <trkpt lat="45.92514" lon="4.76006">
        <ele>172</ele>
        <time>2017-06-20T08:41:24Z</time>
      </trkpt>
      <trkpt lat="45.92518" lon="4.76009">
        <ele>172</ele>
        <time>2017-06-20T08:41:25Z</time>
      </trkpt>
      <trkpt lat="45.92523" lon="4.76012">
        <ele>172</ele>
        <time>2017-06-20T08:41:26Z</time>
      </trkpt>
      <trkpt lat="45.92527" lon="4.76015">
        <ele>172</ele>
        <time>2017-06-20T08:41:27Z</time>
      </trkpt>
      <trkpt lat="45.92531" lon="4.76018">
        <ele>172</ele>
        <time>2017-06-20T08:41:28Z</time>
      </trkpt>
      <trkpt lat="45.92535" lon="4.76021">
        <ele>172</ele>
        <time>2017-06-20T08:41:29Z</time>
      </trkpt>
      <trkpt lat="45.92539" lon="4.76024">
        <ele>172</ele>
        <time>2017-06-20T08:41:30Z</time>
      </trkpt>
      <trkpt lat="45.92543" lon="4.76027">
        <ele>172</ele>
        <time>2017-06-20T08:41:31Z</time>
      </trkpt>
      <trkpt lat="45.92547" lon="4.7603">
        <ele>172</ele>
        <time>2017-06-20T08:41:32Z</time>
      </trkpt>
      <trkpt lat="45.92551" lon="4.76033">
        <ele>172</ele>
        <time>2017-06-20T08:41:33Z</time>
      </trkpt>
      <trkpt lat="45.92555" lon="4.76036">
        <ele>172</ele>
        <time>2017-06-20T08:41:34Z</time>
      </trkpt>
      <trkpt lat="45.9256" lon="4.76039">
        <ele>172</ele>
        <time>2017-06-20T08:41:35Z</time>
      </trkpt>
      <trkpt lat="45.92564" lon="4.76043">
        <ele>171</ele>
        <time>2017-06-20T08:41:36Z</time>
      </trkpt>
      <trkpt lat="45.92569" lon="4.76046">
        <ele>171</ele>
        <time>2017-06-20T08:41:37Z</time>
      </trkpt>
      <trkpt lat="45.92573" lon="4.7605">
        <ele>171</ele>
        <time>2017-06-20T08:41:38Z</time>
      </trkpt>
      <trkpt lat="45.92578" lon="4.76053">
        <ele>171</ele>
        <time>2017-06-20T08:41:39Z</time>
      </trkpt>
      <trkpt lat="45.92583" lon="4.76056">
        <ele>171</ele>
        <time>2017-06-20T08:41:40Z</time>
      </trkpt>
      <trkpt lat="45.92588" lon="4.76059">
        <ele>171</ele>
        <time>2017-06-20T08:41:41Z</time>
      </trkpt>
      <trkpt lat="45.92593" lon="4.76062">
        <ele>171</ele>
        <time>2017-06-20T08:41:42Z</time>
      </trkpt>
      <trkpt lat="45.92598" lon="4.76065">
        <ele>171</ele>
        <time>2017-06-20T08:41:43Z</time>
      </trkpt>
      <trkpt lat="45.92603" lon="4.76069">
        <ele>171</ele>
        <time>2017-06-20T08:41:44Z</time>
      </trkpt>
      <trkpt lat="45.92608" lon="4.76073">
        <ele>171</ele>
        <time>2017-06-20T08:41:45Z</time>
      </trkpt>
      <trkpt lat="45.92613" lon="4.76076">
        <ele>171</ele>
        <time>2017-06-20T08:41:46Z</time>
      </trkpt>
      <trkpt lat="45.92619" lon="4.76079">
        <ele>171</ele>
        <time>2017-06-20T08:41:47Z</time>
      </trkpt>
      <trkpt lat="45.92624" lon="4.76083">
        <ele>171</ele>
        <time>2017-06-20T08:41:48Z</time>
      </trkpt>
      <trkpt lat="45.9263" lon="4.76087">
        <ele>170</ele>
        <time>2017-06-20T08:41:49Z</time>
      </trkpt>
      <trkpt lat="45.92636" lon="4.76091">
        <ele>170</ele>
        <time>2017-06-20T08:41:50Z</time>
      </trkpt>
      <trkpt lat="45.92642" lon="4.76096">
        <ele>170</ele>
        <time>2017-06-20T08:41:51Z</time>
      </trkpt>
      <trkpt lat="45.92649" lon="4.761">
        <ele>170</ele>
        <time>2017-06-20T08:41:52Z</time>
      </trkpt>
      <trkpt lat="45.92655" lon="4.76104">
        <ele>170</ele>
        <time>2017-06-20T08:41:53Z</time>
      </trkpt>
      <trkpt lat="45.92661" lon="4.76109">
        <ele>170</ele>
        <time>2017-06-20T08:41:54Z</time>
      </trkpt>
      <trkpt lat="45.92668" lon="4.76113">
        <ele>169</ele>
        <time>2017-06-20T08:41:55Z</time>
      </trkpt>
      <trkpt lat="45.92675" lon="4.76118">
        <ele>169</ele>
        <time>2017-06-20T08:41:56Z</time>
      </trkpt>
      <trkpt lat="45.92682" lon="4.76123">
        <ele>169</ele>
        <time>2017-06-20T08:41:57Z</time>
      </trkpt>
      <trkpt lat="45.92689" lon="4.76127">
        <ele>169</ele>
        <time>2017-06-20T08:41:58Z</time>
      </trkpt>
      <trkpt lat="45.92696" lon="4.76131">
        <ele>169</ele>
        <time>2017-06-20T08:41:59Z</time>
      </trkpt>
      <trkpt lat="45.92703" lon="4.76136">
        <ele>169</ele>
        <time>2017-06-20T08:42:00Z</time>
      </trkpt>
      <trkpt lat="45.9271" lon="4.76141">
        <ele>168</ele>
        <time>2017-06-20T08:42:01Z</time>
      </trkpt>
      <trkpt lat="45.92717" lon="4.76146">
        <ele>168</ele>
        <time>2017-06-20T08:42:02Z</time>
      </trkpt>
      <trkpt lat="45.92724" lon="4.76151">
        <ele>168</ele>
        <time>2017-06-20T08:42:03Z</time>
      </trkpt>
      <trkpt lat="45.92731" lon="4.76156">
        <ele>168</ele>
        <time>2017-06-20T08:42:04Z</time>
      </trkpt>
      <trkpt lat="45.92738" lon="4.76161">
        <ele>168</ele>
        <time>2017-06-20T08:42:05Z</time>
      </trkpt>
      <trkpt lat="45.92744" lon="4.76166">
        <ele>167</ele>
        <time>2017-06-20T08:42:06Z</time>
      </trkpt>
      <trkpt lat="45.92751" lon="4.76171">
        <ele>167</ele>
        <time>2017-06-20T08:42:07Z</time>
      </trkpt>
      <trkpt lat="45.92757" lon="4.76176">
        <ele>167</ele>
        <time>2017-06-20T08:42:08Z</time>
      </trkpt>
      <trkpt lat="45.92763" lon="4.76181">
        <ele>167</ele>
        <time>2017-06-20T08:42:09Z</time>
      </trkpt>
      <trkpt lat="45.92768" lon="4.76186">
        <ele>167</ele>
        <time>2017-06-20T08:42:10Z</time>
      </trkpt>
      <trkpt lat="45.92774" lon="4.76191">
        <ele>168</ele>
        <time>2017-06-20T08:42:11Z</time>
      </trkpt>
      <trkpt lat="45.9278" lon="4.76195">
        <ele>168</ele>
        <time>2017-06-20T08:42:12Z</time>
      </trkpt>
      <trkpt lat="45.92785" lon="4.762">
        <ele>168</ele>
        <time>2017-06-20T08:42:13Z</time>
      </trkpt>
      <trkpt lat="45.9279" lon="4.76206">
        <ele>168</ele>
        <time>2017-06-20T08:42:14Z</time>
      </trkpt>
      <trkpt lat="45.92795" lon="4.76211">
        <ele>168</ele>
        <time>2017-06-20T08:42:15Z</time>
      </trkpt>
      <trkpt lat="45.928" lon="4.76215">
        <ele>168</ele>
        <time>2017-06-20T08:42:16Z</time>
      </trkpt>
      <trkpt lat="45.92805" lon="4.7622">
        <ele>168</ele>
        <time>2017-06-20T08:42:17Z</time>
      </trkpt>
      <trkpt lat="45.9281" lon="4.76225">
        <ele>168</ele>
        <time>2017-06-20T08:42:18Z</time>
      </trkpt>
      <trkpt lat="45.92815" lon="4.7623">
        <ele>168</ele>
        <time>2017-06-20T08:42:19Z</time>
      </trkpt>
      <trkpt lat="45.92819" lon="4.76234">
        <ele>168</ele>
        <time>2017-06-20T08:42:20Z</time>
      </trkpt>
      <trkpt lat="45.92824" lon="4.76238">
        <ele>168</ele>
        <time>2017-06-20T08:42:21Z</time>
      </trkpt>
      <trkpt lat="45.92829" lon="4.76242">
        <ele>169</ele>
        <time>2017-06-20T08:42:22Z</time>
      </trkpt>
      <trkpt lat="45.92833" lon="4.76247">
        <ele>169</ele>
        <time>2017-06-20T08:42:23Z</time>
      </trkpt>
      <trkpt lat="45.92837" lon="4.7625">
        <ele>169</ele>
        <time>2017-06-20T08:42:24Z</time>
      </trkpt>
      <trkpt lat="45.9284" lon="4.76254">
        <ele>169</ele>
        <time>2017-06-20T08:42:25Z</time>
      </trkpt>
      <trkpt lat="45.92848" lon="4.76261">
        <ele>169</ele>
        <time>2017-06-20T08:42:27Z</time>
      </trkpt>
      <trkpt lat="45.92851" lon="4.76265">
        <ele>169</ele>
        <time>2017-06-20T08:42:28Z</time>
      </trkpt>
      <trkpt lat="45.92855" lon="4.76268">
        <ele>169</ele>
        <time>2017-06-20T08:42:29Z</time>
      </trkpt>
      <trkpt lat="45.92859" lon="4.76272">
        <ele>169</ele>
        <time>2017-06-20T08:42:30Z</time>
      </trkpt>
      <trkpt lat="45.92863" lon="4.76276">
        <ele>169</ele>
        <time>2017-06-20T08:42:31Z</time>
      </trkpt>
      <trkpt lat="45.92867" lon="4.76281">
        <ele>169</ele>
        <time>2017-06-20T08:42:32Z</time>
      </trkpt>
      <trkpt lat="45.92873" lon="4.76286">
        <ele>169</ele>
        <time>2017-06-20T08:42:33Z</time>
      </trkpt>
      <trkpt lat="45.92878" lon="4.76291">
        <ele>169</ele>
        <time>2017-06-20T08:42:34Z</time>
      </trkpt>
      <trkpt lat="45.92883" lon="4.76296">
        <ele>169</ele>
        <time>2017-06-20T08:42:35Z</time>
      </trkpt>
      <trkpt lat="45.92887" lon="4.76301">
        <ele>169</ele>
        <time>2017-06-20T08:42:36Z</time>
      </trkpt>
      <trkpt lat="45.92891" lon="4.76306">
        <ele>169</ele>
        <time>2017-06-20T08:42:37Z</time>
      </trkpt>
      <trkpt lat="45.92895" lon="4.7631">
        <ele>169</ele>
        <time>2017-06-20T08:42:38Z</time>
      </trkpt>
      <trkpt lat="45.92899" lon="4.76315">
        <ele>169</ele>
        <time>2017-06-20T08:42:39Z</time>
      </trkpt>
      <trkpt lat="45.92903" lon="4.76319">
        <ele>169</ele>
        <time>2017-06-20T08:42:40Z</time>
      </trkpt>
      <trkpt lat="45.92906" lon="4.76323">
        <ele>169</ele>
        <time>2017-06-20T08:42:41Z</time>
      </trkpt>
      <trkpt lat="45.9291" lon="4.76328">
        <ele>169</ele>
        <time>2017-06-20T08:42:42Z</time>
      </trkpt>
      <trkpt lat="45.92915" lon="4.76333">
        <ele>169</ele>
        <time>2017-06-20T08:42:43Z</time>
      </trkpt>
      <trkpt lat="45.92921" lon="4.76339">
        <ele>169</ele>
        <time>2017-06-20T08:42:44Z</time>
      </trkpt>
      <trkpt lat="45.92926" lon="4.76344">
        <ele>169</ele>
        <time>2017-06-20T08:42:45Z</time>
      </trkpt>
      <trkpt lat="45.92931" lon="4.76349">
        <ele>169</ele>
        <time>2017-06-20T08:42:46Z</time>
      </trkpt>
      <trkpt lat="45.92935" lon="4.76354">
        <ele>169</ele>
        <time>2017-06-20T08:42:47Z</time>
      </trkpt>
      <trkpt lat="45.9294" lon="4.76359">
        <ele>169</ele>
        <time>2017-06-20T08:42:48Z</time>
      </trkpt>
      <trkpt lat="45.92945" lon="4.76364">
        <ele>169</ele>
        <time>2017-06-20T08:42:49Z</time>
      </trkpt>
      <trkpt lat="45.92951" lon="4.7637">
        <ele>169</ele>
        <time>2017-06-20T08:42:50Z</time>
      </trkpt>
      <trkpt lat="45.92956" lon="4.76374">
        <ele>169</ele>
        <time>2017-06-20T08:42:51Z</time>
      </trkpt>
      <trkpt lat="45.9296" lon="4.76377">
        <ele>169</ele>
        <time>2017-06-20T08:42:52Z</time>
      </trkpt>
      <trkpt lat="45.92964" lon="4.7638">
        <ele>169</ele>
        <time>2017-06-20T08:42:53Z</time>
      </trkpt>
      <trkpt lat="45.92968" lon="4.76384">
        <ele>169</ele>
        <time>2017-06-20T08:42:54Z</time>
      </trkpt>
      <trkpt lat="45.92972" lon="4.76388">
        <ele>169</ele>
        <time>2017-06-20T08:42:55Z</time>
      </trkpt>
      <trkpt lat="45.92976" lon="4.76392">
        <ele>169</ele>
        <time>2017-06-20T08:42:56Z</time>
      </trkpt>
      <trkpt lat="45.92981" lon="4.76397">
        <ele>169</ele>
        <time>2017-06-20T08:42:57Z</time>
      </trkpt>
      <trkpt lat="45.92985" lon="4.764">
        <ele>169</ele>
        <time>2017-06-20T08:42:58Z</time>
      </trkpt>
      <trkpt lat="45.92989" lon="4.76405">
        <ele>169</ele>
        <time>2017-06-20T08:42:59Z</time>
      </trkpt>
      <trkpt lat="45.92993" lon="4.76409">
        <ele>169</ele>
        <time>2017-06-20T08:43:00Z</time>
      </trkpt>
      <trkpt lat="45.92997" lon="4.76413">
        <ele>169</ele>
        <time>2017-06-20T08:43:01Z</time>
      </trkpt>
      <trkpt lat="45.93001" lon="4.76417">
        <ele>169</ele>
        <time>2017-06-20T08:43:02Z</time>
      </trkpt>
      <trkpt lat="45.93006" lon="4.76421">
        <ele>169</ele>
        <time>2017-06-20T08:43:03Z</time>
      </trkpt>
      <trkpt lat="45.9301" lon="4.76425">
        <ele>169</ele>
        <time>2017-06-20T08:43:04Z</time>
      </trkpt>
      <trkpt lat="45.93014" lon="4.76428">
        <ele>169</ele>
        <time>2017-06-20T08:43:05Z</time>
      </trkpt>
      <trkpt lat="45.93018" lon="4.76432">
        <ele>169</ele>
        <time>2017-06-20T08:43:06Z</time>
      </trkpt>
      <trkpt lat="45.93021" lon="4.76436">
        <ele>169</ele>
        <time>2017-06-20T08:43:07Z</time>
      </trkpt>
      <trkpt lat="45.93027" lon="4.76442">
        <ele>169</ele>
        <time>2017-06-20T08:43:08Z</time>
      </trkpt>
      <trkpt lat="45.93032" lon="4.76446">
        <ele>169</ele>
        <time>2017-06-20T08:43:09Z</time>
      </trkpt>
      <trkpt lat="45.93037" lon="4.76451">
        <ele>169</ele>
        <time>2017-06-20T08:43:10Z</time>
      </trkpt>
      <trkpt lat="45.93043" lon="4.76457">
        <ele>169</ele>
        <time>2017-06-20T08:43:11Z</time>
      </trkpt>
      <trkpt lat="45.93049" lon="4.76462">
        <ele>169</ele>
        <time>2017-06-20T08:43:12Z</time>
      </trkpt>
      <trkpt lat="45.93053" lon="4.76466">
        <ele>169</ele>
        <time>2017-06-20T08:43:13Z</time>
      </trkpt>
      <trkpt lat="45.93058" lon="4.76471">
        <ele>169</ele>
        <time>2017-06-20T08:43:14Z</time>
      </trkpt>
      <trkpt lat="45.93063" lon="4.76476">
        <ele>169</ele>
        <time>2017-06-20T08:43:15Z</time>
      </trkpt>
      <trkpt lat="45.93068" lon="4.76481">
        <ele>169</ele>
        <time>2017-06-20T08:43:16Z</time>
      </trkpt>
      <trkpt lat="45.93072" lon="4.76486">
        <ele>169</ele>
        <time>2017-06-20T08:43:17Z</time>
      </trkpt>
      <trkpt lat="45.93076" lon="4.7649">
        <ele>170</ele>
        <time>2017-06-20T08:43:18Z</time>
      </trkpt>
      <trkpt lat="45.93081" lon="4.76494">
        <ele>170</ele>
        <time>2017-06-20T08:43:19Z</time>
      </trkpt>
      <trkpt lat="45.93085" lon="4.76498">
        <ele>170</ele>
        <time>2017-06-20T08:43:20Z</time>
      </trkpt>
      <trkpt lat="45.9309" lon="4.76501">
        <ele>170</ele>
        <time>2017-06-20T08:43:21Z</time>
      </trkpt>
      <trkpt lat="45.93094" lon="4.76505">
        <ele>170</ele>
        <time>2017-06-20T08:43:22Z</time>
      </trkpt>
      <trkpt lat="45.93098" lon="4.76509">
        <ele>170</ele>
        <time>2017-06-20T08:43:23Z</time>
      </trkpt>
      <trkpt lat="45.93102" lon="4.76513">
        <ele>170</ele>
        <time>2017-06-20T08:43:24Z</time>
      </trkpt>
      <trkpt lat="45.93106" lon="4.76518">
        <ele>170</ele>
        <time>2017-06-20T08:43:25Z</time>
      </trkpt>
      <trkpt lat="45.9311" lon="4.76522">
        <ele>170</ele>
        <time>2017-06-20T08:43:26Z</time>
      </trkpt>
      <trkpt lat="45.93115" lon="4.76526">
        <ele>170</ele>
        <time>2017-06-20T08:43:27Z</time>
      </trkpt>
      <trkpt lat="45.93119" lon="4.7653">
        <ele>170</ele>
        <time>2017-06-20T08:43:28Z</time>
      </trkpt>
      <trkpt lat="45.93126" lon="4.76537">
        <ele>170</ele>
        <time>2017-06-20T08:43:30Z</time>
      </trkpt>
      <trkpt lat="45.9313" lon="4.76541">
        <ele>170</ele>
        <time>2017-06-20T08:43:31Z</time>
      </trkpt>
      <trkpt lat="45.93137" lon="4.76547">
        <ele>170</ele>
        <time>2017-06-20T08:43:33Z</time>
      </trkpt>
      <trkpt lat="45.9314" lon="4.7655">
        <ele>170</ele>
        <time>2017-06-20T08:43:34Z</time>
      </trkpt>
      <trkpt lat="45.93147" lon="4.76556">
        <ele>170</ele>
        <time>2017-06-20T08:43:36Z</time>
      </trkpt>
      <trkpt lat="45.93151" lon="4.7656">
        <ele>170</ele>
        <time>2017-06-20T08:43:37Z</time>
      </trkpt>
      <trkpt lat="45.93159" lon="4.76566">
        <ele>170</ele>
        <time>2017-06-20T08:43:39Z</time>
      </trkpt>
      <trkpt lat="45.93162" lon="4.76569">
        <ele>170</ele>
        <time>2017-06-20T08:43:40Z</time>
      </trkpt>
      <trkpt lat="45.93167" lon="4.76574">
        <ele>171</ele>
        <time>2017-06-20T08:43:41Z</time>
      </trkpt>
      <trkpt lat="45.93171" lon="4.76578">
        <ele>170</ele>
        <time>2017-06-20T08:43:42Z</time>
      </trkpt>
      <trkpt lat="45.9318" lon="4.76593">
        <ele>171</ele>
        <time>2017-06-20T08:43:43Z</time>
      </trkpt>
      <trkpt lat="45.93185" lon="4.76598">
        <ele>171</ele>
        <time>2017-06-20T08:43:44Z</time>
      </trkpt>
      <trkpt lat="45.9319" lon="4.76602">
        <ele>170</ele>
        <time>2017-06-20T08:43:45Z</time>
      </trkpt>
      <trkpt lat="45.93196" lon="4.76608">
        <ele>170</ele>
        <time>2017-06-20T08:43:46Z</time>
      </trkpt>
      <trkpt lat="45.93201" lon="4.76612">
        <ele>170</ele>
        <time>2017-06-20T08:43:47Z</time>
      </trkpt>
      <trkpt lat="45.93206" lon="4.76617">
        <ele>170</ele>
        <time>2017-06-20T08:43:48Z</time>
      </trkpt>
      <trkpt lat="45.9321" lon="4.76623">
        <ele>170</ele>
        <time>2017-06-20T08:43:49Z</time>
      </trkpt>
      <trkpt lat="45.93214" lon="4.76627">
        <ele>170</ele>
        <time>2017-06-20T08:43:50Z</time>
      </trkpt>
      <trkpt lat="45.93218" lon="4.76631">
        <ele>171</ele>
        <time>2017-06-20T08:43:51Z</time>
      </trkpt>
      <trkpt lat="45.93222" lon="4.76634">
        <ele>171</ele>
        <time>2017-06-20T08:43:52Z</time>
      </trkpt>
      <trkpt lat="45.93226" lon="4.76638">
        <ele>171</ele>
        <time>2017-06-20T08:43:53Z</time>
      </trkpt>
      <trkpt lat="45.93234" lon="4.76645">
        <ele>171</ele>
        <time>2017-06-20T08:43:55Z</time>
      </trkpt>
      <trkpt lat="45.93238" lon="4.76649">
        <ele>171</ele>
        <time>2017-06-20T08:43:56Z</time>
      </trkpt>
      <trkpt lat="45.93243" lon="4.76653">
        <ele>171</ele>
        <time>2017-06-20T08:43:57Z</time>
      </trkpt>
      <trkpt lat="45.93247" lon="4.76658">
        <ele>171</ele>
        <time>2017-06-20T08:43:58Z</time>
      </trkpt>
      <trkpt lat="45.93251" lon="4.76662">
        <ele>172</ele>
        <time>2017-06-20T08:43:59Z</time>
      </trkpt>
      <trkpt lat="45.93256" lon="4.76666">
        <ele>171</ele>
        <time>2017-06-20T08:44:00Z</time>
      </trkpt>
      <trkpt lat="45.9326" lon="4.76671">
        <ele>172</ele>
        <time>2017-06-20T08:44:01Z</time>
      </trkpt>
      <trkpt lat="45.93266" lon="4.76677">
        <ele>172</ele>
        <time>2017-06-20T08:44:02Z</time>
      </trkpt>
      <trkpt lat="45.9327" lon="4.76682">
        <ele>172</ele>
        <time>2017-06-20T08:44:03Z</time>
      </trkpt>
      <trkpt lat="45.93275" lon="4.76688">
        <ele>172</ele>
        <time>2017-06-20T08:44:04Z</time>
      </trkpt>
      <trkpt lat="45.9328" lon="4.76693">
        <ele>172</ele>
        <time>2017-06-20T08:44:05Z</time>
      </trkpt>
      <trkpt lat="45.93284" lon="4.76698">
        <ele>172</ele>
        <time>2017-06-20T08:44:06Z</time>
      </trkpt>
      <trkpt lat="45.93289" lon="4.76703">
        <ele>172</ele>
        <time>2017-06-20T08:44:07Z</time>
      </trkpt>
      <trkpt lat="45.93294" lon="4.76707">
        <ele>172</ele>
        <time>2017-06-20T08:44:08Z</time>
      </trkpt>
      <trkpt lat="45.93299" lon="4.76712">
        <ele>172</ele>
        <time>2017-06-20T08:44:09Z</time>
      </trkpt>
      <trkpt lat="45.93304" lon="4.76717">
        <ele>172</ele>
        <time>2017-06-20T08:44:10Z</time>
      </trkpt>
      <trkpt lat="45.93309" lon="4.76722">
        <ele>172</ele>
        <time>2017-06-20T08:44:11Z</time>
      </trkpt>
      <trkpt lat="45.93314" lon="4.76728">
        <ele>172</ele>
        <time>2017-06-20T08:44:12Z</time>
      </trkpt>
      <trkpt lat="45.93319" lon="4.76733">
        <ele>172</ele>
        <time>2017-06-20T08:44:13Z</time>
      </trkpt>
      <trkpt lat="45.93325" lon="4.76738">
        <ele>172</ele>
        <time>2017-06-20T08:44:14Z</time>
      </trkpt>
      <trkpt lat="45.93331" lon="4.76744">
        <ele>173</ele>
        <time>2017-06-20T08:44:15Z</time>
      </trkpt>
      <trkpt lat="45.93336" lon="4.76749">
        <ele>173</ele>
        <time>2017-06-20T08:44:16Z</time>
      </trkpt>
      <trkpt lat="45.93342" lon="4.76755">
        <ele>173</ele>
        <time>2017-06-20T08:44:17Z</time>
      </trkpt>
      <trkpt lat="45.93348" lon="4.7676">
        <ele>172</ele>
        <time>2017-06-20T08:44:18Z</time>
      </trkpt>
      <trkpt lat="45.93353" lon="4.76766">
        <ele>172</ele>
        <time>2017-06-20T08:44:19Z</time>
      </trkpt>
      <trkpt lat="45.93359" lon="4.76772">
        <ele>172</ele>
        <time>2017-06-20T08:44:20Z</time>
      </trkpt>
      <trkpt lat="45.93364" lon="4.76777">
        <ele>172</ele>
        <time>2017-06-20T08:44:21Z</time>
      </trkpt>
      <trkpt lat="45.93369" lon="4.76783">
        <ele>172</ele>
        <time>2017-06-20T08:44:22Z</time>
      </trkpt>
      <trkpt lat="45.93374" lon="4.76788">
        <ele>172</ele>
        <time>2017-06-20T08:44:23Z</time>
      </trkpt>
      <trkpt lat="45.93378" lon="4.76793">
        <ele>172</ele>
        <time>2017-06-20T08:44:24Z</time>
      </trkpt>
      <trkpt lat="45.93383" lon="4.76798">
        <ele>172</ele>
        <time>2017-06-20T08:44:25Z</time>
      </trkpt>
      <trkpt lat="45.93387" lon="4.76804">
        <ele>172</ele>
        <time>2017-06-20T08:44:26Z</time>
      </trkpt>
      <trkpt lat="45.93391" lon="4.76809">
        <ele>172</ele>
        <time>2017-06-20T08:44:27Z</time>
      </trkpt>
      <trkpt lat="45.93395" lon="4.76814">
        <ele>172</ele>
        <time>2017-06-20T08:44:28Z</time>
      </trkpt>
      <trkpt lat="45.93398" lon="4.7682">
        <ele>172</ele>
        <time>2017-06-20T08:44:29Z</time>
      </trkpt>
      <trkpt lat="45.93402" lon="4.76825">
        <ele>172</ele>
        <time>2017-06-20T08:44:30Z</time>
      </trkpt>
      <trkpt lat="45.93405" lon="4.7683">
        <ele>172</ele>
        <time>2017-06-20T08:44:31Z</time>
      </trkpt>
      <trkpt lat="45.93408" lon="4.76836">
        <ele>172</ele>
        <time>2017-06-20T08:44:32Z</time>
      </trkpt>
      <trkpt lat="45.93412" lon="4.76842">
        <ele>172</ele>
        <time>2017-06-20T08:44:33Z</time>
      </trkpt>
      <trkpt lat="45.93415" lon="4.76847">
        <ele>172</ele>
        <time>2017-06-20T08:44:34Z</time>
      </trkpt>
      <trkpt lat="45.93418" lon="4.76853">
        <ele>171</ele>
        <time>2017-06-20T08:44:35Z</time>
      </trkpt>
      <trkpt lat="45.93421" lon="4.76859">
        <ele>171</ele>
        <time>2017-06-20T08:44:36Z</time>
      </trkpt>
      <trkpt lat="45.93424" lon="4.76866">
        <ele>171</ele>
        <time>2017-06-20T08:44:37Z</time>
      </trkpt>
      <trkpt lat="45.93427" lon="4.76872">
        <ele>171</ele>
        <time>2017-06-20T08:44:38Z</time>
      </trkpt>
      <trkpt lat="45.9343" lon="4.76879">
        <ele>171</ele>
        <time>2017-06-20T08:44:39Z</time>
      </trkpt>
      <trkpt lat="45.93432" lon="4.76886">
        <ele>171</ele>
        <time>2017-06-20T08:44:40Z</time>
      </trkpt>
      <trkpt lat="45.93434" lon="4.76892">
        <ele>171</ele>
        <time>2017-06-20T08:44:41Z</time>
      </trkpt>
      <trkpt lat="45.93436" lon="4.76898">
        <ele>171</ele>
        <time>2017-06-20T08:44:42Z</time>
      </trkpt>
      <trkpt lat="45.93438" lon="4.76905">
        <ele>171</ele>
        <time>2017-06-20T08:44:43Z</time>
      </trkpt>
      <trkpt lat="45.93439" lon="4.76911">
        <ele>171</ele>
        <time>2017-06-20T08:44:44Z</time>
      </trkpt>
      <trkpt lat="45.93441" lon="4.76918">
        <ele>170</ele>
        <time>2017-06-20T08:44:45Z</time>
      </trkpt>
      <trkpt lat="45.93442" lon="4.76925">
        <ele>170</ele>
        <time>2017-06-20T08:44:46Z</time>
      </trkpt>
      <trkpt lat="45.93445" lon="4.76933">
        <ele>170</ele>
        <time>2017-06-20T08:44:47Z</time>
      </trkpt>
      <trkpt lat="45.93446" lon="4.76941">
        <ele>170</ele>
        <time>2017-06-20T08:44:48Z</time>
      </trkpt>
      <trkpt lat="45.93448" lon="4.76949">
        <ele>170</ele>
        <time>2017-06-20T08:44:49Z</time>
      </trkpt>
      <trkpt lat="45.93449" lon="4.76958">
        <ele>170</ele>
        <time>2017-06-20T08:44:50Z</time>
      </trkpt>
      <trkpt lat="45.9345" lon="4.76966">
        <ele>170</ele>
        <time>2017-06-20T08:44:51Z</time>
      </trkpt>
      <trkpt lat="45.93451" lon="4.76974">
        <ele>170</ele>
        <time>2017-06-20T08:44:52Z</time>
      </trkpt>
      <trkpt lat="45.93452" lon="4.76982">
        <ele>170</ele>
        <time>2017-06-20T08:44:53Z</time>
      </trkpt>
      <trkpt lat="45.93453" lon="4.7699">
        <ele>170</ele>
        <time>2017-06-20T08:44:54Z</time>
      </trkpt>
      <trkpt lat="45.93454" lon="4.76997">
        <ele>170</ele>
        <time>2017-06-20T08:44:55Z</time>
      </trkpt>
      <trkpt lat="45.93455" lon="4.77005">
        <ele>170</ele>
        <time>2017-06-20T08:44:56Z</time>
      </trkpt>
      <trkpt lat="45.93456" lon="4.77012">
        <ele>170</ele>
        <time>2017-06-20T08:44:57Z</time>
      </trkpt>
      <trkpt lat="45.93458" lon="4.77019">
        <ele>170</ele>
        <time>2017-06-20T08:44:58Z</time>
      </trkpt>
      <trkpt lat="45.93459" lon="4.77026">
        <ele>170</ele>
        <time>2017-06-20T08:44:59Z</time>
      </trkpt>
      <trkpt lat="45.9346" lon="4.77032">
        <ele>170</ele>
        <time>2017-06-20T08:45:00Z</time>
      </trkpt>
      <trkpt lat="45.93461" lon="4.7704">
        <ele>170</ele>
        <time>2017-06-20T08:45:01Z</time>
      </trkpt>
      <trkpt lat="45.93463" lon="4.77047">
        <ele>170</ele>
        <time>2017-06-20T08:45:02Z</time>
      </trkpt>
      <trkpt lat="45.93464" lon="4.77054">
        <ele>170</ele>
        <time>2017-06-20T08:45:03Z</time>
      </trkpt>
      <trkpt lat="45.93465" lon="4.77061">
        <ele>170</ele>
        <time>2017-06-20T08:45:04Z</time>
      </trkpt>
      <trkpt lat="45.93466" lon="4.77068">
        <ele>170</ele>
        <time>2017-06-20T08:45:05Z</time>
      </trkpt>
      <trkpt lat="45.93467" lon="4.77074">
        <ele>170</ele>
        <time>2017-06-20T08:45:06Z</time>
      </trkpt>
      <trkpt lat="45.93469" lon="4.77081">
        <ele>170</ele>
        <time>2017-06-20T08:45:07Z</time>
      </trkpt>
      <trkpt lat="45.9347" lon="4.77088">
        <ele>170</ele>
        <time>2017-06-20T08:45:08Z</time>
      </trkpt>
      <trkpt lat="45.93472" lon="4.77095">
        <ele>169</ele>
        <time>2017-06-20T08:45:09Z</time>
      </trkpt>
      <trkpt lat="45.93473" lon="4.77102">
        <ele>169</ele>
        <time>2017-06-20T08:45:10Z</time>
      </trkpt>
      <trkpt lat="45.93474" lon="4.77109">
        <ele>169</ele>
        <time>2017-06-20T08:45:11Z</time>
      </trkpt>
      <trkpt lat="45.93476" lon="4.77116">
        <ele>169</ele>
        <time>2017-06-20T08:45:12Z</time>
      </trkpt>
      <trkpt lat="45.93477" lon="4.77123">
        <ele>169</ele>
        <time>2017-06-20T08:45:13Z</time>
      </trkpt>
      <trkpt lat="45.93479" lon="4.77131">
        <ele>169</ele>
        <time>2017-06-20T08:45:14Z</time>
      </trkpt>
      <trkpt lat="45.9348" lon="4.77139">
        <ele>169</ele>
        <time>2017-06-20T08:45:15Z</time>
      </trkpt>
      <trkpt lat="45.93482" lon="4.77148">
        <ele>169</ele>
        <time>2017-06-20T08:45:16Z</time>
      </trkpt>
      <trkpt lat="45.93484" lon="4.77157">
        <ele>169</ele>
        <time>2017-06-20T08:45:17Z</time>
      </trkpt>
      <trkpt lat="45.93485" lon="4.77165">
        <ele>169</ele>
        <time>2017-06-20T08:45:18Z</time>
      </trkpt>
      <trkpt lat="45.93487" lon="4.77174">
        <ele>169</ele>
        <time>2017-06-20T08:45:19Z</time>
      </trkpt>
      <trkpt lat="45.93489" lon="4.77182">
        <ele>169</ele>
        <time>2017-06-20T08:45:20Z</time>
      </trkpt>
      <trkpt lat="45.9349" lon="4.7719">
        <ele>169</ele>
        <time>2017-06-20T08:45:21Z</time>
      </trkpt>
      <trkpt lat="45.93492" lon="4.77198">
        <ele>169</ele>
        <time>2017-06-20T08:45:22Z</time>
      </trkpt>
      <trkpt lat="45.93494" lon="4.77205">
        <ele>169</ele>
        <time>2017-06-20T08:45:23Z</time>
      </trkpt>
      <trkpt lat="45.93496" lon="4.77212">
        <ele>169</ele>
        <time>2017-06-20T08:45:24Z</time>
      </trkpt>
      <trkpt lat="45.93498" lon="4.7722">
        <ele>169</ele>
        <time>2017-06-20T08:45:25Z</time>
      </trkpt>
      <trkpt lat="45.93499" lon="4.77227">
        <ele>170</ele>
        <time>2017-06-20T08:45:26Z</time>
      </trkpt>
      <trkpt lat="45.93501" lon="4.77234">
        <ele>169</ele>
        <time>2017-06-20T08:45:27Z</time>
      </trkpt>
      <trkpt lat="45.93502" lon="4.77241">
        <ele>170</ele>
        <time>2017-06-20T08:45:28Z</time>
      </trkpt>
      <trkpt lat="45.93504" lon="4.77248">
        <ele>170</ele>
        <time>2017-06-20T08:45:29Z</time>
      </trkpt>
      <trkpt lat="45.93506" lon="4.77255">
        <ele>170</ele>
        <time>2017-06-20T08:45:30Z</time>
      </trkpt>
      <trkpt lat="45.93507" lon="4.77261">
        <ele>170</ele>
        <time>2017-06-20T08:45:31Z</time>
      </trkpt>
      <trkpt lat="45.93509" lon="4.77268">
        <ele>170</ele>
        <time>2017-06-20T08:45:32Z</time>
      </trkpt>
      <trkpt lat="45.9351" lon="4.77275">
        <ele>170</ele>
        <time>2017-06-20T08:45:33Z</time>
      </trkpt>
      <trkpt lat="45.93512" lon="4.77283">
        <ele>170</ele>
        <time>2017-06-20T08:45:34Z</time>
      </trkpt>
      <trkpt lat="45.93513" lon="4.7729">
        <ele>170</ele>
        <time>2017-06-20T08:45:35Z</time>
      </trkpt>
      <trkpt lat="45.93515" lon="4.77297">
        <ele>170</ele>
        <time>2017-06-20T08:45:36Z</time>
      </trkpt>
      <trkpt lat="45.93517" lon="4.77305">
        <ele>170</ele>
        <time>2017-06-20T08:45:37Z</time>
      </trkpt>
      <trkpt lat="45.93519" lon="4.77312">
        <ele>170</ele>
        <time>2017-06-20T08:45:38Z</time>
      </trkpt>
      <trkpt lat="45.9352" lon="4.77319">
        <ele>170</ele>
        <time>2017-06-20T08:45:39Z</time>
      </trkpt>
      <trkpt lat="45.93522" lon="4.77325">
        <ele>170</ele>
        <time>2017-06-20T08:45:40Z</time>
      </trkpt>
      <trkpt lat="45.93523" lon="4.77332">
        <ele>170</ele>
        <time>2017-06-20T08:45:41Z</time>
      </trkpt>
      <trkpt lat="45.93525" lon="4.77338">
        <ele>170</ele>
        <time>2017-06-20T08:45:42Z</time>
      </trkpt>
      <trkpt lat="45.93527" lon="4.7735">
        <ele>170</ele>
        <time>2017-06-20T08:45:44Z</time>
      </trkpt>
      <trkpt lat="45.93528" lon="4.77356">
        <ele>170</ele>
        <time>2017-06-20T08:45:45Z</time>
      </trkpt>
      <trkpt lat="45.9353" lon="4.77363">
        <ele>170</ele>
        <time>2017-06-20T08:45:46Z</time>
      </trkpt>
      <trkpt lat="45.93531" lon="4.7737">
        <ele>170</ele>
        <time>2017-06-20T08:45:47Z</time>
      </trkpt>
      <trkpt lat="45.93533" lon="4.77377">
        <ele>170</ele>
        <time>2017-06-20T08:45:48Z</time>
      </trkpt>
      <trkpt lat="45.93535" lon="4.77384">
        <ele>170</ele>
        <time>2017-06-20T08:45:49Z</time>
      </trkpt>
      <trkpt lat="45.93537" lon="4.77393">
        <ele>170</ele>
        <time>2017-06-20T08:45:50Z</time>
      </trkpt>
      <trkpt lat="45.93539" lon="4.77401">
        <ele>170</ele>
        <time>2017-06-20T08:45:51Z</time>
      </trkpt>
      <trkpt lat="45.93541" lon="4.77409">
        <ele>170</ele>
        <time>2017-06-20T08:45:52Z</time>
      </trkpt>
      <trkpt lat="45.93543" lon="4.77417">
        <ele>170</ele>
        <time>2017-06-20T08:45:53Z</time>
      </trkpt>
      <trkpt lat="45.93545" lon="4.77425">
        <ele>170</ele>
        <time>2017-06-20T08:45:54Z</time>
      </trkpt>
      <trkpt lat="45.93547" lon="4.77434">
        <ele>169</ele>
        <time>2017-06-20T08:45:55Z</time>
      </trkpt>
      <trkpt lat="45.93549" lon="4.77442">
        <ele>169</ele>
        <time>2017-06-20T08:45:56Z</time>
      </trkpt>
      <trkpt lat="45.93551" lon="4.7745">
        <ele>169</ele>
        <time>2017-06-20T08:45:57Z</time>
      </trkpt>
      <trkpt lat="45.93552" lon="4.77456">
        <ele>169</ele>
        <time>2017-06-20T08:45:58Z</time>
      </trkpt>
      <trkpt lat="45.93554" lon="4.77463">
        <ele>169</ele>
        <time>2017-06-20T08:45:59Z</time>
      </trkpt>
      <trkpt lat="45.93555" lon="4.77471">
        <ele>169</ele>
        <time>2017-06-20T08:46:00Z</time>
      </trkpt>
      <trkpt lat="45.93557" lon="4.77478">
        <ele>169</ele>
        <time>2017-06-20T08:46:01Z</time>
      </trkpt>
      <trkpt lat="45.93559" lon="4.77484">
        <ele>169</ele>
        <time>2017-06-20T08:46:02Z</time>
      </trkpt>
      <trkpt lat="45.9356" lon="4.77491">
        <ele>169</ele>
        <time>2017-06-20T08:46:03Z</time>
      </trkpt>
      <trkpt lat="45.93561" lon="4.77498">
        <ele>169</ele>
        <time>2017-06-20T08:46:04Z</time>
      </trkpt>
      <trkpt lat="45.93563" lon="4.77505">
        <ele>169</ele>
        <time>2017-06-20T08:46:05Z</time>
      </trkpt>
      <trkpt lat="45.93565" lon="4.77511">
        <ele>169</ele>
        <time>2017-06-20T08:46:06Z</time>
      </trkpt>
      <trkpt lat="45.93566" lon="4.77517">
        <ele>169</ele>
        <time>2017-06-20T08:46:07Z</time>
      </trkpt>
      <trkpt lat="45.93568" lon="4.77524">
        <ele>169</ele>
        <time>2017-06-20T08:46:08Z</time>
      </trkpt>
      <trkpt lat="45.9357" lon="4.77531">
        <ele>169</ele>
        <time>2017-06-20T08:46:09Z</time>
      </trkpt>
      <trkpt lat="45.93572" lon="4.77539">
        <ele>169</ele>
        <time>2017-06-20T08:46:10Z</time>
      </trkpt>
      <trkpt lat="45.93574" lon="4.77547">
        <ele>169</ele>
        <time>2017-06-20T08:46:11Z</time>
      </trkpt>
      <trkpt lat="45.93576" lon="4.77556">
        <ele>169</ele>
        <time>2017-06-20T08:46:12Z</time>
      </trkpt>
      <trkpt lat="45.93578" lon="4.77564">
        <ele>169</ele>
        <time>2017-06-20T08:46:13Z</time>
      </trkpt>
      <trkpt lat="45.9358" lon="4.77572">
        <ele>170</ele>
        <time>2017-06-20T08:46:14Z</time>
      </trkpt>
      <trkpt lat="45.93582" lon="4.7758">
        <ele>170</ele>
        <time>2017-06-20T08:46:15Z</time>
      </trkpt>
      <trkpt lat="45.93584" lon="4.77588">
        <ele>170</ele>
        <time>2017-06-20T08:46:16Z</time>
      </trkpt>
      <trkpt lat="45.93586" lon="4.77595">
        <ele>170</ele>
        <time>2017-06-20T08:46:17Z</time>
      </trkpt>
      <trkpt lat="45.93588" lon="4.77602">
        <ele>170</ele>
        <time>2017-06-20T08:46:18Z</time>
      </trkpt>
      <trkpt lat="45.9359" lon="4.77609">
        <ele>170</ele>
        <time>2017-06-20T08:46:19Z</time>
      </trkpt>
      <trkpt lat="45.93592" lon="4.77616">
        <ele>170</ele>
        <time>2017-06-20T08:46:20Z</time>
      </trkpt>
      <trkpt lat="45.93594" lon="4.77622">
        <ele>170</ele>
        <time>2017-06-20T08:46:21Z</time>
      </trkpt>
      <trkpt lat="45.93597" lon="4.77628">
        <ele>169</ele>
        <time>2017-06-20T08:46:22Z</time>
      </trkpt>
      <trkpt lat="45.93598" lon="4.77634">
        <ele>169</ele>
        <time>2017-06-20T08:46:23Z</time>
      </trkpt>
      <trkpt lat="45.93601" lon="4.7764">
        <ele>169</ele>
        <time>2017-06-20T08:46:24Z</time>
      </trkpt>
      <trkpt lat="45.93603" lon="4.77646">
        <ele>169</ele>
        <time>2017-06-20T08:46:25Z</time>
      </trkpt>
      <trkpt lat="45.93605" lon="4.77652">
        <ele>169</ele>
        <time>2017-06-20T08:46:26Z</time>
      </trkpt>
      <trkpt lat="45.93608" lon="4.77658">
        <ele>169</ele>
        <time>2017-06-20T08:46:27Z</time>
      </trkpt>
      <trkpt lat="45.9361" lon="4.77664">
        <ele>169</ele>
        <time>2017-06-20T08:46:28Z</time>
      </trkpt>
      <trkpt lat="45.93613" lon="4.7767">
        <ele>169</ele>
        <time>2017-06-20T08:46:29Z</time>
      </trkpt>
      <trkpt lat="45.93615" lon="4.77676">
        <ele>169</ele>
        <time>2017-06-20T08:46:30Z</time>
      </trkpt>
      <trkpt lat="45.93618" lon="4.77683">
        <ele>169</ele>
        <time>2017-06-20T08:46:31Z</time>
      </trkpt>
      <trkpt lat="45.93621" lon="4.77689">
        <ele>169</ele>
        <time>2017-06-20T08:46:32Z</time>
      </trkpt>
      <trkpt lat="45.93624" lon="4.77695">
        <ele>169</ele>
        <time>2017-06-20T08:46:33Z</time>
      </trkpt>
      <trkpt lat="45.93627" lon="4.77701">
        <ele>169</ele>
        <time>2017-06-20T08:46:34Z</time>
      </trkpt>
      <trkpt lat="45.93631" lon="4.77707">
        <ele>170</ele>
        <time>2017-06-20T08:46:35Z</time>
      </trkpt>
      <trkpt lat="45.93634" lon="4.77714">
        <ele>170</ele>
        <time>2017-06-20T08:46:36Z</time>
      </trkpt>
      <trkpt lat="45.93637" lon="4.7772">
        <ele>170</ele>
        <time>2017-06-20T08:46:37Z</time>
      </trkpt>
      <trkpt lat="45.93641" lon="4.77726">
        <ele>170</ele>
        <time>2017-06-20T08:46:38Z</time>
      </trkpt>
      <trkpt lat="45.93645" lon="4.77732">
        <ele>170</ele>
        <time>2017-06-20T08:46:39Z</time>
      </trkpt>
      <trkpt lat="45.93648" lon="4.77737">
        <ele>170</ele>
        <time>2017-06-20T08:46:40Z</time>
      </trkpt>
      <trkpt lat="45.93651" lon="4.77742">
        <ele>170</ele>
        <time>2017-06-20T08:46:41Z</time>
      </trkpt>
      <trkpt lat="45.93656" lon="4.77751">
        <ele>171</ele>
        <time>2017-06-20T08:46:43Z</time>
      </trkpt>
      <trkpt lat="45.93659" lon="4.77755">
        <ele>171</ele>
        <time>2017-06-20T08:46:44Z</time>
      </trkpt>
      <trkpt lat="45.93665" lon="4.77762">
        <ele>171</ele>
        <time>2017-06-20T08:46:46Z</time>
      </trkpt>
      <trkpt lat="45.93667" lon="4.77766">
        <ele>170</ele>
        <time>2017-06-20T08:46:47Z</time>
      </trkpt>
      <trkpt lat="45.93672" lon="4.77774">
        <ele>170</ele>
        <time>2017-06-20T08:46:49Z</time>
      </trkpt>
      <trkpt lat="45.93675" lon="4.77778">
        <ele>170</ele>
        <time>2017-06-20T08:46:50Z</time>
      </trkpt>
      <trkpt lat="45.93681" lon="4.77785">
        <ele>170</ele>
        <time>2017-06-20T08:46:52Z</time>
      </trkpt>
      <trkpt lat="45.93684" lon="4.77789">
        <ele>170</ele>
        <time>2017-06-20T08:46:53Z</time>
      </trkpt>
      <trkpt lat="45.93689" lon="4.77797">
        <ele>169</ele>
        <time>2017-06-20T08:46:55Z</time>
      </trkpt>
      <trkpt lat="45.93692" lon="4.77801">
        <ele>169</ele>
        <time>2017-06-20T08:46:56Z</time>
      </trkpt>
      <trkpt lat="45.93697" lon="4.77808">
        <ele>169</ele>
        <time>2017-06-20T08:46:58Z</time>
      </trkpt>
      <trkpt lat="45.937" lon="4.77812">
        <ele>169</ele>
        <time>2017-06-20T08:46:59Z</time>
      </trkpt>
      <trkpt lat="45.93705" lon="4.77819">
        <ele>169</ele>
        <time>2017-06-20T08:47:01Z</time>
      </trkpt>
      <trkpt lat="45.93707" lon="4.77823">
        <ele>169</ele>
        <time>2017-06-20T08:47:02Z</time>
      </trkpt>
      <trkpt lat="45.93713" lon="4.7783">
        <ele>169</ele>
        <time>2017-06-20T08:47:04Z</time>
      </trkpt>
      <trkpt lat="45.93715" lon="4.77834">
        <ele>167</ele>
        <time>2017-06-20T08:47:05Z</time>
      </trkpt>
      <trkpt lat="45.93721" lon="4.77841">
        <ele>167</ele>
        <time>2017-06-20T08:47:07Z</time>
      </trkpt>
      <trkpt lat="45.93723" lon="4.77845">
        <ele>167</ele>
        <time>2017-06-20T08:47:08Z</time>
      </trkpt>
      <trkpt lat="45.93729" lon="4.77851">
        <ele>167</ele>
        <time>2017-06-20T08:47:10Z</time>
      </trkpt>
      <trkpt lat="45.93731" lon="4.77855">
        <ele>167</ele>
        <time>2017-06-20T08:47:11Z</time>
      </trkpt>
      <trkpt lat="45.93736" lon="4.77862">
        <ele>167</ele>
        <time>2017-06-20T08:47:13Z</time>
      </trkpt>
      <trkpt lat="45.93739" lon="4.77866">
        <ele>167</ele>
        <time>2017-06-20T08:47:14Z</time>
      </trkpt>
      <trkpt lat="45.93745" lon="4.77874">
        <ele>167</ele>
        <time>2017-06-20T08:47:16Z</time>
      </trkpt>
      <trkpt lat="45.93748" lon="4.77878">
        <ele>167</ele>
        <time>2017-06-20T08:47:17Z</time>
      </trkpt>
      <trkpt lat="45.93754" lon="4.77885">
        <ele>166</ele>
        <time>2017-06-20T08:47:19Z</time>
      </trkpt>
      <trkpt lat="45.93756" lon="4.77889">
        <ele>166</ele>
        <time>2017-06-20T08:47:20Z</time>
      </trkpt>
      <trkpt lat="45.93761" lon="4.77895">
        <ele>166</ele>
        <time>2017-06-20T08:47:22Z</time>
      </trkpt>
      <trkpt lat="45.93764" lon="4.77899">
        <ele>166</ele>
        <time>2017-06-20T08:47:23Z</time>
      </trkpt>
      <trkpt lat="45.93769" lon="4.77907">
        <ele>166</ele>
        <time>2017-06-20T08:47:25Z</time>
      </trkpt>
      <trkpt lat="45.93772" lon="4.7791">
        <ele>166</ele>
        <time>2017-06-20T08:47:26Z</time>
      </trkpt>
      <trkpt lat="45.93778" lon="4.77918">
        <ele>168</ele>
        <time>2017-06-20T08:47:28Z</time>
      </trkpt>
      <trkpt lat="45.93781" lon="4.77922">
        <ele>168</ele>
        <time>2017-06-20T08:47:29Z</time>
      </trkpt>
      <trkpt lat="45.93787" lon="4.7793">
        <ele>168</ele>
        <time>2017-06-20T08:47:31Z</time>
      </trkpt>
      <trkpt lat="45.93791" lon="4.77934">
        <ele>168</ele>
        <time>2017-06-20T08:47:32Z</time>
      </trkpt>
      <trkpt lat="45.93796" lon="4.77942">
        <ele>169</ele>
        <time>2017-06-20T08:47:34Z</time>
      </trkpt>
      <trkpt lat="45.93799" lon="4.77946">
        <ele>169</ele>
        <time>2017-06-20T08:47:35Z</time>
      </trkpt>
      <trkpt lat="45.93806" lon="4.77954">
        <ele>170</ele>
        <time>2017-06-20T08:47:37Z</time>
      </trkpt>
      <trkpt lat="45.93809" lon="4.77958">
        <ele>170</ele>
        <time>2017-06-20T08:47:38Z</time>
      </trkpt>
      <trkpt lat="45.93813" lon="4.77962">
        <ele>170</ele>
        <time>2017-06-20T08:47:39Z</time>
      </trkpt>
      <trkpt lat="45.93817" lon="4.77967">
        <ele>171</ele>
        <time>2017-06-20T08:47:40Z</time>
      </trkpt>
      <trkpt lat="45.93821" lon="4.77971">
        <ele>172</ele>
        <time>2017-06-20T08:47:41Z</time>
      </trkpt>
      <trkpt lat="45.93825" lon="4.77976">
        <ele>172</ele>
        <time>2017-06-20T08:47:42Z</time>
      </trkpt>
      <trkpt lat="45.93829" lon="4.77982">
        <ele>174</ele>
        <time>2017-06-20T08:47:43Z</time>
      </trkpt>
      <trkpt lat="45.93832" lon="4.77987">
        <ele>175</ele>
        <time>2017-06-20T08:47:44Z</time>
      </trkpt>
      <trkpt lat="45.93836" lon="4.77994">
        <ele>179</ele>
        <time>2017-06-20T08:47:45Z</time>
      </trkpt>
      <trkpt lat="45.93838" lon="4.78002">
        <ele>180</ele>
        <time>2017-06-20T08:47:46Z</time>
      </trkpt>
      <trkpt lat="45.93839" lon="4.7801">
        <ele>181</ele>
        <time>2017-06-20T08:47:47Z</time>
      </trkpt>
      <trkpt lat="45.9384" lon="4.78018">
        <ele>181</ele>
        <time>2017-06-20T08:47:48Z</time>
      </trkpt>
      <trkpt lat="45.93841" lon="4.78026">
        <ele>182</ele>
        <time>2017-06-20T08:47:49Z</time>
      </trkpt>
      <trkpt lat="45.93842" lon="4.78034">
        <ele>182</ele>
        <time>2017-06-20T08:47:50Z</time>
      </trkpt>
      <trkpt lat="45.93845" lon="4.7804">
        <ele>182</ele>
        <time>2017-06-20T08:47:51Z</time>
      </trkpt>
      <trkpt lat="45.93846" lon="4.78047">
        <ele>182</ele>
        <time>2017-06-20T08:47:52Z</time>
      </trkpt>
      <trkpt lat="45.93846" lon="4.78054">
        <ele>182</ele>
        <time>2017-06-20T08:47:53Z</time>
      </trkpt>
      <trkpt lat="45.93845" lon="4.7806">
        <ele>182</ele>
        <time>2017-06-20T08:47:54Z</time>
      </trkpt>
      <trkpt lat="45.93843" lon="4.78072">
        <ele>182</ele>
        <time>2017-06-20T08:47:56Z</time>
      </trkpt>
      <trkpt lat="45.9384" lon="4.78078">
        <ele>181</ele>
        <time>2017-06-20T08:47:57Z</time>
      </trkpt>
      <trkpt lat="45.93838" lon="4.78089">
        <ele>182</ele>
        <time>2017-06-20T08:47:59Z</time>
      </trkpt>
      <trkpt lat="45.93838" lon="4.78095">
        <ele>182</ele>
        <time>2017-06-20T08:48:00Z</time>
      </trkpt>
      <trkpt lat="45.93835" lon="4.78107">
        <ele>183</ele>
        <time>2017-06-20T08:48:02Z</time>
      </trkpt>
      <trkpt lat="45.93833" lon="4.78113">
        <ele>179</ele>
        <time>2017-06-20T08:48:03Z</time>
      </trkpt>
      <trkpt lat="45.93832" lon="4.78119">
        <ele>180</ele>
        <time>2017-06-20T08:48:04Z</time>
      </trkpt>
      <trkpt lat="45.9383" lon="4.78126">
        <ele>180</ele>
        <time>2017-06-20T08:48:05Z</time>
      </trkpt>
      <trkpt lat="45.93827" lon="4.78138">
        <ele>180</ele>
        <time>2017-06-20T08:48:07Z</time>
      </trkpt>
      <trkpt lat="45.93825" lon="4.78144">
        <ele>180</ele>
        <time>2017-06-20T08:48:08Z</time>
      </trkpt>
      <trkpt lat="45.93824" lon="4.78151">
        <ele>180</ele>
        <time>2017-06-20T08:48:09Z</time>
      </trkpt>
      <trkpt lat="45.93823" lon="4.78157">
        <ele>181</ele>
        <time>2017-06-20T08:48:10Z</time>
      </trkpt>
      <trkpt lat="45.9382" lon="4.78169">
        <ele>182</ele>
        <time>2017-06-20T08:48:12Z</time>
      </trkpt>
      <trkpt lat="45.93818" lon="4.78175">
        <ele>182</ele>
        <time>2017-06-20T08:48:13Z</time>
      </trkpt>
      <trkpt lat="45.93817" lon="4.78182">
        <ele>182</ele>
        <time>2017-06-20T08:48:14Z</time>
      </trkpt>
      <trkpt lat="45.93816" lon="4.78188">
        <ele>182</ele>
        <time>2017-06-20T08:48:15Z</time>
      </trkpt>
      <trkpt lat="45.93814" lon="4.782">
        <ele>182</ele>
        <time>2017-06-20T08:48:17Z</time>
      </trkpt>
      <trkpt lat="45.93812" lon="4.78205">
        <ele>182</ele>
        <time>2017-06-20T08:48:18Z</time>
      </trkpt>
      <trkpt lat="45.93809" lon="4.78216">
        <ele>182</ele>
        <time>2017-06-20T08:48:20Z</time>
      </trkpt>
      <trkpt lat="45.93807" lon="4.78221">
        <ele>182</ele>
        <time>2017-06-20T08:48:21Z</time>
      </trkpt>
      <trkpt lat="45.93804" lon="4.78227">
        <ele>182</ele>
        <time>2017-06-20T08:48:22Z</time>
      </trkpt>
      <trkpt lat="45.93803" lon="4.78235">
        <ele>182</ele>
        <time>2017-06-20T08:48:23Z</time>
      </trkpt>
      <trkpt lat="45.93801" lon="4.78242">
        <ele>182</ele>
        <time>2017-06-20T08:48:24Z</time>
      </trkpt>
      <trkpt lat="45.93796" lon="4.78249">
        <ele>182</ele>
        <time>2017-06-20T08:48:25Z</time>
      </trkpt>
      <trkpt lat="45.93793" lon="4.78257">
        <ele>183</ele>
        <time>2017-06-20T08:48:26Z</time>
      </trkpt>
      <trkpt lat="45.93792" lon="4.78265">
        <ele>183</ele>
        <time>2017-06-20T08:48:27Z</time>
      </trkpt>
      <trkpt lat="45.9379" lon="4.78274">
        <ele>183</ele>
        <time>2017-06-20T08:48:28Z</time>
      </trkpt>
      <trkpt lat="45.93788" lon="4.78281">
        <ele>183</ele>
        <time>2017-06-20T08:48:29Z</time>
      </trkpt>
      <trkpt lat="45.93786" lon="4.78289">
        <ele>183</ele>
        <time>2017-06-20T08:48:30Z</time>
      </trkpt>
      <trkpt lat="45.93785" lon="4.78296">
        <ele>183</ele>
        <time>2017-06-20T08:48:31Z</time>
      </trkpt>
      <trkpt lat="45.93783" lon="4.78303">
        <ele>183</ele>
        <time>2017-06-20T08:48:32Z</time>
      </trkpt>
      <trkpt lat="45.93781" lon="4.78311">
        <ele>183</ele>
        <time>2017-06-20T08:48:33Z</time>
      </trkpt>
      <trkpt lat="45.93779" lon="4.78319">
        <ele>183</ele>
        <time>2017-06-20T08:48:34Z</time>
      </trkpt>
      <trkpt lat="45.93777" lon="4.78328">
        <ele>183</ele>
        <time>2017-06-20T08:48:35Z</time>
      </trkpt>
      <trkpt lat="45.93775" lon="4.78336">
        <ele>183</ele>
        <time>2017-06-20T08:48:36Z</time>
      </trkpt>
      <trkpt lat="45.93773" lon="4.78344">
        <ele>183</ele>
        <time>2017-06-20T08:48:37Z</time>
      </trkpt>
      <trkpt lat="45.93771" lon="4.78352">
        <ele>183</ele>
        <time>2017-06-20T08:48:38Z</time>
      </trkpt>
      <trkpt lat="45.93769" lon="4.7836">
        <ele>183</ele>
        <time>2017-06-20T08:48:39Z</time>
      </trkpt>
      <trkpt lat="45.93767" lon="4.78368">
        <ele>183</ele>
        <time>2017-06-20T08:48:40Z</time>
      </trkpt>
      <trkpt lat="45.93765" lon="4.78376">
        <ele>183</ele>
        <time>2017-06-20T08:48:41Z</time>
      </trkpt>
      <trkpt lat="45.93763" lon="4.78384">
        <ele>183</ele>
        <time>2017-06-20T08:48:42Z</time>
      </trkpt>
      <trkpt lat="45.93761" lon="4.78392">
        <ele>183</ele>
        <time>2017-06-20T08:48:43Z</time>
      </trkpt>
      <trkpt lat="45.9376" lon="4.78401">
        <ele>183</ele>
        <time>2017-06-20T08:48:44Z</time>
      </trkpt>
      <trkpt lat="45.93758" lon="4.7841">
        <ele>182</ele>
        <time>2017-06-20T08:48:45Z</time>
      </trkpt>
      <trkpt lat="45.93755" lon="4.78419">
        <ele>182</ele>
        <time>2017-06-20T08:48:46Z</time>
      </trkpt>
      <trkpt lat="45.93753" lon="4.78428">
        <ele>182</ele>
        <time>2017-06-20T08:48:47Z</time>
      </trkpt>
      <trkpt lat="45.93751" lon="4.78437">
        <ele>183</ele>
        <time>2017-06-20T08:48:48Z</time>
      </trkpt>
      <trkpt lat="45.93748" lon="4.78446">
        <ele>180</ele>
        <time>2017-06-20T08:48:49Z</time>
      </trkpt>
      <trkpt lat="45.93746" lon="4.78455">
        <ele>180</ele>
        <time>2017-06-20T08:48:50Z</time>
      </trkpt>
      <trkpt lat="45.93744" lon="4.78464">
        <ele>180</ele>
        <time>2017-06-20T08:48:51Z</time>
      </trkpt>
      <trkpt lat="45.93742" lon="4.78474">
        <ele>180</ele>
        <time>2017-06-20T08:48:52Z</time>
      </trkpt>
      <trkpt lat="45.93738" lon="4.78483">
        <ele>180</ele>
        <time>2017-06-20T08:48:53Z</time>
      </trkpt>
      <trkpt lat="45.93735" lon="4.78493">
        <ele>180</ele>
        <time>2017-06-20T08:48:54Z</time>
      </trkpt>
      <trkpt lat="45.93732" lon="4.78504">
        <ele>179</ele>
        <time>2017-06-20T08:48:55Z</time>
      </trkpt>
      <trkpt lat="45.9373" lon="4.78514">
        <ele>179</ele>
        <time>2017-06-20T08:48:56Z</time>
      </trkpt>
      <trkpt lat="45.93727" lon="4.78525">
        <ele>179</ele>
        <time>2017-06-20T08:48:57Z</time>
      </trkpt>
      <trkpt lat="45.93725" lon="4.78535">
        <ele>178</ele>
        <time>2017-06-20T08:48:58Z</time>
      </trkpt>
      <trkpt lat="45.93722" lon="4.78545">
        <ele>178</ele>
        <time>2017-06-20T08:48:59Z</time>
      </trkpt>
      <trkpt lat="45.9372" lon="4.78556">
        <ele>178</ele>
        <time>2017-06-20T08:49:00Z</time>
      </trkpt>
      <trkpt lat="45.93717" lon="4.78566">
        <ele>178</ele>
        <time>2017-06-20T08:49:01Z</time>
      </trkpt>
      <trkpt lat="45.93715" lon="4.78576">
        <ele>178</ele>
        <time>2017-06-20T08:49:02Z</time>
      </trkpt>
      <trkpt lat="45.93712" lon="4.78585">
        <ele>176</ele>
        <time>2017-06-20T08:49:03Z</time>
      </trkpt>
      <trkpt lat="45.9371" lon="4.78593">
        <ele>176</ele>
        <time>2017-06-20T08:49:04Z</time>
      </trkpt>
      <trkpt lat="45.93708" lon="4.78599">
        <ele>176</ele>
        <time>2017-06-20T08:49:05Z</time>
      </trkpt>
      <trkpt lat="45.93705" lon="4.7861">
        <ele>176</ele>
        <time>2017-06-20T08:49:09Z</time>
      </trkpt>
      <trkpt lat="45.93704" lon="4.78612">
        <ele>176</ele>
        <time>2017-06-20T08:49:10Z</time>
      </trkpt>
      <trkpt lat="45.93702" lon="4.78624">
        <ele>176</ele>
        <time>2017-06-20T08:49:13Z</time>
      </trkpt>
      <trkpt lat="45.93702" lon="4.78629">
        <ele>176</ele>
        <time>2017-06-20T08:49:14Z</time>
      </trkpt>
      <trkpt lat="45.93708" lon="4.78637">
        <ele>176</ele>
        <time>2017-06-20T08:49:17Z</time>
      </trkpt>
      <trkpt lat="45.93712" lon="4.78637">
        <ele>176</ele>
        <time>2017-06-20T08:49:18Z</time>
      </trkpt>
      <trkpt lat="45.93721" lon="4.78634">
        <ele>177</ele>
        <time>2017-06-20T08:49:21Z</time>
      </trkpt>
      <trkpt lat="45.93723" lon="4.78634">
        <ele>177</ele>
        <time>2017-06-20T08:49:22Z</time>
      </trkpt>
      <trkpt lat="45.93728" lon="4.78632">
        <ele>177</ele>
        <time>2017-06-20T08:49:24Z</time>
      </trkpt>
      <trkpt lat="45.93732" lon="4.78633">
        <ele>177</ele>
        <time>2017-06-20T08:49:25Z</time>
      </trkpt>
      <trkpt lat="45.93739" lon="4.78632">
        <ele>177</ele>
        <time>2017-06-20T08:49:27Z</time>
      </trkpt>
      <trkpt lat="45.93743" lon="4.78632">
        <ele>177</ele>
        <time>2017-06-20T08:49:28Z</time>
      </trkpt>
      <trkpt lat="45.93751" lon="4.78632">
        <ele>180</ele>
        <time>2017-06-20T08:49:31Z</time>
      </trkpt>
      <trkpt lat="45.93754" lon="4.78631">
        <ele>180</ele>
        <time>2017-06-20T08:49:32Z</time>
      </trkpt>
      <trkpt lat="45.9376" lon="4.78628">
        <ele>181</ele>
        <time>2017-06-20T08:49:34Z</time>
      </trkpt>
      <trkpt lat="45.93764" lon="4.78628">
        <ele>181</ele>
        <time>2017-06-20T08:49:35Z</time>
      </trkpt>
      <trkpt lat="45.93772" lon="4.78625">
        <ele>181</ele>
        <time>2017-06-20T08:49:38Z</time>
      </trkpt>
      <trkpt lat="45.93775" lon="4.78624">
        <ele>181</ele>
        <time>2017-06-20T08:49:39Z</time>
      </trkpt>
      <trkpt lat="45.93783" lon="4.78621">
        <ele>181</ele>
        <time>2017-06-20T08:49:42Z</time>
      </trkpt>
      <trkpt lat="45.93786" lon="4.7862">
        <ele>182</ele>
        <time>2017-06-20T08:49:43Z</time>
      </trkpt>
      <trkpt lat="45.93793" lon="4.78618">
        <ele>182</ele>
        <time>2017-06-20T08:49:45Z</time>
      </trkpt>
      <trkpt lat="45.93797" lon="4.78618">
        <ele>182</ele>
        <time>2017-06-20T08:49:46Z</time>
      </trkpt>
      <trkpt lat="45.93803" lon="4.78616">
        <ele>182</ele>
        <time>2017-06-20T08:49:48Z</time>
      </trkpt>
      <trkpt lat="45.93806" lon="4.78615">
        <ele>183</ele>
        <time>2017-06-20T08:49:49Z</time>
      </trkpt>
      <trkpt lat="45.93812" lon="4.78612">
        <ele>183</ele>
        <time>2017-06-20T08:49:51Z</time>
      </trkpt>
      <trkpt lat="45.93815" lon="4.78611">
        <ele>183</ele>
        <time>2017-06-20T08:49:52Z</time>
      </trkpt>
      <trkpt lat="45.93823" lon="4.78608">
        <ele>184</ele>
        <time>2017-06-20T08:49:55Z</time>
      </trkpt>
      <trkpt lat="45.93826" lon="4.78607">
        <ele>184</ele>
        <time>2017-06-20T08:49:56Z</time>
      </trkpt>
      <trkpt lat="45.93834" lon="4.78607">
        <ele>187</ele>
        <time>2017-06-20T08:49:59Z</time>
      </trkpt>
      <trkpt lat="45.93836" lon="4.78607">
        <ele>187</ele>
        <time>2017-06-20T08:50:00Z</time>
      </trkpt>
      <trkpt lat="45.93844" lon="4.78608">
        <ele>188</ele>
        <time>2017-06-20T08:50:03Z</time>
      </trkpt>
      <trkpt lat="45.93846" lon="4.78608">
        <ele>188</ele>
        <time>2017-06-20T08:50:04Z</time>
      </trkpt>
      <trkpt lat="45.93855" lon="4.78607">
        <ele>188</ele>
        <time>2017-06-20T08:50:07Z</time>
      </trkpt>
      <trkpt lat="45.93857" lon="4.78608">
        <ele>188</ele>
        <time>2017-06-20T08:50:08Z</time>
      </trkpt>
      <trkpt lat="45.93864" lon="4.78606">
        <ele>188</ele>
        <time>2017-06-20T08:50:11Z</time>
      </trkpt>
      <trkpt lat="45.93866" lon="4.78606">
        <ele>188</ele>
        <time>2017-06-20T08:50:12Z</time>
      </trkpt>
      <trkpt lat="45.93873" lon="4.78604">
        <ele>189</ele>
        <time>2017-06-20T08:50:15Z</time>
      </trkpt>
      <trkpt lat="45.93876" lon="4.78603">
        <ele>189</ele>
        <time>2017-06-20T08:50:16Z</time>
      </trkpt>
      <trkpt lat="45.93883" lon="4.78603">
        <ele>189</ele>
        <time>2017-06-20T08:50:19Z</time>
      </trkpt>
      <trkpt lat="45.93886" lon="4.78603">
        <ele>189</ele>
        <time>2017-06-20T08:50:20Z</time>
      </trkpt>
      <trkpt lat="45.93893" lon="4.78601">
        <ele>190</ele>
        <time>2017-06-20T08:50:23Z</time>
      </trkpt>
      <trkpt lat="45.93895" lon="4.78601">
        <ele>190</ele>
        <time>2017-06-20T08:50:24Z</time>
      </trkpt>
      <trkpt lat="45.93902" lon="4.78594">
        <ele>191</ele>
        <time>2017-06-20T08:50:27Z</time>
      </trkpt>
      <trkpt lat="45.93905" lon="4.78591">
        <ele>191</ele>
        <time>2017-06-20T08:50:28Z</time>
      </trkpt>
      <trkpt lat="45.93912" lon="4.78583">
        <ele>193</ele>
        <time>2017-06-20T08:50:31Z</time>
      </trkpt>
      <trkpt lat="45.93915" lon="4.78582">
        <ele>193</ele>
        <time>2017-06-20T08:50:32Z</time>
      </trkpt>
      <trkpt lat="45.93923" lon="4.78588">
        <ele>194</ele>
        <time>2017-06-20T08:50:37Z</time>
      </trkpt>
      <trkpt lat="45.93925" lon="4.78592">
        <ele>194</ele>
        <time>2017-06-20T08:50:38Z</time>
      </trkpt>
      <trkpt lat="45.9393" lon="4.78602">
        <ele>195</ele>
        <time>2017-06-20T08:50:41Z</time>
      </trkpt>
      <trkpt lat="45.93931" lon="4.78605">
        <ele>195</ele>
        <time>2017-06-20T08:50:42Z</time>
      </trkpt>
      <trkpt lat="45.93933" lon="4.78617">
        <ele>195</ele>
        <time>2017-06-20T08:50:46Z</time>
      </trkpt>
      <trkpt lat="45.93933" lon="4.7862">
        <ele>195</ele>
        <time>2017-06-20T08:50:47Z</time>
      </trkpt>
      <trkpt lat="45.93935" lon="4.7863">
        <ele>195</ele>
        <time>2017-06-20T08:50:49Z</time>
      </trkpt>
      <trkpt lat="45.93934" lon="4.78635">
        <ele>195</ele>
        <time>2017-06-20T08:50:50Z</time>
      </trkpt>
      <trkpt lat="45.93933" lon="4.78646">
        <ele>194</ele>
        <time>2017-06-20T08:50:52Z</time>
      </trkpt>
      <trkpt lat="45.93933" lon="4.78651">
        <ele>194</ele>
        <time>2017-06-20T08:50:53Z</time>
      </trkpt>
      <trkpt lat="45.93933" lon="4.78661">
        <ele>193</ele>
        <time>2017-06-20T08:50:55Z</time>
      </trkpt>
      <trkpt lat="45.93933" lon="4.78666">
        <ele>193</ele>
        <time>2017-06-20T08:50:56Z</time>
      </trkpt>
      <trkpt lat="45.93937" lon="4.78674">
        <ele>193</ele>
        <time>2017-06-20T08:50:58Z</time>
      </trkpt>
      <trkpt lat="45.93939" lon="4.78678">
        <ele>194</ele>
        <time>2017-06-20T08:50:59Z</time>
      </trkpt>
      <trkpt lat="45.93941" lon="4.78687">
        <ele>194</ele>
        <time>2017-06-20T08:51:01Z</time>
      </trkpt>
      <trkpt lat="45.93942" lon="4.78692">
        <ele>194</ele>
        <time>2017-06-20T08:51:02Z</time>
      </trkpt>
      <trkpt lat="45.93942" lon="4.78702">
        <ele>194</ele>
        <time>2017-06-20T08:51:04Z</time>
      </trkpt>
      <trkpt lat="45.93942" lon="4.78708">
        <ele>194</ele>
        <time>2017-06-20T08:51:05Z</time>
      </trkpt>
      <trkpt lat="45.93943" lon="4.78718">
        <ele>194</ele>
        <time>2017-06-20T08:51:07Z</time>
      </trkpt>
      <trkpt lat="45.93943" lon="4.78723">
        <ele>194</ele>
        <time>2017-06-20T08:51:08Z</time>
      </trkpt>
      <trkpt lat="45.93943" lon="4.78734">
        <ele>194</ele>
        <time>2017-06-20T08:51:10Z</time>
      </trkpt>
      <trkpt lat="45.93943" lon="4.78739">
        <ele>194</ele>
        <time>2017-06-20T08:51:11Z</time>
      </trkpt>
      <trkpt lat="45.93941" lon="4.78751">
        <ele>193</ele>
        <time>2017-06-20T08:51:13Z</time>
      </trkpt>
      <trkpt lat="45.93941" lon="4.78756">
        <ele>193</ele>
        <time>2017-06-20T08:51:14Z</time>
      </trkpt>
      <trkpt lat="45.93941" lon="4.78768">
        <ele>194</ele>
        <time>2017-06-20T08:51:16Z</time>
      </trkpt>
      <trkpt lat="45.9394" lon="4.78774">
        <ele>194</ele>
        <time>2017-06-20T08:51:17Z</time>
      </trkpt>
      <trkpt lat="45.9394" lon="4.78786">
        <ele>194</ele>
        <time>2017-06-20T08:51:19Z</time>
      </trkpt>
      <trkpt lat="45.9394" lon="4.78791">
        <ele>194</ele>
        <time>2017-06-20T08:51:20Z</time>
      </trkpt>
      <trkpt lat="45.93939" lon="4.78801">
        <ele>194</ele>
        <time>2017-06-20T08:51:22Z</time>
      </trkpt>
      <trkpt lat="45.93939" lon="4.78806">
        <ele>194</ele>
        <time>2017-06-20T08:51:23Z</time>
      </trkpt>
      <trkpt lat="45.93939" lon="4.78817">
        <ele>194</ele>
        <time>2017-06-20T08:51:25Z</time>
      </trkpt>
      <trkpt lat="45.93939" lon="4.78823">
        <ele>194</ele>
        <time>2017-06-20T08:51:26Z</time>
      </trkpt>
      <trkpt lat="45.93939" lon="4.78835">
        <ele>193</ele>
        <time>2017-06-20T08:51:29Z</time>
      </trkpt>
      <trkpt lat="45.93938" lon="4.7884">
        <ele>193</ele>
        <time>2017-06-20T08:51:30Z</time>
      </trkpt>
      <trkpt lat="45.93939" lon="4.7885">
        <ele>193</ele>
        <time>2017-06-20T08:51:32Z</time>
      </trkpt>
      <trkpt lat="45.9394" lon="4.78856">
        <ele>194</ele>
        <time>2017-06-20T08:51:33Z</time>
      </trkpt>
      <trkpt lat="45.93941" lon="4.78867">
        <ele>194</ele>
        <time>2017-06-20T08:51:35Z</time>
      </trkpt>
      <trkpt lat="45.93942" lon="4.78873">
        <ele>194</ele>
        <time>2017-06-20T08:51:36Z</time>
      </trkpt>
      <trkpt lat="45.93943" lon="4.78884">
        <ele>194</ele>
        <time>2017-06-20T08:51:38Z</time>
      </trkpt>
      <trkpt lat="45.93941" lon="4.7889">
        <ele>194</ele>
        <time>2017-06-20T08:51:39Z</time>
      </trkpt>
      <trkpt lat="45.93941" lon="4.789">
        <ele>193</ele>
        <time>2017-06-20T08:51:41Z</time>
      </trkpt>
      <trkpt lat="45.93941" lon="4.78905">
        <ele>193</ele>
        <time>2017-06-20T08:51:42Z</time>
      </trkpt>
      <trkpt lat="45.93942" lon="4.78916">
        <ele>193</ele>
        <time>2017-06-20T08:51:44Z</time>
      </trkpt>
      <trkpt lat="45.93942" lon="4.78921">
        <ele>193</ele>
        <time>2017-06-20T08:51:45Z</time>
      </trkpt>
      <trkpt lat="45.93941" lon="4.78931">
        <ele>193</ele>
        <time>2017-06-20T08:51:47Z</time>
      </trkpt>
      <trkpt lat="45.93941" lon="4.78936">
        <ele>193</ele>
        <time>2017-06-20T08:51:48Z</time>
      </trkpt>
      <trkpt lat="45.93942" lon="4.78947">
        <ele>194</ele>
        <time>2017-06-20T08:51:50Z</time>
      </trkpt>
      <trkpt lat="45.93942" lon="4.78952">
        <ele>194</ele>
        <time>2017-06-20T08:51:51Z</time>
      </trkpt>
      <trkpt lat="45.93943" lon="4.78963">
        <ele>194</ele>
        <time>2017-06-20T08:51:53Z</time>
      </trkpt>
      <trkpt lat="45.93943" lon="4.78968">
        <ele>194</ele>
        <time>2017-06-20T08:51:54Z</time>
      </trkpt>
      <trkpt lat="45.93944" lon="4.78978">
        <ele>194</ele>
        <time>2017-06-20T08:51:56Z</time>
      </trkpt>
      <trkpt lat="45.93945" lon="4.78984">
        <ele>194</ele>
        <time>2017-06-20T08:51:57Z</time>
      </trkpt>
      <trkpt lat="45.93946" lon="4.78995">
        <ele>194</ele>
        <time>2017-06-20T08:51:59Z</time>
      </trkpt>
      <trkpt lat="45.93947" lon="4.79001">
        <ele>195</ele>
        <time>2017-06-20T08:52:00Z</time>
      </trkpt>
      <trkpt lat="45.93948" lon="4.79011">
        <ele>195</ele>
        <time>2017-06-20T08:52:02Z</time>
      </trkpt>
      <trkpt lat="45.93948" lon="4.79015">
        <ele>195</ele>
        <time>2017-06-20T08:52:03Z</time>
      </trkpt>
      <trkpt lat="45.93941" lon="4.79023">
        <ele>195</ele>
        <time>2017-06-20T08:52:04Z</time>
      </trkpt>
      <trkpt lat="45.93942" lon="4.79035">
        <ele>195</ele>
        <time>2017-06-20T08:52:06Z</time>
      </trkpt>
      <trkpt lat="45.93942" lon="4.79041">
        <ele>195</ele>
        <time>2017-06-20T08:52:07Z</time>
      </trkpt>
      <trkpt lat="45.93943" lon="4.79053">
        <ele>195</ele>
        <time>2017-06-20T08:52:09Z</time>
      </trkpt>
      <trkpt lat="45.93944" lon="4.79059">
        <ele>195</ele>
        <time>2017-06-20T08:52:10Z</time>
      </trkpt>
      <trkpt lat="45.93946" lon="4.79071">
        <ele>195</ele>
        <time>2017-06-20T08:52:12Z</time>
      </trkpt>
      <trkpt lat="45.93946" lon="4.79077">
        <ele>195</ele>
        <time>2017-06-20T08:52:13Z</time>
      </trkpt>
      <trkpt lat="45.93947" lon="4.7909">
        <ele>196</ele>
        <time>2017-06-20T08:52:15Z</time>
      </trkpt>
      <trkpt lat="45.93947" lon="4.79095">
        <ele>196</ele>
        <time>2017-06-20T08:52:16Z</time>
      </trkpt>
      <trkpt lat="45.93949" lon="4.79105">
        <ele>196</ele>
        <time>2017-06-20T08:52:18Z</time>
      </trkpt>
      <trkpt lat="45.93949" lon="4.79111">
        <ele>197</ele>
        <time>2017-06-20T08:52:19Z</time>
      </trkpt>
      <trkpt lat="45.9395" lon="4.79122">
        <ele>197</ele>
        <time>2017-06-20T08:52:21Z</time>
      </trkpt>
      <trkpt lat="45.93948" lon="4.79128">
        <ele>197</ele>
        <time>2017-06-20T08:52:22Z</time>
      </trkpt>
      <trkpt lat="45.93945" lon="4.79135">
        <ele>196</ele>
        <time>2017-06-20T08:52:23Z</time>
      </trkpt>
      <trkpt lat="45.93945" lon="4.79141">
        <ele>196</ele>
        <time>2017-06-20T08:52:24Z</time>
      </trkpt>
      <trkpt lat="45.93945" lon="4.79153">
        <ele>196</ele>
        <time>2017-06-20T08:52:26Z</time>
      </trkpt>
      <trkpt lat="45.93945" lon="4.79158">
        <ele>196</ele>
        <time>2017-06-20T08:52:27Z</time>
      </trkpt>
      <trkpt lat="45.93946" lon="4.79169">
        <ele>196</ele>
        <time>2017-06-20T08:52:29Z</time>
      </trkpt>
      <trkpt lat="45.93948" lon="4.79175">
        <ele>196</ele>
        <time>2017-06-20T08:52:30Z</time>
      </trkpt>
      <trkpt lat="45.93949" lon="4.79186">
        <ele>197</ele>
        <time>2017-06-20T08:52:32Z</time>
      </trkpt>
      <trkpt lat="45.9395" lon="4.79193">
        <ele>197</ele>
        <time>2017-06-20T08:52:33Z</time>
      </trkpt>
      <trkpt lat="45.9395" lon="4.79206">
        <ele>197</ele>
        <time>2017-06-20T08:52:35Z</time>
      </trkpt>
      <trkpt lat="45.93949" lon="4.79212">
        <ele>197</ele>
        <time>2017-06-20T08:52:36Z</time>
      </trkpt>
      <trkpt lat="45.93949" lon="4.79223">
        <ele>197</ele>
        <time>2017-06-20T08:52:38Z</time>
      </trkpt>
      <trkpt lat="45.93949" lon="4.79228">
        <ele>197</ele>
        <time>2017-06-20T08:52:39Z</time>
      </trkpt>
      <trkpt lat="45.9395" lon="4.79237">
        <ele>197</ele>
        <time>2017-06-20T08:52:41Z</time>
      </trkpt>
      <trkpt lat="45.9395" lon="4.79243">
        <ele>197</ele>
        <time>2017-06-20T08:52:42Z</time>
      </trkpt>
      <trkpt lat="45.93951" lon="4.79255">
        <ele>198</ele>
        <time>2017-06-20T08:52:44Z</time>
      </trkpt>
      <trkpt lat="45.93951" lon="4.79261">
        <ele>198</ele>
        <time>2017-06-20T08:52:45Z</time>
      </trkpt>
      <trkpt lat="45.93953" lon="4.79273">
        <ele>198</ele>
        <time>2017-06-20T08:52:47Z</time>
      </trkpt>
      <trkpt lat="45.93953" lon="4.79277">
        <ele>198</ele>
        <time>2017-06-20T08:52:48Z</time>
      </trkpt>
      <trkpt lat="45.93954" lon="4.79287">
        <ele>198</ele>
        <time>2017-06-20T08:52:50Z</time>
      </trkpt>
      <trkpt lat="45.93954" lon="4.79291">
        <ele>198</ele>
        <time>2017-06-20T08:52:51Z</time>
      </trkpt>
      <trkpt lat="45.93954" lon="4.79301">
        <ele>199</ele>
        <time>2017-06-20T08:52:53Z</time>
      </trkpt>
      <trkpt lat="45.93954" lon="4.79306">
        <ele>199</ele>
        <time>2017-06-20T08:52:54Z</time>
      </trkpt>
      <trkpt lat="45.93955" lon="4.79317">
        <ele>199</ele>
        <time>2017-06-20T08:52:56Z</time>
      </trkpt>
      <trkpt lat="45.93953" lon="4.79323">
        <ele>199</ele>
        <time>2017-06-20T08:52:57Z</time>
      </trkpt>
      <trkpt lat="45.93953" lon="4.79333">
        <ele>199</ele>
        <time>2017-06-20T08:52:59Z</time>
      </trkpt>
      <trkpt lat="45.93953" lon="4.79337">
        <ele>200</ele>
        <time>2017-06-20T08:53:00Z</time>
      </trkpt>
      <trkpt lat="45.93953" lon="4.79346">
        <ele>200</ele>
        <time>2017-06-20T08:53:02Z</time>
      </trkpt>
      <trkpt lat="45.93953" lon="4.7935">
        <ele>200</ele>
        <time>2017-06-20T08:53:03Z</time>
      </trkpt>
      <trkpt lat="45.93954" lon="4.7936">
        <ele>201</ele>
        <time>2017-06-20T08:53:05Z</time>
      </trkpt>
      <trkpt lat="45.93954" lon="4.79365">
        <ele>201</ele>
        <time>2017-06-20T08:53:06Z</time>
      </trkpt>
      <trkpt lat="45.93955" lon="4.79375">
        <ele>201</ele>
        <time>2017-06-20T08:53:08Z</time>
      </trkpt>
      <trkpt lat="45.93955" lon="4.7938">
        <ele>201</ele>
        <time>2017-06-20T08:53:09Z</time>
      </trkpt>
      <trkpt lat="45.93955" lon="4.7939">
        <ele>201</ele>
        <time>2017-06-20T08:53:11Z</time>
      </trkpt>
      <trkpt lat="45.93955" lon="4.79395">
        <ele>201</ele>
        <time>2017-06-20T08:53:12Z</time>
      </trkpt>
      <trkpt lat="45.93954" lon="4.79405">
        <ele>201</ele>
        <time>2017-06-20T08:53:14Z</time>
      </trkpt>
      <trkpt lat="45.93954" lon="4.79409">
        <ele>201</ele>
        <time>2017-06-20T08:53:15Z</time>
      </trkpt>
      <trkpt lat="45.93954" lon="4.79421">
        <ele>202</ele>
        <time>2017-06-20T08:53:18Z</time>
      </trkpt>
      <trkpt lat="45.93953" lon="4.79426">
        <ele>202</ele>
        <time>2017-06-20T08:53:19Z</time>
      </trkpt>
      <trkpt lat="45.93954" lon="4.79437">
        <ele>202</ele>
        <time>2017-06-20T08:53:22Z</time>
      </trkpt>
      <trkpt lat="45.93954" lon="4.7944">
        <ele>203</ele>
        <time>2017-06-20T08:53:23Z</time>
      </trkpt>
      <trkpt lat="45.93954" lon="4.79449">
        <ele>203</ele>
        <time>2017-06-20T08:53:25Z</time>
      </trkpt>
      <trkpt lat="45.93954" lon="4.79453">
        <ele>203</ele>
        <time>2017-06-20T08:53:26Z</time>
      </trkpt>
      <trkpt lat="45.93954" lon="4.79463">
        <ele>203</ele>
        <time>2017-06-20T08:53:28Z</time>
      </trkpt>
      <trkpt lat="45.93954" lon="4.79467">
        <ele>203</ele>
        <time>2017-06-20T08:53:29Z</time>
      </trkpt>
      <trkpt lat="45.93955" lon="4.79476">
        <ele>203</ele>
        <time>2017-06-20T08:53:31Z</time>
      </trkpt>
      <trkpt lat="45.93955" lon="4.79484">
        <ele>203</ele>
        <time>2017-06-20T08:53:32Z</time>
      </trkpt>
      <trkpt lat="45.93955" lon="4.79497">
        <ele>203</ele>
        <time>2017-06-20T08:53:34Z</time>
      </trkpt>
      <trkpt lat="45.93955" lon="4.79502">
        <ele>204</ele>
        <time>2017-06-20T08:53:35Z</time>
      </trkpt>
      <trkpt lat="45.93956" lon="4.79514">
        <ele>204</ele>
        <time>2017-06-20T08:53:37Z</time>
      </trkpt>
      <trkpt lat="45.93957" lon="4.79519">
        <ele>204</ele>
        <time>2017-06-20T08:53:38Z</time>
      </trkpt>
      <trkpt lat="45.93958" lon="4.79529">
        <ele>205</ele>
        <time>2017-06-20T08:53:40Z</time>
      </trkpt>
      <trkpt lat="45.93958" lon="4.79534">
        <ele>205</ele>
        <time>2017-06-20T08:53:41Z</time>
      </trkpt>
      <trkpt lat="45.93958" lon="4.79544">
        <ele>205</ele>
        <time>2017-06-20T08:53:43Z</time>
      </trkpt>
      <trkpt lat="45.93958" lon="4.79549">
        <ele>205</ele>
        <time>2017-06-20T08:53:44Z</time>
      </trkpt>
      <trkpt lat="45.93959" lon="4.79559">
        <ele>205</ele>
        <time>2017-06-20T08:53:46Z</time>
      </trkpt>
      <trkpt lat="45.93959" lon="4.79565">
        <ele>205</ele>
        <time>2017-06-20T08:53:47Z</time>
      </trkpt>
      <trkpt lat="45.9396" lon="4.79575">
        <ele>206</ele>
        <time>2017-06-20T08:53:49Z</time>
      </trkpt>
      <trkpt lat="45.9396" lon="4.79579">
        <ele>206</ele>
        <time>2017-06-20T08:53:50Z</time>
      </trkpt>
      <trkpt lat="45.93961" lon="4.79589">
        <ele>207</ele>
        <time>2017-06-20T08:53:52Z</time>
      </trkpt>
      <trkpt lat="45.93961" lon="4.79595">
        <ele>207</ele>
        <time>2017-06-20T08:53:53Z</time>
      </trkpt>
      <trkpt lat="45.93963" lon="4.79607">
        <ele>207</ele>
        <time>2017-06-20T08:53:56Z</time>
      </trkpt>
      <trkpt lat="45.93963" lon="4.7961">
        <ele>207</ele>
        <time>2017-06-20T08:53:57Z</time>
      </trkpt>
      <trkpt lat="45.93965" lon="4.79619">
        <ele>207</ele>
        <time>2017-06-20T08:53:59Z</time>
      </trkpt>
      <trkpt lat="45.93966" lon="4.79623">
        <ele>207</ele>
        <time>2017-06-20T08:54:00Z</time>
      </trkpt>
      <trkpt lat="45.93967" lon="4.7963">
        <ele>207</ele>
        <time>2017-06-20T08:54:02Z</time>
      </trkpt>
      <trkpt lat="45.93969" lon="4.79635">
        <ele>207</ele>
        <time>2017-06-20T08:54:03Z</time>
      </trkpt>
      <trkpt lat="45.9397" lon="4.79644">
        <ele>208</ele>
        <time>2017-06-20T08:54:05Z</time>
      </trkpt>
      <trkpt lat="45.9397" lon="4.79648">
        <ele>208</ele>
        <time>2017-06-20T08:54:06Z</time>
      </trkpt>
      <trkpt lat="45.93972" lon="4.79657">
        <ele>208</ele>
        <time>2017-06-20T08:54:08Z</time>
      </trkpt>
      <trkpt lat="45.93973" lon="4.79662">
        <ele>208</ele>
        <time>2017-06-20T08:54:09Z</time>
      </trkpt>
      <trkpt lat="45.93974" lon="4.79671">
        <ele>208</ele>
        <time>2017-06-20T08:54:11Z</time>
      </trkpt>
      <trkpt lat="45.93975" lon="4.79677">
        <ele>208</ele>
        <time>2017-06-20T08:54:12Z</time>
      </trkpt>
      <trkpt lat="45.93975" lon="4.79686">
        <ele>208</ele>
        <time>2017-06-20T08:54:14Z</time>
      </trkpt>
      <trkpt lat="45.93974" lon="4.7969">
        <ele>207</ele>
        <time>2017-06-20T08:54:15Z</time>
      </trkpt>
      <trkpt lat="45.93976" lon="4.79698">
        <ele>207</ele>
        <time>2017-06-20T08:54:17Z</time>
      </trkpt>
      <trkpt lat="45.93976" lon="4.79703">
        <ele>207</ele>
        <time>2017-06-20T08:54:18Z</time>
      </trkpt>
      <trkpt lat="45.93977" lon="4.79713">
        <ele>207</ele>
        <time>2017-06-20T08:54:20Z</time>
      </trkpt>
      <trkpt lat="45.93978" lon="4.79718">
        <ele>207</ele>
        <time>2017-06-20T08:54:21Z</time>
      </trkpt>
      <trkpt lat="45.93979" lon="4.79728">
        <ele>207</ele>
        <time>2017-06-20T08:54:23Z</time>
      </trkpt>
      <trkpt lat="45.9398" lon="4.79733">
        <ele>207</ele>
        <time>2017-06-20T08:54:24Z</time>
      </trkpt>
      <trkpt lat="45.93981" lon="4.79744">
        <ele>207</ele>
        <time>2017-06-20T08:54:26Z</time>
      </trkpt>
      <trkpt lat="45.93981" lon="4.7975">
        <ele>207</ele>
        <time>2017-06-20T08:54:27Z</time>
      </trkpt>
      <trkpt lat="45.93981" lon="4.79762">
        <ele>207</ele>
        <time>2017-06-20T08:54:29Z</time>
      </trkpt>
      <trkpt lat="45.93975" lon="4.79771">
        <ele>206</ele>
        <time>2017-06-20T08:54:30Z</time>
      </trkpt>
      <trkpt lat="45.93974" lon="4.79783">
        <ele>206</ele>
        <time>2017-06-20T08:54:32Z</time>
      </trkpt>
      <trkpt lat="45.93973" lon="4.79789">
        <ele>206</ele>
        <time>2017-06-20T08:54:33Z</time>
      </trkpt>
      <trkpt lat="45.93972" lon="4.79795">
        <ele>206</ele>
        <time>2017-06-20T08:54:34Z</time>
      </trkpt>
      <trkpt lat="45.93969" lon="4.798">
        <ele>206</ele>
        <time>2017-06-20T08:54:35Z</time>
      </trkpt>
      <trkpt lat="45.93968" lon="4.79812">
        <ele>206</ele>
        <time>2017-06-20T08:54:37Z</time>
      </trkpt>
      <trkpt lat="45.93968" lon="4.79818">
        <ele>207</ele>
        <time>2017-06-20T08:54:38Z</time>
      </trkpt>
      <trkpt lat="45.93967" lon="4.79825">
        <ele>207</ele>
        <time>2017-06-20T08:54:39Z</time>
      </trkpt>
      <trkpt lat="45.93967" lon="4.79831">
        <ele>207</ele>
        <time>2017-06-20T08:54:40Z</time>
      </trkpt>
      <trkpt lat="45.93966" lon="4.79838">
        <ele>206</ele>
        <time>2017-06-20T08:54:41Z</time>
      </trkpt>
      <trkpt lat="45.93965" lon="4.79845">
        <ele>206</ele>
        <time>2017-06-20T08:54:42Z</time>
      </trkpt>
      <trkpt lat="45.93963" lon="4.79857">
        <ele>206</ele>
        <time>2017-06-20T08:54:44Z</time>
      </trkpt>
      <trkpt lat="45.93962" lon="4.79863">
        <ele>206</ele>
        <time>2017-06-20T08:54:45Z</time>
      </trkpt>
      <trkpt lat="45.9396" lon="4.79874">
        <ele>206</ele>
        <time>2017-06-20T08:54:47Z</time>
      </trkpt>
      <trkpt lat="45.9396" lon="4.79879">
        <ele>206</ele>
        <time>2017-06-20T08:54:48Z</time>
      </trkpt>
      <trkpt lat="45.93958" lon="4.79889">
        <ele>206</ele>
        <time>2017-06-20T08:54:50Z</time>
      </trkpt>
      <trkpt lat="45.93957" lon="4.79894">
        <ele>206</ele>
        <time>2017-06-20T08:54:51Z</time>
      </trkpt>
      <trkpt lat="45.93955" lon="4.79904">
        <ele>205</ele>
        <time>2017-06-20T08:54:53Z</time>
      </trkpt>
      <trkpt lat="45.93954" lon="4.79909">
        <ele>205</ele>
        <time>2017-06-20T08:54:54Z</time>
      </trkpt>
      <trkpt lat="45.93951" lon="4.79919">
        <ele>205</ele>
        <time>2017-06-20T08:54:56Z</time>
      </trkpt>
      <trkpt lat="45.9395" lon="4.79924">
        <ele>205</ele>
        <time>2017-06-20T08:54:57Z</time>
      </trkpt>
      <trkpt lat="45.93946" lon="4.79935">
        <ele>205</ele>
        <time>2017-06-20T08:54:59Z</time>
      </trkpt>
      <trkpt lat="45.93945" lon="4.79941">
        <ele>205</ele>
        <time>2017-06-20T08:55:00Z</time>
      </trkpt>
      <trkpt lat="45.93944" lon="4.79952">
        <ele>205</ele>
        <time>2017-06-20T08:55:02Z</time>
      </trkpt>
      <trkpt lat="45.93943" lon="4.79958">
        <ele>205</ele>
        <time>2017-06-20T08:55:03Z</time>
      </trkpt>
      <trkpt lat="45.93943" lon="4.7997">
        <ele>205</ele>
        <time>2017-06-20T08:55:05Z</time>
      </trkpt>
      <trkpt lat="45.93942" lon="4.79975">
        <ele>205</ele>
        <time>2017-06-20T08:55:06Z</time>
      </trkpt>
      <trkpt lat="45.93941" lon="4.79984">
        <ele>204</ele>
        <time>2017-06-20T08:55:08Z</time>
      </trkpt>
      <trkpt lat="45.9394" lon="4.79989">
        <ele>204</ele>
        <time>2017-06-20T08:55:09Z</time>
      </trkpt>
      <trkpt lat="45.93939" lon="4.79999">
        <ele>204</ele>
        <time>2017-06-20T08:55:11Z</time>
      </trkpt>
      <trkpt lat="45.93938" lon="4.80004">
        <ele>205</ele>
        <time>2017-06-20T08:55:12Z</time>
      </trkpt>
      <trkpt lat="45.93937" lon="4.80011">
        <ele>205</ele>
        <time>2017-06-20T08:55:13Z</time>
      </trkpt>
      <trkpt lat="45.93937" lon="4.80018">
        <ele>206</ele>
        <time>2017-06-20T08:55:14Z</time>
      </trkpt>
      <trkpt lat="45.93936" lon="4.8003">
        <ele>206</ele>
        <time>2017-06-20T08:55:16Z</time>
      </trkpt>
      <trkpt lat="45.93936" lon="4.80037">
        <ele>207</ele>
        <time>2017-06-20T08:55:17Z</time>
      </trkpt>
      <trkpt lat="45.93936" lon="4.80047">
        <ele>207</ele>
        <time>2017-06-20T08:55:19Z</time>
      </trkpt>
      <trkpt lat="45.93936" lon="4.80052">
        <ele>207</ele>
        <time>2017-06-20T08:55:20Z</time>
      </trkpt>
      <trkpt lat="45.93937" lon="4.80064">
        <ele>207</ele>
        <time>2017-06-20T08:55:23Z</time>
      </trkpt>
      <trkpt lat="45.93937" lon="4.80067">
        <ele>207</ele>
        <time>2017-06-20T08:55:24Z</time>
      </trkpt>
      <trkpt lat="45.93939" lon="4.80079">
        <ele>207</ele>
        <time>2017-06-20T08:55:29Z</time>
      </trkpt>
      <trkpt lat="45.93939" lon="4.80081">
        <ele>207</ele>
        <time>2017-06-20T08:55:30Z</time>
      </trkpt>
      <trkpt lat="45.9394" lon="4.80091">
        <ele>208</ele>
        <time>2017-06-20T08:55:34Z</time>
      </trkpt>
      <trkpt lat="45.9394" lon="4.80095">
        <ele>208</ele>
        <time>2017-06-20T08:55:35Z</time>
      </trkpt>
      <trkpt lat="45.9394" lon="4.80105">
        <ele>208</ele>
        <time>2017-06-20T08:55:37Z</time>
      </trkpt>
      <trkpt lat="45.93942" lon="4.80111">
        <ele>209</ele>
        <time>2017-06-20T08:55:38Z</time>
      </trkpt>
      <trkpt lat="45.9394" lon="4.80118">
        <ele>209</ele>
        <time>2017-06-20T08:55:39Z</time>
      </trkpt>
      <trkpt lat="45.93939" lon="4.80125">
        <ele>208</ele>
        <time>2017-06-20T08:55:40Z</time>
      </trkpt>
      <trkpt lat="45.93939" lon="4.80132">
        <ele>208</ele>
        <time>2017-06-20T08:55:41Z</time>
      </trkpt>
      <trkpt lat="45.93938" lon="4.80139">
        <ele>208</ele>
        <time>2017-06-20T08:55:42Z</time>
      </trkpt>
      <trkpt lat="45.93939" lon="4.80151">
        <ele>208</ele>
        <time>2017-06-20T08:55:48Z</time>
      </trkpt>
      <trkpt lat="45.93939" lon="4.80152">
        <ele>208</ele>
        <time>2017-06-20T08:55:49Z</time>
      </trkpt>
      <trkpt lat="45.9394" lon="4.80156">
        <ele>208</ele>
        <time>2017-06-20T08:55:55Z</time>
      </trkpt>
      <trkpt lat="45.9394" lon="4.80157">
        <ele>208</ele>
        <time>2017-06-20T08:55:56Z</time>
      </trkpt>
      <trkpt lat="45.93941" lon="4.8016">
        <ele>208</ele>
        <time>2017-06-20T08:55:57Z</time>
      </trkpt>
      <trkpt lat="45.93942" lon="4.80166">
        <ele>208</ele>
        <time>2017-06-20T08:55:58Z</time>
      </trkpt>
      <trkpt lat="45.93944" lon="4.80178">
        <ele>205</ele>
        <time>2017-06-20T08:56:00Z</time>
      </trkpt>
      <trkpt lat="45.93945" lon="4.80185">
        <ele>205</ele>
        <time>2017-06-20T08:56:01Z</time>
      </trkpt>
      <trkpt lat="45.93947" lon="4.80193">
        <ele>205</ele>
        <time>2017-06-20T08:56:02Z</time>
      </trkpt>
      <trkpt lat="45.93949" lon="4.80201">
        <ele>205</ele>
        <time>2017-06-20T08:56:03Z</time>
      </trkpt>
      <trkpt lat="45.93951" lon="4.80208">
        <ele>205</ele>
        <time>2017-06-20T08:56:04Z</time>
      </trkpt>
      <trkpt lat="45.93953" lon="4.80215">
        <ele>205</ele>
        <time>2017-06-20T08:56:05Z</time>
      </trkpt>
      <trkpt lat="45.93955" lon="4.80222">
        <ele>205</ele>
        <time>2017-06-20T08:56:06Z</time>
      </trkpt>
      <trkpt lat="45.93956" lon="4.8023">
        <ele>204</ele>
        <time>2017-06-20T08:56:07Z</time>
      </trkpt>
      <trkpt lat="45.93958" lon="4.80238">
        <ele>204</ele>
        <time>2017-06-20T08:56:08Z</time>
      </trkpt>
      <trkpt lat="45.9396" lon="4.80245">
        <ele>204</ele>
        <time>2017-06-20T08:56:09Z</time>
      </trkpt>
      <trkpt lat="45.93964" lon="4.80255">
        <ele>202</ele>
        <time>2017-06-20T08:56:11Z</time>
      </trkpt>
      <trkpt lat="45.93965" lon="4.80261">
        <ele>202</ele>
        <time>2017-06-20T08:56:12Z</time>
      </trkpt>
      <trkpt lat="45.93967" lon="4.8027">
        <ele>202</ele>
        <time>2017-06-20T08:56:13Z</time>
      </trkpt>
      <trkpt lat="45.93969" lon="4.8028">
        <ele>202</ele>
        <time>2017-06-20T08:56:14Z</time>
      </trkpt>
      <trkpt lat="45.93971" lon="4.80286">
        <ele>202</ele>
        <time>2017-06-20T08:56:15Z</time>
      </trkpt>
      <trkpt lat="45.93973" lon="4.80292">
        <ele>203</ele>
        <time>2017-06-20T08:56:16Z</time>
      </trkpt>
      <trkpt lat="45.93977" lon="4.80303">
        <ele>203</ele>
        <time>2017-06-20T08:56:18Z</time>
      </trkpt>
      <trkpt lat="45.93978" lon="4.80309">
        <ele>203</ele>
        <time>2017-06-20T08:56:19Z</time>
      </trkpt>
      <trkpt lat="45.93982" lon="4.80321">
        <ele>203</ele>
        <time>2017-06-20T08:56:21Z</time>
      </trkpt>
      <trkpt lat="45.93983" lon="4.80326">
        <ele>204</ele>
        <time>2017-06-20T08:56:22Z</time>
      </trkpt>
      <trkpt lat="45.93986" lon="4.80336">
        <ele>206</ele>
        <time>2017-06-20T08:56:24Z</time>
      </trkpt>
      <trkpt lat="45.93988" lon="4.80341">
        <ele>206</ele>
        <time>2017-06-20T08:56:25Z</time>
      </trkpt>
      <trkpt lat="45.93991" lon="4.8035">
        <ele>206</ele>
        <time>2017-06-20T08:56:27Z</time>
      </trkpt>
      <trkpt lat="45.93992" lon="4.80355">
        <ele>206</ele>
        <time>2017-06-20T08:56:28Z</time>
      </trkpt>
      <trkpt lat="45.93994" lon="4.80364">
        <ele>207</ele>
        <time>2017-06-20T08:56:30Z</time>
      </trkpt>
      <trkpt lat="45.93995" lon="4.80368">
        <ele>207</ele>
        <time>2017-06-20T08:56:31Z</time>
      </trkpt>
      <trkpt lat="45.93999" lon="4.80378">
        <ele>208</ele>
        <time>2017-06-20T08:56:34Z</time>
      </trkpt>
      <trkpt lat="45.93999" lon="4.80382">
        <ele>208</ele>
        <time>2017-06-20T08:56:35Z</time>
      </trkpt>
      <trkpt lat="45.94002" lon="4.80394">
        <ele>217</ele>
        <time>2017-06-20T08:56:38Z</time>
      </trkpt>
      <trkpt lat="45.94002" lon="4.80397">
        <ele>217</ele>
        <time>2017-06-20T08:56:39Z</time>
      </trkpt>
      <trkpt lat="45.94005" lon="4.80406">
        <ele>217</ele>
        <time>2017-06-20T08:56:42Z</time>
      </trkpt>
      <trkpt lat="45.94006" lon="4.80409">
        <ele>217</ele>
        <time>2017-06-20T08:56:43Z</time>
      </trkpt>
      <trkpt lat="45.94008" lon="4.80419">
        <ele>219</ele>
        <time>2017-06-20T08:56:46Z</time>
      </trkpt>
      <trkpt lat="45.94009" lon="4.80421">
        <ele>219</ele>
        <time>2017-06-20T08:56:47Z</time>
      </trkpt>
      <trkpt lat="45.94011" lon="4.80432">
        <ele>221</ele>
        <time>2017-06-20T08:56:51Z</time>
      </trkpt>
      <trkpt lat="45.94012" lon="4.80436">
        <ele>221</ele>
        <time>2017-06-20T08:56:52Z</time>
      </trkpt>
      <trkpt lat="45.94013" lon="4.80446">
        <ele>222</ele>
        <time>2017-06-20T08:56:55Z</time>
      </trkpt>
      <trkpt lat="45.94013" lon="4.8045">
        <ele>222</ele>
        <time>2017-06-20T08:56:56Z</time>
      </trkpt>
      <trkpt lat="45.94013" lon="4.80459">
        <ele>223</ele>
        <time>2017-06-20T08:56:58Z</time>
      </trkpt>
      <trkpt lat="45.94014" lon="4.80463">
        <ele>223</ele>
        <time>2017-06-20T08:56:59Z</time>
      </trkpt>
      <trkpt lat="45.94014" lon="4.80475">
        <ele>223</ele>
        <time>2017-06-20T08:57:02Z</time>
      </trkpt>
      <trkpt lat="45.94014" lon="4.80478">
        <ele>223</ele>
        <time>2017-06-20T08:57:03Z</time>
      </trkpt>
      <trkpt lat="45.94014" lon="4.80489">
        <ele>222</ele>
        <time>2017-06-20T08:57:07Z</time>
      </trkpt>
      <trkpt lat="45.94015" lon="4.80492">
        <ele>222</ele>
        <time>2017-06-20T08:57:08Z</time>
      </trkpt>
      <trkpt lat="45.94016" lon="4.80502">
        <ele>222</ele>
        <time>2017-06-20T08:57:11Z</time>
      </trkpt>
      <trkpt lat="45.94015" lon="4.80505">
        <ele>222</ele>
        <time>2017-06-20T08:57:12Z</time>
      </trkpt>
      <trkpt lat="45.94014" lon="4.80514">
        <ele>223</ele>
        <time>2017-06-20T08:57:15Z</time>
      </trkpt>
      <trkpt lat="45.94014" lon="4.80518">
        <ele>223</ele>
        <time>2017-06-20T08:57:16Z</time>
      </trkpt>
      <trkpt lat="45.94014" lon="4.80527">
        <ele>224</ele>
        <time>2017-06-20T08:57:18Z</time>
      </trkpt>
      <trkpt lat="45.94014" lon="4.80531">
        <ele>224</ele>
        <time>2017-06-20T08:57:19Z</time>
      </trkpt>
      <trkpt lat="45.94016" lon="4.8054">
        <ele>224</ele>
        <time>2017-06-20T08:57:21Z</time>
      </trkpt>
      <trkpt lat="45.94017" lon="4.80544">
        <ele>224</ele>
        <time>2017-06-20T08:57:22Z</time>
      </trkpt>
      <trkpt lat="45.9402" lon="4.80554">
        <ele>224</ele>
        <time>2017-06-20T08:57:26Z</time>
      </trkpt>
      <trkpt lat="45.94021" lon="4.80556">
        <ele>224</ele>
        <time>2017-06-20T08:57:27Z</time>
      </trkpt>
      <trkpt lat="45.9402" lon="4.80567">
        <ele>224</ele>
        <time>2017-06-20T08:57:34Z</time>
      </trkpt>
      <trkpt lat="45.94018" lon="4.80569">
        <ele>223</ele>
        <time>2017-06-20T08:57:35Z</time>
      </trkpt>
      <trkpt lat="45.94016" lon="4.80572">
        <ele>223</ele>
        <time>2017-06-20T08:58:07Z</time>
      </trkpt>
      <trkpt lat="45.94017" lon="4.80572">
        <ele>223</ele>
        <time>2017-06-20T08:58:08Z</time>
      </trkpt>
      <trkpt lat="45.94016" lon="4.80584">
        <ele>222</ele>
        <time>2017-06-20T08:58:10Z</time>
      </trkpt>
      <trkpt lat="45.94015" lon="4.8059">
        <ele>222</ele>
        <time>2017-06-20T08:58:11Z</time>
      </trkpt>
      <trkpt lat="45.94014" lon="4.806">
        <ele>223</ele>
        <time>2017-06-20T08:58:13Z</time>
      </trkpt>
      <trkpt lat="45.94016" lon="4.80605">
        <ele>223</ele>
        <time>2017-06-20T08:58:14Z</time>
      </trkpt>
      <trkpt lat="45.94017" lon="4.80614">
        <ele>224</ele>
        <time>2017-06-20T08:58:16Z</time>
      </trkpt>
      <trkpt lat="45.94018" lon="4.80619">
        <ele>224</ele>
        <time>2017-06-20T08:58:17Z</time>
      </trkpt>
      <trkpt lat="45.9402" lon="4.80627">
        <ele>224</ele>
        <time>2017-06-20T08:58:19Z</time>
      </trkpt>
      <trkpt lat="45.94021" lon="4.80632">
        <ele>224</ele>
        <time>2017-06-20T08:58:20Z</time>
      </trkpt>
      <trkpt lat="45.94024" lon="4.80643">
        <ele>224</ele>
        <time>2017-06-20T08:58:23Z</time>
      </trkpt>
      <trkpt lat="45.94025" lon="4.80648">
        <ele>224</ele>
        <time>2017-06-20T08:58:24Z</time>
      </trkpt>
      <trkpt lat="45.94027" lon="4.80655">
        <ele>224</ele>
        <time>2017-06-20T08:58:26Z</time>
      </trkpt>
      <trkpt lat="45.94028" lon="4.8066">
        <ele>224</ele>
        <time>2017-06-20T08:58:27Z</time>
      </trkpt>
      <trkpt lat="45.9403" lon="4.80671">
        <ele>224</ele>
        <time>2017-06-20T08:58:30Z</time>
      </trkpt>
      <trkpt lat="45.94031" lon="4.80676">
        <ele>225</ele>
        <time>2017-06-20T08:58:31Z</time>
      </trkpt>
      <trkpt lat="45.94032" lon="4.80687">
        <ele>225</ele>
        <time>2017-06-20T08:58:34Z</time>
      </trkpt>
      <trkpt lat="45.94033" lon="4.8069">
        <ele>225</ele>
        <time>2017-06-20T08:58:35Z</time>
      </trkpt>
      <trkpt lat="45.94033" lon="4.80702">
        <ele>226</ele>
        <time>2017-06-20T08:58:38Z</time>
      </trkpt>
      <trkpt lat="45.94034" lon="4.80706">
        <ele>226</ele>
        <time>2017-06-20T08:58:39Z</time>
      </trkpt>
      <trkpt lat="45.94035" lon="4.80717">
        <ele>226</ele>
        <time>2017-06-20T08:58:42Z</time>
      </trkpt>
      <trkpt lat="45.94036" lon="4.80721">
        <ele>226</ele>
        <time>2017-06-20T08:58:43Z</time>
      </trkpt>
      <trkpt lat="45.94037" lon="4.80731">
        <ele>226</ele>
        <time>2017-06-20T08:58:46Z</time>
      </trkpt>
      <trkpt lat="45.94038" lon="4.80736">
        <ele>226</ele>
        <time>2017-06-20T08:58:47Z</time>
      </trkpt>
      <trkpt lat="45.94037" lon="4.80745">
        <ele>226</ele>
        <time>2017-06-20T08:58:49Z</time>
      </trkpt>
      <trkpt lat="45.94035" lon="4.80749">
        <ele>226</ele>
        <time>2017-06-20T08:58:50Z</time>
      </trkpt>
      <trkpt lat="45.94035" lon="4.80758">
        <ele>227</ele>
        <time>2017-06-20T08:58:52Z</time>
      </trkpt>
      <trkpt lat="45.94036" lon="4.80764">
        <ele>227</ele>
        <time>2017-06-20T08:58:53Z</time>
      </trkpt>
      <trkpt lat="45.94036" lon="4.80773">
        <ele>227</ele>
        <time>2017-06-20T08:58:55Z</time>
      </trkpt>
      <trkpt lat="45.94036" lon="4.80777">
        <ele>227</ele>
        <time>2017-06-20T08:58:56Z</time>
      </trkpt>
      <trkpt lat="45.94036" lon="4.80789">
        <ele>227</ele>
        <time>2017-06-20T08:58:59Z</time>
      </trkpt>
      <trkpt lat="45.94037" lon="4.80792">
        <ele>227</ele>
        <time>2017-06-20T08:59:00Z</time>
      </trkpt>
      <trkpt lat="45.94039" lon="4.80805">
        <ele>228</ele>
        <time>2017-06-20T08:59:03Z</time>
      </trkpt>
      <trkpt lat="45.94039" lon="4.80809">
        <ele>228</ele>
        <time>2017-06-20T08:59:04Z</time>
      </trkpt>
      <trkpt lat="45.94043" lon="4.80819">
        <ele>228</ele>
        <time>2017-06-20T08:59:07Z</time>
      </trkpt>
      <trkpt lat="45.94044" lon="4.80823">
        <ele>229</ele>
        <time>2017-06-20T08:59:08Z</time>
      </trkpt>
      <trkpt lat="45.94047" lon="4.80831">
        <ele>229</ele>
        <time>2017-06-20T08:59:10Z</time>
      </trkpt>
      <trkpt lat="45.94048" lon="4.80835">
        <ele>230</ele>
        <time>2017-06-20T08:59:11Z</time>
      </trkpt>
      <trkpt lat="45.94049" lon="4.80846">
        <ele>230</ele>
        <time>2017-06-20T08:59:14Z</time>
      </trkpt>
      <trkpt lat="45.9405" lon="4.80851">
        <ele>230</ele>
        <time>2017-06-20T08:59:15Z</time>
      </trkpt>
      <trkpt lat="45.94052" lon="4.80863">
        <ele>230</ele>
        <time>2017-06-20T08:59:18Z</time>
      </trkpt>
      <trkpt lat="45.94053" lon="4.80866">
        <ele>230</ele>
        <time>2017-06-20T08:59:19Z</time>
      </trkpt>
      <trkpt lat="45.94055" lon="4.80876">
        <ele>230</ele>
        <time>2017-06-20T08:59:22Z</time>
      </trkpt>
      <trkpt lat="45.94055" lon="4.80879">
        <ele>230</ele>
        <time>2017-06-20T08:59:23Z</time>
      </trkpt>
      <trkpt lat="45.94056" lon="4.80888">
        <ele>230</ele>
        <time>2017-06-20T08:59:26Z</time>
      </trkpt>
      <trkpt lat="45.94057" lon="4.80893">
        <ele>231</ele>
        <time>2017-06-20T08:59:27Z</time>
      </trkpt>
      <trkpt lat="45.94058" lon="4.80904">
        <ele>231</ele>
        <time>2017-06-20T08:59:30Z</time>
      </trkpt>
      <trkpt lat="45.94059" lon="4.80907">
        <ele>232</ele>
        <time>2017-06-20T08:59:31Z</time>
      </trkpt>
      <trkpt lat="45.94059" lon="4.80918">
        <ele>232</ele>
        <time>2017-06-20T08:59:35Z</time>
      </trkpt>
      <trkpt lat="45.9406" lon="4.80921">
        <ele>233</ele>
        <time>2017-06-20T08:59:36Z</time>
      </trkpt>
      <trkpt lat="45.94061" lon="4.80932">
        <ele>232</ele>
        <time>2017-06-20T08:59:40Z</time>
      </trkpt>
      <trkpt lat="45.94061" lon="4.80935">
        <ele>232</ele>
        <time>2017-06-20T08:59:41Z</time>
      </trkpt>
      <trkpt lat="45.94064" lon="4.80946">
        <ele>232</ele>
        <time>2017-06-20T08:59:44Z</time>
      </trkpt>
      <trkpt lat="45.94065" lon="4.80949">
        <ele>232</ele>
        <time>2017-06-20T08:59:45Z</time>
      </trkpt>
      <trkpt lat="45.94066" lon="4.80961">
        <ele>232</ele>
        <time>2017-06-20T08:59:49Z</time>
      </trkpt>
      <trkpt lat="45.94066" lon="4.80964">
        <ele>232</ele>
        <time>2017-06-20T08:59:50Z</time>
      </trkpt>
      <trkpt lat="45.94067" lon="4.80976">
        <ele>233</ele>
        <time>2017-06-20T08:59:54Z</time>
      </trkpt>
      <trkpt lat="45.94068" lon="4.80979">
        <ele>233</ele>
        <time>2017-06-20T08:59:55Z</time>
      </trkpt>
      <trkpt lat="45.9407" lon="4.80991">
        <ele>235</ele>
        <time>2017-06-20T09:00:00Z</time>
      </trkpt>
      <trkpt lat="45.94071" lon="4.80993">
        <ele>235</ele>
        <time>2017-06-20T09:00:01Z</time>
      </trkpt>
      <trkpt lat="45.94073" lon="4.81005">
        <ele>236</ele>
        <time>2017-06-20T09:00:05Z</time>
      </trkpt>
      <trkpt lat="45.94074" lon="4.81008">
        <ele>236</ele>
        <time>2017-06-20T09:00:06Z</time>
      </trkpt>
      <trkpt lat="45.94075" lon="4.81021">
        <ele>235</ele>
        <time>2017-06-20T09:00:10Z</time>
      </trkpt>
      <trkpt lat="45.94076" lon="4.81024">
        <ele>234</ele>
        <time>2017-06-20T09:00:11Z</time>
      </trkpt>
      <trkpt lat="45.94079" lon="4.81034">
        <ele>234</ele>
        <time>2017-06-20T09:00:15Z</time>
      </trkpt>
      <trkpt lat="45.9408" lon="4.81037">
        <ele>234</ele>
        <time>2017-06-20T09:00:16Z</time>
      </trkpt>
      <trkpt lat="45.94082" lon="4.81049">
        <ele>233</ele>
        <time>2017-06-20T09:00:19Z</time>
      </trkpt>
      <trkpt lat="45.94083" lon="4.81053">
        <ele>234</ele>
        <time>2017-06-20T09:00:20Z</time>
      </trkpt>
      <trkpt lat="45.94087" lon="4.81062">
        <ele>242</ele>
        <time>2017-06-20T09:00:23Z</time>
      </trkpt>
      <trkpt lat="45.94088" lon="4.81065">
        <ele>242</ele>
        <time>2017-06-20T09:00:24Z</time>
      </trkpt>
      <trkpt lat="45.94091" lon="4.81075">
        <ele>241</ele>
        <time>2017-06-20T09:00:28Z</time>
      </trkpt>
      <trkpt lat="45.94093" lon="4.81077">
        <ele>240</ele>
        <time>2017-06-20T09:00:29Z</time>
      </trkpt>
      <trkpt lat="45.94098" lon="4.81087">
        <ele>240</ele>
        <time>2017-06-20T09:00:33Z</time>
      </trkpt>
      <trkpt lat="45.94099" lon="4.81089">
        <ele>240</ele>
        <time>2017-06-20T09:00:34Z</time>
      </trkpt>
      <trkpt lat="45.94104" lon="4.81099">
        <ele>241</ele>
        <time>2017-06-20T09:00:38Z</time>
      </trkpt>
      <trkpt lat="45.94104" lon="4.81102">
        <ele>241</ele>
        <time>2017-06-20T09:00:39Z</time>
      </trkpt>
      <trkpt lat="45.9411" lon="4.8111">
        <ele>242</ele>
        <time>2017-06-20T09:00:43Z</time>
      </trkpt>
      <trkpt lat="45.94111" lon="4.81112">
        <ele>242</ele>
        <time>2017-06-20T09:00:44Z</time>
      </trkpt>
      <trkpt lat="45.94114" lon="4.81122">
        <ele>242</ele>
        <time>2017-06-20T09:00:47Z</time>
      </trkpt>
      <trkpt lat="45.94115" lon="4.81124">
        <ele>242</ele>
        <time>2017-06-20T09:00:48Z</time>
      </trkpt>
      <trkpt lat="45.9412" lon="4.81134">
        <ele>243</ele>
        <time>2017-06-20T09:00:53Z</time>
      </trkpt>
      <trkpt lat="45.94121" lon="4.81136">
        <ele>243</ele>
        <time>2017-06-20T09:00:54Z</time>
      </trkpt>
      <trkpt lat="45.94126" lon="4.81146">
        <ele>243</ele>
        <time>2017-06-20T09:00:59Z</time>
      </trkpt>
      <trkpt lat="45.94128" lon="4.81149">
        <ele>243</ele>
        <time>2017-06-20T09:01:00Z</time>
      </trkpt>
      <trkpt lat="45.94131" lon="4.8116">
        <ele>243</ele>
        <time>2017-06-20T09:01:04Z</time>
      </trkpt>
      <trkpt lat="45.94133" lon="4.81163">
        <ele>243</ele>
        <time>2017-06-20T09:01:05Z</time>
      </trkpt>
      <trkpt lat="45.94136" lon="4.81173">
        <ele>243</ele>
        <time>2017-06-20T09:01:09Z</time>
      </trkpt>
      <trkpt lat="45.94137" lon="4.81175">
        <ele>243</ele>
        <time>2017-06-20T09:01:10Z</time>
      </trkpt>
      <trkpt lat="45.94141" lon="4.81184">
        <ele>244</ele>
        <time>2017-06-20T09:01:14Z</time>
      </trkpt>
      <trkpt lat="45.94142" lon="4.81188">
        <ele>244</ele>
        <time>2017-06-20T09:01:15Z</time>
      </trkpt>
      <trkpt lat="45.94146" lon="4.81196">
        <ele>244</ele>
        <time>2017-06-20T09:01:18Z</time>
      </trkpt>
      <trkpt lat="45.94147" lon="4.81199">
        <ele>244</ele>
        <time>2017-06-20T09:01:19Z</time>
      </trkpt>
      <trkpt lat="45.9415" lon="4.81209">
        <ele>244</ele>
        <time>2017-06-20T09:01:22Z</time>
      </trkpt>
      <trkpt lat="45.9415" lon="4.81211">
        <ele>244</ele>
        <time>2017-06-20T09:01:23Z</time>
      </trkpt>
      <trkpt lat="45.94153" lon="4.81223">
        <ele>245</ele>
        <time>2017-06-20T09:01:27Z</time>
      </trkpt>
      <trkpt lat="45.94154" lon="4.81226">
        <ele>245</ele>
        <time>2017-06-20T09:01:28Z</time>
      </trkpt>
      <trkpt lat="45.94156" lon="4.81236">
        <ele>246</ele>
        <time>2017-06-20T09:01:32Z</time>
      </trkpt>
      <trkpt lat="45.94157" lon="4.8124">
        <ele>247</ele>
        <time>2017-06-20T09:01:33Z</time>
      </trkpt>
      <trkpt lat="45.9416" lon="4.81252">
        <ele>249</ele>
        <time>2017-06-20T09:01:37Z</time>
      </trkpt>
      <trkpt lat="45.9416" lon="4.81254">
        <ele>249</ele>
        <time>2017-06-20T09:01:38Z</time>
      </trkpt>
      <trkpt lat="45.94162" lon="4.81265">
        <ele>248</ele>
        <time>2017-06-20T09:01:42Z</time>
      </trkpt>
      <trkpt lat="45.94162" lon="4.81268">
        <ele>248</ele>
        <time>2017-06-20T09:01:43Z</time>
      </trkpt>
      <trkpt lat="45.94164" lon="4.81281">
        <ele>247</ele>
        <time>2017-06-20T09:01:47Z</time>
      </trkpt>
      <trkpt lat="45.94164" lon="4.81285">
        <ele>247</ele>
        <time>2017-06-20T09:01:48Z</time>
      </trkpt>
      <trkpt lat="45.94164" lon="4.81294">
        <ele>247</ele>
        <time>2017-06-20T09:01:51Z</time>
      </trkpt>
      <trkpt lat="45.94165" lon="4.81298">
        <ele>247</ele>
        <time>2017-06-20T09:01:52Z</time>
      </trkpt>
      <trkpt lat="45.94167" lon="4.81307">
        <ele>248</ele>
        <time>2017-06-20T09:01:56Z</time>
      </trkpt>
      <trkpt lat="45.94167" lon="4.8131">
        <ele>255</ele>
        <time>2017-06-20T09:01:57Z</time>
      </trkpt>
      <trkpt lat="45.94167" lon="4.81322">
        <ele>254</ele>
        <time>2017-06-20T09:02:02Z</time>
      </trkpt>
      <trkpt lat="45.94167" lon="4.81324">
        <ele>250</ele>
        <time>2017-06-20T09:02:03Z</time>
      </trkpt>
      <trkpt lat="45.94163" lon="4.81334">
        <ele>252</ele>
        <time>2017-06-20T09:02:08Z</time>
      </trkpt>
      <trkpt lat="45.94163" lon="4.81337">
        <ele>251</ele>
        <time>2017-06-20T09:02:09Z</time>
      </trkpt>
      <trkpt lat="45.94163" lon="4.8135">
        <ele>251</ele>
        <time>2017-06-20T09:02:14Z</time>
      </trkpt>
      <trkpt lat="45.94163" lon="4.81352">
        <ele>251</ele>
        <time>2017-06-20T09:02:15Z</time>
      </trkpt>
      <trkpt lat="45.94159" lon="4.81363">
        <ele>250</ele>
        <time>2017-06-20T09:02:20Z</time>
      </trkpt>
      <trkpt lat="45.94159" lon="4.81365">
        <ele>250</ele>
        <time>2017-06-20T09:02:21Z</time>
      </trkpt>
      <trkpt lat="45.94157" lon="4.81377">
        <ele>251</ele>
        <time>2017-06-20T09:02:27Z</time>
      </trkpt>
      <trkpt lat="45.94156" lon="4.8138">
        <ele>251</ele>
        <time>2017-06-20T09:02:28Z</time>
      </trkpt>
      <trkpt lat="45.94154" lon="4.81392">
        <ele>251</ele>
        <time>2017-06-20T09:02:33Z</time>
      </trkpt>
      <trkpt lat="45.94154" lon="4.81395">
        <ele>252</ele>
        <time>2017-06-20T09:02:34Z</time>
      </trkpt>
      <trkpt lat="45.94154" lon="4.81407">
        <ele>253</ele>
        <time>2017-06-20T09:02:38Z</time>
      </trkpt>
      <trkpt lat="45.94154" lon="4.81409">
        <ele>253</ele>
        <time>2017-06-20T09:02:39Z</time>
      </trkpt>
      <trkpt lat="45.94153" lon="4.8142">
        <ele>256</ele>
        <time>2017-06-20T09:02:43Z</time>
      </trkpt>
      <trkpt lat="45.94152" lon="4.81422">
        <ele>256</ele>
        <time>2017-06-20T09:02:44Z</time>
      </trkpt>
      <trkpt lat="45.94152" lon="4.81434">
        <ele>256</ele>
        <time>2017-06-20T09:02:48Z</time>
      </trkpt>
      <trkpt lat="45.94152" lon="4.81436">
        <ele>256</ele>
        <time>2017-06-20T09:02:49Z</time>
      </trkpt>
      <trkpt lat="45.94151" lon="4.81448">
        <ele>256</ele>
        <time>2017-06-20T09:02:54Z</time>
      </trkpt>
      <trkpt lat="45.94151" lon="4.8145">
        <ele>257</ele>
        <time>2017-06-20T09:02:55Z</time>
      </trkpt>
      <trkpt lat="45.94151" lon="4.81463">
        <ele>257</ele>
        <time>2017-06-20T09:03:00Z</time>
      </trkpt>
      <trkpt lat="45.94151" lon="4.81466">
        <ele>257</ele>
        <time>2017-06-20T09:03:01Z</time>
      </trkpt>
      <trkpt lat="45.94153" lon="4.81477">
        <ele>258</ele>
        <time>2017-06-20T09:03:03Z</time>
      </trkpt>
      <trkpt lat="45.94152" lon="4.81479">
        <ele>259</ele>
        <time>2017-06-20T09:03:04Z</time>
      </trkpt>
      <trkpt lat="45.94152" lon="4.81491">
        <ele>260</ele>
        <time>2017-06-20T09:03:09Z</time>
      </trkpt>
      <trkpt lat="45.94153" lon="4.81494">
        <ele>260</ele>
        <time>2017-06-20T09:03:10Z</time>
      </trkpt>
      <trkpt lat="45.94153" lon="4.81506">
        <ele>263</ele>
        <time>2017-06-20T09:03:17Z</time>
      </trkpt>
      <trkpt lat="45.94152" lon="4.81508">
        <ele>263</ele>
        <time>2017-06-20T09:03:18Z</time>
      </trkpt>
      <trkpt lat="45.94154" lon="4.81516">
        <ele>263</ele>
        <time>2017-06-20T09:03:22Z</time>
      </trkpt>
      <trkpt lat="45.94156" lon="4.81527">
        <ele>263</ele>
        <time>2017-06-20T09:03:23Z</time>
      </trkpt>
      <trkpt lat="45.94159" lon="4.81538">
        <ele>264</ele>
        <time>2017-06-20T09:03:26Z</time>
      </trkpt>
      <trkpt lat="45.94161" lon="4.81545">
        <ele>264</ele>
        <time>2017-06-20T09:03:27Z</time>
      </trkpt>
      <trkpt lat="45.94164" lon="4.81556">
        <ele>265</ele>
        <time>2017-06-20T09:03:30Z</time>
      </trkpt>
      <trkpt lat="45.94164" lon="4.8156">
        <ele>265</ele>
        <time>2017-06-20T09:03:31Z</time>
      </trkpt>
      <trkpt lat="45.94164" lon="4.81571">
        <ele>266</ele>
        <time>2017-06-20T09:03:34Z</time>
      </trkpt>
      <trkpt lat="45.94166" lon="4.81576">
        <ele>266</ele>
        <time>2017-06-20T09:03:35Z</time>
      </trkpt>
      <trkpt lat="45.94166" lon="4.81587">
        <ele>267</ele>
        <time>2017-06-20T09:03:38Z</time>
      </trkpt>
      <trkpt lat="45.94165" lon="4.81597">
        <ele>267</ele>
        <time>2017-06-20T09:03:39Z</time>
      </trkpt>
      <trkpt lat="45.94166" lon="4.81607">
        <ele>267</ele>
        <time>2017-06-20T09:03:41Z</time>
      </trkpt>
      <trkpt lat="45.94166" lon="4.81612">
        <ele>267</ele>
        <time>2017-06-20T09:03:42Z</time>
      </trkpt>
      <trkpt lat="45.94169" lon="4.81622">
        <ele>267</ele>
        <time>2017-06-20T09:03:45Z</time>
      </trkpt>
      <trkpt lat="45.9417" lon="4.81626">
        <ele>267</ele>
        <time>2017-06-20T09:03:46Z</time>
      </trkpt>
      <trkpt lat="45.94173" lon="4.81637">
        <ele>268</ele>
        <time>2017-06-20T09:03:49Z</time>
      </trkpt>
      <trkpt lat="45.94174" lon="4.81641">
        <ele>268</ele>
        <time>2017-06-20T09:03:50Z</time>
      </trkpt>
      <trkpt lat="45.94176" lon="4.8165">
        <ele>268</ele>
        <time>2017-06-20T09:03:52Z</time>
      </trkpt>
      <trkpt lat="45.94176" lon="4.81654">
        <ele>268</ele>
        <time>2017-06-20T09:03:53Z</time>
      </trkpt>
      <trkpt lat="45.94179" lon="4.81664">
        <ele>268</ele>
        <time>2017-06-20T09:03:56Z</time>
      </trkpt>
      <trkpt lat="45.9418" lon="4.81668">
        <ele>268</ele>
        <time>2017-06-20T09:03:57Z</time>
      </trkpt>
      <trkpt lat="45.94185" lon="4.81678">
        <ele>267</ele>
        <time>2017-06-20T09:04:00Z</time>
      </trkpt>
      <trkpt lat="45.94185" lon="4.81681">
        <ele>267</ele>
        <time>2017-06-20T09:04:01Z</time>
      </trkpt>
      <trkpt lat="45.94187" lon="4.81691">
        <ele>267</ele>
        <time>2017-06-20T09:04:04Z</time>
      </trkpt>
      <trkpt lat="45.94186" lon="4.81697">
        <ele>267</ele>
        <time>2017-06-20T09:04:05Z</time>
      </trkpt>
      <trkpt lat="45.94188" lon="4.81706">
        <ele>267</ele>
        <time>2017-06-20T09:04:07Z</time>
      </trkpt>
      <trkpt lat="45.94188" lon="4.81711">
        <ele>267</ele>
        <time>2017-06-20T09:04:08Z</time>
      </trkpt>
      <trkpt lat="45.9419" lon="4.81721">
        <ele>267</ele>
        <time>2017-06-20T09:04:10Z</time>
      </trkpt>
      <trkpt lat="45.94192" lon="4.81725">
        <ele>267</ele>
        <time>2017-06-20T09:04:11Z</time>
      </trkpt>
      <trkpt lat="45.94195" lon="4.81733">
        <ele>266</ele>
        <time>2017-06-20T09:04:13Z</time>
      </trkpt>
      <trkpt lat="45.94197" lon="4.81737">
        <ele>266</ele>
        <time>2017-06-20T09:04:14Z</time>
      </trkpt>
      <trkpt lat="45.942" lon="4.81745">
        <ele>266</ele>
        <time>2017-06-20T09:04:16Z</time>
      </trkpt>
      <trkpt lat="45.94202" lon="4.8175">
        <ele>266</ele>
        <time>2017-06-20T09:04:17Z</time>
      </trkpt>
      <trkpt lat="45.94206" lon="4.81761">
        <ele>265</ele>
        <time>2017-06-20T09:04:20Z</time>
      </trkpt>
      <trkpt lat="45.94207" lon="4.81765">
        <ele>265</ele>
        <time>2017-06-20T09:04:21Z</time>
      </trkpt>
      <trkpt lat="45.94209" lon="4.81775">
        <ele>265</ele>
        <time>2017-06-20T09:04:23Z</time>
      </trkpt>
      <trkpt lat="45.9421" lon="4.81779">
        <ele>265</ele>
        <time>2017-06-20T09:04:24Z</time>
      </trkpt>
      <trkpt lat="45.94212" lon="4.8179">
        <ele>265</ele>
        <time>2017-06-20T09:04:27Z</time>
      </trkpt>
      <trkpt lat="45.94212" lon="4.81793">
        <ele>265</ele>
        <time>2017-06-20T09:04:28Z</time>
      </trkpt>
      <trkpt lat="45.94211" lon="4.81804">
        <ele>265</ele>
        <time>2017-06-20T09:04:31Z</time>
      </trkpt>
      <trkpt lat="45.94209" lon="4.81809">
        <ele>266</ele>
        <time>2017-06-20T09:04:32Z</time>
      </trkpt>
      <trkpt lat="45.94209" lon="4.81822">
        <ele>266</ele>
        <time>2017-06-20T09:04:35Z</time>
      </trkpt>
      <trkpt lat="45.94207" lon="4.81829">
        <ele>266</ele>
        <time>2017-06-20T09:04:36Z</time>
      </trkpt>
      <trkpt lat="45.94209" lon="4.8184">
        <ele>265</ele>
        <time>2017-06-20T09:04:39Z</time>
      </trkpt>
      <trkpt lat="45.9421" lon="4.81844">
        <ele>265</ele>
        <time>2017-06-20T09:04:40Z</time>
      </trkpt>
      <trkpt lat="45.94207" lon="4.81856">
        <ele>265</ele>
        <time>2017-06-20T09:04:42Z</time>
      </trkpt>
      <trkpt lat="45.94208" lon="4.8186">
        <ele>265</ele>
        <time>2017-06-20T09:04:43Z</time>
      </trkpt>
      <trkpt lat="45.94208" lon="4.81873">
        <ele>265</ele>
        <time>2017-06-20T09:04:46Z</time>
      </trkpt>
      <trkpt lat="45.94209" lon="4.81877">
        <ele>265</ele>
        <time>2017-06-20T09:04:47Z</time>
      </trkpt>
      <trkpt lat="45.94212" lon="4.81889">
        <ele>265</ele>
        <time>2017-06-20T09:04:50Z</time>
      </trkpt>
      <trkpt lat="45.94212" lon="4.81893">
        <ele>265</ele>
        <time>2017-06-20T09:04:51Z</time>
      </trkpt>
      <trkpt lat="45.94214" lon="4.81901">
        <ele>265</ele>
        <time>2017-06-20T09:04:53Z</time>
      </trkpt>
      <trkpt lat="45.94215" lon="4.81905">
        <ele>265</ele>
        <time>2017-06-20T09:04:54Z</time>
      </trkpt>
      <trkpt lat="45.94217" lon="4.81914">
        <ele>265</ele>
        <time>2017-06-20T09:04:56Z</time>
      </trkpt>
      <trkpt lat="45.94218" lon="4.81919">
        <ele>264</ele>
        <time>2017-06-20T09:04:57Z</time>
      </trkpt>
      <trkpt lat="45.9422" lon="4.81927">
        <ele>264</ele>
        <time>2017-06-20T09:04:59Z</time>
      </trkpt>
      <trkpt lat="45.94221" lon="4.81932">
        <ele>264</ele>
        <time>2017-06-20T09:05:00Z</time>
      </trkpt>
      <trkpt lat="45.94223" lon="4.81943">
        <ele>264</ele>
        <time>2017-06-20T09:05:02Z</time>
      </trkpt>
      <trkpt lat="45.94225" lon="4.81948">
        <ele>264</ele>
        <time>2017-06-20T09:05:03Z</time>
      </trkpt>
      <trkpt lat="45.94227" lon="4.81959">
        <ele>264</ele>
        <time>2017-06-20T09:05:05Z</time>
      </trkpt>
      <trkpt lat="45.94228" lon="4.81965">
        <ele>264</ele>
        <time>2017-06-20T09:05:06Z</time>
      </trkpt>
      <trkpt lat="45.9423" lon="4.81977">
        <ele>264</ele>
        <time>2017-06-20T09:05:08Z</time>
      </trkpt>
      <trkpt lat="45.94232" lon="4.81982">
        <ele>263</ele>
        <time>2017-06-20T09:05:09Z</time>
      </trkpt>
      <trkpt lat="45.94234" lon="4.81993">
        <ele>263</ele>
        <time>2017-06-20T09:05:11Z</time>
      </trkpt>
      <trkpt lat="45.94235" lon="4.81998">
        <ele>263</ele>
        <time>2017-06-20T09:05:12Z</time>
      </trkpt>
      <trkpt lat="45.94238" lon="4.82008">
        <ele>263</ele>
        <time>2017-06-20T09:05:14Z</time>
      </trkpt>
      <trkpt lat="45.94239" lon="4.82014">
        <ele>263</ele>
        <time>2017-06-20T09:05:15Z</time>
      </trkpt>
      <trkpt lat="45.94242" lon="4.82024">
        <ele>263</ele>
        <time>2017-06-20T09:05:17Z</time>
      </trkpt>
      <trkpt lat="45.94243" lon="4.8203">
        <ele>263</ele>
        <time>2017-06-20T09:05:18Z</time>
      </trkpt>
      <trkpt lat="45.94244" lon="4.82037">
        <ele>263</ele>
        <time>2017-06-20T09:05:19Z</time>
      </trkpt>
      <trkpt lat="45.94245" lon="4.82043">
        <ele>263</ele>
        <time>2017-06-20T09:05:20Z</time>
      </trkpt>
      <trkpt lat="45.94247" lon="4.8205">
        <ele>263</ele>
        <time>2017-06-20T09:05:21Z</time>
      </trkpt>
      <trkpt lat="45.94248" lon="4.82056">
        <ele>263</ele>
        <time>2017-06-20T09:05:22Z</time>
      </trkpt>
      <trkpt lat="45.9425" lon="4.82067">
        <ele>262</ele>
        <time>2017-06-20T09:05:24Z</time>
      </trkpt>
      <trkpt lat="45.94251" lon="4.82073">
        <ele>262</ele>
        <time>2017-06-20T09:05:25Z</time>
      </trkpt>
      <trkpt lat="45.94253" lon="4.82084">
        <ele>262</ele>
        <time>2017-06-20T09:05:27Z</time>
      </trkpt>
      <trkpt lat="45.94254" lon="4.82089">
        <ele>262</ele>
        <time>2017-06-20T09:05:28Z</time>
      </trkpt>
      <trkpt lat="45.94257" lon="4.821">
        <ele>262</ele>
        <time>2017-06-20T09:05:30Z</time>
      </trkpt>
      <trkpt lat="45.94258" lon="4.82105">
        <ele>262</ele>
        <time>2017-06-20T09:05:31Z</time>
      </trkpt>
      <trkpt lat="45.9426" lon="4.82115">
        <ele>263</ele>
        <time>2017-06-20T09:05:33Z</time>
      </trkpt>
      <trkpt lat="45.94262" lon="4.82122">
        <ele>263</ele>
        <time>2017-06-20T09:05:34Z</time>
      </trkpt>
      <trkpt lat="45.94265" lon="4.82133">
        <ele>263</ele>
        <time>2017-06-20T09:05:36Z</time>
      </trkpt>
      <trkpt lat="45.94266" lon="4.82139">
        <ele>263</ele>
        <time>2017-06-20T09:05:37Z</time>
      </trkpt>
      <trkpt lat="45.94268" lon="4.82151">
        <ele>263</ele>
        <time>2017-06-20T09:05:39Z</time>
      </trkpt>
      <trkpt lat="45.94269" lon="4.82157">
        <ele>263</ele>
        <time>2017-06-20T09:05:40Z</time>
      </trkpt>
      <trkpt lat="45.94272" lon="4.82168">
        <ele>264</ele>
        <time>2017-06-20T09:05:42Z</time>
      </trkpt>
      <trkpt lat="45.94273" lon="4.82174">
        <ele>264</ele>
        <time>2017-06-20T09:05:43Z</time>
      </trkpt>
      <trkpt lat="45.94275" lon="4.82184">
        <ele>264</ele>
        <time>2017-06-20T09:05:45Z</time>
      </trkpt>
      <trkpt lat="45.94276" lon="4.8219">
        <ele>264</ele>
        <time>2017-06-20T09:05:46Z</time>
      </trkpt>
      <trkpt lat="45.94279" lon="4.822">
        <ele>264</ele>
        <time>2017-06-20T09:05:48Z</time>
      </trkpt>
      <trkpt lat="45.9428" lon="4.82206">
        <ele>264</ele>
        <time>2017-06-20T09:05:49Z</time>
      </trkpt>
      <trkpt lat="45.94281" lon="4.82217">
        <ele>264</ele>
        <time>2017-06-20T09:05:51Z</time>
      </trkpt>
      <trkpt lat="45.94281" lon="4.82223">
        <ele>264</ele>
        <time>2017-06-20T09:05:52Z</time>
      </trkpt>
      <trkpt lat="45.94282" lon="4.82233">
        <ele>264</ele>
        <time>2017-06-20T09:05:54Z</time>
      </trkpt>
      <trkpt lat="45.94282" lon="4.82239">
        <ele>264</ele>
        <time>2017-06-20T09:05:55Z</time>
      </trkpt>
      <trkpt lat="45.94282" lon="4.82251">
        <ele>265</ele>
        <time>2017-06-20T09:05:57Z</time>
      </trkpt>
      <trkpt lat="45.94282" lon="4.82257">
        <ele>265</ele>
        <time>2017-06-20T09:05:58Z</time>
      </trkpt>
      <trkpt lat="45.94283" lon="4.82268">
        <ele>265</ele>
        <time>2017-06-20T09:06:00Z</time>
      </trkpt>
      <trkpt lat="45.94283" lon="4.82274">
        <ele>265</ele>
        <time>2017-06-20T09:06:01Z</time>
      </trkpt>
      <trkpt lat="45.94283" lon="4.82286">
        <ele>265</ele>
        <time>2017-06-20T09:06:03Z</time>
      </trkpt>
      <trkpt lat="45.94283" lon="4.82292">
        <ele>265</ele>
        <time>2017-06-20T09:06:04Z</time>
      </trkpt>
      <trkpt lat="45.94284" lon="4.82304">
        <ele>265</ele>
        <time>2017-06-20T09:06:06Z</time>
      </trkpt>
      <trkpt lat="45.94285" lon="4.82311">
        <ele>265</ele>
        <time>2017-06-20T09:06:07Z</time>
      </trkpt>
      <trkpt lat="45.94284" lon="4.82323">
        <ele>265</ele>
        <time>2017-06-20T09:06:09Z</time>
      </trkpt>
      <trkpt lat="45.94284" lon="4.82329">
        <ele>265</ele>
        <time>2017-06-20T09:06:10Z</time>
      </trkpt>
      <trkpt lat="45.94284" lon="4.82335">
        <ele>264</ele>
        <time>2017-06-20T09:06:11Z</time>
      </trkpt>
      <trkpt lat="45.94285" lon="4.82342">
        <ele>264</ele>
        <time>2017-06-20T09:06:12Z</time>
      </trkpt>
      <trkpt lat="45.94285" lon="4.82349">
        <ele>264</ele>
        <time>2017-06-20T09:06:13Z</time>
      </trkpt>
      <trkpt lat="45.94286" lon="4.82355">
        <ele>264</ele>
        <time>2017-06-20T09:06:14Z</time>
      </trkpt>
      <trkpt lat="45.94286" lon="4.82368">
        <ele>264</ele>
        <time>2017-06-20T09:06:16Z</time>
      </trkpt>
      <trkpt lat="45.94286" lon="4.82374">
        <ele>264</ele>
        <time>2017-06-20T09:06:17Z</time>
      </trkpt>
      <trkpt lat="45.94287" lon="4.82386">
        <ele>264</ele>
        <time>2017-06-20T09:06:19Z</time>
      </trkpt>
      <trkpt lat="45.94287" lon="4.82391">
        <ele>264</ele>
        <time>2017-06-20T09:06:20Z</time>
      </trkpt>
      <trkpt lat="45.94288" lon="4.82402">
        <ele>264</ele>
        <time>2017-06-20T09:06:22Z</time>
      </trkpt>
      <trkpt lat="45.94288" lon="4.82408">
        <ele>264</ele>
        <time>2017-06-20T09:06:23Z</time>
      </trkpt>
      <trkpt lat="45.94289" lon="4.82419">
        <ele>264</ele>
        <time>2017-06-20T09:06:25Z</time>
      </trkpt>
      <trkpt lat="45.94289" lon="4.82424">
        <ele>264</ele>
        <time>2017-06-20T09:06:26Z</time>
      </trkpt>
      <trkpt lat="45.9429" lon="4.82435">
        <ele>264</ele>
        <time>2017-06-20T09:06:28Z</time>
      </trkpt>
      <trkpt lat="45.9429" lon="4.82441">
        <ele>264</ele>
        <time>2017-06-20T09:06:29Z</time>
      </trkpt>
      <trkpt lat="45.94291" lon="4.82453">
        <ele>264</ele>
        <time>2017-06-20T09:06:31Z</time>
      </trkpt>
      <trkpt lat="45.94291" lon="4.82459">
        <ele>264</ele>
        <time>2017-06-20T09:06:32Z</time>
      </trkpt>
      <trkpt lat="45.94291" lon="4.8247">
        <ele>264</ele>
        <time>2017-06-20T09:06:34Z</time>
      </trkpt>
      <trkpt lat="45.94292" lon="4.82475">
        <ele>264</ele>
        <time>2017-06-20T09:06:35Z</time>
      </trkpt>
      <trkpt lat="45.94293" lon="4.82487">
        <ele>264</ele>
        <time>2017-06-20T09:06:37Z</time>
      </trkpt>
      <trkpt lat="45.94293" lon="4.82492">
        <ele>264</ele>
        <time>2017-06-20T09:06:38Z</time>
      </trkpt>
      <trkpt lat="45.94292" lon="4.82504">
        <ele>264</ele>
        <time>2017-06-20T09:06:40Z</time>
      </trkpt>
      <trkpt lat="45.94292" lon="4.82511">
        <ele>264</ele>
        <time>2017-06-20T09:06:41Z</time>
      </trkpt>
      <trkpt lat="45.94293" lon="4.82523">
        <ele>264</ele>
        <time>2017-06-20T09:06:43Z</time>
      </trkpt>
      <trkpt lat="45.94292" lon="4.82528">
        <ele>264</ele>
        <time>2017-06-20T09:06:44Z</time>
      </trkpt>
      <trkpt lat="45.94292" lon="4.82537">
        <ele>264</ele>
        <time>2017-06-20T09:06:46Z</time>
      </trkpt>
      <trkpt lat="45.94292" lon="4.82542">
        <ele>264</ele>
        <time>2017-06-20T09:06:47Z</time>
      </trkpt>
      <trkpt lat="45.94292" lon="4.82553">
        <ele>264</ele>
        <time>2017-06-20T09:06:49Z</time>
      </trkpt>
      <trkpt lat="45.94291" lon="4.82558">
        <ele>264</ele>
        <time>2017-06-20T09:06:50Z</time>
      </trkpt>
      <trkpt lat="45.94291" lon="4.82569">
        <ele>264</ele>
        <time>2017-06-20T09:06:52Z</time>
      </trkpt>
      <trkpt lat="45.94291" lon="4.82574">
        <ele>265</ele>
        <time>2017-06-20T09:06:53Z</time>
      </trkpt>
      <trkpt lat="45.94291" lon="4.82585">
        <ele>265</ele>
        <time>2017-06-20T09:06:55Z</time>
      </trkpt>
      <trkpt lat="45.94291" lon="4.8259">
        <ele>265</ele>
        <time>2017-06-20T09:06:56Z</time>
      </trkpt>
      <trkpt lat="45.94291" lon="4.82601">
        <ele>265</ele>
        <time>2017-06-20T09:06:58Z</time>
      </trkpt>
      <trkpt lat="45.94291" lon="4.82606">
        <ele>265</ele>
        <time>2017-06-20T09:06:59Z</time>
      </trkpt>
      <trkpt lat="45.94291" lon="4.82617">
        <ele>265</ele>
        <time>2017-06-20T09:07:01Z</time>
      </trkpt>
      <trkpt lat="45.94291" lon="4.82623">
        <ele>265</ele>
        <time>2017-06-20T09:07:02Z</time>
      </trkpt>
      <trkpt lat="45.94291" lon="4.82634">
        <ele>265</ele>
        <time>2017-06-20T09:07:04Z</time>
      </trkpt>
      <trkpt lat="45.9429" lon="4.8264">
        <ele>265</ele>
        <time>2017-06-20T09:07:05Z</time>
      </trkpt>
      <trkpt lat="45.9429" lon="4.82651">
        <ele>265</ele>
        <time>2017-06-20T09:07:07Z</time>
      </trkpt>
      <trkpt lat="45.9429" lon="4.82656">
        <ele>265</ele>
        <time>2017-06-20T09:07:08Z</time>
      </trkpt>
      <trkpt lat="45.9429" lon="4.82668">
        <ele>265</ele>
        <time>2017-06-20T09:07:10Z</time>
      </trkpt>
      <trkpt lat="45.9429" lon="4.82673">
        <ele>265</ele>
        <time>2017-06-20T09:07:11Z</time>
      </trkpt>
      <trkpt lat="45.9429" lon="4.82685">
        <ele>265</ele>
        <time>2017-06-20T09:07:13Z</time>
      </trkpt>
      <trkpt lat="45.9429" lon="4.82691">
        <ele>265</ele>
        <time>2017-06-20T09:07:14Z</time>
      </trkpt>
      <trkpt lat="45.94289" lon="4.82703">
        <ele>265</ele>
        <time>2017-06-20T09:07:16Z</time>
      </trkpt>
      <trkpt lat="45.94289" lon="4.8271">
        <ele>265</ele>
        <time>2017-06-20T09:07:17Z</time>
      </trkpt>
      <trkpt lat="45.94289" lon="4.82723">
        <ele>265</ele>
        <time>2017-06-20T09:07:19Z</time>
      </trkpt>
      <trkpt lat="45.94289" lon="4.82729">
        <ele>265</ele>
        <time>2017-06-20T09:07:20Z</time>
      </trkpt>
      <trkpt lat="45.9429" lon="4.82741">
        <ele>265</ele>
        <time>2017-06-20T09:07:22Z</time>
      </trkpt>
      <trkpt lat="45.9429" lon="4.82747">
        <ele>265</ele>
        <time>2017-06-20T09:07:23Z</time>
      </trkpt>
      <trkpt lat="45.9429" lon="4.82759">
        <ele>265</ele>
        <time>2017-06-20T09:07:25Z</time>
      </trkpt>
      <trkpt lat="45.9429" lon="4.82765">
        <ele>265</ele>
        <time>2017-06-20T09:07:26Z</time>
      </trkpt>
      <trkpt lat="45.9429" lon="4.82777">
        <ele>265</ele>
        <time>2017-06-20T09:07:28Z</time>
      </trkpt>
      <trkpt lat="45.9429" lon="4.82783">
        <ele>265</ele>
        <time>2017-06-20T09:07:29Z</time>
      </trkpt>
      <trkpt lat="45.9429" lon="4.82795">
        <ele>265</ele>
        <time>2017-06-20T09:07:31Z</time>
      </trkpt>
      <trkpt lat="45.9429" lon="4.828">
        <ele>265</ele>
        <time>2017-06-20T09:07:32Z</time>
      </trkpt>
      <trkpt lat="45.9429" lon="4.82811">
        <ele>265</ele>
        <time>2017-06-20T09:07:34Z</time>
      </trkpt>
      <trkpt lat="45.9429" lon="4.82817">
        <ele>265</ele>
        <time>2017-06-20T09:07:35Z</time>
      </trkpt>
      <trkpt lat="45.94289" lon="4.82829">
        <ele>265</ele>
        <time>2017-06-20T09:07:37Z</time>
      </trkpt>
      <trkpt lat="45.94289" lon="4.82835">
        <ele>265</ele>
        <time>2017-06-20T09:07:38Z</time>
      </trkpt>
      <trkpt lat="45.94288" lon="4.82847">
        <ele>265</ele>
        <time>2017-06-20T09:07:40Z</time>
      </trkpt>
      <trkpt lat="45.94288" lon="4.82853">
        <ele>265</ele>
        <time>2017-06-20T09:07:41Z</time>
      </trkpt>
      <trkpt lat="45.94287" lon="4.82866">
        <ele>265</ele>
        <time>2017-06-20T09:07:43Z</time>
      </trkpt>
      <trkpt lat="45.94286" lon="4.82872">
        <ele>265</ele>
        <time>2017-06-20T09:07:44Z</time>
      </trkpt>
      <trkpt lat="45.94286" lon="4.82879">
        <ele>265</ele>
        <time>2017-06-20T09:07:45Z</time>
      </trkpt>
      <trkpt lat="45.94286" lon="4.82886">
        <ele>265</ele>
        <time>2017-06-20T09:07:46Z</time>
      </trkpt>
      <trkpt lat="45.94286" lon="4.82893">
        <ele>265</ele>
        <time>2017-06-20T09:07:47Z</time>
      </trkpt>
      <trkpt lat="45.94285" lon="4.829">
        <ele>265</ele>
        <time>2017-06-20T09:07:48Z</time>
      </trkpt>
      <trkpt lat="45.94284" lon="4.82907">
        <ele>265</ele>
        <time>2017-06-20T09:07:49Z</time>
      </trkpt>
      <trkpt lat="45.94283" lon="4.82914">
        <ele>265</ele>
        <time>2017-06-20T09:07:50Z</time>
      </trkpt>
      <trkpt lat="45.94282" lon="4.8292">
        <ele>265</ele>
        <time>2017-06-20T09:07:51Z</time>
      </trkpt>
      <trkpt lat="45.94282" lon="4.82926">
        <ele>265</ele>
        <time>2017-06-20T09:07:52Z</time>
      </trkpt>
      <trkpt lat="45.94279" lon="4.82938">
        <ele>265</ele>
        <time>2017-06-20T09:07:54Z</time>
      </trkpt>
      <trkpt lat="45.94278" lon="4.82944">
        <ele>265</ele>
        <time>2017-06-20T09:07:55Z</time>
      </trkpt>
      <trkpt lat="45.94274" lon="4.82955">
        <ele>265</ele>
        <time>2017-06-20T09:07:57Z</time>
      </trkpt>
      <trkpt lat="45.94272" lon="4.82959">
        <ele>265</ele>
        <time>2017-06-20T09:07:58Z</time>
      </trkpt>
      <trkpt lat="45.94269" lon="4.82968">
        <ele>265</ele>
        <time>2017-06-20T09:08:00Z</time>
      </trkpt>
      <trkpt lat="45.94267" lon="4.82972">
        <ele>265</ele>
        <time>2017-06-20T09:08:01Z</time>
      </trkpt>
      <trkpt lat="45.94263" lon="4.82981">
        <ele>266</ele>
        <time>2017-06-20T09:08:03Z</time>
      </trkpt>
      <trkpt lat="45.9426" lon="4.82985">
        <ele>266</ele>
        <time>2017-06-20T09:08:04Z</time>
      </trkpt>
      <trkpt lat="45.94255" lon="4.82994">
        <ele>266</ele>
        <time>2017-06-20T09:08:06Z</time>
      </trkpt>
      <trkpt lat="45.94252" lon="4.82999">
        <ele>266</ele>
        <time>2017-06-20T09:08:07Z</time>
      </trkpt>
      <trkpt lat="45.94247" lon="4.83009">
        <ele>266</ele>
        <time>2017-06-20T09:08:09Z</time>
      </trkpt>
      <trkpt lat="45.94244" lon="4.83013">
        <ele>266</ele>
        <time>2017-06-20T09:08:10Z</time>
      </trkpt>
      <trkpt lat="45.94239" lon="4.83022">
        <ele>266</ele>
        <time>2017-06-20T09:08:12Z</time>
      </trkpt>
      <trkpt lat="45.94237" lon="4.83026">
        <ele>266</ele>
        <time>2017-06-20T09:08:13Z</time>
      </trkpt>
      <trkpt lat="45.94231" lon="4.83035">
        <ele>266</ele>
        <time>2017-06-20T09:08:15Z</time>
      </trkpt>
      <trkpt lat="45.94228" lon="4.83039">
        <ele>266</ele>
        <time>2017-06-20T09:08:16Z</time>
      </trkpt>
      <trkpt lat="45.94224" lon="4.83043">
        <ele>266</ele>
        <time>2017-06-20T09:08:17Z</time>
      </trkpt>
      <trkpt lat="45.94221" lon="4.83048">
        <ele>266</ele>
        <time>2017-06-20T09:08:18Z</time>
      </trkpt>
      <trkpt lat="45.94218" lon="4.83053">
        <ele>266</ele>
        <time>2017-06-20T09:08:19Z</time>
      </trkpt>
      <trkpt lat="45.94214" lon="4.83058">
        <ele>266</ele>
        <time>2017-06-20T09:08:20Z</time>
      </trkpt>
      <trkpt lat="45.94211" lon="4.83062">
        <ele>266</ele>
        <time>2017-06-20T09:08:21Z</time>
      </trkpt>
      <trkpt lat="45.94208" lon="4.83067">
        <ele>265</ele>
        <time>2017-06-20T09:08:22Z</time>
      </trkpt>
      <trkpt lat="45.94202" lon="4.83076">
        <ele>265</ele>
        <time>2017-06-20T09:08:24Z</time>
      </trkpt>
      <trkpt lat="45.942" lon="4.83081">
        <ele>265</ele>
        <time>2017-06-20T09:08:25Z</time>
      </trkpt>
      <trkpt lat="45.94194" lon="4.8309">
        <ele>265</ele>
        <time>2017-06-20T09:08:27Z</time>
      </trkpt>
      <trkpt lat="45.94191" lon="4.83095">
        <ele>265</ele>
        <time>2017-06-20T09:08:28Z</time>
      </trkpt>
      <trkpt lat="45.94185" lon="4.83103">
        <ele>265</ele>
        <time>2017-06-20T09:08:30Z</time>
      </trkpt>
      <trkpt lat="45.94182" lon="4.83108">
        <ele>265</ele>
        <time>2017-06-20T09:08:31Z</time>
      </trkpt>
      <trkpt lat="45.94176" lon="4.83117">
        <ele>265</ele>
        <time>2017-06-20T09:08:33Z</time>
      </trkpt>
      <trkpt lat="45.94173" lon="4.83121">
        <ele>265</ele>
        <time>2017-06-20T09:08:34Z</time>
      </trkpt>
      <trkpt lat="45.9417" lon="4.83126">
        <ele>265</ele>
        <time>2017-06-20T09:08:35Z</time>
      </trkpt>
      <trkpt lat="45.94167" lon="4.83132">
        <ele>265</ele>
        <time>2017-06-20T09:08:36Z</time>
      </trkpt>
      <trkpt lat="45.94164" lon="4.83137">
        <ele>265</ele>
        <time>2017-06-20T09:08:37Z</time>
      </trkpt>
      <trkpt lat="45.9416" lon="4.83143">
        <ele>265</ele>
        <time>2017-06-20T09:08:38Z</time>
      </trkpt>
      <trkpt lat="45.94157" lon="4.83148">
        <ele>265</ele>
        <time>2017-06-20T09:08:39Z</time>
      </trkpt>
      <trkpt lat="45.94153" lon="4.83153">
        <ele>265</ele>
        <time>2017-06-20T09:08:40Z</time>
      </trkpt>
      <trkpt lat="45.9415" lon="4.83158">
        <ele>265</ele>
        <time>2017-06-20T09:08:41Z</time>
      </trkpt>
      <trkpt lat="45.94146" lon="4.83163">
        <ele>265</ele>
        <time>2017-06-20T09:08:42Z</time>
      </trkpt>
      <trkpt lat="45.94139" lon="4.83172">
        <ele>266</ele>
        <time>2017-06-20T09:08:44Z</time>
      </trkpt>
      <trkpt lat="45.94136" lon="4.83175">
        <ele>266</ele>
        <time>2017-06-20T09:08:45Z</time>
      </trkpt>
      <trkpt lat="45.9413" lon="4.83184">
        <ele>266</ele>
        <time>2017-06-20T09:08:47Z</time>
      </trkpt>
      <trkpt lat="45.94127" lon="4.83188">
        <ele>266</ele>
        <time>2017-06-20T09:08:48Z</time>
      </trkpt>
      <trkpt lat="45.94124" lon="4.83192">
        <ele>266</ele>
        <time>2017-06-20T09:08:49Z</time>
      </trkpt>
      <trkpt lat="45.94121" lon="4.83197">
        <ele>266</ele>
        <time>2017-06-20T09:08:50Z</time>
      </trkpt>
      <trkpt lat="45.94114" lon="4.83205">
        <ele>266</ele>
        <time>2017-06-20T09:08:52Z</time>
      </trkpt>
      <trkpt lat="45.94111" lon="4.83209">
        <ele>266</ele>
        <time>2017-06-20T09:08:53Z</time>
      </trkpt>
      <trkpt lat="45.94106" lon="4.83218">
        <ele>266</ele>
        <time>2017-06-20T09:08:55Z</time>
      </trkpt>
      <trkpt lat="45.94103" lon="4.83222">
        <ele>266</ele>
        <time>2017-06-20T09:08:56Z</time>
      </trkpt>
      <trkpt lat="45.94097" lon="4.83231">
        <ele>266</ele>
        <time>2017-06-20T09:08:58Z</time>
      </trkpt>
      <trkpt lat="45.94094" lon="4.83237">
        <ele>266</ele>
        <time>2017-06-20T09:08:59Z</time>
      </trkpt>
      <trkpt lat="45.94092" lon="4.83242">
        <ele>266</ele>
        <time>2017-06-20T09:09:00Z</time>
      </trkpt>
      <trkpt lat="45.94088" lon="4.83247">
        <ele>266</ele>
        <time>2017-06-20T09:09:01Z</time>
      </trkpt>
      <trkpt lat="45.94082" lon="4.83255">
        <ele>266</ele>
        <time>2017-06-20T09:09:03Z</time>
      </trkpt>
      <trkpt lat="45.94079" lon="4.8326">
        <ele>266</ele>
        <time>2017-06-20T09:09:04Z</time>
      </trkpt>
      <trkpt lat="45.94074" lon="4.83269">
        <ele>266</ele>
        <time>2017-06-20T09:09:06Z</time>
      </trkpt>
      <trkpt lat="45.94071" lon="4.83273">
        <ele>266</ele>
        <time>2017-06-20T09:09:07Z</time>
      </trkpt>
      <trkpt lat="45.94065" lon="4.83282">
        <ele>266</ele>
        <time>2017-06-20T09:09:09Z</time>
      </trkpt>
      <trkpt lat="45.94062" lon="4.83286">
        <ele>266</ele>
        <time>2017-06-20T09:09:10Z</time>
      </trkpt>
      <trkpt lat="45.94056" lon="4.83295">
        <ele>266</ele>
        <time>2017-06-20T09:09:12Z</time>
      </trkpt>
      <trkpt lat="45.94053" lon="4.833">
        <ele>266</ele>
        <time>2017-06-20T09:09:13Z</time>
      </trkpt>
      <trkpt lat="45.94047" lon="4.83308">
        <ele>266</ele>
        <time>2017-06-20T09:09:15Z</time>
      </trkpt>
      <trkpt lat="45.94044" lon="4.83312">
        <ele>266</ele>
        <time>2017-06-20T09:09:16Z</time>
      </trkpt>
      <trkpt lat="45.94039" lon="4.8332">
        <ele>266</ele>
        <time>2017-06-20T09:09:18Z</time>
      </trkpt>
      <trkpt lat="45.94036" lon="4.83325">
        <ele>266</ele>
        <time>2017-06-20T09:09:19Z</time>
      </trkpt>
      <trkpt lat="45.9403" lon="4.83333">
        <ele>266</ele>
        <time>2017-06-20T09:09:21Z</time>
      </trkpt>
      <trkpt lat="45.94026" lon="4.83338">
        <ele>266</ele>
        <time>2017-06-20T09:09:22Z</time>
      </trkpt>
      <trkpt lat="45.94023" lon="4.83343">
        <ele>266</ele>
        <time>2017-06-20T09:09:23Z</time>
      </trkpt>
      <trkpt lat="45.9402" lon="4.83348">
        <ele>266</ele>
        <time>2017-06-20T09:09:24Z</time>
      </trkpt>
      <trkpt lat="45.94014" lon="4.83357">
        <ele>266</ele>
        <time>2017-06-20T09:09:26Z</time>
      </trkpt>
      <trkpt lat="45.94012" lon="4.83361">
        <ele>266</ele>
        <time>2017-06-20T09:09:27Z</time>
      </trkpt>
      <trkpt lat="45.94006" lon="4.83371">
        <ele>266</ele>
        <time>2017-06-20T09:09:29Z</time>
      </trkpt>
      <trkpt lat="45.94003" lon="4.83376">
        <ele>266</ele>
        <time>2017-06-20T09:09:30Z</time>
      </trkpt>
      <trkpt lat="45.94" lon="4.8338">
        <ele>266</ele>
        <time>2017-06-20T09:09:31Z</time>
      </trkpt>
      <trkpt lat="45.93997" lon="4.83385">
        <ele>266</ele>
        <time>2017-06-20T09:09:32Z</time>
      </trkpt>
      <trkpt lat="45.93991" lon="4.83395">
        <ele>266</ele>
        <time>2017-06-20T09:09:34Z</time>
      </trkpt>
      <trkpt lat="45.93988" lon="4.834">
        <ele>266</ele>
        <time>2017-06-20T09:09:35Z</time>
      </trkpt>
      <trkpt lat="45.93985" lon="4.83405">
        <ele>266</ele>
        <time>2017-06-20T09:09:36Z</time>
      </trkpt>
      <trkpt lat="45.93981" lon="4.83411">
        <ele>266</ele>
        <time>2017-06-20T09:09:37Z</time>
      </trkpt>
      <trkpt lat="45.93977" lon="4.83416">
        <ele>266</ele>
        <time>2017-06-20T09:09:38Z</time>
      </trkpt>
      <trkpt lat="45.93973" lon="4.83423">
        <ele>265</ele>
        <time>2017-06-20T09:09:39Z</time>
      </trkpt>
      <trkpt lat="45.93969" lon="4.83429">
        <ele>265</ele>
        <time>2017-06-20T09:09:40Z</time>
      </trkpt>
      <trkpt lat="45.93965" lon="4.83434">
        <ele>265</ele>
        <time>2017-06-20T09:09:41Z</time>
      </trkpt>
      <trkpt lat="45.93961" lon="4.8344">
        <ele>265</ele>
        <time>2017-06-20T09:09:42Z</time>
      </trkpt>
      <trkpt lat="45.93958" lon="4.83446">
        <ele>265</ele>
        <time>2017-06-20T09:09:43Z</time>
      </trkpt>
      <trkpt lat="45.93954" lon="4.83451">
        <ele>265</ele>
        <time>2017-06-20T09:09:44Z</time>
      </trkpt>
      <trkpt lat="45.9395" lon="4.83457">
        <ele>265</ele>
        <time>2017-06-20T09:09:45Z</time>
      </trkpt>
      <trkpt lat="45.93947" lon="4.83463">
        <ele>265</ele>
        <time>2017-06-20T09:09:46Z</time>
      </trkpt>
      <trkpt lat="45.93943" lon="4.83468">
        <ele>265</ele>
        <time>2017-06-20T09:09:47Z</time>
      </trkpt>
      <trkpt lat="45.93939" lon="4.83474">
        <ele>265</ele>
        <time>2017-06-20T09:09:48Z</time>
      </trkpt>
      <trkpt lat="45.93935" lon="4.8348">
        <ele>265</ele>
        <time>2017-06-20T09:09:49Z</time>
      </trkpt>
      <trkpt lat="45.93932" lon="4.83485">
        <ele>265</ele>
        <time>2017-06-20T09:09:50Z</time>
      </trkpt>
      <trkpt lat="45.93928" lon="4.83491">
        <ele>265</ele>
        <time>2017-06-20T09:09:51Z</time>
      </trkpt>
      <trkpt lat="45.93925" lon="4.83496">
        <ele>265</ele>
        <time>2017-06-20T09:09:52Z</time>
      </trkpt>
      <trkpt lat="45.93922" lon="4.835">
        <ele>265</ele>
        <time>2017-06-20T09:09:53Z</time>
      </trkpt>
      <trkpt lat="45.93915" lon="4.83509">
        <ele>265</ele>
        <time>2017-06-20T09:09:55Z</time>
      </trkpt>
      <trkpt lat="45.93912" lon="4.83514">
        <ele>265</ele>
        <time>2017-06-20T09:09:56Z</time>
      </trkpt>
      <trkpt lat="45.93909" lon="4.83519">
        <ele>265</ele>
        <time>2017-06-20T09:09:57Z</time>
      </trkpt>
      <trkpt lat="45.93906" lon="4.83524">
        <ele>265</ele>
        <time>2017-06-20T09:09:58Z</time>
      </trkpt>
      <trkpt lat="45.93903" lon="4.83529">
        <ele>265</ele>
        <time>2017-06-20T09:09:59Z</time>
      </trkpt>
      <trkpt lat="45.93899" lon="4.83533">
        <ele>265</ele>
        <time>2017-06-20T09:10:00Z</time>
      </trkpt>
      <trkpt lat="45.93896" lon="4.83538">
        <ele>265</ele>
        <time>2017-06-20T09:10:01Z</time>
      </trkpt>
      <trkpt lat="45.93892" lon="4.83543">
        <ele>265</ele>
        <time>2017-06-20T09:10:02Z</time>
      </trkpt>
      <trkpt lat="45.93889" lon="4.83548">
        <ele>265</ele>
        <time>2017-06-20T09:10:03Z</time>
      </trkpt>
      <trkpt lat="45.93886" lon="4.83553">
        <ele>265</ele>
        <time>2017-06-20T09:10:04Z</time>
      </trkpt>
      <trkpt lat="45.93883" lon="4.83558">
        <ele>265</ele>
        <time>2017-06-20T09:10:05Z</time>
      </trkpt>
      <trkpt lat="45.9388" lon="4.83564">
        <ele>265</ele>
        <time>2017-06-20T09:10:06Z</time>
      </trkpt>
      <trkpt lat="45.93877" lon="4.83569">
        <ele>265</ele>
        <time>2017-06-20T09:10:07Z</time>
      </trkpt>
      <trkpt lat="45.93874" lon="4.83575">
        <ele>265</ele>
        <time>2017-06-20T09:10:08Z</time>
      </trkpt>
      <trkpt lat="45.93871" lon="4.8358">
        <ele>265</ele>
        <time>2017-06-20T09:10:09Z</time>
      </trkpt>
      <trkpt lat="45.93868" lon="4.83586">
        <ele>265</ele>
        <time>2017-06-20T09:10:10Z</time>
      </trkpt>
      <trkpt lat="45.93863" lon="4.83596">
        <ele>265</ele>
        <time>2017-06-20T09:10:12Z</time>
      </trkpt>
      <trkpt lat="45.9386" lon="4.83602">
        <ele>265</ele>
        <time>2017-06-20T09:10:13Z</time>
      </trkpt>
      <trkpt lat="45.93858" lon="4.83608">
        <ele>265</ele>
        <time>2017-06-20T09:10:14Z</time>
      </trkpt>
      <trkpt lat="45.93855" lon="4.83614">
        <ele>265</ele>
        <time>2017-06-20T09:10:15Z</time>
      </trkpt>
      <trkpt lat="45.93853" lon="4.8362">
        <ele>265</ele>
        <time>2017-06-20T09:10:16Z</time>
      </trkpt>
      <trkpt lat="45.9385" lon="4.83627">
        <ele>265</ele>
        <time>2017-06-20T09:10:17Z</time>
      </trkpt>
      <trkpt lat="45.93848" lon="4.83633">
        <ele>265</ele>
        <time>2017-06-20T09:10:18Z</time>
      </trkpt>
      <trkpt lat="45.93845" lon="4.83639">
        <ele>265</ele>
        <time>2017-06-20T09:10:19Z</time>
      </trkpt>
      <trkpt lat="45.93841" lon="4.83649">
        <ele>265</ele>
        <time>2017-06-20T09:10:21Z</time>
      </trkpt>
      <trkpt lat="45.93839" lon="4.83655">
        <ele>265</ele>
        <time>2017-06-20T09:10:22Z</time>
      </trkpt>
      <trkpt lat="45.93838" lon="4.83661">
        <ele>265</ele>
        <time>2017-06-20T09:10:23Z</time>
      </trkpt>
      <trkpt lat="45.93836" lon="4.83668">
        <ele>265</ele>
        <time>2017-06-20T09:10:24Z</time>
      </trkpt>
      <trkpt lat="45.93833" lon="4.83674">
        <ele>265</ele>
        <time>2017-06-20T09:10:25Z</time>
      </trkpt>
      <trkpt lat="45.93832" lon="4.8368">
        <ele>265</ele>
        <time>2017-06-20T09:10:26Z</time>
      </trkpt>
      <trkpt lat="45.9383" lon="4.83686">
        <ele>265</ele>
        <time>2017-06-20T09:10:27Z</time>
      </trkpt>
      <trkpt lat="45.93829" lon="4.83693">
        <ele>266</ele>
        <time>2017-06-20T09:10:28Z</time>
      </trkpt>
      <trkpt lat="45.93827" lon="4.83699">
        <ele>266</ele>
        <time>2017-06-20T09:10:29Z</time>
      </trkpt>
      <trkpt lat="45.93826" lon="4.83706">
        <ele>266</ele>
        <time>2017-06-20T09:10:30Z</time>
      </trkpt>
      <trkpt lat="45.93825" lon="4.83712">
        <ele>266</ele>
        <time>2017-06-20T09:10:31Z</time>
      </trkpt>
      <trkpt lat="45.93823" lon="4.83719">
        <ele>266</ele>
        <time>2017-06-20T09:10:32Z</time>
      </trkpt>
      <trkpt lat="45.93821" lon="4.83731">
        <ele>266</ele>
        <time>2017-06-20T09:10:34Z</time>
      </trkpt>
      <trkpt lat="45.93819" lon="4.83736">
        <ele>266</ele>
        <time>2017-06-20T09:10:35Z</time>
      </trkpt>
      <trkpt lat="45.93815" lon="4.83747">
        <ele>266</ele>
        <time>2017-06-20T09:10:37Z</time>
      </trkpt>
      <trkpt lat="45.93813" lon="4.83753">
        <ele>266</ele>
        <time>2017-06-20T09:10:38Z</time>
      </trkpt>
      <trkpt lat="45.93811" lon="4.83759">
        <ele>266</ele>
        <time>2017-06-20T09:10:39Z</time>
      </trkpt>
      <trkpt lat="45.93809" lon="4.83765">
        <ele>266</ele>
        <time>2017-06-20T09:10:40Z</time>
      </trkpt>
      <trkpt lat="45.93807" lon="4.83771">
        <ele>266</ele>
        <time>2017-06-20T09:10:41Z</time>
      </trkpt>
      <trkpt lat="45.93805" lon="4.83776">
        <ele>266</ele>
        <time>2017-06-20T09:10:42Z</time>
      </trkpt>
      <trkpt lat="45.93803" lon="4.83783">
        <ele>266</ele>
        <time>2017-06-20T09:10:43Z</time>
      </trkpt>
      <trkpt lat="45.93801" lon="4.8379">
        <ele>266</ele>
        <time>2017-06-20T09:10:44Z</time>
      </trkpt>
      <trkpt lat="45.93799" lon="4.83797">
        <ele>266</ele>
        <time>2017-06-20T09:10:45Z</time>
      </trkpt>
      <trkpt lat="45.93797" lon="4.83805">
        <ele>266</ele>
        <time>2017-06-20T09:10:46Z</time>
      </trkpt>
      <trkpt lat="45.93795" lon="4.83812">
        <ele>266</ele>
        <time>2017-06-20T09:10:47Z</time>
      </trkpt>
      <trkpt lat="45.93792" lon="4.83819">
        <ele>266</ele>
        <time>2017-06-20T09:10:48Z</time>
      </trkpt>
      <trkpt lat="45.9379" lon="4.83827">
        <ele>266</ele>
        <time>2017-06-20T09:10:49Z</time>
      </trkpt>
      <trkpt lat="45.93788" lon="4.83835">
        <ele>266</ele>
        <time>2017-06-20T09:10:50Z</time>
      </trkpt>
      <trkpt lat="45.93787" lon="4.83843">
        <ele>266</ele>
        <time>2017-06-20T09:10:51Z</time>
      </trkpt>
      <trkpt lat="45.93785" lon="4.83849">
        <ele>266</ele>
        <time>2017-06-20T09:10:52Z</time>
      </trkpt>
      <trkpt lat="45.93784" lon="4.83856">
        <ele>266</ele>
        <time>2017-06-20T09:10:53Z</time>
      </trkpt>
      <trkpt lat="45.93782" lon="4.83862">
        <ele>266</ele>
        <time>2017-06-20T09:10:54Z</time>
      </trkpt>
      <trkpt lat="45.93779" lon="4.83873">
        <ele>266</ele>
        <time>2017-06-20T09:10:56Z</time>
      </trkpt>
      <trkpt lat="45.93778" lon="4.83879">
        <ele>266</ele>
        <time>2017-06-20T09:10:57Z</time>
      </trkpt>
      <trkpt lat="45.93776" lon="4.83884">
        <ele>266</ele>
        <time>2017-06-20T09:10:58Z</time>
      </trkpt>
      <trkpt lat="45.93776" lon="4.83891">
        <ele>266</ele>
        <time>2017-06-20T09:10:59Z</time>
      </trkpt>
      <trkpt lat="45.93774" lon="4.83898">
        <ele>266</ele>
        <time>2017-06-20T09:11:00Z</time>
      </trkpt>
      <trkpt lat="45.93773" lon="4.83905">
        <ele>266</ele>
        <time>2017-06-20T09:11:01Z</time>
      </trkpt>
      <trkpt lat="45.93772" lon="4.83913">
        <ele>266</ele>
        <time>2017-06-20T09:11:02Z</time>
      </trkpt>
      <trkpt lat="45.93771" lon="4.83921">
        <ele>267</ele>
        <time>2017-06-20T09:11:03Z</time>
      </trkpt>
      <trkpt lat="45.9377" lon="4.83929">
        <ele>267</ele>
        <time>2017-06-20T09:11:04Z</time>
      </trkpt>
      <trkpt lat="45.93769" lon="4.83936">
        <ele>267</ele>
        <time>2017-06-20T09:11:05Z</time>
      </trkpt>
      <trkpt lat="45.93767" lon="4.83943">
        <ele>267</ele>
        <time>2017-06-20T09:11:06Z</time>
      </trkpt>
      <trkpt lat="45.93767" lon="4.8395">
        <ele>267</ele>
        <time>2017-06-20T09:11:07Z</time>
      </trkpt>
      <trkpt lat="45.93765" lon="4.83963">
        <ele>268</ele>
        <time>2017-06-20T09:11:09Z</time>
      </trkpt>
      <trkpt lat="45.93764" lon="4.83969">
        <ele>268</ele>
        <time>2017-06-20T09:11:10Z</time>
      </trkpt>
      <trkpt lat="45.93763" lon="4.83976">
        <ele>268</ele>
        <time>2017-06-20T09:11:11Z</time>
      </trkpt>
      <trkpt lat="45.93762" lon="4.83983">
        <ele>268</ele>
        <time>2017-06-20T09:11:12Z</time>
      </trkpt>
      <trkpt lat="45.9376" lon="4.83995">
        <ele>269</ele>
        <time>2017-06-20T09:11:14Z</time>
      </trkpt>
      <trkpt lat="45.93759" lon="4.84001">
        <ele>269</ele>
        <time>2017-06-20T09:11:15Z</time>
      </trkpt>
      <trkpt lat="45.93758" lon="4.84012">
        <ele>269</ele>
        <time>2017-06-20T09:11:17Z</time>
      </trkpt>
      <trkpt lat="45.93757" lon="4.84017">
        <ele>269</ele>
        <time>2017-06-20T09:11:18Z</time>
      </trkpt>
      <trkpt lat="45.93756" lon="4.84029">
        <ele>269</ele>
        <time>2017-06-20T09:11:20Z</time>
      </trkpt>
      <trkpt lat="45.93755" lon="4.84035">
        <ele>269</ele>
        <time>2017-06-20T09:11:21Z</time>
      </trkpt>
      <trkpt lat="45.93754" lon="4.84046">
        <ele>270</ele>
        <time>2017-06-20T09:11:23Z</time>
      </trkpt>
      <trkpt lat="45.93753" lon="4.84051">
        <ele>270</ele>
        <time>2017-06-20T09:11:24Z</time>
      </trkpt>
      <trkpt lat="45.93752" lon="4.84063">
        <ele>270</ele>
        <time>2017-06-20T09:11:26Z</time>
      </trkpt>
      <trkpt lat="45.93751" lon="4.84069">
        <ele>270</ele>
        <time>2017-06-20T09:11:27Z</time>
      </trkpt>
      <trkpt lat="45.9375" lon="4.8408">
        <ele>270</ele>
        <time>2017-06-20T09:11:29Z</time>
      </trkpt>
      <trkpt lat="45.93749" lon="4.84086">
        <ele>270</ele>
        <time>2017-06-20T09:11:30Z</time>
      </trkpt>
      <trkpt lat="45.93748" lon="4.84097">
        <ele>270</ele>
        <time>2017-06-20T09:11:32Z</time>
      </trkpt>
      <trkpt lat="45.93748" lon="4.84102">
        <ele>270</ele>
        <time>2017-06-20T09:11:33Z</time>
      </trkpt>
      <trkpt lat="45.93747" lon="4.84114">
        <ele>270</ele>
        <time>2017-06-20T09:11:35Z</time>
      </trkpt>
      <trkpt lat="45.93746" lon="4.8412">
        <ele>270</ele>
        <time>2017-06-20T09:11:36Z</time>
      </trkpt>
      <trkpt lat="45.93746" lon="4.84127">
        <ele>270</ele>
        <time>2017-06-20T09:11:37Z</time>
      </trkpt>
      <trkpt lat="45.93746" lon="4.84134">
        <ele>270</ele>
        <time>2017-06-20T09:11:38Z</time>
      </trkpt>
      <trkpt lat="45.93746" lon="4.84141">
        <ele>270</ele>
        <time>2017-06-20T09:11:39Z</time>
      </trkpt>
      <trkpt lat="45.93746" lon="4.84147">
        <ele>270</ele>
        <time>2017-06-20T09:11:40Z</time>
      </trkpt>
      <trkpt lat="45.93746" lon="4.84154">
        <ele>270</ele>
        <time>2017-06-20T09:11:41Z</time>
      </trkpt>
      <trkpt lat="45.93746" lon="4.84161">
        <ele>270</ele>
        <time>2017-06-20T09:11:42Z</time>
      </trkpt>
      <trkpt lat="45.93746" lon="4.84173">
        <ele>270</ele>
        <time>2017-06-20T09:11:44Z</time>
      </trkpt>
      <trkpt lat="45.93746" lon="4.84179">
        <ele>270</ele>
        <time>2017-06-20T09:11:45Z</time>
      </trkpt>
      <trkpt lat="45.93747" lon="4.84192">
        <ele>270</ele>
        <time>2017-06-20T09:11:47Z</time>
      </trkpt>
      <trkpt lat="45.93747" lon="4.84199">
        <ele>270</ele>
        <time>2017-06-20T09:11:48Z</time>
      </trkpt>
      <trkpt lat="45.93748" lon="4.8421">
        <ele>270</ele>
        <time>2017-06-20T09:11:50Z</time>
      </trkpt>
      <trkpt lat="45.93748" lon="4.84216">
        <ele>270</ele>
        <time>2017-06-20T09:11:51Z</time>
      </trkpt>
      <trkpt lat="45.93748" lon="4.84228">
        <ele>269</ele>
        <time>2017-06-20T09:11:53Z</time>
      </trkpt>
      <trkpt lat="45.93749" lon="4.84234">
        <ele>269</ele>
        <time>2017-06-20T09:11:54Z</time>
      </trkpt>
      <trkpt lat="45.9375" lon="4.84245">
        <ele>269</ele>
        <time>2017-06-20T09:11:56Z</time>
      </trkpt>
      <trkpt lat="45.9375" lon="4.84251">
        <ele>269</ele>
        <time>2017-06-20T09:11:57Z</time>
      </trkpt>
      <trkpt lat="45.93752" lon="4.84263">
        <ele>269</ele>
        <time>2017-06-20T09:11:59Z</time>
      </trkpt>
      <trkpt lat="45.93753" lon="4.84269">
        <ele>269</ele>
        <time>2017-06-20T09:12:00Z</time>
      </trkpt>
      <trkpt lat="45.93753" lon="4.84275">
        <ele>268</ele>
        <time>2017-06-20T09:12:01Z</time>
      </trkpt>
      <trkpt lat="45.93754" lon="4.84282">
        <ele>268</ele>
        <time>2017-06-20T09:12:02Z</time>
      </trkpt>
      <trkpt lat="45.93755" lon="4.84288">
        <ele>268</ele>
        <time>2017-06-20T09:12:03Z</time>
      </trkpt>
      <trkpt lat="45.93756" lon="4.84295">
        <ele>268</ele>
        <time>2017-06-20T09:12:04Z</time>
      </trkpt>
      <trkpt lat="45.93758" lon="4.84302">
        <ele>268</ele>
        <time>2017-06-20T09:12:05Z</time>
      </trkpt>
      <trkpt lat="45.93759" lon="4.84308">
        <ele>268</ele>
        <time>2017-06-20T09:12:06Z</time>
      </trkpt>
      <trkpt lat="45.93761" lon="4.8432">
        <ele>269</ele>
        <time>2017-06-20T09:12:08Z</time>
      </trkpt>
      <trkpt lat="45.93762" lon="4.84326">
        <ele>269</ele>
        <time>2017-06-20T09:12:09Z</time>
      </trkpt>
      <trkpt lat="45.93763" lon="4.84332">
        <ele>269</ele>
        <time>2017-06-20T09:12:10Z</time>
      </trkpt>
      <trkpt lat="45.93764" lon="4.84338">
        <ele>269</ele>
        <time>2017-06-20T09:12:11Z</time>
      </trkpt>
      <trkpt lat="45.93766" lon="4.84345">
        <ele>269</ele>
        <time>2017-06-20T09:12:12Z</time>
      </trkpt>
      <trkpt lat="45.93767" lon="4.84352">
        <ele>269</ele>
        <time>2017-06-20T09:12:13Z</time>
      </trkpt>
      <trkpt lat="45.93768" lon="4.84359">
        <ele>268</ele>
        <time>2017-06-20T09:12:14Z</time>
      </trkpt>
      <trkpt lat="45.93769" lon="4.84365">
        <ele>268</ele>
        <time>2017-06-20T09:12:15Z</time>
      </trkpt>
      <trkpt lat="45.93771" lon="4.84377">
        <ele>268</ele>
        <time>2017-06-20T09:12:17Z</time>
      </trkpt>
      <trkpt lat="45.93772" lon="4.84383">
        <ele>268</ele>
        <time>2017-06-20T09:12:18Z</time>
      </trkpt>
      <trkpt lat="45.93773" lon="4.84389">
        <ele>268</ele>
        <time>2017-06-20T09:12:19Z</time>
      </trkpt>
      <trkpt lat="45.93774" lon="4.84395">
        <ele>268</ele>
        <time>2017-06-20T09:12:20Z</time>
      </trkpt>
      <trkpt lat="45.93775" lon="4.84402">
        <ele>268</ele>
        <time>2017-06-20T09:12:21Z</time>
      </trkpt>
      <trkpt lat="45.93776" lon="4.84409">
        <ele>269</ele>
        <time>2017-06-20T09:12:22Z</time>
      </trkpt>
      <trkpt lat="45.93777" lon="4.84416">
        <ele>269</ele>
        <time>2017-06-20T09:12:23Z</time>
      </trkpt>
      <trkpt lat="45.93778" lon="4.84422">
        <ele>269</ele>
        <time>2017-06-20T09:12:24Z</time>
      </trkpt>
      <trkpt lat="45.93779" lon="4.84429">
        <ele>269</ele>
        <time>2017-06-20T09:12:25Z</time>
      </trkpt>
      <trkpt lat="45.9378" lon="4.84436">
        <ele>269</ele>
        <time>2017-06-20T09:12:26Z</time>
      </trkpt>
      <trkpt lat="45.93782" lon="4.84443">
        <ele>269</ele>
        <time>2017-06-20T09:12:27Z</time>
      </trkpt>
      <trkpt lat="45.93783" lon="4.8445">
        <ele>269</ele>
        <time>2017-06-20T09:12:28Z</time>
      </trkpt>
      <trkpt lat="45.93784" lon="4.84457">
        <ele>269</ele>
        <time>2017-06-20T09:12:29Z</time>
      </trkpt>
      <trkpt lat="45.93785" lon="4.84463">
        <ele>269</ele>
        <time>2017-06-20T09:12:30Z</time>
      </trkpt>
      <trkpt lat="45.93786" lon="4.8447">
        <ele>269</ele>
        <time>2017-06-20T09:12:31Z</time>
      </trkpt>
      <trkpt lat="45.93787" lon="4.84477">
        <ele>269</ele>
        <time>2017-06-20T09:12:32Z</time>
      </trkpt>
      <trkpt lat="45.93788" lon="4.84483">
        <ele>269</ele>
        <time>2017-06-20T09:12:33Z</time>
      </trkpt>
      <trkpt lat="45.93789" lon="4.8449">
        <ele>269</ele>
        <time>2017-06-20T09:12:34Z</time>
      </trkpt>
      <trkpt lat="45.93791" lon="4.84503">
        <ele>270</ele>
        <time>2017-06-20T09:12:36Z</time>
      </trkpt>
      <trkpt lat="45.93792" lon="4.84509">
        <ele>270</ele>
        <time>2017-06-20T09:12:37Z</time>
      </trkpt>
      <trkpt lat="45.93794" lon="4.84515">
        <ele>270</ele>
        <time>2017-06-20T09:12:38Z</time>
      </trkpt>
      <trkpt lat="45.93795" lon="4.84521">
        <ele>270</ele>
        <time>2017-06-20T09:12:39Z</time>
      </trkpt>
      <trkpt lat="45.93796" lon="4.84528">
        <ele>270</ele>
        <time>2017-06-20T09:12:40Z</time>
      </trkpt>
      <trkpt lat="45.93797" lon="4.84535">
        <ele>270</ele>
        <time>2017-06-20T09:12:41Z</time>
      </trkpt>
      <trkpt lat="45.93798" lon="4.84542">
        <ele>270</ele>
        <time>2017-06-20T09:12:42Z</time>
      </trkpt>
      <trkpt lat="45.93799" lon="4.84549">
        <ele>270</ele>
        <time>2017-06-20T09:12:43Z</time>
      </trkpt>
      <trkpt lat="45.938" lon="4.84556">
        <ele>270</ele>
        <time>2017-06-20T09:12:44Z</time>
      </trkpt>
      <trkpt lat="45.93802" lon="4.84564">
        <ele>270</ele>
        <time>2017-06-20T09:12:45Z</time>
      </trkpt>
      <trkpt lat="45.93803" lon="4.8457">
        <ele>270</ele>
        <time>2017-06-20T09:12:46Z</time>
      </trkpt>
      <trkpt lat="45.93804" lon="4.84577">
        <ele>270</ele>
        <time>2017-06-20T09:12:47Z</time>
      </trkpt>
      <trkpt lat="45.93805" lon="4.84583">
        <ele>270</ele>
        <time>2017-06-20T09:12:48Z</time>
      </trkpt>
      <trkpt lat="45.93806" lon="4.8459">
        <ele>271</ele>
        <time>2017-06-20T09:12:49Z</time>
      </trkpt>
      <trkpt lat="45.93808" lon="4.84601">
        <ele>271</ele>
        <time>2017-06-20T09:12:51Z</time>
      </trkpt>
      <trkpt lat="45.93811" lon="4.84606">
        <ele>271</ele>
        <time>2017-06-20T09:12:52Z</time>
      </trkpt>
      <trkpt lat="45.93813" lon="4.84612">
        <ele>271</ele>
        <time>2017-06-20T09:12:53Z</time>
      </trkpt>
      <trkpt lat="45.93814" lon="4.84619">
        <ele>271</ele>
        <time>2017-06-20T09:12:54Z</time>
      </trkpt>
      <trkpt lat="45.93815" lon="4.84626">
        <ele>271</ele>
        <time>2017-06-20T09:12:55Z</time>
      </trkpt>
      <trkpt lat="45.93816" lon="4.84634">
        <ele>271</ele>
        <time>2017-06-20T09:12:56Z</time>
      </trkpt>
      <trkpt lat="45.93817" lon="4.84641">
        <ele>271</ele>
        <time>2017-06-20T09:12:57Z</time>
      </trkpt>
      <trkpt lat="45.93818" lon="4.84649">
        <ele>271</ele>
        <time>2017-06-20T09:12:58Z</time>
      </trkpt>
      <trkpt lat="45.9382" lon="4.84656">
        <ele>271</ele>
        <time>2017-06-20T09:12:59Z</time>
      </trkpt>
      <trkpt lat="45.93821" lon="4.84663">
        <ele>271</ele>
        <time>2017-06-20T09:13:00Z</time>
      </trkpt>
      <trkpt lat="45.93823" lon="4.84676">
        <ele>271</ele>
        <time>2017-06-20T09:13:02Z</time>
      </trkpt>
      <trkpt lat="45.93824" lon="4.84682">
        <ele>271</ele>
        <time>2017-06-20T09:13:03Z</time>
      </trkpt>
      <trkpt lat="45.93825" lon="4.84688">
        <ele>271</ele>
        <time>2017-06-20T09:13:04Z</time>
      </trkpt>
      <trkpt lat="45.93826" lon="4.84694">
        <ele>271</ele>
        <time>2017-06-20T09:13:05Z</time>
      </trkpt>
      <trkpt lat="45.93828" lon="4.84706">
        <ele>271</ele>
        <time>2017-06-20T09:13:07Z</time>
      </trkpt>
      <trkpt lat="45.93829" lon="4.84712">
        <ele>271</ele>
        <time>2017-06-20T09:13:08Z</time>
      </trkpt>
      <trkpt lat="45.93832" lon="4.84724">
        <ele>271</ele>
        <time>2017-06-20T09:13:10Z</time>
      </trkpt>
      <trkpt lat="45.93833" lon="4.8473">
        <ele>271</ele>
        <time>2017-06-20T09:13:11Z</time>
      </trkpt>
      <trkpt lat="45.93835" lon="4.84741">
        <ele>271</ele>
        <time>2017-06-20T09:13:13Z</time>
      </trkpt>
      <trkpt lat="45.93836" lon="4.84747">
        <ele>271</ele>
        <time>2017-06-20T09:13:14Z</time>
      </trkpt>
      <trkpt lat="45.93837" lon="4.84758">
        <ele>271</ele>
        <time>2017-06-20T09:13:16Z</time>
      </trkpt>
      <trkpt lat="45.93838" lon="4.84764">
        <ele>271</ele>
        <time>2017-06-20T09:13:17Z</time>
      </trkpt>
      <trkpt lat="45.9384" lon="4.84776">
        <ele>270</ele>
        <time>2017-06-20T09:13:19Z</time>
      </trkpt>
      <trkpt lat="45.93841" lon="4.84781">
        <ele>270</ele>
        <time>2017-06-20T09:13:20Z</time>
      </trkpt>
      <trkpt lat="45.93842" lon="4.84793">
        <ele>270</ele>
        <time>2017-06-20T09:13:22Z</time>
      </trkpt>
      <trkpt lat="45.93843" lon="4.84799">
        <ele>270</ele>
        <time>2017-06-20T09:13:23Z</time>
      </trkpt>
      <trkpt lat="45.93844" lon="4.8481">
        <ele>270</ele>
        <time>2017-06-20T09:13:25Z</time>
      </trkpt>
      <trkpt lat="45.93845" lon="4.84816">
        <ele>270</ele>
        <time>2017-06-20T09:13:26Z</time>
      </trkpt>
      <trkpt lat="45.93847" lon="4.84827">
        <ele>271</ele>
        <time>2017-06-20T09:13:28Z</time>
      </trkpt>
      <trkpt lat="45.93847" lon="4.84832">
        <ele>271</ele>
        <time>2017-06-20T09:13:29Z</time>
      </trkpt>
      <trkpt lat="45.93848" lon="4.84838">
        <ele>271</ele>
        <time>2017-06-20T09:13:30Z</time>
      </trkpt>
      <trkpt lat="45.93849" lon="4.84845">
        <ele>271</ele>
        <time>2017-06-20T09:13:31Z</time>
      </trkpt>
      <trkpt lat="45.9385" lon="4.84851">
        <ele>271</ele>
        <time>2017-06-20T09:13:32Z</time>
      </trkpt>
      <trkpt lat="45.93851" lon="4.84859">
        <ele>270</ele>
        <time>2017-06-20T09:13:33Z</time>
      </trkpt>
      <trkpt lat="45.93851" lon="4.84866">
        <ele>270</ele>
        <time>2017-06-20T09:13:34Z</time>
      </trkpt>
      <trkpt lat="45.93852" lon="4.84874">
        <ele>270</ele>
        <time>2017-06-20T09:13:35Z</time>
      </trkpt>
      <trkpt lat="45.93852" lon="4.84881">
        <ele>270</ele>
        <time>2017-06-20T09:13:36Z</time>
      </trkpt>
      <trkpt lat="45.93853" lon="4.84888">
        <ele>270</ele>
        <time>2017-06-20T09:13:37Z</time>
      </trkpt>
      <trkpt lat="45.93853" lon="4.84895">
        <ele>271</ele>
        <time>2017-06-20T09:13:38Z</time>
      </trkpt>
      <trkpt lat="45.93853" lon="4.84902">
        <ele>271</ele>
        <time>2017-06-20T09:13:39Z</time>
      </trkpt>
      <trkpt lat="45.93854" lon="4.84914">
        <ele>271</ele>
        <time>2017-06-20T09:13:41Z</time>
      </trkpt>
      <trkpt lat="45.93855" lon="4.8492">
        <ele>271</ele>
        <time>2017-06-20T09:13:42Z</time>
      </trkpt>
      <trkpt lat="45.93855" lon="4.84927">
        <ele>271</ele>
        <time>2017-06-20T09:13:43Z</time>
      </trkpt>
      <trkpt lat="45.93855" lon="4.84933">
        <ele>271</ele>
        <time>2017-06-20T09:13:44Z</time>
      </trkpt>
      <trkpt lat="45.93856" lon="4.8494">
        <ele>271</ele>
        <time>2017-06-20T09:13:45Z</time>
      </trkpt>
      <trkpt lat="45.93856" lon="4.84946">
        <ele>271</ele>
        <time>2017-06-20T09:13:46Z</time>
      </trkpt>
      <trkpt lat="45.93857" lon="4.84953">
        <ele>272</ele>
        <time>2017-06-20T09:13:47Z</time>
      </trkpt>
      <trkpt lat="45.93857" lon="4.84961">
        <ele>272</ele>
        <time>2017-06-20T09:13:48Z</time>
      </trkpt>
      <trkpt lat="45.93857" lon="4.84968">
        <ele>272</ele>
        <time>2017-06-20T09:13:49Z</time>
      </trkpt>
      <trkpt lat="45.93858" lon="4.84975">
        <ele>272</ele>
        <time>2017-06-20T09:13:50Z</time>
      </trkpt>
      <trkpt lat="45.93858" lon="4.84982">
        <ele>272</ele>
        <time>2017-06-20T09:13:51Z</time>
      </trkpt>
      <trkpt lat="45.93858" lon="4.8499">
        <ele>272</ele>
        <time>2017-06-20T09:13:52Z</time>
      </trkpt>
      <trkpt lat="45.93859" lon="4.84997">
        <ele>272</ele>
        <time>2017-06-20T09:13:53Z</time>
      </trkpt>
      <trkpt lat="45.9386" lon="4.85004">
        <ele>273</ele>
        <time>2017-06-20T09:13:54Z</time>
      </trkpt>
      <trkpt lat="45.9386" lon="4.85012">
        <ele>273</ele>
        <time>2017-06-20T09:13:55Z</time>
      </trkpt>
      <trkpt lat="45.93861" lon="4.85019">
        <ele>273</ele>
        <time>2017-06-20T09:13:56Z</time>
      </trkpt>
      <trkpt lat="45.93861" lon="4.85025">
        <ele>273</ele>
        <time>2017-06-20T09:13:57Z</time>
      </trkpt>
      <trkpt lat="45.93861" lon="4.85032">
        <ele>273</ele>
        <time>2017-06-20T09:13:58Z</time>
      </trkpt>
      <trkpt lat="45.93861" lon="4.85045">
        <ele>273</ele>
        <time>2017-06-20T09:14:00Z</time>
      </trkpt>
      <trkpt lat="45.93862" lon="4.85052">
        <ele>273</ele>
        <time>2017-06-20T09:14:01Z</time>
      </trkpt>
      <trkpt lat="45.93862" lon="4.85063">
        <ele>273</ele>
        <time>2017-06-20T09:14:03Z</time>
      </trkpt>
      <trkpt lat="45.93863" lon="4.85068">
        <ele>273</ele>
        <time>2017-06-20T09:14:04Z</time>
      </trkpt>
      <trkpt lat="45.93864" lon="4.85081">
        <ele>273</ele>
        <time>2017-06-20T09:14:06Z</time>
      </trkpt>
      <trkpt lat="45.93864" lon="4.85086">
        <ele>274</ele>
        <time>2017-06-20T09:14:07Z</time>
      </trkpt>
      <trkpt lat="45.93865" lon="4.85098">
        <ele>274</ele>
        <time>2017-06-20T09:14:09Z</time>
      </trkpt>
      <trkpt lat="45.93866" lon="4.85104">
        <ele>274</ele>
        <time>2017-06-20T09:14:10Z</time>
      </trkpt>
      <trkpt lat="45.93867" lon="4.85115">
        <ele>274</ele>
        <time>2017-06-20T09:14:12Z</time>
      </trkpt>
      <trkpt lat="45.93867" lon="4.8512">
        <ele>274</ele>
        <time>2017-06-20T09:14:13Z</time>
      </trkpt>
      <trkpt lat="45.93867" lon="4.85127">
        <ele>274</ele>
        <time>2017-06-20T09:14:14Z</time>
      </trkpt>
      <trkpt lat="45.93867" lon="4.85133">
        <ele>274</ele>
        <time>2017-06-20T09:14:15Z</time>
      </trkpt>
      <trkpt lat="45.93868" lon="4.8514">
        <ele>274</ele>
        <time>2017-06-20T09:14:16Z</time>
      </trkpt>
      <trkpt lat="45.93868" lon="4.85147">
        <ele>275</ele>
        <time>2017-06-20T09:14:17Z</time>
      </trkpt>
      <trkpt lat="45.93869" lon="4.85154">
        <ele>275</ele>
        <time>2017-06-20T09:14:18Z</time>
      </trkpt>
      <trkpt lat="45.93869" lon="4.85161">
        <ele>275</ele>
        <time>2017-06-20T09:14:19Z</time>
      </trkpt>
      <trkpt lat="45.93869" lon="4.85168">
        <ele>276</ele>
        <time>2017-06-20T09:14:20Z</time>
      </trkpt>
      <trkpt lat="45.9387" lon="4.85175">
        <ele>276</ele>
        <time>2017-06-20T09:14:21Z</time>
      </trkpt>
      <trkpt lat="45.93871" lon="4.85187">
        <ele>276</ele>
        <time>2017-06-20T09:14:23Z</time>
      </trkpt>
      <trkpt lat="45.93871" lon="4.85193">
        <ele>276</ele>
        <time>2017-06-20T09:14:24Z</time>
      </trkpt>
      <trkpt lat="45.93873" lon="4.85202">
        <ele>276</ele>
        <time>2017-06-20T09:14:26Z</time>
      </trkpt>
      <trkpt lat="45.93873" lon="4.85207">
        <ele>276</ele>
        <time>2017-06-20T09:14:27Z</time>
      </trkpt>
      <trkpt lat="45.93874" lon="4.85216">
        <ele>276</ele>
        <time>2017-06-20T09:14:29Z</time>
      </trkpt>
      <trkpt lat="45.93874" lon="4.85221">
        <ele>276</ele>
        <time>2017-06-20T09:14:30Z</time>
      </trkpt>
      <trkpt lat="45.93874" lon="4.85231">
        <ele>276</ele>
        <time>2017-06-20T09:14:32Z</time>
      </trkpt>
      <trkpt lat="45.93875" lon="4.85236">
        <ele>276</ele>
        <time>2017-06-20T09:14:33Z</time>
      </trkpt>
      <trkpt lat="45.93876" lon="4.85246">
        <ele>276</ele>
        <time>2017-06-20T09:14:35Z</time>
      </trkpt>
      <trkpt lat="45.93875" lon="4.85251">
        <ele>278</ele>
        <time>2017-06-20T09:14:36Z</time>
      </trkpt>
      <trkpt lat="45.93875" lon="4.85261">
        <ele>278</ele>
        <time>2017-06-20T09:14:38Z</time>
      </trkpt>
      <trkpt lat="45.93875" lon="4.85266">
        <ele>278</ele>
        <time>2017-06-20T09:14:39Z</time>
      </trkpt>
      <trkpt lat="45.93874" lon="4.85277">
        <ele>278</ele>
        <time>2017-06-20T09:14:41Z</time>
      </trkpt>
      <trkpt lat="45.93873" lon="4.85282">
        <ele>278</ele>
        <time>2017-06-20T09:14:42Z</time>
      </trkpt>
      <trkpt lat="45.93872" lon="4.85293">
        <ele>278</ele>
        <time>2017-06-20T09:14:44Z</time>
      </trkpt>
      <trkpt lat="45.93871" lon="4.85297">
        <ele>278</ele>
        <time>2017-06-20T09:14:45Z</time>
      </trkpt>
      <trkpt lat="45.9387" lon="4.85308">
        <ele>279</ele>
        <time>2017-06-20T09:14:47Z</time>
      </trkpt>
      <trkpt lat="45.93869" lon="4.85313">
        <ele>279</ele>
        <time>2017-06-20T09:14:48Z</time>
      </trkpt>
      <trkpt lat="45.93867" lon="4.85323">
        <ele>279</ele>
        <time>2017-06-20T09:14:50Z</time>
      </trkpt>
      <trkpt lat="45.93865" lon="4.85329">
        <ele>279</ele>
        <time>2017-06-20T09:14:51Z</time>
      </trkpt>
      <trkpt lat="45.93862" lon="4.8534">
        <ele>281</ele>
        <time>2017-06-20T09:14:53Z</time>
      </trkpt>
      <trkpt lat="45.93861" lon="4.85346">
        <ele>281</ele>
        <time>2017-06-20T09:14:54Z</time>
      </trkpt>
      <trkpt lat="45.93859" lon="4.85357">
        <ele>281</ele>
        <time>2017-06-20T09:14:56Z</time>
      </trkpt>
      <trkpt lat="45.93857" lon="4.85362">
        <ele>281</ele>
        <time>2017-06-20T09:14:57Z</time>
      </trkpt>
      <trkpt lat="45.93854" lon="4.85372">
        <ele>281</ele>
        <time>2017-06-20T09:14:59Z</time>
      </trkpt>
      <trkpt lat="45.93853" lon="4.85378">
        <ele>281</ele>
        <time>2017-06-20T09:15:00Z</time>
      </trkpt>
      <trkpt lat="45.9385" lon="4.8539">
        <ele>281</ele>
        <time>2017-06-20T09:15:02Z</time>
      </trkpt>
      <trkpt lat="45.93849" lon="4.85395">
        <ele>281</ele>
        <time>2017-06-20T09:15:03Z</time>
      </trkpt>
      <trkpt lat="45.93846" lon="4.85406">
        <ele>281</ele>
        <time>2017-06-20T09:15:05Z</time>
      </trkpt>
      <trkpt lat="45.93845" lon="4.8541">
        <ele>281</ele>
        <time>2017-06-20T09:15:06Z</time>
      </trkpt>
      <trkpt lat="45.93842" lon="4.85422">
        <ele>282</ele>
        <time>2017-06-20T09:15:09Z</time>
      </trkpt>
      <trkpt lat="45.93841" lon="4.85426">
        <ele>282</ele>
        <time>2017-06-20T09:15:10Z</time>
      </trkpt>
      <trkpt lat="45.93839" lon="4.85438">
        <ele>283</ele>
        <time>2017-06-20T09:15:13Z</time>
      </trkpt>
      <trkpt lat="45.93839" lon="4.85442">
        <ele>283</ele>
        <time>2017-06-20T09:15:14Z</time>
      </trkpt>
      <trkpt lat="45.93837" lon="4.85453">
        <ele>283</ele>
        <time>2017-06-20T09:15:16Z</time>
      </trkpt>
      <trkpt lat="45.93836" lon="4.85458">
        <ele>283</ele>
        <time>2017-06-20T09:15:17Z</time>
      </trkpt>
      <trkpt lat="45.93834" lon="4.85469">
        <ele>283</ele>
        <time>2017-06-20T09:15:19Z</time>
      </trkpt>
      <trkpt lat="45.93833" lon="4.85474">
        <ele>282</ele>
        <time>2017-06-20T09:15:20Z</time>
      </trkpt>
      <trkpt lat="45.93831" lon="4.85485">
        <ele>282</ele>
        <time>2017-06-20T09:15:22Z</time>
      </trkpt>
      <trkpt lat="45.9383" lon="4.85491">
        <ele>282</ele>
        <time>2017-06-20T09:15:23Z</time>
      </trkpt>
      <trkpt lat="45.93829" lon="4.85503">
        <ele>283</ele>
        <time>2017-06-20T09:15:25Z</time>
      </trkpt>
      <trkpt lat="45.93828" lon="4.85508">
        <ele>283</ele>
        <time>2017-06-20T09:15:26Z</time>
      </trkpt>
      <trkpt lat="45.93826" lon="4.85517">
        <ele>282</ele>
        <time>2017-06-20T09:15:28Z</time>
      </trkpt>
      <trkpt lat="45.93825" lon="4.85523">
        <ele>282</ele>
        <time>2017-06-20T09:15:29Z</time>
      </trkpt>
      <trkpt lat="45.93824" lon="4.85534">
        <ele>282</ele>
        <time>2017-06-20T09:15:31Z</time>
      </trkpt>
      <trkpt lat="45.93823" lon="4.85539">
        <ele>282</ele>
        <time>2017-06-20T09:15:32Z</time>
      </trkpt>
      <trkpt lat="45.93821" lon="4.85549">
        <ele>282</ele>
        <time>2017-06-20T09:15:34Z</time>
      </trkpt>
      <trkpt lat="45.9382" lon="4.85555">
        <ele>282</ele>
        <time>2017-06-20T09:15:35Z</time>
      </trkpt>
      <trkpt lat="45.93819" lon="4.85566">
        <ele>283</ele>
        <time>2017-06-20T09:15:37Z</time>
      </trkpt>
      <trkpt lat="45.93818" lon="4.85572">
        <ele>283</ele>
        <time>2017-06-20T09:15:38Z</time>
      </trkpt>
      <trkpt lat="45.93817" lon="4.85585">
        <ele>283</ele>
        <time>2017-06-20T09:15:40Z</time>
      </trkpt>
      <trkpt lat="45.93817" lon="4.85591">
        <ele>283</ele>
        <time>2017-06-20T09:15:41Z</time>
      </trkpt>
      <trkpt lat="45.93815" lon="4.85602">
        <ele>283</ele>
        <time>2017-06-20T09:15:43Z</time>
      </trkpt>
      <trkpt lat="45.93815" lon="4.85607">
        <ele>283</ele>
        <time>2017-06-20T09:15:44Z</time>
      </trkpt>
      <trkpt lat="45.93815" lon="4.85618">
        <ele>283</ele>
        <time>2017-06-20T09:15:46Z</time>
      </trkpt>
      <trkpt lat="45.93815" lon="4.85624">
        <ele>283</ele>
        <time>2017-06-20T09:15:47Z</time>
      </trkpt>
      <trkpt lat="45.93815" lon="4.85635">
        <ele>283</ele>
        <time>2017-06-20T09:15:49Z</time>
      </trkpt>
      <trkpt lat="45.93815" lon="4.85641">
        <ele>283</ele>
        <time>2017-06-20T09:15:50Z</time>
      </trkpt>
      <trkpt lat="45.93815" lon="4.85652">
        <ele>283</ele>
        <time>2017-06-20T09:15:52Z</time>
      </trkpt>
      <trkpt lat="45.93815" lon="4.85658">
        <ele>283</ele>
        <time>2017-06-20T09:15:53Z</time>
      </trkpt>
      <trkpt lat="45.93817" lon="4.85668">
        <ele>283</ele>
        <time>2017-06-20T09:15:55Z</time>
      </trkpt>
      <trkpt lat="45.93817" lon="4.85673">
        <ele>283</ele>
        <time>2017-06-20T09:15:56Z</time>
      </trkpt>
      <trkpt lat="45.93818" lon="4.85683">
        <ele>283</ele>
        <time>2017-06-20T09:15:58Z</time>
      </trkpt>
      <trkpt lat="45.93819" lon="4.85689">
        <ele>283</ele>
        <time>2017-06-20T09:15:59Z</time>
      </trkpt>
      <trkpt lat="45.93821" lon="4.85701">
        <ele>283</ele>
        <time>2017-06-20T09:16:01Z</time>
      </trkpt>
      <trkpt lat="45.93821" lon="4.85707">
        <ele>283</ele>
        <time>2017-06-20T09:16:02Z</time>
      </trkpt>
      <trkpt lat="45.93823" lon="4.85718">
        <ele>283</ele>
        <time>2017-06-20T09:16:04Z</time>
      </trkpt>
      <trkpt lat="45.93824" lon="4.85724">
        <ele>283</ele>
        <time>2017-06-20T09:16:05Z</time>
      </trkpt>
      <trkpt lat="45.93826" lon="4.85736">
        <ele>283</ele>
        <time>2017-06-20T09:16:07Z</time>
      </trkpt>
      <trkpt lat="45.93827" lon="4.85742">
        <ele>283</ele>
        <time>2017-06-20T09:16:08Z</time>
      </trkpt>
      <trkpt lat="45.93829" lon="4.85754">
        <ele>283</ele>
        <time>2017-06-20T09:16:10Z</time>
      </trkpt>
      <trkpt lat="45.9383" lon="4.8576">
        <ele>283</ele>
        <time>2017-06-20T09:16:11Z</time>
      </trkpt>
      <trkpt lat="45.93831" lon="4.85766">
        <ele>283</ele>
        <time>2017-06-20T09:16:12Z</time>
      </trkpt>
      <trkpt lat="45.93832" lon="4.85773">
        <ele>283</ele>
        <time>2017-06-20T09:16:13Z</time>
      </trkpt>
      <trkpt lat="45.93833" lon="4.85785">
        <ele>283</ele>
        <time>2017-06-20T09:16:15Z</time>
      </trkpt>
      <trkpt lat="45.93834" lon="4.85791">
        <ele>284</ele>
        <time>2017-06-20T09:16:16Z</time>
      </trkpt>
      <trkpt lat="45.93836" lon="4.85802">
        <ele>284</ele>
        <time>2017-06-20T09:16:18Z</time>
      </trkpt>
      <trkpt lat="45.93836" lon="4.85807">
        <ele>284</ele>
        <time>2017-06-20T09:16:19Z</time>
      </trkpt>
      <trkpt lat="45.93838" lon="4.85816">
        <ele>284</ele>
        <time>2017-06-20T09:16:21Z</time>
      </trkpt>
      <trkpt lat="45.93838" lon="4.8582">
        <ele>284</ele>
        <time>2017-06-20T09:16:22Z</time>
      </trkpt>
      <trkpt lat="45.9384" lon="4.85832">
        <ele>283</ele>
        <time>2017-06-20T09:16:25Z</time>
      </trkpt>
      <trkpt lat="45.93841" lon="4.85836">
        <ele>283</ele>
        <time>2017-06-20T09:16:26Z</time>
      </trkpt>
      <trkpt lat="45.93844" lon="4.85848">
        <ele>284</ele>
        <time>2017-06-20T09:16:29Z</time>
      </trkpt>
      <trkpt lat="45.93845" lon="4.85853">
        <ele>284</ele>
        <time>2017-06-20T09:16:30Z</time>
      </trkpt>
      <trkpt lat="45.93846" lon="4.85864">
        <ele>284</ele>
        <time>2017-06-20T09:16:32Z</time>
      </trkpt>
      <trkpt lat="45.93847" lon="4.85869">
        <ele>284</ele>
        <time>2017-06-20T09:16:33Z</time>
      </trkpt>
      <trkpt lat="45.93849" lon="4.8588">
        <ele>284</ele>
        <time>2017-06-20T09:16:35Z</time>
      </trkpt>
      <trkpt lat="45.93849" lon="4.85886">
        <ele>284</ele>
        <time>2017-06-20T09:16:36Z</time>
      </trkpt>
      <trkpt lat="45.9385" lon="4.85898">
        <ele>284</ele>
        <time>2017-06-20T09:16:38Z</time>
      </trkpt>
      <trkpt lat="45.93851" lon="4.85903">
        <ele>284</ele>
        <time>2017-06-20T09:16:39Z</time>
      </trkpt>
      <trkpt lat="45.93853" lon="4.85913">
        <ele>285</ele>
        <time>2017-06-20T09:16:41Z</time>
      </trkpt>
      <trkpt lat="45.93853" lon="4.85918">
        <ele>285</ele>
        <time>2017-06-20T09:16:42Z</time>
      </trkpt>
      <trkpt lat="45.93853" lon="4.85928">
        <ele>285</ele>
        <time>2017-06-20T09:16:44Z</time>
      </trkpt>
      <trkpt lat="45.93854" lon="4.85934">
        <ele>285</ele>
        <time>2017-06-20T09:16:45Z</time>
      </trkpt>
      <trkpt lat="45.93856" lon="4.85944">
        <ele>284</ele>
        <time>2017-06-20T09:16:47Z</time>
      </trkpt>
      <trkpt lat="45.93856" lon="4.85949">
        <ele>284</ele>
        <time>2017-06-20T09:16:48Z</time>
      </trkpt>
      <trkpt lat="45.93857" lon="4.8596">
        <ele>284</ele>
        <time>2017-06-20T09:16:50Z</time>
      </trkpt>
      <trkpt lat="45.93857" lon="4.85965">
        <ele>284</ele>
        <time>2017-06-20T09:16:51Z</time>
      </trkpt>
      <trkpt lat="45.93858" lon="4.85977">
        <ele>284</ele>
        <time>2017-06-20T09:16:53Z</time>
      </trkpt>
      <trkpt lat="45.93858" lon="4.85982">
        <ele>284</ele>
        <time>2017-06-20T09:16:54Z</time>
      </trkpt>
      <trkpt lat="45.93859" lon="4.85993">
        <ele>284</ele>
        <time>2017-06-20T09:16:56Z</time>
      </trkpt>
      <trkpt lat="45.9386" lon="4.85999">
        <ele>284</ele>
        <time>2017-06-20T09:16:57Z</time>
      </trkpt>
      <trkpt lat="45.9386" lon="4.8601">
        <ele>284</ele>
        <time>2017-06-20T09:16:59Z</time>
      </trkpt>
      <trkpt lat="45.9386" lon="4.86015">
        <ele>284</ele>
        <time>2017-06-20T09:17:00Z</time>
      </trkpt>
      <trkpt lat="45.9386" lon="4.86026">
        <ele>284</ele>
        <time>2017-06-20T09:17:02Z</time>
      </trkpt>
      <trkpt lat="45.93861" lon="4.86032">
        <ele>284</ele>
        <time>2017-06-20T09:17:03Z</time>
      </trkpt>
      <trkpt lat="45.93862" lon="4.86042">
        <ele>284</ele>
        <time>2017-06-20T09:17:05Z</time>
      </trkpt>
      <trkpt lat="45.93862" lon="4.86047">
        <ele>284</ele>
        <time>2017-06-20T09:17:06Z</time>
      </trkpt>
      <trkpt lat="45.93863" lon="4.86057">
        <ele>285</ele>
        <time>2017-06-20T09:17:08Z</time>
      </trkpt>
      <trkpt lat="45.93864" lon="4.86062">
        <ele>285</ele>
        <time>2017-06-20T09:17:09Z</time>
      </trkpt>
      <trkpt lat="45.93865" lon="4.86073">
        <ele>285</ele>
        <time>2017-06-20T09:17:11Z</time>
      </trkpt>
      <trkpt lat="45.93865" lon="4.86078">
        <ele>285</ele>
        <time>2017-06-20T09:17:12Z</time>
      </trkpt>
      <trkpt lat="45.93866" lon="4.86089">
        <ele>286</ele>
        <time>2017-06-20T09:17:14Z</time>
      </trkpt>
      <trkpt lat="45.93867" lon="4.86094">
        <ele>286</ele>
        <time>2017-06-20T09:17:15Z</time>
      </trkpt>
      <trkpt lat="45.93868" lon="4.86107">
        <ele>286</ele>
        <time>2017-06-20T09:17:17Z</time>
      </trkpt>
      <trkpt lat="45.93868" lon="4.86114">
        <ele>286</ele>
        <time>2017-06-20T09:17:18Z</time>
      </trkpt>
      <trkpt lat="45.93869" lon="4.86126">
        <ele>286</ele>
        <time>2017-06-20T09:17:20Z</time>
      </trkpt>
      <trkpt lat="45.93869" lon="4.86132">
        <ele>286</ele>
        <time>2017-06-20T09:17:21Z</time>
      </trkpt>
      <trkpt lat="45.93869" lon="4.86143">
        <ele>286</ele>
        <time>2017-06-20T09:17:23Z</time>
      </trkpt>
      <trkpt lat="45.9387" lon="4.8615">
        <ele>286</ele>
        <time>2017-06-20T09:17:24Z</time>
      </trkpt>
      <trkpt lat="45.9387" lon="4.86157">
        <ele>286</ele>
        <time>2017-06-20T09:17:25Z</time>
      </trkpt>
      <trkpt lat="45.93871" lon="4.86164">
        <ele>286</ele>
        <time>2017-06-20T09:17:26Z</time>
      </trkpt>
      <trkpt lat="45.93871" lon="4.86171">
        <ele>287</ele>
        <time>2017-06-20T09:17:27Z</time>
      </trkpt>
      <trkpt lat="45.93872" lon="4.86179">
        <ele>287</ele>
        <time>2017-06-20T09:17:28Z</time>
      </trkpt>
      <trkpt lat="45.93872" lon="4.86186">
        <ele>287</ele>
        <time>2017-06-20T09:17:29Z</time>
      </trkpt>
      <trkpt lat="45.93873" lon="4.86192">
        <ele>287</ele>
        <time>2017-06-20T09:17:30Z</time>
      </trkpt>
      <trkpt lat="45.93873" lon="4.86199">
        <ele>287</ele>
        <time>2017-06-20T09:17:31Z</time>
      </trkpt>
      <trkpt lat="45.93873" lon="4.86205">
        <ele>288</ele>
        <time>2017-06-20T09:17:32Z</time>
      </trkpt>
      <trkpt lat="45.93874" lon="4.86217">
        <ele>288</ele>
        <time>2017-06-20T09:17:34Z</time>
      </trkpt>
      <trkpt lat="45.93874" lon="4.86222">
        <ele>288</ele>
        <time>2017-06-20T09:17:35Z</time>
      </trkpt>
      <trkpt lat="45.93874" lon="4.86233">
        <ele>288</ele>
        <time>2017-06-20T09:17:37Z</time>
      </trkpt>
      <trkpt lat="45.93873" lon="4.86239">
        <ele>288</ele>
        <time>2017-06-20T09:17:38Z</time>
      </trkpt>
      <trkpt lat="45.93873" lon="4.8625">
        <ele>288</ele>
        <time>2017-06-20T09:17:40Z</time>
      </trkpt>
      <trkpt lat="45.93873" lon="4.86255">
        <ele>288</ele>
        <time>2017-06-20T09:17:41Z</time>
      </trkpt>
      <trkpt lat="45.93873" lon="4.86267">
        <ele>288</ele>
        <time>2017-06-20T09:17:43Z</time>
      </trkpt>
      <trkpt lat="45.93872" lon="4.86272">
        <ele>288</ele>
        <time>2017-06-20T09:17:44Z</time>
      </trkpt>
      <trkpt lat="45.93871" lon="4.86283">
        <ele>288</ele>
        <time>2017-06-20T09:17:46Z</time>
      </trkpt>
      <trkpt lat="45.9387" lon="4.86288">
        <ele>288</ele>
        <time>2017-06-20T09:17:47Z</time>
      </trkpt>
      <trkpt lat="45.93869" lon="4.863">
        <ele>288</ele>
        <time>2017-06-20T09:17:49Z</time>
      </trkpt>
      <trkpt lat="45.93868" lon="4.86305">
        <ele>288</ele>
        <time>2017-06-20T09:17:50Z</time>
      </trkpt>
      <trkpt lat="45.93867" lon="4.86315">
        <ele>288</ele>
        <time>2017-06-20T09:17:52Z</time>
      </trkpt>
      <trkpt lat="45.93866" lon="4.8632">
        <ele>288</ele>
        <time>2017-06-20T09:17:53Z</time>
      </trkpt>
      <trkpt lat="45.93865" lon="4.8633">
        <ele>288</ele>
        <time>2017-06-20T09:17:55Z</time>
      </trkpt>
      <trkpt lat="45.93864" lon="4.86335">
        <ele>288</ele>
        <time>2017-06-20T09:17:56Z</time>
      </trkpt>
      <trkpt lat="45.93862" lon="4.86347">
        <ele>288</ele>
        <time>2017-06-20T09:17:58Z</time>
      </trkpt>
      <trkpt lat="45.93861" lon="4.86354">
        <ele>288</ele>
        <time>2017-06-20T09:17:59Z</time>
      </trkpt>
      <trkpt lat="45.9386" lon="4.86366">
        <ele>288</ele>
        <time>2017-06-20T09:18:01Z</time>
      </trkpt>
      <trkpt lat="45.93859" lon="4.86372">
        <ele>288</ele>
        <time>2017-06-20T09:18:02Z</time>
      </trkpt>
      <trkpt lat="45.93857" lon="4.86384">
        <ele>288</ele>
        <time>2017-06-20T09:18:04Z</time>
      </trkpt>
      <trkpt lat="45.93856" lon="4.8639">
        <ele>288</ele>
        <time>2017-06-20T09:18:05Z</time>
      </trkpt>
      <trkpt lat="45.93855" lon="4.86402">
        <ele>288</ele>
        <time>2017-06-20T09:18:07Z</time>
      </trkpt>
      <trkpt lat="45.93854" lon="4.86408">
        <ele>288</ele>
        <time>2017-06-20T09:18:08Z</time>
      </trkpt>
      <trkpt lat="45.93853" lon="4.86419">
        <ele>288</ele>
        <time>2017-06-20T09:18:10Z</time>
      </trkpt>
      <trkpt lat="45.93852" lon="4.86425">
        <ele>288</ele>
        <time>2017-06-20T09:18:11Z</time>
      </trkpt>
      <trkpt lat="45.9385" lon="4.86437">
        <ele>288</ele>
        <time>2017-06-20T09:18:13Z</time>
      </trkpt>
      <trkpt lat="45.93849" lon="4.86444">
        <ele>288</ele>
        <time>2017-06-20T09:18:14Z</time>
      </trkpt>
      <trkpt lat="45.93848" lon="4.8645">
        <ele>288</ele>
        <time>2017-06-20T09:18:15Z</time>
      </trkpt>
      <trkpt lat="45.93848" lon="4.86457">
        <ele>288</ele>
        <time>2017-06-20T09:18:16Z</time>
      </trkpt>
      <trkpt lat="45.93846" lon="4.86469">
        <ele>288</ele>
        <time>2017-06-20T09:18:18Z</time>
      </trkpt>
      <trkpt lat="45.93845" lon="4.86474">
        <ele>288</ele>
        <time>2017-06-20T09:18:19Z</time>
      </trkpt>
      <trkpt lat="45.93843" lon="4.86486">
        <ele>288</ele>
        <time>2017-06-20T09:18:21Z</time>
      </trkpt>
      <trkpt lat="45.93842" lon="4.86492">
        <ele>288</ele>
        <time>2017-06-20T09:18:22Z</time>
      </trkpt>
      <trkpt lat="45.9384" lon="4.86505">
        <ele>288</ele>
        <time>2017-06-20T09:18:24Z</time>
      </trkpt>
      <trkpt lat="45.93839" lon="4.86511">
        <ele>288</ele>
        <time>2017-06-20T09:18:25Z</time>
      </trkpt>
      <trkpt lat="45.93838" lon="4.86518">
        <ele>288</ele>
        <time>2017-06-20T09:18:26Z</time>
      </trkpt>
      <trkpt lat="45.93837" lon="4.86524">
        <ele>288</ele>
        <time>2017-06-20T09:18:27Z</time>
      </trkpt>
      <trkpt lat="45.93836" lon="4.86531">
        <ele>288</ele>
        <time>2017-06-20T09:18:28Z</time>
      </trkpt>
      <trkpt lat="45.93836" lon="4.86537">
        <ele>288</ele>
        <time>2017-06-20T09:18:29Z</time>
      </trkpt>
      <trkpt lat="45.93834" lon="4.86549">
        <ele>288</ele>
        <time>2017-06-20T09:18:31Z</time>
      </trkpt>
      <trkpt lat="45.93833" lon="4.86555">
        <ele>290</ele>
        <time>2017-06-20T09:18:32Z</time>
      </trkpt>
      <trkpt lat="45.93831" lon="4.86566">
        <ele>289</ele>
        <time>2017-06-20T09:18:34Z</time>
      </trkpt>
      <trkpt lat="45.9383" lon="4.86573">
        <ele>289</ele>
        <time>2017-06-20T09:18:35Z</time>
      </trkpt>
      <trkpt lat="45.93829" lon="4.86585">
        <ele>288</ele>
        <time>2017-06-20T09:18:37Z</time>
      </trkpt>
      <trkpt lat="45.93828" lon="4.86591">
        <ele>288</ele>
        <time>2017-06-20T09:18:38Z</time>
      </trkpt>
      <trkpt lat="45.93826" lon="4.86603">
        <ele>288</ele>
        <time>2017-06-20T09:18:40Z</time>
      </trkpt>
      <trkpt lat="45.93825" lon="4.86609">
        <ele>288</ele>
        <time>2017-06-20T09:18:41Z</time>
      </trkpt>
      <trkpt lat="45.93823" lon="4.8662">
        <ele>288</ele>
        <time>2017-06-20T09:18:43Z</time>
      </trkpt>
      <trkpt lat="45.93822" lon="4.86626">
        <ele>288</ele>
        <time>2017-06-20T09:18:44Z</time>
      </trkpt>
      <trkpt lat="45.93821" lon="4.86636">
        <ele>288</ele>
        <time>2017-06-20T09:18:46Z</time>
      </trkpt>
      <trkpt lat="45.9382" lon="4.86642">
        <ele>288</ele>
        <time>2017-06-20T09:18:47Z</time>
      </trkpt>
      <trkpt lat="45.93819" lon="4.86652">
        <ele>288</ele>
        <time>2017-06-20T09:18:49Z</time>
      </trkpt>
      <trkpt lat="45.93819" lon="4.86657">
        <ele>288</ele>
        <time>2017-06-20T09:18:50Z</time>
      </trkpt>
      <trkpt lat="45.93817" lon="4.86668">
        <ele>287</ele>
        <time>2017-06-20T09:18:52Z</time>
      </trkpt>
      <trkpt lat="45.93816" lon="4.86674">
        <ele>287</ele>
        <time>2017-06-20T09:18:53Z</time>
      </trkpt>
      <trkpt lat="45.93814" lon="4.86684">
        <ele>287</ele>
        <time>2017-06-20T09:18:55Z</time>
      </trkpt>
      <trkpt lat="45.93813" lon="4.8669">
        <ele>287</ele>
        <time>2017-06-20T09:18:56Z</time>
      </trkpt>
      <trkpt lat="45.93812" lon="4.867">
        <ele>287</ele>
        <time>2017-06-20T09:18:58Z</time>
      </trkpt>
      <trkpt lat="45.93812" lon="4.86705">
        <ele>287</ele>
        <time>2017-06-20T09:18:59Z</time>
      </trkpt>
      <trkpt lat="45.93811" lon="4.86715">
        <ele>287</ele>
        <time>2017-06-20T09:19:01Z</time>
      </trkpt>
      <trkpt lat="45.9381" lon="4.8672">
        <ele>287</ele>
        <time>2017-06-20T09:19:02Z</time>
      </trkpt>
      <trkpt lat="45.93809" lon="4.8673">
        <ele>287</ele>
        <time>2017-06-20T09:19:04Z</time>
      </trkpt>
      <trkpt lat="45.93809" lon="4.86735">
        <ele>286</ele>
        <time>2017-06-20T09:19:05Z</time>
      </trkpt>
      <trkpt lat="45.93808" lon="4.86745">
        <ele>286</ele>
        <time>2017-06-20T09:19:07Z</time>
      </trkpt>
      <trkpt lat="45.93807" lon="4.8675">
        <ele>286</ele>
        <time>2017-06-20T09:19:08Z</time>
      </trkpt>
      <trkpt lat="45.93806" lon="4.86759">
        <ele>286</ele>
        <time>2017-06-20T09:19:10Z</time>
      </trkpt>
      <trkpt lat="45.93805" lon="4.86763">
        <ele>286</ele>
        <time>2017-06-20T09:19:11Z</time>
      </trkpt>
      <trkpt lat="45.93803" lon="4.86773">
        <ele>286</ele>
        <time>2017-06-20T09:19:13Z</time>
      </trkpt>
      <trkpt lat="45.93802" lon="4.86779">
        <ele>286</ele>
        <time>2017-06-20T09:19:14Z</time>
      </trkpt>
      <trkpt lat="45.93799" lon="4.8679">
        <ele>286</ele>
        <time>2017-06-20T09:19:16Z</time>
      </trkpt>
      <trkpt lat="45.93798" lon="4.86794">
        <ele>286</ele>
        <time>2017-06-20T09:19:17Z</time>
      </trkpt>
      <trkpt lat="45.93796" lon="4.86804">
        <ele>286</ele>
        <time>2017-06-20T09:19:19Z</time>
      </trkpt>
      <trkpt lat="45.93795" lon="4.86809">
        <ele>286</ele>
        <time>2017-06-20T09:19:20Z</time>
      </trkpt>
      <trkpt lat="45.93794" lon="4.86819">
        <ele>286</ele>
        <time>2017-06-20T09:19:22Z</time>
      </trkpt>
      <trkpt lat="45.93793" lon="4.86824">
        <ele>286</ele>
        <time>2017-06-20T09:19:23Z</time>
      </trkpt>
      <trkpt lat="45.93791" lon="4.86833">
        <ele>286</ele>
        <time>2017-06-20T09:19:25Z</time>
      </trkpt>
      <trkpt lat="45.93791" lon="4.86839">
        <ele>286</ele>
        <time>2017-06-20T09:19:26Z</time>
      </trkpt>
      <trkpt lat="45.9379" lon="4.86849">
        <ele>286</ele>
        <time>2017-06-20T09:19:28Z</time>
      </trkpt>
      <trkpt lat="45.93788" lon="4.86855">
        <ele>286</ele>
        <time>2017-06-20T09:19:29Z</time>
      </trkpt>
      <trkpt lat="45.93786" lon="4.86867">
        <ele>286</ele>
        <time>2017-06-20T09:19:31Z</time>
      </trkpt>
      <trkpt lat="45.93785" lon="4.86873">
        <ele>286</ele>
        <time>2017-06-20T09:19:32Z</time>
      </trkpt>
      <trkpt lat="45.93785" lon="4.8688">
        <ele>286</ele>
        <time>2017-06-20T09:19:33Z</time>
      </trkpt>
      <trkpt lat="45.93783" lon="4.86886">
        <ele>286</ele>
        <time>2017-06-20T09:19:34Z</time>
      </trkpt>
      <trkpt lat="45.93782" lon="4.86892">
        <ele>286</ele>
        <time>2017-06-20T09:19:35Z</time>
      </trkpt>
      <trkpt lat="45.93781" lon="4.869">
        <ele>286</ele>
        <time>2017-06-20T09:19:36Z</time>
      </trkpt>
      <trkpt lat="45.9378" lon="4.86907">
        <ele>285</ele>
        <time>2017-06-20T09:19:37Z</time>
      </trkpt>
      <trkpt lat="45.93779" lon="4.86915">
        <ele>285</ele>
        <time>2017-06-20T09:19:38Z</time>
      </trkpt>
      <trkpt lat="45.93778" lon="4.86922">
        <ele>285</ele>
        <time>2017-06-20T09:19:39Z</time>
      </trkpt>
      <trkpt lat="45.93777" lon="4.8693">
        <ele>285</ele>
        <time>2017-06-20T09:19:40Z</time>
      </trkpt>
      <trkpt lat="45.93776" lon="4.86938">
        <ele>285</ele>
        <time>2017-06-20T09:19:41Z</time>
      </trkpt>
      <trkpt lat="45.93775" lon="4.86946">
        <ele>285</ele>
        <time>2017-06-20T09:19:42Z</time>
      </trkpt>
      <trkpt lat="45.93774" lon="4.86953">
        <ele>285</ele>
        <time>2017-06-20T09:19:43Z</time>
      </trkpt>
      <trkpt lat="45.93773" lon="4.86961">
        <ele>285</ele>
        <time>2017-06-20T09:19:44Z</time>
      </trkpt>
      <trkpt lat="45.9377" lon="4.86968">
        <ele>285</ele>
        <time>2017-06-20T09:19:45Z</time>
      </trkpt>
      <trkpt lat="45.93769" lon="4.86976">
        <ele>285</ele>
        <time>2017-06-20T09:19:46Z</time>
      </trkpt>
      <trkpt lat="45.93768" lon="4.86985">
        <ele>285</ele>
        <time>2017-06-20T09:19:47Z</time>
      </trkpt>
      <trkpt lat="45.93767" lon="4.86993">
        <ele>285</ele>
        <time>2017-06-20T09:19:48Z</time>
      </trkpt>
      <trkpt lat="45.93766" lon="4.87003">
        <ele>284</ele>
        <time>2017-06-20T09:19:49Z</time>
      </trkpt>
      <trkpt lat="45.93765" lon="4.87012">
        <ele>284</ele>
        <time>2017-06-20T09:19:50Z</time>
      </trkpt>
      <trkpt lat="45.93764" lon="4.87021">
        <ele>284</ele>
        <time>2017-06-20T09:19:51Z</time>
      </trkpt>
      <trkpt lat="45.93762" lon="4.8703">
        <ele>284</ele>
        <time>2017-06-20T09:19:52Z</time>
      </trkpt>
      <trkpt lat="45.93761" lon="4.87039">
        <ele>284</ele>
        <time>2017-06-20T09:19:53Z</time>
      </trkpt>
      <trkpt lat="45.9376" lon="4.87049">
        <ele>284</ele>
        <time>2017-06-20T09:19:54Z</time>
      </trkpt>
      <trkpt lat="45.93758" lon="4.87059">
        <ele>284</ele>
        <time>2017-06-20T09:19:55Z</time>
      </trkpt>
      <trkpt lat="45.93757" lon="4.87069">
        <ele>284</ele>
        <time>2017-06-20T09:19:56Z</time>
      </trkpt>
      <trkpt lat="45.93756" lon="4.87078">
        <ele>284</ele>
        <time>2017-06-20T09:19:57Z</time>
      </trkpt>
      <trkpt lat="45.93754" lon="4.87089">
        <ele>284</ele>
        <time>2017-06-20T09:19:58Z</time>
      </trkpt>
      <trkpt lat="45.93752" lon="4.87098">
        <ele>284</ele>
        <time>2017-06-20T09:19:59Z</time>
      </trkpt>
      <trkpt lat="45.93751" lon="4.87108">
        <ele>284</ele>
        <time>2017-06-20T09:20:00Z</time>
      </trkpt>
      <trkpt lat="45.93749" lon="4.87118">
        <ele>285</ele>
        <time>2017-06-20T09:20:01Z</time>
      </trkpt>
      <trkpt lat="45.93748" lon="4.87128">
        <ele>285</ele>
        <time>2017-06-20T09:20:02Z</time>
      </trkpt>
      <trkpt lat="45.93746" lon="4.87138">
        <ele>285</ele>
        <time>2017-06-20T09:20:03Z</time>
      </trkpt>
      <trkpt lat="45.93745" lon="4.87148">
        <ele>285</ele>
        <time>2017-06-20T09:20:04Z</time>
      </trkpt>
      <trkpt lat="45.93743" lon="4.87158">
        <ele>285</ele>
        <time>2017-06-20T09:20:05Z</time>
      </trkpt>
      <trkpt lat="45.93742" lon="4.87167">
        <ele>285</ele>
        <time>2017-06-20T09:20:06Z</time>
      </trkpt>
      <trkpt lat="45.9374" lon="4.87176">
        <ele>285</ele>
        <time>2017-06-20T09:20:07Z</time>
      </trkpt>
      <trkpt lat="45.93739" lon="4.87185">
        <ele>285</ele>
        <time>2017-06-20T09:20:08Z</time>
      </trkpt>
      <trkpt lat="45.93738" lon="4.87194">
        <ele>285</ele>
        <time>2017-06-20T09:20:09Z</time>
      </trkpt>
      <trkpt lat="45.93737" lon="4.87203">
        <ele>285</ele>
        <time>2017-06-20T09:20:10Z</time>
      </trkpt>
      <trkpt lat="45.93736" lon="4.87211">
        <ele>285</ele>
        <time>2017-06-20T09:20:11Z</time>
      </trkpt>
      <trkpt lat="45.93735" lon="4.8722">
        <ele>285</ele>
        <time>2017-06-20T09:20:12Z</time>
      </trkpt>
      <trkpt lat="45.93734" lon="4.87227">
        <ele>285</ele>
        <time>2017-06-20T09:20:13Z</time>
      </trkpt>
      <trkpt lat="45.93733" lon="4.87235">
        <ele>285</ele>
        <time>2017-06-20T09:20:14Z</time>
      </trkpt>
      <trkpt lat="45.93731" lon="4.87243">
        <ele>285</ele>
        <time>2017-06-20T09:20:15Z</time>
      </trkpt>
      <trkpt lat="45.9373" lon="4.87251">
        <ele>285</ele>
        <time>2017-06-20T09:20:16Z</time>
      </trkpt>
      <trkpt lat="45.93729" lon="4.87258">
        <ele>285</ele>
        <time>2017-06-20T09:20:17Z</time>
      </trkpt>
      <trkpt lat="45.93729" lon="4.87265">
        <ele>285</ele>
        <time>2017-06-20T09:20:18Z</time>
      </trkpt>
      <trkpt lat="45.93728" lon="4.87273">
        <ele>285</ele>
        <time>2017-06-20T09:20:19Z</time>
      </trkpt>
      <trkpt lat="45.93727" lon="4.87279">
        <ele>285</ele>
        <time>2017-06-20T09:20:20Z</time>
      </trkpt>
      <trkpt lat="45.93726" lon="4.87286">
        <ele>285</ele>
        <time>2017-06-20T09:20:21Z</time>
      </trkpt>
      <trkpt lat="45.93724" lon="4.87292">
        <ele>285</ele>
        <time>2017-06-20T09:20:22Z</time>
      </trkpt>
      <trkpt lat="45.93723" lon="4.87299">
        <ele>285</ele>
        <time>2017-06-20T09:20:23Z</time>
      </trkpt>
      <trkpt lat="45.93722" lon="4.87306">
        <ele>285</ele>
        <time>2017-06-20T09:20:24Z</time>
      </trkpt>
      <trkpt lat="45.9372" lon="4.87313">
        <ele>285</ele>
        <time>2017-06-20T09:20:25Z</time>
      </trkpt>
      <trkpt lat="45.93719" lon="4.87319">
        <ele>285</ele>
        <time>2017-06-20T09:20:26Z</time>
      </trkpt>
      <trkpt lat="45.93717" lon="4.87326">
        <ele>285</ele>
        <time>2017-06-20T09:20:27Z</time>
      </trkpt>
      <trkpt lat="45.93716" lon="4.87333">
        <ele>285</ele>
        <time>2017-06-20T09:20:28Z</time>
      </trkpt>
      <trkpt lat="45.93715" lon="4.87339">
        <ele>284</ele>
        <time>2017-06-20T09:20:29Z</time>
      </trkpt>
      <trkpt lat="45.93713" lon="4.87346">
        <ele>284</ele>
        <time>2017-06-20T09:20:30Z</time>
      </trkpt>
      <trkpt lat="45.93712" lon="4.87353">
        <ele>284</ele>
        <time>2017-06-20T09:20:31Z</time>
      </trkpt>
      <trkpt lat="45.9371" lon="4.8736">
        <ele>284</ele>
        <time>2017-06-20T09:20:32Z</time>
      </trkpt>
      <trkpt lat="45.93708" lon="4.87367">
        <ele>284</ele>
        <time>2017-06-20T09:20:33Z</time>
      </trkpt>
      <trkpt lat="45.93706" lon="4.87373">
        <ele>284</ele>
        <time>2017-06-20T09:20:34Z</time>
      </trkpt>
      <trkpt lat="45.93704" lon="4.87381">
        <ele>284</ele>
        <time>2017-06-20T09:20:35Z</time>
      </trkpt>
      <trkpt lat="45.93702" lon="4.87387">
        <ele>284</ele>
        <time>2017-06-20T09:20:36Z</time>
      </trkpt>
      <trkpt lat="45.93699" lon="4.87394">
        <ele>284</ele>
        <time>2017-06-20T09:20:37Z</time>
      </trkpt>
      <trkpt lat="45.93697" lon="4.87401">
        <ele>284</ele>
        <time>2017-06-20T09:20:38Z</time>
      </trkpt>
      <trkpt lat="45.93695" lon="4.87406">
        <ele>284</ele>
        <time>2017-06-20T09:20:39Z</time>
      </trkpt>
      <trkpt lat="45.93692" lon="4.87412">
        <ele>284</ele>
        <time>2017-06-20T09:20:40Z</time>
      </trkpt>
      <trkpt lat="45.9369" lon="4.87419">
        <ele>284</ele>
        <time>2017-06-20T09:20:41Z</time>
      </trkpt>
      <trkpt lat="45.93687" lon="4.87427">
        <ele>284</ele>
        <time>2017-06-20T09:20:42Z</time>
      </trkpt>
      <trkpt lat="45.93684" lon="4.87434">
        <ele>284</ele>
        <time>2017-06-20T09:20:43Z</time>
      </trkpt>
      <trkpt lat="45.93681" lon="4.87441">
        <ele>284</ele>
        <time>2017-06-20T09:20:44Z</time>
      </trkpt>
      <trkpt lat="45.93678" lon="4.87447">
        <ele>284</ele>
        <time>2017-06-20T09:20:45Z</time>
      </trkpt>
      <trkpt lat="45.93675" lon="4.87454">
        <ele>284</ele>
        <time>2017-06-20T09:20:46Z</time>
      </trkpt>
      <trkpt lat="45.93672" lon="4.8746">
        <ele>284</ele>
        <time>2017-06-20T09:20:47Z</time>
      </trkpt>
      <trkpt lat="45.93669" lon="4.87465">
        <ele>284</ele>
        <time>2017-06-20T09:20:48Z</time>
      </trkpt>
      <trkpt lat="45.93666" lon="4.87471">
        <ele>285</ele>
        <time>2017-06-20T09:20:49Z</time>
      </trkpt>
      <trkpt lat="45.93663" lon="4.87477">
        <ele>285</ele>
        <time>2017-06-20T09:20:50Z</time>
      </trkpt>
      <trkpt lat="45.93658" lon="4.87487">
        <ele>285</ele>
        <time>2017-06-20T09:20:52Z</time>
      </trkpt>
      <trkpt lat="45.93655" lon="4.87492">
        <ele>285</ele>
        <time>2017-06-20T09:20:53Z</time>
      </trkpt>
      <trkpt lat="45.93652" lon="4.87498">
        <ele>285</ele>
        <time>2017-06-20T09:20:54Z</time>
      </trkpt>
      <trkpt lat="45.93649" lon="4.87503">
        <ele>285</ele>
        <time>2017-06-20T09:20:55Z</time>
      </trkpt>
      <trkpt lat="45.93643" lon="4.87512">
        <ele>285</ele>
        <time>2017-06-20T09:20:57Z</time>
      </trkpt>
      <trkpt lat="45.9364" lon="4.87516">
        <ele>285</ele>
        <time>2017-06-20T09:20:58Z</time>
      </trkpt>
      <trkpt lat="45.93635" lon="4.87525">
        <ele>285</ele>
        <time>2017-06-20T09:21:00Z</time>
      </trkpt>
      <trkpt lat="45.93632" lon="4.8753">
        <ele>285</ele>
        <time>2017-06-20T09:21:01Z</time>
      </trkpt>
      <trkpt lat="45.93629" lon="4.87535">
        <ele>285</ele>
        <time>2017-06-20T09:21:02Z</time>
      </trkpt>
      <trkpt lat="45.93626" lon="4.8754">
        <ele>285</ele>
        <time>2017-06-20T09:21:03Z</time>
      </trkpt>
      <trkpt lat="45.93623" lon="4.87545">
        <ele>286</ele>
        <time>2017-06-20T09:21:04Z</time>
      </trkpt>
      <trkpt lat="45.9362" lon="4.8755">
        <ele>286</ele>
        <time>2017-06-20T09:21:05Z</time>
      </trkpt>
      <trkpt lat="45.93617" lon="4.87555">
        <ele>286</ele>
        <time>2017-06-20T09:21:06Z</time>
      </trkpt>
      <trkpt lat="45.93614" lon="4.87561">
        <ele>286</ele>
        <time>2017-06-20T09:21:07Z</time>
      </trkpt>
      <trkpt lat="45.93608" lon="4.87569">
        <ele>286</ele>
        <time>2017-06-20T09:21:09Z</time>
      </trkpt>
      <trkpt lat="45.93605" lon="4.87574">
        <ele>286</ele>
        <time>2017-06-20T09:21:10Z</time>
      </trkpt>
      <trkpt lat="45.936" lon="4.87583">
        <ele>286</ele>
        <time>2017-06-20T09:21:12Z</time>
      </trkpt>
      <trkpt lat="45.93597" lon="4.87587">
        <ele>285</ele>
        <time>2017-06-20T09:21:13Z</time>
      </trkpt>
      <trkpt lat="45.93592" lon="4.87596">
        <ele>285</ele>
        <time>2017-06-20T09:21:15Z</time>
      </trkpt>
      <trkpt lat="45.93589" lon="4.87601">
        <ele>285</ele>
        <time>2017-06-20T09:21:16Z</time>
      </trkpt>
      <trkpt lat="45.93584" lon="4.8761">
        <ele>285</ele>
        <time>2017-06-20T09:21:18Z</time>
      </trkpt>
      <trkpt lat="45.93582" lon="4.87615">
        <ele>285</ele>
        <time>2017-06-20T09:21:19Z</time>
      </trkpt>
      <trkpt lat="45.93577" lon="4.87625">
        <ele>285</ele>
        <time>2017-06-20T09:21:21Z</time>
      </trkpt>
      <trkpt lat="45.93575" lon="4.8763">
        <ele>285</ele>
        <time>2017-06-20T09:21:22Z</time>
      </trkpt>
      <trkpt lat="45.93572" lon="4.8764">
        <ele>285</ele>
        <time>2017-06-20T09:21:24Z</time>
      </trkpt>
      <trkpt lat="45.9357" lon="4.87645">
        <ele>285</ele>
        <time>2017-06-20T09:21:25Z</time>
      </trkpt>
      <trkpt lat="45.93567" lon="4.87656">
        <ele>285</ele>
        <time>2017-06-20T09:21:27Z</time>
      </trkpt>
      <trkpt lat="45.93566" lon="4.87661">
        <ele>285</ele>
        <time>2017-06-20T09:21:28Z</time>
      </trkpt>
      <trkpt lat="45.93563" lon="4.87672">
        <ele>284</ele>
        <time>2017-06-20T09:21:30Z</time>
      </trkpt>
      <trkpt lat="45.93561" lon="4.87678">
        <ele>284</ele>
        <time>2017-06-20T09:21:31Z</time>
      </trkpt>
      <trkpt lat="45.93559" lon="4.87689">
        <ele>284</ele>
        <time>2017-06-20T09:21:33Z</time>
      </trkpt>
      <trkpt lat="45.93558" lon="4.87694">
        <ele>284</ele>
        <time>2017-06-20T09:21:34Z</time>
      </trkpt>
      <trkpt lat="45.93555" lon="4.87704">
        <ele>284</ele>
        <time>2017-06-20T09:21:36Z</time>
      </trkpt>
      <trkpt lat="45.93554" lon="4.8771">
        <ele>284</ele>
        <time>2017-06-20T09:21:37Z</time>
      </trkpt>
      <trkpt lat="45.93552" lon="4.87721">
        <ele>284</ele>
        <time>2017-06-20T09:21:39Z</time>
      </trkpt>
      <trkpt lat="45.93551" lon="4.87727">
        <ele>284</ele>
        <time>2017-06-20T09:21:40Z</time>
      </trkpt>
      <trkpt lat="45.93548" lon="4.87738">
        <ele>284</ele>
        <time>2017-06-20T09:21:42Z</time>
      </trkpt>
      <trkpt lat="45.93546" lon="4.87743">
        <ele>284</ele>
        <time>2017-06-20T09:21:43Z</time>
      </trkpt>
      <trkpt lat="45.93543" lon="4.87755">
        <ele>284</ele>
        <time>2017-06-20T09:21:45Z</time>
      </trkpt>
      <trkpt lat="45.93541" lon="4.87761">
        <ele>284</ele>
        <time>2017-06-20T09:21:46Z</time>
      </trkpt>
      <trkpt lat="45.93539" lon="4.87772">
        <ele>284</ele>
        <time>2017-06-20T09:21:48Z</time>
      </trkpt>
      <trkpt lat="45.93538" lon="4.87778">
        <ele>284</ele>
        <time>2017-06-20T09:21:49Z</time>
      </trkpt>
      <trkpt lat="45.93536" lon="4.87789">
        <ele>284</ele>
        <time>2017-06-20T09:21:51Z</time>
      </trkpt>
      <trkpt lat="45.93534" lon="4.87794">
        <ele>284</ele>
        <time>2017-06-20T09:21:52Z</time>
      </trkpt>
      <trkpt lat="45.93532" lon="4.87806">
        <ele>284</ele>
        <time>2017-06-20T09:21:54Z</time>
      </trkpt>
      <trkpt lat="45.93531" lon="4.87813">
        <ele>284</ele>
        <time>2017-06-20T09:21:55Z</time>
      </trkpt>
      <trkpt lat="45.93529" lon="4.87819">
        <ele>284</ele>
        <time>2017-06-20T09:21:56Z</time>
      </trkpt>
      <trkpt lat="45.93529" lon="4.87826">
        <ele>284</ele>
        <time>2017-06-20T09:21:57Z</time>
      </trkpt>
      <trkpt lat="45.93528" lon="4.87833">
        <ele>284</ele>
        <time>2017-06-20T09:21:58Z</time>
      </trkpt>
      <trkpt lat="45.93528" lon="4.87839">
        <ele>283</ele>
        <time>2017-06-20T09:21:59Z</time>
      </trkpt>
      <trkpt lat="45.93526" lon="4.87852">
        <ele>283</ele>
        <time>2017-06-20T09:22:01Z</time>
      </trkpt>
      <trkpt lat="45.93525" lon="4.87858">
        <ele>283</ele>
        <time>2017-06-20T09:22:02Z</time>
      </trkpt>
      <trkpt lat="45.93524" lon="4.8787">
        <ele>283</ele>
        <time>2017-06-20T09:22:04Z</time>
      </trkpt>
      <trkpt lat="45.93524" lon="4.87876">
        <ele>283</ele>
        <time>2017-06-20T09:22:05Z</time>
      </trkpt>
      <trkpt lat="45.93522" lon="4.87888">
        <ele>283</ele>
        <time>2017-06-20T09:22:07Z</time>
      </trkpt>
      <trkpt lat="45.93521" lon="4.87894">
        <ele>283</ele>
        <time>2017-06-20T09:22:08Z</time>
      </trkpt>
      <trkpt lat="45.9352" lon="4.879">
        <ele>283</ele>
        <time>2017-06-20T09:22:09Z</time>
      </trkpt>
      <trkpt lat="45.93519" lon="4.87908">
        <ele>283</ele>
        <time>2017-06-20T09:22:10Z</time>
      </trkpt>
      <trkpt lat="45.93519" lon="4.87915">
        <ele>283</ele>
        <time>2017-06-20T09:22:11Z</time>
      </trkpt>
      <trkpt lat="45.93518" lon="4.87922">
        <ele>284</ele>
        <time>2017-06-20T09:22:12Z</time>
      </trkpt>
      <trkpt lat="45.93517" lon="4.87929">
        <ele>284</ele>
        <time>2017-06-20T09:22:13Z</time>
      </trkpt>
      <trkpt lat="45.93516" lon="4.87935">
        <ele>284</ele>
        <time>2017-06-20T09:22:14Z</time>
      </trkpt>
      <trkpt lat="45.93515" lon="4.87948">
        <ele>284</ele>
        <time>2017-06-20T09:22:16Z</time>
      </trkpt>
      <trkpt lat="45.93515" lon="4.87954">
        <ele>284</ele>
        <time>2017-06-20T09:22:17Z</time>
      </trkpt>
      <trkpt lat="45.93514" lon="4.87967">
        <ele>284</ele>
        <time>2017-06-20T09:22:19Z</time>
      </trkpt>
      <trkpt lat="45.93513" lon="4.87973">
        <ele>284</ele>
        <time>2017-06-20T09:22:20Z</time>
      </trkpt>
      <trkpt lat="45.93512" lon="4.87985">
        <ele>285</ele>
        <time>2017-06-20T09:22:22Z</time>
      </trkpt>
      <trkpt lat="45.93511" lon="4.87991">
        <ele>285</ele>
        <time>2017-06-20T09:22:23Z</time>
      </trkpt>
      <trkpt lat="45.9351" lon="4.87998">
        <ele>285</ele>
        <time>2017-06-20T09:22:24Z</time>
      </trkpt>
      <trkpt lat="45.93509" lon="4.88005">
        <ele>286</ele>
        <time>2017-06-20T09:22:25Z</time>
      </trkpt>
      <trkpt lat="45.93509" lon="4.88011">
        <ele>286</ele>
        <time>2017-06-20T09:22:26Z</time>
      </trkpt>
      <trkpt lat="45.93508" lon="4.88018">
        <ele>286</ele>
        <time>2017-06-20T09:22:27Z</time>
      </trkpt>
      <trkpt lat="45.93507" lon="4.88025">
        <ele>286</ele>
        <time>2017-06-20T09:22:28Z</time>
      </trkpt>
      <trkpt lat="45.93507" lon="4.88031">
        <ele>286</ele>
        <time>2017-06-20T09:22:29Z</time>
      </trkpt>
      <trkpt lat="45.93505" lon="4.88043">
        <ele>286</ele>
        <time>2017-06-20T09:22:31Z</time>
      </trkpt>
      <trkpt lat="45.93505" lon="4.88049">
        <ele>286</ele>
        <time>2017-06-20T09:22:32Z</time>
      </trkpt>
      <trkpt lat="45.93504" lon="4.88055">
        <ele>286</ele>
        <time>2017-06-20T09:22:33Z</time>
      </trkpt>
      <trkpt lat="45.93503" lon="4.88062">
        <ele>286</ele>
        <time>2017-06-20T09:22:34Z</time>
      </trkpt>
      <trkpt lat="45.93503" lon="4.88068">
        <ele>286</ele>
        <time>2017-06-20T09:22:35Z</time>
      </trkpt>
      <trkpt lat="45.93502" lon="4.88075">
        <ele>286</ele>
        <time>2017-06-20T09:22:36Z</time>
      </trkpt>
      <trkpt lat="45.935" lon="4.88086">
        <ele>287</ele>
        <time>2017-06-20T09:22:38Z</time>
      </trkpt>
      <trkpt lat="45.93499" lon="4.88091">
        <ele>287</ele>
        <time>2017-06-20T09:22:39Z</time>
      </trkpt>
      <trkpt lat="45.93495" lon="4.88102">
        <ele>288</ele>
        <time>2017-06-20T09:22:41Z</time>
      </trkpt>
      <trkpt lat="45.93494" lon="4.88109">
        <ele>288</ele>
        <time>2017-06-20T09:22:42Z</time>
      </trkpt>
      <trkpt lat="45.93492" lon="4.88115">
        <ele>288</ele>
        <time>2017-06-20T09:22:43Z</time>
      </trkpt>
      <trkpt lat="45.93491" lon="4.88122">
        <ele>288</ele>
        <time>2017-06-20T09:22:44Z</time>
      </trkpt>
      <trkpt lat="45.93489" lon="4.88128">
        <ele>288</ele>
        <time>2017-06-20T09:22:45Z</time>
      </trkpt>
      <trkpt lat="45.93488" lon="4.88134">
        <ele>288</ele>
        <time>2017-06-20T09:22:46Z</time>
      </trkpt>
      <trkpt lat="45.93486" lon="4.88141">
        <ele>288</ele>
        <time>2017-06-20T09:22:47Z</time>
      </trkpt>
      <trkpt lat="45.93485" lon="4.88148">
        <ele>288</ele>
        <time>2017-06-20T09:22:48Z</time>
      </trkpt>
      <trkpt lat="45.93484" lon="4.88155">
        <ele>288</ele>
        <time>2017-06-20T09:22:49Z</time>
      </trkpt>
      <trkpt lat="45.93483" lon="4.88162">
        <ele>288</ele>
        <time>2017-06-20T09:22:50Z</time>
      </trkpt>
      <trkpt lat="45.93483" lon="4.88169">
        <ele>288</ele>
        <time>2017-06-20T09:22:51Z</time>
      </trkpt>
      <trkpt lat="45.93483" lon="4.88176">
        <ele>288</ele>
        <time>2017-06-20T09:22:52Z</time>
      </trkpt>
      <trkpt lat="45.93484" lon="4.88188">
        <ele>289</ele>
        <time>2017-06-20T09:22:54Z</time>
      </trkpt>
      <trkpt lat="45.93483" lon="4.88194">
        <ele>289</ele>
        <time>2017-06-20T09:22:55Z</time>
      </trkpt>
      <trkpt lat="45.9348" lon="4.88204">
        <ele>289</ele>
        <time>2017-06-20T09:22:57Z</time>
      </trkpt>
      <trkpt lat="45.93478" lon="4.88208">
        <ele>289</ele>
        <time>2017-06-20T09:22:58Z</time>
      </trkpt>
      <trkpt lat="45.93474" lon="4.88217">
        <ele>289</ele>
        <time>2017-06-20T09:23:00Z</time>
      </trkpt>
      <trkpt lat="45.93473" lon="4.88222">
        <ele>289</ele>
        <time>2017-06-20T09:23:01Z</time>
      </trkpt>
      <trkpt lat="45.93474" lon="4.88233">
        <ele>289</ele>
        <time>2017-06-20T09:23:03Z</time>
      </trkpt>
      <trkpt lat="45.93476" lon="4.88238">
        <ele>289</ele>
        <time>2017-06-20T09:23:04Z</time>
      </trkpt>
      <trkpt lat="45.9348" lon="4.88242">
        <ele>289</ele>
        <time>2017-06-20T09:23:05Z</time>
      </trkpt>
      <trkpt lat="45.93485" lon="4.88245">
        <ele>289</ele>
        <time>2017-06-20T09:23:06Z</time>
      </trkpt>
      <trkpt lat="45.9349" lon="4.88245">
        <ele>289</ele>
        <time>2017-06-20T09:23:07Z</time>
      </trkpt>
      <trkpt lat="45.93495" lon="4.88242">
        <ele>289</ele>
        <time>2017-06-20T09:23:08Z</time>
      </trkpt>
      <trkpt lat="45.935" lon="4.88239">
        <ele>288</ele>
        <time>2017-06-20T09:23:09Z</time>
      </trkpt>
      <trkpt lat="45.93505" lon="4.88236">
        <ele>288</ele>
        <time>2017-06-20T09:23:10Z</time>
      </trkpt>
      <trkpt lat="45.9351" lon="4.88232">
        <ele>288</ele>
        <time>2017-06-20T09:23:11Z</time>
      </trkpt>
      <trkpt lat="45.93515" lon="4.88229">
        <ele>288</ele>
        <time>2017-06-20T09:23:12Z</time>
      </trkpt>
      <trkpt lat="45.9352" lon="4.88227">
        <ele>288</ele>
        <time>2017-06-20T09:23:13Z</time>
      </trkpt>
      <trkpt lat="45.93526" lon="4.88225">
        <ele>288</ele>
        <time>2017-06-20T09:23:14Z</time>
      </trkpt>
      <trkpt lat="45.93532" lon="4.88223">
        <ele>287</ele>
        <time>2017-06-20T09:23:15Z</time>
      </trkpt>
      <trkpt lat="45.93538" lon="4.88222">
        <ele>287</ele>
        <time>2017-06-20T09:23:16Z</time>
      </trkpt>
      <trkpt lat="45.93544" lon="4.88221">
        <ele>287</ele>
        <time>2017-06-20T09:23:17Z</time>
      </trkpt>
      <trkpt lat="45.9355" lon="4.8822">
        <ele>287</ele>
        <time>2017-06-20T09:23:18Z</time>
      </trkpt>
      <trkpt lat="45.93557" lon="4.8822">
        <ele>287</ele>
        <time>2017-06-20T09:23:19Z</time>
      </trkpt>
      <trkpt lat="45.93564" lon="4.8822">
        <ele>287</ele>
        <time>2017-06-20T09:23:20Z</time>
      </trkpt>
      <trkpt lat="45.9357" lon="4.8822">
        <ele>287</ele>
        <time>2017-06-20T09:23:21Z</time>
      </trkpt>
      <trkpt lat="45.93577" lon="4.88219">
        <ele>287</ele>
        <time>2017-06-20T09:23:22Z</time>
      </trkpt>
      <trkpt lat="45.93584" lon="4.88219">
        <ele>286</ele>
        <time>2017-06-20T09:23:23Z</time>
      </trkpt>
      <trkpt lat="45.93592" lon="4.88219">
        <ele>286</ele>
        <time>2017-06-20T09:23:24Z</time>
      </trkpt>
      <trkpt lat="45.93599" lon="4.88219">
        <ele>285</ele>
        <time>2017-06-20T09:23:25Z</time>
      </trkpt>
      <trkpt lat="45.93606" lon="4.88219">
        <ele>285</ele>
        <time>2017-06-20T09:23:26Z</time>
      </trkpt>
      <trkpt lat="45.93613" lon="4.88219">
        <ele>285</ele>
        <time>2017-06-20T09:23:27Z</time>
      </trkpt>
      <trkpt lat="45.93621" lon="4.88219">
        <ele>285</ele>
        <time>2017-06-20T09:23:28Z</time>
      </trkpt>
      <trkpt lat="45.93628" lon="4.88219">
        <ele>285</ele>
        <time>2017-06-20T09:23:29Z</time>
      </trkpt>
      <trkpt lat="45.93635" lon="4.88219">
        <ele>285</ele>
        <time>2017-06-20T09:23:30Z</time>
      </trkpt>
      <trkpt lat="45.93642" lon="4.88219">
        <ele>285</ele>
        <time>2017-06-20T09:23:31Z</time>
      </trkpt>
      <trkpt lat="45.93649" lon="4.88219">
        <ele>285</ele>
        <time>2017-06-20T09:23:32Z</time>
      </trkpt>
      <trkpt lat="45.93656" lon="4.88219">
        <ele>285</ele>
        <time>2017-06-20T09:23:33Z</time>
      </trkpt>
      <trkpt lat="45.93663" lon="4.88219">
        <ele>285</ele>
        <time>2017-06-20T09:23:34Z</time>
      </trkpt>
      <trkpt lat="45.9367" lon="4.88219">
        <ele>285</ele>
        <time>2017-06-20T09:23:35Z</time>
      </trkpt>
      <trkpt lat="45.93677" lon="4.88219">
        <ele>285</ele>
        <time>2017-06-20T09:23:36Z</time>
      </trkpt>
      <trkpt lat="45.93684" lon="4.8822">
        <ele>285</ele>
        <time>2017-06-20T09:23:37Z</time>
      </trkpt>
      <trkpt lat="45.93691" lon="4.88219">
        <ele>285</ele>
        <time>2017-06-20T09:23:38Z</time>
      </trkpt>
      <trkpt lat="45.93698" lon="4.88219">
        <ele>285</ele>
        <time>2017-06-20T09:23:39Z</time>
      </trkpt>
      <trkpt lat="45.93704" lon="4.88219">
        <ele>285</ele>
        <time>2017-06-20T09:23:40Z</time>
      </trkpt>
      <trkpt lat="45.93711" lon="4.88219">
        <ele>285</ele>
        <time>2017-06-20T09:23:41Z</time>
      </trkpt>
      <trkpt lat="45.93717" lon="4.88219">
        <ele>286</ele>
        <time>2017-06-20T09:23:42Z</time>
      </trkpt>
      <trkpt lat="45.93724" lon="4.88219">
        <ele>286</ele>
        <time>2017-06-20T09:23:43Z</time>
      </trkpt>
      <trkpt lat="45.93731" lon="4.88219">
        <ele>286</ele>
        <time>2017-06-20T09:23:44Z</time>
      </trkpt>
      <trkpt lat="45.93737" lon="4.88219">
        <ele>286</ele>
        <time>2017-06-20T09:23:45Z</time>
      </trkpt>
      <trkpt lat="45.93744" lon="4.88219">
        <ele>286</ele>
        <time>2017-06-20T09:23:46Z</time>
      </trkpt>
      <trkpt lat="45.93751" lon="4.88219">
        <ele>287</ele>
        <time>2017-06-20T09:23:47Z</time>
      </trkpt>
      <trkpt lat="45.93757" lon="4.8822">
        <ele>287</ele>
        <time>2017-06-20T09:23:48Z</time>
      </trkpt>
      <trkpt lat="45.93763" lon="4.8822">
        <ele>287</ele>
        <time>2017-06-20T09:23:49Z</time>
      </trkpt>
      <trkpt lat="45.93769" lon="4.8822">
        <ele>287</ele>
        <time>2017-06-20T09:23:50Z</time>
      </trkpt>
      <trkpt lat="45.93775" lon="4.8822">
        <ele>287</ele>
        <time>2017-06-20T09:23:51Z</time>
      </trkpt>
      <trkpt lat="45.93781" lon="4.8822">
        <ele>287</ele>
        <time>2017-06-20T09:23:52Z</time>
      </trkpt>
      <trkpt lat="45.93787" lon="4.88219">
        <ele>288</ele>
        <time>2017-06-20T09:23:53Z</time>
      </trkpt>
      <trkpt lat="45.93794" lon="4.88219">
        <ele>288</ele>
        <time>2017-06-20T09:23:54Z</time>
      </trkpt>
      <trkpt lat="45.938" lon="4.88219">
        <ele>288</ele>
        <time>2017-06-20T09:23:55Z</time>
      </trkpt>
      <trkpt lat="45.93806" lon="4.88219">
        <ele>288</ele>
        <time>2017-06-20T09:23:56Z</time>
      </trkpt>
      <trkpt lat="45.93812" lon="4.88219">
        <ele>288</ele>
        <time>2017-06-20T09:23:57Z</time>
      </trkpt>
      <trkpt lat="45.93817" lon="4.88219">
        <ele>288</ele>
        <time>2017-06-20T09:23:58Z</time>
      </trkpt>
      <trkpt lat="45.93824" lon="4.88219">
        <ele>288</ele>
        <time>2017-06-20T09:23:59Z</time>
      </trkpt>
      <trkpt lat="45.9383" lon="4.88219">
        <ele>288</ele>
        <time>2017-06-20T09:24:00Z</time>
      </trkpt>
      <trkpt lat="45.93836" lon="4.8822">
        <ele>289</ele>
        <time>2017-06-20T09:24:01Z</time>
      </trkpt>
      <trkpt lat="45.93842" lon="4.8822">
        <ele>289</ele>
        <time>2017-06-20T09:24:02Z</time>
      </trkpt>
      <trkpt lat="45.93848" lon="4.8822">
        <ele>289</ele>
        <time>2017-06-20T09:24:03Z</time>
      </trkpt>
      <trkpt lat="45.93855" lon="4.8822">
        <ele>289</ele>
        <time>2017-06-20T09:24:04Z</time>
      </trkpt>
      <trkpt lat="45.93861" lon="4.88221">
        <ele>289</ele>
        <time>2017-06-20T09:24:05Z</time>
      </trkpt>
      <trkpt lat="45.93868" lon="4.88221">
        <ele>289</ele>
        <time>2017-06-20T09:24:06Z</time>
      </trkpt>
      <trkpt lat="45.93876" lon="4.88221">
        <ele>289</ele>
        <time>2017-06-20T09:24:07Z</time>
      </trkpt>
      <trkpt lat="45.93883" lon="4.88221">
        <ele>289</ele>
        <time>2017-06-20T09:24:08Z</time>
      </trkpt>
      <trkpt lat="45.9389" lon="4.88222">
        <ele>289</ele>
        <time>2017-06-20T09:24:09Z</time>
      </trkpt>
      <trkpt lat="45.93897" lon="4.88222">
        <ele>289</ele>
        <time>2017-06-20T09:24:10Z</time>
      </trkpt>
      <trkpt lat="45.93904" lon="4.88222">
        <ele>289</ele>
        <time>2017-06-20T09:24:11Z</time>
      </trkpt>
      <trkpt lat="45.9391" lon="4.88223">
        <ele>289</ele>
        <time>2017-06-20T09:24:12Z</time>
      </trkpt>
      <trkpt lat="45.93917" lon="4.88223">
        <ele>288</ele>
        <time>2017-06-20T09:24:13Z</time>
      </trkpt>
      <trkpt lat="45.93925" lon="4.88222">
        <ele>288</ele>
        <time>2017-06-20T09:24:14Z</time>
      </trkpt>
      <trkpt lat="45.93932" lon="4.88221">
        <ele>287</ele>
        <time>2017-06-20T09:24:15Z</time>
      </trkpt>
      <trkpt lat="45.93939" lon="4.8822">
        <ele>287</ele>
        <time>2017-06-20T09:24:16Z</time>
      </trkpt>
      <trkpt lat="45.93946" lon="4.88221">
        <ele>287</ele>
        <time>2017-06-20T09:24:17Z</time>
      </trkpt>
      <trkpt lat="45.93953" lon="4.88221">
        <ele>287</ele>
        <time>2017-06-20T09:24:18Z</time>
      </trkpt>
      <trkpt lat="45.9396" lon="4.88221">
        <ele>286</ele>
        <time>2017-06-20T09:24:19Z</time>
      </trkpt>
      <trkpt lat="45.93967" lon="4.88222">
        <ele>286</ele>
        <time>2017-06-20T09:24:20Z</time>
      </trkpt>
      <trkpt lat="45.93975" lon="4.88223">
        <ele>286</ele>
        <time>2017-06-20T09:24:21Z</time>
      </trkpt>
      <trkpt lat="45.93982" lon="4.88223">
        <ele>286</ele>
        <time>2017-06-20T09:24:22Z</time>
      </trkpt>
      <trkpt lat="45.93989" lon="4.88224">
        <ele>286</ele>
        <time>2017-06-20T09:24:23Z</time>
      </trkpt>
      <trkpt lat="45.93996" lon="4.88224">
        <ele>286</ele>
        <time>2017-06-20T09:24:24Z</time>
      </trkpt>
      <trkpt lat="45.94003" lon="4.88224">
        <ele>284</ele>
        <time>2017-06-20T09:24:25Z</time>
      </trkpt>
      <trkpt lat="45.9401" lon="4.88225">
        <ele>284</ele>
        <time>2017-06-20T09:24:26Z</time>
      </trkpt>
      <trkpt lat="45.94016" lon="4.88226">
        <ele>284</ele>
        <time>2017-06-20T09:24:27Z</time>
      </trkpt>
      <trkpt lat="45.94023" lon="4.88227">
        <ele>284</ele>
        <time>2017-06-20T09:24:28Z</time>
      </trkpt>
      <trkpt lat="45.9403" lon="4.88228">
        <ele>283</ele>
        <time>2017-06-20T09:24:29Z</time>
      </trkpt>
      <trkpt lat="45.94037" lon="4.88228">
        <ele>283</ele>
        <time>2017-06-20T09:24:30Z</time>
      </trkpt>
      <trkpt lat="45.94044" lon="4.8823">
        <ele>283</ele>
        <time>2017-06-20T09:24:31Z</time>
      </trkpt>
      <trkpt lat="45.94051" lon="4.8823">
        <ele>283</ele>
        <time>2017-06-20T09:24:32Z</time>
      </trkpt>
      <trkpt lat="45.94058" lon="4.88231">
        <ele>283</ele>
        <time>2017-06-20T09:24:33Z</time>
      </trkpt>
      <trkpt lat="45.94064" lon="4.88232">
        <ele>282</ele>
        <time>2017-06-20T09:24:34Z</time>
      </trkpt>
      <trkpt lat="45.94071" lon="4.88233">
        <ele>282</ele>
        <time>2017-06-20T09:24:35Z</time>
      </trkpt>
      <trkpt lat="45.94078" lon="4.88234">
        <ele>282</ele>
        <time>2017-06-20T09:24:36Z</time>
      </trkpt>
      <trkpt lat="45.94084" lon="4.88235">
        <ele>281</ele>
        <time>2017-06-20T09:24:37Z</time>
      </trkpt>
      <trkpt lat="45.94091" lon="4.88236">
        <ele>281</ele>
        <time>2017-06-20T09:24:38Z</time>
      </trkpt>
      <trkpt lat="45.94098" lon="4.88238">
        <ele>281</ele>
        <time>2017-06-20T09:24:39Z</time>
      </trkpt>
      <trkpt lat="45.94106" lon="4.88238">
        <ele>281</ele>
        <time>2017-06-20T09:24:40Z</time>
      </trkpt>
      <trkpt lat="45.94113" lon="4.88239">
        <ele>280</ele>
        <time>2017-06-20T09:24:41Z</time>
      </trkpt>
      <trkpt lat="45.94119" lon="4.8824">
        <ele>280</ele>
        <time>2017-06-20T09:24:42Z</time>
      </trkpt>
      <trkpt lat="45.94126" lon="4.88241">
        <ele>280</ele>
        <time>2017-06-20T09:24:43Z</time>
      </trkpt>
      <trkpt lat="45.94133" lon="4.88242">
        <ele>280</ele>
        <time>2017-06-20T09:24:44Z</time>
      </trkpt>
      <trkpt lat="45.94141" lon="4.88244">
        <ele>280</ele>
        <time>2017-06-20T09:24:45Z</time>
      </trkpt>
      <trkpt lat="45.94148" lon="4.88245">
        <ele>279</ele>
        <time>2017-06-20T09:24:46Z</time>
      </trkpt>
      <trkpt lat="45.94156" lon="4.88245">
        <ele>279</ele>
        <time>2017-06-20T09:24:47Z</time>
      </trkpt>
      <trkpt lat="45.94163" lon="4.88246">
        <ele>279</ele>
        <time>2017-06-20T09:24:48Z</time>
      </trkpt>
      <trkpt lat="45.9417" lon="4.88248">
        <ele>279</ele>
        <time>2017-06-20T09:24:49Z</time>
      </trkpt>
      <trkpt lat="45.94178" lon="4.88249">
        <ele>279</ele>
        <time>2017-06-20T09:24:50Z</time>
      </trkpt>
      <trkpt lat="45.94185" lon="4.8825">
        <ele>278</ele>
        <time>2017-06-20T09:24:51Z</time>
      </trkpt>
      <trkpt lat="45.94193" lon="4.8825">
        <ele>279</ele>
        <time>2017-06-20T09:24:52Z</time>
      </trkpt>
      <trkpt lat="45.942" lon="4.88251">
        <ele>279</ele>
        <time>2017-06-20T09:24:53Z</time>
      </trkpt>
      <trkpt lat="45.94208" lon="4.88252">
        <ele>279</ele>
        <time>2017-06-20T09:24:54Z</time>
      </trkpt>
      <trkpt lat="45.94215" lon="4.88253">
        <ele>279</ele>
        <time>2017-06-20T09:24:55Z</time>
      </trkpt>
      <trkpt lat="45.94223" lon="4.88253">
        <ele>279</ele>
        <time>2017-06-20T09:24:56Z</time>
      </trkpt>
      <trkpt lat="45.94231" lon="4.88254">
        <ele>279</ele>
        <time>2017-06-20T09:24:57Z</time>
      </trkpt>
      <trkpt lat="45.94238" lon="4.88255">
        <ele>278</ele>
        <time>2017-06-20T09:24:58Z</time>
      </trkpt>
      <trkpt lat="45.94245" lon="4.88256">
        <ele>278</ele>
        <time>2017-06-20T09:24:59Z</time>
      </trkpt>
      <trkpt lat="45.94252" lon="4.88258">
        <ele>278</ele>
        <time>2017-06-20T09:25:00Z</time>
      </trkpt>
      <trkpt lat="45.94259" lon="4.88259">
        <ele>278</ele>
        <time>2017-06-20T09:25:01Z</time>
      </trkpt>
      <trkpt lat="45.94266" lon="4.8826">
        <ele>278</ele>
        <time>2017-06-20T09:25:02Z</time>
      </trkpt>
      <trkpt lat="45.94274" lon="4.8826">
        <ele>278</ele>
        <time>2017-06-20T09:25:03Z</time>
      </trkpt>
      <trkpt lat="45.9428" lon="4.88261">
        <ele>278</ele>
        <time>2017-06-20T09:25:04Z</time>
      </trkpt>
      <trkpt lat="45.94287" lon="4.88263">
        <ele>277</ele>
        <time>2017-06-20T09:25:05Z</time>
      </trkpt>
      <trkpt lat="45.94293" lon="4.88264">
        <ele>277</ele>
        <time>2017-06-20T09:25:06Z</time>
      </trkpt>
      <trkpt lat="45.943" lon="4.88265">
        <ele>277</ele>
        <time>2017-06-20T09:25:07Z</time>
      </trkpt>
      <trkpt lat="45.94307" lon="4.88265">
        <ele>277</ele>
        <time>2017-06-20T09:25:08Z</time>
      </trkpt>
      <trkpt lat="45.94314" lon="4.88266">
        <ele>277</ele>
        <time>2017-06-20T09:25:09Z</time>
      </trkpt>
      <trkpt lat="45.94321" lon="4.88267">
        <ele>277</ele>
        <time>2017-06-20T09:25:10Z</time>
      </trkpt>
      <trkpt lat="45.94328" lon="4.88268">
        <ele>277</ele>
        <time>2017-06-20T09:25:11Z</time>
      </trkpt>
      <trkpt lat="45.94334" lon="4.88269">
        <ele>276</ele>
        <time>2017-06-20T09:25:12Z</time>
      </trkpt>
      <trkpt lat="45.94341" lon="4.88269">
        <ele>276</ele>
        <time>2017-06-20T09:25:13Z</time>
      </trkpt>
      <trkpt lat="45.94348" lon="4.8827">
        <ele>276</ele>
        <time>2017-06-20T09:25:14Z</time>
      </trkpt>
      <trkpt lat="45.94354" lon="4.88272">
        <ele>276</ele>
        <time>2017-06-20T09:25:15Z</time>
      </trkpt>
      <trkpt lat="45.9436" lon="4.88274">
        <ele>276</ele>
        <time>2017-06-20T09:25:16Z</time>
      </trkpt>
      <trkpt lat="45.94366" lon="4.88276">
        <ele>276</ele>
        <time>2017-06-20T09:25:17Z</time>
      </trkpt>
      <trkpt lat="45.94373" lon="4.88277">
        <ele>276</ele>
        <time>2017-06-20T09:25:18Z</time>
      </trkpt>
      <trkpt lat="45.94379" lon="4.88278">
        <ele>276</ele>
        <time>2017-06-20T09:25:19Z</time>
      </trkpt>
      <trkpt lat="45.94385" lon="4.88279">
        <ele>276</ele>
        <time>2017-06-20T09:25:20Z</time>
      </trkpt>
      <trkpt lat="45.94391" lon="4.88279">
        <ele>276</ele>
        <time>2017-06-20T09:25:21Z</time>
      </trkpt>
      <trkpt lat="45.94397" lon="4.8828">
        <ele>276</ele>
        <time>2017-06-20T09:25:22Z</time>
      </trkpt>
      <trkpt lat="45.94403" lon="4.88281">
        <ele>276</ele>
        <time>2017-06-20T09:25:23Z</time>
      </trkpt>
      <trkpt lat="45.94409" lon="4.88282">
        <ele>276</ele>
        <time>2017-06-20T09:25:24Z</time>
      </trkpt>
      <trkpt lat="45.94416" lon="4.88283">
        <ele>276</ele>
        <time>2017-06-20T09:25:25Z</time>
      </trkpt>
      <trkpt lat="45.94422" lon="4.88284">
        <ele>276</ele>
        <time>2017-06-20T09:25:26Z</time>
      </trkpt>
      <trkpt lat="45.94428" lon="4.88285">
        <ele>276</ele>
        <time>2017-06-20T09:25:27Z</time>
      </trkpt>
      <trkpt lat="45.94435" lon="4.88286">
        <ele>276</ele>
        <time>2017-06-20T09:25:28Z</time>
      </trkpt>
      <trkpt lat="45.94441" lon="4.88287">
        <ele>276</ele>
        <time>2017-06-20T09:25:29Z</time>
      </trkpt>
      <trkpt lat="45.94448" lon="4.88288">
        <ele>276</ele>
        <time>2017-06-20T09:25:30Z</time>
      </trkpt>
      <trkpt lat="45.94455" lon="4.88289">
        <ele>276</ele>
        <time>2017-06-20T09:25:31Z</time>
      </trkpt>
      <trkpt lat="45.94462" lon="4.88289">
        <ele>276</ele>
        <time>2017-06-20T09:25:32Z</time>
      </trkpt>
      <trkpt lat="45.94469" lon="4.8829">
        <ele>276</ele>
        <time>2017-06-20T09:25:33Z</time>
      </trkpt>
      <trkpt lat="45.94475" lon="4.88291">
        <ele>276</ele>
        <time>2017-06-20T09:25:34Z</time>
      </trkpt>
      <trkpt lat="45.94482" lon="4.88292">
        <ele>276</ele>
        <time>2017-06-20T09:25:35Z</time>
      </trkpt>
      <trkpt lat="45.94489" lon="4.88293">
        <ele>276</ele>
        <time>2017-06-20T09:25:36Z</time>
      </trkpt>
      <trkpt lat="45.94495" lon="4.88294">
        <ele>276</ele>
        <time>2017-06-20T09:25:37Z</time>
      </trkpt>
      <trkpt lat="45.94502" lon="4.88295">
        <ele>275</ele>
        <time>2017-06-20T09:25:38Z</time>
      </trkpt>
      <trkpt lat="45.94508" lon="4.88295">
        <ele>275</ele>
        <time>2017-06-20T09:25:39Z</time>
      </trkpt>
      <trkpt lat="45.94514" lon="4.88296">
        <ele>275</ele>
        <time>2017-06-20T09:25:40Z</time>
      </trkpt>
      <trkpt lat="45.9452" lon="4.88297">
        <ele>275</ele>
        <time>2017-06-20T09:25:41Z</time>
      </trkpt>
      <trkpt lat="45.94527" lon="4.88298">
        <ele>275</ele>
        <time>2017-06-20T09:25:42Z</time>
      </trkpt>
      <trkpt lat="45.94533" lon="4.88298">
        <ele>275</ele>
        <time>2017-06-20T09:25:43Z</time>
      </trkpt>
      <trkpt lat="45.9454" lon="4.88299">
        <ele>275</ele>
        <time>2017-06-20T09:25:44Z</time>
      </trkpt>
      <trkpt lat="45.94546" lon="4.883">
        <ele>275</ele>
        <time>2017-06-20T09:25:45Z</time>
      </trkpt>
      <trkpt lat="45.94553" lon="4.88302">
        <ele>275</ele>
        <time>2017-06-20T09:25:46Z</time>
      </trkpt>
      <trkpt lat="45.9456" lon="4.88303">
        <ele>275</ele>
        <time>2017-06-20T09:25:47Z</time>
      </trkpt>
      <trkpt lat="45.94567" lon="4.88305">
        <ele>275</ele>
        <time>2017-06-20T09:25:48Z</time>
      </trkpt>
      <trkpt lat="45.94575" lon="4.88306">
        <ele>275</ele>
        <time>2017-06-20T09:25:49Z</time>
      </trkpt>
      <trkpt lat="45.94582" lon="4.88307">
        <ele>275</ele>
        <time>2017-06-20T09:25:50Z</time>
      </trkpt>
      <trkpt lat="45.94589" lon="4.88308">
        <ele>275</ele>
        <time>2017-06-20T09:25:51Z</time>
      </trkpt>
      <trkpt lat="45.94595" lon="4.8831">
        <ele>275</ele>
        <time>2017-06-20T09:25:52Z</time>
      </trkpt>
      <trkpt lat="45.94601" lon="4.88311">
        <ele>275</ele>
        <time>2017-06-20T09:25:53Z</time>
      </trkpt>
      <trkpt lat="45.94607" lon="4.88312">
        <ele>275</ele>
        <time>2017-06-20T09:25:54Z</time>
      </trkpt>
      <trkpt lat="45.94613" lon="4.88312">
        <ele>275</ele>
        <time>2017-06-20T09:25:55Z</time>
      </trkpt>
      <trkpt lat="45.9462" lon="4.88313">
        <ele>275</ele>
        <time>2017-06-20T09:25:56Z</time>
      </trkpt>
      <trkpt lat="45.94626" lon="4.88314">
        <ele>276</ele>
        <time>2017-06-20T09:25:57Z</time>
      </trkpt>
      <trkpt lat="45.94632" lon="4.88315">
        <ele>276</ele>
        <time>2017-06-20T09:25:58Z</time>
      </trkpt>
      <trkpt lat="45.94638" lon="4.88316">
        <ele>276</ele>
        <time>2017-06-20T09:25:59Z</time>
      </trkpt>
      <trkpt lat="45.94645" lon="4.88317">
        <ele>276</ele>
        <time>2017-06-20T09:26:00Z</time>
      </trkpt>
      <trkpt lat="45.94651" lon="4.88317">
        <ele>276</ele>
        <time>2017-06-20T09:26:01Z</time>
      </trkpt>
      <trkpt lat="45.94656" lon="4.88318">
        <ele>276</ele>
        <time>2017-06-20T09:26:02Z</time>
      </trkpt>
      <trkpt lat="45.94662" lon="4.88319">
        <ele>276</ele>
        <time>2017-06-20T09:26:03Z</time>
      </trkpt>
      <trkpt lat="45.94668" lon="4.8832">
        <ele>276</ele>
        <time>2017-06-20T09:26:04Z</time>
      </trkpt>
      <trkpt lat="45.94674" lon="4.88321">
        <ele>276</ele>
        <time>2017-06-20T09:26:05Z</time>
      </trkpt>
      <trkpt lat="45.94679" lon="4.88321">
        <ele>276</ele>
        <time>2017-06-20T09:26:06Z</time>
      </trkpt>
      <trkpt lat="45.94685" lon="4.88321">
        <ele>276</ele>
        <time>2017-06-20T09:26:07Z</time>
      </trkpt>
      <trkpt lat="45.94691" lon="4.88321">
        <ele>276</ele>
        <time>2017-06-20T09:26:08Z</time>
      </trkpt>
      <trkpt lat="45.94697" lon="4.88322">
        <ele>276</ele>
        <time>2017-06-20T09:26:09Z</time>
      </trkpt>
      <trkpt lat="45.94704" lon="4.88322">
        <ele>276</ele>
        <time>2017-06-20T09:26:10Z</time>
      </trkpt>
      <trkpt lat="45.9471" lon="4.88324">
        <ele>276</ele>
        <time>2017-06-20T09:26:11Z</time>
      </trkpt>
      <trkpt lat="45.94717" lon="4.88326">
        <ele>276</ele>
        <time>2017-06-20T09:26:12Z</time>
      </trkpt>
      <trkpt lat="45.94723" lon="4.88328">
        <ele>276</ele>
        <time>2017-06-20T09:26:13Z</time>
      </trkpt>
      <trkpt lat="45.94729" lon="4.88329">
        <ele>277</ele>
        <time>2017-06-20T09:26:14Z</time>
      </trkpt>
      <trkpt lat="45.94735" lon="4.8833">
        <ele>277</ele>
        <time>2017-06-20T09:26:15Z</time>
      </trkpt>
      <trkpt lat="45.9474" lon="4.88331">
        <ele>277</ele>
        <time>2017-06-20T09:26:16Z</time>
      </trkpt>
      <trkpt lat="45.94746" lon="4.88332">
        <ele>277</ele>
        <time>2017-06-20T09:26:17Z</time>
      </trkpt>
      <trkpt lat="45.94753" lon="4.88332">
        <ele>277</ele>
        <time>2017-06-20T09:26:18Z</time>
      </trkpt>
      <trkpt lat="45.94759" lon="4.88332">
        <ele>277</ele>
        <time>2017-06-20T09:26:19Z</time>
      </trkpt>
      <trkpt lat="45.94765" lon="4.88333">
        <ele>277</ele>
        <time>2017-06-20T09:26:20Z</time>
      </trkpt>
      <trkpt lat="45.9477" lon="4.88334">
        <ele>277</ele>
        <time>2017-06-20T09:26:21Z</time>
      </trkpt>
      <trkpt lat="45.94775" lon="4.88335">
        <ele>278</ele>
        <time>2017-06-20T09:26:22Z</time>
      </trkpt>
      <trkpt lat="45.9478" lon="4.88336">
        <ele>278</ele>
        <time>2017-06-20T09:26:23Z</time>
      </trkpt>
      <trkpt lat="45.94786" lon="4.88337">
        <ele>278</ele>
        <time>2017-06-20T09:26:24Z</time>
      </trkpt>
      <trkpt lat="45.9479" lon="4.88339">
        <ele>278</ele>
        <time>2017-06-20T09:26:25Z</time>
      </trkpt>
      <trkpt lat="45.94795" lon="4.8834">
        <ele>278</ele>
        <time>2017-06-20T09:26:26Z</time>
      </trkpt>
      <trkpt lat="45.94803" lon="4.88341">
        <ele>278</ele>
        <time>2017-06-20T09:26:28Z</time>
      </trkpt>
      <trkpt lat="45.94807" lon="4.88341">
        <ele>278</ele>
        <time>2017-06-20T09:26:29Z</time>
      </trkpt>
      <trkpt lat="45.94812" lon="4.88341">
        <ele>278</ele>
        <time>2017-06-20T09:26:30Z</time>
      </trkpt>
      <trkpt lat="45.94816" lon="4.88342">
        <ele>278</ele>
        <time>2017-06-20T09:26:31Z</time>
      </trkpt>
      <trkpt lat="45.94821" lon="4.88342">
        <ele>278</ele>
        <time>2017-06-20T09:26:32Z</time>
      </trkpt>
      <trkpt lat="45.94825" lon="4.88341">
        <ele>279</ele>
        <time>2017-06-20T09:26:33Z</time>
      </trkpt>
      <trkpt lat="45.9483" lon="4.8834">
        <ele>279</ele>
        <time>2017-06-20T09:26:34Z</time>
      </trkpt>
      <trkpt lat="45.94834" lon="4.88339">
        <ele>279</ele>
        <time>2017-06-20T09:26:35Z</time>
      </trkpt>
      <trkpt lat="45.94839" lon="4.88339">
        <ele>279</ele>
        <time>2017-06-20T09:26:36Z</time>
      </trkpt>
      <trkpt lat="45.94843" lon="4.88338">
        <ele>279</ele>
        <time>2017-06-20T09:26:37Z</time>
      </trkpt>
      <trkpt lat="45.94848" lon="4.88337">
        <ele>280</ele>
        <time>2017-06-20T09:26:38Z</time>
      </trkpt>
      <trkpt lat="45.94852" lon="4.88336">
        <ele>280</ele>
        <time>2017-06-20T09:26:39Z</time>
      </trkpt>
      <trkpt lat="45.94857" lon="4.88334">
        <ele>280</ele>
        <time>2017-06-20T09:26:40Z</time>
      </trkpt>
      <trkpt lat="45.94861" lon="4.88333">
        <ele>280</ele>
        <time>2017-06-20T09:26:41Z</time>
      </trkpt>
      <trkpt lat="45.94866" lon="4.88333">
        <ele>280</ele>
        <time>2017-06-20T09:26:42Z</time>
      </trkpt>
      <trkpt lat="45.94871" lon="4.88332">
        <ele>280</ele>
        <time>2017-06-20T09:26:43Z</time>
      </trkpt>
      <trkpt lat="45.9488" lon="4.88331">
        <ele>280</ele>
        <time>2017-06-20T09:26:45Z</time>
      </trkpt>
      <trkpt lat="45.94884" lon="4.8833">
        <ele>281</ele>
        <time>2017-06-20T09:26:46Z</time>
      </trkpt>
      <trkpt lat="45.94889" lon="4.88328">
        <ele>281</ele>
        <time>2017-06-20T09:26:47Z</time>
      </trkpt>
      <trkpt lat="45.94893" lon="4.88326">
        <ele>281</ele>
        <time>2017-06-20T09:26:48Z</time>
      </trkpt>
      <trkpt lat="45.94898" lon="4.88325">
        <ele>281</ele>
        <time>2017-06-20T09:26:49Z</time>
      </trkpt>
      <trkpt lat="45.94902" lon="4.88323">
        <ele>281</ele>
        <time>2017-06-20T09:26:50Z</time>
      </trkpt>
      <trkpt lat="45.94911" lon="4.88319">
        <ele>281</ele>
        <time>2017-06-20T09:26:52Z</time>
      </trkpt>
      <trkpt lat="45.94914" lon="4.88316">
        <ele>281</ele>
        <time>2017-06-20T09:26:53Z</time>
      </trkpt>
      <trkpt lat="45.94922" lon="4.88312">
        <ele>283</ele>
        <time>2017-06-20T09:26:55Z</time>
      </trkpt>
      <trkpt lat="45.94926" lon="4.8831">
        <ele>283</ele>
        <time>2017-06-20T09:26:56Z</time>
      </trkpt>
      <trkpt lat="45.9493" lon="4.88308">
        <ele>283</ele>
        <time>2017-06-20T09:26:57Z</time>
      </trkpt>
      <trkpt lat="45.94934" lon="4.88307">
        <ele>283</ele>
        <time>2017-06-20T09:26:58Z</time>
      </trkpt>
      <trkpt lat="45.94943" lon="4.88303">
        <ele>283</ele>
        <time>2017-06-20T09:27:00Z</time>
      </trkpt>
      <trkpt lat="45.94946" lon="4.88302">
        <ele>283</ele>
        <time>2017-06-20T09:27:01Z</time>
      </trkpt>
      <trkpt lat="45.94954" lon="4.88298">
        <ele>283</ele>
        <time>2017-06-20T09:27:03Z</time>
      </trkpt>
      <trkpt lat="45.94958" lon="4.88297">
        <ele>283</ele>
        <time>2017-06-20T09:27:04Z</time>
      </trkpt>
      <trkpt lat="45.94966" lon="4.88294">
        <ele>283</ele>
        <time>2017-06-20T09:27:06Z</time>
      </trkpt>
      <trkpt lat="45.9497" lon="4.88292">
        <ele>283</ele>
        <time>2017-06-20T09:27:07Z</time>
      </trkpt>
      <trkpt lat="45.94975" lon="4.88291">
        <ele>283</ele>
        <time>2017-06-20T09:27:08Z</time>
      </trkpt>
      <trkpt lat="45.94979" lon="4.88289">
        <ele>283</ele>
        <time>2017-06-20T09:27:09Z</time>
      </trkpt>
      <trkpt lat="45.94988" lon="4.88286">
        <ele>283</ele>
        <time>2017-06-20T09:27:11Z</time>
      </trkpt>
      <trkpt lat="45.94992" lon="4.88284">
        <ele>283</ele>
        <time>2017-06-20T09:27:12Z</time>
      </trkpt>
      <trkpt lat="45.95" lon="4.88281">
        <ele>285</ele>
        <time>2017-06-20T09:27:14Z</time>
      </trkpt>
      <trkpt lat="45.95004" lon="4.88279">
        <ele>285</ele>
        <time>2017-06-20T09:27:15Z</time>
      </trkpt>
      <trkpt lat="45.95011" lon="4.88276">
        <ele>285</ele>
        <time>2017-06-20T09:27:17Z</time>
      </trkpt>
      <trkpt lat="45.95014" lon="4.88274">
        <ele>285</ele>
        <time>2017-06-20T09:27:18Z</time>
      </trkpt>
      <trkpt lat="45.95022" lon="4.88272">
        <ele>285</ele>
        <time>2017-06-20T09:27:20Z</time>
      </trkpt>
      <trkpt lat="45.95026" lon="4.88271">
        <ele>285</ele>
        <time>2017-06-20T09:27:21Z</time>
      </trkpt>
      <trkpt lat="45.95034" lon="4.88269">
        <ele>285</ele>
        <time>2017-06-20T09:27:23Z</time>
      </trkpt>
      <trkpt lat="45.95038" lon="4.88267">
        <ele>285</ele>
        <time>2017-06-20T09:27:24Z</time>
      </trkpt>
      <trkpt lat="45.95046" lon="4.88263">
        <ele>286</ele>
        <time>2017-06-20T09:27:26Z</time>
      </trkpt>
      <trkpt lat="45.9505" lon="4.88262">
        <ele>286</ele>
        <time>2017-06-20T09:27:27Z</time>
      </trkpt>
      <trkpt lat="45.95057" lon="4.8826">
        <ele>286</ele>
        <time>2017-06-20T09:27:29Z</time>
      </trkpt>
      <trkpt lat="45.9506" lon="4.88259">
        <ele>286</ele>
        <time>2017-06-20T09:27:30Z</time>
      </trkpt>
      <trkpt lat="45.95068" lon="4.88256">
        <ele>286</ele>
        <time>2017-06-20T09:27:33Z</time>
      </trkpt>
      <trkpt lat="45.95071" lon="4.88255">
        <ele>286</ele>
        <time>2017-06-20T09:27:34Z</time>
      </trkpt>
      <trkpt lat="45.95078" lon="4.88253">
        <ele>287</ele>
        <time>2017-06-20T09:27:36Z</time>
      </trkpt>
      <trkpt lat="45.95081" lon="4.88252">
        <ele>287</ele>
        <time>2017-06-20T09:27:37Z</time>
      </trkpt>
      <trkpt lat="45.95087" lon="4.8825">
        <ele>287</ele>
        <time>2017-06-20T09:27:39Z</time>
      </trkpt>
      <trkpt lat="45.9509" lon="4.88249">
        <ele>287</ele>
        <time>2017-06-20T09:27:40Z</time>
      </trkpt>
      <trkpt lat="45.95099" lon="4.88246">
        <ele>287</ele>
        <time>2017-06-20T09:27:43Z</time>
      </trkpt>
      <trkpt lat="45.95102" lon="4.88245">
        <ele>287</ele>
        <time>2017-06-20T09:27:44Z</time>
      </trkpt>
      <trkpt lat="45.95108" lon="4.88242">
        <ele>287</ele>
        <time>2017-06-20T09:27:46Z</time>
      </trkpt>
      <trkpt lat="45.95112" lon="4.8824">
        <ele>287</ele>
        <time>2017-06-20T09:27:47Z</time>
      </trkpt>
      <trkpt lat="45.95117" lon="4.88234">
        <ele>287</ele>
        <time>2017-06-20T09:27:49Z</time>
      </trkpt>
      <trkpt lat="45.95119" lon="4.8823">
        <ele>287</ele>
        <time>2017-06-20T09:27:50Z</time>
      </trkpt>
      <trkpt lat="45.95121" lon="4.88223">
        <ele>287</ele>
        <time>2017-06-20T09:27:51Z</time>
      </trkpt>
      <trkpt lat="45.95123" lon="4.88217">
        <ele>287</ele>
        <time>2017-06-20T09:27:52Z</time>
      </trkpt>
      <trkpt lat="45.95126" lon="4.88211">
        <ele>287</ele>
        <time>2017-06-20T09:27:53Z</time>
      </trkpt>
      <trkpt lat="45.95128" lon="4.88205">
        <ele>287</ele>
        <time>2017-06-20T09:27:54Z</time>
      </trkpt>
      <trkpt lat="45.95131" lon="4.88199">
        <ele>287</ele>
        <time>2017-06-20T09:27:55Z</time>
      </trkpt>
      <trkpt lat="45.95135" lon="4.88193">
        <ele>287</ele>
        <time>2017-06-20T09:27:56Z</time>
      </trkpt>
      <trkpt lat="45.95139" lon="4.88189">
        <ele>286</ele>
        <time>2017-06-20T09:27:57Z</time>
      </trkpt>
      <trkpt lat="45.95145" lon="4.88186">
        <ele>286</ele>
        <time>2017-06-20T09:27:58Z</time>
      </trkpt>
      <trkpt lat="45.9515" lon="4.88185">
        <ele>286</ele>
        <time>2017-06-20T09:27:59Z</time>
      </trkpt>
      <trkpt lat="45.95156" lon="4.88183">
        <ele>286</ele>
        <time>2017-06-20T09:28:00Z</time>
      </trkpt>
      <trkpt lat="45.95162" lon="4.88181">
        <ele>286</ele>
        <time>2017-06-20T09:28:01Z</time>
      </trkpt>
      <trkpt lat="45.95168" lon="4.88179">
        <ele>285</ele>
        <time>2017-06-20T09:28:02Z</time>
      </trkpt>
      <trkpt lat="45.95175" lon="4.88178">
        <ele>285</ele>
        <time>2017-06-20T09:28:03Z</time>
      </trkpt>
      <trkpt lat="45.95182" lon="4.88177">
        <ele>285</ele>
        <time>2017-06-20T09:28:04Z</time>
      </trkpt>
      <trkpt lat="45.95189" lon="4.88175">
        <ele>285</ele>
        <time>2017-06-20T09:28:05Z</time>
      </trkpt>
      <trkpt lat="45.95196" lon="4.88174">
        <ele>285</ele>
        <time>2017-06-20T09:28:06Z</time>
      </trkpt>
      <trkpt lat="45.95204" lon="4.88173">
        <ele>285</ele>
        <time>2017-06-20T09:28:07Z</time>
      </trkpt>
      <trkpt lat="45.95211" lon="4.88172">
        <ele>284</ele>
        <time>2017-06-20T09:28:08Z</time>
      </trkpt>
      <trkpt lat="45.95219" lon="4.88172">
        <ele>284</ele>
        <time>2017-06-20T09:28:09Z</time>
      </trkpt>
      <trkpt lat="45.95227" lon="4.88171">
        <ele>284</ele>
        <time>2017-06-20T09:28:10Z</time>
      </trkpt>
      <trkpt lat="45.95235" lon="4.88171">
        <ele>283</ele>
        <time>2017-06-20T09:28:11Z</time>
      </trkpt>
      <trkpt lat="45.95244" lon="4.88171">
        <ele>282</ele>
        <time>2017-06-20T09:28:12Z</time>
      </trkpt>
      <trkpt lat="45.95252" lon="4.88172">
        <ele>281</ele>
        <time>2017-06-20T09:28:13Z</time>
      </trkpt>
      <trkpt lat="45.95261" lon="4.88172">
        <ele>281</ele>
        <time>2017-06-20T09:28:14Z</time>
      </trkpt>
      <trkpt lat="45.9527" lon="4.88173">
        <ele>281</ele>
        <time>2017-06-20T09:28:15Z</time>
      </trkpt>
      <trkpt lat="45.95279" lon="4.88173">
        <ele>281</ele>
        <time>2017-06-20T09:28:16Z</time>
      </trkpt>
      <trkpt lat="45.95288" lon="4.88174">
        <ele>281</ele>
        <time>2017-06-20T09:28:17Z</time>
      </trkpt>
      <trkpt lat="45.95297" lon="4.88174">
        <ele>281</ele>
        <time>2017-06-20T09:28:18Z</time>
      </trkpt>
      <trkpt lat="45.95306" lon="4.88175">
        <ele>280</ele>
        <time>2017-06-20T09:28:19Z</time>
      </trkpt>
      <trkpt lat="45.95315" lon="4.88176">
        <ele>280</ele>
        <time>2017-06-20T09:28:20Z</time>
      </trkpt>
      <trkpt lat="45.95325" lon="4.88176">
        <ele>279</ele>
        <time>2017-06-20T09:28:21Z</time>
      </trkpt>
      <trkpt lat="45.95335" lon="4.88175">
        <ele>278</ele>
        <time>2017-06-20T09:28:22Z</time>
      </trkpt>
      <trkpt lat="45.95344" lon="4.88174">
        <ele>278</ele>
        <time>2017-06-20T09:28:23Z</time>
      </trkpt>
      <trkpt lat="45.95353" lon="4.88172">
        <ele>278</ele>
        <time>2017-06-20T09:28:24Z</time>
      </trkpt>
      <trkpt lat="45.95362" lon="4.8817">
        <ele>278</ele>
        <time>2017-06-20T09:28:25Z</time>
      </trkpt>
      <trkpt lat="45.95372" lon="4.88168">
        <ele>278</ele>
        <time>2017-06-20T09:28:26Z</time>
      </trkpt>
      <trkpt lat="45.95381" lon="4.88166">
        <ele>276</ele>
        <time>2017-06-20T09:28:27Z</time>
      </trkpt>
      <trkpt lat="45.95389" lon="4.88163">
        <ele>276</ele>
        <time>2017-06-20T09:28:28Z</time>
      </trkpt>
      <trkpt lat="45.95397" lon="4.88161">
        <ele>276</ele>
        <time>2017-06-20T09:28:29Z</time>
      </trkpt>
      <trkpt lat="45.95405" lon="4.88157">
        <ele>276</ele>
        <time>2017-06-20T09:28:30Z</time>
      </trkpt>
      <trkpt lat="45.95413" lon="4.88154">
        <ele>276</ele>
        <time>2017-06-20T09:28:31Z</time>
      </trkpt>
      <trkpt lat="45.95419" lon="4.88151">
        <ele>276</ele>
        <time>2017-06-20T09:28:32Z</time>
      </trkpt>
      <trkpt lat="45.95426" lon="4.88149">
        <ele>276</ele>
        <time>2017-06-20T09:28:33Z</time>
      </trkpt>
      <trkpt lat="45.95434" lon="4.88145">
        <ele>276</ele>
        <time>2017-06-20T09:28:34Z</time>
      </trkpt>
      <trkpt lat="45.9544" lon="4.88142">
        <ele>276</ele>
        <time>2017-06-20T09:28:35Z</time>
      </trkpt>
      <trkpt lat="45.95447" lon="4.88139">
        <ele>276</ele>
        <time>2017-06-20T09:28:36Z</time>
      </trkpt>
      <trkpt lat="45.95453" lon="4.88137">
        <ele>276</ele>
        <time>2017-06-20T09:28:37Z</time>
      </trkpt>
      <trkpt lat="45.95459" lon="4.88134">
        <ele>276</ele>
        <time>2017-06-20T09:28:38Z</time>
      </trkpt>
      <trkpt lat="45.95465" lon="4.88133">
        <ele>276</ele>
        <time>2017-06-20T09:28:39Z</time>
      </trkpt>
      <trkpt lat="45.9547" lon="4.88131">
        <ele>276</ele>
        <time>2017-06-20T09:28:40Z</time>
      </trkpt>
      <trkpt lat="45.95476" lon="4.88128">
        <ele>276</ele>
        <time>2017-06-20T09:28:41Z</time>
      </trkpt>
      <trkpt lat="45.95482" lon="4.88126">
        <ele>276</ele>
        <time>2017-06-20T09:28:42Z</time>
      </trkpt>
      <trkpt lat="45.95487" lon="4.88123">
        <ele>276</ele>
        <time>2017-06-20T09:28:43Z</time>
      </trkpt>
      <trkpt lat="45.95493" lon="4.88121">
        <ele>276</ele>
        <time>2017-06-20T09:28:44Z</time>
      </trkpt>
      <trkpt lat="45.95498" lon="4.88118">
        <ele>276</ele>
        <time>2017-06-20T09:28:45Z</time>
      </trkpt>
      <trkpt lat="45.95503" lon="4.88116">
        <ele>276</ele>
        <time>2017-06-20T09:28:46Z</time>
      </trkpt>
      <trkpt lat="45.95508" lon="4.88113">
        <ele>276</ele>
        <time>2017-06-20T09:28:47Z</time>
      </trkpt>
      <trkpt lat="45.95513" lon="4.88111">
        <ele>276</ele>
        <time>2017-06-20T09:28:48Z</time>
      </trkpt>
      <trkpt lat="45.95517" lon="4.88109">
        <ele>276</ele>
        <time>2017-06-20T09:28:49Z</time>
      </trkpt>
      <trkpt lat="45.95522" lon="4.88107">
        <ele>277</ele>
        <time>2017-06-20T09:28:50Z</time>
      </trkpt>
      <trkpt lat="45.95526" lon="4.88105">
        <ele>277</ele>
        <time>2017-06-20T09:28:51Z</time>
      </trkpt>
      <trkpt lat="45.9553" lon="4.88103">
        <ele>277</ele>
        <time>2017-06-20T09:28:52Z</time>
      </trkpt>
      <trkpt lat="45.95535" lon="4.88101">
        <ele>277</ele>
        <time>2017-06-20T09:28:53Z</time>
      </trkpt>
      <trkpt lat="45.95539" lon="4.88099">
        <ele>277</ele>
        <time>2017-06-20T09:28:54Z</time>
      </trkpt>
      <trkpt lat="45.95544" lon="4.88097">
        <ele>277</ele>
        <time>2017-06-20T09:28:55Z</time>
      </trkpt>
      <trkpt lat="45.95549" lon="4.88094">
        <ele>277</ele>
        <time>2017-06-20T09:28:56Z</time>
      </trkpt>
      <trkpt lat="45.95553" lon="4.88092">
        <ele>277</ele>
        <time>2017-06-20T09:28:57Z</time>
      </trkpt>
      <trkpt lat="45.95558" lon="4.88089">
        <ele>277</ele>
        <time>2017-06-20T09:28:58Z</time>
      </trkpt>
      <trkpt lat="45.95566" lon="4.88084">
        <ele>277</ele>
        <time>2017-06-20T09:29:00Z</time>
      </trkpt>
      <trkpt lat="45.9557" lon="4.88081">
        <ele>277</ele>
        <time>2017-06-20T09:29:01Z</time>
      </trkpt>
      <trkpt lat="45.95574" lon="4.88078">
        <ele>277</ele>
        <time>2017-06-20T09:29:02Z</time>
      </trkpt>
      <trkpt lat="45.95578" lon="4.88075">
        <ele>277</ele>
        <time>2017-06-20T09:29:03Z</time>
      </trkpt>
      <trkpt lat="45.95585" lon="4.88068">
        <ele>278</ele>
        <time>2017-06-20T09:29:05Z</time>
      </trkpt>
      <trkpt lat="45.95589" lon="4.88065">
        <ele>278</ele>
        <time>2017-06-20T09:29:06Z</time>
      </trkpt>
      <trkpt lat="45.95597" lon="4.88059">
        <ele>278</ele>
        <time>2017-06-20T09:29:08Z</time>
      </trkpt>
      <trkpt lat="45.956" lon="4.88056">
        <ele>278</ele>
        <time>2017-06-20T09:29:09Z</time>
      </trkpt>
      <trkpt lat="45.95607" lon="4.8805">
        <ele>278</ele>
        <time>2017-06-20T09:29:11Z</time>
      </trkpt>
      <trkpt lat="45.9561" lon="4.88047">
        <ele>278</ele>
        <time>2017-06-20T09:29:12Z</time>
      </trkpt>
      <trkpt lat="45.95616" lon="4.88041">
        <ele>278</ele>
        <time>2017-06-20T09:29:14Z</time>
      </trkpt>
      <trkpt lat="45.9562" lon="4.88038">
        <ele>278</ele>
        <time>2017-06-20T09:29:15Z</time>
      </trkpt>
      <trkpt lat="45.95627" lon="4.88032">
        <ele>279</ele>
        <time>2017-06-20T09:29:17Z</time>
      </trkpt>
      <trkpt lat="45.9563" lon="4.88029">
        <ele>279</ele>
        <time>2017-06-20T09:29:18Z</time>
      </trkpt>
      <trkpt lat="45.95634" lon="4.88026">
        <ele>279</ele>
        <time>2017-06-20T09:29:19Z</time>
      </trkpt>
      <trkpt lat="45.95638" lon="4.88022">
        <ele>279</ele>
        <time>2017-06-20T09:29:20Z</time>
      </trkpt>
      <trkpt lat="45.95643" lon="4.88018">
        <ele>279</ele>
        <time>2017-06-20T09:29:21Z</time>
      </trkpt>
      <trkpt lat="45.95647" lon="4.88014">
        <ele>279</ele>
        <time>2017-06-20T09:29:22Z</time>
      </trkpt>
      <trkpt lat="45.95651" lon="4.8801">
        <ele>280</ele>
        <time>2017-06-20T09:29:23Z</time>
      </trkpt>
      <trkpt lat="45.95655" lon="4.88006">
        <ele>280</ele>
        <time>2017-06-20T09:29:24Z</time>
      </trkpt>
      <trkpt lat="45.95663" lon="4.87999">
        <ele>280</ele>
        <time>2017-06-20T09:29:26Z</time>
      </trkpt>
      <trkpt lat="45.95666" lon="4.87996">
        <ele>280</ele>
        <time>2017-06-20T09:29:27Z</time>
      </trkpt>
      <trkpt lat="45.95672" lon="4.8799">
        <ele>282</ele>
        <time>2017-06-20T09:29:29Z</time>
      </trkpt>
      <trkpt lat="45.95676" lon="4.87987">
        <ele>282</ele>
        <time>2017-06-20T09:29:30Z</time>
      </trkpt>
      <trkpt lat="45.95682" lon="4.87983">
        <ele>282</ele>
        <time>2017-06-20T09:29:32Z</time>
      </trkpt>
      <trkpt lat="45.95685" lon="4.8798">
        <ele>282</ele>
        <time>2017-06-20T09:29:33Z</time>
      </trkpt>
      <trkpt lat="45.95692" lon="4.87973">
        <ele>282</ele>
        <time>2017-06-20T09:29:35Z</time>
      </trkpt>
      <trkpt lat="45.95695" lon="4.8797">
        <ele>282</ele>
        <time>2017-06-20T09:29:36Z</time>
      </trkpt>
      <trkpt lat="45.957" lon="4.87965">
        <ele>283</ele>
        <time>2017-06-20T09:29:38Z</time>
      </trkpt>
      <trkpt lat="45.95704" lon="4.87962">
        <ele>283</ele>
        <time>2017-06-20T09:29:39Z</time>
      </trkpt>
      <trkpt lat="45.9571" lon="4.87956">
        <ele>283</ele>
        <time>2017-06-20T09:29:41Z</time>
      </trkpt>
      <trkpt lat="45.95713" lon="4.87953">
        <ele>283</ele>
        <time>2017-06-20T09:29:42Z</time>
      </trkpt>
      <trkpt lat="45.95719" lon="4.87948">
        <ele>283</ele>
        <time>2017-06-20T09:29:44Z</time>
      </trkpt>
      <trkpt lat="45.95722" lon="4.87945">
        <ele>283</ele>
        <time>2017-06-20T09:29:45Z</time>
      </trkpt>
      <trkpt lat="45.95728" lon="4.8794">
        <ele>283</ele>
        <time>2017-06-20T09:29:47Z</time>
      </trkpt>
      <trkpt lat="45.95732" lon="4.87938">
        <ele>283</ele>
        <time>2017-06-20T09:29:48Z</time>
      </trkpt>
      <trkpt lat="45.95738" lon="4.87933">
        <ele>284</ele>
        <time>2017-06-20T09:29:50Z</time>
      </trkpt>
      <trkpt lat="45.95741" lon="4.8793">
        <ele>284</ele>
        <time>2017-06-20T09:29:51Z</time>
      </trkpt>
      <trkpt lat="45.95747" lon="4.87925">
        <ele>284</ele>
        <time>2017-06-20T09:29:53Z</time>
      </trkpt>
      <trkpt lat="45.9575" lon="4.87923">
        <ele>284</ele>
        <time>2017-06-20T09:29:54Z</time>
      </trkpt>
      <trkpt lat="45.95757" lon="4.87919">
        <ele>286</ele>
        <time>2017-06-20T09:29:56Z</time>
      </trkpt>
      <trkpt lat="45.9576" lon="4.87917">
        <ele>285</ele>
        <time>2017-06-20T09:29:57Z</time>
      </trkpt>
      <trkpt lat="45.95767" lon="4.87912">
        <ele>286</ele>
        <time>2017-06-20T09:29:59Z</time>
      </trkpt>
      <trkpt lat="45.9577" lon="4.87909">
        <ele>286</ele>
        <time>2017-06-20T09:30:00Z</time>
      </trkpt>
      <trkpt lat="45.95777" lon="4.87904">
        <ele>286</ele>
        <time>2017-06-20T09:30:02Z</time>
      </trkpt>
      <trkpt lat="45.95779" lon="4.87902">
        <ele>286</ele>
        <time>2017-06-20T09:30:03Z</time>
      </trkpt>
      <trkpt lat="45.95786" lon="4.87898">
        <ele>286</ele>
        <time>2017-06-20T09:30:05Z</time>
      </trkpt>
      <trkpt lat="45.9579" lon="4.87895">
        <ele>286</ele>
        <time>2017-06-20T09:30:06Z</time>
      </trkpt>
      <trkpt lat="45.95798" lon="4.8789">
        <ele>287</ele>
        <time>2017-06-20T09:30:09Z</time>
      </trkpt>
      <trkpt lat="45.95801" lon="4.87888">
        <ele>287</ele>
        <time>2017-06-20T09:30:10Z</time>
      </trkpt>
      <trkpt lat="45.95807" lon="4.87887">
        <ele>287</ele>
        <time>2017-06-20T09:30:12Z</time>
      </trkpt>
      <trkpt lat="45.9581" lon="4.87886">
        <ele>287</ele>
        <time>2017-06-20T09:30:13Z</time>
      </trkpt>
      <trkpt lat="45.95817" lon="4.87885">
        <ele>287</ele>
        <time>2017-06-20T09:30:15Z</time>
      </trkpt>
      <trkpt lat="45.9582" lon="4.87885">
        <ele>287</ele>
        <time>2017-06-20T09:30:16Z</time>
      </trkpt>
      <trkpt lat="45.95828" lon="4.87883">
        <ele>287</ele>
        <time>2017-06-20T09:30:19Z</time>
      </trkpt>
      <trkpt lat="45.9583" lon="4.8788">
        <ele>287</ele>
        <time>2017-06-20T09:30:20Z</time>
      </trkpt>
      <trkpt lat="45.95835" lon="4.87874">
        <ele>289</ele>
        <time>2017-06-20T09:30:22Z</time>
      </trkpt>
      <trkpt lat="45.95837" lon="4.87871">
        <ele>289</ele>
        <time>2017-06-20T09:30:23Z</time>
      </trkpt>
      <trkpt lat="45.95843" lon="4.87864">
        <ele>289</ele>
        <time>2017-06-20T09:30:25Z</time>
      </trkpt>
      <trkpt lat="45.95846" lon="4.87862">
        <ele>289</ele>
        <time>2017-06-20T09:30:26Z</time>
      </trkpt>
      <trkpt lat="45.95852" lon="4.87857">
        <ele>289</ele>
        <time>2017-06-20T09:30:28Z</time>
      </trkpt>
      <trkpt lat="45.95855" lon="4.87854">
        <ele>289</ele>
        <time>2017-06-20T09:30:29Z</time>
      </trkpt>
      <trkpt lat="45.9586" lon="4.87848">
        <ele>289</ele>
        <time>2017-06-20T09:30:31Z</time>
      </trkpt>
      <trkpt lat="45.95862" lon="4.87845">
        <ele>289</ele>
        <time>2017-06-20T09:30:32Z</time>
      </trkpt>
      <trkpt lat="45.95868" lon="4.87839">
        <ele>289</ele>
        <time>2017-06-20T09:30:34Z</time>
      </trkpt>
      <trkpt lat="45.95871" lon="4.87836">
        <ele>289</ele>
        <time>2017-06-20T09:30:35Z</time>
      </trkpt>
      <trkpt lat="45.95878" lon="4.87829">
        <ele>288</ele>
        <time>2017-06-20T09:30:37Z</time>
      </trkpt>
      <trkpt lat="45.95881" lon="4.87826">
        <ele>288</ele>
        <time>2017-06-20T09:30:38Z</time>
      </trkpt>
      <trkpt lat="45.95887" lon="4.87817">
        <ele>288</ele>
        <time>2017-06-20T09:30:40Z</time>
      </trkpt>
      <trkpt lat="45.9589" lon="4.87813">
        <ele>288</ele>
        <time>2017-06-20T09:30:41Z</time>
      </trkpt>
      <trkpt lat="45.95897" lon="4.87807">
        <ele>288</ele>
        <time>2017-06-20T09:30:43Z</time>
      </trkpt>
      <trkpt lat="45.959" lon="4.87803">
        <ele>288</ele>
        <time>2017-06-20T09:30:44Z</time>
      </trkpt>
      <trkpt lat="45.95905" lon="4.87794">
        <ele>288</ele>
        <time>2017-06-20T09:30:46Z</time>
      </trkpt>
      <trkpt lat="45.95908" lon="4.87789">
        <ele>288</ele>
        <time>2017-06-20T09:30:47Z</time>
      </trkpt>
      <trkpt lat="45.95914" lon="4.87779">
        <ele>288</ele>
        <time>2017-06-20T09:30:49Z</time>
      </trkpt>
      <trkpt lat="45.95916" lon="4.87774">
        <ele>288</ele>
        <time>2017-06-20T09:30:50Z</time>
      </trkpt>
      <trkpt lat="45.95921" lon="4.87765">
        <ele>288</ele>
        <time>2017-06-20T09:30:52Z</time>
      </trkpt>
      <trkpt lat="45.95924" lon="4.8776">
        <ele>288</ele>
        <time>2017-06-20T09:30:53Z</time>
      </trkpt>
      <trkpt lat="45.9593" lon="4.87752">
        <ele>288</ele>
        <time>2017-06-20T09:30:55Z</time>
      </trkpt>
      <trkpt lat="45.95933" lon="4.87747">
        <ele>288</ele>
        <time>2017-06-20T09:30:56Z</time>
      </trkpt>
      <trkpt lat="45.95936" lon="4.87743">
        <ele>288</ele>
        <time>2017-06-20T09:30:57Z</time>
      </trkpt>
      <trkpt lat="45.9594" lon="4.87738">
        <ele>288</ele>
        <time>2017-06-20T09:30:58Z</time>
      </trkpt>
      <trkpt lat="45.95943" lon="4.87733">
        <ele>289</ele>
        <time>2017-06-20T09:30:59Z</time>
      </trkpt>
      <trkpt lat="45.95946" lon="4.87728">
        <ele>289</ele>
        <time>2017-06-20T09:31:00Z</time>
      </trkpt>
      <trkpt lat="45.95949" lon="4.87723">
        <ele>289</ele>
        <time>2017-06-20T09:31:01Z</time>
      </trkpt>
      <trkpt lat="45.95952" lon="4.87719">
        <ele>289</ele>
        <time>2017-06-20T09:31:02Z</time>
      </trkpt>
      <trkpt lat="45.95956" lon="4.87714">
        <ele>289</ele>
        <time>2017-06-20T09:31:03Z</time>
      </trkpt>
      <trkpt lat="45.95959" lon="4.8771">
        <ele>289</ele>
        <time>2017-06-20T09:31:04Z</time>
      </trkpt>
      <trkpt lat="45.95966" lon="4.87702">
        <ele>289</ele>
        <time>2017-06-20T09:31:06Z</time>
      </trkpt>
      <trkpt lat="45.9597" lon="4.87698">
        <ele>289</ele>
        <time>2017-06-20T09:31:07Z</time>
      </trkpt>
      <trkpt lat="45.95973" lon="4.87694">
        <ele>289</ele>
        <time>2017-06-20T09:31:08Z</time>
      </trkpt>
      <trkpt lat="45.95977" lon="4.87689">
        <ele>289</ele>
        <time>2017-06-20T09:31:09Z</time>
      </trkpt>
      <trkpt lat="45.9598" lon="4.87685">
        <ele>289</ele>
        <time>2017-06-20T09:31:10Z</time>
      </trkpt>
      <trkpt lat="45.95984" lon="4.8768">
        <ele>289</ele>
        <time>2017-06-20T09:31:11Z</time>
      </trkpt>
      <trkpt lat="45.95988" lon="4.87676">
        <ele>289</ele>
        <time>2017-06-20T09:31:12Z</time>
      </trkpt>
      <trkpt lat="45.95991" lon="4.87672">
        <ele>290</ele>
        <time>2017-06-20T09:31:13Z</time>
      </trkpt>
      <trkpt lat="45.95995" lon="4.87668">
        <ele>290</ele>
        <time>2017-06-20T09:31:14Z</time>
      </trkpt>
      <trkpt lat="45.95999" lon="4.87664">
        <ele>290</ele>
        <time>2017-06-20T09:31:15Z</time>
      </trkpt>
      <trkpt lat="45.96002" lon="4.8766">
        <ele>290</ele>
        <time>2017-06-20T09:31:16Z</time>
      </trkpt>
      <trkpt lat="45.96006" lon="4.87656">
        <ele>289</ele>
        <time>2017-06-20T09:31:17Z</time>
      </trkpt>
      <trkpt lat="45.9601" lon="4.87652">
        <ele>289</ele>
        <time>2017-06-20T09:31:18Z</time>
      </trkpt>
      <trkpt lat="45.96014" lon="4.87647">
        <ele>289</ele>
        <time>2017-06-20T09:31:19Z</time>
      </trkpt>
      <trkpt lat="45.96018" lon="4.87643">
        <ele>289</ele>
        <time>2017-06-20T09:31:20Z</time>
      </trkpt>
      <trkpt lat="45.96021" lon="4.87639">
        <ele>289</ele>
        <time>2017-06-20T09:31:21Z</time>
      </trkpt>
      <trkpt lat="45.96025" lon="4.87635">
        <ele>289</ele>
        <time>2017-06-20T09:31:22Z</time>
      </trkpt>
      <trkpt lat="45.96029" lon="4.87631">
        <ele>289</ele>
        <time>2017-06-20T09:31:23Z</time>
      </trkpt>
      <trkpt lat="45.96035" lon="4.87623">
        <ele>289</ele>
        <time>2017-06-20T09:31:25Z</time>
      </trkpt>
      <trkpt lat="45.96038" lon="4.87619">
        <ele>289</ele>
        <time>2017-06-20T09:31:26Z</time>
      </trkpt>
      <trkpt lat="45.96042" lon="4.87615">
        <ele>289</ele>
        <time>2017-06-20T09:31:27Z</time>
      </trkpt>
      <trkpt lat="45.96045" lon="4.8761">
        <ele>289</ele>
        <time>2017-06-20T09:31:28Z</time>
      </trkpt>
      <trkpt lat="45.9605" lon="4.87605">
        <ele>289</ele>
        <time>2017-06-20T09:31:29Z</time>
      </trkpt>
      <trkpt lat="45.96055" lon="4.876">
        <ele>289</ele>
        <time>2017-06-20T09:31:30Z</time>
      </trkpt>
      <trkpt lat="45.96059" lon="4.87595">
        <ele>288</ele>
        <time>2017-06-20T09:31:31Z</time>
      </trkpt>
      <trkpt lat="45.96064" lon="4.87591">
        <ele>288</ele>
        <time>2017-06-20T09:31:32Z</time>
      </trkpt>
      <trkpt lat="45.96068" lon="4.87586">
        <ele>288</ele>
        <time>2017-06-20T09:31:33Z</time>
      </trkpt>
      <trkpt lat="45.96073" lon="4.8758">
        <ele>288</ele>
        <time>2017-06-20T09:31:34Z</time>
      </trkpt>
      <trkpt lat="45.96077" lon="4.87575">
        <ele>288</ele>
        <time>2017-06-20T09:31:35Z</time>
      </trkpt>
      <trkpt lat="45.96081" lon="4.87569">
        <ele>288</ele>
        <time>2017-06-20T09:31:36Z</time>
      </trkpt>
      <trkpt lat="45.96086" lon="4.87563">
        <ele>287</ele>
        <time>2017-06-20T09:31:37Z</time>
      </trkpt>
      <trkpt lat="45.9609" lon="4.87557">
        <ele>287</ele>
        <time>2017-06-20T09:31:38Z</time>
      </trkpt>
      <trkpt lat="45.96094" lon="4.87551">
        <ele>287</ele>
        <time>2017-06-20T09:31:39Z</time>
      </trkpt>
      <trkpt lat="45.96099" lon="4.87546">
        <ele>287</ele>
        <time>2017-06-20T09:31:40Z</time>
      </trkpt>
      <trkpt lat="45.96104" lon="4.8754">
        <ele>287</ele>
        <time>2017-06-20T09:31:41Z</time>
      </trkpt>
      <trkpt lat="45.96109" lon="4.87534">
        <ele>287</ele>
        <time>2017-06-20T09:31:42Z</time>
      </trkpt>
      <trkpt lat="45.96115" lon="4.87529">
        <ele>287</ele>
        <time>2017-06-20T09:31:43Z</time>
      </trkpt>
      <trkpt lat="45.9612" lon="4.87523">
        <ele>286</ele>
        <time>2017-06-20T09:31:44Z</time>
      </trkpt>
      <trkpt lat="45.96125" lon="4.87517">
        <ele>286</ele>
        <time>2017-06-20T09:31:45Z</time>
      </trkpt>
      <trkpt lat="45.96131" lon="4.87511">
        <ele>286</ele>
        <time>2017-06-20T09:31:46Z</time>
      </trkpt>
      <trkpt lat="45.96136" lon="4.87505">
        <ele>286</ele>
        <time>2017-06-20T09:31:47Z</time>
      </trkpt>
      <trkpt lat="45.96142" lon="4.87498">
        <ele>285</ele>
        <time>2017-06-20T09:31:48Z</time>
      </trkpt>
      <trkpt lat="45.96148" lon="4.87492">
        <ele>285</ele>
        <time>2017-06-20T09:31:49Z</time>
      </trkpt>
      <trkpt lat="45.96154" lon="4.87485">
        <ele>285</ele>
        <time>2017-06-20T09:31:50Z</time>
      </trkpt>
      <trkpt lat="45.9616" lon="4.87479">
        <ele>285</ele>
        <time>2017-06-20T09:31:51Z</time>
      </trkpt>
      <trkpt lat="45.96166" lon="4.87472">
        <ele>285</ele>
        <time>2017-06-20T09:31:52Z</time>
      </trkpt>
      <trkpt lat="45.96172" lon="4.87465">
        <ele>284</ele>
        <time>2017-06-20T09:31:53Z</time>
      </trkpt>
      <trkpt lat="45.96178" lon="4.87458">
        <ele>284</ele>
        <time>2017-06-20T09:31:54Z</time>
      </trkpt>
      <trkpt lat="45.96184" lon="4.87451">
        <ele>284</ele>
        <time>2017-06-20T09:31:55Z</time>
      </trkpt>
      <trkpt lat="45.9619" lon="4.87445">
        <ele>284</ele>
        <time>2017-06-20T09:31:56Z</time>
      </trkpt>
      <trkpt lat="45.96196" lon="4.87438">
        <ele>284</ele>
        <time>2017-06-20T09:31:57Z</time>
      </trkpt>
      <trkpt lat="45.96202" lon="4.8743">
        <ele>284</ele>
        <time>2017-06-20T09:31:58Z</time>
      </trkpt>
      <trkpt lat="45.96208" lon="4.87424">
        <ele>284</ele>
        <time>2017-06-20T09:31:59Z</time>
      </trkpt>
      <trkpt lat="45.96214" lon="4.87417">
        <ele>284</ele>
        <time>2017-06-20T09:32:00Z</time>
      </trkpt>
      <trkpt lat="45.9622" lon="4.8741">
        <ele>283</ele>
        <time>2017-06-20T09:32:01Z</time>
      </trkpt>
      <trkpt lat="45.96227" lon="4.87403">
        <ele>283</ele>
        <time>2017-06-20T09:32:02Z</time>
      </trkpt>
      <trkpt lat="45.96233" lon="4.87396">
        <ele>283</ele>
        <time>2017-06-20T09:32:03Z</time>
      </trkpt>
      <trkpt lat="45.96238" lon="4.87389">
        <ele>283</ele>
        <time>2017-06-20T09:32:04Z</time>
      </trkpt>
      <trkpt lat="45.96244" lon="4.87382">
        <ele>283</ele>
        <time>2017-06-20T09:32:05Z</time>
      </trkpt>
      <trkpt lat="45.9625" lon="4.87375">
        <ele>283</ele>
        <time>2017-06-20T09:32:06Z</time>
      </trkpt>
      <trkpt lat="45.96255" lon="4.87368">
        <ele>283</ele>
        <time>2017-06-20T09:32:07Z</time>
      </trkpt>
      <trkpt lat="45.96261" lon="4.87362">
        <ele>283</ele>
        <time>2017-06-20T09:32:08Z</time>
      </trkpt>
      <trkpt lat="45.96266" lon="4.87355">
        <ele>283</ele>
        <time>2017-06-20T09:32:09Z</time>
      </trkpt>
      <trkpt lat="45.96272" lon="4.87348">
        <ele>283</ele>
        <time>2017-06-20T09:32:10Z</time>
      </trkpt>
      <trkpt lat="45.96277" lon="4.87341">
        <ele>284</ele>
        <time>2017-06-20T09:32:11Z</time>
      </trkpt>
      <trkpt lat="45.96283" lon="4.87334">
        <ele>284</ele>
        <time>2017-06-20T09:32:12Z</time>
      </trkpt>
      <trkpt lat="45.96288" lon="4.87327">
        <ele>283</ele>
        <time>2017-06-20T09:32:13Z</time>
      </trkpt>
      <trkpt lat="45.96293" lon="4.8732">
        <ele>283</ele>
        <time>2017-06-20T09:32:14Z</time>
      </trkpt>
      <trkpt lat="45.96299" lon="4.87313">
        <ele>283</ele>
        <time>2017-06-20T09:32:15Z</time>
      </trkpt>
      <trkpt lat="45.96304" lon="4.87306">
        <ele>283</ele>
        <time>2017-06-20T09:32:16Z</time>
      </trkpt>
      <trkpt lat="45.96309" lon="4.87299">
        <ele>283</ele>
        <time>2017-06-20T09:32:17Z</time>
      </trkpt>
      <trkpt lat="45.96315" lon="4.87292">
        <ele>283</ele>
        <time>2017-06-20T09:32:18Z</time>
      </trkpt>
      <trkpt lat="45.9632" lon="4.87285">
        <ele>283</ele>
        <time>2017-06-20T09:32:19Z</time>
      </trkpt>
      <trkpt lat="45.96325" lon="4.87279">
        <ele>283</ele>
        <time>2017-06-20T09:32:20Z</time>
      </trkpt>
      <trkpt lat="45.9633" lon="4.87272">
        <ele>283</ele>
        <time>2017-06-20T09:32:21Z</time>
      </trkpt>
      <trkpt lat="45.96335" lon="4.87265">
        <ele>283</ele>
        <time>2017-06-20T09:32:22Z</time>
      </trkpt>
      <trkpt lat="45.9634" lon="4.87258">
        <ele>283</ele>
        <time>2017-06-20T09:32:23Z</time>
      </trkpt>
      <trkpt lat="45.96346" lon="4.87251">
        <ele>283</ele>
        <time>2017-06-20T09:32:24Z</time>
      </trkpt>
      <trkpt lat="45.96351" lon="4.87245">
        <ele>282</ele>
        <time>2017-06-20T09:32:25Z</time>
      </trkpt>
      <trkpt lat="45.96356" lon="4.87238">
        <ele>282</ele>
        <time>2017-06-20T09:32:26Z</time>
      </trkpt>
      <trkpt lat="45.9636" lon="4.87231">
        <ele>282</ele>
        <time>2017-06-20T09:32:27Z</time>
      </trkpt>
      <trkpt lat="45.96365" lon="4.87224">
        <ele>282</ele>
        <time>2017-06-20T09:32:28Z</time>
      </trkpt>
      <trkpt lat="45.9637" lon="4.87218">
        <ele>282</ele>
        <time>2017-06-20T09:32:29Z</time>
      </trkpt>
      <trkpt lat="45.96375" lon="4.87211">
        <ele>282</ele>
        <time>2017-06-20T09:32:30Z</time>
      </trkpt>
      <trkpt lat="45.9638" lon="4.87204">
        <ele>282</ele>
        <time>2017-06-20T09:32:31Z</time>
      </trkpt>
      <trkpt lat="45.96385" lon="4.87198">
        <ele>282</ele>
        <time>2017-06-20T09:32:32Z</time>
      </trkpt>
      <trkpt lat="45.9639" lon="4.87192">
        <ele>282</ele>
        <time>2017-06-20T09:32:33Z</time>
      </trkpt>
      <trkpt lat="45.96395" lon="4.87185">
        <ele>282</ele>
        <time>2017-06-20T09:32:34Z</time>
      </trkpt>
      <trkpt lat="45.964" lon="4.87179">
        <ele>282</ele>
        <time>2017-06-20T09:32:35Z</time>
      </trkpt>
      <trkpt lat="45.96405" lon="4.87172">
        <ele>281</ele>
        <time>2017-06-20T09:32:36Z</time>
      </trkpt>
      <trkpt lat="45.9641" lon="4.87165">
        <ele>281</ele>
        <time>2017-06-20T09:32:37Z</time>
      </trkpt>
      <trkpt lat="45.96415" lon="4.87158">
        <ele>281</ele>
        <time>2017-06-20T09:32:38Z</time>
      </trkpt>
      <trkpt lat="45.9642" lon="4.87152">
        <ele>281</ele>
        <time>2017-06-20T09:32:39Z</time>
      </trkpt>
      <trkpt lat="45.96424" lon="4.87146">
        <ele>281</ele>
        <time>2017-06-20T09:32:40Z</time>
      </trkpt>
      <trkpt lat="45.9643" lon="4.8714">
        <ele>281</ele>
        <time>2017-06-20T09:32:41Z</time>
      </trkpt>
      <trkpt lat="45.96435" lon="4.87134">
        <ele>281</ele>
        <time>2017-06-20T09:32:42Z</time>
      </trkpt>
      <trkpt lat="45.96439" lon="4.87128">
        <ele>281</ele>
        <time>2017-06-20T09:32:43Z</time>
      </trkpt>
      <trkpt lat="45.96444" lon="4.87122">
        <ele>281</ele>
        <time>2017-06-20T09:32:44Z</time>
      </trkpt>
      <trkpt lat="45.96449" lon="4.87117">
        <ele>281</ele>
        <time>2017-06-20T09:32:45Z</time>
      </trkpt>
      <trkpt lat="45.96453" lon="4.87111">
        <ele>281</ele>
        <time>2017-06-20T09:32:46Z</time>
      </trkpt>
      <trkpt lat="45.96457" lon="4.87106">
        <ele>281</ele>
        <time>2017-06-20T09:32:47Z</time>
      </trkpt>
      <trkpt lat="45.96461" lon="4.871">
        <ele>282</ele>
        <time>2017-06-20T09:32:48Z</time>
      </trkpt>
      <trkpt lat="45.96465" lon="4.87094">
        <ele>282</ele>
        <time>2017-06-20T09:32:49Z</time>
      </trkpt>
      <trkpt lat="45.96469" lon="4.8709">
        <ele>282</ele>
        <time>2017-06-20T09:32:50Z</time>
      </trkpt>
      <trkpt lat="45.96472" lon="4.87085">
        <ele>282</ele>
        <time>2017-06-20T09:32:51Z</time>
      </trkpt>
      <trkpt lat="45.96476" lon="4.8708">
        <ele>282</ele>
        <time>2017-06-20T09:32:52Z</time>
      </trkpt>
      <trkpt lat="45.96479" lon="4.87075">
        <ele>282</ele>
        <time>2017-06-20T09:32:53Z</time>
      </trkpt>
      <trkpt lat="45.96482" lon="4.87071">
        <ele>282</ele>
        <time>2017-06-20T09:32:54Z</time>
      </trkpt>
      <trkpt lat="45.96488" lon="4.87062">
        <ele>282</ele>
        <time>2017-06-20T09:32:56Z</time>
      </trkpt>
      <trkpt lat="45.9649" lon="4.87058">
        <ele>281</ele>
        <time>2017-06-20T09:32:57Z</time>
      </trkpt>
      <trkpt lat="45.96496" lon="4.87051">
        <ele>281</ele>
        <time>2017-06-20T09:32:59Z</time>
      </trkpt>
      <trkpt lat="45.965" lon="4.87049">
        <ele>281</ele>
        <time>2017-06-20T09:33:00Z</time>
      </trkpt>
      <trkpt lat="45.96507" lon="4.87051">
        <ele>283</ele>
        <time>2017-06-20T09:33:02Z</time>
      </trkpt>
      <trkpt lat="45.9651" lon="4.87054">
        <ele>283</ele>
        <time>2017-06-20T09:33:03Z</time>
      </trkpt>
      <trkpt lat="45.96517" lon="4.87062">
        <ele>283</ele>
        <time>2017-06-20T09:33:06Z</time>
      </trkpt>
      <trkpt lat="45.96519" lon="4.87065">
        <ele>283</ele>
        <time>2017-06-20T09:33:07Z</time>
      </trkpt>
      <trkpt lat="45.96528" lon="4.87067">
        <ele>283</ele>
        <time>2017-06-20T09:33:10Z</time>
      </trkpt>
      <trkpt lat="45.9653" lon="4.87066">
        <ele>283</ele>
        <time>2017-06-20T09:33:11Z</time>
      </trkpt>
      <trkpt lat="45.96538" lon="4.87068">
        <ele>283</ele>
        <time>2017-06-20T09:33:18Z</time>
      </trkpt>
      <trkpt lat="45.96539" lon="4.8707">
        <ele>283</ele>
        <time>2017-06-20T09:33:19Z</time>
      </trkpt>
      <trkpt lat="45.96546" lon="4.8707">
        <ele>283</ele>
        <time>2017-06-20T09:33:23Z</time>
      </trkpt>
      <trkpt lat="45.96549" lon="4.87071">
        <ele>283</ele>
        <time>2017-06-20T09:33:24Z</time>
      </trkpt>
      <trkpt lat="45.96556" lon="4.87064">
        <ele>283</ele>
        <time>2017-06-20T09:33:28Z</time>
      </trkpt>
      <trkpt lat="45.96556" lon="4.87059">
        <ele>283</ele>
        <time>2017-06-20T09:33:29Z</time>
      </trkpt>
      <trkpt lat="45.96556" lon="4.87049">
        <ele>283</ele>
        <time>2017-06-20T09:33:31Z</time>
      </trkpt>
      <trkpt lat="45.96556" lon="4.87044">
        <ele>283</ele>
        <time>2017-06-20T09:33:32Z</time>
      </trkpt>
      <trkpt lat="45.96555" lon="4.87035">
        <ele>283</ele>
        <time>2017-06-20T09:33:34Z</time>
      </trkpt>
      <trkpt lat="45.96554" lon="4.87031">
        <ele>283</ele>
        <time>2017-06-20T09:33:35Z</time>
      </trkpt>
      <trkpt lat="45.96548" lon="4.87023">
        <ele>283</ele>
        <time>2017-06-20T09:33:40Z</time>
      </trkpt>
      <trkpt lat="45.96547" lon="4.87023">
        <ele>283</ele>
        <time>2017-06-20T09:33:41Z</time>
      </trkpt>
      <trkpt lat="45.96547" lon="4.87021">
        <ele>283</ele>
        <time>2017-06-20T09:40:18Z</time>
      </trkpt>
      <trkpt lat="45.96548" lon="4.87021">
        <ele>283</ele>
        <time>2017-06-20T09:40:19Z</time>
      </trkpt>
      <trkpt lat="45.9654" lon="4.87025">
        <ele>283</ele>
        <time>2017-06-20T09:40:31Z</time>
      </trkpt>
      <trkpt lat="45.96538" lon="4.87026">
        <ele>283</ele>
        <time>2017-06-20T09:40:32Z</time>
      </trkpt>
      <trkpt lat="45.96535" lon="4.87015">
        <ele>283</ele>
        <time>2017-06-20T09:41:04Z</time>
      </trkpt>
      <trkpt lat="45.96536" lon="4.87012">
        <ele>283</ele>
        <time>2017-06-20T09:41:05Z</time>
      </trkpt>
      <trkpt lat="45.9654" lon="4.87004">
        <ele>283</ele>
        <time>2017-06-20T09:41:08Z</time>
      </trkpt>
      <trkpt lat="45.96542" lon="4.87001">
        <ele>283</ele>
        <time>2017-06-20T09:41:09Z</time>
      </trkpt>
      <trkpt lat="45.96546" lon="4.86992">
        <ele>283</ele>
        <time>2017-06-20T09:41:12Z</time>
      </trkpt>
      <trkpt lat="45.96548" lon="4.86989">
        <ele>283</ele>
        <time>2017-06-20T09:41:13Z</time>
      </trkpt>
      <trkpt lat="45.96551" lon="4.86978">
        <ele>283</ele>
        <time>2017-06-20T09:41:17Z</time>
      </trkpt>
      <trkpt lat="45.96553" lon="4.86975">
        <ele>283</ele>
        <time>2017-06-20T09:41:18Z</time>
      </trkpt>
      <trkpt lat="45.96557" lon="4.86968">
        <ele>283</ele>
        <time>2017-06-20T09:41:21Z</time>
      </trkpt>
      <trkpt lat="45.96559" lon="4.86964">
        <ele>283</ele>
        <time>2017-06-20T09:41:22Z</time>
      </trkpt>
      <trkpt lat="45.96563" lon="4.86956">
        <ele>283</ele>
        <time>2017-06-20T09:41:24Z</time>
      </trkpt>
      <trkpt lat="45.96565" lon="4.86953">
        <ele>284</ele>
        <time>2017-06-20T09:41:25Z</time>
      </trkpt>
      <trkpt lat="45.9657" lon="4.86945">
        <ele>284</ele>
        <time>2017-06-20T09:41:27Z</time>
      </trkpt>
      <trkpt lat="45.96572" lon="4.86942">
        <ele>284</ele>
        <time>2017-06-20T09:41:28Z</time>
      </trkpt>
      <trkpt lat="45.96577" lon="4.86934">
        <ele>284</ele>
        <time>2017-06-20T09:41:30Z</time>
      </trkpt>
      <trkpt lat="45.9658" lon="4.86931">
        <ele>284</ele>
        <time>2017-06-20T09:41:31Z</time>
      </trkpt>
      <trkpt lat="45.96585" lon="4.86923">
        <ele>285</ele>
        <time>2017-06-20T09:41:33Z</time>
      </trkpt>
      <trkpt lat="45.96587" lon="4.86919">
        <ele>285</ele>
        <time>2017-06-20T09:41:34Z</time>
      </trkpt>
      <trkpt lat="45.96592" lon="4.8691">
        <ele>286</ele>
        <time>2017-06-20T09:41:36Z</time>
      </trkpt>
      <trkpt lat="45.96594" lon="4.86907">
        <ele>286</ele>
        <time>2017-06-20T09:41:37Z</time>
      </trkpt>
      <trkpt lat="45.96598" lon="4.869">
        <ele>286</ele>
        <time>2017-06-20T09:41:39Z</time>
      </trkpt>
      <trkpt lat="45.96599" lon="4.86896">
        <ele>286</ele>
        <time>2017-06-20T09:41:40Z</time>
      </trkpt>
      <trkpt lat="45.96603" lon="4.86888">
        <ele>287</ele>
        <time>2017-06-20T09:41:42Z</time>
      </trkpt>
      <trkpt lat="45.96605" lon="4.86885">
        <ele>287</ele>
        <time>2017-06-20T09:41:43Z</time>
      </trkpt>
      <trkpt lat="45.96609" lon="4.86877">
        <ele>287</ele>
        <time>2017-06-20T09:41:45Z</time>
      </trkpt>
      <trkpt lat="45.96611" lon="4.86874">
        <ele>287</ele>
        <time>2017-06-20T09:41:46Z</time>
      </trkpt>
      <trkpt lat="45.96615" lon="4.86867">
        <ele>287</ele>
        <time>2017-06-20T09:41:48Z</time>
      </trkpt>
      <trkpt lat="45.96617" lon="4.86863">
        <ele>287</ele>
        <time>2017-06-20T09:41:49Z</time>
      </trkpt>
      <trkpt lat="45.96622" lon="4.86856">
        <ele>287</ele>
        <time>2017-06-20T09:41:51Z</time>
      </trkpt>
      <trkpt lat="45.96624" lon="4.86853">
        <ele>287</ele>
        <time>2017-06-20T09:41:52Z</time>
      </trkpt>
      <trkpt lat="45.96628" lon="4.86846">
        <ele>287</ele>
        <time>2017-06-20T09:41:54Z</time>
      </trkpt>
      <trkpt lat="45.9663" lon="4.86842">
        <ele>287</ele>
        <time>2017-06-20T09:41:55Z</time>
      </trkpt>
      <trkpt lat="45.96635" lon="4.86834">
        <ele>287</ele>
        <time>2017-06-20T09:41:57Z</time>
      </trkpt>
      <trkpt lat="45.96638" lon="4.8683">
        <ele>288</ele>
        <time>2017-06-20T09:41:58Z</time>
      </trkpt>
      <trkpt lat="45.96644" lon="4.8682">
        <ele>288</ele>
        <time>2017-06-20T09:42:00Z</time>
      </trkpt>
      <trkpt lat="45.96646" lon="4.86815">
        <ele>288</ele>
        <time>2017-06-20T09:42:01Z</time>
      </trkpt>
      <trkpt lat="45.96652" lon="4.86806">
        <ele>288</ele>
        <time>2017-06-20T09:42:03Z</time>
      </trkpt>
      <trkpt lat="45.96655" lon="4.86803">
        <ele>288</ele>
        <time>2017-06-20T09:42:04Z</time>
      </trkpt>
      <trkpt lat="45.9666" lon="4.86795">
        <ele>288</ele>
        <time>2017-06-20T09:42:06Z</time>
      </trkpt>
      <trkpt lat="45.96663" lon="4.86791">
        <ele>288</ele>
        <time>2017-06-20T09:42:07Z</time>
      </trkpt>
      <trkpt lat="45.96669" lon="4.86783">
        <ele>289</ele>
        <time>2017-06-20T09:42:09Z</time>
      </trkpt>
      <trkpt lat="45.96671" lon="4.86779">
        <ele>289</ele>
        <time>2017-06-20T09:42:10Z</time>
      </trkpt>
      <trkpt lat="45.96676" lon="4.8677">
        <ele>289</ele>
        <time>2017-06-20T09:42:12Z</time>
      </trkpt>
      <trkpt lat="45.96679" lon="4.86766">
        <ele>289</ele>
        <time>2017-06-20T09:42:13Z</time>
      </trkpt>
      <trkpt lat="45.96685" lon="4.86758">
        <ele>289</ele>
        <time>2017-06-20T09:42:15Z</time>
      </trkpt>
      <trkpt lat="45.96687" lon="4.86754">
        <ele>289</ele>
        <time>2017-06-20T09:42:16Z</time>
      </trkpt>
      <trkpt lat="45.96692" lon="4.86745">
        <ele>289</ele>
        <time>2017-06-20T09:42:18Z</time>
      </trkpt>
      <trkpt lat="45.96695" lon="4.86741">
        <ele>289</ele>
        <time>2017-06-20T09:42:19Z</time>
      </trkpt>
      <trkpt lat="45.96701" lon="4.86732">
        <ele>289</ele>
        <time>2017-06-20T09:42:21Z</time>
      </trkpt>
      <trkpt lat="45.96704" lon="4.86727">
        <ele>289</ele>
        <time>2017-06-20T09:42:22Z</time>
      </trkpt>
      <trkpt lat="45.96706" lon="4.86722">
        <ele>289</ele>
        <time>2017-06-20T09:42:23Z</time>
      </trkpt>
      <trkpt lat="45.96709" lon="4.86716">
        <ele>289</ele>
        <time>2017-06-20T09:42:24Z</time>
      </trkpt>
      <trkpt lat="45.96713" lon="4.86711">
        <ele>289</ele>
        <time>2017-06-20T09:42:25Z</time>
      </trkpt>
      <trkpt lat="45.96716" lon="4.86706">
        <ele>289</ele>
        <time>2017-06-20T09:42:26Z</time>
      </trkpt>
      <trkpt lat="45.96719" lon="4.86701">
        <ele>289</ele>
        <time>2017-06-20T09:42:27Z</time>
      </trkpt>
      <trkpt lat="45.96722" lon="4.86696">
        <ele>289</ele>
        <time>2017-06-20T09:42:28Z</time>
      </trkpt>
      <trkpt lat="45.96727" lon="4.86686">
        <ele>289</ele>
        <time>2017-06-20T09:42:30Z</time>
      </trkpt>
      <trkpt lat="45.96729" lon="4.86681">
        <ele>289</ele>
        <time>2017-06-20T09:42:31Z</time>
      </trkpt>
      <trkpt lat="45.96735" lon="4.86672">
        <ele>290</ele>
        <time>2017-06-20T09:42:33Z</time>
      </trkpt>
      <trkpt lat="45.96738" lon="4.86667">
        <ele>290</ele>
        <time>2017-06-20T09:42:34Z</time>
      </trkpt>
      <trkpt lat="45.96744" lon="4.86661">
        <ele>290</ele>
        <time>2017-06-20T09:42:36Z</time>
      </trkpt>
      <trkpt lat="45.96746" lon="4.86656">
        <ele>290</ele>
        <time>2017-06-20T09:42:37Z</time>
      </trkpt>
      <trkpt lat="45.96751" lon="4.86647">
        <ele>290</ele>
        <time>2017-06-20T09:42:39Z</time>
      </trkpt>
      <trkpt lat="45.96753" lon="4.86642">
        <ele>290</ele>
        <time>2017-06-20T09:42:40Z</time>
      </trkpt>
      <trkpt lat="45.96759" lon="4.86633">
        <ele>290</ele>
        <time>2017-06-20T09:42:42Z</time>
      </trkpt>
      <trkpt lat="45.96762" lon="4.86629">
        <ele>289</ele>
        <time>2017-06-20T09:42:43Z</time>
      </trkpt>
      <trkpt lat="45.96767" lon="4.8662">
        <ele>289</ele>
        <time>2017-06-20T09:42:45Z</time>
      </trkpt>
      <trkpt lat="45.96769" lon="4.86616">
        <ele>289</ele>
        <time>2017-06-20T09:42:46Z</time>
      </trkpt>
      <trkpt lat="45.96775" lon="4.86607">
        <ele>289</ele>
        <time>2017-06-20T09:42:48Z</time>
      </trkpt>
      <trkpt lat="45.96778" lon="4.86602">
        <ele>289</ele>
        <time>2017-06-20T09:42:49Z</time>
      </trkpt>
      <trkpt lat="45.96784" lon="4.86592">
        <ele>289</ele>
        <time>2017-06-20T09:42:51Z</time>
      </trkpt>
      <trkpt lat="45.96787" lon="4.86588">
        <ele>289</ele>
        <time>2017-06-20T09:42:52Z</time>
      </trkpt>
      <trkpt lat="45.9679" lon="4.86583">
        <ele>290</ele>
        <time>2017-06-20T09:42:53Z</time>
      </trkpt>
      <trkpt lat="45.96793" lon="4.86578">
        <ele>290</ele>
        <time>2017-06-20T09:42:54Z</time>
      </trkpt>
      <trkpt lat="45.96799" lon="4.86569">
        <ele>290</ele>
        <time>2017-06-20T09:42:56Z</time>
      </trkpt>
      <trkpt lat="45.96802" lon="4.86564">
        <ele>290</ele>
        <time>2017-06-20T09:42:57Z</time>
      </trkpt>
      <trkpt lat="45.96804" lon="4.86559">
        <ele>290</ele>
        <time>2017-06-20T09:42:58Z</time>
      </trkpt>
      <trkpt lat="45.96808" lon="4.86554">
        <ele>290</ele>
        <time>2017-06-20T09:42:59Z</time>
      </trkpt>
      <trkpt lat="45.96811" lon="4.86549">
        <ele>290</ele>
        <time>2017-06-20T09:43:00Z</time>
      </trkpt>
      <trkpt lat="45.96814" lon="4.86544">
        <ele>290</ele>
        <time>2017-06-20T09:43:01Z</time>
      </trkpt>
      <trkpt lat="45.96818" lon="4.86538">
        <ele>290</ele>
        <time>2017-06-20T09:43:02Z</time>
      </trkpt>
      <trkpt lat="45.96821" lon="4.86533">
        <ele>290</ele>
        <time>2017-06-20T09:43:03Z</time>
      </trkpt>
      <trkpt lat="45.96824" lon="4.86527">
        <ele>289</ele>
        <time>2017-06-20T09:43:04Z</time>
      </trkpt>
      <trkpt lat="45.96827" lon="4.86522">
        <ele>289</ele>
        <time>2017-06-20T09:43:05Z</time>
      </trkpt>
      <trkpt lat="45.9683" lon="4.86517">
        <ele>289</ele>
        <time>2017-06-20T09:43:06Z</time>
      </trkpt>
      <trkpt lat="45.96833" lon="4.86512">
        <ele>289</ele>
        <time>2017-06-20T09:43:07Z</time>
      </trkpt>
      <trkpt lat="45.96837" lon="4.86502">
        <ele>289</ele>
        <time>2017-06-20T09:43:09Z</time>
      </trkpt>
      <trkpt lat="45.96839" lon="4.86498">
        <ele>289</ele>
        <time>2017-06-20T09:43:10Z</time>
      </trkpt>
      <trkpt lat="45.96843" lon="4.86489">
        <ele>289</ele>
        <time>2017-06-20T09:43:12Z</time>
      </trkpt>
      <trkpt lat="45.96844" lon="4.86484">
        <ele>289</ele>
        <time>2017-06-20T09:43:13Z</time>
      </trkpt>
      <trkpt lat="45.96848" lon="4.86474">
        <ele>289</ele>
        <time>2017-06-20T09:43:15Z</time>
      </trkpt>
      <trkpt lat="45.96849" lon="4.86469">
        <ele>289</ele>
        <time>2017-06-20T09:43:16Z</time>
      </trkpt>
      <trkpt lat="45.96851" lon="4.86458">
        <ele>289</ele>
        <time>2017-06-20T09:43:18Z</time>
      </trkpt>
      <trkpt lat="45.96853" lon="4.86453">
        <ele>289</ele>
        <time>2017-06-20T09:43:19Z</time>
      </trkpt>
      <trkpt lat="45.96856" lon="4.86443">
        <ele>290</ele>
        <time>2017-06-20T09:43:21Z</time>
      </trkpt>
      <trkpt lat="45.96857" lon="4.86437">
        <ele>290</ele>
        <time>2017-06-20T09:43:22Z</time>
      </trkpt>
      <trkpt lat="45.96858" lon="4.86426">
        <ele>290</ele>
        <time>2017-06-20T09:43:24Z</time>
      </trkpt>
      <trkpt lat="45.96859" lon="4.86419">
        <ele>290</ele>
        <time>2017-06-20T09:43:25Z</time>
      </trkpt>
      <trkpt lat="45.96861" lon="4.86408">
        <ele>290</ele>
        <time>2017-06-20T09:43:27Z</time>
      </trkpt>
      <trkpt lat="45.96862" lon="4.86402">
        <ele>290</ele>
        <time>2017-06-20T09:43:28Z</time>
      </trkpt>
      <trkpt lat="45.96863" lon="4.86391">
        <ele>290</ele>
        <time>2017-06-20T09:43:30Z</time>
      </trkpt>
      <trkpt lat="45.96864" lon="4.86385">
        <ele>290</ele>
        <time>2017-06-20T09:43:31Z</time>
      </trkpt>
      <trkpt lat="45.96866" lon="4.86373">
        <ele>290</ele>
        <time>2017-06-20T09:43:33Z</time>
      </trkpt>
      <trkpt lat="45.96867" lon="4.86366">
        <ele>290</ele>
        <time>2017-06-20T09:43:34Z</time>
      </trkpt>
      <trkpt lat="45.96867" lon="4.8636">
        <ele>290</ele>
        <time>2017-06-20T09:43:35Z</time>
      </trkpt>
      <trkpt lat="45.96868" lon="4.86353">
        <ele>290</ele>
        <time>2017-06-20T09:43:36Z</time>
      </trkpt>
      <trkpt lat="45.9687" lon="4.86341">
        <ele>290</ele>
        <time>2017-06-20T09:43:38Z</time>
      </trkpt>
      <trkpt lat="45.96871" lon="4.86335">
        <ele>290</ele>
        <time>2017-06-20T09:43:39Z</time>
      </trkpt>
      <trkpt lat="45.96872" lon="4.86329">
        <ele>289</ele>
        <time>2017-06-20T09:43:40Z</time>
      </trkpt>
      <trkpt lat="45.96873" lon="4.86322">
        <ele>289</ele>
        <time>2017-06-20T09:43:41Z</time>
      </trkpt>
      <trkpt lat="45.96874" lon="4.86315">
        <ele>289</ele>
        <time>2017-06-20T09:43:42Z</time>
      </trkpt>
      <trkpt lat="45.96875" lon="4.86308">
        <ele>289</ele>
        <time>2017-06-20T09:43:43Z</time>
      </trkpt>
      <trkpt lat="45.96876" lon="4.86301">
        <ele>289</ele>
        <time>2017-06-20T09:43:44Z</time>
      </trkpt>
      <trkpt lat="45.96876" lon="4.86295">
        <ele>289</ele>
        <time>2017-06-20T09:43:45Z</time>
      </trkpt>
      <trkpt lat="45.96878" lon="4.86283">
        <ele>289</ele>
        <time>2017-06-20T09:43:47Z</time>
      </trkpt>
      <trkpt lat="45.9688" lon="4.86278">
        <ele>289</ele>
        <time>2017-06-20T09:43:48Z</time>
      </trkpt>
      <trkpt lat="45.96881" lon="4.86266">
        <ele>288</ele>
        <time>2017-06-20T09:43:50Z</time>
      </trkpt>
      <trkpt lat="45.96882" lon="4.86261">
        <ele>288</ele>
        <time>2017-06-20T09:43:51Z</time>
      </trkpt>
      <trkpt lat="45.96883" lon="4.86251">
        <ele>288</ele>
        <time>2017-06-20T09:43:53Z</time>
      </trkpt>
      <trkpt lat="45.96884" lon="4.86246">
        <ele>288</ele>
        <time>2017-06-20T09:43:54Z</time>
      </trkpt>
      <trkpt lat="45.96885" lon="4.86234">
        <ele>288</ele>
        <time>2017-06-20T09:43:56Z</time>
      </trkpt>
      <trkpt lat="45.96886" lon="4.86228">
        <ele>289</ele>
        <time>2017-06-20T09:43:57Z</time>
      </trkpt>
      <trkpt lat="45.96887" lon="4.86216">
        <ele>289</ele>
        <time>2017-06-20T09:43:59Z</time>
      </trkpt>
      <trkpt lat="45.96888" lon="4.8621">
        <ele>289</ele>
        <time>2017-06-20T09:44:00Z</time>
      </trkpt>
      <trkpt lat="45.9689" lon="4.86197">
        <ele>289</ele>
        <time>2017-06-20T09:44:02Z</time>
      </trkpt>
      <trkpt lat="45.96891" lon="4.86191">
        <ele>289</ele>
        <time>2017-06-20T09:44:03Z</time>
      </trkpt>
      <trkpt lat="45.96892" lon="4.86184">
        <ele>289</ele>
        <time>2017-06-20T09:44:04Z</time>
      </trkpt>
      <trkpt lat="45.96893" lon="4.86177">
        <ele>289</ele>
        <time>2017-06-20T09:44:05Z</time>
      </trkpt>
      <trkpt lat="45.96894" lon="4.8617">
        <ele>288</ele>
        <time>2017-06-20T09:44:06Z</time>
      </trkpt>
      <trkpt lat="45.96895" lon="4.86162">
        <ele>289</ele>
        <time>2017-06-20T09:44:07Z</time>
      </trkpt>
      <trkpt lat="45.96896" lon="4.86155">
        <ele>289</ele>
        <time>2017-06-20T09:44:08Z</time>
      </trkpt>
      <trkpt lat="45.96897" lon="4.86148">
        <ele>289</ele>
        <time>2017-06-20T09:44:09Z</time>
      </trkpt>
      <trkpt lat="45.96898" lon="4.8614">
        <ele>289</ele>
        <time>2017-06-20T09:44:10Z</time>
      </trkpt>
      <trkpt lat="45.969" lon="4.86132">
        <ele>289</ele>
        <time>2017-06-20T09:44:11Z</time>
      </trkpt>
      <trkpt lat="45.96901" lon="4.86124">
        <ele>289</ele>
        <time>2017-06-20T09:44:12Z</time>
      </trkpt>
      <trkpt lat="45.96902" lon="4.86116">
        <ele>289</ele>
        <time>2017-06-20T09:44:13Z</time>
      </trkpt>
      <trkpt lat="45.96903" lon="4.86108">
        <ele>289</ele>
        <time>2017-06-20T09:44:14Z</time>
      </trkpt>
      <trkpt lat="45.96904" lon="4.86101">
        <ele>288</ele>
        <time>2017-06-20T09:44:15Z</time>
      </trkpt>
      <trkpt lat="45.96905" lon="4.86093">
        <ele>288</ele>
        <time>2017-06-20T09:44:16Z</time>
      </trkpt>
      <trkpt lat="45.96905" lon="4.86085">
        <ele>288</ele>
        <time>2017-06-20T09:44:17Z</time>
      </trkpt>
      <trkpt lat="45.96906" lon="4.86078">
        <ele>288</ele>
        <time>2017-06-20T09:44:18Z</time>
      </trkpt>
      <trkpt lat="45.96907" lon="4.8607">
        <ele>288</ele>
        <time>2017-06-20T09:44:19Z</time>
      </trkpt>
      <trkpt lat="45.96908" lon="4.86063">
        <ele>288</ele>
        <time>2017-06-20T09:44:20Z</time>
      </trkpt>
      <trkpt lat="45.96908" lon="4.86055">
        <ele>288</ele>
        <time>2017-06-20T09:44:21Z</time>
      </trkpt>
      <trkpt lat="45.96908" lon="4.86047">
        <ele>289</ele>
        <time>2017-06-20T09:44:22Z</time>
      </trkpt>
      <trkpt lat="45.96909" lon="4.86039">
        <ele>289</ele>
        <time>2017-06-20T09:44:23Z</time>
      </trkpt>
      <trkpt lat="45.9691" lon="4.86031">
        <ele>289</ele>
        <time>2017-06-20T09:44:24Z</time>
      </trkpt>
      <trkpt lat="45.96912" lon="4.86023">
        <ele>289</ele>
        <time>2017-06-20T09:44:25Z</time>
      </trkpt>
      <trkpt lat="45.96913" lon="4.86016">
        <ele>289</ele>
        <time>2017-06-20T09:44:26Z</time>
      </trkpt>
      <trkpt lat="45.96915" lon="4.86008">
        <ele>288</ele>
        <time>2017-06-20T09:44:27Z</time>
      </trkpt>
      <trkpt lat="45.96916" lon="4.86">
        <ele>288</ele>
        <time>2017-06-20T09:44:28Z</time>
      </trkpt>
      <trkpt lat="45.96918" lon="4.85992">
        <ele>288</ele>
        <time>2017-06-20T09:44:29Z</time>
      </trkpt>
      <trkpt lat="45.96919" lon="4.85985">
        <ele>287</ele>
        <time>2017-06-20T09:44:30Z</time>
      </trkpt>
      <trkpt lat="45.96921" lon="4.85977">
        <ele>287</ele>
        <time>2017-06-20T09:44:31Z</time>
      </trkpt>
      <trkpt lat="45.96922" lon="4.85969">
        <ele>287</ele>
        <time>2017-06-20T09:44:32Z</time>
      </trkpt>
      <trkpt lat="45.96925" lon="4.85961">
        <ele>287</ele>
        <time>2017-06-20T09:44:33Z</time>
      </trkpt>
      <trkpt lat="45.96927" lon="4.85953">
        <ele>287</ele>
        <time>2017-06-20T09:44:34Z</time>
      </trkpt>
      <trkpt lat="45.96929" lon="4.85945">
        <ele>286</ele>
        <time>2017-06-20T09:44:35Z</time>
      </trkpt>
      <trkpt lat="45.96931" lon="4.85937">
        <ele>286</ele>
        <time>2017-06-20T09:44:36Z</time>
      </trkpt>
      <trkpt lat="45.96934" lon="4.85929">
        <ele>286</ele>
        <time>2017-06-20T09:44:37Z</time>
      </trkpt>
      <trkpt lat="45.96936" lon="4.85921">
        <ele>286</ele>
        <time>2017-06-20T09:44:38Z</time>
      </trkpt>
      <trkpt lat="45.96938" lon="4.85912">
        <ele>286</ele>
        <time>2017-06-20T09:44:39Z</time>
      </trkpt>
      <trkpt lat="45.96941" lon="4.85904">
        <ele>285</ele>
        <time>2017-06-20T09:44:40Z</time>
      </trkpt>
      <trkpt lat="45.96943" lon="4.85896">
        <ele>285</ele>
        <time>2017-06-20T09:44:41Z</time>
      </trkpt>
      <trkpt lat="45.96945" lon="4.85888">
        <ele>285</ele>
        <time>2017-06-20T09:44:42Z</time>
      </trkpt>
      <trkpt lat="45.96947" lon="4.85879">
        <ele>285</ele>
        <time>2017-06-20T09:44:43Z</time>
      </trkpt>
      <trkpt lat="45.96949" lon="4.85871">
        <ele>285</ele>
        <time>2017-06-20T09:44:44Z</time>
      </trkpt>
      <trkpt lat="45.96951" lon="4.85863">
        <ele>285</ele>
        <time>2017-06-20T09:44:45Z</time>
      </trkpt>
      <trkpt lat="45.96953" lon="4.85856">
        <ele>285</ele>
        <time>2017-06-20T09:44:46Z</time>
      </trkpt>
      <trkpt lat="45.96955" lon="4.85848">
        <ele>285</ele>
        <time>2017-06-20T09:44:47Z</time>
      </trkpt>
      <trkpt lat="45.96957" lon="4.8584">
        <ele>285</ele>
        <time>2017-06-20T09:44:48Z</time>
      </trkpt>
      <trkpt lat="45.96959" lon="4.85832">
        <ele>285</ele>
        <time>2017-06-20T09:44:49Z</time>
      </trkpt>
      <trkpt lat="45.96961" lon="4.85824">
        <ele>285</ele>
        <time>2017-06-20T09:44:50Z</time>
      </trkpt>
      <trkpt lat="45.96963" lon="4.85817">
        <ele>285</ele>
        <time>2017-06-20T09:44:51Z</time>
      </trkpt>
      <trkpt lat="45.96965" lon="4.8581">
        <ele>285</ele>
        <time>2017-06-20T09:44:52Z</time>
      </trkpt>
      <trkpt lat="45.96967" lon="4.85803">
        <ele>285</ele>
        <time>2017-06-20T09:44:53Z</time>
      </trkpt>
      <trkpt lat="45.96969" lon="4.85796">
        <ele>285</ele>
        <time>2017-06-20T09:44:54Z</time>
      </trkpt>
      <trkpt lat="45.96971" lon="4.85789">
        <ele>285</ele>
        <time>2017-06-20T09:44:55Z</time>
      </trkpt>
      <trkpt lat="45.96972" lon="4.85782">
        <ele>285</ele>
        <time>2017-06-20T09:44:56Z</time>
      </trkpt>
      <trkpt lat="45.96974" lon="4.85774">
        <ele>285</ele>
        <time>2017-06-20T09:44:57Z</time>
      </trkpt>
      <trkpt lat="45.96976" lon="4.85766">
        <ele>285</ele>
        <time>2017-06-20T09:44:58Z</time>
      </trkpt>
      <trkpt lat="45.96978" lon="4.85757">
        <ele>285</ele>
        <time>2017-06-20T09:44:59Z</time>
      </trkpt>
      <trkpt lat="45.96981" lon="4.85749">
        <ele>285</ele>
        <time>2017-06-20T09:45:00Z</time>
      </trkpt>
      <trkpt lat="45.96983" lon="4.8574">
        <ele>285</ele>
        <time>2017-06-20T09:45:01Z</time>
      </trkpt>
      <trkpt lat="45.96986" lon="4.85732">
        <ele>285</ele>
        <time>2017-06-20T09:45:02Z</time>
      </trkpt>
      <trkpt lat="45.96988" lon="4.85724">
        <ele>285</ele>
        <time>2017-06-20T09:45:03Z</time>
      </trkpt>
      <trkpt lat="45.9699" lon="4.85717">
        <ele>285</ele>
        <time>2017-06-20T09:45:04Z</time>
      </trkpt>
      <trkpt lat="45.96992" lon="4.85709">
        <ele>285</ele>
        <time>2017-06-20T09:45:05Z</time>
      </trkpt>
      <trkpt lat="45.96993" lon="4.85702">
        <ele>285</ele>
        <time>2017-06-20T09:45:06Z</time>
      </trkpt>
      <trkpt lat="45.96995" lon="4.85695">
        <ele>285</ele>
        <time>2017-06-20T09:45:07Z</time>
      </trkpt>
      <trkpt lat="45.96996" lon="4.85688">
        <ele>285</ele>
        <time>2017-06-20T09:45:08Z</time>
      </trkpt>
      <trkpt lat="45.96998" lon="4.85681">
        <ele>286</ele>
        <time>2017-06-20T09:45:09Z</time>
      </trkpt>
      <trkpt lat="45.96999" lon="4.85675">
        <ele>286</ele>
        <time>2017-06-20T09:45:10Z</time>
      </trkpt>
      <trkpt lat="45.97001" lon="4.85668">
        <ele>286</ele>
        <time>2017-06-20T09:45:11Z</time>
      </trkpt>
      <trkpt lat="45.97002" lon="4.85661">
        <ele>285</ele>
        <time>2017-06-20T09:45:12Z</time>
      </trkpt>
      <trkpt lat="45.97004" lon="4.85653">
        <ele>285</ele>
        <time>2017-06-20T09:45:13Z</time>
      </trkpt>
      <trkpt lat="45.97006" lon="4.85646">
        <ele>284</ele>
        <time>2017-06-20T09:45:14Z</time>
      </trkpt>
      <trkpt lat="45.97008" lon="4.85638">
        <ele>284</ele>
        <time>2017-06-20T09:45:15Z</time>
      </trkpt>
      <trkpt lat="45.9701" lon="4.8563">
        <ele>284</ele>
        <time>2017-06-20T09:45:16Z</time>
      </trkpt>
      <trkpt lat="45.97012" lon="4.85622">
        <ele>284</ele>
        <time>2017-06-20T09:45:17Z</time>
      </trkpt>
      <trkpt lat="45.97015" lon="4.85614">
        <ele>284</ele>
        <time>2017-06-20T09:45:18Z</time>
      </trkpt>
      <trkpt lat="45.97017" lon="4.85606">
        <ele>284</ele>
        <time>2017-06-20T09:45:19Z</time>
      </trkpt>
      <trkpt lat="45.9702" lon="4.85598">
        <ele>284</ele>
        <time>2017-06-20T09:45:20Z</time>
      </trkpt>
      <trkpt lat="45.97022" lon="4.8559">
        <ele>284</ele>
        <time>2017-06-20T09:45:21Z</time>
      </trkpt>
      <trkpt lat="45.97025" lon="4.85581">
        <ele>283</ele>
        <time>2017-06-20T09:45:22Z</time>
      </trkpt>
      <trkpt lat="45.97027" lon="4.85572">
        <ele>283</ele>
        <time>2017-06-20T09:45:23Z</time>
      </trkpt>
      <trkpt lat="45.9703" lon="4.85564">
        <ele>283</ele>
        <time>2017-06-20T09:45:24Z</time>
      </trkpt>
      <trkpt lat="45.97032" lon="4.85555">
        <ele>283</ele>
        <time>2017-06-20T09:45:25Z</time>
      </trkpt>
      <trkpt lat="45.97035" lon="4.85546">
        <ele>282</ele>
        <time>2017-06-20T09:45:26Z</time>
      </trkpt>
      <trkpt lat="45.97038" lon="4.85537">
        <ele>282</ele>
        <time>2017-06-20T09:45:27Z</time>
      </trkpt>
      <trkpt lat="45.9704" lon="4.85529">
        <ele>282</ele>
        <time>2017-06-20T09:45:28Z</time>
      </trkpt>
      <trkpt lat="45.97043" lon="4.8552">
        <ele>282</ele>
        <time>2017-06-20T09:45:29Z</time>
      </trkpt>
      <trkpt lat="45.97046" lon="4.85511">
        <ele>282</ele>
        <time>2017-06-20T09:45:30Z</time>
      </trkpt>
      <trkpt lat="45.97049" lon="4.85503">
        <ele>282</ele>
        <time>2017-06-20T09:45:31Z</time>
      </trkpt>
      <trkpt lat="45.97052" lon="4.85494">
        <ele>281</ele>
        <time>2017-06-20T09:45:32Z</time>
      </trkpt>
      <trkpt lat="45.97055" lon="4.85485">
        <ele>281</ele>
        <time>2017-06-20T09:45:33Z</time>
      </trkpt>
      <trkpt lat="45.97057" lon="4.85476">
        <ele>281</ele>
        <time>2017-06-20T09:45:34Z</time>
      </trkpt>
      <trkpt lat="45.9706" lon="4.85467">
        <ele>281</ele>
        <time>2017-06-20T09:45:35Z</time>
      </trkpt>
      <trkpt lat="45.97063" lon="4.85458">
        <ele>281</ele>
        <time>2017-06-20T09:45:36Z</time>
      </trkpt>
      <trkpt lat="45.97066" lon="4.85449">
        <ele>281</ele>
        <time>2017-06-20T09:45:37Z</time>
      </trkpt>
      <trkpt lat="45.97068" lon="4.8544">
        <ele>281</ele>
        <time>2017-06-20T09:45:38Z</time>
      </trkpt>
      <trkpt lat="45.97071" lon="4.85431">
        <ele>281</ele>
        <time>2017-06-20T09:45:39Z</time>
      </trkpt>
      <trkpt lat="45.97074" lon="4.85422">
        <ele>281</ele>
        <time>2017-06-20T09:45:40Z</time>
      </trkpt>
      <trkpt lat="45.97077" lon="4.85414">
        <ele>280</ele>
        <time>2017-06-20T09:45:41Z</time>
      </trkpt>
      <trkpt lat="45.9708" lon="4.85405">
        <ele>281</ele>
        <time>2017-06-20T09:45:42Z</time>
      </trkpt>
      <trkpt lat="45.97082" lon="4.85396">
        <ele>281</ele>
        <time>2017-06-20T09:45:43Z</time>
      </trkpt>
      <trkpt lat="45.97085" lon="4.85388">
        <ele>280</ele>
        <time>2017-06-20T09:45:44Z</time>
      </trkpt>
      <trkpt lat="45.97088" lon="4.8538">
        <ele>280</ele>
        <time>2017-06-20T09:45:45Z</time>
      </trkpt>
      <trkpt lat="45.9709" lon="4.85372">
        <ele>280</ele>
        <time>2017-06-20T09:45:46Z</time>
      </trkpt>
      <trkpt lat="45.97093" lon="4.85363">
        <ele>280</ele>
        <time>2017-06-20T09:45:47Z</time>
      </trkpt>
      <trkpt lat="45.97095" lon="4.85355">
        <ele>280</ele>
        <time>2017-06-20T09:45:48Z</time>
      </trkpt>
      <trkpt lat="45.97098" lon="4.85347">
        <ele>280</ele>
        <time>2017-06-20T09:45:49Z</time>
      </trkpt>
      <trkpt lat="45.97102" lon="4.85338">
        <ele>280</ele>
        <time>2017-06-20T09:45:50Z</time>
      </trkpt>
      <trkpt lat="45.97105" lon="4.8533">
        <ele>280</ele>
        <time>2017-06-20T09:45:51Z</time>
      </trkpt>
      <trkpt lat="45.97107" lon="4.85321">
        <ele>280</ele>
        <time>2017-06-20T09:45:52Z</time>
      </trkpt>
      <trkpt lat="45.97111" lon="4.85313">
        <ele>280</ele>
        <time>2017-06-20T09:45:53Z</time>
      </trkpt>
      <trkpt lat="45.97114" lon="4.85306">
        <ele>280</ele>
        <time>2017-06-20T09:45:54Z</time>
      </trkpt>
      <trkpt lat="45.97117" lon="4.85298">
        <ele>280</ele>
        <time>2017-06-20T09:45:55Z</time>
      </trkpt>
      <trkpt lat="45.97121" lon="4.85291">
        <ele>280</ele>
        <time>2017-06-20T09:45:56Z</time>
      </trkpt>
      <trkpt lat="45.97124" lon="4.85283">
        <ele>280</ele>
        <time>2017-06-20T09:45:57Z</time>
      </trkpt>
      <trkpt lat="45.97127" lon="4.85276">
        <ele>279</ele>
        <time>2017-06-20T09:45:58Z</time>
      </trkpt>
      <trkpt lat="45.97131" lon="4.8527">
        <ele>279</ele>
        <time>2017-06-20T09:45:59Z</time>
      </trkpt>
      <trkpt lat="45.97133" lon="4.85262">
        <ele>279</ele>
        <time>2017-06-20T09:46:00Z</time>
      </trkpt>
      <trkpt lat="45.97137" lon="4.85255">
        <ele>279</ele>
        <time>2017-06-20T09:46:01Z</time>
      </trkpt>
      <trkpt lat="45.97141" lon="4.85248">
        <ele>279</ele>
        <time>2017-06-20T09:46:02Z</time>
      </trkpt>
      <trkpt lat="45.97145" lon="4.8524">
        <ele>279</ele>
        <time>2017-06-20T09:46:03Z</time>
      </trkpt>
      <trkpt lat="45.97149" lon="4.85232">
        <ele>279</ele>
        <time>2017-06-20T09:46:04Z</time>
      </trkpt>
      <trkpt lat="45.97153" lon="4.85223">
        <ele>279</ele>
        <time>2017-06-20T09:46:05Z</time>
      </trkpt>
      <trkpt lat="45.97157" lon="4.85215">
        <ele>279</ele>
        <time>2017-06-20T09:46:06Z</time>
      </trkpt>
      <trkpt lat="45.97161" lon="4.85207">
        <ele>279</ele>
        <time>2017-06-20T09:46:07Z</time>
      </trkpt>
      <trkpt lat="45.97165" lon="4.85199">
        <ele>279</ele>
        <time>2017-06-20T09:46:08Z</time>
      </trkpt>
      <trkpt lat="45.97168" lon="4.85191">
        <ele>278</ele>
        <time>2017-06-20T09:46:09Z</time>
      </trkpt>
      <trkpt lat="45.97172" lon="4.85184">
        <ele>278</ele>
        <time>2017-06-20T09:46:10Z</time>
      </trkpt>
      <trkpt lat="45.97176" lon="4.85176">
        <ele>278</ele>
        <time>2017-06-20T09:46:11Z</time>
      </trkpt>
      <trkpt lat="45.9718" lon="4.85169">
        <ele>278</ele>
        <time>2017-06-20T09:46:12Z</time>
      </trkpt>
      <trkpt lat="45.97183" lon="4.85161">
        <ele>278</ele>
        <time>2017-06-20T09:46:13Z</time>
      </trkpt>
      <trkpt lat="45.97186" lon="4.85154">
        <ele>278</ele>
        <time>2017-06-20T09:46:14Z</time>
      </trkpt>
      <trkpt lat="45.97189" lon="4.85146">
        <ele>278</ele>
        <time>2017-06-20T09:46:15Z</time>
      </trkpt>
      <trkpt lat="45.97192" lon="4.85139">
        <ele>278</ele>
        <time>2017-06-20T09:46:16Z</time>
      </trkpt>
      <trkpt lat="45.97196" lon="4.85132">
        <ele>278</ele>
        <time>2017-06-20T09:46:17Z</time>
      </trkpt>
      <trkpt lat="45.972" lon="4.85126">
        <ele>278</ele>
        <time>2017-06-20T09:46:18Z</time>
      </trkpt>
      <trkpt lat="45.97203" lon="4.85119">
        <ele>278</ele>
        <time>2017-06-20T09:46:19Z</time>
      </trkpt>
      <trkpt lat="45.97206" lon="4.85112">
        <ele>278</ele>
        <time>2017-06-20T09:46:20Z</time>
      </trkpt>
      <trkpt lat="45.97209" lon="4.85106">
        <ele>278</ele>
        <time>2017-06-20T09:46:21Z</time>
      </trkpt>
      <trkpt lat="45.97213" lon="4.85099">
        <ele>278</ele>
        <time>2017-06-20T09:46:22Z</time>
      </trkpt>
      <trkpt lat="45.97216" lon="4.85093">
        <ele>278</ele>
        <time>2017-06-20T09:46:23Z</time>
      </trkpt>
      <trkpt lat="45.97219" lon="4.85087">
        <ele>278</ele>
        <time>2017-06-20T09:46:24Z</time>
      </trkpt>
      <trkpt lat="45.97222" lon="4.8508">
        <ele>278</ele>
        <time>2017-06-20T09:46:25Z</time>
      </trkpt>
      <trkpt lat="45.97225" lon="4.85074">
        <ele>278</ele>
        <time>2017-06-20T09:46:26Z</time>
      </trkpt>
      <trkpt lat="45.97227" lon="4.85068">
        <ele>278</ele>
        <time>2017-06-20T09:46:27Z</time>
      </trkpt>
      <trkpt lat="45.97231" lon="4.85061">
        <ele>279</ele>
        <time>2017-06-20T09:46:28Z</time>
      </trkpt>
      <trkpt lat="45.97234" lon="4.85054">
        <ele>279</ele>
        <time>2017-06-20T09:46:29Z</time>
      </trkpt>
      <trkpt lat="45.97237" lon="4.85047">
        <ele>279</ele>
        <time>2017-06-20T09:46:30Z</time>
      </trkpt>
      <trkpt lat="45.97241" lon="4.85039">
        <ele>279</ele>
        <time>2017-06-20T09:46:31Z</time>
      </trkpt>
      <trkpt lat="45.97244" lon="4.85032">
        <ele>279</ele>
        <time>2017-06-20T09:46:32Z</time>
      </trkpt>
      <trkpt lat="45.97247" lon="4.85024">
        <ele>279</ele>
        <time>2017-06-20T09:46:33Z</time>
      </trkpt>
      <trkpt lat="45.9725" lon="4.85017">
        <ele>279</ele>
        <time>2017-06-20T09:46:34Z</time>
      </trkpt>
      <trkpt lat="45.97254" lon="4.8501">
        <ele>279</ele>
        <time>2017-06-20T09:46:35Z</time>
      </trkpt>
      <trkpt lat="45.97257" lon="4.85003">
        <ele>279</ele>
        <time>2017-06-20T09:46:36Z</time>
      </trkpt>
      <trkpt lat="45.9726" lon="4.84995">
        <ele>279</ele>
        <time>2017-06-20T09:46:37Z</time>
      </trkpt>
      <trkpt lat="45.97263" lon="4.84988">
        <ele>279</ele>
        <time>2017-06-20T09:46:38Z</time>
      </trkpt>
      <trkpt lat="45.97266" lon="4.84982">
        <ele>279</ele>
        <time>2017-06-20T09:46:39Z</time>
      </trkpt>
      <trkpt lat="45.97269" lon="4.84975">
        <ele>279</ele>
        <time>2017-06-20T09:46:40Z</time>
      </trkpt>
      <trkpt lat="45.97272" lon="4.84968">
        <ele>278</ele>
        <time>2017-06-20T09:46:41Z</time>
      </trkpt>
      <trkpt lat="45.97275" lon="4.84962">
        <ele>278</ele>
        <time>2017-06-20T09:46:42Z</time>
      </trkpt>
      <trkpt lat="45.97279" lon="4.84956">
        <ele>278</ele>
        <time>2017-06-20T09:46:43Z</time>
      </trkpt>
      <trkpt lat="45.97282" lon="4.84949">
        <ele>278</ele>
        <time>2017-06-20T09:46:44Z</time>
      </trkpt>
      <trkpt lat="45.97286" lon="4.84943">
        <ele>278</ele>
        <time>2017-06-20T09:46:45Z</time>
      </trkpt>
      <trkpt lat="45.97291" lon="4.84936">
        <ele>278</ele>
        <time>2017-06-20T09:46:46Z</time>
      </trkpt>
      <trkpt lat="45.97294" lon="4.84931">
        <ele>278</ele>
        <time>2017-06-20T09:46:47Z</time>
      </trkpt>
      <trkpt lat="45.97298" lon="4.84925">
        <ele>278</ele>
        <time>2017-06-20T09:46:48Z</time>
      </trkpt>
      <trkpt lat="45.97301" lon="4.84919">
        <ele>278</ele>
        <time>2017-06-20T09:46:49Z</time>
      </trkpt>
      <trkpt lat="45.97306" lon="4.84914">
        <ele>278</ele>
        <time>2017-06-20T09:46:50Z</time>
      </trkpt>
      <trkpt lat="45.97309" lon="4.84908">
        <ele>278</ele>
        <time>2017-06-20T09:46:51Z</time>
      </trkpt>
      <trkpt lat="45.97313" lon="4.84903">
        <ele>278</ele>
        <time>2017-06-20T09:46:52Z</time>
      </trkpt>
      <trkpt lat="45.97316" lon="4.84897">
        <ele>278</ele>
        <time>2017-06-20T09:46:53Z</time>
      </trkpt>
      <trkpt lat="45.97319" lon="4.84891">
        <ele>278</ele>
        <time>2017-06-20T09:46:54Z</time>
      </trkpt>
      <trkpt lat="45.97322" lon="4.84886">
        <ele>278</ele>
        <time>2017-06-20T09:46:55Z</time>
      </trkpt>
      <trkpt lat="45.97325" lon="4.84882">
        <ele>278</ele>
        <time>2017-06-20T09:46:56Z</time>
      </trkpt>
      <trkpt lat="45.97328" lon="4.84876">
        <ele>278</ele>
        <time>2017-06-20T09:46:57Z</time>
      </trkpt>
      <trkpt lat="45.97334" lon="4.84867">
        <ele>277</ele>
        <time>2017-06-20T09:46:59Z</time>
      </trkpt>
      <trkpt lat="45.97336" lon="4.84862">
        <ele>277</ele>
        <time>2017-06-20T09:47:00Z</time>
      </trkpt>
      <trkpt lat="45.97338" lon="4.84856">
        <ele>277</ele>
        <time>2017-06-20T09:47:01Z</time>
      </trkpt>
      <trkpt lat="45.97341" lon="4.8485">
        <ele>277</ele>
        <time>2017-06-20T09:47:02Z</time>
      </trkpt>
      <trkpt lat="45.97344" lon="4.84844">
        <ele>277</ele>
        <time>2017-06-20T09:47:03Z</time>
      </trkpt>
      <trkpt lat="45.97347" lon="4.84837">
        <ele>277</ele>
        <time>2017-06-20T09:47:04Z</time>
      </trkpt>
      <trkpt lat="45.9735" lon="4.84831">
        <ele>278</ele>
        <time>2017-06-20T09:47:05Z</time>
      </trkpt>
      <trkpt lat="45.97353" lon="4.84823">
        <ele>278</ele>
        <time>2017-06-20T09:47:06Z</time>
      </trkpt>
      <trkpt lat="45.97356" lon="4.84816">
        <ele>278</ele>
        <time>2017-06-20T09:47:07Z</time>
      </trkpt>
      <trkpt lat="45.97358" lon="4.84808">
        <ele>278</ele>
        <time>2017-06-20T09:47:08Z</time>
      </trkpt>
      <trkpt lat="45.9736" lon="4.848">
        <ele>278</ele>
        <time>2017-06-20T09:47:09Z</time>
      </trkpt>
      <trkpt lat="45.97363" lon="4.84792">
        <ele>278</ele>
        <time>2017-06-20T09:47:10Z</time>
      </trkpt>
      <trkpt lat="45.97366" lon="4.84784">
        <ele>278</ele>
        <time>2017-06-20T09:47:11Z</time>
      </trkpt>
      <trkpt lat="45.97369" lon="4.84777">
        <ele>278</ele>
        <time>2017-06-20T09:47:12Z</time>
      </trkpt>
      <trkpt lat="45.97372" lon="4.8477">
        <ele>278</ele>
        <time>2017-06-20T09:47:13Z</time>
      </trkpt>
      <trkpt lat="45.97375" lon="4.84763">
        <ele>278</ele>
        <time>2017-06-20T09:47:14Z</time>
      </trkpt>
      <trkpt lat="45.97378" lon="4.84755">
        <ele>278</ele>
        <time>2017-06-20T09:47:15Z</time>
      </trkpt>
      <trkpt lat="45.97381" lon="4.84749">
        <ele>278</ele>
        <time>2017-06-20T09:47:16Z</time>
      </trkpt>
      <trkpt lat="45.97384" lon="4.84743">
        <ele>278</ele>
        <time>2017-06-20T09:47:17Z</time>
      </trkpt>
      <trkpt lat="45.97388" lon="4.84738">
        <ele>278</ele>
        <time>2017-06-20T09:47:18Z</time>
      </trkpt>
      <trkpt lat="45.97393" lon="4.84733">
        <ele>278</ele>
        <time>2017-06-20T09:47:19Z</time>
      </trkpt>
      <trkpt lat="45.97397" lon="4.84728">
        <ele>278</ele>
        <time>2017-06-20T09:47:20Z</time>
      </trkpt>
      <trkpt lat="45.97402" lon="4.84725">
        <ele>278</ele>
        <time>2017-06-20T09:47:21Z</time>
      </trkpt>
      <trkpt lat="45.97407" lon="4.84721">
        <ele>278</ele>
        <time>2017-06-20T09:47:22Z</time>
      </trkpt>
      <trkpt lat="45.97412" lon="4.84717">
        <ele>278</ele>
        <time>2017-06-20T09:47:23Z</time>
      </trkpt>
      <trkpt lat="45.97417" lon="4.84713">
        <ele>276</ele>
        <time>2017-06-20T09:47:24Z</time>
      </trkpt>
      <trkpt lat="45.97422" lon="4.84709">
        <ele>276</ele>
        <time>2017-06-20T09:47:25Z</time>
      </trkpt>
      <trkpt lat="45.97427" lon="4.84705">
        <ele>276</ele>
        <time>2017-06-20T09:47:26Z</time>
      </trkpt>
      <trkpt lat="45.97432" lon="4.84702">
        <ele>276</ele>
        <time>2017-06-20T09:47:27Z</time>
      </trkpt>
      <trkpt lat="45.97437" lon="4.84699">
        <ele>276</ele>
        <time>2017-06-20T09:47:28Z</time>
      </trkpt>
      <trkpt lat="45.97442" lon="4.84695">
        <ele>276</ele>
        <time>2017-06-20T09:47:29Z</time>
      </trkpt>
      <trkpt lat="45.97447" lon="4.84691">
        <ele>276</ele>
        <time>2017-06-20T09:47:30Z</time>
      </trkpt>
      <trkpt lat="45.97452" lon="4.84688">
        <ele>276</ele>
        <time>2017-06-20T09:47:31Z</time>
      </trkpt>
      <trkpt lat="45.97457" lon="4.84684">
        <ele>276</ele>
        <time>2017-06-20T09:47:32Z</time>
      </trkpt>
      <trkpt lat="45.97462" lon="4.84681">
        <ele>276</ele>
        <time>2017-06-20T09:47:33Z</time>
      </trkpt>
      <trkpt lat="45.97466" lon="4.84678">
        <ele>276</ele>
        <time>2017-06-20T09:47:34Z</time>
      </trkpt>
      <trkpt lat="45.97471" lon="4.84674">
        <ele>276</ele>
        <time>2017-06-20T09:47:35Z</time>
      </trkpt>
      <trkpt lat="45.97476" lon="4.84671">
        <ele>276</ele>
        <time>2017-06-20T09:47:36Z</time>
      </trkpt>
      <trkpt lat="45.9748" lon="4.84668">
        <ele>276</ele>
        <time>2017-06-20T09:47:37Z</time>
      </trkpt>
      <trkpt lat="45.97485" lon="4.84666">
        <ele>275</ele>
        <time>2017-06-20T09:47:38Z</time>
      </trkpt>
      <trkpt lat="45.97489" lon="4.84662">
        <ele>275</ele>
        <time>2017-06-20T09:47:39Z</time>
      </trkpt>
      <trkpt lat="45.97493" lon="4.84659">
        <ele>275</ele>
        <time>2017-06-20T09:47:40Z</time>
      </trkpt>
      <trkpt lat="45.97498" lon="4.84656">
        <ele>275</ele>
        <time>2017-06-20T09:47:41Z</time>
      </trkpt>
      <trkpt lat="45.97503" lon="4.84653">
        <ele>275</ele>
        <time>2017-06-20T09:47:42Z</time>
      </trkpt>
      <trkpt lat="45.97507" lon="4.84649">
        <ele>275</ele>
        <time>2017-06-20T09:47:43Z</time>
      </trkpt>
      <trkpt lat="45.97512" lon="4.84645">
        <ele>275</ele>
        <time>2017-06-20T09:47:44Z</time>
      </trkpt>
      <trkpt lat="45.97517" lon="4.84641">
        <ele>275</ele>
        <time>2017-06-20T09:47:45Z</time>
      </trkpt>
      <trkpt lat="45.97523" lon="4.84637">
        <ele>275</ele>
        <time>2017-06-20T09:47:46Z</time>
      </trkpt>
      <trkpt lat="45.97529" lon="4.84632">
        <ele>275</ele>
        <time>2017-06-20T09:47:47Z</time>
      </trkpt>
      <trkpt lat="45.97534" lon="4.84627">
        <ele>275</ele>
        <time>2017-06-20T09:47:48Z</time>
      </trkpt>
      <trkpt lat="45.97539" lon="4.84622">
        <ele>275</ele>
        <time>2017-06-20T09:47:49Z</time>
      </trkpt>
      <trkpt lat="45.97545" lon="4.84617">
        <ele>274</ele>
        <time>2017-06-20T09:47:50Z</time>
      </trkpt>
      <trkpt lat="45.9755" lon="4.84613">
        <ele>274</ele>
        <time>2017-06-20T09:47:51Z</time>
      </trkpt>
      <trkpt lat="45.97555" lon="4.84608">
        <ele>274</ele>
        <time>2017-06-20T09:47:52Z</time>
      </trkpt>
      <trkpt lat="45.9756" lon="4.84603">
        <ele>274</ele>
        <time>2017-06-20T09:47:53Z</time>
      </trkpt>
      <trkpt lat="45.97565" lon="4.84598">
        <ele>274</ele>
        <time>2017-06-20T09:47:54Z</time>
      </trkpt>
      <trkpt lat="45.9757" lon="4.84593">
        <ele>274</ele>
        <time>2017-06-20T09:47:55Z</time>
      </trkpt>
      <trkpt lat="45.97575" lon="4.84587">
        <ele>274</ele>
        <time>2017-06-20T09:47:56Z</time>
      </trkpt>
      <trkpt lat="45.97579" lon="4.84582">
        <ele>274</ele>
        <time>2017-06-20T09:47:57Z</time>
      </trkpt>
      <trkpt lat="45.97584" lon="4.84577">
        <ele>274</ele>
        <time>2017-06-20T09:47:58Z</time>
      </trkpt>
      <trkpt lat="45.97588" lon="4.84572">
        <ele>274</ele>
        <time>2017-06-20T09:47:59Z</time>
      </trkpt>
      <trkpt lat="45.97593" lon="4.84567">
        <ele>274</ele>
        <time>2017-06-20T09:48:00Z</time>
      </trkpt>
      <trkpt lat="45.97597" lon="4.84562">
        <ele>275</ele>
        <time>2017-06-20T09:48:01Z</time>
      </trkpt>
      <trkpt lat="45.97601" lon="4.84557">
        <ele>275</ele>
        <time>2017-06-20T09:48:02Z</time>
      </trkpt>
      <trkpt lat="45.97605" lon="4.84552">
        <ele>275</ele>
        <time>2017-06-20T09:48:03Z</time>
      </trkpt>
      <trkpt lat="45.97609" lon="4.84548">
        <ele>275</ele>
        <time>2017-06-20T09:48:04Z</time>
      </trkpt>
      <trkpt lat="45.97613" lon="4.84543">
        <ele>275</ele>
        <time>2017-06-20T09:48:05Z</time>
      </trkpt>
      <trkpt lat="45.97617" lon="4.84538">
        <ele>275</ele>
        <time>2017-06-20T09:48:06Z</time>
      </trkpt>
      <trkpt lat="45.97621" lon="4.84533">
        <ele>275</ele>
        <time>2017-06-20T09:48:07Z</time>
      </trkpt>
      <trkpt lat="45.97624" lon="4.84528">
        <ele>275</ele>
        <time>2017-06-20T09:48:08Z</time>
      </trkpt>
      <trkpt lat="45.97628" lon="4.84523">
        <ele>275</ele>
        <time>2017-06-20T09:48:09Z</time>
      </trkpt>
      <trkpt lat="45.97632" lon="4.84518">
        <ele>275</ele>
        <time>2017-06-20T09:48:10Z</time>
      </trkpt>
      <trkpt lat="45.97636" lon="4.84514">
        <ele>275</ele>
        <time>2017-06-20T09:48:11Z</time>
      </trkpt>
      <trkpt lat="45.9764" lon="4.84509">
        <ele>275</ele>
        <time>2017-06-20T09:48:12Z</time>
      </trkpt>
      <trkpt lat="45.97644" lon="4.84504">
        <ele>275</ele>
        <time>2017-06-20T09:48:13Z</time>
      </trkpt>
      <trkpt lat="45.97648" lon="4.84499">
        <ele>275</ele>
        <time>2017-06-20T09:48:14Z</time>
      </trkpt>
      <trkpt lat="45.97653" lon="4.84494">
        <ele>275</ele>
        <time>2017-06-20T09:48:15Z</time>
      </trkpt>
      <trkpt lat="45.97657" lon="4.84489">
        <ele>275</ele>
        <time>2017-06-20T09:48:16Z</time>
      </trkpt>
      <trkpt lat="45.97662" lon="4.84483">
        <ele>275</ele>
        <time>2017-06-20T09:48:17Z</time>
      </trkpt>
      <trkpt lat="45.97667" lon="4.84479">
        <ele>276</ele>
        <time>2017-06-20T09:48:18Z</time>
      </trkpt>
      <trkpt lat="45.97672" lon="4.84475">
        <ele>276</ele>
        <time>2017-06-20T09:48:19Z</time>
      </trkpt>
      <trkpt lat="45.97677" lon="4.84472">
        <ele>277</ele>
        <time>2017-06-20T09:48:20Z</time>
      </trkpt>
      <trkpt lat="45.97682" lon="4.84469">
        <ele>277</ele>
        <time>2017-06-20T09:48:21Z</time>
      </trkpt>
      <trkpt lat="45.97687" lon="4.84466">
        <ele>277</ele>
        <time>2017-06-20T09:48:22Z</time>
      </trkpt>
      <trkpt lat="45.97692" lon="4.84464">
        <ele>277</ele>
        <time>2017-06-20T09:48:23Z</time>
      </trkpt>
      <trkpt lat="45.97698" lon="4.84461">
        <ele>277</ele>
        <time>2017-06-20T09:48:24Z</time>
      </trkpt>
      <trkpt lat="45.97704" lon="4.84459">
        <ele>277</ele>
        <time>2017-06-20T09:48:25Z</time>
      </trkpt>
      <trkpt lat="45.9771" lon="4.84456">
        <ele>277</ele>
        <time>2017-06-20T09:48:26Z</time>
      </trkpt>
      <trkpt lat="45.97715" lon="4.84454">
        <ele>277</ele>
        <time>2017-06-20T09:48:27Z</time>
      </trkpt>
      <trkpt lat="45.9772" lon="4.84452">
        <ele>277</ele>
        <time>2017-06-20T09:48:28Z</time>
      </trkpt>
      <trkpt lat="45.97726" lon="4.8445">
        <ele>277</ele>
        <time>2017-06-20T09:48:29Z</time>
      </trkpt>
      <trkpt lat="45.97732" lon="4.84448">
        <ele>277</ele>
        <time>2017-06-20T09:48:30Z</time>
      </trkpt>
      <trkpt lat="45.97738" lon="4.84445">
        <ele>277</ele>
        <time>2017-06-20T09:48:31Z</time>
      </trkpt>
      <trkpt lat="45.97744" lon="4.84443">
        <ele>277</ele>
        <time>2017-06-20T09:48:32Z</time>
      </trkpt>
      <trkpt lat="45.97749" lon="4.84441">
        <ele>277</ele>
        <time>2017-06-20T09:48:33Z</time>
      </trkpt>
      <trkpt lat="45.97755" lon="4.8444">
        <ele>277</ele>
        <time>2017-06-20T09:48:34Z</time>
      </trkpt>
      <trkpt lat="45.9776" lon="4.84438">
        <ele>277</ele>
        <time>2017-06-20T09:48:35Z</time>
      </trkpt>
      <trkpt lat="45.97766" lon="4.84436">
        <ele>277</ele>
        <time>2017-06-20T09:48:36Z</time>
      </trkpt>
      <trkpt lat="45.97771" lon="4.84434">
        <ele>277</ele>
        <time>2017-06-20T09:48:37Z</time>
      </trkpt>
      <trkpt lat="45.97777" lon="4.84431">
        <ele>277</ele>
        <time>2017-06-20T09:48:38Z</time>
      </trkpt>
      <trkpt lat="45.97782" lon="4.8443">
        <ele>277</ele>
        <time>2017-06-20T09:48:39Z</time>
      </trkpt>
      <trkpt lat="45.97787" lon="4.84427">
        <ele>277</ele>
        <time>2017-06-20T09:48:40Z</time>
      </trkpt>
      <trkpt lat="45.97793" lon="4.84424">
        <ele>277</ele>
        <time>2017-06-20T09:48:41Z</time>
      </trkpt>
      <trkpt lat="45.97798" lon="4.84421">
        <ele>277</ele>
        <time>2017-06-20T09:48:42Z</time>
      </trkpt>
      <trkpt lat="45.97802" lon="4.84419">
        <ele>277</ele>
        <time>2017-06-20T09:48:43Z</time>
      </trkpt>
      <trkpt lat="45.97807" lon="4.84416">
        <ele>277</ele>
        <time>2017-06-20T09:48:44Z</time>
      </trkpt>
      <trkpt lat="45.97811" lon="4.84414">
        <ele>277</ele>
        <time>2017-06-20T09:48:45Z</time>
      </trkpt>
      <trkpt lat="45.97816" lon="4.84411">
        <ele>276</ele>
        <time>2017-06-20T09:48:46Z</time>
      </trkpt>
      <trkpt lat="45.9782" lon="4.84408">
        <ele>276</ele>
        <time>2017-06-20T09:48:47Z</time>
      </trkpt>
      <trkpt lat="45.97824" lon="4.84405">
        <ele>276</ele>
        <time>2017-06-20T09:48:48Z</time>
      </trkpt>
      <trkpt lat="45.97829" lon="4.84402">
        <ele>276</ele>
        <time>2017-06-20T09:48:49Z</time>
      </trkpt>
      <trkpt lat="45.97833" lon="4.84399">
        <ele>276</ele>
        <time>2017-06-20T09:48:50Z</time>
      </trkpt>
      <trkpt lat="45.97837" lon="4.84396">
        <ele>276</ele>
        <time>2017-06-20T09:48:51Z</time>
      </trkpt>
      <trkpt lat="45.97841" lon="4.84392">
        <ele>276</ele>
        <time>2017-06-20T09:48:52Z</time>
      </trkpt>
      <trkpt lat="45.97844" lon="4.84388">
        <ele>276</ele>
        <time>2017-06-20T09:48:53Z</time>
      </trkpt>
      <trkpt lat="45.97848" lon="4.84384">
        <ele>276</ele>
        <time>2017-06-20T09:48:54Z</time>
      </trkpt>
      <trkpt lat="45.97852" lon="4.8438">
        <ele>276</ele>
        <time>2017-06-20T09:48:55Z</time>
      </trkpt>
      <trkpt lat="45.97855" lon="4.84376">
        <ele>276</ele>
        <time>2017-06-20T09:48:56Z</time>
      </trkpt>
      <trkpt lat="45.97859" lon="4.84372">
        <ele>276</ele>
        <time>2017-06-20T09:48:57Z</time>
      </trkpt>
      <trkpt lat="45.97863" lon="4.84368">
        <ele>276</ele>
        <time>2017-06-20T09:48:58Z</time>
      </trkpt>
      <trkpt lat="45.97868" lon="4.84358">
        <ele>276</ele>
        <time>2017-06-20T09:49:00Z</time>
      </trkpt>
      <trkpt lat="45.97872" lon="4.84353">
        <ele>276</ele>
        <time>2017-06-20T09:49:01Z</time>
      </trkpt>
      <trkpt lat="45.97876" lon="4.84347">
        <ele>275</ele>
        <time>2017-06-20T09:49:02Z</time>
      </trkpt>
      <trkpt lat="45.97879" lon="4.84341">
        <ele>275</ele>
        <time>2017-06-20T09:49:03Z</time>
      </trkpt>
      <trkpt lat="45.97882" lon="4.84335">
        <ele>275</ele>
        <time>2017-06-20T09:49:04Z</time>
      </trkpt>
      <trkpt lat="45.97885" lon="4.8433">
        <ele>275</ele>
        <time>2017-06-20T09:49:05Z</time>
      </trkpt>
      <trkpt lat="45.97889" lon="4.84324">
        <ele>275</ele>
        <time>2017-06-20T09:49:06Z</time>
      </trkpt>
      <trkpt lat="45.97892" lon="4.84319">
        <ele>275</ele>
        <time>2017-06-20T09:49:07Z</time>
      </trkpt>
      <trkpt lat="45.97896" lon="4.84314">
        <ele>275</ele>
        <time>2017-06-20T09:49:08Z</time>
      </trkpt>
      <trkpt lat="45.97899" lon="4.84308">
        <ele>275</ele>
        <time>2017-06-20T09:49:09Z</time>
      </trkpt>
      <trkpt lat="45.97903" lon="4.84303">
        <ele>275</ele>
        <time>2017-06-20T09:49:10Z</time>
      </trkpt>
      <trkpt lat="45.97907" lon="4.84297">
        <ele>275</ele>
        <time>2017-06-20T09:49:11Z</time>
      </trkpt>
      <trkpt lat="45.97911" lon="4.84292">
        <ele>275</ele>
        <time>2017-06-20T09:49:12Z</time>
      </trkpt>
      <trkpt lat="45.97915" lon="4.84287">
        <ele>275</ele>
        <time>2017-06-20T09:49:13Z</time>
      </trkpt>
      <trkpt lat="45.97919" lon="4.84281">
        <ele>275</ele>
        <time>2017-06-20T09:49:14Z</time>
      </trkpt>
      <trkpt lat="45.97924" lon="4.84276">
        <ele>275</ele>
        <time>2017-06-20T09:49:15Z</time>
      </trkpt>
      <trkpt lat="45.97928" lon="4.84272">
        <ele>275</ele>
        <time>2017-06-20T09:49:16Z</time>
      </trkpt>
      <trkpt lat="45.97932" lon="4.84267">
        <ele>275</ele>
        <time>2017-06-20T09:49:17Z</time>
      </trkpt>
      <trkpt lat="45.97936" lon="4.84262">
        <ele>275</ele>
        <time>2017-06-20T09:49:18Z</time>
      </trkpt>
      <trkpt lat="45.9794" lon="4.84258">
        <ele>275</ele>
        <time>2017-06-20T09:49:19Z</time>
      </trkpt>
      <trkpt lat="45.97945" lon="4.84254">
        <ele>275</ele>
        <time>2017-06-20T09:49:20Z</time>
      </trkpt>
      <trkpt lat="45.97949" lon="4.8425">
        <ele>275</ele>
        <time>2017-06-20T09:49:21Z</time>
      </trkpt>
      <trkpt lat="45.97954" lon="4.84247">
        <ele>275</ele>
        <time>2017-06-20T09:49:22Z</time>
      </trkpt>
      <trkpt lat="45.97958" lon="4.84244">
        <ele>275</ele>
        <time>2017-06-20T09:49:23Z</time>
      </trkpt>
      <trkpt lat="45.97964" lon="4.84237">
        <ele>274</ele>
        <time>2017-06-20T09:49:25Z</time>
      </trkpt>
      <trkpt lat="45.97966" lon="4.84233">
        <ele>274</ele>
        <time>2017-06-20T09:49:26Z</time>
      </trkpt>
      <trkpt lat="45.97971" lon="4.84227">
        <ele>274</ele>
        <time>2017-06-20T09:49:28Z</time>
      </trkpt>
      <trkpt lat="45.97974" lon="4.84225">
        <ele>274</ele>
        <time>2017-06-20T09:49:29Z</time>
      </trkpt>
      <trkpt lat="45.9798" lon="4.8422">
        <ele>274</ele>
        <time>2017-06-20T09:49:31Z</time>
      </trkpt>
      <trkpt lat="45.97983" lon="4.84217">
        <ele>274</ele>
        <time>2017-06-20T09:49:32Z</time>
      </trkpt>
      <trkpt lat="45.97989" lon="4.84208">
        <ele>274</ele>
        <time>2017-06-20T09:49:35Z</time>
      </trkpt>
      <trkpt lat="45.97991" lon="4.84207">
        <ele>274</ele>
        <time>2017-06-20T09:49:36Z</time>
      </trkpt>
      <trkpt lat="45.97998" lon="4.842">
        <ele>274</ele>
        <time>2017-06-20T09:52:06Z</time>
      </trkpt>
      <trkpt lat="45.98" lon="4.84199">
        <ele>274</ele>
        <time>2017-06-20T09:52:07Z</time>
      </trkpt>
      <trkpt lat="45.98006" lon="4.84193">
        <ele>274</ele>
        <time>2017-06-20T09:52:10Z</time>
      </trkpt>
      <trkpt lat="45.98009" lon="4.84191">
        <ele>274</ele>
        <time>2017-06-20T09:52:11Z</time>
      </trkpt>
      <trkpt lat="45.98016" lon="4.84183">
        <ele>274</ele>
        <time>2017-06-20T09:52:14Z</time>
      </trkpt>
      <trkpt lat="45.98018" lon="4.84181">
        <ele>274</ele>
        <time>2017-06-20T09:52:15Z</time>
      </trkpt>
      <trkpt lat="45.98023" lon="4.84176">
        <ele>274</ele>
        <time>2017-06-20T09:52:17Z</time>
      </trkpt>
      <trkpt lat="45.98026" lon="4.84174">
        <ele>274</ele>
        <time>2017-06-20T09:52:18Z</time>
      </trkpt>
      <trkpt lat="45.98032" lon="4.84168">
        <ele>273</ele>
        <time>2017-06-20T09:52:20Z</time>
      </trkpt>
      <trkpt lat="45.98035" lon="4.84165">
        <ele>273</ele>
        <time>2017-06-20T09:52:21Z</time>
      </trkpt>
      <trkpt lat="45.98042" lon="4.84158">
        <ele>273</ele>
        <time>2017-06-20T09:52:23Z</time>
      </trkpt>
      <trkpt lat="45.98045" lon="4.84155">
        <ele>273</ele>
        <time>2017-06-20T09:52:24Z</time>
      </trkpt>
      <trkpt lat="45.98052" lon="4.84148">
        <ele>273</ele>
        <time>2017-06-20T09:52:26Z</time>
      </trkpt>
      <trkpt lat="45.98055" lon="4.84145">
        <ele>273</ele>
        <time>2017-06-20T09:52:27Z</time>
      </trkpt>
      <trkpt lat="45.98062" lon="4.8414">
        <ele>273</ele>
        <time>2017-06-20T09:52:29Z</time>
      </trkpt>
      <trkpt lat="45.98065" lon="4.84137">
        <ele>273</ele>
        <time>2017-06-20T09:52:30Z</time>
      </trkpt>
      <trkpt lat="45.98071" lon="4.84131">
        <ele>273</ele>
        <time>2017-06-20T09:52:32Z</time>
      </trkpt>
      <trkpt lat="45.98075" lon="4.84128">
        <ele>273</ele>
        <time>2017-06-20T09:52:33Z</time>
      </trkpt>
      <trkpt lat="45.98081" lon="4.84123">
        <ele>273</ele>
        <time>2017-06-20T09:52:35Z</time>
      </trkpt>
      <trkpt lat="45.98084" lon="4.8412">
        <ele>273</ele>
        <time>2017-06-20T09:52:36Z</time>
      </trkpt>
      <trkpt lat="45.98091" lon="4.84113">
        <ele>273</ele>
        <time>2017-06-20T09:52:38Z</time>
      </trkpt>
      <trkpt lat="45.98095" lon="4.84109">
        <ele>273</ele>
        <time>2017-06-20T09:52:39Z</time>
      </trkpt>
      <trkpt lat="45.98099" lon="4.84106">
        <ele>273</ele>
        <time>2017-06-20T09:52:40Z</time>
      </trkpt>
      <trkpt lat="45.98103" lon="4.84102">
        <ele>273</ele>
        <time>2017-06-20T09:52:41Z</time>
      </trkpt>
      <trkpt lat="45.98107" lon="4.84098">
        <ele>273</ele>
        <time>2017-06-20T09:52:42Z</time>
      </trkpt>
      <trkpt lat="45.98112" lon="4.84094">
        <ele>273</ele>
        <time>2017-06-20T09:52:43Z</time>
      </trkpt>
      <trkpt lat="45.98115" lon="4.8409">
        <ele>273</ele>
        <time>2017-06-20T09:52:44Z</time>
      </trkpt>
      <trkpt lat="45.98119" lon="4.84086">
        <ele>273</ele>
        <time>2017-06-20T09:52:45Z</time>
      </trkpt>
      <trkpt lat="45.98123" lon="4.84082">
        <ele>273</ele>
        <time>2017-06-20T09:52:46Z</time>
      </trkpt>
      <trkpt lat="45.98127" lon="4.84078">
        <ele>273</ele>
        <time>2017-06-20T09:52:47Z</time>
      </trkpt>
      <trkpt lat="45.98131" lon="4.84074">
        <ele>273</ele>
        <time>2017-06-20T09:52:48Z</time>
      </trkpt>
      <trkpt lat="45.98135" lon="4.84069">
        <ele>273</ele>
        <time>2017-06-20T09:52:49Z</time>
      </trkpt>
      <trkpt lat="45.98139" lon="4.84064">
        <ele>273</ele>
        <time>2017-06-20T09:52:50Z</time>
      </trkpt>
      <trkpt lat="45.98143" lon="4.84059">
        <ele>273</ele>
        <time>2017-06-20T09:52:51Z</time>
      </trkpt>
      <trkpt lat="45.98147" lon="4.84053">
        <ele>273</ele>
        <time>2017-06-20T09:52:52Z</time>
      </trkpt>
      <trkpt lat="45.98151" lon="4.84047">
        <ele>273</ele>
        <time>2017-06-20T09:52:53Z</time>
      </trkpt>
      <trkpt lat="45.98154" lon="4.84042">
        <ele>273</ele>
        <time>2017-06-20T09:52:54Z</time>
      </trkpt>
      <trkpt lat="45.98158" lon="4.84036">
        <ele>273</ele>
        <time>2017-06-20T09:52:55Z</time>
      </trkpt>
      <trkpt lat="45.98162" lon="4.8403">
        <ele>273</ele>
        <time>2017-06-20T09:52:56Z</time>
      </trkpt>
      <trkpt lat="45.98165" lon="4.84023">
        <ele>273</ele>
        <time>2017-06-20T09:52:57Z</time>
      </trkpt>
      <trkpt lat="45.98168" lon="4.84017">
        <ele>273</ele>
        <time>2017-06-20T09:52:58Z</time>
      </trkpt>
      <trkpt lat="45.98172" lon="4.8401">
        <ele>273</ele>
        <time>2017-06-20T09:52:59Z</time>
      </trkpt>
      <trkpt lat="45.98175" lon="4.84004">
        <ele>273</ele>
        <time>2017-06-20T09:53:00Z</time>
      </trkpt>
      <trkpt lat="45.98178" lon="4.83998">
        <ele>273</ele>
        <time>2017-06-20T09:53:01Z</time>
      </trkpt>
      <trkpt lat="45.98182" lon="4.83992">
        <ele>273</ele>
        <time>2017-06-20T09:53:02Z</time>
      </trkpt>
      <trkpt lat="45.98184" lon="4.83986">
        <ele>273</ele>
        <time>2017-06-20T09:53:03Z</time>
      </trkpt>
      <trkpt lat="45.98187" lon="4.83979">
        <ele>273</ele>
        <time>2017-06-20T09:53:04Z</time>
      </trkpt>
      <trkpt lat="45.98189" lon="4.83973">
        <ele>273</ele>
        <time>2017-06-20T09:53:05Z</time>
      </trkpt>
      <trkpt lat="45.98192" lon="4.83966">
        <ele>273</ele>
        <time>2017-06-20T09:53:06Z</time>
      </trkpt>
      <trkpt lat="45.98194" lon="4.8396">
        <ele>273</ele>
        <time>2017-06-20T09:53:07Z</time>
      </trkpt>
      <trkpt lat="45.98197" lon="4.83953">
        <ele>273</ele>
        <time>2017-06-20T09:53:08Z</time>
      </trkpt>
      <trkpt lat="45.98199" lon="4.83947">
        <ele>273</ele>
        <time>2017-06-20T09:53:09Z</time>
      </trkpt>
      <trkpt lat="45.98201" lon="4.83941">
        <ele>273</ele>
        <time>2017-06-20T09:53:10Z</time>
      </trkpt>
      <trkpt lat="45.98203" lon="4.83935">
        <ele>273</ele>
        <time>2017-06-20T09:53:11Z</time>
      </trkpt>
      <trkpt lat="45.98205" lon="4.83929">
        <ele>273</ele>
        <time>2017-06-20T09:53:12Z</time>
      </trkpt>
      <trkpt lat="45.98207" lon="4.83922">
        <ele>273</ele>
        <time>2017-06-20T09:53:13Z</time>
      </trkpt>
      <trkpt lat="45.9821" lon="4.83916">
        <ele>273</ele>
        <time>2017-06-20T09:53:14Z</time>
      </trkpt>
      <trkpt lat="45.98212" lon="4.83909">
        <ele>273</ele>
        <time>2017-06-20T09:53:15Z</time>
      </trkpt>
      <trkpt lat="45.98214" lon="4.83902">
        <ele>273</ele>
        <time>2017-06-20T09:53:16Z</time>
      </trkpt>
      <trkpt lat="45.98216" lon="4.83896">
        <ele>273</ele>
        <time>2017-06-20T09:53:17Z</time>
      </trkpt>
      <trkpt lat="45.98218" lon="4.8389">
        <ele>272</ele>
        <time>2017-06-20T09:53:18Z</time>
      </trkpt>
      <trkpt lat="45.9822" lon="4.83884">
        <ele>272</ele>
        <time>2017-06-20T09:53:19Z</time>
      </trkpt>
      <trkpt lat="45.98222" lon="4.83878">
        <ele>272</ele>
        <time>2017-06-20T09:53:20Z</time>
      </trkpt>
      <trkpt lat="45.98224" lon="4.83872">
        <ele>272</ele>
        <time>2017-06-20T09:53:21Z</time>
      </trkpt>
      <trkpt lat="45.98228" lon="4.8386">
        <ele>272</ele>
        <time>2017-06-20T09:53:23Z</time>
      </trkpt>
      <trkpt lat="45.98229" lon="4.83854">
        <ele>272</ele>
        <time>2017-06-20T09:53:24Z</time>
      </trkpt>
      <trkpt lat="45.98231" lon="4.83848">
        <ele>272</ele>
        <time>2017-06-20T09:53:25Z</time>
      </trkpt>
      <trkpt lat="45.98233" lon="4.83842">
        <ele>272</ele>
        <time>2017-06-20T09:53:26Z</time>
      </trkpt>
      <trkpt lat="45.98235" lon="4.83836">
        <ele>272</ele>
        <time>2017-06-20T09:53:27Z</time>
      </trkpt>
      <trkpt lat="45.98238" lon="4.8383">
        <ele>272</ele>
        <time>2017-06-20T09:53:28Z</time>
      </trkpt>
      <trkpt lat="45.9824" lon="4.83823">
        <ele>272</ele>
        <time>2017-06-20T09:53:29Z</time>
      </trkpt>
      <trkpt lat="45.98242" lon="4.83816">
        <ele>272</ele>
        <time>2017-06-20T09:53:30Z</time>
      </trkpt>
      <trkpt lat="45.98245" lon="4.8381">
        <ele>272</ele>
        <time>2017-06-20T09:53:31Z</time>
      </trkpt>
      <trkpt lat="45.98247" lon="4.83803">
        <ele>272</ele>
        <time>2017-06-20T09:53:32Z</time>
      </trkpt>
      <trkpt lat="45.9825" lon="4.83795">
        <ele>272</ele>
        <time>2017-06-20T09:53:33Z</time>
      </trkpt>
      <trkpt lat="45.98253" lon="4.83787">
        <ele>272</ele>
        <time>2017-06-20T09:53:34Z</time>
      </trkpt>
      <trkpt lat="45.98256" lon="4.8378">
        <ele>272</ele>
        <time>2017-06-20T09:53:35Z</time>
      </trkpt>
      <trkpt lat="45.98258" lon="4.83772">
        <ele>272</ele>
        <time>2017-06-20T09:53:36Z</time>
      </trkpt>
      <trkpt lat="45.98261" lon="4.83764">
        <ele>272</ele>
        <time>2017-06-20T09:53:37Z</time>
      </trkpt>
      <trkpt lat="45.98264" lon="4.83757">
        <ele>272</ele>
        <time>2017-06-20T09:53:38Z</time>
      </trkpt>
      <trkpt lat="45.98267" lon="4.83749">
        <ele>272</ele>
        <time>2017-06-20T09:53:39Z</time>
      </trkpt>
      <trkpt lat="45.9827" lon="4.83741">
        <ele>272</ele>
        <time>2017-06-20T09:53:40Z</time>
      </trkpt>
      <trkpt lat="45.98272" lon="4.83733">
        <ele>272</ele>
        <time>2017-06-20T09:53:41Z</time>
      </trkpt>
      <trkpt lat="45.98274" lon="4.83726">
        <ele>272</ele>
        <time>2017-06-20T09:53:42Z</time>
      </trkpt>
      <trkpt lat="45.98277" lon="4.83719">
        <ele>272</ele>
        <time>2017-06-20T09:53:43Z</time>
      </trkpt>
      <trkpt lat="45.9828" lon="4.83712">
        <ele>272</ele>
        <time>2017-06-20T09:53:44Z</time>
      </trkpt>
      <trkpt lat="45.98282" lon="4.83704">
        <ele>272</ele>
        <time>2017-06-20T09:53:45Z</time>
      </trkpt>
      <trkpt lat="45.98285" lon="4.83697">
        <ele>272</ele>
        <time>2017-06-20T09:53:46Z</time>
      </trkpt>
      <trkpt lat="45.98288" lon="4.8369">
        <ele>272</ele>
        <time>2017-06-20T09:53:47Z</time>
      </trkpt>
      <trkpt lat="45.9829" lon="4.83682">
        <ele>272</ele>
        <time>2017-06-20T09:53:48Z</time>
      </trkpt>
      <trkpt lat="45.98292" lon="4.83675">
        <ele>272</ele>
        <time>2017-06-20T09:53:49Z</time>
      </trkpt>
      <trkpt lat="45.98295" lon="4.83668">
        <ele>272</ele>
        <time>2017-06-20T09:53:50Z</time>
      </trkpt>
      <trkpt lat="45.98298" lon="4.83662">
        <ele>271</ele>
        <time>2017-06-20T09:53:51Z</time>
      </trkpt>
      <trkpt lat="45.98301" lon="4.83655">
        <ele>271</ele>
        <time>2017-06-20T09:53:52Z</time>
      </trkpt>
      <trkpt lat="45.98304" lon="4.83648">
        <ele>271</ele>
        <time>2017-06-20T09:53:53Z</time>
      </trkpt>
      <trkpt lat="45.98307" lon="4.83642">
        <ele>271</ele>
        <time>2017-06-20T09:53:54Z</time>
      </trkpt>
      <trkpt lat="45.9831" lon="4.83635">
        <ele>271</ele>
        <time>2017-06-20T09:53:55Z</time>
      </trkpt>
      <trkpt lat="45.98313" lon="4.83629">
        <ele>271</ele>
        <time>2017-06-20T09:53:56Z</time>
      </trkpt>
      <trkpt lat="45.98316" lon="4.83623">
        <ele>271</ele>
        <time>2017-06-20T09:53:57Z</time>
      </trkpt>
      <trkpt lat="45.9832" lon="4.83617">
        <ele>271</ele>
        <time>2017-06-20T09:53:58Z</time>
      </trkpt>
      <trkpt lat="45.98324" lon="4.83611">
        <ele>271</ele>
        <time>2017-06-20T09:53:59Z</time>
      </trkpt>
      <trkpt lat="45.98328" lon="4.83605">
        <ele>271</ele>
        <time>2017-06-20T09:54:00Z</time>
      </trkpt>
      <trkpt lat="45.98333" lon="4.83598">
        <ele>271</ele>
        <time>2017-06-20T09:54:01Z</time>
      </trkpt>
      <trkpt lat="45.98337" lon="4.83592">
        <ele>270</ele>
        <time>2017-06-20T09:54:02Z</time>
      </trkpt>
      <trkpt lat="45.98341" lon="4.83586">
        <ele>270</ele>
        <time>2017-06-20T09:54:03Z</time>
      </trkpt>
      <trkpt lat="45.98346" lon="4.8358">
        <ele>270</ele>
        <time>2017-06-20T09:54:04Z</time>
      </trkpt>
      <trkpt lat="45.98351" lon="4.83573">
        <ele>269</ele>
        <time>2017-06-20T09:54:05Z</time>
      </trkpt>
      <trkpt lat="45.98356" lon="4.83567">
        <ele>269</ele>
        <time>2017-06-20T09:54:06Z</time>
      </trkpt>
      <trkpt lat="45.98361" lon="4.83561">
        <ele>269</ele>
        <time>2017-06-20T09:54:07Z</time>
      </trkpt>
      <trkpt lat="45.98366" lon="4.83554">
        <ele>269</ele>
        <time>2017-06-20T09:54:08Z</time>
      </trkpt>
      <trkpt lat="45.98371" lon="4.83547">
        <ele>269</ele>
        <time>2017-06-20T09:54:09Z</time>
      </trkpt>
      <trkpt lat="45.98376" lon="4.83541">
        <ele>269</ele>
        <time>2017-06-20T09:54:10Z</time>
      </trkpt>
      <trkpt lat="45.98381" lon="4.83533">
        <ele>269</ele>
        <time>2017-06-20T09:54:11Z</time>
      </trkpt>
      <trkpt lat="45.98386" lon="4.83526">
        <ele>269</ele>
        <time>2017-06-20T09:54:12Z</time>
      </trkpt>
      <trkpt lat="45.9839" lon="4.8352">
        <ele>269</ele>
        <time>2017-06-20T09:54:13Z</time>
      </trkpt>
      <trkpt lat="45.98396" lon="4.83513">
        <ele>269</ele>
        <time>2017-06-20T09:54:14Z</time>
      </trkpt>
      <trkpt lat="45.98401" lon="4.83506">
        <ele>269</ele>
        <time>2017-06-20T09:54:15Z</time>
      </trkpt>
      <trkpt lat="45.98406" lon="4.83499">
        <ele>268</ele>
        <time>2017-06-20T09:54:16Z</time>
      </trkpt>
      <trkpt lat="45.98411" lon="4.83492">
        <ele>268</ele>
        <time>2017-06-20T09:54:17Z</time>
      </trkpt>
      <trkpt lat="45.98416" lon="4.83486">
        <ele>269</ele>
        <time>2017-06-20T09:54:18Z</time>
      </trkpt>
      <trkpt lat="45.98421" lon="4.8348">
        <ele>268</ele>
        <time>2017-06-20T09:54:19Z</time>
      </trkpt>
      <trkpt lat="45.98427" lon="4.83473">
        <ele>268</ele>
        <time>2017-06-20T09:54:20Z</time>
      </trkpt>
      <trkpt lat="45.98431" lon="4.83467">
        <ele>268</ele>
        <time>2017-06-20T09:54:21Z</time>
      </trkpt>
      <trkpt lat="45.98436" lon="4.8346">
        <ele>268</ele>
        <time>2017-06-20T09:54:22Z</time>
      </trkpt>
      <trkpt lat="45.98441" lon="4.83453">
        <ele>268</ele>
        <time>2017-06-20T09:54:23Z</time>
      </trkpt>
      <trkpt lat="45.98446" lon="4.83447">
        <ele>268</ele>
        <time>2017-06-20T09:54:24Z</time>
      </trkpt>
      <trkpt lat="45.98451" lon="4.83441">
        <ele>268</ele>
        <time>2017-06-20T09:54:25Z</time>
      </trkpt>
      <trkpt lat="45.98455" lon="4.83435">
        <ele>268</ele>
        <time>2017-06-20T09:54:26Z</time>
      </trkpt>
      <trkpt lat="45.9846" lon="4.8343">
        <ele>268</ele>
        <time>2017-06-20T09:54:27Z</time>
      </trkpt>
      <trkpt lat="45.98464" lon="4.83424">
        <ele>269</ele>
        <time>2017-06-20T09:54:28Z</time>
      </trkpt>
      <trkpt lat="45.98468" lon="4.83418">
        <ele>269</ele>
        <time>2017-06-20T09:54:29Z</time>
      </trkpt>
      <trkpt lat="45.98472" lon="4.83412">
        <ele>269</ele>
        <time>2017-06-20T09:54:30Z</time>
      </trkpt>
      <trkpt lat="45.98476" lon="4.83406">
        <ele>269</ele>
        <time>2017-06-20T09:54:31Z</time>
      </trkpt>
      <trkpt lat="45.9848" lon="4.83401">
        <ele>269</ele>
        <time>2017-06-20T09:54:32Z</time>
      </trkpt>
      <trkpt lat="45.98484" lon="4.83395">
        <ele>269</ele>
        <time>2017-06-20T09:54:33Z</time>
      </trkpt>
      <trkpt lat="45.98488" lon="4.83388">
        <ele>269</ele>
        <time>2017-06-20T09:54:34Z</time>
      </trkpt>
      <trkpt lat="45.98493" lon="4.83382">
        <ele>269</ele>
        <time>2017-06-20T09:54:35Z</time>
      </trkpt>
      <trkpt lat="45.98498" lon="4.83375">
        <ele>270</ele>
        <time>2017-06-20T09:54:36Z</time>
      </trkpt>
      <trkpt lat="45.98502" lon="4.83369">
        <ele>269</ele>
        <time>2017-06-20T09:54:37Z</time>
      </trkpt>
      <trkpt lat="45.98507" lon="4.83362">
        <ele>269</ele>
        <time>2017-06-20T09:54:38Z</time>
      </trkpt>
      <trkpt lat="45.98512" lon="4.83356">
        <ele>269</ele>
        <time>2017-06-20T09:54:39Z</time>
      </trkpt>
      <trkpt lat="45.98516" lon="4.83349">
        <ele>270</ele>
        <time>2017-06-20T09:54:40Z</time>
      </trkpt>
      <trkpt lat="45.98521" lon="4.83343">
        <ele>270</ele>
        <time>2017-06-20T09:54:41Z</time>
      </trkpt>
      <trkpt lat="45.98526" lon="4.83337">
        <ele>269</ele>
        <time>2017-06-20T09:54:42Z</time>
      </trkpt>
      <trkpt lat="45.9853" lon="4.83331">
        <ele>269</ele>
        <time>2017-06-20T09:54:43Z</time>
      </trkpt>
      <trkpt lat="45.98534" lon="4.83325">
        <ele>269</ele>
        <time>2017-06-20T09:54:44Z</time>
      </trkpt>
      <trkpt lat="45.98538" lon="4.8332">
        <ele>269</ele>
        <time>2017-06-20T09:54:45Z</time>
      </trkpt>
      <trkpt lat="45.98542" lon="4.83315">
        <ele>269</ele>
        <time>2017-06-20T09:54:46Z</time>
      </trkpt>
      <trkpt lat="45.98547" lon="4.83309">
        <ele>269</ele>
        <time>2017-06-20T09:54:47Z</time>
      </trkpt>
      <trkpt lat="45.98551" lon="4.83304">
        <ele>269</ele>
        <time>2017-06-20T09:54:48Z</time>
      </trkpt>
      <trkpt lat="45.98555" lon="4.83299">
        <ele>269</ele>
        <time>2017-06-20T09:54:49Z</time>
      </trkpt>
      <trkpt lat="45.98559" lon="4.83293">
        <ele>269</ele>
        <time>2017-06-20T09:54:50Z</time>
      </trkpt>
      <trkpt lat="45.98562" lon="4.83287">
        <ele>269</ele>
        <time>2017-06-20T09:54:51Z</time>
      </trkpt>
      <trkpt lat="45.98566" lon="4.83282">
        <ele>269</ele>
        <time>2017-06-20T09:54:52Z</time>
      </trkpt>
      <trkpt lat="45.9857" lon="4.83276">
        <ele>269</ele>
        <time>2017-06-20T09:54:53Z</time>
      </trkpt>
      <trkpt lat="45.98574" lon="4.83271">
        <ele>269</ele>
        <time>2017-06-20T09:54:54Z</time>
      </trkpt>
      <trkpt lat="45.98578" lon="4.83265">
        <ele>269</ele>
        <time>2017-06-20T09:54:55Z</time>
      </trkpt>
      <trkpt lat="45.98582" lon="4.8326">
        <ele>268</ele>
        <time>2017-06-20T09:54:56Z</time>
      </trkpt>
      <trkpt lat="45.98586" lon="4.83255">
        <ele>268</ele>
        <time>2017-06-20T09:54:57Z</time>
      </trkpt>
      <trkpt lat="45.9859" lon="4.83249">
        <ele>268</ele>
        <time>2017-06-20T09:54:58Z</time>
      </trkpt>
      <trkpt lat="45.98594" lon="4.83243">
        <ele>268</ele>
        <time>2017-06-20T09:54:59Z</time>
      </trkpt>
      <trkpt lat="45.98599" lon="4.83238">
        <ele>268</ele>
        <time>2017-06-20T09:55:00Z</time>
      </trkpt>
      <trkpt lat="45.98603" lon="4.83231">
        <ele>268</ele>
        <time>2017-06-20T09:55:01Z</time>
      </trkpt>
      <trkpt lat="45.98607" lon="4.83226">
        <ele>267</ele>
        <time>2017-06-20T09:55:02Z</time>
      </trkpt>
      <trkpt lat="45.98611" lon="4.8322">
        <ele>267</ele>
        <time>2017-06-20T09:55:03Z</time>
      </trkpt>
      <trkpt lat="45.98616" lon="4.83214">
        <ele>267</ele>
        <time>2017-06-20T09:55:04Z</time>
      </trkpt>
      <trkpt lat="45.98621" lon="4.83208">
        <ele>267</ele>
        <time>2017-06-20T09:55:05Z</time>
      </trkpt>
      <trkpt lat="45.98626" lon="4.83202">
        <ele>267</ele>
        <time>2017-06-20T09:55:06Z</time>
      </trkpt>
      <trkpt lat="45.98631" lon="4.83196">
        <ele>267</ele>
        <time>2017-06-20T09:55:07Z</time>
      </trkpt>
      <trkpt lat="45.98636" lon="4.8319">
        <ele>267</ele>
        <time>2017-06-20T09:55:08Z</time>
      </trkpt>
      <trkpt lat="45.98641" lon="4.83185">
        <ele>267</ele>
        <time>2017-06-20T09:55:09Z</time>
      </trkpt>
      <trkpt lat="45.98646" lon="4.8318">
        <ele>267</ele>
        <time>2017-06-20T09:55:10Z</time>
      </trkpt>
      <trkpt lat="45.98652" lon="4.83175">
        <ele>267</ele>
        <time>2017-06-20T09:55:11Z</time>
      </trkpt>
      <trkpt lat="45.98657" lon="4.83169">
        <ele>266</ele>
        <time>2017-06-20T09:55:12Z</time>
      </trkpt>
      <trkpt lat="45.98662" lon="4.83164">
        <ele>266</ele>
        <time>2017-06-20T09:55:13Z</time>
      </trkpt>
      <trkpt lat="45.98668" lon="4.8316">
        <ele>266</ele>
        <time>2017-06-20T09:55:14Z</time>
      </trkpt>
      <trkpt lat="45.98674" lon="4.83155">
        <ele>266</ele>
        <time>2017-06-20T09:55:15Z</time>
      </trkpt>
      <trkpt lat="45.98679" lon="4.83151">
        <ele>266</ele>
        <time>2017-06-20T09:55:16Z</time>
      </trkpt>
      <trkpt lat="45.98685" lon="4.83146">
        <ele>266</ele>
        <time>2017-06-20T09:55:17Z</time>
      </trkpt>
      <trkpt lat="45.9869" lon="4.83142">
        <ele>266</ele>
        <time>2017-06-20T09:55:18Z</time>
      </trkpt>
      <trkpt lat="45.98696" lon="4.83138">
        <ele>266</ele>
        <time>2017-06-20T09:55:19Z</time>
      </trkpt>
      <trkpt lat="45.98701" lon="4.83134">
        <ele>266</ele>
        <time>2017-06-20T09:55:20Z</time>
      </trkpt>
      <trkpt lat="45.98707" lon="4.83129">
        <ele>266</ele>
        <time>2017-06-20T09:55:21Z</time>
      </trkpt>
      <trkpt lat="45.98712" lon="4.83124">
        <ele>266</ele>
        <time>2017-06-20T09:55:22Z</time>
      </trkpt>
      <trkpt lat="45.98718" lon="4.8312">
        <ele>267</ele>
        <time>2017-06-20T09:55:23Z</time>
      </trkpt>
      <trkpt lat="45.98724" lon="4.83116">
        <ele>267</ele>
        <time>2017-06-20T09:55:24Z</time>
      </trkpt>
      <trkpt lat="45.98729" lon="4.83111">
        <ele>267</ele>
        <time>2017-06-20T09:55:25Z</time>
      </trkpt>
      <trkpt lat="45.98734" lon="4.83107">
        <ele>267</ele>
        <time>2017-06-20T09:55:26Z</time>
      </trkpt>
      <trkpt lat="45.9874" lon="4.83102">
        <ele>267</ele>
        <time>2017-06-20T09:55:27Z</time>
      </trkpt>
      <trkpt lat="45.98745" lon="4.83098">
        <ele>267</ele>
        <time>2017-06-20T09:55:28Z</time>
      </trkpt>
      <trkpt lat="45.98751" lon="4.83093">
        <ele>266</ele>
        <time>2017-06-20T09:55:29Z</time>
      </trkpt>
      <trkpt lat="45.98757" lon="4.83088">
        <ele>266</ele>
        <time>2017-06-20T09:55:30Z</time>
      </trkpt>
      <trkpt lat="45.98763" lon="4.83083">
        <ele>266</ele>
        <time>2017-06-20T09:55:31Z</time>
      </trkpt>
      <trkpt lat="45.98769" lon="4.83078">
        <ele>266</ele>
        <time>2017-06-20T09:55:32Z</time>
      </trkpt>
      <trkpt lat="45.98775" lon="4.83072">
        <ele>265</ele>
        <time>2017-06-20T09:55:33Z</time>
      </trkpt>
      <trkpt lat="45.98781" lon="4.83067">
        <ele>265</ele>
        <time>2017-06-20T09:55:34Z</time>
      </trkpt>
      <trkpt lat="45.98787" lon="4.83062">
        <ele>265</ele>
        <time>2017-06-20T09:55:35Z</time>
      </trkpt>
      <trkpt lat="45.98794" lon="4.83056">
        <ele>265</ele>
        <time>2017-06-20T09:55:36Z</time>
      </trkpt>
      <trkpt lat="45.98801" lon="4.8305">
        <ele>264</ele>
        <time>2017-06-20T09:55:37Z</time>
      </trkpt>
      <trkpt lat="45.98808" lon="4.83044">
        <ele>264</ele>
        <time>2017-06-20T09:55:38Z</time>
      </trkpt>
      <trkpt lat="45.98815" lon="4.83038">
        <ele>264</ele>
        <time>2017-06-20T09:55:39Z</time>
      </trkpt>
      <trkpt lat="45.98823" lon="4.83032">
        <ele>264</ele>
        <time>2017-06-20T09:55:40Z</time>
      </trkpt>
      <trkpt lat="45.98831" lon="4.83026">
        <ele>264</ele>
        <time>2017-06-20T09:55:41Z</time>
      </trkpt>
      <trkpt lat="45.98839" lon="4.8302">
        <ele>261</ele>
        <time>2017-06-20T09:55:42Z</time>
      </trkpt>
      <trkpt lat="45.98847" lon="4.83014">
        <ele>261</ele>
        <time>2017-06-20T09:55:43Z</time>
      </trkpt>
      <trkpt lat="45.98857" lon="4.83008">
        <ele>261</ele>
        <time>2017-06-20T09:55:44Z</time>
      </trkpt>
      <trkpt lat="45.98866" lon="4.83002">
        <ele>260</ele>
        <time>2017-06-20T09:55:45Z</time>
      </trkpt>
      <trkpt lat="45.98876" lon="4.82996">
        <ele>260</ele>
        <time>2017-06-20T09:55:46Z</time>
      </trkpt>
      <trkpt lat="45.98885" lon="4.82989">
        <ele>259</ele>
        <time>2017-06-20T09:55:47Z</time>
      </trkpt>
      <trkpt lat="45.98894" lon="4.82981">
        <ele>259</ele>
        <time>2017-06-20T09:55:48Z</time>
      </trkpt>
      <trkpt lat="45.98903" lon="4.82972">
        <ele>259</ele>
        <time>2017-06-20T09:55:49Z</time>
      </trkpt>
      <trkpt lat="45.98912" lon="4.82961">
        <ele>258</ele>
        <time>2017-06-20T09:55:50Z</time>
      </trkpt>
      <trkpt lat="45.9892" lon="4.82948">
        <ele>255</ele>
        <time>2017-06-20T09:55:51Z</time>
      </trkpt>
      <trkpt lat="45.98927" lon="4.82933">
        <ele>255</ele>
        <time>2017-06-20T09:55:52Z</time>
      </trkpt>
      <trkpt lat="45.98934" lon="4.82918">
        <ele>255</ele>
        <time>2017-06-20T09:55:53Z</time>
      </trkpt>
      <trkpt lat="45.98941" lon="4.82901">
        <ele>253</ele>
        <time>2017-06-20T09:55:54Z</time>
      </trkpt>
      <trkpt lat="45.98949" lon="4.82885">
        <ele>253</ele>
        <time>2017-06-20T09:55:55Z</time>
      </trkpt>
      <trkpt lat="45.98956" lon="4.82867">
        <ele>252</ele>
        <time>2017-06-20T09:55:56Z</time>
      </trkpt>
      <trkpt lat="45.98964" lon="4.8285">
        <ele>252</ele>
        <time>2017-06-20T09:55:57Z</time>
      </trkpt>
      <trkpt lat="45.98971" lon="4.82832">
        <ele>249</ele>
        <time>2017-06-20T09:55:58Z</time>
      </trkpt>
      <trkpt lat="45.98979" lon="4.82814">
        <ele>248</ele>
        <time>2017-06-20T09:55:59Z</time>
      </trkpt>
      <trkpt lat="45.98987" lon="4.82797">
        <ele>248</ele>
        <time>2017-06-20T09:56:00Z</time>
      </trkpt>
      <trkpt lat="45.98994" lon="4.82779">
        <ele>246</ele>
        <time>2017-06-20T09:56:01Z</time>
      </trkpt>
      <trkpt lat="45.99002" lon="4.82761">
        <ele>241</ele>
        <time>2017-06-20T09:56:02Z</time>
      </trkpt>
      <trkpt lat="45.9901" lon="4.82743">
        <ele>240</ele>
        <time>2017-06-20T09:56:03Z</time>
      </trkpt>
      <trkpt lat="45.99018" lon="4.82725">
        <ele>239</ele>
        <time>2017-06-20T09:56:04Z</time>
      </trkpt>
      <trkpt lat="45.99026" lon="4.82709">
        <ele>238</ele>
        <time>2017-06-20T09:56:05Z</time>
      </trkpt>
      <trkpt lat="45.99033" lon="4.82693">
        <ele>238</ele>
        <time>2017-06-20T09:56:06Z</time>
      </trkpt>
      <trkpt lat="45.9904" lon="4.82678">
        <ele>238</ele>
        <time>2017-06-20T09:56:07Z</time>
      </trkpt>
      <trkpt lat="45.99046" lon="4.82664">
        <ele>236</ele>
        <time>2017-06-20T09:56:08Z</time>
      </trkpt>
      <trkpt lat="45.99051" lon="4.82652">
        <ele>236</ele>
        <time>2017-06-20T09:56:09Z</time>
      </trkpt>
      <trkpt lat="45.99056" lon="4.8264">
        <ele>236</ele>
        <time>2017-06-20T09:56:10Z</time>
      </trkpt>
      <trkpt lat="45.99061" lon="4.82629">
        <ele>236</ele>
        <time>2017-06-20T09:56:11Z</time>
      </trkpt>
      <trkpt lat="45.99065" lon="4.8262">
        <ele>236</ele>
        <time>2017-06-20T09:56:12Z</time>
      </trkpt>
      <trkpt lat="45.99069" lon="4.82611">
        <ele>236</ele>
        <time>2017-06-20T09:56:13Z</time>
      </trkpt>
      <trkpt lat="45.99072" lon="4.82604">
        <ele>236</ele>
        <time>2017-06-20T09:56:14Z</time>
      </trkpt>
      <trkpt lat="45.99075" lon="4.82597">
        <ele>235</ele>
        <time>2017-06-20T09:56:15Z</time>
      </trkpt>
      <trkpt lat="45.99076" lon="4.82591">
        <ele>235</ele>
        <time>2017-06-20T09:56:16Z</time>
      </trkpt>
      <trkpt lat="45.99076" lon="4.82585">
        <ele>235</ele>
        <time>2017-06-20T09:56:17Z</time>
      </trkpt>
      <trkpt lat="45.99075" lon="4.82578">
        <ele>235</ele>
        <time>2017-06-20T09:56:18Z</time>
      </trkpt>
      <trkpt lat="45.99071" lon="4.82572">
        <ele>235</ele>
        <time>2017-06-20T09:56:19Z</time>
      </trkpt>
      <trkpt lat="45.99067" lon="4.82567">
        <ele>235</ele>
        <time>2017-06-20T09:56:20Z</time>
      </trkpt>
      <trkpt lat="45.99062" lon="4.82565">
        <ele>235</ele>
        <time>2017-06-20T09:56:21Z</time>
      </trkpt>
      <trkpt lat="45.99057" lon="4.82564">
        <ele>235</ele>
        <time>2017-06-20T09:56:22Z</time>
      </trkpt>
      <trkpt lat="45.99052" lon="4.82562">
        <ele>235</ele>
        <time>2017-06-20T09:56:23Z</time>
      </trkpt>
      <trkpt lat="45.99048" lon="4.82561">
        <ele>235</ele>
        <time>2017-06-20T09:56:24Z</time>
      </trkpt>
      <trkpt lat="45.9904" lon="4.82558">
        <ele>235</ele>
        <time>2017-06-20T09:56:26Z</time>
      </trkpt>
      <trkpt lat="45.99037" lon="4.82556">
        <ele>235</ele>
        <time>2017-06-20T09:56:27Z</time>
      </trkpt>
      <trkpt lat="45.9903" lon="4.8255">
        <ele>235</ele>
        <time>2017-06-20T09:56:29Z</time>
      </trkpt>
      <trkpt lat="45.99027" lon="4.82547">
        <ele>235</ele>
        <time>2017-06-20T09:56:30Z</time>
      </trkpt>
      <trkpt lat="45.99021" lon="4.8254">
        <ele>235</ele>
        <time>2017-06-20T09:56:32Z</time>
      </trkpt>
      <trkpt lat="45.99017" lon="4.82536">
        <ele>235</ele>
        <time>2017-06-20T09:56:33Z</time>
      </trkpt>
      <trkpt lat="45.99014" lon="4.82532">
        <ele>235</ele>
        <time>2017-06-20T09:56:34Z</time>
      </trkpt>
      <trkpt lat="45.99011" lon="4.82526">
        <ele>235</ele>
        <time>2017-06-20T09:56:35Z</time>
      </trkpt>
      <trkpt lat="45.99006" lon="4.82516">
        <ele>235</ele>
        <time>2017-06-20T09:56:37Z</time>
      </trkpt>
      <trkpt lat="45.99004" lon="4.82511">
        <ele>235</ele>
        <time>2017-06-20T09:56:38Z</time>
      </trkpt>
      <trkpt lat="45.99001" lon="4.82506">
        <ele>235</ele>
        <time>2017-06-20T09:56:39Z</time>
      </trkpt>
      <trkpt lat="45.98998" lon="4.825">
        <ele>235</ele>
        <time>2017-06-20T09:56:40Z</time>
      </trkpt>
      <trkpt lat="45.98995" lon="4.82493">
        <ele>236</ele>
        <time>2017-06-20T09:56:41Z</time>
      </trkpt>
      <trkpt lat="45.98993" lon="4.82487">
        <ele>236</ele>
        <time>2017-06-20T09:56:42Z</time>
      </trkpt>
      <trkpt lat="45.9899" lon="4.8248">
        <ele>236</ele>
        <time>2017-06-20T09:56:43Z</time>
      </trkpt>
      <trkpt lat="45.98988" lon="4.82474">
        <ele>236</ele>
        <time>2017-06-20T09:56:44Z</time>
      </trkpt>
      <trkpt lat="45.98986" lon="4.82467">
        <ele>236</ele>
        <time>2017-06-20T09:56:45Z</time>
      </trkpt>
      <trkpt lat="45.98985" lon="4.8246">
        <ele>236</ele>
        <time>2017-06-20T09:56:46Z</time>
      </trkpt>
      <trkpt lat="45.98984" lon="4.82449">
        <ele>236</ele>
        <time>2017-06-20T09:56:48Z</time>
      </trkpt>
      <trkpt lat="45.98982" lon="4.82443">
        <ele>236</ele>
        <time>2017-06-20T09:56:49Z</time>
      </trkpt>
      <trkpt lat="45.9898" lon="4.82436">
        <ele>236</ele>
        <time>2017-06-20T09:56:50Z</time>
      </trkpt>
      <trkpt lat="45.98979" lon="4.8243">
        <ele>236</ele>
        <time>2017-06-20T09:56:51Z</time>
      </trkpt>
      <trkpt lat="45.98978" lon="4.82423">
        <ele>236</ele>
        <time>2017-06-20T09:56:52Z</time>
      </trkpt>
      <trkpt lat="45.98976" lon="4.82417">
        <ele>236</ele>
        <time>2017-06-20T09:56:53Z</time>
      </trkpt>
      <trkpt lat="45.98975" lon="4.82411">
        <ele>235</ele>
        <time>2017-06-20T09:56:54Z</time>
      </trkpt>
      <trkpt lat="45.98973" lon="4.82405">
        <ele>235</ele>
        <time>2017-06-20T09:56:55Z</time>
      </trkpt>
      <trkpt lat="45.98971" lon="4.82398">
        <ele>235</ele>
        <time>2017-06-20T09:56:56Z</time>
      </trkpt>
      <trkpt lat="45.98969" lon="4.82392">
        <ele>235</ele>
        <time>2017-06-20T09:56:57Z</time>
      </trkpt>
      <trkpt lat="45.98968" lon="4.82385">
        <ele>235</ele>
        <time>2017-06-20T09:56:58Z</time>
      </trkpt>
      <trkpt lat="45.98966" lon="4.82378">
        <ele>235</ele>
        <time>2017-06-20T09:56:59Z</time>
      </trkpt>
      <trkpt lat="45.98963" lon="4.82371">
        <ele>235</ele>
        <time>2017-06-20T09:57:00Z</time>
      </trkpt>
      <trkpt lat="45.98961" lon="4.82364">
        <ele>235</ele>
        <time>2017-06-20T09:57:01Z</time>
      </trkpt>
      <trkpt lat="45.98958" lon="4.82356">
        <ele>235</ele>
        <time>2017-06-20T09:57:02Z</time>
      </trkpt>
      <trkpt lat="45.98955" lon="4.82349">
        <ele>235</ele>
        <time>2017-06-20T09:57:03Z</time>
      </trkpt>
      <trkpt lat="45.98952" lon="4.82343">
        <ele>235</ele>
        <time>2017-06-20T09:57:04Z</time>
      </trkpt>
      <trkpt lat="45.98948" lon="4.82337">
        <ele>235</ele>
        <time>2017-06-20T09:57:05Z</time>
      </trkpt>
      <trkpt lat="45.98944" lon="4.82332">
        <ele>234</ele>
        <time>2017-06-20T09:57:06Z</time>
      </trkpt>
      <trkpt lat="45.98941" lon="4.82326">
        <ele>234</ele>
        <time>2017-06-20T09:57:07Z</time>
      </trkpt>
      <trkpt lat="45.98937" lon="4.82322">
        <ele>235</ele>
        <time>2017-06-20T09:57:08Z</time>
      </trkpt>
      <trkpt lat="45.98934" lon="4.82318">
        <ele>235</ele>
        <time>2017-06-20T09:57:09Z</time>
      </trkpt>
      <trkpt lat="45.98927" lon="4.8231">
        <ele>235</ele>
        <time>2017-06-20T09:57:11Z</time>
      </trkpt>
      <trkpt lat="45.98923" lon="4.82306">
        <ele>234</ele>
        <time>2017-06-20T09:57:12Z</time>
      </trkpt>
      <trkpt lat="45.98919" lon="4.82301">
        <ele>234</ele>
        <time>2017-06-20T09:57:13Z</time>
      </trkpt>
      <trkpt lat="45.98915" lon="4.82297">
        <ele>236</ele>
        <time>2017-06-20T09:57:14Z</time>
      </trkpt>
      <trkpt lat="45.98911" lon="4.82292">
        <ele>236</ele>
        <time>2017-06-20T09:57:15Z</time>
      </trkpt>
      <trkpt lat="45.98907" lon="4.82286">
        <ele>236</ele>
        <time>2017-06-20T09:57:16Z</time>
      </trkpt>
      <trkpt lat="45.98903" lon="4.8228">
        <ele>236</ele>
        <time>2017-06-20T09:57:17Z</time>
      </trkpt>
      <trkpt lat="45.98899" lon="4.82274">
        <ele>236</ele>
        <time>2017-06-20T09:57:18Z</time>
      </trkpt>
      <trkpt lat="45.98895" lon="4.82268">
        <ele>236</ele>
        <time>2017-06-20T09:57:19Z</time>
      </trkpt>
      <trkpt lat="45.98892" lon="4.82262">
        <ele>236</ele>
        <time>2017-06-20T09:57:20Z</time>
      </trkpt>
      <trkpt lat="45.98889" lon="4.82256">
        <ele>236</ele>
        <time>2017-06-20T09:57:21Z</time>
      </trkpt>
      <trkpt lat="45.98886" lon="4.8225">
        <ele>235</ele>
        <time>2017-06-20T09:57:22Z</time>
      </trkpt>
      <trkpt lat="45.98884" lon="4.82244">
        <ele>236</ele>
        <time>2017-06-20T09:57:23Z</time>
      </trkpt>
      <trkpt lat="45.98881" lon="4.82238">
        <ele>236</ele>
        <time>2017-06-20T09:57:24Z</time>
      </trkpt>
      <trkpt lat="45.98879" lon="4.82233">
        <ele>236</ele>
        <time>2017-06-20T09:57:25Z</time>
      </trkpt>
      <trkpt lat="45.98876" lon="4.82227">
        <ele>236</ele>
        <time>2017-06-20T09:57:26Z</time>
      </trkpt>
      <trkpt lat="45.98873" lon="4.82222">
        <ele>236</ele>
        <time>2017-06-20T09:57:27Z</time>
      </trkpt>
      <trkpt lat="45.98871" lon="4.82215">
        <ele>236</ele>
        <time>2017-06-20T09:57:28Z</time>
      </trkpt>
      <trkpt lat="45.98868" lon="4.82209">
        <ele>236</ele>
        <time>2017-06-20T09:57:29Z</time>
      </trkpt>
      <trkpt lat="45.98865" lon="4.82203">
        <ele>236</ele>
        <time>2017-06-20T09:57:30Z</time>
      </trkpt>
      <trkpt lat="45.98863" lon="4.82197">
        <ele>236</ele>
        <time>2017-06-20T09:57:31Z</time>
      </trkpt>
      <trkpt lat="45.98861" lon="4.82191">
        <ele>236</ele>
        <time>2017-06-20T09:57:32Z</time>
      </trkpt>
      <trkpt lat="45.98858" lon="4.82185">
        <ele>236</ele>
        <time>2017-06-20T09:57:33Z</time>
      </trkpt>
      <trkpt lat="45.98856" lon="4.82179">
        <ele>236</ele>
        <time>2017-06-20T09:57:34Z</time>
      </trkpt>
      <trkpt lat="45.98854" lon="4.82173">
        <ele>236</ele>
        <time>2017-06-20T09:57:35Z</time>
      </trkpt>
      <trkpt lat="45.98853" lon="4.82167">
        <ele>236</ele>
        <time>2017-06-20T09:57:36Z</time>
      </trkpt>
      <trkpt lat="45.98851" lon="4.82161">
        <ele>236</ele>
        <time>2017-06-20T09:57:37Z</time>
      </trkpt>
      <trkpt lat="45.98849" lon="4.82155">
        <ele>236</ele>
        <time>2017-06-20T09:57:38Z</time>
      </trkpt>
      <trkpt lat="45.98847" lon="4.82148">
        <ele>236</ele>
        <time>2017-06-20T09:57:39Z</time>
      </trkpt>
      <trkpt lat="45.98846" lon="4.82142">
        <ele>236</ele>
        <time>2017-06-20T09:57:40Z</time>
      </trkpt>
      <trkpt lat="45.98844" lon="4.82135">
        <ele>236</ele>
        <time>2017-06-20T09:57:41Z</time>
      </trkpt>
      <trkpt lat="45.98843" lon="4.82129">
        <ele>236</ele>
        <time>2017-06-20T09:57:42Z</time>
      </trkpt>
      <trkpt lat="45.98841" lon="4.82122">
        <ele>235</ele>
        <time>2017-06-20T09:57:43Z</time>
      </trkpt>
      <trkpt lat="45.9884" lon="4.82116">
        <ele>235</ele>
        <time>2017-06-20T09:57:44Z</time>
      </trkpt>
      <trkpt lat="45.98837" lon="4.82104">
        <ele>236</ele>
        <time>2017-06-20T09:57:46Z</time>
      </trkpt>
      <trkpt lat="45.98836" lon="4.82099">
        <ele>236</ele>
        <time>2017-06-20T09:57:47Z</time>
      </trkpt>
      <trkpt lat="45.98833" lon="4.82087">
        <ele>236</ele>
        <time>2017-06-20T09:57:49Z</time>
      </trkpt>
      <trkpt lat="45.98832" lon="4.8208">
        <ele>236</ele>
        <time>2017-06-20T09:57:50Z</time>
      </trkpt>
      <trkpt lat="45.98831" lon="4.82073">
        <ele>237</ele>
        <time>2017-06-20T09:57:51Z</time>
      </trkpt>
      <trkpt lat="45.9883" lon="4.82065">
        <ele>237</ele>
        <time>2017-06-20T09:57:52Z</time>
      </trkpt>
      <trkpt lat="45.98829" lon="4.82057">
        <ele>237</ele>
        <time>2017-06-20T09:57:53Z</time>
      </trkpt>
      <trkpt lat="45.98827" lon="4.8205">
        <ele>238</ele>
        <time>2017-06-20T09:57:54Z</time>
      </trkpt>
      <trkpt lat="45.98826" lon="4.82042">
        <ele>238</ele>
        <time>2017-06-20T09:57:55Z</time>
      </trkpt>
      <trkpt lat="45.98825" lon="4.82035">
        <ele>238</ele>
        <time>2017-06-20T09:57:56Z</time>
      </trkpt>
      <trkpt lat="45.98824" lon="4.82028">
        <ele>238</ele>
        <time>2017-06-20T09:57:57Z</time>
      </trkpt>
      <trkpt lat="45.98823" lon="4.82021">
        <ele>238</ele>
        <time>2017-06-20T09:57:58Z</time>
      </trkpt>
      <trkpt lat="45.98822" lon="4.82014">
        <ele>238</ele>
        <time>2017-06-20T09:57:59Z</time>
      </trkpt>
      <trkpt lat="45.98821" lon="4.82007">
        <ele>238</ele>
        <time>2017-06-20T09:58:00Z</time>
      </trkpt>
      <trkpt lat="45.9882" lon="4.81995">
        <ele>238</ele>
        <time>2017-06-20T09:58:02Z</time>
      </trkpt>
      <trkpt lat="45.98819" lon="4.81989">
        <ele>238</ele>
        <time>2017-06-20T09:58:03Z</time>
      </trkpt>
      <trkpt lat="45.98818" lon="4.8198">
        <ele>239</ele>
        <time>2017-06-20T09:58:05Z</time>
      </trkpt>
      <trkpt lat="45.98817" lon="4.81975">
        <ele>239</ele>
        <time>2017-06-20T09:58:06Z</time>
      </trkpt>
      <trkpt lat="45.98816" lon="4.81965">
        <ele>239</ele>
        <time>2017-06-20T09:58:08Z</time>
      </trkpt>
      <trkpt lat="45.98815" lon="4.81959">
        <ele>239</ele>
        <time>2017-06-20T09:58:09Z</time>
      </trkpt>
      <trkpt lat="45.98815" lon="4.81947">
        <ele>239</ele>
        <time>2017-06-20T09:58:11Z</time>
      </trkpt>
      <trkpt lat="45.98815" lon="4.81941">
        <ele>239</ele>
        <time>2017-06-20T09:58:12Z</time>
      </trkpt>
      <trkpt lat="45.98814" lon="4.81934">
        <ele>239</ele>
        <time>2017-06-20T09:58:13Z</time>
      </trkpt>
      <trkpt lat="45.98813" lon="4.81927">
        <ele>239</ele>
        <time>2017-06-20T09:58:14Z</time>
      </trkpt>
      <trkpt lat="45.98812" lon="4.8192">
        <ele>239</ele>
        <time>2017-06-20T09:58:15Z</time>
      </trkpt>
      <trkpt lat="45.98811" lon="4.81914">
        <ele>239</ele>
        <time>2017-06-20T09:58:16Z</time>
      </trkpt>
      <trkpt lat="45.98809" lon="4.81907">
        <ele>239</ele>
        <time>2017-06-20T09:58:17Z</time>
      </trkpt>
      <trkpt lat="45.98806" lon="4.819">
        <ele>239</ele>
        <time>2017-06-20T09:58:18Z</time>
      </trkpt>
      <trkpt lat="45.98805" lon="4.81894">
        <ele>239</ele>
        <time>2017-06-20T09:58:19Z</time>
      </trkpt>
      <trkpt lat="45.98803" lon="4.81888">
        <ele>239</ele>
        <time>2017-06-20T09:58:20Z</time>
      </trkpt>
      <trkpt lat="45.98799" lon="4.81878">
        <ele>239</ele>
        <time>2017-06-20T09:58:22Z</time>
      </trkpt>
      <trkpt lat="45.98797" lon="4.81874">
        <ele>239</ele>
        <time>2017-06-20T09:58:23Z</time>
      </trkpt>
      <trkpt lat="45.98794" lon="4.81866">
        <ele>239</ele>
        <time>2017-06-20T09:58:25Z</time>
      </trkpt>
      <trkpt lat="45.98792" lon="4.81862">
        <ele>239</ele>
        <time>2017-06-20T09:58:26Z</time>
      </trkpt>
      <trkpt lat="45.98789" lon="4.81854">
        <ele>239</ele>
        <time>2017-06-20T09:58:28Z</time>
      </trkpt>
      <trkpt lat="45.98786" lon="4.81849">
        <ele>239</ele>
        <time>2017-06-20T09:58:29Z</time>
      </trkpt>
      <trkpt lat="45.98782" lon="4.81838">
        <ele>239</ele>
        <time>2017-06-20T09:58:31Z</time>
      </trkpt>
      <trkpt lat="45.98781" lon="4.81834">
        <ele>239</ele>
        <time>2017-06-20T09:58:32Z</time>
      </trkpt>
      <trkpt lat="45.98777" lon="4.81827">
        <ele>240</ele>
        <time>2017-06-20T09:58:34Z</time>
      </trkpt>
      <trkpt lat="45.98775" lon="4.81824">
        <ele>240</ele>
        <time>2017-06-20T09:58:35Z</time>
      </trkpt>
      <trkpt lat="45.98771" lon="4.81815">
        <ele>240</ele>
        <time>2017-06-20T09:58:37Z</time>
      </trkpt>
      <trkpt lat="45.98769" lon="4.8181">
        <ele>240</ele>
        <time>2017-06-20T09:58:38Z</time>
      </trkpt>
      <trkpt lat="45.98763" lon="4.81802">
        <ele>240</ele>
        <time>2017-06-20T09:58:40Z</time>
      </trkpt>
      <trkpt lat="45.98761" lon="4.81797">
        <ele>240</ele>
        <time>2017-06-20T09:58:41Z</time>
      </trkpt>
      <trkpt lat="45.98756" lon="4.81789">
        <ele>241</ele>
        <time>2017-06-20T09:58:43Z</time>
      </trkpt>
      <trkpt lat="45.98753" lon="4.81784">
        <ele>241</ele>
        <time>2017-06-20T09:58:44Z</time>
      </trkpt>
      <trkpt lat="45.98749" lon="4.81775">
        <ele>240</ele>
        <time>2017-06-20T09:58:46Z</time>
      </trkpt>
      <trkpt lat="45.98746" lon="4.8177">
        <ele>240</ele>
        <time>2017-06-20T09:58:47Z</time>
      </trkpt>
      <trkpt lat="45.98741" lon="4.8176">
        <ele>240</ele>
        <time>2017-06-20T09:58:49Z</time>
      </trkpt>
      <trkpt lat="45.98738" lon="4.81756">
        <ele>240</ele>
        <time>2017-06-20T09:58:50Z</time>
      </trkpt>
      <trkpt lat="45.98734" lon="4.81753">
        <ele>240</ele>
        <time>2017-06-20T09:58:51Z</time>
      </trkpt>
      <trkpt lat="45.98729" lon="4.8175">
        <ele>240</ele>
        <time>2017-06-20T09:58:52Z</time>
      </trkpt>
      <trkpt lat="45.98721" lon="4.81748">
        <ele>239</ele>
        <time>2017-06-20T09:58:54Z</time>
      </trkpt>
      <trkpt lat="45.9872" lon="4.8174">
        <ele>239</ele>
        <time>2017-06-20T09:58:55Z</time>
      </trkpt>
      <trkpt lat="45.98714" lon="4.81737">
        <ele>239</ele>
        <time>2017-06-20T09:58:57Z</time>
      </trkpt>
      <trkpt lat="45.98711" lon="4.81738">
        <ele>239</ele>
        <time>2017-06-20T09:58:58Z</time>
      </trkpt>
      <trkpt lat="45.98704" lon="4.81739">
        <ele>239</ele>
        <time>2017-06-20T09:59:00Z</time>
      </trkpt>
      <trkpt lat="45.98701" lon="4.81739">
        <ele>239</ele>
        <time>2017-06-20T09:59:01Z</time>
      </trkpt>
      <trkpt lat="45.98693" lon="4.81741">
        <ele>238</ele>
        <time>2017-06-20T09:59:03Z</time>
      </trkpt>
      <trkpt lat="45.98689" lon="4.81742">
        <ele>238</ele>
        <time>2017-06-20T09:59:04Z</time>
      </trkpt>
      <trkpt lat="45.98681" lon="4.81744">
        <ele>238</ele>
        <time>2017-06-20T09:59:06Z</time>
      </trkpt>
      <trkpt lat="45.98676" lon="4.81745">
        <ele>238</ele>
        <time>2017-06-20T09:59:07Z</time>
      </trkpt>
      <trkpt lat="45.98672" lon="4.81746">
        <ele>238</ele>
        <time>2017-06-20T09:59:08Z</time>
      </trkpt>
      <trkpt lat="45.98666" lon="4.81747">
        <ele>238</ele>
        <time>2017-06-20T09:59:09Z</time>
      </trkpt>
      <trkpt lat="45.9866" lon="4.81748">
        <ele>238</ele>
        <time>2017-06-20T09:59:10Z</time>
      </trkpt>
      <trkpt lat="45.98651" lon="4.81749">
        <ele>237</ele>
        <time>2017-06-20T09:59:11Z</time>
      </trkpt>
      <trkpt lat="45.98645" lon="4.8175">
        <ele>237</ele>
        <time>2017-06-20T09:59:12Z</time>
      </trkpt>
      <trkpt lat="45.9864" lon="4.81751">
        <ele>238</ele>
        <time>2017-06-20T09:59:13Z</time>
      </trkpt>
      <trkpt lat="45.98635" lon="4.81753">
        <ele>238</ele>
        <time>2017-06-20T09:59:14Z</time>
      </trkpt>
      <trkpt lat="45.98631" lon="4.81754">
        <ele>238</ele>
        <time>2017-06-20T09:59:15Z</time>
      </trkpt>
      <trkpt lat="45.98622" lon="4.81758">
        <ele>238</ele>
        <time>2017-06-20T09:59:17Z</time>
      </trkpt>
      <trkpt lat="45.98618" lon="4.81761">
        <ele>238</ele>
        <time>2017-06-20T09:59:18Z</time>
      </trkpt>
      <trkpt lat="45.98613" lon="4.81764">
        <ele>238</ele>
        <time>2017-06-20T09:59:19Z</time>
      </trkpt>
      <trkpt lat="45.98609" lon="4.81768">
        <ele>238</ele>
        <time>2017-06-20T09:59:20Z</time>
      </trkpt>
      <trkpt lat="45.98605" lon="4.81772">
        <ele>238</ele>
        <time>2017-06-20T09:59:21Z</time>
      </trkpt>
      <trkpt lat="45.98601" lon="4.81776">
        <ele>238</ele>
        <time>2017-06-20T09:59:22Z</time>
      </trkpt>
      <trkpt lat="45.98595" lon="4.81785">
        <ele>238</ele>
        <time>2017-06-20T09:59:24Z</time>
      </trkpt>
      <trkpt lat="45.98592" lon="4.8179">
        <ele>238</ele>
        <time>2017-06-20T09:59:25Z</time>
      </trkpt>
      <trkpt lat="45.98587" lon="4.81792">
        <ele>238</ele>
        <time>2017-06-20T09:59:26Z</time>
      </trkpt>
      <trkpt lat="45.98584" lon="4.81795">
        <ele>238</ele>
        <time>2017-06-20T09:59:27Z</time>
      </trkpt>
      <trkpt lat="45.98575" lon="4.81798">
        <ele>238</ele>
        <time>2017-06-20T09:59:29Z</time>
      </trkpt>
      <trkpt lat="45.98568" lon="4.81797">
        <ele>238</ele>
        <time>2017-06-20T09:59:30Z</time>
      </trkpt>
      <trkpt lat="45.98563" lon="4.81795">
        <ele>238</ele>
        <time>2017-06-20T09:59:31Z</time>
      </trkpt>
      <trkpt lat="45.98559" lon="4.81792">
        <ele>238</ele>
        <time>2017-06-20T09:59:32Z</time>
      </trkpt>
      <trkpt lat="45.98554" lon="4.81789">
        <ele>238</ele>
        <time>2017-06-20T09:59:33Z</time>
      </trkpt>
      <trkpt lat="45.98548" lon="4.81786">
        <ele>238</ele>
        <time>2017-06-20T09:59:34Z</time>
      </trkpt>
      <trkpt lat="45.98543" lon="4.81782">
        <ele>238</ele>
        <time>2017-06-20T09:59:35Z</time>
      </trkpt>
      <trkpt lat="45.98538" lon="4.81777">
        <ele>238</ele>
        <time>2017-06-20T09:59:36Z</time>
      </trkpt>
      <trkpt lat="45.98533" lon="4.81772">
        <ele>238</ele>
        <time>2017-06-20T09:59:37Z</time>
      </trkpt>
      <trkpt lat="45.98528" lon="4.81768">
        <ele>238</ele>
        <time>2017-06-20T09:59:38Z</time>
      </trkpt>
      <trkpt lat="45.98524" lon="4.81763">
        <ele>237</ele>
        <time>2017-06-20T09:59:39Z</time>
      </trkpt>
      <trkpt lat="45.98518" lon="4.81758">
        <ele>237</ele>
        <time>2017-06-20T09:59:40Z</time>
      </trkpt>
      <trkpt lat="45.98512" lon="4.81753">
        <ele>237</ele>
        <time>2017-06-20T09:59:41Z</time>
      </trkpt>
      <trkpt lat="45.98507" lon="4.81749">
        <ele>237</ele>
        <time>2017-06-20T09:59:42Z</time>
      </trkpt>
      <trkpt lat="45.98503" lon="4.81745">
        <ele>237</ele>
        <time>2017-06-20T09:59:43Z</time>
      </trkpt>
      <trkpt lat="45.98497" lon="4.81742">
        <ele>238</ele>
        <time>2017-06-20T09:59:44Z</time>
      </trkpt>
      <trkpt lat="45.98492" lon="4.81738">
        <ele>238</ele>
        <time>2017-06-20T09:59:45Z</time>
      </trkpt>
      <trkpt lat="45.98488" lon="4.81734">
        <ele>238</ele>
        <time>2017-06-20T09:59:46Z</time>
      </trkpt>
      <trkpt lat="45.98484" lon="4.8173">
        <ele>238</ele>
        <time>2017-06-20T09:59:47Z</time>
      </trkpt>
      <trkpt lat="45.98479" lon="4.81725">
        <ele>238</ele>
        <time>2017-06-20T09:59:48Z</time>
      </trkpt>
      <trkpt lat="45.98475" lon="4.81721">
        <ele>239</ele>
        <time>2017-06-20T09:59:49Z</time>
      </trkpt>
      <trkpt lat="45.98471" lon="4.81717">
        <ele>239</ele>
        <time>2017-06-20T09:59:50Z</time>
      </trkpt>
      <trkpt lat="45.98464" lon="4.81709">
        <ele>239</ele>
        <time>2017-06-20T09:59:52Z</time>
      </trkpt>
      <trkpt lat="45.98461" lon="4.81704">
        <ele>239</ele>
        <time>2017-06-20T09:59:53Z</time>
      </trkpt>
      <trkpt lat="45.98456" lon="4.81695">
        <ele>239</ele>
        <time>2017-06-20T09:59:55Z</time>
      </trkpt>
      <trkpt lat="45.98454" lon="4.81691">
        <ele>239</ele>
        <time>2017-06-20T09:59:56Z</time>
      </trkpt>
      <trkpt lat="45.98449" lon="4.81682">
        <ele>239</ele>
        <time>2017-06-20T09:59:58Z</time>
      </trkpt>
      <trkpt lat="45.98446" lon="4.81678">
        <ele>239</ele>
        <time>2017-06-20T09:59:59Z</time>
      </trkpt>
      <trkpt lat="45.9844" lon="4.81672">
        <ele>240</ele>
        <time>2017-06-20T10:00:01Z</time>
      </trkpt>
      <trkpt lat="45.98436" lon="4.8167">
        <ele>240</ele>
        <time>2017-06-20T10:00:02Z</time>
      </trkpt>
      <trkpt lat="45.98429" lon="4.81665">
        <ele>239</ele>
        <time>2017-06-20T10:00:04Z</time>
      </trkpt>
      <trkpt lat="45.98426" lon="4.81664">
        <ele>240</ele>
        <time>2017-06-20T10:00:05Z</time>
      </trkpt>
      <trkpt lat="45.98419" lon="4.81663">
        <ele>240</ele>
        <time>2017-06-20T10:00:07Z</time>
      </trkpt>
      <trkpt lat="45.98416" lon="4.81664">
        <ele>241</ele>
        <time>2017-06-20T10:00:08Z</time>
      </trkpt>
      <trkpt lat="45.98408" lon="4.81665">
        <ele>241</ele>
        <time>2017-06-20T10:00:10Z</time>
      </trkpt>
      <trkpt lat="45.98404" lon="4.81665">
        <ele>241</ele>
        <time>2017-06-20T10:00:11Z</time>
      </trkpt>
      <trkpt lat="45.98396" lon="4.81667">
        <ele>243</ele>
        <time>2017-06-20T10:00:13Z</time>
      </trkpt>
      <trkpt lat="45.98392" lon="4.81668">
        <ele>243</ele>
        <time>2017-06-20T10:00:14Z</time>
      </trkpt>
      <trkpt lat="45.98384" lon="4.8167">
        <ele>243</ele>
        <time>2017-06-20T10:00:16Z</time>
      </trkpt>
      <trkpt lat="45.9838" lon="4.81671">
        <ele>244</ele>
        <time>2017-06-20T10:00:17Z</time>
      </trkpt>
      <trkpt lat="45.98372" lon="4.81672">
        <ele>244</ele>
        <time>2017-06-20T10:00:19Z</time>
      </trkpt>
      <trkpt lat="45.98368" lon="4.81673">
        <ele>244</ele>
        <time>2017-06-20T10:00:20Z</time>
      </trkpt>
      <trkpt lat="45.9836" lon="4.81673">
        <ele>244</ele>
        <time>2017-06-20T10:00:22Z</time>
      </trkpt>
      <trkpt lat="45.98356" lon="4.81674">
        <ele>245</ele>
        <time>2017-06-20T10:00:23Z</time>
      </trkpt>
      <trkpt lat="45.98348" lon="4.81672">
        <ele>245</ele>
        <time>2017-06-20T10:00:25Z</time>
      </trkpt>
      <trkpt lat="45.98344" lon="4.81671">
        <ele>245</ele>
        <time>2017-06-20T10:00:26Z</time>
      </trkpt>
      <trkpt lat="45.98337" lon="4.8167">
        <ele>246</ele>
        <time>2017-06-20T10:00:28Z</time>
      </trkpt>
      <trkpt lat="45.98334" lon="4.81669">
        <ele>246</ele>
        <time>2017-06-20T10:00:29Z</time>
      </trkpt>
      <trkpt lat="45.98328" lon="4.81666">
        <ele>246</ele>
        <time>2017-06-20T10:00:31Z</time>
      </trkpt>
      <trkpt lat="45.98325" lon="4.81663">
        <ele>246</ele>
        <time>2017-06-20T10:00:32Z</time>
      </trkpt>
      <trkpt lat="45.98319" lon="4.81657">
        <ele>246</ele>
        <time>2017-06-20T10:00:34Z</time>
      </trkpt>
      <trkpt lat="45.98315" lon="4.81654">
        <ele>246</ele>
        <time>2017-06-20T10:00:35Z</time>
      </trkpt>
      <trkpt lat="45.98311" lon="4.81652">
        <ele>246</ele>
        <time>2017-06-20T10:00:36Z</time>
      </trkpt>
      <trkpt lat="45.98307" lon="4.81649">
        <ele>246</ele>
        <time>2017-06-20T10:00:37Z</time>
      </trkpt>
      <trkpt lat="45.983" lon="4.81643">
        <ele>247</ele>
        <time>2017-06-20T10:00:39Z</time>
      </trkpt>
      <trkpt lat="45.98296" lon="4.8164">
        <ele>247</ele>
        <time>2017-06-20T10:00:40Z</time>
      </trkpt>
      <trkpt lat="45.9829" lon="4.81633">
        <ele>247</ele>
        <time>2017-06-20T10:00:42Z</time>
      </trkpt>
      <trkpt lat="45.98288" lon="4.81629">
        <ele>247</ele>
        <time>2017-06-20T10:00:43Z</time>
      </trkpt>
      <trkpt lat="45.98283" lon="4.81621">
        <ele>247</ele>
        <time>2017-06-20T10:00:45Z</time>
      </trkpt>
      <trkpt lat="45.9828" lon="4.81617">
        <ele>247</ele>
        <time>2017-06-20T10:00:46Z</time>
      </trkpt>
      <trkpt lat="45.98276" lon="4.81608">
        <ele>247</ele>
        <time>2017-06-20T10:00:48Z</time>
      </trkpt>
      <trkpt lat="45.98274" lon="4.81603">
        <ele>247</ele>
        <time>2017-06-20T10:00:49Z</time>
      </trkpt>
      <trkpt lat="45.9827" lon="4.81593">
        <ele>247</ele>
        <time>2017-06-20T10:00:51Z</time>
      </trkpt>
      <trkpt lat="45.98268" lon="4.81588">
        <ele>247</ele>
        <time>2017-06-20T10:00:52Z</time>
      </trkpt>
      <trkpt lat="45.98265" lon="4.81578">
        <ele>247</ele>
        <time>2017-06-20T10:00:54Z</time>
      </trkpt>
      <trkpt lat="45.98263" lon="4.81573">
        <ele>247</ele>
        <time>2017-06-20T10:00:55Z</time>
      </trkpt>
      <trkpt lat="45.98261" lon="4.81561">
        <ele>247</ele>
        <time>2017-06-20T10:00:57Z</time>
      </trkpt>
      <trkpt lat="45.98259" lon="4.81556">
        <ele>247</ele>
        <time>2017-06-20T10:00:58Z</time>
      </trkpt>
      <trkpt lat="45.98256" lon="4.81545">
        <ele>247</ele>
        <time>2017-06-20T10:01:00Z</time>
      </trkpt>
      <trkpt lat="45.98254" lon="4.81539">
        <ele>247</ele>
        <time>2017-06-20T10:01:01Z</time>
      </trkpt>
      <trkpt lat="45.9825" lon="4.81528">
        <ele>249</ele>
        <time>2017-06-20T10:01:03Z</time>
      </trkpt>
      <trkpt lat="45.98248" lon="4.81523">
        <ele>249</ele>
        <time>2017-06-20T10:01:04Z</time>
      </trkpt>
      <trkpt lat="45.98244" lon="4.81513">
        <ele>249</ele>
        <time>2017-06-20T10:01:06Z</time>
      </trkpt>
      <trkpt lat="45.98242" lon="4.81508">
        <ele>249</ele>
        <time>2017-06-20T10:01:07Z</time>
      </trkpt>
      <trkpt lat="45.98239" lon="4.81497">
        <ele>249</ele>
        <time>2017-06-20T10:01:09Z</time>
      </trkpt>
      <trkpt lat="45.98237" lon="4.81491">
        <ele>249</ele>
        <time>2017-06-20T10:01:10Z</time>
      </trkpt>
      <trkpt lat="45.98234" lon="4.81481">
        <ele>249</ele>
        <time>2017-06-20T10:01:12Z</time>
      </trkpt>
      <trkpt lat="45.98233" lon="4.81476">
        <ele>249</ele>
        <time>2017-06-20T10:01:13Z</time>
      </trkpt>
      <trkpt lat="45.9823" lon="4.81465">
        <ele>249</ele>
        <time>2017-06-20T10:01:15Z</time>
      </trkpt>
      <trkpt lat="45.98228" lon="4.81459">
        <ele>249</ele>
        <time>2017-06-20T10:01:16Z</time>
      </trkpt>
      <trkpt lat="45.98224" lon="4.81448">
        <ele>249</ele>
        <time>2017-06-20T10:01:18Z</time>
      </trkpt>
      <trkpt lat="45.98222" lon="4.81442">
        <ele>249</ele>
        <time>2017-06-20T10:01:19Z</time>
      </trkpt>
      <trkpt lat="45.98219" lon="4.81431">
        <ele>249</ele>
        <time>2017-06-20T10:01:21Z</time>
      </trkpt>
      <trkpt lat="45.98217" lon="4.81425">
        <ele>249</ele>
        <time>2017-06-20T10:01:22Z</time>
      </trkpt>
      <trkpt lat="45.98213" lon="4.81415">
        <ele>248</ele>
        <time>2017-06-20T10:01:24Z</time>
      </trkpt>
      <trkpt lat="45.98211" lon="4.8141">
        <ele>248</ele>
        <time>2017-06-20T10:01:25Z</time>
      </trkpt>
      <trkpt lat="45.98208" lon="4.81399">
        <ele>248</ele>
        <time>2017-06-20T10:01:27Z</time>
      </trkpt>
      <trkpt lat="45.98207" lon="4.81393">
        <ele>248</ele>
        <time>2017-06-20T10:01:28Z</time>
      </trkpt>
      <trkpt lat="45.98204" lon="4.81382">
        <ele>248</ele>
        <time>2017-06-20T10:01:30Z</time>
      </trkpt>
      <trkpt lat="45.98202" lon="4.81377">
        <ele>248</ele>
        <time>2017-06-20T10:01:31Z</time>
      </trkpt>
      <trkpt lat="45.982" lon="4.81365">
        <ele>248</ele>
        <time>2017-06-20T10:01:33Z</time>
      </trkpt>
      <trkpt lat="45.98199" lon="4.81359">
        <ele>248</ele>
        <time>2017-06-20T10:01:34Z</time>
      </trkpt>
      <trkpt lat="45.98197" lon="4.81352">
        <ele>248</ele>
        <time>2017-06-20T10:01:35Z</time>
      </trkpt>
      <trkpt lat="45.98196" lon="4.81345">
        <ele>248</ele>
        <time>2017-06-20T10:01:36Z</time>
      </trkpt>
      <trkpt lat="45.98194" lon="4.81336">
        <ele>248</ele>
        <time>2017-06-20T10:01:37Z</time>
      </trkpt>
      <trkpt lat="45.98193" lon="4.81329">
        <ele>247</ele>
        <time>2017-06-20T10:01:38Z</time>
      </trkpt>
      <trkpt lat="45.98191" lon="4.81321">
        <ele>247</ele>
        <time>2017-06-20T10:01:39Z</time>
      </trkpt>
      <trkpt lat="45.98189" lon="4.81313">
        <ele>247</ele>
        <time>2017-06-20T10:01:40Z</time>
      </trkpt>
      <trkpt lat="45.98188" lon="4.81306">
        <ele>247</ele>
        <time>2017-06-20T10:01:41Z</time>
      </trkpt>
      <trkpt lat="45.98186" lon="4.81299">
        <ele>247</ele>
        <time>2017-06-20T10:01:42Z</time>
      </trkpt>
      <trkpt lat="45.98185" lon="4.81291">
        <ele>247</ele>
        <time>2017-06-20T10:01:43Z</time>
      </trkpt>
      <trkpt lat="45.98184" lon="4.81284">
        <ele>247</ele>
        <time>2017-06-20T10:01:44Z</time>
      </trkpt>
      <trkpt lat="45.98182" lon="4.81276">
        <ele>247</ele>
        <time>2017-06-20T10:01:45Z</time>
      </trkpt>
      <trkpt lat="45.98181" lon="4.81269">
        <ele>247</ele>
        <time>2017-06-20T10:01:46Z</time>
      </trkpt>
      <trkpt lat="45.98179" lon="4.81262">
        <ele>247</ele>
        <time>2017-06-20T10:01:47Z</time>
      </trkpt>
      <trkpt lat="45.98178" lon="4.81254">
        <ele>247</ele>
        <time>2017-06-20T10:01:48Z</time>
      </trkpt>
      <trkpt lat="45.98177" lon="4.81247">
        <ele>247</ele>
        <time>2017-06-20T10:01:49Z</time>
      </trkpt>
      <trkpt lat="45.98176" lon="4.81239">
        <ele>247</ele>
        <time>2017-06-20T10:01:50Z</time>
      </trkpt>
      <trkpt lat="45.98176" lon="4.81232">
        <ele>246</ele>
        <time>2017-06-20T10:01:51Z</time>
      </trkpt>
      <trkpt lat="45.98175" lon="4.81224">
        <ele>246</ele>
        <time>2017-06-20T10:01:52Z</time>
      </trkpt>
      <trkpt lat="45.98174" lon="4.81216">
        <ele>246</ele>
        <time>2017-06-20T10:01:53Z</time>
      </trkpt>
      <trkpt lat="45.98173" lon="4.81208">
        <ele>246</ele>
        <time>2017-06-20T10:01:54Z</time>
      </trkpt>
      <trkpt lat="45.98172" lon="4.81197">
        <ele>245</ele>
        <time>2017-06-20T10:01:55Z</time>
      </trkpt>
      <trkpt lat="45.98171" lon="4.81188">
        <ele>245</ele>
        <time>2017-06-20T10:01:56Z</time>
      </trkpt>
      <trkpt lat="45.98169" lon="4.8118">
        <ele>245</ele>
        <time>2017-06-20T10:01:57Z</time>
      </trkpt>
      <trkpt lat="45.98167" lon="4.81172">
        <ele>245</ele>
        <time>2017-06-20T10:01:58Z</time>
      </trkpt>
      <trkpt lat="45.98164" lon="4.81164">
        <ele>245</ele>
        <time>2017-06-20T10:01:59Z</time>
      </trkpt>
      <trkpt lat="45.98161" lon="4.81158">
        <ele>245</ele>
        <time>2017-06-20T10:02:00Z</time>
      </trkpt>
      <trkpt lat="45.98158" lon="4.81151">
        <ele>245</ele>
        <time>2017-06-20T10:02:01Z</time>
      </trkpt>
      <trkpt lat="45.98156" lon="4.81145">
        <ele>245</ele>
        <time>2017-06-20T10:02:02Z</time>
      </trkpt>
      <trkpt lat="45.98153" lon="4.81138">
        <ele>245</ele>
        <time>2017-06-20T10:02:03Z</time>
      </trkpt>
      <trkpt lat="45.9815" lon="4.81132">
        <ele>245</ele>
        <time>2017-06-20T10:02:04Z</time>
      </trkpt>
      <trkpt lat="45.98147" lon="4.81125">
        <ele>245</ele>
        <time>2017-06-20T10:02:05Z</time>
      </trkpt>
      <trkpt lat="45.98144" lon="4.81118">
        <ele>245</ele>
        <time>2017-06-20T10:02:06Z</time>
      </trkpt>
      <trkpt lat="45.98141" lon="4.81111">
        <ele>245</ele>
        <time>2017-06-20T10:02:07Z</time>
      </trkpt>
      <trkpt lat="45.98137" lon="4.81103">
        <ele>245</ele>
        <time>2017-06-20T10:02:08Z</time>
      </trkpt>
      <trkpt lat="45.98134" lon="4.81096">
        <ele>245</ele>
        <time>2017-06-20T10:02:09Z</time>
      </trkpt>
      <trkpt lat="45.98131" lon="4.81089">
        <ele>245</ele>
        <time>2017-06-20T10:02:10Z</time>
      </trkpt>
      <trkpt lat="45.98128" lon="4.81081">
        <ele>243</ele>
        <time>2017-06-20T10:02:11Z</time>
      </trkpt>
      <trkpt lat="45.98126" lon="4.8107">
        <ele>243</ele>
        <time>2017-06-20T10:02:12Z</time>
      </trkpt>
      <trkpt lat="45.98124" lon="4.8106">
        <ele>243</ele>
        <time>2017-06-20T10:02:13Z</time>
      </trkpt>
      <trkpt lat="45.98122" lon="4.81052">
        <ele>243</ele>
        <time>2017-06-20T10:02:14Z</time>
      </trkpt>
      <trkpt lat="45.98119" lon="4.81044">
        <ele>242</ele>
        <time>2017-06-20T10:02:15Z</time>
      </trkpt>
      <trkpt lat="45.98116" lon="4.81037">
        <ele>242</ele>
        <time>2017-06-20T10:02:16Z</time>
      </trkpt>
      <trkpt lat="45.98114" lon="4.8103">
        <ele>242</ele>
        <time>2017-06-20T10:02:17Z</time>
      </trkpt>
      <trkpt lat="45.98112" lon="4.81023">
        <ele>242</ele>
        <time>2017-06-20T10:02:18Z</time>
      </trkpt>
      <trkpt lat="45.98109" lon="4.81016">
        <ele>242</ele>
        <time>2017-06-20T10:02:19Z</time>
      </trkpt>
      <trkpt lat="45.98107" lon="4.8101">
        <ele>242</ele>
        <time>2017-06-20T10:02:20Z</time>
      </trkpt>
      <trkpt lat="45.98103" lon="4.80999">
        <ele>240</ele>
        <time>2017-06-20T10:02:22Z</time>
      </trkpt>
      <trkpt lat="45.98101" lon="4.80994">
        <ele>240</ele>
        <time>2017-06-20T10:02:23Z</time>
      </trkpt>
      <trkpt lat="45.98097" lon="4.80984">
        <ele>240</ele>
        <time>2017-06-20T10:02:25Z</time>
      </trkpt>
      <trkpt lat="45.98095" lon="4.80977">
        <ele>239</ele>
        <time>2017-06-20T10:02:26Z</time>
      </trkpt>
      <trkpt lat="45.98093" lon="4.80969">
        <ele>239</ele>
        <time>2017-06-20T10:02:27Z</time>
      </trkpt>
      <trkpt lat="45.98091" lon="4.8096">
        <ele>239</ele>
        <time>2017-06-20T10:02:28Z</time>
      </trkpt>
      <trkpt lat="45.98089" lon="4.80951">
        <ele>238</ele>
        <time>2017-06-20T10:02:29Z</time>
      </trkpt>
      <trkpt lat="45.98086" lon="4.80942">
        <ele>238</ele>
        <time>2017-06-20T10:02:30Z</time>
      </trkpt>
      <trkpt lat="45.98083" lon="4.80931">
        <ele>240</ele>
        <time>2017-06-20T10:02:31Z</time>
      </trkpt>
      <trkpt lat="45.98081" lon="4.80921">
        <ele>239</ele>
        <time>2017-06-20T10:02:32Z</time>
      </trkpt>
      <trkpt lat="45.98078" lon="4.8091">
        <ele>238</ele>
        <time>2017-06-20T10:02:33Z</time>
      </trkpt>
      <trkpt lat="45.98076" lon="4.80898">
        <ele>238</ele>
        <time>2017-06-20T10:02:34Z</time>
      </trkpt>
      <trkpt lat="45.98073" lon="4.80887">
        <ele>237</ele>
        <time>2017-06-20T10:02:35Z</time>
      </trkpt>
      <trkpt lat="45.9807" lon="4.80875">
        <ele>237</ele>
        <time>2017-06-20T10:02:36Z</time>
      </trkpt>
      <trkpt lat="45.98068" lon="4.80862">
        <ele>237</ele>
        <time>2017-06-20T10:02:37Z</time>
      </trkpt>
      <trkpt lat="45.98065" lon="4.80849">
        <ele>236</ele>
        <time>2017-06-20T10:02:38Z</time>
      </trkpt>
      <trkpt lat="45.98062" lon="4.80836">
        <ele>236</ele>
        <time>2017-06-20T10:02:39Z</time>
      </trkpt>
      <trkpt lat="45.98059" lon="4.80823">
        <ele>234</ele>
        <time>2017-06-20T10:02:40Z</time>
      </trkpt>
      <trkpt lat="45.98056" lon="4.80811">
        <ele>234</ele>
        <time>2017-06-20T10:02:41Z</time>
      </trkpt>
      <trkpt lat="45.98053" lon="4.80798">
        <ele>233</ele>
        <time>2017-06-20T10:02:42Z</time>
      </trkpt>
      <trkpt lat="45.9805" lon="4.80786">
        <ele>233</ele>
        <time>2017-06-20T10:02:43Z</time>
      </trkpt>
      <trkpt lat="45.98048" lon="4.80774">
        <ele>233</ele>
        <time>2017-06-20T10:02:44Z</time>
      </trkpt>
      <trkpt lat="45.98045" lon="4.80762">
        <ele>233</ele>
        <time>2017-06-20T10:02:45Z</time>
      </trkpt>
      <trkpt lat="45.98042" lon="4.80752">
        <ele>233</ele>
        <time>2017-06-20T10:02:46Z</time>
      </trkpt>
      <trkpt lat="45.9804" lon="4.80743">
        <ele>231</ele>
        <time>2017-06-20T10:02:47Z</time>
      </trkpt>
      <trkpt lat="45.98038" lon="4.80734">
        <ele>231</ele>
        <time>2017-06-20T10:02:48Z</time>
      </trkpt>
      <trkpt lat="45.98037" lon="4.80727">
        <ele>231</ele>
        <time>2017-06-20T10:02:49Z</time>
      </trkpt>
      <trkpt lat="45.98035" lon="4.80715">
        <ele>231</ele>
        <time>2017-06-20T10:02:51Z</time>
      </trkpt>
      <trkpt lat="45.98035" lon="4.80711">
        <ele>231</ele>
        <time>2017-06-20T10:02:52Z</time>
      </trkpt>
      <trkpt lat="45.98039" lon="4.80704">
        <ele>230</ele>
        <time>2017-06-20T10:02:54Z</time>
      </trkpt>
      <trkpt lat="45.98043" lon="4.80701">
        <ele>230</ele>
        <time>2017-06-20T10:02:55Z</time>
      </trkpt>
      <trkpt lat="45.98047" lon="4.80699">
        <ele>230</ele>
        <time>2017-06-20T10:02:56Z</time>
      </trkpt>
      <trkpt lat="45.98052" lon="4.80698">
        <ele>230</ele>
        <time>2017-06-20T10:02:57Z</time>
      </trkpt>
      <trkpt lat="45.98058" lon="4.80697">
        <ele>230</ele>
        <time>2017-06-20T10:02:58Z</time>
      </trkpt>
      <trkpt lat="45.98063" lon="4.80696">
        <ele>230</ele>
        <time>2017-06-20T10:02:59Z</time>
      </trkpt>
      <trkpt lat="45.98069" lon="4.80695">
        <ele>230</ele>
        <time>2017-06-20T10:03:00Z</time>
      </trkpt>
      <trkpt lat="45.98075" lon="4.80694">
        <ele>230</ele>
        <time>2017-06-20T10:03:01Z</time>
      </trkpt>
      <trkpt lat="45.98083" lon="4.80694">
        <ele>230</ele>
        <time>2017-06-20T10:03:02Z</time>
      </trkpt>
      <trkpt lat="45.9809" lon="4.80694">
        <ele>228</ele>
        <time>2017-06-20T10:03:03Z</time>
      </trkpt>
      <trkpt lat="45.98097" lon="4.80693">
        <ele>228</ele>
        <time>2017-06-20T10:03:04Z</time>
      </trkpt>
      <trkpt lat="45.98104" lon="4.80693">
        <ele>228</ele>
        <time>2017-06-20T10:03:05Z</time>
      </trkpt>
      <trkpt lat="45.98112" lon="4.80692">
        <ele>228</ele>
        <time>2017-06-20T10:03:06Z</time>
      </trkpt>
      <trkpt lat="45.9812" lon="4.80692">
        <ele>228</ele>
        <time>2017-06-20T10:03:07Z</time>
      </trkpt>
      <trkpt lat="45.98128" lon="4.80691">
        <ele>228</ele>
        <time>2017-06-20T10:03:08Z</time>
      </trkpt>
      <trkpt lat="45.98135" lon="4.80691">
        <ele>228</ele>
        <time>2017-06-20T10:03:09Z</time>
      </trkpt>
      <trkpt lat="45.98143" lon="4.8069">
        <ele>228</ele>
        <time>2017-06-20T10:03:10Z</time>
      </trkpt>
      <trkpt lat="45.98151" lon="4.80689">
        <ele>227</ele>
        <time>2017-06-20T10:03:11Z</time>
      </trkpt>
      <trkpt lat="45.98159" lon="4.80689">
        <ele>227</ele>
        <time>2017-06-20T10:03:12Z</time>
      </trkpt>
      <trkpt lat="45.98167" lon="4.80688">
        <ele>225</ele>
        <time>2017-06-20T10:03:13Z</time>
      </trkpt>
      <trkpt lat="45.98175" lon="4.80686">
        <ele>225</ele>
        <time>2017-06-20T10:03:14Z</time>
      </trkpt>
      <trkpt lat="45.98183" lon="4.80684">
        <ele>225</ele>
        <time>2017-06-20T10:03:15Z</time>
      </trkpt>
      <trkpt lat="45.98191" lon="4.80682">
        <ele>225</ele>
        <time>2017-06-20T10:03:16Z</time>
      </trkpt>
      <trkpt lat="45.98199" lon="4.80679">
        <ele>225</ele>
        <time>2017-06-20T10:03:17Z</time>
      </trkpt>
      <trkpt lat="45.98207" lon="4.80676">
        <ele>224</ele>
        <time>2017-06-20T10:03:18Z</time>
      </trkpt>
      <trkpt lat="45.98214" lon="4.80671">
        <ele>224</ele>
        <time>2017-06-20T10:03:19Z</time>
      </trkpt>
      <trkpt lat="45.98221" lon="4.80665">
        <ele>224</ele>
        <time>2017-06-20T10:03:20Z</time>
      </trkpt>
      <trkpt lat="45.98227" lon="4.80657">
        <ele>223</ele>
        <time>2017-06-20T10:03:21Z</time>
      </trkpt>
      <trkpt lat="45.98232" lon="4.80646">
        <ele>223</ele>
        <time>2017-06-20T10:03:22Z</time>
      </trkpt>
      <trkpt lat="45.98236" lon="4.80635">
        <ele>224</ele>
        <time>2017-06-20T10:03:23Z</time>
      </trkpt>
      <trkpt lat="45.98239" lon="4.80623">
        <ele>224</ele>
        <time>2017-06-20T10:03:24Z</time>
      </trkpt>
      <trkpt lat="45.98243" lon="4.80612">
        <ele>224</ele>
        <time>2017-06-20T10:03:25Z</time>
      </trkpt>
      <trkpt lat="45.98246" lon="4.80601">
        <ele>224</ele>
        <time>2017-06-20T10:03:26Z</time>
      </trkpt>
      <trkpt lat="45.9825" lon="4.8059">
        <ele>224</ele>
        <time>2017-06-20T10:03:27Z</time>
      </trkpt>
      <trkpt lat="45.98253" lon="4.80579">
        <ele>224</ele>
        <time>2017-06-20T10:03:28Z</time>
      </trkpt>
      <trkpt lat="45.98257" lon="4.80568">
        <ele>224</ele>
        <time>2017-06-20T10:03:29Z</time>
      </trkpt>
      <trkpt lat="45.9826" lon="4.80557">
        <ele>224</ele>
        <time>2017-06-20T10:03:30Z</time>
      </trkpt>
      <trkpt lat="45.98264" lon="4.80547">
        <ele>224</ele>
        <time>2017-06-20T10:03:31Z</time>
      </trkpt>
      <trkpt lat="45.98267" lon="4.80538">
        <ele>224</ele>
        <time>2017-06-20T10:03:32Z</time>
      </trkpt>
      <trkpt lat="45.9827" lon="4.80528">
        <ele>224</ele>
        <time>2017-06-20T10:03:33Z</time>
      </trkpt>
      <trkpt lat="45.98274" lon="4.8052">
        <ele>224</ele>
        <time>2017-06-20T10:03:34Z</time>
      </trkpt>
      <trkpt lat="45.98276" lon="4.8051">
        <ele>224</ele>
        <time>2017-06-20T10:03:35Z</time>
      </trkpt>
      <trkpt lat="45.9828" lon="4.80501">
        <ele>224</ele>
        <time>2017-06-20T10:03:36Z</time>
      </trkpt>
      <trkpt lat="45.98282" lon="4.80491">
        <ele>223</ele>
        <time>2017-06-20T10:03:37Z</time>
      </trkpt>
      <trkpt lat="45.98285" lon="4.80483">
        <ele>223</ele>
        <time>2017-06-20T10:03:38Z</time>
      </trkpt>
      <trkpt lat="45.98287" lon="4.80474">
        <ele>224</ele>
        <time>2017-06-20T10:03:39Z</time>
      </trkpt>
      <trkpt lat="45.98289" lon="4.80466">
        <ele>224</ele>
        <time>2017-06-20T10:03:40Z</time>
      </trkpt>
      <trkpt lat="45.98291" lon="4.80457">
        <ele>224</ele>
        <time>2017-06-20T10:03:41Z</time>
      </trkpt>
      <trkpt lat="45.98291" lon="4.80449">
        <ele>224</ele>
        <time>2017-06-20T10:03:42Z</time>
      </trkpt>
      <trkpt lat="45.98292" lon="4.80442">
        <ele>224</ele>
        <time>2017-06-20T10:03:43Z</time>
      </trkpt>
      <trkpt lat="45.98293" lon="4.80434">
        <ele>224</ele>
        <time>2017-06-20T10:03:44Z</time>
      </trkpt>
      <trkpt lat="45.98294" lon="4.80428">
        <ele>224</ele>
        <time>2017-06-20T10:03:45Z</time>
      </trkpt>
      <trkpt lat="45.98296" lon="4.80417">
        <ele>224</ele>
        <time>2017-06-20T10:03:47Z</time>
      </trkpt>
      <trkpt lat="45.98297" lon="4.80411">
        <ele>225</ele>
        <time>2017-06-20T10:03:48Z</time>
      </trkpt>
      <trkpt lat="45.98299" lon="4.80401">
        <ele>225</ele>
        <time>2017-06-20T10:03:50Z</time>
      </trkpt>
      <trkpt lat="45.983" lon="4.80394">
        <ele>225</ele>
        <time>2017-06-20T10:03:51Z</time>
      </trkpt>
      <trkpt lat="45.98303" lon="4.80383">
        <ele>225</ele>
        <time>2017-06-20T10:03:53Z</time>
      </trkpt>
      <trkpt lat="45.98304" lon="4.80379">
        <ele>225</ele>
        <time>2017-06-20T10:03:54Z</time>
      </trkpt>
      <trkpt lat="45.98306" lon="4.80373">
        <ele>225</ele>
        <time>2017-06-20T10:03:55Z</time>
      </trkpt>
      <trkpt lat="45.98308" lon="4.80366">
        <ele>225</ele>
        <time>2017-06-20T10:03:56Z</time>
      </trkpt>
      <trkpt lat="45.98309" lon="4.80359">
        <ele>225</ele>
        <time>2017-06-20T10:03:57Z</time>
      </trkpt>
      <trkpt lat="45.9831" lon="4.80352">
        <ele>226</ele>
        <time>2017-06-20T10:03:58Z</time>
      </trkpt>
      <trkpt lat="45.98311" lon="4.80344">
        <ele>226</ele>
        <time>2017-06-20T10:03:59Z</time>
      </trkpt>
      <trkpt lat="45.98312" lon="4.80336">
        <ele>226</ele>
        <time>2017-06-20T10:04:00Z</time>
      </trkpt>
      <trkpt lat="45.98314" lon="4.80329">
        <ele>227</ele>
        <time>2017-06-20T10:04:01Z</time>
      </trkpt>
      <trkpt lat="45.98316" lon="4.80322">
        <ele>227</ele>
        <time>2017-06-20T10:04:02Z</time>
      </trkpt>
      <trkpt lat="45.98318" lon="4.80315">
        <ele>227</ele>
        <time>2017-06-20T10:04:03Z</time>
      </trkpt>
      <trkpt lat="45.98319" lon="4.80305">
        <ele>227</ele>
        <time>2017-06-20T10:04:04Z</time>
      </trkpt>
      <trkpt lat="45.9832" lon="4.80297">
        <ele>227</ele>
        <time>2017-06-20T10:04:05Z</time>
      </trkpt>
      <trkpt lat="45.98321" lon="4.80289">
        <ele>227</ele>
        <time>2017-06-20T10:04:06Z</time>
      </trkpt>
      <trkpt lat="45.98324" lon="4.80282">
        <ele>227</ele>
        <time>2017-06-20T10:04:07Z</time>
      </trkpt>
      <trkpt lat="45.98326" lon="4.80275">
        <ele>227</ele>
        <time>2017-06-20T10:04:08Z</time>
      </trkpt>
      <trkpt lat="45.98326" lon="4.80267">
        <ele>228</ele>
        <time>2017-06-20T10:04:09Z</time>
      </trkpt>
      <trkpt lat="45.98327" lon="4.8026">
        <ele>228</ele>
        <time>2017-06-20T10:04:10Z</time>
      </trkpt>
      <trkpt lat="45.98329" lon="4.80253">
        <ele>229</ele>
        <time>2017-06-20T10:04:11Z</time>
      </trkpt>
      <trkpt lat="45.9833" lon="4.80247">
        <ele>229</ele>
        <time>2017-06-20T10:04:12Z</time>
      </trkpt>
      <trkpt lat="45.98332" lon="4.80236">
        <ele>228</ele>
        <time>2017-06-20T10:04:14Z</time>
      </trkpt>
      <trkpt lat="45.98333" lon="4.8023">
        <ele>228</ele>
        <time>2017-06-20T10:04:15Z</time>
      </trkpt>
      <trkpt lat="45.98334" lon="4.80219">
        <ele>230</ele>
        <time>2017-06-20T10:04:17Z</time>
      </trkpt>
      <trkpt lat="45.98334" lon="4.80215">
        <ele>230</ele>
        <time>2017-06-20T10:04:18Z</time>
      </trkpt>
      <trkpt lat="45.98333" lon="4.80207">
        <ele>227</ele>
        <time>2017-06-20T10:04:20Z</time>
      </trkpt>
      <trkpt lat="45.98331" lon="4.80203">
        <ele>227</ele>
        <time>2017-06-20T10:04:21Z</time>
      </trkpt>
      <trkpt lat="45.98328" lon="4.80192">
        <ele>227</ele>
        <time>2017-06-20T10:04:23Z</time>
      </trkpt>
      <trkpt lat="45.98326" lon="4.80186">
        <ele>227</ele>
        <time>2017-06-20T10:04:24Z</time>
      </trkpt>
      <trkpt lat="45.98324" lon="4.8018">
        <ele>227</ele>
        <time>2017-06-20T10:04:25Z</time>
      </trkpt>
      <trkpt lat="45.98322" lon="4.80174">
        <ele>227</ele>
        <time>2017-06-20T10:04:26Z</time>
      </trkpt>
      <trkpt lat="45.9832" lon="4.80168">
        <ele>227</ele>
        <time>2017-06-20T10:04:27Z</time>
      </trkpt>
      <trkpt lat="45.98317" lon="4.8016">
        <ele>228</ele>
        <time>2017-06-20T10:04:28Z</time>
      </trkpt>
      <trkpt lat="45.98313" lon="4.80154">
        <ele>228</ele>
        <time>2017-06-20T10:04:29Z</time>
      </trkpt>
      <trkpt lat="45.9831" lon="4.80147">
        <ele>228</ele>
        <time>2017-06-20T10:04:30Z</time>
      </trkpt>
      <trkpt lat="45.98308" lon="4.80141">
        <ele>228</ele>
        <time>2017-06-20T10:04:31Z</time>
      </trkpt>
      <trkpt lat="45.98305" lon="4.80135">
        <ele>228</ele>
        <time>2017-06-20T10:04:32Z</time>
      </trkpt>
      <trkpt lat="45.98303" lon="4.80128">
        <ele>228</ele>
        <time>2017-06-20T10:04:33Z</time>
      </trkpt>
      <trkpt lat="45.98301" lon="4.80123">
        <ele>228</ele>
        <time>2017-06-20T10:04:34Z</time>
      </trkpt>
      <trkpt lat="45.98295" lon="4.80115">
        <ele>228</ele>
        <time>2017-06-20T10:04:35Z</time>
      </trkpt>
      <trkpt lat="45.98293" lon="4.8011">
        <ele>228</ele>
        <time>2017-06-20T10:04:36Z</time>
      </trkpt>
      <trkpt lat="45.98291" lon="4.80104">
        <ele>228</ele>
        <time>2017-06-20T10:04:37Z</time>
      </trkpt>
      <trkpt lat="45.98289" lon="4.80098">
        <ele>228</ele>
        <time>2017-06-20T10:04:38Z</time>
      </trkpt>
      <trkpt lat="45.98288" lon="4.80092">
        <ele>228</ele>
        <time>2017-06-20T10:04:39Z</time>
      </trkpt>
      <trkpt lat="45.98286" lon="4.80085">
        <ele>228</ele>
        <time>2017-06-20T10:04:40Z</time>
      </trkpt>
      <trkpt lat="45.98284" lon="4.80078">
        <ele>229</ele>
        <time>2017-06-20T10:04:41Z</time>
      </trkpt>
      <trkpt lat="45.98282" lon="4.80071">
        <ele>229</ele>
        <time>2017-06-20T10:04:42Z</time>
      </trkpt>
      <trkpt lat="45.9828" lon="4.80064">
        <ele>229</ele>
        <time>2017-06-20T10:04:43Z</time>
      </trkpt>
      <trkpt lat="45.98277" lon="4.80058">
        <ele>229</ele>
        <time>2017-06-20T10:04:44Z</time>
      </trkpt>
      <trkpt lat="45.98275" lon="4.80052">
        <ele>229</ele>
        <time>2017-06-20T10:04:45Z</time>
      </trkpt>
      <trkpt lat="45.98272" lon="4.80045">
        <ele>229</ele>
        <time>2017-06-20T10:04:46Z</time>
      </trkpt>
      <trkpt lat="45.9827" lon="4.80039">
        <ele>229</ele>
        <time>2017-06-20T10:04:47Z</time>
      </trkpt>
      <trkpt lat="45.98267" lon="4.80032">
        <ele>229</ele>
        <time>2017-06-20T10:04:48Z</time>
      </trkpt>
      <trkpt lat="45.98264" lon="4.80026">
        <ele>228</ele>
        <time>2017-06-20T10:04:49Z</time>
      </trkpt>
      <trkpt lat="45.98262" lon="4.8002">
        <ele>228</ele>
        <time>2017-06-20T10:04:50Z</time>
      </trkpt>
      <trkpt lat="45.9826" lon="4.80014">
        <ele>228</ele>
        <time>2017-06-20T10:04:51Z</time>
      </trkpt>
      <trkpt lat="45.98258" lon="4.80008">
        <ele>227</ele>
        <time>2017-06-20T10:04:52Z</time>
      </trkpt>
      <trkpt lat="45.98255" lon="4.80002">
        <ele>227</ele>
        <time>2017-06-20T10:04:53Z</time>
      </trkpt>
      <trkpt lat="45.98253" lon="4.79997">
        <ele>227</ele>
        <time>2017-06-20T10:04:54Z</time>
      </trkpt>
      <trkpt lat="45.9825" lon="4.79991">
        <ele>227</ele>
        <time>2017-06-20T10:04:55Z</time>
      </trkpt>
      <trkpt lat="45.98248" lon="4.79985">
        <ele>225</ele>
        <time>2017-06-20T10:04:56Z</time>
      </trkpt>
      <trkpt lat="45.98246" lon="4.79978">
        <ele>225</ele>
        <time>2017-06-20T10:04:57Z</time>
      </trkpt>
      <trkpt lat="45.98244" lon="4.79972">
        <ele>225</ele>
        <time>2017-06-20T10:04:58Z</time>
      </trkpt>
      <trkpt lat="45.98241" lon="4.7996">
        <ele>225</ele>
        <time>2017-06-20T10:05:00Z</time>
      </trkpt>
      <trkpt lat="45.98239" lon="4.79954">
        <ele>225</ele>
        <time>2017-06-20T10:05:01Z</time>
      </trkpt>
      <trkpt lat="45.98238" lon="4.79948">
        <ele>225</ele>
        <time>2017-06-20T10:05:02Z</time>
      </trkpt>
      <trkpt lat="45.98236" lon="4.79942">
        <ele>225</ele>
        <time>2017-06-20T10:05:03Z</time>
      </trkpt>
      <trkpt lat="45.98234" lon="4.7993">
        <ele>225</ele>
        <time>2017-06-20T10:05:05Z</time>
      </trkpt>
      <trkpt lat="45.98231" lon="4.79923">
        <ele>225</ele>
        <time>2017-06-20T10:05:06Z</time>
      </trkpt>
      <trkpt lat="45.98228" lon="4.79916">
        <ele>225</ele>
        <time>2017-06-20T10:05:07Z</time>
      </trkpt>
      <trkpt lat="45.98225" lon="4.7991">
        <ele>225</ele>
        <time>2017-06-20T10:05:08Z</time>
      </trkpt>
      <trkpt lat="45.98221" lon="4.79901">
        <ele>225</ele>
        <time>2017-06-20T10:05:10Z</time>
      </trkpt>
      <trkpt lat="45.98219" lon="4.79897">
        <ele>225</ele>
        <time>2017-06-20T10:05:11Z</time>
      </trkpt>
      <trkpt lat="45.98217" lon="4.79887">
        <ele>225</ele>
        <time>2017-06-20T10:05:13Z</time>
      </trkpt>
      <trkpt lat="45.98216" lon="4.79883">
        <ele>225</ele>
        <time>2017-06-20T10:05:14Z</time>
      </trkpt>
      <trkpt lat="45.98214" lon="4.79871">
        <ele>225</ele>
        <time>2017-06-20T10:05:16Z</time>
      </trkpt>
      <trkpt lat="45.98211" lon="4.79867">
        <ele>225</ele>
        <time>2017-06-20T10:05:17Z</time>
      </trkpt>
      <trkpt lat="45.98207" lon="4.79856">
        <ele>225</ele>
        <time>2017-06-20T10:05:19Z</time>
      </trkpt>
      <trkpt lat="45.98205" lon="4.79848">
        <ele>225</ele>
        <time>2017-06-20T10:05:20Z</time>
      </trkpt>
      <trkpt lat="45.98203" lon="4.79841">
        <ele>225</ele>
        <time>2017-06-20T10:05:21Z</time>
      </trkpt>
      <trkpt lat="45.982" lon="4.79834">
        <ele>225</ele>
        <time>2017-06-20T10:05:22Z</time>
      </trkpt>
      <trkpt lat="45.98197" lon="4.79827">
        <ele>225</ele>
        <time>2017-06-20T10:05:23Z</time>
      </trkpt>
      <trkpt lat="45.98194" lon="4.7982">
        <ele>225</ele>
        <time>2017-06-20T10:05:24Z</time>
      </trkpt>
      <trkpt lat="45.98192" lon="4.79813">
        <ele>225</ele>
        <time>2017-06-20T10:05:25Z</time>
      </trkpt>
      <trkpt lat="45.9819" lon="4.79807">
        <ele>226</ele>
        <time>2017-06-20T10:05:26Z</time>
      </trkpt>
      <trkpt lat="45.98188" lon="4.798">
        <ele>226</ele>
        <time>2017-06-20T10:05:27Z</time>
      </trkpt>
      <trkpt lat="45.98187" lon="4.79793">
        <ele>226</ele>
        <time>2017-06-20T10:05:28Z</time>
      </trkpt>
      <trkpt lat="45.98186" lon="4.79786">
        <ele>226</ele>
        <time>2017-06-20T10:05:29Z</time>
      </trkpt>
      <trkpt lat="45.98187" lon="4.79779">
        <ele>226</ele>
        <time>2017-06-20T10:05:30Z</time>
      </trkpt>
      <trkpt lat="45.98187" lon="4.79772">
        <ele>226</ele>
        <time>2017-06-20T10:05:31Z</time>
      </trkpt>
      <trkpt lat="45.98187" lon="4.79765">
        <ele>226</ele>
        <time>2017-06-20T10:05:32Z</time>
      </trkpt>
      <trkpt lat="45.98184" lon="4.79753">
        <ele>226</ele>
        <time>2017-06-20T10:05:34Z</time>
      </trkpt>
      <trkpt lat="45.98182" lon="4.79748">
        <ele>227</ele>
        <time>2017-06-20T10:05:35Z</time>
      </trkpt>
      <trkpt lat="45.98178" lon="4.79744">
        <ele>227</ele>
        <time>2017-06-20T10:05:36Z</time>
      </trkpt>
      <trkpt lat="45.98174" lon="4.79741">
        <ele>227</ele>
        <time>2017-06-20T10:05:37Z</time>
      </trkpt>
      <trkpt lat="45.98166" lon="4.79741">
        <ele>226</ele>
        <time>2017-06-20T10:05:39Z</time>
      </trkpt>
      <trkpt lat="45.98161" lon="4.79743">
        <ele>226</ele>
        <time>2017-06-20T10:05:40Z</time>
      </trkpt>
      <trkpt lat="45.98156" lon="4.79746">
        <ele>226</ele>
        <time>2017-06-20T10:05:41Z</time>
      </trkpt>
      <trkpt lat="45.98151" lon="4.79748">
        <ele>226</ele>
        <time>2017-06-20T10:05:42Z</time>
      </trkpt>
      <trkpt lat="45.98146" lon="4.7975">
        <ele>225</ele>
        <time>2017-06-20T10:05:43Z</time>
      </trkpt>
      <trkpt lat="45.9814" lon="4.79753">
        <ele>224</ele>
        <time>2017-06-20T10:05:44Z</time>
      </trkpt>
      <trkpt lat="45.98134" lon="4.79754">
        <ele>224</ele>
        <time>2017-06-20T10:05:45Z</time>
      </trkpt>
      <trkpt lat="45.98128" lon="4.79756">
        <ele>224</ele>
        <time>2017-06-20T10:05:46Z</time>
      </trkpt>
      <trkpt lat="45.98122" lon="4.79757">
        <ele>224</ele>
        <time>2017-06-20T10:05:47Z</time>
      </trkpt>
      <trkpt lat="45.98115" lon="4.79758">
        <ele>224</ele>
        <time>2017-06-20T10:05:48Z</time>
      </trkpt>
      <trkpt lat="45.98109" lon="4.79759">
        <ele>224</ele>
        <time>2017-06-20T10:05:49Z</time>
      </trkpt>
      <trkpt lat="45.98102" lon="4.7976">
        <ele>224</ele>
        <time>2017-06-20T10:05:50Z</time>
      </trkpt>
      <trkpt lat="45.98095" lon="4.79761">
        <ele>223</ele>
        <time>2017-06-20T10:05:51Z</time>
      </trkpt>
      <trkpt lat="45.98088" lon="4.79762">
        <ele>223</ele>
        <time>2017-06-20T10:05:52Z</time>
      </trkpt>
      <trkpt lat="45.98081" lon="4.79763">
        <ele>223</ele>
        <time>2017-06-20T10:05:53Z</time>
      </trkpt>
      <trkpt lat="45.98075" lon="4.79764">
        <ele>223</ele>
        <time>2017-06-20T10:05:54Z</time>
      </trkpt>
      <trkpt lat="45.98068" lon="4.79765">
        <ele>223</ele>
        <time>2017-06-20T10:05:55Z</time>
      </trkpt>
      <trkpt lat="45.98062" lon="4.79766">
        <ele>223</ele>
        <time>2017-06-20T10:05:56Z</time>
      </trkpt>
      <trkpt lat="45.98056" lon="4.79766">
        <ele>223</ele>
        <time>2017-06-20T10:05:57Z</time>
      </trkpt>
      <trkpt lat="45.9805" lon="4.79767">
        <ele>223</ele>
        <time>2017-06-20T10:05:58Z</time>
      </trkpt>
      <trkpt lat="45.98044" lon="4.79768">
        <ele>223</ele>
        <time>2017-06-20T10:05:59Z</time>
      </trkpt>
      <trkpt lat="45.98038" lon="4.79769">
        <ele>223</ele>
        <time>2017-06-20T10:06:00Z</time>
      </trkpt>
      <trkpt lat="45.98032" lon="4.7977">
        <ele>223</ele>
        <time>2017-06-20T10:06:01Z</time>
      </trkpt>
      <trkpt lat="45.98026" lon="4.7977">
        <ele>223</ele>
        <time>2017-06-20T10:06:02Z</time>
      </trkpt>
      <trkpt lat="45.9802" lon="4.79771">
        <ele>223</ele>
        <time>2017-06-20T10:06:03Z</time>
      </trkpt>
      <trkpt lat="45.98014" lon="4.79772">
        <ele>223</ele>
        <time>2017-06-20T10:06:04Z</time>
      </trkpt>
      <trkpt lat="45.98008" lon="4.79773">
        <ele>223</ele>
        <time>2017-06-20T10:06:05Z</time>
      </trkpt>
      <trkpt lat="45.98002" lon="4.79773">
        <ele>223</ele>
        <time>2017-06-20T10:06:06Z</time>
      </trkpt>
      <trkpt lat="45.97996" lon="4.79774">
        <ele>224</ele>
        <time>2017-06-20T10:06:07Z</time>
      </trkpt>
      <trkpt lat="45.9799" lon="4.79775">
        <ele>224</ele>
        <time>2017-06-20T10:06:08Z</time>
      </trkpt>
      <trkpt lat="45.97983" lon="4.79776">
        <ele>224</ele>
        <time>2017-06-20T10:06:09Z</time>
      </trkpt>
      <trkpt lat="45.97977" lon="4.79777">
        <ele>224</ele>
        <time>2017-06-20T10:06:10Z</time>
      </trkpt>
      <trkpt lat="45.97971" lon="4.79778">
        <ele>224</ele>
        <time>2017-06-20T10:06:11Z</time>
      </trkpt>
      <trkpt lat="45.97965" lon="4.79778">
        <ele>224</ele>
        <time>2017-06-20T10:06:12Z</time>
      </trkpt>
      <trkpt lat="45.97959" lon="4.79779">
        <ele>224</ele>
        <time>2017-06-20T10:06:13Z</time>
      </trkpt>
      <trkpt lat="45.97953" lon="4.7978">
        <ele>224</ele>
        <time>2017-06-20T10:06:14Z</time>
      </trkpt>
      <trkpt lat="45.97948" lon="4.79781">
        <ele>224</ele>
        <time>2017-06-20T10:06:15Z</time>
      </trkpt>
      <trkpt lat="45.97943" lon="4.79783">
        <ele>224</ele>
        <time>2017-06-20T10:06:16Z</time>
      </trkpt>
      <trkpt lat="45.97937" lon="4.79784">
        <ele>224</ele>
        <time>2017-06-20T10:06:17Z</time>
      </trkpt>
      <trkpt lat="45.97932" lon="4.79784">
        <ele>225</ele>
        <time>2017-06-20T10:06:18Z</time>
      </trkpt>
      <trkpt lat="45.97927" lon="4.79785">
        <ele>225</ele>
        <time>2017-06-20T10:06:19Z</time>
      </trkpt>
      <trkpt lat="45.97922" lon="4.79786">
        <ele>225</ele>
        <time>2017-06-20T10:06:20Z</time>
      </trkpt>
      <trkpt lat="45.97916" lon="4.79787">
        <ele>225</ele>
        <time>2017-06-20T10:06:21Z</time>
      </trkpt>
      <trkpt lat="45.9791" lon="4.79788">
        <ele>225</ele>
        <time>2017-06-20T10:06:22Z</time>
      </trkpt>
      <trkpt lat="45.97904" lon="4.79789">
        <ele>225</ele>
        <time>2017-06-20T10:06:23Z</time>
      </trkpt>
      <trkpt lat="45.97898" lon="4.7979">
        <ele>224</ele>
        <time>2017-06-20T10:06:24Z</time>
      </trkpt>
      <trkpt lat="45.97892" lon="4.79791">
        <ele>224</ele>
        <time>2017-06-20T10:06:25Z</time>
      </trkpt>
      <trkpt lat="45.97887" lon="4.79792">
        <ele>224</ele>
        <time>2017-06-20T10:06:26Z</time>
      </trkpt>
      <trkpt lat="45.97882" lon="4.79792">
        <ele>224</ele>
        <time>2017-06-20T10:06:27Z</time>
      </trkpt>
      <trkpt lat="45.97877" lon="4.79794">
        <ele>224</ele>
        <time>2017-06-20T10:06:28Z</time>
      </trkpt>
      <trkpt lat="45.97872" lon="4.79794">
        <ele>224</ele>
        <time>2017-06-20T10:06:29Z</time>
      </trkpt>
      <trkpt lat="45.97867" lon="4.79795">
        <ele>224</ele>
        <time>2017-06-20T10:06:30Z</time>
      </trkpt>
      <trkpt lat="45.97861" lon="4.79796">
        <ele>224</ele>
        <time>2017-06-20T10:06:31Z</time>
      </trkpt>
      <trkpt lat="45.97856" lon="4.79798">
        <ele>224</ele>
        <time>2017-06-20T10:06:32Z</time>
      </trkpt>
      <trkpt lat="45.97851" lon="4.79799">
        <ele>224</ele>
        <time>2017-06-20T10:06:33Z</time>
      </trkpt>
      <trkpt lat="45.97846" lon="4.79799">
        <ele>224</ele>
        <time>2017-06-20T10:06:34Z</time>
      </trkpt>
      <trkpt lat="45.97841" lon="4.798">
        <ele>224</ele>
        <time>2017-06-20T10:06:35Z</time>
      </trkpt>
      <trkpt lat="45.97836" lon="4.79801">
        <ele>224</ele>
        <time>2017-06-20T10:06:36Z</time>
      </trkpt>
      <trkpt lat="45.97831" lon="4.79802">
        <ele>223</ele>
        <time>2017-06-20T10:06:37Z</time>
      </trkpt>
      <trkpt lat="45.97825" lon="4.79803">
        <ele>223</ele>
        <time>2017-06-20T10:06:38Z</time>
      </trkpt>
      <trkpt lat="45.97818" lon="4.79804">
        <ele>223</ele>
        <time>2017-06-20T10:06:39Z</time>
      </trkpt>
      <trkpt lat="45.97812" lon="4.79805">
        <ele>223</ele>
        <time>2017-06-20T10:06:40Z</time>
      </trkpt>
      <trkpt lat="45.97806" lon="4.79806">
        <ele>223</ele>
        <time>2017-06-20T10:06:41Z</time>
      </trkpt>
      <trkpt lat="45.978" lon="4.79807">
        <ele>223</ele>
        <time>2017-06-20T10:06:42Z</time>
      </trkpt>
      <trkpt lat="45.97795" lon="4.79807">
        <ele>223</ele>
        <time>2017-06-20T10:06:43Z</time>
      </trkpt>
      <trkpt lat="45.9779" lon="4.79809">
        <ele>223</ele>
        <time>2017-06-20T10:06:44Z</time>
      </trkpt>
      <trkpt lat="45.97784" lon="4.79809">
        <ele>223</ele>
        <time>2017-06-20T10:06:45Z</time>
      </trkpt>
      <trkpt lat="45.97778" lon="4.7981">
        <ele>223</ele>
        <time>2017-06-20T10:06:46Z</time>
      </trkpt>
      <trkpt lat="45.97772" lon="4.79811">
        <ele>223</ele>
        <time>2017-06-20T10:06:47Z</time>
      </trkpt>
      <trkpt lat="45.97765" lon="4.79812">
        <ele>223</ele>
        <time>2017-06-20T10:06:48Z</time>
      </trkpt>
      <trkpt lat="45.97759" lon="4.79813">
        <ele>223</ele>
        <time>2017-06-20T10:06:49Z</time>
      </trkpt>
      <trkpt lat="45.97752" lon="4.79814">
        <ele>223</ele>
        <time>2017-06-20T10:06:50Z</time>
      </trkpt>
      <trkpt lat="45.97746" lon="4.79815">
        <ele>223</ele>
        <time>2017-06-20T10:06:51Z</time>
      </trkpt>
      <trkpt lat="45.97739" lon="4.79817">
        <ele>223</ele>
        <time>2017-06-20T10:06:52Z</time>
      </trkpt>
      <trkpt lat="45.97732" lon="4.79819">
        <ele>223</ele>
        <time>2017-06-20T10:06:53Z</time>
      </trkpt>
      <trkpt lat="45.97725" lon="4.7982">
        <ele>223</ele>
        <time>2017-06-20T10:06:54Z</time>
      </trkpt>
      <trkpt lat="45.97719" lon="4.79821">
        <ele>223</ele>
        <time>2017-06-20T10:06:55Z</time>
      </trkpt>
      <trkpt lat="45.97714" lon="4.79822">
        <ele>223</ele>
        <time>2017-06-20T10:06:56Z</time>
      </trkpt>
      <trkpt lat="45.97708" lon="4.79823">
        <ele>223</ele>
        <time>2017-06-20T10:06:57Z</time>
      </trkpt>
      <trkpt lat="45.97703" lon="4.79824">
        <ele>223</ele>
        <time>2017-06-20T10:06:58Z</time>
      </trkpt>
      <trkpt lat="45.97697" lon="4.79825">
        <ele>223</ele>
        <time>2017-06-20T10:06:59Z</time>
      </trkpt>
      <trkpt lat="45.97692" lon="4.79826">
        <ele>223</ele>
        <time>2017-06-20T10:07:00Z</time>
      </trkpt>
      <trkpt lat="45.97687" lon="4.79827">
        <ele>223</ele>
        <time>2017-06-20T10:07:01Z</time>
      </trkpt>
      <trkpt lat="45.97682" lon="4.79828">
        <ele>223</ele>
        <time>2017-06-20T10:07:02Z</time>
      </trkpt>
      <trkpt lat="45.97678" lon="4.79829">
        <ele>223</ele>
        <time>2017-06-20T10:07:03Z</time>
      </trkpt>
      <trkpt lat="45.97673" lon="4.7983">
        <ele>222</ele>
        <time>2017-06-20T10:07:04Z</time>
      </trkpt>
      <trkpt lat="45.97669" lon="4.79832">
        <ele>222</ele>
        <time>2017-06-20T10:07:05Z</time>
      </trkpt>
      <trkpt lat="45.97664" lon="4.79833">
        <ele>222</ele>
        <time>2017-06-20T10:07:06Z</time>
      </trkpt>
      <trkpt lat="45.97655" lon="4.79835">
        <ele>221</ele>
        <time>2017-06-20T10:07:08Z</time>
      </trkpt>
      <trkpt lat="45.9765" lon="4.79837">
        <ele>221</ele>
        <time>2017-06-20T10:07:09Z</time>
      </trkpt>
      <trkpt lat="45.97645" lon="4.79839">
        <ele>221</ele>
        <time>2017-06-20T10:07:10Z</time>
      </trkpt>
      <trkpt lat="45.9764" lon="4.7984">
        <ele>221</ele>
        <time>2017-06-20T10:07:11Z</time>
      </trkpt>
      <trkpt lat="45.97635" lon="4.79842">
        <ele>221</ele>
        <time>2017-06-20T10:07:12Z</time>
      </trkpt>
      <trkpt lat="45.97631" lon="4.79845">
        <ele>221</ele>
        <time>2017-06-20T10:07:13Z</time>
      </trkpt>
      <trkpt lat="45.97626" lon="4.79846">
        <ele>221</ele>
        <time>2017-06-20T10:07:14Z</time>
      </trkpt>
      <trkpt lat="45.97621" lon="4.79848">
        <ele>221</ele>
        <time>2017-06-20T10:07:15Z</time>
      </trkpt>
      <trkpt lat="45.97617" lon="4.79849">
        <ele>221</ele>
        <time>2017-06-20T10:07:16Z</time>
      </trkpt>
      <trkpt lat="45.97612" lon="4.79851">
        <ele>221</ele>
        <time>2017-06-20T10:07:17Z</time>
      </trkpt>
      <trkpt lat="45.97608" lon="4.79853">
        <ele>221</ele>
        <time>2017-06-20T10:07:18Z</time>
      </trkpt>
      <trkpt lat="45.97604" lon="4.79855">
        <ele>221</ele>
        <time>2017-06-20T10:07:19Z</time>
      </trkpt>
      <trkpt lat="45.97598" lon="4.79857">
        <ele>221</ele>
        <time>2017-06-20T10:07:20Z</time>
      </trkpt>
      <trkpt lat="45.97593" lon="4.79859">
        <ele>221</ele>
        <time>2017-06-20T10:07:21Z</time>
      </trkpt>
      <trkpt lat="45.97588" lon="4.79861">
        <ele>221</ele>
        <time>2017-06-20T10:07:22Z</time>
      </trkpt>
      <trkpt lat="45.97583" lon="4.79863">
        <ele>222</ele>
        <time>2017-06-20T10:07:23Z</time>
      </trkpt>
      <trkpt lat="45.97577" lon="4.79865">
        <ele>222</ele>
        <time>2017-06-20T10:07:24Z</time>
      </trkpt>
      <trkpt lat="45.97571" lon="4.79867">
        <ele>222</ele>
        <time>2017-06-20T10:07:25Z</time>
      </trkpt>
      <trkpt lat="45.97566" lon="4.79869">
        <ele>222</ele>
        <time>2017-06-20T10:07:26Z</time>
      </trkpt>
      <trkpt lat="45.9756" lon="4.79871">
        <ele>222</ele>
        <time>2017-06-20T10:07:27Z</time>
      </trkpt>
      <trkpt lat="45.97554" lon="4.79873">
        <ele>222</ele>
        <time>2017-06-20T10:07:28Z</time>
      </trkpt>
      <trkpt lat="45.97548" lon="4.79875">
        <ele>222</ele>
        <time>2017-06-20T10:07:29Z</time>
      </trkpt>
      <trkpt lat="45.97542" lon="4.79876">
        <ele>222</ele>
        <time>2017-06-20T10:07:30Z</time>
      </trkpt>
      <trkpt lat="45.97536" lon="4.79877">
        <ele>222</ele>
        <time>2017-06-20T10:07:31Z</time>
      </trkpt>
      <trkpt lat="45.97529" lon="4.79879">
        <ele>222</ele>
        <time>2017-06-20T10:07:32Z</time>
      </trkpt>
      <trkpt lat="45.97523" lon="4.79879">
        <ele>222</ele>
        <time>2017-06-20T10:07:33Z</time>
      </trkpt>
      <trkpt lat="45.97516" lon="4.7988">
        <ele>222</ele>
        <time>2017-06-20T10:07:34Z</time>
      </trkpt>
      <trkpt lat="45.97508" lon="4.79881">
        <ele>222</ele>
        <time>2017-06-20T10:07:35Z</time>
      </trkpt>
      <trkpt lat="45.975" lon="4.79882">
        <ele>222</ele>
        <time>2017-06-20T10:07:36Z</time>
      </trkpt>
      <trkpt lat="45.97493" lon="4.79883">
        <ele>221</ele>
        <time>2017-06-20T10:07:37Z</time>
      </trkpt>
      <trkpt lat="45.97485" lon="4.79884">
        <ele>221</ele>
        <time>2017-06-20T10:07:38Z</time>
      </trkpt>
      <trkpt lat="45.97477" lon="4.79883">
        <ele>221</ele>
        <time>2017-06-20T10:07:39Z</time>
      </trkpt>
      <trkpt lat="45.97469" lon="4.79883">
        <ele>221</ele>
        <time>2017-06-20T10:07:40Z</time>
      </trkpt>
      <trkpt lat="45.97461" lon="4.79883">
        <ele>221</ele>
        <time>2017-06-20T10:07:41Z</time>
      </trkpt>
      <trkpt lat="45.97453" lon="4.79882">
        <ele>221</ele>
        <time>2017-06-20T10:07:42Z</time>
      </trkpt>
      <trkpt lat="45.97445" lon="4.79882">
        <ele>221</ele>
        <time>2017-06-20T10:07:43Z</time>
      </trkpt>
      <trkpt lat="45.97436" lon="4.79882">
        <ele>221</ele>
        <time>2017-06-20T10:07:44Z</time>
      </trkpt>
      <trkpt lat="45.97428" lon="4.79883">
        <ele>220</ele>
        <time>2017-06-20T10:07:45Z</time>
      </trkpt>
      <trkpt lat="45.97421" lon="4.79884">
        <ele>220</ele>
        <time>2017-06-20T10:07:46Z</time>
      </trkpt>
      <trkpt lat="45.97413" lon="4.79886">
        <ele>218</ele>
        <time>2017-06-20T10:07:47Z</time>
      </trkpt>
      <trkpt lat="45.97406" lon="4.79887">
        <ele>218</ele>
        <time>2017-06-20T10:07:48Z</time>
      </trkpt>
      <trkpt lat="45.97399" lon="4.79889">
        <ele>218</ele>
        <time>2017-06-20T10:07:49Z</time>
      </trkpt>
      <trkpt lat="45.97392" lon="4.7989">
        <ele>217</ele>
        <time>2017-06-20T10:07:50Z</time>
      </trkpt>
      <trkpt lat="45.97385" lon="4.79892">
        <ele>217</ele>
        <time>2017-06-20T10:07:51Z</time>
      </trkpt>
      <trkpt lat="45.97378" lon="4.79894">
        <ele>217</ele>
        <time>2017-06-20T10:07:52Z</time>
      </trkpt>
      <trkpt lat="45.9737" lon="4.79896">
        <ele>217</ele>
        <time>2017-06-20T10:07:53Z</time>
      </trkpt>
      <trkpt lat="45.97363" lon="4.79897">
        <ele>217</ele>
        <time>2017-06-20T10:07:54Z</time>
      </trkpt>
      <trkpt lat="45.97355" lon="4.79898">
        <ele>216</ele>
        <time>2017-06-20T10:07:55Z</time>
      </trkpt>
      <trkpt lat="45.97348" lon="4.799">
        <ele>216</ele>
        <time>2017-06-20T10:07:56Z</time>
      </trkpt>
      <trkpt lat="45.97342" lon="4.79901">
        <ele>215</ele>
        <time>2017-06-20T10:07:57Z</time>
      </trkpt>
      <trkpt lat="45.97335" lon="4.79902">
        <ele>215</ele>
        <time>2017-06-20T10:07:58Z</time>
      </trkpt>
      <trkpt lat="45.97327" lon="4.79902">
        <ele>214</ele>
        <time>2017-06-20T10:07:59Z</time>
      </trkpt>
      <trkpt lat="45.97319" lon="4.79903">
        <ele>214</ele>
        <time>2017-06-20T10:08:00Z</time>
      </trkpt>
      <trkpt lat="45.97312" lon="4.79904">
        <ele>214</ele>
        <time>2017-06-20T10:08:01Z</time>
      </trkpt>
      <trkpt lat="45.97304" lon="4.79905">
        <ele>213</ele>
        <time>2017-06-20T10:08:02Z</time>
      </trkpt>
      <trkpt lat="45.97297" lon="4.79906">
        <ele>213</ele>
        <time>2017-06-20T10:08:03Z</time>
      </trkpt>
      <trkpt lat="45.9729" lon="4.79907">
        <ele>213</ele>
        <time>2017-06-20T10:08:04Z</time>
      </trkpt>
      <trkpt lat="45.97283" lon="4.79909">
        <ele>213</ele>
        <time>2017-06-20T10:08:05Z</time>
      </trkpt>
      <trkpt lat="45.97277" lon="4.7991">
        <ele>213</ele>
        <time>2017-06-20T10:08:06Z</time>
      </trkpt>
      <trkpt lat="45.97272" lon="4.79912">
        <ele>213</ele>
        <time>2017-06-20T10:08:07Z</time>
      </trkpt>
      <trkpt lat="45.97267" lon="4.79913">
        <ele>213</ele>
        <time>2017-06-20T10:08:08Z</time>
      </trkpt>
      <trkpt lat="45.97262" lon="4.79912">
        <ele>213</ele>
        <time>2017-06-20T10:08:09Z</time>
      </trkpt>
      <trkpt lat="45.97256" lon="4.79903">
        <ele>213</ele>
        <time>2017-06-20T10:08:11Z</time>
      </trkpt>
      <trkpt lat="45.97254" lon="4.79898">
        <ele>213</ele>
        <time>2017-06-20T10:08:12Z</time>
      </trkpt>
      <trkpt lat="45.97252" lon="4.79892">
        <ele>213</ele>
        <time>2017-06-20T10:08:13Z</time>
      </trkpt>
      <trkpt lat="45.97251" lon="4.79886">
        <ele>213</ele>
        <time>2017-06-20T10:08:14Z</time>
      </trkpt>
      <trkpt lat="45.97249" lon="4.79879">
        <ele>211</ele>
        <time>2017-06-20T10:08:15Z</time>
      </trkpt>
      <trkpt lat="45.97247" lon="4.79872">
        <ele>211</ele>
        <time>2017-06-20T10:08:16Z</time>
      </trkpt>
      <trkpt lat="45.97245" lon="4.79864">
        <ele>211</ele>
        <time>2017-06-20T10:08:17Z</time>
      </trkpt>
      <trkpt lat="45.97243" lon="4.79857">
        <ele>211</ele>
        <time>2017-06-20T10:08:18Z</time>
      </trkpt>
      <trkpt lat="45.97243" lon="4.79849">
        <ele>211</ele>
        <time>2017-06-20T10:08:19Z</time>
      </trkpt>
      <trkpt lat="45.97242" lon="4.79841">
        <ele>212</ele>
        <time>2017-06-20T10:08:20Z</time>
      </trkpt>
      <trkpt lat="45.97242" lon="4.79833">
        <ele>211</ele>
        <time>2017-06-20T10:08:21Z</time>
      </trkpt>
      <trkpt lat="45.97241" lon="4.79826">
        <ele>211</ele>
        <time>2017-06-20T10:08:22Z</time>
      </trkpt>
      <trkpt lat="45.97241" lon="4.79818">
        <ele>211</ele>
        <time>2017-06-20T10:08:23Z</time>
      </trkpt>
      <trkpt lat="45.97241" lon="4.7981">
        <ele>210</ele>
        <time>2017-06-20T10:08:24Z</time>
      </trkpt>
      <trkpt lat="45.97242" lon="4.79802">
        <ele>210</ele>
        <time>2017-06-20T10:08:25Z</time>
      </trkpt>
      <trkpt lat="45.97242" lon="4.79793">
        <ele>210</ele>
        <time>2017-06-20T10:08:26Z</time>
      </trkpt>
      <trkpt lat="45.97242" lon="4.79785">
        <ele>210</ele>
        <time>2017-06-20T10:08:27Z</time>
      </trkpt>
      <trkpt lat="45.97243" lon="4.79778">
        <ele>210</ele>
        <time>2017-06-20T10:08:28Z</time>
      </trkpt>
      <trkpt lat="45.97243" lon="4.7977">
        <ele>210</ele>
        <time>2017-06-20T10:08:29Z</time>
      </trkpt>
      <trkpt lat="45.97244" lon="4.79763">
        <ele>209</ele>
        <time>2017-06-20T10:08:30Z</time>
      </trkpt>
      <trkpt lat="45.97244" lon="4.79756">
        <ele>209</ele>
        <time>2017-06-20T10:08:31Z</time>
      </trkpt>
      <trkpt lat="45.97245" lon="4.79749">
        <ele>209</ele>
        <time>2017-06-20T10:08:32Z</time>
      </trkpt>
      <trkpt lat="45.97247" lon="4.79737">
        <ele>209</ele>
        <time>2017-06-20T10:08:34Z</time>
      </trkpt>
      <trkpt lat="45.97248" lon="4.7973">
        <ele>209</ele>
        <time>2017-06-20T10:08:35Z</time>
      </trkpt>
      <trkpt lat="45.97249" lon="4.79723">
        <ele>209</ele>
        <time>2017-06-20T10:08:36Z</time>
      </trkpt>
      <trkpt lat="45.9725" lon="4.79715">
        <ele>209</ele>
        <time>2017-06-20T10:08:37Z</time>
      </trkpt>
      <trkpt lat="45.97251" lon="4.79707">
        <ele>212</ele>
        <time>2017-06-20T10:08:38Z</time>
      </trkpt>
      <trkpt lat="45.97252" lon="4.79699">
        <ele>212</ele>
        <time>2017-06-20T10:08:39Z</time>
      </trkpt>
      <trkpt lat="45.97253" lon="4.79692">
        <ele>212</ele>
        <time>2017-06-20T10:08:40Z</time>
      </trkpt>
      <trkpt lat="45.97254" lon="4.79683">
        <ele>211</ele>
        <time>2017-06-20T10:08:41Z</time>
      </trkpt>
      <trkpt lat="45.97255" lon="4.79675">
        <ele>210</ele>
        <time>2017-06-20T10:08:42Z</time>
      </trkpt>
      <trkpt lat="45.97259" lon="4.79665">
        <ele>210</ele>
        <time>2017-06-20T10:08:43Z</time>
      </trkpt>
      <trkpt lat="45.9726" lon="4.79657">
        <ele>211</ele>
        <time>2017-06-20T10:08:44Z</time>
      </trkpt>
      <trkpt lat="45.97259" lon="4.79648">
        <ele>212</ele>
        <time>2017-06-20T10:08:45Z</time>
      </trkpt>
      <trkpt lat="45.97258" lon="4.79641">
        <ele>212</ele>
        <time>2017-06-20T10:08:46Z</time>
      </trkpt>
      <trkpt lat="45.97259" lon="4.79634">
        <ele>213</ele>
        <time>2017-06-20T10:08:47Z</time>
      </trkpt>
      <trkpt lat="45.97259" lon="4.79627">
        <ele>213</ele>
        <time>2017-06-20T10:08:48Z</time>
      </trkpt>
      <trkpt lat="45.97259" lon="4.7962">
        <ele>213</ele>
        <time>2017-06-20T10:08:49Z</time>
      </trkpt>
      <trkpt lat="45.9726" lon="4.79613">
        <ele>213</ele>
        <time>2017-06-20T10:08:50Z</time>
      </trkpt>
      <trkpt lat="45.9726" lon="4.79606">
        <ele>213</ele>
        <time>2017-06-20T10:08:51Z</time>
      </trkpt>
      <trkpt lat="45.97259" lon="4.79599">
        <ele>212</ele>
        <time>2017-06-20T10:08:52Z</time>
      </trkpt>
      <trkpt lat="45.97259" lon="4.79592">
        <ele>212</ele>
        <time>2017-06-20T10:08:53Z</time>
      </trkpt>
      <trkpt lat="45.97259" lon="4.79579">
        <ele>212</ele>
        <time>2017-06-20T10:08:55Z</time>
      </trkpt>
      <trkpt lat="45.97259" lon="4.79573">
        <ele>212</ele>
        <time>2017-06-20T10:08:56Z</time>
      </trkpt>
      <trkpt lat="45.97258" lon="4.79565">
        <ele>213</ele>
        <time>2017-06-20T10:08:57Z</time>
      </trkpt>
      <trkpt lat="45.97256" lon="4.79558">
        <ele>213</ele>
        <time>2017-06-20T10:08:58Z</time>
      </trkpt>
      <trkpt lat="45.97254" lon="4.79551">
        <ele>214</ele>
        <time>2017-06-20T10:08:59Z</time>
      </trkpt>
      <trkpt lat="45.97253" lon="4.79544">
        <ele>214</ele>
        <time>2017-06-20T10:09:00Z</time>
      </trkpt>
      <trkpt lat="45.97252" lon="4.79537">
        <ele>214</ele>
        <time>2017-06-20T10:09:01Z</time>
      </trkpt>
      <trkpt lat="45.97251" lon="4.7953">
        <ele>214</ele>
        <time>2017-06-20T10:09:02Z</time>
      </trkpt>
      <trkpt lat="45.97249" lon="4.79523">
        <ele>210</ele>
        <time>2017-06-20T10:09:03Z</time>
      </trkpt>
      <trkpt lat="45.97249" lon="4.79517">
        <ele>210</ele>
        <time>2017-06-20T10:09:04Z</time>
      </trkpt>
      <trkpt lat="45.97247" lon="4.7951">
        <ele>210</ele>
        <time>2017-06-20T10:09:05Z</time>
      </trkpt>
      <trkpt lat="45.97246" lon="4.79503">
        <ele>211</ele>
        <time>2017-06-20T10:09:06Z</time>
      </trkpt>
      <trkpt lat="45.97245" lon="4.79495">
        <ele>210</ele>
        <time>2017-06-20T10:09:07Z</time>
      </trkpt>
      <trkpt lat="45.97244" lon="4.79489">
        <ele>210</ele>
        <time>2017-06-20T10:09:08Z</time>
      </trkpt>
      <trkpt lat="45.97242" lon="4.79481">
        <ele>210</ele>
        <time>2017-06-20T10:09:09Z</time>
      </trkpt>
      <trkpt lat="45.9724" lon="4.79474">
        <ele>209</ele>
        <time>2017-06-20T10:09:10Z</time>
      </trkpt>
      <trkpt lat="45.97237" lon="4.79467">
        <ele>209</ele>
        <time>2017-06-20T10:09:11Z</time>
      </trkpt>
      <trkpt lat="45.97235" lon="4.79461">
        <ele>209</ele>
        <time>2017-06-20T10:09:12Z</time>
      </trkpt>
      <trkpt lat="45.97232" lon="4.79455">
        <ele>209</ele>
        <time>2017-06-20T10:09:13Z</time>
      </trkpt>
      <trkpt lat="45.97231" lon="4.79449">
        <ele>209</ele>
        <time>2017-06-20T10:09:14Z</time>
      </trkpt>
      <trkpt lat="45.97228" lon="4.79441">
        <ele>209</ele>
        <time>2017-06-20T10:09:15Z</time>
      </trkpt>
      <trkpt lat="45.97225" lon="4.79434">
        <ele>209</ele>
        <time>2017-06-20T10:09:16Z</time>
      </trkpt>
      <trkpt lat="45.97222" lon="4.79428">
        <ele>209</ele>
        <time>2017-06-20T10:09:17Z</time>
      </trkpt>
      <trkpt lat="45.9722" lon="4.79422">
        <ele>208</ele>
        <time>2017-06-20T10:09:18Z</time>
      </trkpt>
      <trkpt lat="45.97217" lon="4.79416">
        <ele>208</ele>
        <time>2017-06-20T10:09:19Z</time>
      </trkpt>
      <trkpt lat="45.97214" lon="4.7941">
        <ele>208</ele>
        <time>2017-06-20T10:09:20Z</time>
      </trkpt>
      <trkpt lat="45.97212" lon="4.79404">
        <ele>208</ele>
        <time>2017-06-20T10:09:21Z</time>
      </trkpt>
      <trkpt lat="45.97209" lon="4.79397">
        <ele>208</ele>
        <time>2017-06-20T10:09:22Z</time>
      </trkpt>
      <trkpt lat="45.97206" lon="4.7939">
        <ele>208</ele>
        <time>2017-06-20T10:09:23Z</time>
      </trkpt>
      <trkpt lat="45.97202" lon="4.79383">
        <ele>208</ele>
        <time>2017-06-20T10:09:24Z</time>
      </trkpt>
      <trkpt lat="45.97199" lon="4.79377">
        <ele>207</ele>
        <time>2017-06-20T10:09:25Z</time>
      </trkpt>
      <trkpt lat="45.97197" lon="4.7937">
        <ele>207</ele>
        <time>2017-06-20T10:09:26Z</time>
      </trkpt>
      <trkpt lat="45.97193" lon="4.79363">
        <ele>207</ele>
        <time>2017-06-20T10:09:27Z</time>
      </trkpt>
      <trkpt lat="45.9719" lon="4.79357">
        <ele>207</ele>
        <time>2017-06-20T10:09:28Z</time>
      </trkpt>
      <trkpt lat="45.97187" lon="4.7935">
        <ele>207</ele>
        <time>2017-06-20T10:09:29Z</time>
      </trkpt>
      <trkpt lat="45.97184" lon="4.79342">
        <ele>207</ele>
        <time>2017-06-20T10:09:30Z</time>
      </trkpt>
      <trkpt lat="45.97181" lon="4.79334">
        <ele>206</ele>
        <time>2017-06-20T10:09:31Z</time>
      </trkpt>
      <trkpt lat="45.97178" lon="4.79326">
        <ele>206</ele>
        <time>2017-06-20T10:09:32Z</time>
      </trkpt>
      <trkpt lat="45.97175" lon="4.79317">
        <ele>207</ele>
        <time>2017-06-20T10:09:33Z</time>
      </trkpt>
      <trkpt lat="45.97172" lon="4.79309">
        <ele>207</ele>
        <time>2017-06-20T10:09:34Z</time>
      </trkpt>
      <trkpt lat="45.9717" lon="4.79301">
        <ele>207</ele>
        <time>2017-06-20T10:09:35Z</time>
      </trkpt>
      <trkpt lat="45.97167" lon="4.79293">
        <ele>204</ele>
        <time>2017-06-20T10:09:36Z</time>
      </trkpt>
      <trkpt lat="45.97164" lon="4.79285">
        <ele>204</ele>
        <time>2017-06-20T10:09:37Z</time>
      </trkpt>
      <trkpt lat="45.97161" lon="4.79277">
        <ele>204</ele>
        <time>2017-06-20T10:09:38Z</time>
      </trkpt>
      <trkpt lat="45.97158" lon="4.7927">
        <ele>204</ele>
        <time>2017-06-20T10:09:39Z</time>
      </trkpt>
      <trkpt lat="45.97155" lon="4.79263">
        <ele>205</ele>
        <time>2017-06-20T10:09:40Z</time>
      </trkpt>
      <trkpt lat="45.97153" lon="4.79257">
        <ele>205</ele>
        <time>2017-06-20T10:09:41Z</time>
      </trkpt>
      <trkpt lat="45.9715" lon="4.7925">
        <ele>204</ele>
        <time>2017-06-20T10:09:42Z</time>
      </trkpt>
      <trkpt lat="45.97147" lon="4.79244">
        <ele>205</ele>
        <time>2017-06-20T10:09:43Z</time>
      </trkpt>
      <trkpt lat="45.97144" lon="4.79236">
        <ele>205</ele>
        <time>2017-06-20T10:09:44Z</time>
      </trkpt>
      <trkpt lat="45.97141" lon="4.79229">
        <ele>205</ele>
        <time>2017-06-20T10:09:45Z</time>
      </trkpt>
      <trkpt lat="45.97138" lon="4.7922">
        <ele>206</ele>
        <time>2017-06-20T10:09:46Z</time>
      </trkpt>
      <trkpt lat="45.97134" lon="4.79211">
        <ele>206</ele>
        <time>2017-06-20T10:09:47Z</time>
      </trkpt>
      <trkpt lat="45.97131" lon="4.79203">
        <ele>206</ele>
        <time>2017-06-20T10:09:48Z</time>
      </trkpt>
      <trkpt lat="45.97127" lon="4.79195">
        <ele>206</ele>
        <time>2017-06-20T10:09:49Z</time>
      </trkpt>
      <trkpt lat="45.97124" lon="4.79187">
        <ele>206</ele>
        <time>2017-06-20T10:09:50Z</time>
      </trkpt>
      <trkpt lat="45.97121" lon="4.79179">
        <ele>206</ele>
        <time>2017-06-20T10:09:51Z</time>
      </trkpt>
      <trkpt lat="45.97118" lon="4.79171">
        <ele>206</ele>
        <time>2017-06-20T10:09:52Z</time>
      </trkpt>
      <trkpt lat="45.97114" lon="4.79164">
        <ele>207</ele>
        <time>2017-06-20T10:09:53Z</time>
      </trkpt>
      <trkpt lat="45.97111" lon="4.79157">
        <ele>206</ele>
        <time>2017-06-20T10:09:54Z</time>
      </trkpt>
      <trkpt lat="45.97107" lon="4.79151">
        <ele>206</ele>
        <time>2017-06-20T10:09:55Z</time>
      </trkpt>
      <trkpt lat="45.97104" lon="4.79145">
        <ele>206</ele>
        <time>2017-06-20T10:09:56Z</time>
      </trkpt>
      <trkpt lat="45.97101" lon="4.79139">
        <ele>206</ele>
        <time>2017-06-20T10:09:57Z</time>
      </trkpt>
      <trkpt lat="45.97097" lon="4.79134">
        <ele>206</ele>
        <time>2017-06-20T10:09:58Z</time>
      </trkpt>
      <trkpt lat="45.97094" lon="4.79128">
        <ele>206</ele>
        <time>2017-06-20T10:09:59Z</time>
      </trkpt>
      <trkpt lat="45.9709" lon="4.79121">
        <ele>206</ele>
        <time>2017-06-20T10:10:00Z</time>
      </trkpt>
      <trkpt lat="45.97087" lon="4.79115">
        <ele>206</ele>
        <time>2017-06-20T10:10:01Z</time>
      </trkpt>
      <trkpt lat="45.97085" lon="4.79108">
        <ele>206</ele>
        <time>2017-06-20T10:10:02Z</time>
      </trkpt>
      <trkpt lat="45.97083" lon="4.79101">
        <ele>204</ele>
        <time>2017-06-20T10:10:03Z</time>
      </trkpt>
      <trkpt lat="45.97081" lon="4.79094">
        <ele>204</ele>
        <time>2017-06-20T10:10:04Z</time>
      </trkpt>
      <trkpt lat="45.97079" lon="4.79084">
        <ele>204</ele>
        <time>2017-06-20T10:10:05Z</time>
      </trkpt>
      <trkpt lat="45.97076" lon="4.79075">
        <ele>204</ele>
        <time>2017-06-20T10:10:06Z</time>
      </trkpt>
      <trkpt lat="45.97074" lon="4.79067">
        <ele>204</ele>
        <time>2017-06-20T10:10:07Z</time>
      </trkpt>
      <trkpt lat="45.97072" lon="4.79058">
        <ele>203</ele>
        <time>2017-06-20T10:10:08Z</time>
      </trkpt>
      <trkpt lat="45.9707" lon="4.7905">
        <ele>203</ele>
        <time>2017-06-20T10:10:09Z</time>
      </trkpt>
      <trkpt lat="45.97068" lon="4.79041">
        <ele>203</ele>
        <time>2017-06-20T10:10:10Z</time>
      </trkpt>
      <trkpt lat="45.97065" lon="4.79032">
        <ele>203</ele>
        <time>2017-06-20T10:10:11Z</time>
      </trkpt>
      <trkpt lat="45.97063" lon="4.79024">
        <ele>204</ele>
        <time>2017-06-20T10:10:12Z</time>
      </trkpt>
      <trkpt lat="45.9706" lon="4.79015">
        <ele>204</ele>
        <time>2017-06-20T10:10:13Z</time>
      </trkpt>
      <trkpt lat="45.97057" lon="4.79007">
        <ele>204</ele>
        <time>2017-06-20T10:10:14Z</time>
      </trkpt>
      <trkpt lat="45.97055" lon="4.78999">
        <ele>205</ele>
        <time>2017-06-20T10:10:15Z</time>
      </trkpt>
      <trkpt lat="45.97052" lon="4.78992">
        <ele>205</ele>
        <time>2017-06-20T10:10:16Z</time>
      </trkpt>
      <trkpt lat="45.97049" lon="4.78984">
        <ele>205</ele>
        <time>2017-06-20T10:10:17Z</time>
      </trkpt>
      <trkpt lat="45.97046" lon="4.78977">
        <ele>205</ele>
        <time>2017-06-20T10:10:18Z</time>
      </trkpt>
      <trkpt lat="45.97042" lon="4.7897">
        <ele>205</ele>
        <time>2017-06-20T10:10:19Z</time>
      </trkpt>
      <trkpt lat="45.97038" lon="4.78963">
        <ele>205</ele>
        <time>2017-06-20T10:10:20Z</time>
      </trkpt>
      <trkpt lat="45.97034" lon="4.78957">
        <ele>205</ele>
        <time>2017-06-20T10:10:21Z</time>
      </trkpt>
      <trkpt lat="45.9703" lon="4.7895">
        <ele>205</ele>
        <time>2017-06-20T10:10:22Z</time>
      </trkpt>
      <trkpt lat="45.97026" lon="4.78943">
        <ele>205</ele>
        <time>2017-06-20T10:10:23Z</time>
      </trkpt>
      <trkpt lat="45.97022" lon="4.78936">
        <ele>205</ele>
        <time>2017-06-20T10:10:24Z</time>
      </trkpt>
      <trkpt lat="45.97018" lon="4.78929">
        <ele>205</ele>
        <time>2017-06-20T10:10:25Z</time>
      </trkpt>
      <trkpt lat="45.97014" lon="4.78922">
        <ele>205</ele>
        <time>2017-06-20T10:10:26Z</time>
      </trkpt>
      <trkpt lat="45.9701" lon="4.78916">
        <ele>205</ele>
        <time>2017-06-20T10:10:27Z</time>
      </trkpt>
      <trkpt lat="45.97005" lon="4.7891">
        <ele>205</ele>
        <time>2017-06-20T10:10:28Z</time>
      </trkpt>
      <trkpt lat="45.97" lon="4.78904">
        <ele>204</ele>
        <time>2017-06-20T10:10:29Z</time>
      </trkpt>
      <trkpt lat="45.96995" lon="4.78898">
        <ele>203</ele>
        <time>2017-06-20T10:10:30Z</time>
      </trkpt>
      <trkpt lat="45.9699" lon="4.78892">
        <ele>203</ele>
        <time>2017-06-20T10:10:31Z</time>
      </trkpt>
      <trkpt lat="45.96985" lon="4.78886">
        <ele>203</ele>
        <time>2017-06-20T10:10:32Z</time>
      </trkpt>
      <trkpt lat="45.96981" lon="4.7888">
        <ele>203</ele>
        <time>2017-06-20T10:10:33Z</time>
      </trkpt>
      <trkpt lat="45.96976" lon="4.78875">
        <ele>203</ele>
        <time>2017-06-20T10:10:34Z</time>
      </trkpt>
      <trkpt lat="45.96971" lon="4.78869">
        <ele>203</ele>
        <time>2017-06-20T10:10:35Z</time>
      </trkpt>
      <trkpt lat="45.96967" lon="4.78864">
        <ele>203</ele>
        <time>2017-06-20T10:10:36Z</time>
      </trkpt>
      <trkpt lat="45.96962" lon="4.78858">
        <ele>203</ele>
        <time>2017-06-20T10:10:37Z</time>
      </trkpt>
      <trkpt lat="45.96958" lon="4.78852">
        <ele>203</ele>
        <time>2017-06-20T10:10:38Z</time>
      </trkpt>
      <trkpt lat="45.96953" lon="4.78847">
        <ele>203</ele>
        <time>2017-06-20T10:10:39Z</time>
      </trkpt>
      <trkpt lat="45.96949" lon="4.78842">
        <ele>202</ele>
        <time>2017-06-20T10:10:40Z</time>
      </trkpt>
      <trkpt lat="45.96945" lon="4.78837">
        <ele>202</ele>
        <time>2017-06-20T10:10:41Z</time>
      </trkpt>
      <trkpt lat="45.9694" lon="4.78832">
        <ele>203</ele>
        <time>2017-06-20T10:10:42Z</time>
      </trkpt>
      <trkpt lat="45.96937" lon="4.78826">
        <ele>202</ele>
        <time>2017-06-20T10:10:43Z</time>
      </trkpt>
      <trkpt lat="45.96933" lon="4.78821">
        <ele>202</ele>
        <time>2017-06-20T10:10:44Z</time>
      </trkpt>
      <trkpt lat="45.96929" lon="4.78815">
        <ele>202</ele>
        <time>2017-06-20T10:10:45Z</time>
      </trkpt>
      <trkpt lat="45.96925" lon="4.78809">
        <ele>203</ele>
        <time>2017-06-20T10:10:46Z</time>
      </trkpt>
      <trkpt lat="45.96922" lon="4.78802">
        <ele>203</ele>
        <time>2017-06-20T10:10:47Z</time>
      </trkpt>
      <trkpt lat="45.96918" lon="4.78796">
        <ele>203</ele>
        <time>2017-06-20T10:10:48Z</time>
      </trkpt>
      <trkpt lat="45.96914" lon="4.7879">
        <ele>201</ele>
        <time>2017-06-20T10:10:49Z</time>
      </trkpt>
      <trkpt lat="45.9691" lon="4.78784">
        <ele>201</ele>
        <time>2017-06-20T10:10:50Z</time>
      </trkpt>
      <trkpt lat="45.96907" lon="4.78778">
        <ele>201</ele>
        <time>2017-06-20T10:10:51Z</time>
      </trkpt>
      <trkpt lat="45.96904" lon="4.78771">
        <ele>201</ele>
        <time>2017-06-20T10:10:52Z</time>
      </trkpt>
      <trkpt lat="45.96901" lon="4.78763">
        <ele>201</ele>
        <time>2017-06-20T10:10:53Z</time>
      </trkpt>
      <trkpt lat="45.96898" lon="4.78756">
        <ele>201</ele>
        <time>2017-06-20T10:10:54Z</time>
      </trkpt>
      <trkpt lat="45.96895" lon="4.78749">
        <ele>202</ele>
        <time>2017-06-20T10:10:55Z</time>
      </trkpt>
      <trkpt lat="45.96891" lon="4.78743">
        <ele>202</ele>
        <time>2017-06-20T10:10:56Z</time>
      </trkpt>
      <trkpt lat="45.96888" lon="4.78736">
        <ele>202</ele>
        <time>2017-06-20T10:10:57Z</time>
      </trkpt>
      <trkpt lat="45.96885" lon="4.78729">
        <ele>202</ele>
        <time>2017-06-20T10:10:58Z</time>
      </trkpt>
      <trkpt lat="45.96883" lon="4.78723">
        <ele>202</ele>
        <time>2017-06-20T10:10:59Z</time>
      </trkpt>
      <trkpt lat="45.9688" lon="4.78717">
        <ele>202</ele>
        <time>2017-06-20T10:11:00Z</time>
      </trkpt>
      <trkpt lat="45.96877" lon="4.7871">
        <ele>202</ele>
        <time>2017-06-20T10:11:01Z</time>
      </trkpt>
      <trkpt lat="45.96875" lon="4.78704">
        <ele>202</ele>
        <time>2017-06-20T10:11:02Z</time>
      </trkpt>
      <trkpt lat="45.96871" lon="4.78697">
        <ele>202</ele>
        <time>2017-06-20T10:11:03Z</time>
      </trkpt>
      <trkpt lat="45.96868" lon="4.78691">
        <ele>202</ele>
        <time>2017-06-20T10:11:04Z</time>
      </trkpt>
      <trkpt lat="45.96865" lon="4.78685">
        <ele>202</ele>
        <time>2017-06-20T10:11:05Z</time>
      </trkpt>
      <trkpt lat="45.96862" lon="4.78679">
        <ele>202</ele>
        <time>2017-06-20T10:11:06Z</time>
      </trkpt>
      <trkpt lat="45.96859" lon="4.78673">
        <ele>202</ele>
        <time>2017-06-20T10:11:07Z</time>
      </trkpt>
      <trkpt lat="45.96856" lon="4.78667">
        <ele>203</ele>
        <time>2017-06-20T10:11:08Z</time>
      </trkpt>
      <trkpt lat="45.96853" lon="4.78661">
        <ele>203</ele>
        <time>2017-06-20T10:11:09Z</time>
      </trkpt>
      <trkpt lat="45.9685" lon="4.78654">
        <ele>203</ele>
        <time>2017-06-20T10:11:10Z</time>
      </trkpt>
      <trkpt lat="45.96846" lon="4.78647">
        <ele>203</ele>
        <time>2017-06-20T10:11:11Z</time>
      </trkpt>
      <trkpt lat="45.96843" lon="4.78639">
        <ele>203</ele>
        <time>2017-06-20T10:11:12Z</time>
      </trkpt>
      <trkpt lat="45.96839" lon="4.78632">
        <ele>203</ele>
        <time>2017-06-20T10:11:13Z</time>
      </trkpt>
      <trkpt lat="45.96836" lon="4.78625">
        <ele>203</ele>
        <time>2017-06-20T10:11:14Z</time>
      </trkpt>
      <trkpt lat="45.96834" lon="4.78618">
        <ele>203</ele>
        <time>2017-06-20T10:11:15Z</time>
      </trkpt>
      <trkpt lat="45.96831" lon="4.78611">
        <ele>202</ele>
        <time>2017-06-20T10:11:16Z</time>
      </trkpt>
      <trkpt lat="45.96828" lon="4.78604">
        <ele>202</ele>
        <time>2017-06-20T10:11:17Z</time>
      </trkpt>
      <trkpt lat="45.96826" lon="4.78599">
        <ele>202</ele>
        <time>2017-06-20T10:11:18Z</time>
      </trkpt>
      <trkpt lat="45.96824" lon="4.78593">
        <ele>202</ele>
        <time>2017-06-20T10:11:19Z</time>
      </trkpt>
      <trkpt lat="45.96821" lon="4.78587">
        <ele>202</ele>
        <time>2017-06-20T10:11:20Z</time>
      </trkpt>
      <trkpt lat="45.96818" lon="4.78582">
        <ele>203</ele>
        <time>2017-06-20T10:11:21Z</time>
      </trkpt>
      <trkpt lat="45.96814" lon="4.78577">
        <ele>203</ele>
        <time>2017-06-20T10:11:22Z</time>
      </trkpt>
      <trkpt lat="45.9681" lon="4.78571">
        <ele>203</ele>
        <time>2017-06-20T10:11:23Z</time>
      </trkpt>
      <trkpt lat="45.96807" lon="4.78565">
        <ele>203</ele>
        <time>2017-06-20T10:11:24Z</time>
      </trkpt>
      <trkpt lat="45.96803" lon="4.78559">
        <ele>203</ele>
        <time>2017-06-20T10:11:25Z</time>
      </trkpt>
      <trkpt lat="45.96799" lon="4.78553">
        <ele>203</ele>
        <time>2017-06-20T10:11:26Z</time>
      </trkpt>
      <trkpt lat="45.96795" lon="4.78548">
        <ele>203</ele>
        <time>2017-06-20T10:11:27Z</time>
      </trkpt>
      <trkpt lat="45.96792" lon="4.78543">
        <ele>203</ele>
        <time>2017-06-20T10:11:28Z</time>
      </trkpt>
      <trkpt lat="45.96788" lon="4.78538">
        <ele>203</ele>
        <time>2017-06-20T10:11:29Z</time>
      </trkpt>
      <trkpt lat="45.96785" lon="4.78533">
        <ele>203</ele>
        <time>2017-06-20T10:11:30Z</time>
      </trkpt>
      <trkpt lat="45.96782" lon="4.78527">
        <ele>203</ele>
        <time>2017-06-20T10:11:31Z</time>
      </trkpt>
      <trkpt lat="45.96779" lon="4.78522">
        <ele>203</ele>
        <time>2017-06-20T10:11:32Z</time>
      </trkpt>
      <trkpt lat="45.96775" lon="4.78517">
        <ele>203</ele>
        <time>2017-06-20T10:11:33Z</time>
      </trkpt>
      <trkpt lat="45.96771" lon="4.78512">
        <ele>203</ele>
        <time>2017-06-20T10:11:34Z</time>
      </trkpt>
      <trkpt lat="45.96767" lon="4.78507">
        <ele>203</ele>
        <time>2017-06-20T10:11:35Z</time>
      </trkpt>
      <trkpt lat="45.96762" lon="4.78502">
        <ele>203</ele>
        <time>2017-06-20T10:11:36Z</time>
      </trkpt>
      <trkpt lat="45.96758" lon="4.78498">
        <ele>204</ele>
        <time>2017-06-20T10:11:37Z</time>
      </trkpt>
      <trkpt lat="45.96755" lon="4.78493">
        <ele>204</ele>
        <time>2017-06-20T10:11:38Z</time>
      </trkpt>
      <trkpt lat="45.96751" lon="4.78487">
        <ele>204</ele>
        <time>2017-06-20T10:11:39Z</time>
      </trkpt>
      <trkpt lat="45.96747" lon="4.78481">
        <ele>203</ele>
        <time>2017-06-20T10:11:40Z</time>
      </trkpt>
      <trkpt lat="45.96742" lon="4.78476">
        <ele>203</ele>
        <time>2017-06-20T10:11:41Z</time>
      </trkpt>
      <trkpt lat="45.96738" lon="4.78472">
        <ele>203</ele>
        <time>2017-06-20T10:11:42Z</time>
      </trkpt>
      <trkpt lat="45.96733" lon="4.78468">
        <ele>203</ele>
        <time>2017-06-20T10:11:43Z</time>
      </trkpt>
      <trkpt lat="45.96727" lon="4.78463">
        <ele>203</ele>
        <time>2017-06-20T10:11:44Z</time>
      </trkpt>
      <trkpt lat="45.96722" lon="4.78458">
        <ele>203</ele>
        <time>2017-06-20T10:11:45Z</time>
      </trkpt>
      <trkpt lat="45.96717" lon="4.78454">
        <ele>203</ele>
        <time>2017-06-20T10:11:46Z</time>
      </trkpt>
      <trkpt lat="45.96712" lon="4.78449">
        <ele>203</ele>
        <time>2017-06-20T10:11:47Z</time>
      </trkpt>
      <trkpt lat="45.96707" lon="4.78444">
        <ele>203</ele>
        <time>2017-06-20T10:11:48Z</time>
      </trkpt>
      <trkpt lat="45.96703" lon="4.78439">
        <ele>203</ele>
        <time>2017-06-20T10:11:49Z</time>
      </trkpt>
      <trkpt lat="45.967" lon="4.78432">
        <ele>203</ele>
        <time>2017-06-20T10:11:50Z</time>
      </trkpt>
      <trkpt lat="45.96695" lon="4.78428">
        <ele>202</ele>
        <time>2017-06-20T10:11:51Z</time>
      </trkpt>
      <trkpt lat="45.9669" lon="4.78425">
        <ele>202</ele>
        <time>2017-06-20T10:11:52Z</time>
      </trkpt>
      <trkpt lat="45.96683" lon="4.78417">
        <ele>202</ele>
        <time>2017-06-20T10:11:54Z</time>
      </trkpt>
      <trkpt lat="45.96679" lon="4.78413">
        <ele>203</ele>
        <time>2017-06-20T10:11:55Z</time>
      </trkpt>
      <trkpt lat="45.96675" lon="4.78409">
        <ele>203</ele>
        <time>2017-06-20T10:11:56Z</time>
      </trkpt>
      <trkpt lat="45.96671" lon="4.78405">
        <ele>203</ele>
        <time>2017-06-20T10:11:57Z</time>
      </trkpt>
      <trkpt lat="45.96667" lon="4.78401">
        <ele>204</ele>
        <time>2017-06-20T10:11:58Z</time>
      </trkpt>
      <trkpt lat="45.96663" lon="4.78396">
        <ele>201</ele>
        <time>2017-06-20T10:11:59Z</time>
      </trkpt>
      <trkpt lat="45.9666" lon="4.78392">
        <ele>201</ele>
        <time>2017-06-20T10:12:00Z</time>
      </trkpt>
      <trkpt lat="45.96656" lon="4.78388">
        <ele>201</ele>
        <time>2017-06-20T10:12:01Z</time>
      </trkpt>
      <trkpt lat="45.96652" lon="4.78383">
        <ele>201</ele>
        <time>2017-06-20T10:12:02Z</time>
      </trkpt>
      <trkpt lat="45.96648" lon="4.78379">
        <ele>201</ele>
        <time>2017-06-20T10:12:03Z</time>
      </trkpt>
      <trkpt lat="45.96644" lon="4.78376">
        <ele>201</ele>
        <time>2017-06-20T10:12:04Z</time>
      </trkpt>
      <trkpt lat="45.9664" lon="4.78372">
        <ele>201</ele>
        <time>2017-06-20T10:12:05Z</time>
      </trkpt>
      <trkpt lat="45.96636" lon="4.78369">
        <ele>201</ele>
        <time>2017-06-20T10:12:06Z</time>
      </trkpt>
      <trkpt lat="45.96632" lon="4.78365">
        <ele>201</ele>
        <time>2017-06-20T10:12:07Z</time>
      </trkpt>
      <trkpt lat="45.96628" lon="4.78362">
        <ele>201</ele>
        <time>2017-06-20T10:12:08Z</time>
      </trkpt>
      <trkpt lat="45.96624" lon="4.78358">
        <ele>201</ele>
        <time>2017-06-20T10:12:09Z</time>
      </trkpt>
      <trkpt lat="45.96619" lon="4.78355">
        <ele>201</ele>
        <time>2017-06-20T10:12:10Z</time>
      </trkpt>
      <trkpt lat="45.96614" lon="4.7835">
        <ele>201</ele>
        <time>2017-06-20T10:12:11Z</time>
      </trkpt>
      <trkpt lat="45.96609" lon="4.78346">
        <ele>200</ele>
        <time>2017-06-20T10:12:12Z</time>
      </trkpt>
      <trkpt lat="45.96605" lon="4.78341">
        <ele>200</ele>
        <time>2017-06-20T10:12:13Z</time>
      </trkpt>
      <trkpt lat="45.966" lon="4.78336">
        <ele>200</ele>
        <time>2017-06-20T10:12:14Z</time>
      </trkpt>
      <trkpt lat="45.96595" lon="4.7833">
        <ele>201</ele>
        <time>2017-06-20T10:12:15Z</time>
      </trkpt>
      <trkpt lat="45.9659" lon="4.78326">
        <ele>201</ele>
        <time>2017-06-20T10:12:16Z</time>
      </trkpt>
      <trkpt lat="45.96586" lon="4.78321">
        <ele>201</ele>
        <time>2017-06-20T10:12:17Z</time>
      </trkpt>
      <trkpt lat="45.96581" lon="4.78316">
        <ele>199</ele>
        <time>2017-06-20T10:12:18Z</time>
      </trkpt>
      <trkpt lat="45.96577" lon="4.78312">
        <ele>199</ele>
        <time>2017-06-20T10:12:19Z</time>
      </trkpt>
      <trkpt lat="45.96572" lon="4.78308">
        <ele>200</ele>
        <time>2017-06-20T10:12:20Z</time>
      </trkpt>
      <trkpt lat="45.96567" lon="4.78304">
        <ele>200</ele>
        <time>2017-06-20T10:12:21Z</time>
      </trkpt>
      <trkpt lat="45.96562" lon="4.783">
        <ele>200</ele>
        <time>2017-06-20T10:12:22Z</time>
      </trkpt>
      <trkpt lat="45.96557" lon="4.78293">
        <ele>200</ele>
        <time>2017-06-20T10:12:23Z</time>
      </trkpt>
      <trkpt lat="45.96553" lon="4.78288">
        <ele>200</ele>
        <time>2017-06-20T10:12:24Z</time>
      </trkpt>
      <trkpt lat="45.96549" lon="4.78284">
        <ele>200</ele>
        <time>2017-06-20T10:12:25Z</time>
      </trkpt>
      <trkpt lat="45.96545" lon="4.78279">
        <ele>200</ele>
        <time>2017-06-20T10:12:26Z</time>
      </trkpt>
      <trkpt lat="45.96541" lon="4.78275">
        <ele>200</ele>
        <time>2017-06-20T10:12:27Z</time>
      </trkpt>
      <trkpt lat="45.96537" lon="4.7827">
        <ele>200</ele>
        <time>2017-06-20T10:12:28Z</time>
      </trkpt>
      <trkpt lat="45.96534" lon="4.78264">
        <ele>200</ele>
        <time>2017-06-20T10:12:29Z</time>
      </trkpt>
      <trkpt lat="45.96528" lon="4.78255">
        <ele>200</ele>
        <time>2017-06-20T10:12:31Z</time>
      </trkpt>
      <trkpt lat="45.96525" lon="4.7825">
        <ele>203</ele>
        <time>2017-06-20T10:12:32Z</time>
      </trkpt>
      <trkpt lat="45.96521" lon="4.78245">
        <ele>203</ele>
        <time>2017-06-20T10:12:33Z</time>
      </trkpt>
      <trkpt lat="45.96517" lon="4.78239">
        <ele>203</ele>
        <time>2017-06-20T10:12:34Z</time>
      </trkpt>
      <trkpt lat="45.96514" lon="4.78233">
        <ele>203</ele>
        <time>2017-06-20T10:12:35Z</time>
      </trkpt>
      <trkpt lat="45.9651" lon="4.78226">
        <ele>204</ele>
        <time>2017-06-20T10:12:36Z</time>
      </trkpt>
      <trkpt lat="45.96506" lon="4.7822">
        <ele>204</ele>
        <time>2017-06-20T10:12:37Z</time>
      </trkpt>
      <trkpt lat="45.96502" lon="4.78214">
        <ele>204</ele>
        <time>2017-06-20T10:12:38Z</time>
      </trkpt>
      <trkpt lat="45.96497" lon="4.7821">
        <ele>200</ele>
        <time>2017-06-20T10:12:39Z</time>
      </trkpt>
      <trkpt lat="45.96493" lon="4.78206">
        <ele>200</ele>
        <time>2017-06-20T10:12:40Z</time>
      </trkpt>
      <trkpt lat="45.96488" lon="4.78203">
        <ele>200</ele>
        <time>2017-06-20T10:12:41Z</time>
      </trkpt>
      <trkpt lat="45.96484" lon="4.782">
        <ele>200</ele>
        <time>2017-06-20T10:12:42Z</time>
      </trkpt>
      <trkpt lat="45.96479" lon="4.78197">
        <ele>200</ele>
        <time>2017-06-20T10:12:43Z</time>
      </trkpt>
      <trkpt lat="45.96474" lon="4.78195">
        <ele>200</ele>
        <time>2017-06-20T10:12:44Z</time>
      </trkpt>
      <trkpt lat="45.96469" lon="4.78191">
        <ele>200</ele>
        <time>2017-06-20T10:12:45Z</time>
      </trkpt>
      <trkpt lat="45.96464" lon="4.78187">
        <ele>200</ele>
        <time>2017-06-20T10:12:46Z</time>
      </trkpt>
      <trkpt lat="45.96459" lon="4.78183">
        <ele>200</ele>
        <time>2017-06-20T10:12:47Z</time>
      </trkpt>
      <trkpt lat="45.96454" lon="4.78178">
        <ele>200</ele>
        <time>2017-06-20T10:12:48Z</time>
      </trkpt>
      <trkpt lat="45.96449" lon="4.78174">
        <ele>199</ele>
        <time>2017-06-20T10:12:49Z</time>
      </trkpt>
      <trkpt lat="45.96445" lon="4.78169">
        <ele>199</ele>
        <time>2017-06-20T10:12:50Z</time>
      </trkpt>
      <trkpt lat="45.96439" lon="4.78164">
        <ele>202</ele>
        <time>2017-06-20T10:12:51Z</time>
      </trkpt>
      <trkpt lat="45.96435" lon="4.78159">
        <ele>202</ele>
        <time>2017-06-20T10:12:52Z</time>
      </trkpt>
      <trkpt lat="45.9643" lon="4.78155">
        <ele>202</ele>
        <time>2017-06-20T10:12:53Z</time>
      </trkpt>
      <trkpt lat="45.96425" lon="4.78152">
        <ele>202</ele>
        <time>2017-06-20T10:12:54Z</time>
      </trkpt>
      <trkpt lat="45.96421" lon="4.78147">
        <ele>202</ele>
        <time>2017-06-20T10:12:55Z</time>
      </trkpt>
      <trkpt lat="45.96417" lon="4.78143">
        <ele>199</ele>
        <time>2017-06-20T10:12:56Z</time>
      </trkpt>
      <trkpt lat="45.96413" lon="4.78138">
        <ele>199</ele>
        <time>2017-06-20T10:12:57Z</time>
      </trkpt>
      <trkpt lat="45.96409" lon="4.78134">
        <ele>199</ele>
        <time>2017-06-20T10:12:58Z</time>
      </trkpt>
      <trkpt lat="45.96405" lon="4.78128">
        <ele>200</ele>
        <time>2017-06-20T10:12:59Z</time>
      </trkpt>
      <trkpt lat="45.964" lon="4.78122">
        <ele>200</ele>
        <time>2017-06-20T10:13:00Z</time>
      </trkpt>
      <trkpt lat="45.96395" lon="4.78118">
        <ele>200</ele>
        <time>2017-06-20T10:13:01Z</time>
      </trkpt>
      <trkpt lat="45.9639" lon="4.78114">
        <ele>200</ele>
        <time>2017-06-20T10:13:02Z</time>
      </trkpt>
      <trkpt lat="45.96385" lon="4.7811">
        <ele>200</ele>
        <time>2017-06-20T10:13:03Z</time>
      </trkpt>
      <trkpt lat="45.9638" lon="4.78106">
        <ele>200</ele>
        <time>2017-06-20T10:13:04Z</time>
      </trkpt>
      <trkpt lat="45.96375" lon="4.78101">
        <ele>200</ele>
        <time>2017-06-20T10:13:05Z</time>
      </trkpt>
      <trkpt lat="45.96372" lon="4.78097">
        <ele>199</ele>
        <time>2017-06-20T10:13:06Z</time>
      </trkpt>
      <trkpt lat="45.96367" lon="4.78093">
        <ele>199</ele>
        <time>2017-06-20T10:13:07Z</time>
      </trkpt>
      <trkpt lat="45.96363" lon="4.78088">
        <ele>199</ele>
        <time>2017-06-20T10:13:08Z</time>
      </trkpt>
      <trkpt lat="45.96359" lon="4.78084">
        <ele>199</ele>
        <time>2017-06-20T10:13:09Z</time>
      </trkpt>
      <trkpt lat="45.96354" lon="4.7808">
        <ele>201</ele>
        <time>2017-06-20T10:13:10Z</time>
      </trkpt>
      <trkpt lat="45.9635" lon="4.78075">
        <ele>201</ele>
        <time>2017-06-20T10:13:11Z</time>
      </trkpt>
      <trkpt lat="45.96346" lon="4.7807">
        <ele>201</ele>
        <time>2017-06-20T10:13:12Z</time>
      </trkpt>
      <trkpt lat="45.96342" lon="4.78065">
        <ele>201</ele>
        <time>2017-06-20T10:13:13Z</time>
      </trkpt>
      <trkpt lat="45.96338" lon="4.7806">
        <ele>202</ele>
        <time>2017-06-20T10:13:14Z</time>
      </trkpt>
      <trkpt lat="45.96334" lon="4.78056">
        <ele>202</ele>
        <time>2017-06-20T10:13:15Z</time>
      </trkpt>
      <trkpt lat="45.9633" lon="4.78052">
        <ele>199</ele>
        <time>2017-06-20T10:13:16Z</time>
      </trkpt>
      <trkpt lat="45.96325" lon="4.78047">
        <ele>199</ele>
        <time>2017-06-20T10:13:17Z</time>
      </trkpt>
      <trkpt lat="45.96322" lon="4.78043">
        <ele>199</ele>
        <time>2017-06-20T10:13:18Z</time>
      </trkpt>
      <trkpt lat="45.96318" lon="4.78038">
        <ele>199</ele>
        <time>2017-06-20T10:13:19Z</time>
      </trkpt>
      <trkpt lat="45.96315" lon="4.7803">
        <ele>200</ele>
        <time>2017-06-20T10:13:20Z</time>
      </trkpt>
      <trkpt lat="45.96312" lon="4.78023">
        <ele>200</ele>
        <time>2017-06-20T10:13:21Z</time>
      </trkpt>
      <trkpt lat="45.96307" lon="4.78017">
        <ele>200</ele>
        <time>2017-06-20T10:13:22Z</time>
      </trkpt>
      <trkpt lat="45.96303" lon="4.78012">
        <ele>200</ele>
        <time>2017-06-20T10:13:23Z</time>
      </trkpt>
      <trkpt lat="45.96299" lon="4.78008">
        <ele>200</ele>
        <time>2017-06-20T10:13:24Z</time>
      </trkpt>
      <trkpt lat="45.96291" lon="4.78002">
        <ele>199</ele>
        <time>2017-06-20T10:13:26Z</time>
      </trkpt>
      <trkpt lat="45.96288" lon="4.77999">
        <ele>204</ele>
        <time>2017-06-20T10:13:27Z</time>
      </trkpt>
      <trkpt lat="45.96281" lon="4.77994">
        <ele>203</ele>
        <time>2017-06-20T10:13:29Z</time>
      </trkpt>
      <trkpt lat="45.96277" lon="4.7799">
        <ele>203</ele>
        <time>2017-06-20T10:13:30Z</time>
      </trkpt>
      <trkpt lat="45.96273" lon="4.77986">
        <ele>203</ele>
        <time>2017-06-20T10:13:31Z</time>
      </trkpt>
      <trkpt lat="45.96268" lon="4.77982">
        <ele>203</ele>
        <time>2017-06-20T10:13:32Z</time>
      </trkpt>
      <trkpt lat="45.96263" lon="4.77978">
        <ele>203</ele>
        <time>2017-06-20T10:13:33Z</time>
      </trkpt>
      <trkpt lat="45.96259" lon="4.77974">
        <ele>203</ele>
        <time>2017-06-20T10:13:34Z</time>
      </trkpt>
      <trkpt lat="45.96253" lon="4.77967">
        <ele>204</ele>
        <time>2017-06-20T10:13:36Z</time>
      </trkpt>
      <trkpt lat="45.9625" lon="4.77964">
        <ele>199</ele>
        <time>2017-06-20T10:13:37Z</time>
      </trkpt>
      <trkpt lat="45.96246" lon="4.77961">
        <ele>199</ele>
        <time>2017-06-20T10:13:38Z</time>
      </trkpt>
      <trkpt lat="45.96241" lon="4.77959">
        <ele>199</ele>
        <time>2017-06-20T10:13:39Z</time>
      </trkpt>
      <trkpt lat="45.96234" lon="4.77953">
        <ele>199</ele>
        <time>2017-06-20T10:13:41Z</time>
      </trkpt>
      <trkpt lat="45.96231" lon="4.77949">
        <ele>200</ele>
        <time>2017-06-20T10:13:42Z</time>
      </trkpt>
      <trkpt lat="45.96228" lon="4.77945">
        <ele>200</ele>
        <time>2017-06-20T10:13:43Z</time>
      </trkpt>
      <trkpt lat="45.96224" lon="4.77939">
        <ele>200</ele>
        <time>2017-06-20T10:13:44Z</time>
      </trkpt>
      <trkpt lat="45.9622" lon="4.77934">
        <ele>200</ele>
        <time>2017-06-20T10:13:45Z</time>
      </trkpt>
      <trkpt lat="45.96216" lon="4.77928">
        <ele>200</ele>
        <time>2017-06-20T10:13:46Z</time>
      </trkpt>
      <trkpt lat="45.96212" lon="4.77921">
        <ele>199</ele>
        <time>2017-06-20T10:13:47Z</time>
      </trkpt>
      <trkpt lat="45.96208" lon="4.77914">
        <ele>202</ele>
        <time>2017-06-20T10:13:48Z</time>
      </trkpt>
      <trkpt lat="45.96204" lon="4.77904">
        <ele>202</ele>
        <time>2017-06-20T10:13:49Z</time>
      </trkpt>
      <trkpt lat="45.96198" lon="4.77896">
        <ele>202</ele>
        <time>2017-06-20T10:13:50Z</time>
      </trkpt>
      <trkpt lat="45.96194" lon="4.77886">
        <ele>201</ele>
        <time>2017-06-20T10:13:51Z</time>
      </trkpt>
      <trkpt lat="45.96189" lon="4.77879">
        <ele>201</ele>
        <time>2017-06-20T10:13:52Z</time>
      </trkpt>
      <trkpt lat="45.96183" lon="4.77868">
        <ele>201</ele>
        <time>2017-06-20T10:13:53Z</time>
      </trkpt>
      <trkpt lat="45.96179" lon="4.77859">
        <ele>201</ele>
        <time>2017-06-20T10:13:54Z</time>
      </trkpt>
      <trkpt lat="45.96175" lon="4.77853">
        <ele>201</ele>
        <time>2017-06-20T10:13:55Z</time>
      </trkpt>
      <trkpt lat="45.96171" lon="4.77846">
        <ele>200</ele>
        <time>2017-06-20T10:13:56Z</time>
      </trkpt>
      <trkpt lat="45.96167" lon="4.77839">
        <ele>198</ele>
        <time>2017-06-20T10:13:57Z</time>
      </trkpt>
      <trkpt lat="45.96162" lon="4.77833">
        <ele>199</ele>
        <time>2017-06-20T10:13:58Z</time>
      </trkpt>
      <trkpt lat="45.96159" lon="4.77828">
        <ele>198</ele>
        <time>2017-06-20T10:13:59Z</time>
      </trkpt>
      <trkpt lat="45.96155" lon="4.77822">
        <ele>198</ele>
        <time>2017-06-20T10:14:00Z</time>
      </trkpt>
      <trkpt lat="45.96152" lon="4.77816">
        <ele>198</ele>
        <time>2017-06-20T10:14:01Z</time>
      </trkpt>
      <trkpt lat="45.96149" lon="4.7781">
        <ele>198</ele>
        <time>2017-06-20T10:14:02Z</time>
      </trkpt>
      <trkpt lat="45.96146" lon="4.77804">
        <ele>198</ele>
        <time>2017-06-20T10:14:03Z</time>
      </trkpt>
      <trkpt lat="45.96142" lon="4.77799">
        <ele>198</ele>
        <time>2017-06-20T10:14:04Z</time>
      </trkpt>
      <trkpt lat="45.96139" lon="4.77794">
        <ele>198</ele>
        <time>2017-06-20T10:14:05Z</time>
      </trkpt>
      <trkpt lat="45.96134" lon="4.77783">
        <ele>198</ele>
        <time>2017-06-20T10:14:07Z</time>
      </trkpt>
      <trkpt lat="45.96131" lon="4.77778">
        <ele>198</ele>
        <time>2017-06-20T10:14:08Z</time>
      </trkpt>
      <trkpt lat="45.96128" lon="4.77772">
        <ele>198</ele>
        <time>2017-06-20T10:14:09Z</time>
      </trkpt>
      <trkpt lat="45.96126" lon="4.77767">
        <ele>198</ele>
        <time>2017-06-20T10:14:10Z</time>
      </trkpt>
      <trkpt lat="45.96122" lon="4.7776">
        <ele>197</ele>
        <time>2017-06-20T10:14:11Z</time>
      </trkpt>
      <trkpt lat="45.96118" lon="4.77754">
        <ele>197</ele>
        <time>2017-06-20T10:14:12Z</time>
      </trkpt>
      <trkpt lat="45.96114" lon="4.77748">
        <ele>199</ele>
        <time>2017-06-20T10:14:13Z</time>
      </trkpt>
      <trkpt lat="45.96111" lon="4.77741">
        <ele>199</ele>
        <time>2017-06-20T10:14:14Z</time>
      </trkpt>
      <trkpt lat="45.96107" lon="4.77735">
        <ele>199</ele>
        <time>2017-06-20T10:14:15Z</time>
      </trkpt>
      <trkpt lat="45.96103" lon="4.77729">
        <ele>199</ele>
        <time>2017-06-20T10:14:16Z</time>
      </trkpt>
      <trkpt lat="45.96098" lon="4.77723">
        <ele>199</ele>
        <time>2017-06-20T10:14:17Z</time>
      </trkpt>
      <trkpt lat="45.96094" lon="4.77718">
        <ele>199</ele>
        <time>2017-06-20T10:14:18Z</time>
      </trkpt>
      <trkpt lat="45.9609" lon="4.77713">
        <ele>200</ele>
        <time>2017-06-20T10:14:19Z</time>
      </trkpt>
      <trkpt lat="45.96086" lon="4.77707">
        <ele>200</ele>
        <time>2017-06-20T10:14:20Z</time>
      </trkpt>
      <trkpt lat="45.96082" lon="4.77702">
        <ele>197</ele>
        <time>2017-06-20T10:14:21Z</time>
      </trkpt>
      <trkpt lat="45.96077" lon="4.77696">
        <ele>197</ele>
        <time>2017-06-20T10:14:22Z</time>
      </trkpt>
      <trkpt lat="45.96073" lon="4.7769">
        <ele>198</ele>
        <time>2017-06-20T10:14:23Z</time>
      </trkpt>
      <trkpt lat="45.96069" lon="4.77685">
        <ele>198</ele>
        <time>2017-06-20T10:14:24Z</time>
      </trkpt>
      <trkpt lat="45.96065" lon="4.77678">
        <ele>198</ele>
        <time>2017-06-20T10:14:25Z</time>
      </trkpt>
      <trkpt lat="45.96061" lon="4.77672">
        <ele>198</ele>
        <time>2017-06-20T10:14:26Z</time>
      </trkpt>
      <trkpt lat="45.96057" lon="4.77667">
        <ele>198</ele>
        <time>2017-06-20T10:14:27Z</time>
      </trkpt>
      <trkpt lat="45.96053" lon="4.77662">
        <ele>200</ele>
        <time>2017-06-20T10:14:28Z</time>
      </trkpt>
      <trkpt lat="45.96049" lon="4.77658">
        <ele>200</ele>
        <time>2017-06-20T10:14:29Z</time>
      </trkpt>
      <trkpt lat="45.96044" lon="4.77653">
        <ele>199</ele>
        <time>2017-06-20T10:14:30Z</time>
      </trkpt>
      <trkpt lat="45.9604" lon="4.77647">
        <ele>199</ele>
        <time>2017-06-20T10:14:31Z</time>
      </trkpt>
      <trkpt lat="45.96035" lon="4.77642">
        <ele>199</ele>
        <time>2017-06-20T10:14:32Z</time>
      </trkpt>
      <trkpt lat="45.96031" lon="4.77637">
        <ele>199</ele>
        <time>2017-06-20T10:14:33Z</time>
      </trkpt>
      <trkpt lat="45.96026" lon="4.77631">
        <ele>199</ele>
        <time>2017-06-20T10:14:34Z</time>
      </trkpt>
      <trkpt lat="45.96021" lon="4.77626">
        <ele>199</ele>
        <time>2017-06-20T10:14:35Z</time>
      </trkpt>
      <trkpt lat="45.96017" lon="4.77621">
        <ele>199</ele>
        <time>2017-06-20T10:14:36Z</time>
      </trkpt>
      <trkpt lat="45.96012" lon="4.77616">
        <ele>199</ele>
        <time>2017-06-20T10:14:37Z</time>
      </trkpt>
      <trkpt lat="45.96007" lon="4.77611">
        <ele>199</ele>
        <time>2017-06-20T10:14:38Z</time>
      </trkpt>
      <trkpt lat="45.96" lon="4.77604">
        <ele>198</ele>
        <time>2017-06-20T10:14:40Z</time>
      </trkpt>
      <trkpt lat="45.95999" lon="4.77601">
        <ele>195</ele>
        <time>2017-06-20T10:14:41Z</time>
      </trkpt>
      <trkpt lat="45.95995" lon="4.77594">
        <ele>196</ele>
        <time>2017-06-20T10:14:44Z</time>
      </trkpt>
      <trkpt lat="45.95993" lon="4.7759">
        <ele>196</ele>
        <time>2017-06-20T10:14:45Z</time>
      </trkpt>
      <trkpt lat="45.95988" lon="4.77581">
        <ele>196</ele>
        <time>2017-06-20T10:14:47Z</time>
      </trkpt>
      <trkpt lat="45.95986" lon="4.77576">
        <ele>196</ele>
        <time>2017-06-20T10:14:48Z</time>
      </trkpt>
      <trkpt lat="45.95983" lon="4.77565">
        <ele>196</ele>
        <time>2017-06-20T10:14:50Z</time>
      </trkpt>
      <trkpt lat="45.9598" lon="4.77558">
        <ele>196</ele>
        <time>2017-06-20T10:14:51Z</time>
      </trkpt>
      <trkpt lat="45.95976" lon="4.77548">
        <ele>195</ele>
        <time>2017-06-20T10:14:53Z</time>
      </trkpt>
      <trkpt lat="45.95974" lon="4.77544">
        <ele>195</ele>
        <time>2017-06-20T10:14:54Z</time>
      </trkpt>
      <trkpt lat="45.95972" lon="4.77538">
        <ele>195</ele>
        <time>2017-06-20T10:14:55Z</time>
      </trkpt>
      <trkpt lat="45.9597" lon="4.77531">
        <ele>195</ele>
        <time>2017-06-20T10:14:56Z</time>
      </trkpt>
      <trkpt lat="45.95968" lon="4.77525">
        <ele>195</ele>
        <time>2017-06-20T10:14:57Z</time>
      </trkpt>
      <trkpt lat="45.95965" lon="4.77518">
        <ele>195</ele>
        <time>2017-06-20T10:14:58Z</time>
      </trkpt>
      <trkpt lat="45.95962" lon="4.77512">
        <ele>195</ele>
        <time>2017-06-20T10:14:59Z</time>
      </trkpt>
      <trkpt lat="45.95959" lon="4.77506">
        <ele>195</ele>
        <time>2017-06-20T10:15:00Z</time>
      </trkpt>
      <trkpt lat="45.95956" lon="4.77499">
        <ele>196</ele>
        <time>2017-06-20T10:15:01Z</time>
      </trkpt>
      <trkpt lat="45.95953" lon="4.77492">
        <ele>196</ele>
        <time>2017-06-20T10:15:02Z</time>
      </trkpt>
      <trkpt lat="45.9595" lon="4.77484">
        <ele>195</ele>
        <time>2017-06-20T10:15:03Z</time>
      </trkpt>
      <trkpt lat="45.95947" lon="4.77476">
        <ele>195</ele>
        <time>2017-06-20T10:15:04Z</time>
      </trkpt>
      <trkpt lat="45.95944" lon="4.7747">
        <ele>195</ele>
        <time>2017-06-20T10:15:05Z</time>
      </trkpt>
      <trkpt lat="45.95942" lon="4.77463">
        <ele>195</ele>
        <time>2017-06-20T10:15:06Z</time>
      </trkpt>
      <trkpt lat="45.95939" lon="4.77456">
        <ele>195</ele>
        <time>2017-06-20T10:15:07Z</time>
      </trkpt>
      <trkpt lat="45.95936" lon="4.7745">
        <ele>195</ele>
        <time>2017-06-20T10:15:08Z</time>
      </trkpt>
      <trkpt lat="45.95934" lon="4.77443">
        <ele>195</ele>
        <time>2017-06-20T10:15:09Z</time>
      </trkpt>
      <trkpt lat="45.95931" lon="4.77436">
        <ele>195</ele>
        <time>2017-06-20T10:15:10Z</time>
      </trkpt>
      <trkpt lat="45.95928" lon="4.77428">
        <ele>195</ele>
        <time>2017-06-20T10:15:11Z</time>
      </trkpt>
      <trkpt lat="45.95926" lon="4.77418">
        <ele>195</ele>
        <time>2017-06-20T10:15:12Z</time>
      </trkpt>
      <trkpt lat="45.95924" lon="4.77409">
        <ele>195</ele>
        <time>2017-06-20T10:15:13Z</time>
      </trkpt>
      <trkpt lat="45.95921" lon="4.774">
        <ele>196</ele>
        <time>2017-06-20T10:15:14Z</time>
      </trkpt>
      <trkpt lat="45.95919" lon="4.77392">
        <ele>196</ele>
        <time>2017-06-20T10:15:15Z</time>
      </trkpt>
      <trkpt lat="45.95915" lon="4.77383">
        <ele>193</ele>
        <time>2017-06-20T10:15:16Z</time>
      </trkpt>
      <trkpt lat="45.95912" lon="4.77375">
        <ele>193</ele>
        <time>2017-06-20T10:15:17Z</time>
      </trkpt>
      <trkpt lat="45.9591" lon="4.77368">
        <ele>193</ele>
        <time>2017-06-20T10:15:18Z</time>
      </trkpt>
      <trkpt lat="45.95908" lon="4.77361">
        <ele>193</ele>
        <time>2017-06-20T10:15:19Z</time>
      </trkpt>
      <trkpt lat="45.95905" lon="4.77354">
        <ele>193</ele>
        <time>2017-06-20T10:15:20Z</time>
      </trkpt>
      <trkpt lat="45.95903" lon="4.77345">
        <ele>193</ele>
        <time>2017-06-20T10:15:21Z</time>
      </trkpt>
      <trkpt lat="45.95901" lon="4.77337">
        <ele>193</ele>
        <time>2017-06-20T10:15:22Z</time>
      </trkpt>
      <trkpt lat="45.95898" lon="4.77329">
        <ele>194</ele>
        <time>2017-06-20T10:15:23Z</time>
      </trkpt>
      <trkpt lat="45.95896" lon="4.7732">
        <ele>193</ele>
        <time>2017-06-20T10:15:24Z</time>
      </trkpt>
      <trkpt lat="45.95893" lon="4.77311">
        <ele>193</ele>
        <time>2017-06-20T10:15:25Z</time>
      </trkpt>
      <trkpt lat="45.9589" lon="4.77303">
        <ele>193</ele>
        <time>2017-06-20T10:15:26Z</time>
      </trkpt>
      <trkpt lat="45.95887" lon="4.77295">
        <ele>193</ele>
        <time>2017-06-20T10:15:27Z</time>
      </trkpt>
      <trkpt lat="45.95884" lon="4.77287">
        <ele>193</ele>
        <time>2017-06-20T10:15:28Z</time>
      </trkpt>
      <trkpt lat="45.95882" lon="4.7728">
        <ele>193</ele>
        <time>2017-06-20T10:15:29Z</time>
      </trkpt>
      <trkpt lat="45.9588" lon="4.77273">
        <ele>193</ele>
        <time>2017-06-20T10:15:30Z</time>
      </trkpt>
      <trkpt lat="45.95878" lon="4.77265">
        <ele>193</ele>
        <time>2017-06-20T10:15:31Z</time>
      </trkpt>
      <trkpt lat="45.95876" lon="4.77257">
        <ele>193</ele>
        <time>2017-06-20T10:15:32Z</time>
      </trkpt>
      <trkpt lat="45.95875" lon="4.77249">
        <ele>193</ele>
        <time>2017-06-20T10:15:33Z</time>
      </trkpt>
      <trkpt lat="45.95873" lon="4.77241">
        <ele>193</ele>
        <time>2017-06-20T10:15:34Z</time>
      </trkpt>
      <trkpt lat="45.95872" lon="4.77232">
        <ele>193</ele>
        <time>2017-06-20T10:15:35Z</time>
      </trkpt>
      <trkpt lat="45.95871" lon="4.77224">
        <ele>193</ele>
        <time>2017-06-20T10:15:36Z</time>
      </trkpt>
      <trkpt lat="45.95869" lon="4.77215">
        <ele>193</ele>
        <time>2017-06-20T10:15:37Z</time>
      </trkpt>
      <trkpt lat="45.95867" lon="4.77206">
        <ele>193</ele>
        <time>2017-06-20T10:15:38Z</time>
      </trkpt>
      <trkpt lat="45.95865" lon="4.77197">
        <ele>193</ele>
        <time>2017-06-20T10:15:39Z</time>
      </trkpt>
      <trkpt lat="45.95863" lon="4.77187">
        <ele>192</ele>
        <time>2017-06-20T10:15:40Z</time>
      </trkpt>
      <trkpt lat="45.9586" lon="4.77178">
        <ele>192</ele>
        <time>2017-06-20T10:15:41Z</time>
      </trkpt>
      <trkpt lat="45.95858" lon="4.77169">
        <ele>192</ele>
        <time>2017-06-20T10:15:42Z</time>
      </trkpt>
      <trkpt lat="45.95855" lon="4.7716">
        <ele>192</ele>
        <time>2017-06-20T10:15:43Z</time>
      </trkpt>
      <trkpt lat="45.95853" lon="4.77151">
        <ele>192</ele>
        <time>2017-06-20T10:15:44Z</time>
      </trkpt>
      <trkpt lat="45.95851" lon="4.77143">
        <ele>193</ele>
        <time>2017-06-20T10:15:45Z</time>
      </trkpt>
      <trkpt lat="45.95848" lon="4.77133">
        <ele>193</ele>
        <time>2017-06-20T10:15:46Z</time>
      </trkpt>
      <trkpt lat="45.95846" lon="4.77124">
        <ele>193</ele>
        <time>2017-06-20T10:15:47Z</time>
      </trkpt>
      <trkpt lat="45.95843" lon="4.77115">
        <ele>193</ele>
        <time>2017-06-20T10:15:48Z</time>
      </trkpt>
      <trkpt lat="45.9584" lon="4.77107">
        <ele>193</ele>
        <time>2017-06-20T10:15:49Z</time>
      </trkpt>
      <trkpt lat="45.95837" lon="4.77098">
        <ele>193</ele>
        <time>2017-06-20T10:15:50Z</time>
      </trkpt>
      <trkpt lat="45.95834" lon="4.7709">
        <ele>192</ele>
        <time>2017-06-20T10:15:51Z</time>
      </trkpt>
      <trkpt lat="45.9583" lon="4.77081">
        <ele>192</ele>
        <time>2017-06-20T10:15:52Z</time>
      </trkpt>
      <trkpt lat="45.95827" lon="4.77073">
        <ele>191</ele>
        <time>2017-06-20T10:15:53Z</time>
      </trkpt>
      <trkpt lat="45.95823" lon="4.77065">
        <ele>191</ele>
        <time>2017-06-20T10:15:54Z</time>
      </trkpt>
      <trkpt lat="45.9582" lon="4.77057">
        <ele>190</ele>
        <time>2017-06-20T10:15:55Z</time>
      </trkpt>
      <trkpt lat="45.95817" lon="4.77049">
        <ele>190</ele>
        <time>2017-06-20T10:15:56Z</time>
      </trkpt>
      <trkpt lat="45.95812" lon="4.77039">
        <ele>190</ele>
        <time>2017-06-20T10:15:57Z</time>
      </trkpt>
      <trkpt lat="45.9581" lon="4.77029">
        <ele>190</ele>
        <time>2017-06-20T10:15:58Z</time>
      </trkpt>
      <trkpt lat="45.95807" lon="4.77021">
        <ele>190</ele>
        <time>2017-06-20T10:15:59Z</time>
      </trkpt>
      <trkpt lat="45.95805" lon="4.77013">
        <ele>190</ele>
        <time>2017-06-20T10:16:00Z</time>
      </trkpt>
      <trkpt lat="45.95804" lon="4.77003">
        <ele>190</ele>
        <time>2017-06-20T10:16:01Z</time>
      </trkpt>
      <trkpt lat="45.95804" lon="4.76995">
        <ele>190</ele>
        <time>2017-06-20T10:16:02Z</time>
      </trkpt>
      <trkpt lat="45.95804" lon="4.76987">
        <ele>189</ele>
        <time>2017-06-20T10:16:03Z</time>
      </trkpt>
      <trkpt lat="45.95805" lon="4.76978">
        <ele>189</ele>
        <time>2017-06-20T10:16:04Z</time>
      </trkpt>
      <trkpt lat="45.95806" lon="4.7697">
        <ele>189</ele>
        <time>2017-06-20T10:16:05Z</time>
      </trkpt>
      <trkpt lat="45.95807" lon="4.76961">
        <ele>189</ele>
        <time>2017-06-20T10:16:06Z</time>
      </trkpt>
      <trkpt lat="45.95809" lon="4.76953">
        <ele>189</ele>
        <time>2017-06-20T10:16:07Z</time>
      </trkpt>
      <trkpt lat="45.9581" lon="4.76945">
        <ele>189</ele>
        <time>2017-06-20T10:16:08Z</time>
      </trkpt>
      <trkpt lat="45.95811" lon="4.76938">
        <ele>189</ele>
        <time>2017-06-20T10:16:09Z</time>
      </trkpt>
      <trkpt lat="45.95812" lon="4.7693">
        <ele>189</ele>
        <time>2017-06-20T10:16:10Z</time>
      </trkpt>
      <trkpt lat="45.95814" lon="4.76923">
        <ele>189</ele>
        <time>2017-06-20T10:16:11Z</time>
      </trkpt>
      <trkpt lat="45.95815" lon="4.76915">
        <ele>189</ele>
        <time>2017-06-20T10:16:12Z</time>
      </trkpt>
      <trkpt lat="45.95816" lon="4.76907">
        <ele>189</ele>
        <time>2017-06-20T10:16:13Z</time>
      </trkpt>
      <trkpt lat="45.95818" lon="4.769">
        <ele>189</ele>
        <time>2017-06-20T10:16:14Z</time>
      </trkpt>
      <trkpt lat="45.9582" lon="4.76892">
        <ele>189</ele>
        <time>2017-06-20T10:16:15Z</time>
      </trkpt>
      <trkpt lat="45.95821" lon="4.76885">
        <ele>189</ele>
        <time>2017-06-20T10:16:16Z</time>
      </trkpt>
      <trkpt lat="45.95823" lon="4.76878">
        <ele>189</ele>
        <time>2017-06-20T10:16:17Z</time>
      </trkpt>
      <trkpt lat="45.95824" lon="4.76871">
        <ele>189</ele>
        <time>2017-06-20T10:16:18Z</time>
      </trkpt>
      <trkpt lat="45.95826" lon="4.76865">
        <ele>189</ele>
        <time>2017-06-20T10:16:19Z</time>
      </trkpt>
      <trkpt lat="45.95827" lon="4.76858">
        <ele>189</ele>
        <time>2017-06-20T10:16:20Z</time>
      </trkpt>
      <trkpt lat="45.95828" lon="4.76851">
        <ele>190</ele>
        <time>2017-06-20T10:16:21Z</time>
      </trkpt>
      <trkpt lat="45.9583" lon="4.76845">
        <ele>190</ele>
        <time>2017-06-20T10:16:22Z</time>
      </trkpt>
      <trkpt lat="45.95831" lon="4.76838">
        <ele>190</ele>
        <time>2017-06-20T10:16:23Z</time>
      </trkpt>
      <trkpt lat="45.95832" lon="4.76832">
        <ele>190</ele>
        <time>2017-06-20T10:16:24Z</time>
      </trkpt>
      <trkpt lat="45.95833" lon="4.7682">
        <ele>190</ele>
        <time>2017-06-20T10:16:26Z</time>
      </trkpt>
      <trkpt lat="45.95835" lon="4.76814">
        <ele>190</ele>
        <time>2017-06-20T10:16:27Z</time>
      </trkpt>
      <trkpt lat="45.95835" lon="4.76805">
        <ele>191</ele>
        <time>2017-06-20T10:16:29Z</time>
      </trkpt>
      <trkpt lat="45.95835" lon="4.76799">
        <ele>191</ele>
        <time>2017-06-20T10:16:30Z</time>
      </trkpt>
      <trkpt lat="45.95834" lon="4.76792">
        <ele>191</ele>
        <time>2017-06-20T10:16:31Z</time>
      </trkpt>
      <trkpt lat="45.95833" lon="4.76785">
        <ele>190</ele>
        <time>2017-06-20T10:16:32Z</time>
      </trkpt>
      <trkpt lat="45.95831" lon="4.76778">
        <ele>190</ele>
        <time>2017-06-20T10:16:33Z</time>
      </trkpt>
      <trkpt lat="45.95829" lon="4.7677">
        <ele>190</ele>
        <time>2017-06-20T10:16:34Z</time>
      </trkpt>
      <trkpt lat="45.95827" lon="4.76762">
        <ele>190</ele>
        <time>2017-06-20T10:16:35Z</time>
      </trkpt>
      <trkpt lat="45.95826" lon="4.76753">
        <ele>191</ele>
        <time>2017-06-20T10:16:36Z</time>
      </trkpt>
      <trkpt lat="45.95824" lon="4.76744">
        <ele>190</ele>
        <time>2017-06-20T10:16:37Z</time>
      </trkpt>
      <trkpt lat="45.95823" lon="4.76736">
        <ele>190</ele>
        <time>2017-06-20T10:16:38Z</time>
      </trkpt>
      <trkpt lat="45.95822" lon="4.76728">
        <ele>190</ele>
        <time>2017-06-20T10:16:39Z</time>
      </trkpt>
      <trkpt lat="45.95821" lon="4.76719">
        <ele>189</ele>
        <time>2017-06-20T10:16:40Z</time>
      </trkpt>
      <trkpt lat="45.9582" lon="4.76711">
        <ele>189</ele>
        <time>2017-06-20T10:16:41Z</time>
      </trkpt>
      <trkpt lat="45.95819" lon="4.76703">
        <ele>189</ele>
        <time>2017-06-20T10:16:42Z</time>
      </trkpt>
      <trkpt lat="45.95817" lon="4.76694">
        <ele>189</ele>
        <time>2017-06-20T10:16:43Z</time>
      </trkpt>
      <trkpt lat="45.95816" lon="4.76686">
        <ele>189</ele>
        <time>2017-06-20T10:16:44Z</time>
      </trkpt>
      <trkpt lat="45.95815" lon="4.76678">
        <ele>189</ele>
        <time>2017-06-20T10:16:45Z</time>
      </trkpt>
      <trkpt lat="45.95814" lon="4.7667">
        <ele>189</ele>
        <time>2017-06-20T10:16:46Z</time>
      </trkpt>
      <trkpt lat="45.95813" lon="4.76662">
        <ele>188</ele>
        <time>2017-06-20T10:16:47Z</time>
      </trkpt>
      <trkpt lat="45.95812" lon="4.76653">
        <ele>188</ele>
        <time>2017-06-20T10:16:48Z</time>
      </trkpt>
      <trkpt lat="45.95811" lon="4.76645">
        <ele>188</ele>
        <time>2017-06-20T10:16:49Z</time>
      </trkpt>
      <trkpt lat="45.9581" lon="4.76637">
        <ele>188</ele>
        <time>2017-06-20T10:16:50Z</time>
      </trkpt>
      <trkpt lat="45.95809" lon="4.76628">
        <ele>188</ele>
        <time>2017-06-20T10:16:51Z</time>
      </trkpt>
      <trkpt lat="45.95808" lon="4.76621">
        <ele>188</ele>
        <time>2017-06-20T10:16:52Z</time>
      </trkpt>
      <trkpt lat="45.95807" lon="4.76613">
        <ele>188</ele>
        <time>2017-06-20T10:16:53Z</time>
      </trkpt>
      <trkpt lat="45.95806" lon="4.76605">
        <ele>188</ele>
        <time>2017-06-20T10:16:54Z</time>
      </trkpt>
      <trkpt lat="45.95805" lon="4.76597">
        <ele>188</ele>
        <time>2017-06-20T10:16:55Z</time>
      </trkpt>
      <trkpt lat="45.95804" lon="4.7659">
        <ele>187</ele>
        <time>2017-06-20T10:16:56Z</time>
      </trkpt>
      <trkpt lat="45.95802" lon="4.76583">
        <ele>187</ele>
        <time>2017-06-20T10:16:57Z</time>
      </trkpt>
      <trkpt lat="45.95801" lon="4.76576">
        <ele>187</ele>
        <time>2017-06-20T10:16:58Z</time>
      </trkpt>
      <trkpt lat="45.958" lon="4.76569">
        <ele>187</ele>
        <time>2017-06-20T10:16:59Z</time>
      </trkpt>
      <trkpt lat="45.95799" lon="4.76562">
        <ele>187</ele>
        <time>2017-06-20T10:17:00Z</time>
      </trkpt>
      <trkpt lat="45.95798" lon="4.76553">
        <ele>187</ele>
        <time>2017-06-20T10:17:01Z</time>
      </trkpt>
      <trkpt lat="45.95797" lon="4.76545">
        <ele>187</ele>
        <time>2017-06-20T10:17:02Z</time>
      </trkpt>
      <trkpt lat="45.95796" lon="4.76535">
        <ele>187</ele>
        <time>2017-06-20T10:17:03Z</time>
      </trkpt>
      <trkpt lat="45.95795" lon="4.76525">
        <ele>187</ele>
        <time>2017-06-20T10:17:04Z</time>
      </trkpt>
      <trkpt lat="45.95793" lon="4.76516">
        <ele>187</ele>
        <time>2017-06-20T10:17:05Z</time>
      </trkpt>
      <trkpt lat="45.95792" lon="4.76508">
        <ele>187</ele>
        <time>2017-06-20T10:17:06Z</time>
      </trkpt>
      <trkpt lat="45.95791" lon="4.765">
        <ele>187</ele>
        <time>2017-06-20T10:17:07Z</time>
      </trkpt>
      <trkpt lat="45.9579" lon="4.76493">
        <ele>186</ele>
        <time>2017-06-20T10:17:08Z</time>
      </trkpt>
      <trkpt lat="45.95789" lon="4.76485">
        <ele>186</ele>
        <time>2017-06-20T10:17:09Z</time>
      </trkpt>
      <trkpt lat="45.95788" lon="4.76477">
        <ele>186</ele>
        <time>2017-06-20T10:17:10Z</time>
      </trkpt>
      <trkpt lat="45.95786" lon="4.7647">
        <ele>186</ele>
        <time>2017-06-20T10:17:11Z</time>
      </trkpt>
      <trkpt lat="45.95785" lon="4.76463">
        <ele>186</ele>
        <time>2017-06-20T10:17:12Z</time>
      </trkpt>
      <trkpt lat="45.95784" lon="4.76456">
        <ele>186</ele>
        <time>2017-06-20T10:17:13Z</time>
      </trkpt>
      <trkpt lat="45.95783" lon="4.76449">
        <ele>186</ele>
        <time>2017-06-20T10:17:14Z</time>
      </trkpt>
      <trkpt lat="45.95782" lon="4.76441">
        <ele>186</ele>
        <time>2017-06-20T10:17:15Z</time>
      </trkpt>
      <trkpt lat="45.95782" lon="4.76434">
        <ele>186</ele>
        <time>2017-06-20T10:17:16Z</time>
      </trkpt>
      <trkpt lat="45.95781" lon="4.76426">
        <ele>186</ele>
        <time>2017-06-20T10:17:17Z</time>
      </trkpt>
      <trkpt lat="45.9578" lon="4.76417">
        <ele>186</ele>
        <time>2017-06-20T10:17:18Z</time>
      </trkpt>
      <trkpt lat="45.95779" lon="4.76409">
        <ele>186</ele>
        <time>2017-06-20T10:17:19Z</time>
      </trkpt>
      <trkpt lat="45.95779" lon="4.76401">
        <ele>186</ele>
        <time>2017-06-20T10:17:20Z</time>
      </trkpt>
      <trkpt lat="45.95778" lon="4.76392">
        <ele>186</ele>
        <time>2017-06-20T10:17:21Z</time>
      </trkpt>
      <trkpt lat="45.95778" lon="4.76384">
        <ele>186</ele>
        <time>2017-06-20T10:17:22Z</time>
      </trkpt>
      <trkpt lat="45.95778" lon="4.76377">
        <ele>186</ele>
        <time>2017-06-20T10:17:23Z</time>
      </trkpt>
      <trkpt lat="45.95777" lon="4.7637">
        <ele>186</ele>
        <time>2017-06-20T10:17:24Z</time>
      </trkpt>
      <trkpt lat="45.95777" lon="4.76362">
        <ele>186</ele>
        <time>2017-06-20T10:17:25Z</time>
      </trkpt>
      <trkpt lat="45.95776" lon="4.76354">
        <ele>186</ele>
        <time>2017-06-20T10:17:26Z</time>
      </trkpt>
      <trkpt lat="45.95775" lon="4.76346">
        <ele>186</ele>
        <time>2017-06-20T10:17:27Z</time>
      </trkpt>
      <trkpt lat="45.95775" lon="4.76338">
        <ele>186</ele>
        <time>2017-06-20T10:17:28Z</time>
      </trkpt>
      <trkpt lat="45.95774" lon="4.7633">
        <ele>185</ele>
        <time>2017-06-20T10:17:29Z</time>
      </trkpt>
      <trkpt lat="45.95774" lon="4.7632">
        <ele>185</ele>
        <time>2017-06-20T10:17:30Z</time>
      </trkpt>
      <trkpt lat="45.95773" lon="4.76311">
        <ele>186</ele>
        <time>2017-06-20T10:17:31Z</time>
      </trkpt>
      <trkpt lat="45.95773" lon="4.76303">
        <ele>186</ele>
        <time>2017-06-20T10:17:32Z</time>
      </trkpt>
      <trkpt lat="45.95773" lon="4.76294">
        <ele>186</ele>
        <time>2017-06-20T10:17:33Z</time>
      </trkpt>
      <trkpt lat="45.95773" lon="4.76286">
        <ele>186</ele>
        <time>2017-06-20T10:17:34Z</time>
      </trkpt>
      <trkpt lat="45.95772" lon="4.76278">
        <ele>186</ele>
        <time>2017-06-20T10:17:35Z</time>
      </trkpt>
      <trkpt lat="45.95771" lon="4.76271">
        <ele>186</ele>
        <time>2017-06-20T10:17:36Z</time>
      </trkpt>
      <trkpt lat="45.95771" lon="4.76263">
        <ele>186</ele>
        <time>2017-06-20T10:17:37Z</time>
      </trkpt>
      <trkpt lat="45.95771" lon="4.76255">
        <ele>185</ele>
        <time>2017-06-20T10:17:38Z</time>
      </trkpt>
      <trkpt lat="45.9577" lon="4.76247">
        <ele>186</ele>
        <time>2017-06-20T10:17:39Z</time>
      </trkpt>
      <trkpt lat="45.9577" lon="4.76238">
        <ele>186</ele>
        <time>2017-06-20T10:17:40Z</time>
      </trkpt>
      <trkpt lat="45.95769" lon="4.76229">
        <ele>186</ele>
        <time>2017-06-20T10:17:41Z</time>
      </trkpt>
      <trkpt lat="45.95769" lon="4.7622">
        <ele>186</ele>
        <time>2017-06-20T10:17:42Z</time>
      </trkpt>
      <trkpt lat="45.95768" lon="4.76211">
        <ele>186</ele>
        <time>2017-06-20T10:17:43Z</time>
      </trkpt>
      <trkpt lat="45.95768" lon="4.76201">
        <ele>186</ele>
        <time>2017-06-20T10:17:44Z</time>
      </trkpt>
      <trkpt lat="45.95767" lon="4.76193">
        <ele>186</ele>
        <time>2017-06-20T10:17:45Z</time>
      </trkpt>
      <trkpt lat="45.95767" lon="4.76184">
        <ele>186</ele>
        <time>2017-06-20T10:17:46Z</time>
      </trkpt>
      <trkpt lat="45.95766" lon="4.76176">
        <ele>186</ele>
        <time>2017-06-20T10:17:47Z</time>
      </trkpt>
      <trkpt lat="45.95766" lon="4.76167">
        <ele>185</ele>
        <time>2017-06-20T10:17:48Z</time>
      </trkpt>
      <trkpt lat="45.95765" lon="4.76159">
        <ele>186</ele>
        <time>2017-06-20T10:17:49Z</time>
      </trkpt>
      <trkpt lat="45.95765" lon="4.7615">
        <ele>186</ele>
        <time>2017-06-20T10:17:50Z</time>
      </trkpt>
      <trkpt lat="45.95764" lon="4.76141">
        <ele>186</ele>
        <time>2017-06-20T10:17:51Z</time>
      </trkpt>
      <trkpt lat="45.95763" lon="4.76132">
        <ele>186</ele>
        <time>2017-06-20T10:17:52Z</time>
      </trkpt>
      <trkpt lat="45.95762" lon="4.76124">
        <ele>186</ele>
        <time>2017-06-20T10:17:53Z</time>
      </trkpt>
      <trkpt lat="45.95761" lon="4.76115">
        <ele>186</ele>
        <time>2017-06-20T10:17:54Z</time>
      </trkpt>
      <trkpt lat="45.95759" lon="4.76107">
        <ele>186</ele>
        <time>2017-06-20T10:17:55Z</time>
      </trkpt>
      <trkpt lat="45.95758" lon="4.761">
        <ele>186</ele>
        <time>2017-06-20T10:17:56Z</time>
      </trkpt>
      <trkpt lat="45.95756" lon="4.76092">
        <ele>186</ele>
        <time>2017-06-20T10:17:57Z</time>
      </trkpt>
      <trkpt lat="45.95753" lon="4.76085">
        <ele>185</ele>
        <time>2017-06-20T10:17:58Z</time>
      </trkpt>
      <trkpt lat="45.95751" lon="4.76079">
        <ele>185</ele>
        <time>2017-06-20T10:17:59Z</time>
      </trkpt>
      <trkpt lat="45.95748" lon="4.76072">
        <ele>185</ele>
        <time>2017-06-20T10:18:00Z</time>
      </trkpt>
      <trkpt lat="45.95744" lon="4.76065">
        <ele>185</ele>
        <time>2017-06-20T10:18:01Z</time>
      </trkpt>
      <trkpt lat="45.95741" lon="4.76058">
        <ele>184</ele>
        <time>2017-06-20T10:18:02Z</time>
      </trkpt>
      <trkpt lat="45.95737" lon="4.76051">
        <ele>184</ele>
        <time>2017-06-20T10:18:03Z</time>
      </trkpt>
      <trkpt lat="45.95735" lon="4.76044">
        <ele>184</ele>
        <time>2017-06-20T10:18:04Z</time>
      </trkpt>
      <trkpt lat="45.95732" lon="4.76037">
        <ele>184</ele>
        <time>2017-06-20T10:18:05Z</time>
      </trkpt>
      <trkpt lat="45.95729" lon="4.7603">
        <ele>184</ele>
        <time>2017-06-20T10:18:06Z</time>
      </trkpt>
      <trkpt lat="45.95726" lon="4.76023">
        <ele>184</ele>
        <time>2017-06-20T10:18:07Z</time>
      </trkpt>
      <trkpt lat="45.95723" lon="4.76017">
        <ele>184</ele>
        <time>2017-06-20T10:18:08Z</time>
      </trkpt>
      <trkpt lat="45.9572" lon="4.76011">
        <ele>184</ele>
        <time>2017-06-20T10:18:09Z</time>
      </trkpt>
      <trkpt lat="45.95717" lon="4.76004">
        <ele>184</ele>
        <time>2017-06-20T10:18:10Z</time>
      </trkpt>
      <trkpt lat="45.95713" lon="4.75997">
        <ele>185</ele>
        <time>2017-06-20T10:18:11Z</time>
      </trkpt>
      <trkpt lat="45.9571" lon="4.7599">
        <ele>185</ele>
        <time>2017-06-20T10:18:12Z</time>
      </trkpt>
      <trkpt lat="45.95707" lon="4.75982">
        <ele>185</ele>
        <time>2017-06-20T10:18:13Z</time>
      </trkpt>
      <trkpt lat="45.95703" lon="4.75975">
        <ele>185</ele>
        <time>2017-06-20T10:18:14Z</time>
      </trkpt>
      <trkpt lat="45.95699" lon="4.75967">
        <ele>185</ele>
        <time>2017-06-20T10:18:15Z</time>
      </trkpt>
      <trkpt lat="45.95696" lon="4.75959">
        <ele>185</ele>
        <time>2017-06-20T10:18:16Z</time>
      </trkpt>
      <trkpt lat="45.95692" lon="4.75952">
        <ele>185</ele>
        <time>2017-06-20T10:18:17Z</time>
      </trkpt>
      <trkpt lat="45.95689" lon="4.75944">
        <ele>185</ele>
        <time>2017-06-20T10:18:18Z</time>
      </trkpt>
      <trkpt lat="45.95686" lon="4.75937">
        <ele>185</ele>
        <time>2017-06-20T10:18:19Z</time>
      </trkpt>
      <trkpt lat="45.95683" lon="4.7593">
        <ele>185</ele>
        <time>2017-06-20T10:18:20Z</time>
      </trkpt>
      <trkpt lat="45.9568" lon="4.75923">
        <ele>185</ele>
        <time>2017-06-20T10:18:21Z</time>
      </trkpt>
      <trkpt lat="45.95677" lon="4.75916">
        <ele>185</ele>
        <time>2017-06-20T10:18:22Z</time>
      </trkpt>
      <trkpt lat="45.95674" lon="4.75909">
        <ele>185</ele>
        <time>2017-06-20T10:18:23Z</time>
      </trkpt>
      <trkpt lat="45.95672" lon="4.75902">
        <ele>185</ele>
        <time>2017-06-20T10:18:24Z</time>
      </trkpt>
      <trkpt lat="45.95669" lon="4.75895">
        <ele>186</ele>
        <time>2017-06-20T10:18:25Z</time>
      </trkpt>
      <trkpt lat="45.95667" lon="4.75889">
        <ele>184</ele>
        <time>2017-06-20T10:18:26Z</time>
      </trkpt>
      <trkpt lat="45.95665" lon="4.75882">
        <ele>184</ele>
        <time>2017-06-20T10:18:27Z</time>
      </trkpt>
      <trkpt lat="45.95663" lon="4.75876">
        <ele>184</ele>
        <time>2017-06-20T10:18:28Z</time>
      </trkpt>
      <trkpt lat="45.95661" lon="4.7587">
        <ele>184</ele>
        <time>2017-06-20T10:18:29Z</time>
      </trkpt>
      <trkpt lat="45.9566" lon="4.75864">
        <ele>184</ele>
        <time>2017-06-20T10:18:30Z</time>
      </trkpt>
      <trkpt lat="45.95658" lon="4.75857">
        <ele>184</ele>
        <time>2017-06-20T10:18:31Z</time>
      </trkpt>
      <trkpt lat="45.95656" lon="4.75851">
        <ele>185</ele>
        <time>2017-06-20T10:18:32Z</time>
      </trkpt>
      <trkpt lat="45.95655" lon="4.75843">
        <ele>185</ele>
        <time>2017-06-20T10:18:33Z</time>
      </trkpt>
      <trkpt lat="45.95653" lon="4.75836">
        <ele>185</ele>
        <time>2017-06-20T10:18:34Z</time>
      </trkpt>
      <trkpt lat="45.95651" lon="4.75829">
        <ele>185</ele>
        <time>2017-06-20T10:18:35Z</time>
      </trkpt>
      <trkpt lat="45.95649" lon="4.75822">
        <ele>185</ele>
        <time>2017-06-20T10:18:36Z</time>
      </trkpt>
      <trkpt lat="45.95647" lon="4.75815">
        <ele>185</ele>
        <time>2017-06-20T10:18:37Z</time>
      </trkpt>
      <trkpt lat="45.95646" lon="4.75809">
        <ele>185</ele>
        <time>2017-06-20T10:18:38Z</time>
      </trkpt>
      <trkpt lat="45.95645" lon="4.75797">
        <ele>185</ele>
        <time>2017-06-20T10:18:40Z</time>
      </trkpt>
      <trkpt lat="45.95644" lon="4.7579">
        <ele>185</ele>
        <time>2017-06-20T10:18:41Z</time>
      </trkpt>
      <trkpt lat="45.95643" lon="4.75779">
        <ele>186</ele>
        <time>2017-06-20T10:18:43Z</time>
      </trkpt>
      <trkpt lat="45.95642" lon="4.75773">
        <ele>186</ele>
        <time>2017-06-20T10:18:44Z</time>
      </trkpt>
      <trkpt lat="45.9564" lon="4.75761">
        <ele>186</ele>
        <time>2017-06-20T10:18:46Z</time>
      </trkpt>
      <trkpt lat="45.95639" lon="4.75755">
        <ele>186</ele>
        <time>2017-06-20T10:18:47Z</time>
      </trkpt>
      <trkpt lat="45.95638" lon="4.75743">
        <ele>187</ele>
        <time>2017-06-20T10:18:49Z</time>
      </trkpt>
      <trkpt lat="45.95637" lon="4.75736">
        <ele>187</ele>
        <time>2017-06-20T10:18:50Z</time>
      </trkpt>
      <trkpt lat="45.95636" lon="4.7573">
        <ele>187</ele>
        <time>2017-06-20T10:18:51Z</time>
      </trkpt>
      <trkpt lat="45.95635" lon="4.75723">
        <ele>187</ele>
        <time>2017-06-20T10:18:52Z</time>
      </trkpt>
      <trkpt lat="45.95634" lon="4.75717">
        <ele>187</ele>
        <time>2017-06-20T10:18:53Z</time>
      </trkpt>
      <trkpt lat="45.95633" lon="4.75709">
        <ele>187</ele>
        <time>2017-06-20T10:18:54Z</time>
      </trkpt>
      <trkpt lat="45.95632" lon="4.75702">
        <ele>187</ele>
        <time>2017-06-20T10:18:55Z</time>
      </trkpt>
      <trkpt lat="45.95631" lon="4.75695">
        <ele>187</ele>
        <time>2017-06-20T10:18:56Z</time>
      </trkpt>
      <trkpt lat="45.9563" lon="4.75687">
        <ele>187</ele>
        <time>2017-06-20T10:18:57Z</time>
      </trkpt>
      <trkpt lat="45.95629" lon="4.75679">
        <ele>187</ele>
        <time>2017-06-20T10:18:58Z</time>
      </trkpt>
      <trkpt lat="45.95627" lon="4.75671">
        <ele>187</ele>
        <time>2017-06-20T10:18:59Z</time>
      </trkpt>
      <trkpt lat="45.95626" lon="4.75663">
        <ele>188</ele>
        <time>2017-06-20T10:19:00Z</time>
      </trkpt>
      <trkpt lat="45.95624" lon="4.75655">
        <ele>188</ele>
        <time>2017-06-20T10:19:01Z</time>
      </trkpt>
      <trkpt lat="45.95622" lon="4.75647">
        <ele>188</ele>
        <time>2017-06-20T10:19:02Z</time>
      </trkpt>
      <trkpt lat="45.9562" lon="4.7564">
        <ele>188</ele>
        <time>2017-06-20T10:19:03Z</time>
      </trkpt>
      <trkpt lat="45.95617" lon="4.75633">
        <ele>188</ele>
        <time>2017-06-20T10:19:04Z</time>
      </trkpt>
      <trkpt lat="45.95615" lon="4.75626">
        <ele>188</ele>
        <time>2017-06-20T10:19:05Z</time>
      </trkpt>
      <trkpt lat="45.95613" lon="4.75619">
        <ele>188</ele>
        <time>2017-06-20T10:19:06Z</time>
      </trkpt>
      <trkpt lat="45.9561" lon="4.75612">
        <ele>188</ele>
        <time>2017-06-20T10:19:07Z</time>
      </trkpt>
      <trkpt lat="45.95608" lon="4.75605">
        <ele>188</ele>
        <time>2017-06-20T10:19:08Z</time>
      </trkpt>
      <trkpt lat="45.95605" lon="4.75598">
        <ele>187</ele>
        <time>2017-06-20T10:19:09Z</time>
      </trkpt>
      <trkpt lat="45.95602" lon="4.75591">
        <ele>187</ele>
        <time>2017-06-20T10:19:10Z</time>
      </trkpt>
      <trkpt lat="45.95599" lon="4.75585">
        <ele>187</ele>
        <time>2017-06-20T10:19:11Z</time>
      </trkpt>
      <trkpt lat="45.95597" lon="4.75579">
        <ele>187</ele>
        <time>2017-06-20T10:19:12Z</time>
      </trkpt>
      <trkpt lat="45.95594" lon="4.75573">
        <ele>188</ele>
        <time>2017-06-20T10:19:13Z</time>
      </trkpt>
      <trkpt lat="45.9559" lon="4.75567">
        <ele>188</ele>
        <time>2017-06-20T10:19:14Z</time>
      </trkpt>
      <trkpt lat="45.95586" lon="4.75562">
        <ele>188</ele>
        <time>2017-06-20T10:19:15Z</time>
      </trkpt>
      <trkpt lat="45.95582" lon="4.75556">
        <ele>186</ele>
        <time>2017-06-20T10:19:16Z</time>
      </trkpt>
      <trkpt lat="45.95578" lon="4.75551">
        <ele>186</ele>
        <time>2017-06-20T10:19:17Z</time>
      </trkpt>
      <trkpt lat="45.95574" lon="4.75546">
        <ele>186</ele>
        <time>2017-06-20T10:19:18Z</time>
      </trkpt>
      <trkpt lat="45.9557" lon="4.75541">
        <ele>186</ele>
        <time>2017-06-20T10:19:19Z</time>
      </trkpt>
      <trkpt lat="45.95566" lon="4.75536">
        <ele>186</ele>
        <time>2017-06-20T10:19:20Z</time>
      </trkpt>
      <trkpt lat="45.95562" lon="4.75531">
        <ele>186</ele>
        <time>2017-06-20T10:19:21Z</time>
      </trkpt>
      <trkpt lat="45.95557" lon="4.75526">
        <ele>186</ele>
        <time>2017-06-20T10:19:22Z</time>
      </trkpt>
      <trkpt lat="45.95552" lon="4.7552">
        <ele>186</ele>
        <time>2017-06-20T10:19:23Z</time>
      </trkpt>
      <trkpt lat="45.95548" lon="4.75514">
        <ele>186</ele>
        <time>2017-06-20T10:19:24Z</time>
      </trkpt>
      <trkpt lat="45.95543" lon="4.75508">
        <ele>186</ele>
        <time>2017-06-20T10:19:25Z</time>
      </trkpt>
      <trkpt lat="45.95541" lon="4.75499">
        <ele>187</ele>
        <time>2017-06-20T10:19:26Z</time>
      </trkpt>
      <trkpt lat="45.9554" lon="4.75491">
        <ele>187</ele>
        <time>2017-06-20T10:19:27Z</time>
      </trkpt>
      <trkpt lat="45.95539" lon="4.75483">
        <ele>187</ele>
        <time>2017-06-20T10:19:28Z</time>
      </trkpt>
      <trkpt lat="45.95539" lon="4.75476">
        <ele>187</ele>
        <time>2017-06-20T10:19:29Z</time>
      </trkpt>
      <trkpt lat="45.95537" lon="4.75469">
        <ele>187</ele>
        <time>2017-06-20T10:19:30Z</time>
      </trkpt>
      <trkpt lat="45.95535" lon="4.75462">
        <ele>187</ele>
        <time>2017-06-20T10:19:31Z</time>
      </trkpt>
      <trkpt lat="45.95531" lon="4.75456">
        <ele>187</ele>
        <time>2017-06-20T10:19:32Z</time>
      </trkpt>
      <trkpt lat="45.95527" lon="4.7545">
        <ele>187</ele>
        <time>2017-06-20T10:19:33Z</time>
      </trkpt>
      <trkpt lat="45.95523" lon="4.75444">
        <ele>187</ele>
        <time>2017-06-20T10:19:34Z</time>
      </trkpt>
      <trkpt lat="45.95519" lon="4.75438">
        <ele>187</ele>
        <time>2017-06-20T10:19:35Z</time>
      </trkpt>
      <trkpt lat="45.95517" lon="4.75431">
        <ele>187</ele>
        <time>2017-06-20T10:19:36Z</time>
      </trkpt>
      <trkpt lat="45.95515" lon="4.75424">
        <ele>186</ele>
        <time>2017-06-20T10:19:37Z</time>
      </trkpt>
      <trkpt lat="45.95513" lon="4.75416">
        <ele>187</ele>
        <time>2017-06-20T10:19:38Z</time>
      </trkpt>
      <trkpt lat="45.95511" lon="4.7541">
        <ele>187</ele>
        <time>2017-06-20T10:19:39Z</time>
      </trkpt>
      <trkpt lat="45.95508" lon="4.75403">
        <ele>187</ele>
        <time>2017-06-20T10:19:40Z</time>
      </trkpt>
      <trkpt lat="45.95505" lon="4.75397">
        <ele>188</ele>
        <time>2017-06-20T10:19:41Z</time>
      </trkpt>
      <trkpt lat="45.95503" lon="4.7539">
        <ele>188</ele>
        <time>2017-06-20T10:19:42Z</time>
      </trkpt>
      <trkpt lat="45.95499" lon="4.75384">
        <ele>185</ele>
        <time>2017-06-20T10:19:43Z</time>
      </trkpt>
      <trkpt lat="45.95496" lon="4.75378">
        <ele>185</ele>
        <time>2017-06-20T10:19:44Z</time>
      </trkpt>
      <trkpt lat="45.95493" lon="4.75372">
        <ele>185</ele>
        <time>2017-06-20T10:19:45Z</time>
      </trkpt>
      <trkpt lat="45.9549" lon="4.75366">
        <ele>186</ele>
        <time>2017-06-20T10:19:46Z</time>
      </trkpt>
      <trkpt lat="45.95487" lon="4.7536">
        <ele>186</ele>
        <time>2017-06-20T10:19:47Z</time>
      </trkpt>
      <trkpt lat="45.95483" lon="4.75355">
        <ele>186</ele>
        <time>2017-06-20T10:19:48Z</time>
      </trkpt>
      <trkpt lat="45.95481" lon="4.75349">
        <ele>186</ele>
        <time>2017-06-20T10:19:49Z</time>
      </trkpt>
      <trkpt lat="45.95478" lon="4.75344">
        <ele>186</ele>
        <time>2017-06-20T10:19:50Z</time>
      </trkpt>
      <trkpt lat="45.95473" lon="4.75334">
        <ele>186</ele>
        <time>2017-06-20T10:19:52Z</time>
      </trkpt>
      <trkpt lat="45.95471" lon="4.7533">
        <ele>188</ele>
        <time>2017-06-20T10:19:53Z</time>
      </trkpt>
      <trkpt lat="45.95466" lon="4.75322">
        <ele>188</ele>
        <time>2017-06-20T10:19:55Z</time>
      </trkpt>
      <trkpt lat="45.95463" lon="4.75318">
        <ele>188</ele>
        <time>2017-06-20T10:19:56Z</time>
      </trkpt>
      <trkpt lat="45.95459" lon="4.7531">
        <ele>188</ele>
        <time>2017-06-20T10:19:58Z</time>
      </trkpt>
      <trkpt lat="45.95457" lon="4.75306">
        <ele>188</ele>
        <time>2017-06-20T10:19:59Z</time>
      </trkpt>
      <trkpt lat="45.95453" lon="4.75296">
        <ele>188</ele>
        <time>2017-06-20T10:20:01Z</time>
      </trkpt>
      <trkpt lat="45.95451" lon="4.75292">
        <ele>188</ele>
        <time>2017-06-20T10:20:02Z</time>
      </trkpt>
      <trkpt lat="45.95446" lon="4.75282">
        <ele>188</ele>
        <time>2017-06-20T10:20:04Z</time>
      </trkpt>
      <trkpt lat="45.95443" lon="4.75277">
        <ele>189</ele>
        <time>2017-06-20T10:20:05Z</time>
      </trkpt>
      <trkpt lat="45.95438" lon="4.75268">
        <ele>189</ele>
        <time>2017-06-20T10:20:07Z</time>
      </trkpt>
      <trkpt lat="45.95435" lon="4.75263">
        <ele>189</ele>
        <time>2017-06-20T10:20:08Z</time>
      </trkpt>
      <trkpt lat="45.95432" lon="4.75259">
        <ele>189</ele>
        <time>2017-06-20T10:20:09Z</time>
      </trkpt>
      <trkpt lat="45.95429" lon="4.75253">
        <ele>189</ele>
        <time>2017-06-20T10:20:10Z</time>
      </trkpt>
      <trkpt lat="45.95425" lon="4.75242">
        <ele>190</ele>
        <time>2017-06-20T10:20:12Z</time>
      </trkpt>
      <trkpt lat="45.95422" lon="4.75237">
        <ele>190</ele>
        <time>2017-06-20T10:20:13Z</time>
      </trkpt>
      <trkpt lat="45.95416" lon="4.75227">
        <ele>189</ele>
        <time>2017-06-20T10:20:15Z</time>
      </trkpt>
      <trkpt lat="45.95414" lon="4.75222">
        <ele>189</ele>
        <time>2017-06-20T10:20:16Z</time>
      </trkpt>
      <trkpt lat="45.95408" lon="4.75213">
        <ele>189</ele>
        <time>2017-06-20T10:20:18Z</time>
      </trkpt>
      <trkpt lat="45.95405" lon="4.75208">
        <ele>189</ele>
        <time>2017-06-20T10:20:19Z</time>
      </trkpt>
      <trkpt lat="45.954" lon="4.75199">
        <ele>189</ele>
        <time>2017-06-20T10:20:21Z</time>
      </trkpt>
      <trkpt lat="45.95398" lon="4.75196">
        <ele>189</ele>
        <time>2017-06-20T10:20:22Z</time>
      </trkpt>
      <trkpt lat="45.95393" lon="4.75187">
        <ele>189</ele>
        <time>2017-06-20T10:20:24Z</time>
      </trkpt>
      <trkpt lat="45.9539" lon="4.75183">
        <ele>189</ele>
        <time>2017-06-20T10:20:25Z</time>
      </trkpt>
      <trkpt lat="45.95384" lon="4.75175">
        <ele>189</ele>
        <time>2017-06-20T10:20:27Z</time>
      </trkpt>
      <trkpt lat="45.95382" lon="4.7517">
        <ele>189</ele>
        <time>2017-06-20T10:20:28Z</time>
      </trkpt>
      <trkpt lat="45.95376" lon="4.75161">
        <ele>191</ele>
        <time>2017-06-20T10:20:30Z</time>
      </trkpt>
      <trkpt lat="45.95374" lon="4.75156">
        <ele>191</ele>
        <time>2017-06-20T10:20:31Z</time>
      </trkpt>
      <trkpt lat="45.95368" lon="4.75146">
        <ele>191</ele>
        <time>2017-06-20T10:20:33Z</time>
      </trkpt>
      <trkpt lat="45.95365" lon="4.75142">
        <ele>191</ele>
        <time>2017-06-20T10:20:34Z</time>
      </trkpt>
      <trkpt lat="45.9536" lon="4.75133">
        <ele>191</ele>
        <time>2017-06-20T10:20:36Z</time>
      </trkpt>
      <trkpt lat="45.95357" lon="4.75128">
        <ele>191</ele>
        <time>2017-06-20T10:20:37Z</time>
      </trkpt>
      <trkpt lat="45.95351" lon="4.75119">
        <ele>191</ele>
        <time>2017-06-20T10:20:39Z</time>
      </trkpt>
      <trkpt lat="45.95348" lon="4.75115">
        <ele>192</ele>
        <time>2017-06-20T10:20:40Z</time>
      </trkpt>
      <trkpt lat="45.95342" lon="4.75105">
        <ele>192</ele>
        <time>2017-06-20T10:20:42Z</time>
      </trkpt>
      <trkpt lat="45.95339" lon="4.75101">
        <ele>192</ele>
        <time>2017-06-20T10:20:43Z</time>
      </trkpt>
      <trkpt lat="45.95336" lon="4.75097">
        <ele>192</ele>
        <time>2017-06-20T10:20:44Z</time>
      </trkpt>
      <trkpt lat="45.95333" lon="4.75092">
        <ele>192</ele>
        <time>2017-06-20T10:20:45Z</time>
      </trkpt>
      <trkpt lat="45.9533" lon="4.75087">
        <ele>192</ele>
        <time>2017-06-20T10:20:46Z</time>
      </trkpt>
      <trkpt lat="45.95326" lon="4.75082">
        <ele>193</ele>
        <time>2017-06-20T10:20:47Z</time>
      </trkpt>
      <trkpt lat="45.95323" lon="4.75077">
        <ele>192</ele>
        <time>2017-06-20T10:20:48Z</time>
      </trkpt>
      <trkpt lat="45.9532" lon="4.75072">
        <ele>192</ele>
        <time>2017-06-20T10:20:49Z</time>
      </trkpt>
      <trkpt lat="45.95316" lon="4.75067">
        <ele>192</ele>
        <time>2017-06-20T10:20:50Z</time>
      </trkpt>
      <trkpt lat="45.95313" lon="4.75061">
        <ele>192</ele>
        <time>2017-06-20T10:20:51Z</time>
      </trkpt>
      <trkpt lat="45.9531" lon="4.75055">
        <ele>192</ele>
        <time>2017-06-20T10:20:52Z</time>
      </trkpt>
      <trkpt lat="45.95307" lon="4.75051">
        <ele>192</ele>
        <time>2017-06-20T10:20:53Z</time>
      </trkpt>
      <trkpt lat="45.95301" lon="4.75042">
        <ele>191</ele>
        <time>2017-06-20T10:20:55Z</time>
      </trkpt>
      <trkpt lat="45.95298" lon="4.75038">
        <ele>191</ele>
        <time>2017-06-20T10:20:56Z</time>
      </trkpt>
      <trkpt lat="45.95295" lon="4.75033">
        <ele>191</ele>
        <time>2017-06-20T10:20:57Z</time>
      </trkpt>
      <trkpt lat="45.95292" lon="4.75028">
        <ele>191</ele>
        <time>2017-06-20T10:20:58Z</time>
      </trkpt>
      <trkpt lat="45.95288" lon="4.75022">
        <ele>191</ele>
        <time>2017-06-20T10:20:59Z</time>
      </trkpt>
      <trkpt lat="45.95285" lon="4.75016">
        <ele>191</ele>
        <time>2017-06-20T10:21:00Z</time>
      </trkpt>
      <trkpt lat="45.95281" lon="4.7501">
        <ele>191</ele>
        <time>2017-06-20T10:21:01Z</time>
      </trkpt>
      <trkpt lat="45.95278" lon="4.75004">
        <ele>191</ele>
        <time>2017-06-20T10:21:02Z</time>
      </trkpt>
      <trkpt lat="45.95274" lon="4.74998">
        <ele>192</ele>
        <time>2017-06-20T10:21:03Z</time>
      </trkpt>
      <trkpt lat="45.95271" lon="4.74993">
        <ele>192</ele>
        <time>2017-06-20T10:21:04Z</time>
      </trkpt>
      <trkpt lat="45.95268" lon="4.74988">
        <ele>192</ele>
        <time>2017-06-20T10:21:05Z</time>
      </trkpt>
      <trkpt lat="45.95264" lon="4.74983">
        <ele>192</ele>
        <time>2017-06-20T10:21:06Z</time>
      </trkpt>
      <trkpt lat="45.95259" lon="4.74973">
        <ele>192</ele>
        <time>2017-06-20T10:21:08Z</time>
      </trkpt>
      <trkpt lat="45.95257" lon="4.74969">
        <ele>192</ele>
        <time>2017-06-20T10:21:09Z</time>
      </trkpt>
      <trkpt lat="45.9525" lon="4.74961">
        <ele>191</ele>
        <time>2017-06-20T10:21:11Z</time>
      </trkpt>
      <trkpt lat="45.95247" lon="4.74956">
        <ele>192</ele>
        <time>2017-06-20T10:21:12Z</time>
      </trkpt>
      <trkpt lat="45.95244" lon="4.74951">
        <ele>192</ele>
        <time>2017-06-20T10:21:13Z</time>
      </trkpt>
      <trkpt lat="45.9524" lon="4.74946">
        <ele>192</ele>
        <time>2017-06-20T10:21:14Z</time>
      </trkpt>
      <trkpt lat="45.95237" lon="4.74941">
        <ele>192</ele>
        <time>2017-06-20T10:21:15Z</time>
      </trkpt>
      <trkpt lat="45.95234" lon="4.74936">
        <ele>192</ele>
        <time>2017-06-20T10:21:16Z</time>
      </trkpt>
      <trkpt lat="45.95231" lon="4.74931">
        <ele>192</ele>
        <time>2017-06-20T10:21:17Z</time>
      </trkpt>
      <trkpt lat="45.95228" lon="4.74926">
        <ele>192</ele>
        <time>2017-06-20T10:21:18Z</time>
      </trkpt>
      <trkpt lat="45.95222" lon="4.74917">
        <ele>192</ele>
        <time>2017-06-20T10:21:20Z</time>
      </trkpt>
      <trkpt lat="45.95219" lon="4.74913">
        <ele>193</ele>
        <time>2017-06-20T10:21:21Z</time>
      </trkpt>
      <trkpt lat="45.95213" lon="4.74904">
        <ele>193</ele>
        <time>2017-06-20T10:21:23Z</time>
      </trkpt>
      <trkpt lat="45.9521" lon="4.749">
        <ele>193</ele>
        <time>2017-06-20T10:21:24Z</time>
      </trkpt>
      <trkpt lat="45.95205" lon="4.74891">
        <ele>194</ele>
        <time>2017-06-20T10:21:26Z</time>
      </trkpt>
      <trkpt lat="45.95201" lon="4.74886">
        <ele>194</ele>
        <time>2017-06-20T10:21:27Z</time>
      </trkpt>
      <trkpt lat="45.95198" lon="4.74881">
        <ele>194</ele>
        <time>2017-06-20T10:21:28Z</time>
      </trkpt>
      <trkpt lat="45.95195" lon="4.74876">
        <ele>194</ele>
        <time>2017-06-20T10:21:29Z</time>
      </trkpt>
      <trkpt lat="45.95191" lon="4.74872">
        <ele>194</ele>
        <time>2017-06-20T10:21:30Z</time>
      </trkpt>
      <trkpt lat="45.95187" lon="4.74867">
        <ele>194</ele>
        <time>2017-06-20T10:21:31Z</time>
      </trkpt>
      <trkpt lat="45.95184" lon="4.74861">
        <ele>194</ele>
        <time>2017-06-20T10:21:32Z</time>
      </trkpt>
      <trkpt lat="45.9518" lon="4.74857">
        <ele>194</ele>
        <time>2017-06-20T10:21:33Z</time>
      </trkpt>
      <trkpt lat="45.95174" lon="4.74847">
        <ele>194</ele>
        <time>2017-06-20T10:21:35Z</time>
      </trkpt>
      <trkpt lat="45.95171" lon="4.74842">
        <ele>194</ele>
        <time>2017-06-20T10:21:36Z</time>
      </trkpt>
      <trkpt lat="45.95168" lon="4.74837">
        <ele>194</ele>
        <time>2017-06-20T10:21:37Z</time>
      </trkpt>
      <trkpt lat="45.95164" lon="4.74832">
        <ele>194</ele>
        <time>2017-06-20T10:21:38Z</time>
      </trkpt>
      <trkpt lat="45.95159" lon="4.74824">
        <ele>194</ele>
        <time>2017-06-20T10:21:40Z</time>
      </trkpt>
      <trkpt lat="45.95157" lon="4.74819">
        <ele>194</ele>
        <time>2017-06-20T10:21:41Z</time>
      </trkpt>
      <trkpt lat="45.95154" lon="4.74813">
        <ele>194</ele>
        <time>2017-06-20T10:21:42Z</time>
      </trkpt>
      <trkpt lat="45.95151" lon="4.74808">
        <ele>194</ele>
        <time>2017-06-20T10:21:43Z</time>
      </trkpt>
      <trkpt lat="45.95148" lon="4.74803">
        <ele>194</ele>
        <time>2017-06-20T10:21:44Z</time>
      </trkpt>
      <trkpt lat="45.95144" lon="4.74797">
        <ele>194</ele>
        <time>2017-06-20T10:21:45Z</time>
      </trkpt>
      <trkpt lat="45.95141" lon="4.74792">
        <ele>194</ele>
        <time>2017-06-20T10:21:46Z</time>
      </trkpt>
      <trkpt lat="45.95137" lon="4.74786">
        <ele>194</ele>
        <time>2017-06-20T10:21:47Z</time>
      </trkpt>
      <trkpt lat="45.95134" lon="4.7478">
        <ele>194</ele>
        <time>2017-06-20T10:21:48Z</time>
      </trkpt>
      <trkpt lat="45.9513" lon="4.74775">
        <ele>194</ele>
        <time>2017-06-20T10:21:49Z</time>
      </trkpt>
      <trkpt lat="45.95127" lon="4.74769">
        <ele>194</ele>
        <time>2017-06-20T10:21:50Z</time>
      </trkpt>
      <trkpt lat="45.95124" lon="4.74764">
        <ele>194</ele>
        <time>2017-06-20T10:21:51Z</time>
      </trkpt>
      <trkpt lat="45.95121" lon="4.74758">
        <ele>194</ele>
        <time>2017-06-20T10:21:52Z</time>
      </trkpt>
      <trkpt lat="45.95117" lon="4.74752">
        <ele>194</ele>
        <time>2017-06-20T10:21:53Z</time>
      </trkpt>
      <trkpt lat="45.95115" lon="4.74746">
        <ele>194</ele>
        <time>2017-06-20T10:21:54Z</time>
      </trkpt>
      <trkpt lat="45.95112" lon="4.7474">
        <ele>194</ele>
        <time>2017-06-20T10:21:55Z</time>
      </trkpt>
      <trkpt lat="45.95109" lon="4.74733">
        <ele>194</ele>
        <time>2017-06-20T10:21:56Z</time>
      </trkpt>
      <trkpt lat="45.95105" lon="4.74727">
        <ele>194</ele>
        <time>2017-06-20T10:21:57Z</time>
      </trkpt>
      <trkpt lat="45.95102" lon="4.7472">
        <ele>194</ele>
        <time>2017-06-20T10:21:58Z</time>
      </trkpt>
      <trkpt lat="45.95098" lon="4.74714">
        <ele>194</ele>
        <time>2017-06-20T10:21:59Z</time>
      </trkpt>
      <trkpt lat="45.95094" lon="4.74708">
        <ele>194</ele>
        <time>2017-06-20T10:22:00Z</time>
      </trkpt>
      <trkpt lat="45.9509" lon="4.74702">
        <ele>194</ele>
        <time>2017-06-20T10:22:01Z</time>
      </trkpt>
      <trkpt lat="45.95086" lon="4.74697">
        <ele>194</ele>
        <time>2017-06-20T10:22:02Z</time>
      </trkpt>
      <trkpt lat="45.95082" lon="4.74691">
        <ele>194</ele>
        <time>2017-06-20T10:22:03Z</time>
      </trkpt>
      <trkpt lat="45.95079" lon="4.74685">
        <ele>194</ele>
        <time>2017-06-20T10:22:04Z</time>
      </trkpt>
      <trkpt lat="45.95076" lon="4.74679">
        <ele>194</ele>
        <time>2017-06-20T10:22:05Z</time>
      </trkpt>
      <trkpt lat="45.95073" lon="4.74673">
        <ele>194</ele>
        <time>2017-06-20T10:22:06Z</time>
      </trkpt>
      <trkpt lat="45.9507" lon="4.74668">
        <ele>194</ele>
        <time>2017-06-20T10:22:07Z</time>
      </trkpt>
      <trkpt lat="45.95066" lon="4.74662">
        <ele>195</ele>
        <time>2017-06-20T10:22:08Z</time>
      </trkpt>
      <trkpt lat="45.95062" lon="4.74656">
        <ele>195</ele>
        <time>2017-06-20T10:22:09Z</time>
      </trkpt>
      <trkpt lat="45.95058" lon="4.74649">
        <ele>194</ele>
        <time>2017-06-20T10:22:10Z</time>
      </trkpt>
      <trkpt lat="45.95054" lon="4.74642">
        <ele>194</ele>
        <time>2017-06-20T10:22:11Z</time>
      </trkpt>
      <trkpt lat="45.9505" lon="4.74634">
        <ele>194</ele>
        <time>2017-06-20T10:22:12Z</time>
      </trkpt>
      <trkpt lat="45.95045" lon="4.74628">
        <ele>194</ele>
        <time>2017-06-20T10:22:13Z</time>
      </trkpt>
      <trkpt lat="45.95041" lon="4.7462">
        <ele>194</ele>
        <time>2017-06-20T10:22:14Z</time>
      </trkpt>
      <trkpt lat="45.95038" lon="4.74613">
        <ele>194</ele>
        <time>2017-06-20T10:22:15Z</time>
      </trkpt>
      <trkpt lat="45.95034" lon="4.74606">
        <ele>194</ele>
        <time>2017-06-20T10:22:16Z</time>
      </trkpt>
      <trkpt lat="45.95031" lon="4.74599">
        <ele>194</ele>
        <time>2017-06-20T10:22:17Z</time>
      </trkpt>
      <trkpt lat="45.95027" lon="4.74593">
        <ele>194</ele>
        <time>2017-06-20T10:22:18Z</time>
      </trkpt>
      <trkpt lat="45.95024" lon="4.74586">
        <ele>194</ele>
        <time>2017-06-20T10:22:19Z</time>
      </trkpt>
      <trkpt lat="45.9502" lon="4.7458">
        <ele>194</ele>
        <time>2017-06-20T10:22:20Z</time>
      </trkpt>
      <trkpt lat="45.95017" lon="4.74574">
        <ele>194</ele>
        <time>2017-06-20T10:22:21Z</time>
      </trkpt>
      <trkpt lat="45.95014" lon="4.74568">
        <ele>194</ele>
        <time>2017-06-20T10:22:22Z</time>
      </trkpt>
      <trkpt lat="45.9501" lon="4.74563">
        <ele>194</ele>
        <time>2017-06-20T10:22:23Z</time>
      </trkpt>
      <trkpt lat="45.95007" lon="4.74557">
        <ele>194</ele>
        <time>2017-06-20T10:22:24Z</time>
      </trkpt>
      <trkpt lat="45.95003" lon="4.74552">
        <ele>194</ele>
        <time>2017-06-20T10:22:25Z</time>
      </trkpt>
      <trkpt lat="45.95" lon="4.74546">
        <ele>194</ele>
        <time>2017-06-20T10:22:26Z</time>
      </trkpt>
      <trkpt lat="45.94998" lon="4.7454">
        <ele>193</ele>
        <time>2017-06-20T10:22:27Z</time>
      </trkpt>
      <trkpt lat="45.94995" lon="4.74534">
        <ele>193</ele>
        <time>2017-06-20T10:22:28Z</time>
      </trkpt>
      <trkpt lat="45.94992" lon="4.74527">
        <ele>193</ele>
        <time>2017-06-20T10:22:29Z</time>
      </trkpt>
      <trkpt lat="45.94989" lon="4.74521">
        <ele>193</ele>
        <time>2017-06-20T10:22:30Z</time>
      </trkpt>
      <trkpt lat="45.94985" lon="4.74515">
        <ele>193</ele>
        <time>2017-06-20T10:22:31Z</time>
      </trkpt>
      <trkpt lat="45.94982" lon="4.7451">
        <ele>193</ele>
        <time>2017-06-20T10:22:32Z</time>
      </trkpt>
      <trkpt lat="45.94979" lon="4.74503">
        <ele>193</ele>
        <time>2017-06-20T10:22:33Z</time>
      </trkpt>
      <trkpt lat="45.94976" lon="4.74497">
        <ele>193</ele>
        <time>2017-06-20T10:22:34Z</time>
      </trkpt>
      <trkpt lat="45.94973" lon="4.7449">
        <ele>193</ele>
        <time>2017-06-20T10:22:35Z</time>
      </trkpt>
      <trkpt lat="45.9497" lon="4.74484">
        <ele>193</ele>
        <time>2017-06-20T10:22:36Z</time>
      </trkpt>
      <trkpt lat="45.94967" lon="4.74478">
        <ele>193</ele>
        <time>2017-06-20T10:22:37Z</time>
      </trkpt>
      <trkpt lat="45.94965" lon="4.74472">
        <ele>193</ele>
        <time>2017-06-20T10:22:38Z</time>
      </trkpt>
      <trkpt lat="45.94962" lon="4.74466">
        <ele>193</ele>
        <time>2017-06-20T10:22:39Z</time>
      </trkpt>
      <trkpt lat="45.94956" lon="4.74457">
        <ele>192</ele>
        <time>2017-06-20T10:22:41Z</time>
      </trkpt>
      <trkpt lat="45.94952" lon="4.7445">
        <ele>192</ele>
        <time>2017-06-20T10:22:42Z</time>
      </trkpt>
      <trkpt lat="45.94949" lon="4.74444">
        <ele>192</ele>
        <time>2017-06-20T10:22:43Z</time>
      </trkpt>
      <trkpt lat="45.94946" lon="4.74436">
        <ele>192</ele>
        <time>2017-06-20T10:22:44Z</time>
      </trkpt>
      <trkpt lat="45.94942" lon="4.74429">
        <ele>192</ele>
        <time>2017-06-20T10:22:45Z</time>
      </trkpt>
      <trkpt lat="45.94938" lon="4.74421">
        <ele>192</ele>
        <time>2017-06-20T10:22:46Z</time>
      </trkpt>
      <trkpt lat="45.94934" lon="4.74413">
        <ele>192</ele>
        <time>2017-06-20T10:22:47Z</time>
      </trkpt>
      <trkpt lat="45.9493" lon="4.74406">
        <ele>192</ele>
        <time>2017-06-20T10:22:48Z</time>
      </trkpt>
      <trkpt lat="45.94926" lon="4.74399">
        <ele>192</ele>
        <time>2017-06-20T10:22:49Z</time>
      </trkpt>
      <trkpt lat="45.94923" lon="4.74393">
        <ele>192</ele>
        <time>2017-06-20T10:22:50Z</time>
      </trkpt>
      <trkpt lat="45.94919" lon="4.74386">
        <ele>192</ele>
        <time>2017-06-20T10:22:51Z</time>
      </trkpt>
      <trkpt lat="45.94916" lon="4.7438">
        <ele>191</ele>
        <time>2017-06-20T10:22:52Z</time>
      </trkpt>
      <trkpt lat="45.94913" lon="4.74373">
        <ele>191</ele>
        <time>2017-06-20T10:22:53Z</time>
      </trkpt>
      <trkpt lat="45.9491" lon="4.74366">
        <ele>191</ele>
        <time>2017-06-20T10:22:54Z</time>
      </trkpt>
      <trkpt lat="45.94906" lon="4.7436">
        <ele>191</ele>
        <time>2017-06-20T10:22:55Z</time>
      </trkpt>
      <trkpt lat="45.94903" lon="4.74354">
        <ele>191</ele>
        <time>2017-06-20T10:22:56Z</time>
      </trkpt>
      <trkpt lat="45.949" lon="4.74347">
        <ele>191</ele>
        <time>2017-06-20T10:22:57Z</time>
      </trkpt>
      <trkpt lat="45.94897" lon="4.7434">
        <ele>191</ele>
        <time>2017-06-20T10:22:58Z</time>
      </trkpt>
      <trkpt lat="45.94893" lon="4.74334">
        <ele>191</ele>
        <time>2017-06-20T10:22:59Z</time>
      </trkpt>
      <trkpt lat="45.9489" lon="4.74327">
        <ele>191</ele>
        <time>2017-06-20T10:23:00Z</time>
      </trkpt>
      <trkpt lat="45.94886" lon="4.74319">
        <ele>191</ele>
        <time>2017-06-20T10:23:01Z</time>
      </trkpt>
      <trkpt lat="45.94882" lon="4.74311">
        <ele>191</ele>
        <time>2017-06-20T10:23:02Z</time>
      </trkpt>
      <trkpt lat="45.94877" lon="4.74302">
        <ele>191</ele>
        <time>2017-06-20T10:23:03Z</time>
      </trkpt>
      <trkpt lat="45.94873" lon="4.74294">
        <ele>191</ele>
        <time>2017-06-20T10:23:04Z</time>
      </trkpt>
      <trkpt lat="45.94868" lon="4.74286">
        <ele>191</ele>
        <time>2017-06-20T10:23:05Z</time>
      </trkpt>
      <trkpt lat="45.94864" lon="4.74278">
        <ele>191</ele>
        <time>2017-06-20T10:23:06Z</time>
      </trkpt>
      <trkpt lat="45.9486" lon="4.74269">
        <ele>190</ele>
        <time>2017-06-20T10:23:07Z</time>
      </trkpt>
      <trkpt lat="45.94856" lon="4.7426">
        <ele>190</ele>
        <time>2017-06-20T10:23:08Z</time>
      </trkpt>
      <trkpt lat="45.94852" lon="4.74252">
        <ele>190</ele>
        <time>2017-06-20T10:23:09Z</time>
      </trkpt>
      <trkpt lat="45.94848" lon="4.74244">
        <ele>190</ele>
        <time>2017-06-20T10:23:10Z</time>
      </trkpt>
      <trkpt lat="45.94844" lon="4.74237">
        <ele>190</ele>
        <time>2017-06-20T10:23:11Z</time>
      </trkpt>
      <trkpt lat="45.9484" lon="4.74229">
        <ele>190</ele>
        <time>2017-06-20T10:23:12Z</time>
      </trkpt>
      <trkpt lat="45.94835" lon="4.74222">
        <ele>190</ele>
        <time>2017-06-20T10:23:13Z</time>
      </trkpt>
      <trkpt lat="45.94831" lon="4.74212">
        <ele>189</ele>
        <time>2017-06-20T10:23:14Z</time>
      </trkpt>
      <trkpt lat="45.94827" lon="4.74204">
        <ele>189</ele>
        <time>2017-06-20T10:23:15Z</time>
      </trkpt>
      <trkpt lat="45.94822" lon="4.74196">
        <ele>189</ele>
        <time>2017-06-20T10:23:16Z</time>
      </trkpt>
      <trkpt lat="45.94818" lon="4.74188">
        <ele>189</ele>
        <time>2017-06-20T10:23:17Z</time>
      </trkpt>
      <trkpt lat="45.94813" lon="4.74181">
        <ele>189</ele>
        <time>2017-06-20T10:23:18Z</time>
      </trkpt>
      <trkpt lat="45.94809" lon="4.74174">
        <ele>189</ele>
        <time>2017-06-20T10:23:19Z</time>
      </trkpt>
      <trkpt lat="45.94805" lon="4.74168">
        <ele>189</ele>
        <time>2017-06-20T10:23:20Z</time>
      </trkpt>
      <trkpt lat="45.94801" lon="4.74161">
        <ele>189</ele>
        <time>2017-06-20T10:23:21Z</time>
      </trkpt>
      <trkpt lat="45.94797" lon="4.74154">
        <ele>189</ele>
        <time>2017-06-20T10:23:22Z</time>
      </trkpt>
      <trkpt lat="45.94793" lon="4.74148">
        <ele>189</ele>
        <time>2017-06-20T10:23:23Z</time>
      </trkpt>
      <trkpt lat="45.9479" lon="4.74141">
        <ele>189</ele>
        <time>2017-06-20T10:23:24Z</time>
      </trkpt>
      <trkpt lat="45.94786" lon="4.74135">
        <ele>189</ele>
        <time>2017-06-20T10:23:25Z</time>
      </trkpt>
      <trkpt lat="45.94782" lon="4.7413">
        <ele>189</ele>
        <time>2017-06-20T10:23:26Z</time>
      </trkpt>
      <trkpt lat="45.94778" lon="4.74123">
        <ele>189</ele>
        <time>2017-06-20T10:23:27Z</time>
      </trkpt>
      <trkpt lat="45.94774" lon="4.74117">
        <ele>189</ele>
        <time>2017-06-20T10:23:28Z</time>
      </trkpt>
      <trkpt lat="45.9477" lon="4.7411">
        <ele>189</ele>
        <time>2017-06-20T10:23:29Z</time>
      </trkpt>
      <trkpt lat="45.94765" lon="4.74104">
        <ele>189</ele>
        <time>2017-06-20T10:23:30Z</time>
      </trkpt>
      <trkpt lat="45.9476" lon="4.74097">
        <ele>189</ele>
        <time>2017-06-20T10:23:31Z</time>
      </trkpt>
      <trkpt lat="45.94755" lon="4.7409">
        <ele>189</ele>
        <time>2017-06-20T10:23:32Z</time>
      </trkpt>
      <trkpt lat="45.9475" lon="4.74084">
        <ele>189</ele>
        <time>2017-06-20T10:23:33Z</time>
      </trkpt>
      <trkpt lat="45.94745" lon="4.74077">
        <ele>188</ele>
        <time>2017-06-20T10:23:34Z</time>
      </trkpt>
      <trkpt lat="45.9474" lon="4.7407">
        <ele>188</ele>
        <time>2017-06-20T10:23:35Z</time>
      </trkpt>
      <trkpt lat="45.94735" lon="4.74063">
        <ele>188</ele>
        <time>2017-06-20T10:23:36Z</time>
      </trkpt>
      <trkpt lat="45.9473" lon="4.74056">
        <ele>188</ele>
        <time>2017-06-20T10:23:37Z</time>
      </trkpt>
      <trkpt lat="45.94726" lon="4.7405">
        <ele>188</ele>
        <time>2017-06-20T10:23:38Z</time>
      </trkpt>
      <trkpt lat="45.94722" lon="4.74044">
        <ele>187</ele>
        <time>2017-06-20T10:23:39Z</time>
      </trkpt>
      <trkpt lat="45.94717" lon="4.74038">
        <ele>187</ele>
        <time>2017-06-20T10:23:40Z</time>
      </trkpt>
      <trkpt lat="45.94713" lon="4.74032">
        <ele>187</ele>
        <time>2017-06-20T10:23:41Z</time>
      </trkpt>
      <trkpt lat="45.94709" lon="4.74026">
        <ele>187</ele>
        <time>2017-06-20T10:23:42Z</time>
      </trkpt>
      <trkpt lat="45.94704" lon="4.7402">
        <ele>187</ele>
        <time>2017-06-20T10:23:43Z</time>
      </trkpt>
      <trkpt lat="45.947" lon="4.74014">
        <ele>187</ele>
        <time>2017-06-20T10:23:44Z</time>
      </trkpt>
      <trkpt lat="45.94695" lon="4.74009">
        <ele>187</ele>
        <time>2017-06-20T10:23:45Z</time>
      </trkpt>
      <trkpt lat="45.94691" lon="4.74003">
        <ele>187</ele>
        <time>2017-06-20T10:23:46Z</time>
      </trkpt>
      <trkpt lat="45.94686" lon="4.73998">
        <ele>187</ele>
        <time>2017-06-20T10:23:47Z</time>
      </trkpt>
      <trkpt lat="45.94682" lon="4.73993">
        <ele>187</ele>
        <time>2017-06-20T10:23:48Z</time>
      </trkpt>
      <trkpt lat="45.94678" lon="4.73988">
        <ele>187</ele>
        <time>2017-06-20T10:23:49Z</time>
      </trkpt>
      <trkpt lat="45.94675" lon="4.73982">
        <ele>187</ele>
        <time>2017-06-20T10:23:50Z</time>
      </trkpt>
      <trkpt lat="45.94671" lon="4.73977">
        <ele>187</ele>
        <time>2017-06-20T10:23:51Z</time>
      </trkpt>
      <trkpt lat="45.94666" lon="4.7397">
        <ele>187</ele>
        <time>2017-06-20T10:23:52Z</time>
      </trkpt>
      <trkpt lat="45.94662" lon="4.73964">
        <ele>187</ele>
        <time>2017-06-20T10:23:53Z</time>
      </trkpt>
      <trkpt lat="45.94657" lon="4.73957">
        <ele>187</ele>
        <time>2017-06-20T10:23:54Z</time>
      </trkpt>
      <trkpt lat="45.94652" lon="4.73951">
        <ele>187</ele>
        <time>2017-06-20T10:23:55Z</time>
      </trkpt>
      <trkpt lat="45.94647" lon="4.73945">
        <ele>187</ele>
        <time>2017-06-20T10:23:56Z</time>
      </trkpt>
      <trkpt lat="45.94642" lon="4.73939">
        <ele>187</ele>
        <time>2017-06-20T10:23:57Z</time>
      </trkpt>
      <trkpt lat="45.94637" lon="4.73933">
        <ele>187</ele>
        <time>2017-06-20T10:23:58Z</time>
      </trkpt>
      <trkpt lat="45.94633" lon="4.73927">
        <ele>187</ele>
        <time>2017-06-20T10:23:59Z</time>
      </trkpt>
      <trkpt lat="45.94628" lon="4.73921">
        <ele>187</ele>
        <time>2017-06-20T10:24:00Z</time>
      </trkpt>
      <trkpt lat="45.94623" lon="4.73916">
        <ele>187</ele>
        <time>2017-06-20T10:24:01Z</time>
      </trkpt>
      <trkpt lat="45.94619" lon="4.7391">
        <ele>187</ele>
        <time>2017-06-20T10:24:02Z</time>
      </trkpt>
      <trkpt lat="45.94615" lon="4.73904">
        <ele>187</ele>
        <time>2017-06-20T10:24:03Z</time>
      </trkpt>
      <trkpt lat="45.9461" lon="4.73899">
        <ele>187</ele>
        <time>2017-06-20T10:24:04Z</time>
      </trkpt>
      <trkpt lat="45.94605" lon="4.73894">
        <ele>187</ele>
        <time>2017-06-20T10:24:05Z</time>
      </trkpt>
      <trkpt lat="45.94601" lon="4.73888">
        <ele>187</ele>
        <time>2017-06-20T10:24:06Z</time>
      </trkpt>
      <trkpt lat="45.94597" lon="4.73883">
        <ele>187</ele>
        <time>2017-06-20T10:24:07Z</time>
      </trkpt>
      <trkpt lat="45.94592" lon="4.73878">
        <ele>187</ele>
        <time>2017-06-20T10:24:08Z</time>
      </trkpt>
      <trkpt lat="45.94587" lon="4.73873">
        <ele>187</ele>
        <time>2017-06-20T10:24:09Z</time>
      </trkpt>
      <trkpt lat="45.94583" lon="4.73868">
        <ele>186</ele>
        <time>2017-06-20T10:24:10Z</time>
      </trkpt>
      <trkpt lat="45.94578" lon="4.73863">
        <ele>186</ele>
        <time>2017-06-20T10:24:11Z</time>
      </trkpt>
      <trkpt lat="45.94573" lon="4.73858">
        <ele>186</ele>
        <time>2017-06-20T10:24:12Z</time>
      </trkpt>
      <trkpt lat="45.94568" lon="4.73852">
        <ele>186</ele>
        <time>2017-06-20T10:24:13Z</time>
      </trkpt>
      <trkpt lat="45.94563" lon="4.73847">
        <ele>186</ele>
        <time>2017-06-20T10:24:14Z</time>
      </trkpt>
      <trkpt lat="45.94558" lon="4.73842">
        <ele>186</ele>
        <time>2017-06-20T10:24:15Z</time>
      </trkpt>
      <trkpt lat="45.94553" lon="4.73836">
        <ele>186</ele>
        <time>2017-06-20T10:24:16Z</time>
      </trkpt>
      <trkpt lat="45.94548" lon="4.73832">
        <ele>186</ele>
        <time>2017-06-20T10:24:17Z</time>
      </trkpt>
      <trkpt lat="45.94543" lon="4.73827">
        <ele>186</ele>
        <time>2017-06-20T10:24:18Z</time>
      </trkpt>
      <trkpt lat="45.94538" lon="4.73823">
        <ele>186</ele>
        <time>2017-06-20T10:24:19Z</time>
      </trkpt>
      <trkpt lat="45.94534" lon="4.73818">
        <ele>186</ele>
        <time>2017-06-20T10:24:20Z</time>
      </trkpt>
      <trkpt lat="45.94529" lon="4.73814">
        <ele>186</ele>
        <time>2017-06-20T10:24:21Z</time>
      </trkpt>
      <trkpt lat="45.94524" lon="4.73809">
        <ele>186</ele>
        <time>2017-06-20T10:24:22Z</time>
      </trkpt>
      <trkpt lat="45.9452" lon="4.73804">
        <ele>186</ele>
        <time>2017-06-20T10:24:23Z</time>
      </trkpt>
      <trkpt lat="45.94516" lon="4.738">
        <ele>186</ele>
        <time>2017-06-20T10:24:24Z</time>
      </trkpt>
      <trkpt lat="45.94512" lon="4.73796">
        <ele>186</ele>
        <time>2017-06-20T10:24:25Z</time>
      </trkpt>
      <trkpt lat="45.94507" lon="4.73792">
        <ele>186</ele>
        <time>2017-06-20T10:24:26Z</time>
      </trkpt>
      <trkpt lat="45.94503" lon="4.73788">
        <ele>186</ele>
        <time>2017-06-20T10:24:27Z</time>
      </trkpt>
      <trkpt lat="45.94499" lon="4.73783">
        <ele>186</ele>
        <time>2017-06-20T10:24:28Z</time>
      </trkpt>
      <trkpt lat="45.94495" lon="4.73778">
        <ele>186</ele>
        <time>2017-06-20T10:24:29Z</time>
      </trkpt>
      <trkpt lat="45.94492" lon="4.73773">
        <ele>186</ele>
        <time>2017-06-20T10:24:30Z</time>
      </trkpt>
      <trkpt lat="45.94489" lon="4.73767">
        <ele>186</ele>
        <time>2017-06-20T10:24:31Z</time>
      </trkpt>
      <trkpt lat="45.94486" lon="4.7376">
        <ele>186</ele>
        <time>2017-06-20T10:24:32Z</time>
      </trkpt>
      <trkpt lat="45.94486" lon="4.73753">
        <ele>186</ele>
        <time>2017-06-20T10:24:33Z</time>
      </trkpt>
      <trkpt lat="45.94486" lon="4.73746">
        <ele>186</ele>
        <time>2017-06-20T10:24:34Z</time>
      </trkpt>
      <trkpt lat="45.94487" lon="4.73738">
        <ele>186</ele>
        <time>2017-06-20T10:24:35Z</time>
      </trkpt>
      <trkpt lat="45.94488" lon="4.7373">
        <ele>186</ele>
        <time>2017-06-20T10:24:36Z</time>
      </trkpt>
      <trkpt lat="45.94489" lon="4.73722">
        <ele>186</ele>
        <time>2017-06-20T10:24:37Z</time>
      </trkpt>
      <trkpt lat="45.9449" lon="4.73713">
        <ele>186</ele>
        <time>2017-06-20T10:24:38Z</time>
      </trkpt>
      <trkpt lat="45.94491" lon="4.73705">
        <ele>186</ele>
        <time>2017-06-20T10:24:39Z</time>
      </trkpt>
      <trkpt lat="45.94493" lon="4.73696">
        <ele>186</ele>
        <time>2017-06-20T10:24:40Z</time>
      </trkpt>
      <trkpt lat="45.94494" lon="4.73687">
        <ele>186</ele>
        <time>2017-06-20T10:24:41Z</time>
      </trkpt>
      <trkpt lat="45.94496" lon="4.73678">
        <ele>185</ele>
        <time>2017-06-20T10:24:42Z</time>
      </trkpt>
      <trkpt lat="45.94497" lon="4.73669">
        <ele>185</ele>
        <time>2017-06-20T10:24:43Z</time>
      </trkpt>
      <trkpt lat="45.94498" lon="4.73661">
        <ele>185</ele>
        <time>2017-06-20T10:24:44Z</time>
      </trkpt>
      <trkpt lat="45.94499" lon="4.73653">
        <ele>185</ele>
        <time>2017-06-20T10:24:45Z</time>
      </trkpt>
      <trkpt lat="45.945" lon="4.73645">
        <ele>184</ele>
        <time>2017-06-20T10:24:46Z</time>
      </trkpt>
      <trkpt lat="45.94501" lon="4.73636">
        <ele>184</ele>
        <time>2017-06-20T10:24:47Z</time>
      </trkpt>
      <trkpt lat="45.94502" lon="4.73627">
        <ele>184</ele>
        <time>2017-06-20T10:24:48Z</time>
      </trkpt>
      <trkpt lat="45.94503" lon="4.73617">
        <ele>184</ele>
        <time>2017-06-20T10:24:49Z</time>
      </trkpt>
      <trkpt lat="45.94504" lon="4.73607">
        <ele>184</ele>
        <time>2017-06-20T10:24:50Z</time>
      </trkpt>
      <trkpt lat="45.94505" lon="4.73598">
        <ele>184</ele>
        <time>2017-06-20T10:24:51Z</time>
      </trkpt>
      <trkpt lat="45.94505" lon="4.73588">
        <ele>185</ele>
        <time>2017-06-20T10:24:52Z</time>
      </trkpt>
      <trkpt lat="45.94506" lon="4.73577">
        <ele>184</ele>
        <time>2017-06-20T10:24:53Z</time>
      </trkpt>
      <trkpt lat="45.94507" lon="4.73566">
        <ele>184</ele>
        <time>2017-06-20T10:24:54Z</time>
      </trkpt>
      <trkpt lat="45.94507" lon="4.73556">
        <ele>183</ele>
        <time>2017-06-20T10:24:55Z</time>
      </trkpt>
      <trkpt lat="45.94507" lon="4.73547">
        <ele>183</ele>
        <time>2017-06-20T10:24:56Z</time>
      </trkpt>
      <trkpt lat="45.94507" lon="4.73537">
        <ele>183</ele>
        <time>2017-06-20T10:24:57Z</time>
      </trkpt>
      <trkpt lat="45.94507" lon="4.73527">
        <ele>183</ele>
        <time>2017-06-20T10:24:58Z</time>
      </trkpt>
      <trkpt lat="45.94506" lon="4.73518">
        <ele>183</ele>
        <time>2017-06-20T10:24:59Z</time>
      </trkpt>
      <trkpt lat="45.94506" lon="4.73508">
        <ele>183</ele>
        <time>2017-06-20T10:25:00Z</time>
      </trkpt>
      <trkpt lat="45.94507" lon="4.73497">
        <ele>182</ele>
        <time>2017-06-20T10:25:01Z</time>
      </trkpt>
      <trkpt lat="45.94507" lon="4.73487">
        <ele>182</ele>
        <time>2017-06-20T10:25:02Z</time>
      </trkpt>
      <trkpt lat="45.94508" lon="4.73477">
        <ele>182</ele>
        <time>2017-06-20T10:25:03Z</time>
      </trkpt>
      <trkpt lat="45.94508" lon="4.73467">
        <ele>181</ele>
        <time>2017-06-20T10:25:04Z</time>
      </trkpt>
      <trkpt lat="45.94508" lon="4.73457">
        <ele>181</ele>
        <time>2017-06-20T10:25:05Z</time>
      </trkpt>
      <trkpt lat="45.94508" lon="4.73447">
        <ele>181</ele>
        <time>2017-06-20T10:25:06Z</time>
      </trkpt>
      <trkpt lat="45.94508" lon="4.73437">
        <ele>181</ele>
        <time>2017-06-20T10:25:07Z</time>
      </trkpt>
      <trkpt lat="45.94508" lon="4.73427">
        <ele>180</ele>
        <time>2017-06-20T10:25:08Z</time>
      </trkpt>
      <trkpt lat="45.94508" lon="4.73416">
        <ele>180</ele>
        <time>2017-06-20T10:25:09Z</time>
      </trkpt>
      <trkpt lat="45.94508" lon="4.73405">
        <ele>179</ele>
        <time>2017-06-20T10:25:10Z</time>
      </trkpt>
      <trkpt lat="45.94507" lon="4.73395">
        <ele>179</ele>
        <time>2017-06-20T10:25:11Z</time>
      </trkpt>
      <trkpt lat="45.94506" lon="4.73384">
        <ele>179</ele>
        <time>2017-06-20T10:25:12Z</time>
      </trkpt>
      <trkpt lat="45.94505" lon="4.73373">
        <ele>178</ele>
        <time>2017-06-20T10:25:13Z</time>
      </trkpt>
      <trkpt lat="45.94504" lon="4.73363">
        <ele>178</ele>
        <time>2017-06-20T10:25:14Z</time>
      </trkpt>
      <trkpt lat="45.94502" lon="4.73353">
        <ele>178</ele>
        <time>2017-06-20T10:25:15Z</time>
      </trkpt>
      <trkpt lat="45.945" lon="4.73342">
        <ele>177</ele>
        <time>2017-06-20T10:25:16Z</time>
      </trkpt>
      <trkpt lat="45.94499" lon="4.73331">
        <ele>177</ele>
        <time>2017-06-20T10:25:17Z</time>
      </trkpt>
      <trkpt lat="45.94498" lon="4.73321">
        <ele>177</ele>
        <time>2017-06-20T10:25:18Z</time>
      </trkpt>
      <trkpt lat="45.94497" lon="4.7331">
        <ele>177</ele>
        <time>2017-06-20T10:25:19Z</time>
      </trkpt>
      <trkpt lat="45.94495" lon="4.73299">
        <ele>177</ele>
        <time>2017-06-20T10:25:20Z</time>
      </trkpt>
      <trkpt lat="45.94493" lon="4.73288">
        <ele>177</ele>
        <time>2017-06-20T10:25:21Z</time>
      </trkpt>
      <trkpt lat="45.94491" lon="4.73276">
        <ele>177</ele>
        <time>2017-06-20T10:25:22Z</time>
      </trkpt>
      <trkpt lat="45.9449" lon="4.73265">
        <ele>176</ele>
        <time>2017-06-20T10:25:23Z</time>
      </trkpt>
      <trkpt lat="45.94488" lon="4.73255">
        <ele>176</ele>
        <time>2017-06-20T10:25:24Z</time>
      </trkpt>
      <trkpt lat="45.94487" lon="4.73244">
        <ele>175</ele>
        <time>2017-06-20T10:25:25Z</time>
      </trkpt>
      <trkpt lat="45.94486" lon="4.73233">
        <ele>175</ele>
        <time>2017-06-20T10:25:26Z</time>
      </trkpt>
      <trkpt lat="45.94484" lon="4.73221">
        <ele>175</ele>
        <time>2017-06-20T10:25:27Z</time>
      </trkpt>
      <trkpt lat="45.94482" lon="4.7321">
        <ele>175</ele>
        <time>2017-06-20T10:25:28Z</time>
      </trkpt>
      <trkpt lat="45.94481" lon="4.73199">
        <ele>174</ele>
        <time>2017-06-20T10:25:29Z</time>
      </trkpt>
      <trkpt lat="45.94479" lon="4.73188">
        <ele>174</ele>
        <time>2017-06-20T10:25:30Z</time>
      </trkpt>
      <trkpt lat="45.94477" lon="4.73177">
        <ele>174</ele>
        <time>2017-06-20T10:25:31Z</time>
      </trkpt>
      <trkpt lat="45.94476" lon="4.73167">
        <ele>173</ele>
        <time>2017-06-20T10:25:32Z</time>
      </trkpt>
      <trkpt lat="45.94475" lon="4.73157">
        <ele>173</ele>
        <time>2017-06-20T10:25:33Z</time>
      </trkpt>
      <trkpt lat="45.94474" lon="4.73147">
        <ele>172</ele>
        <time>2017-06-20T10:25:34Z</time>
      </trkpt>
      <trkpt lat="45.94473" lon="4.73138">
        <ele>172</ele>
        <time>2017-06-20T10:25:35Z</time>
      </trkpt>
      <trkpt lat="45.94472" lon="4.73129">
        <ele>172</ele>
        <time>2017-06-20T10:25:36Z</time>
      </trkpt>
      <trkpt lat="45.94471" lon="4.73119">
        <ele>172</ele>
        <time>2017-06-20T10:25:37Z</time>
      </trkpt>
      <trkpt lat="45.9447" lon="4.73109">
        <ele>172</ele>
        <time>2017-06-20T10:25:38Z</time>
      </trkpt>
      <trkpt lat="45.94469" lon="4.731">
        <ele>172</ele>
        <time>2017-06-20T10:25:39Z</time>
      </trkpt>
      <trkpt lat="45.94468" lon="4.73091">
        <ele>172</ele>
        <time>2017-06-20T10:25:40Z</time>
      </trkpt>
      <trkpt lat="45.94466" lon="4.73082">
        <ele>170</ele>
        <time>2017-06-20T10:25:41Z</time>
      </trkpt>
      <trkpt lat="45.94465" lon="4.73074">
        <ele>170</ele>
        <time>2017-06-20T10:25:42Z</time>
      </trkpt>
      <trkpt lat="45.94464" lon="4.73066">
        <ele>170</ele>
        <time>2017-06-20T10:25:43Z</time>
      </trkpt>
      <trkpt lat="45.94463" lon="4.73059">
        <ele>170</ele>
        <time>2017-06-20T10:25:44Z</time>
      </trkpt>
      <trkpt lat="45.94461" lon="4.73052">
        <ele>170</ele>
        <time>2017-06-20T10:25:45Z</time>
      </trkpt>
      <trkpt lat="45.94459" lon="4.73045">
        <ele>170</ele>
        <time>2017-06-20T10:25:46Z</time>
      </trkpt>
      <trkpt lat="45.94457" lon="4.73037">
        <ele>169</ele>
        <time>2017-06-20T10:25:47Z</time>
      </trkpt>
      <trkpt lat="45.94455" lon="4.7303">
        <ele>169</ele>
        <time>2017-06-20T10:25:48Z</time>
      </trkpt>
      <trkpt lat="45.94453" lon="4.73023">
        <ele>169</ele>
        <time>2017-06-20T10:25:49Z</time>
      </trkpt>
      <trkpt lat="45.94452" lon="4.73015">
        <ele>169</ele>
        <time>2017-06-20T10:25:50Z</time>
      </trkpt>
      <trkpt lat="45.94451" lon="4.73007">
        <ele>169</ele>
        <time>2017-06-20T10:25:51Z</time>
      </trkpt>
      <trkpt lat="45.9445" lon="4.73">
        <ele>167</ele>
        <time>2017-06-20T10:25:52Z</time>
      </trkpt>
      <trkpt lat="45.94449" lon="4.72992">
        <ele>167</ele>
        <time>2017-06-20T10:25:53Z</time>
      </trkpt>
      <trkpt lat="45.94448" lon="4.72984">
        <ele>167</ele>
        <time>2017-06-20T10:25:54Z</time>
      </trkpt>
      <trkpt lat="45.94448" lon="4.72977">
        <ele>167</ele>
        <time>2017-06-20T10:25:55Z</time>
      </trkpt>
      <trkpt lat="45.94447" lon="4.72969">
        <ele>167</ele>
        <time>2017-06-20T10:25:56Z</time>
      </trkpt>
      <trkpt lat="45.94446" lon="4.72961">
        <ele>167</ele>
        <time>2017-06-20T10:25:57Z</time>
      </trkpt>
      <trkpt lat="45.94445" lon="4.72954">
        <ele>167</ele>
        <time>2017-06-20T10:25:58Z</time>
      </trkpt>
      <trkpt lat="45.94444" lon="4.72945">
        <ele>167</ele>
        <time>2017-06-20T10:25:59Z</time>
      </trkpt>
      <trkpt lat="45.94443" lon="4.72938">
        <ele>167</ele>
        <time>2017-06-20T10:26:00Z</time>
      </trkpt>
      <trkpt lat="45.94442" lon="4.7293">
        <ele>167</ele>
        <time>2017-06-20T10:26:01Z</time>
      </trkpt>
      <trkpt lat="45.94441" lon="4.72923">
        <ele>167</ele>
        <time>2017-06-20T10:26:02Z</time>
      </trkpt>
      <trkpt lat="45.9444" lon="4.72916">
        <ele>166</ele>
        <time>2017-06-20T10:26:03Z</time>
      </trkpt>
      <trkpt lat="45.9444" lon="4.72909">
        <ele>166</ele>
        <time>2017-06-20T10:26:04Z</time>
      </trkpt>
      <trkpt lat="45.94438" lon="4.72897">
        <ele>166</ele>
        <time>2017-06-20T10:26:06Z</time>
      </trkpt>
      <trkpt lat="45.94438" lon="4.7289">
        <ele>166</ele>
        <time>2017-06-20T10:26:07Z</time>
      </trkpt>
      <trkpt lat="45.94437" lon="4.72884">
        <ele>166</ele>
        <time>2017-06-20T10:26:08Z</time>
      </trkpt>
      <trkpt lat="45.94436" lon="4.72877">
        <ele>166</ele>
        <time>2017-06-20T10:26:09Z</time>
      </trkpt>
      <trkpt lat="45.94435" lon="4.72871">
        <ele>166</ele>
        <time>2017-06-20T10:26:10Z</time>
      </trkpt>
      <trkpt lat="45.94433" lon="4.72864">
        <ele>166</ele>
        <time>2017-06-20T10:26:11Z</time>
      </trkpt>
      <trkpt lat="45.94432" lon="4.72856">
        <ele>166</ele>
        <time>2017-06-20T10:26:12Z</time>
      </trkpt>
      <trkpt lat="45.94431" lon="4.72848">
        <ele>166</ele>
        <time>2017-06-20T10:26:13Z</time>
      </trkpt>
      <trkpt lat="45.9443" lon="4.7284">
        <ele>166</ele>
        <time>2017-06-20T10:26:14Z</time>
      </trkpt>
      <trkpt lat="45.9443" lon="4.72831">
        <ele>167</ele>
        <time>2017-06-20T10:26:15Z</time>
      </trkpt>
      <trkpt lat="45.94429" lon="4.72822">
        <ele>167</ele>
        <time>2017-06-20T10:26:16Z</time>
      </trkpt>
      <trkpt lat="45.94428" lon="4.72813">
        <ele>167</ele>
        <time>2017-06-20T10:26:17Z</time>
      </trkpt>
      <trkpt lat="45.94427" lon="4.72803">
        <ele>167</ele>
        <time>2017-06-20T10:26:18Z</time>
      </trkpt>
      <trkpt lat="45.94426" lon="4.72794">
        <ele>168</ele>
        <time>2017-06-20T10:26:19Z</time>
      </trkpt>
      <trkpt lat="45.94424" lon="4.72784">
        <ele>168</ele>
        <time>2017-06-20T10:26:20Z</time>
      </trkpt>
      <trkpt lat="45.94423" lon="4.72773">
        <ele>169</ele>
        <time>2017-06-20T10:26:21Z</time>
      </trkpt>
      <trkpt lat="45.94422" lon="4.72763">
        <ele>169</ele>
        <time>2017-06-20T10:26:22Z</time>
      </trkpt>
      <trkpt lat="45.94421" lon="4.72752">
        <ele>170</ele>
        <time>2017-06-20T10:26:23Z</time>
      </trkpt>
      <trkpt lat="45.94419" lon="4.72742">
        <ele>171</ele>
        <time>2017-06-20T10:26:24Z</time>
      </trkpt>
      <trkpt lat="45.94418" lon="4.72732">
        <ele>171</ele>
        <time>2017-06-20T10:26:25Z</time>
      </trkpt>
      <trkpt lat="45.94417" lon="4.72721">
        <ele>172</ele>
        <time>2017-06-20T10:26:26Z</time>
      </trkpt>
      <trkpt lat="45.94415" lon="4.72712">
        <ele>172</ele>
        <time>2017-06-20T10:26:27Z</time>
      </trkpt>
      <trkpt lat="45.94414" lon="4.72702">
        <ele>172</ele>
        <time>2017-06-20T10:26:28Z</time>
      </trkpt>
      <trkpt lat="45.94412" lon="4.72693">
        <ele>173</ele>
        <time>2017-06-20T10:26:29Z</time>
      </trkpt>
      <trkpt lat="45.94411" lon="4.72683">
        <ele>173</ele>
        <time>2017-06-20T10:26:30Z</time>
      </trkpt>
      <trkpt lat="45.9441" lon="4.72673">
        <ele>173</ele>
        <time>2017-06-20T10:26:31Z</time>
      </trkpt>
      <trkpt lat="45.94409" lon="4.72664">
        <ele>174</ele>
        <time>2017-06-20T10:26:32Z</time>
      </trkpt>
      <trkpt lat="45.94408" lon="4.72654">
        <ele>174</ele>
        <time>2017-06-20T10:26:33Z</time>
      </trkpt>
      <trkpt lat="45.94407" lon="4.72643">
        <ele>174</ele>
        <time>2017-06-20T10:26:34Z</time>
      </trkpt>
      <trkpt lat="45.94407" lon="4.72633">
        <ele>174</ele>
        <time>2017-06-20T10:26:35Z</time>
      </trkpt>
      <trkpt lat="45.94406" lon="4.72623">
        <ele>173</ele>
        <time>2017-06-20T10:26:36Z</time>
      </trkpt>
      <trkpt lat="45.94405" lon="4.72614">
        <ele>173</ele>
        <time>2017-06-20T10:26:37Z</time>
      </trkpt>
      <trkpt lat="45.94404" lon="4.72604">
        <ele>173</ele>
        <time>2017-06-20T10:26:38Z</time>
      </trkpt>
      <trkpt lat="45.94402" lon="4.72595">
        <ele>173</ele>
        <time>2017-06-20T10:26:39Z</time>
      </trkpt>
      <trkpt lat="45.94401" lon="4.72587">
        <ele>173</ele>
        <time>2017-06-20T10:26:40Z</time>
      </trkpt>
      <trkpt lat="45.944" lon="4.72578">
        <ele>173</ele>
        <time>2017-06-20T10:26:41Z</time>
      </trkpt>
      <trkpt lat="45.94398" lon="4.7257">
        <ele>173</ele>
        <time>2017-06-20T10:26:42Z</time>
      </trkpt>
      <trkpt lat="45.94396" lon="4.72562">
        <ele>173</ele>
        <time>2017-06-20T10:26:43Z</time>
      </trkpt>
      <trkpt lat="45.94395" lon="4.72554">
        <ele>173</ele>
        <time>2017-06-20T10:26:44Z</time>
      </trkpt>
      <trkpt lat="45.94393" lon="4.72546">
        <ele>173</ele>
        <time>2017-06-20T10:26:45Z</time>
      </trkpt>
      <trkpt lat="45.94392" lon="4.72539">
        <ele>174</ele>
        <time>2017-06-20T10:26:46Z</time>
      </trkpt>
      <trkpt lat="45.94391" lon="4.7253">
        <ele>174</ele>
        <time>2017-06-20T10:26:47Z</time>
      </trkpt>
      <trkpt lat="45.94386" lon="4.72523">
        <ele>174</ele>
        <time>2017-06-20T10:26:48Z</time>
      </trkpt>
      <trkpt lat="45.94384" lon="4.72516">
        <ele>174</ele>
        <time>2017-06-20T10:26:49Z</time>
      </trkpt>
      <trkpt lat="45.94381" lon="4.72509">
        <ele>174</ele>
        <time>2017-06-20T10:26:50Z</time>
      </trkpt>
      <trkpt lat="45.94379" lon="4.72502">
        <ele>174</ele>
        <time>2017-06-20T10:26:51Z</time>
      </trkpt>
      <trkpt lat="45.94377" lon="4.72495">
        <ele>173</ele>
        <time>2017-06-20T10:26:52Z</time>
      </trkpt>
      <trkpt lat="45.94373" lon="4.72488">
        <ele>173</ele>
        <time>2017-06-20T10:26:53Z</time>
      </trkpt>
      <trkpt lat="45.9437" lon="4.72482">
        <ele>173</ele>
        <time>2017-06-20T10:26:54Z</time>
      </trkpt>
      <trkpt lat="45.94368" lon="4.72475">
        <ele>173</ele>
        <time>2017-06-20T10:26:55Z</time>
      </trkpt>
      <trkpt lat="45.94364" lon="4.7247">
        <ele>173</ele>
        <time>2017-06-20T10:26:56Z</time>
      </trkpt>
      <trkpt lat="45.94361" lon="4.72464">
        <ele>173</ele>
        <time>2017-06-20T10:26:57Z</time>
      </trkpt>
      <trkpt lat="45.94358" lon="4.72457">
        <ele>173</ele>
        <time>2017-06-20T10:26:58Z</time>
      </trkpt>
      <trkpt lat="45.94355" lon="4.72451">
        <ele>173</ele>
        <time>2017-06-20T10:26:59Z</time>
      </trkpt>
      <trkpt lat="45.94353" lon="4.72444">
        <ele>173</ele>
        <time>2017-06-20T10:27:00Z</time>
      </trkpt>
      <trkpt lat="45.94351" lon="4.72437">
        <ele>173</ele>
        <time>2017-06-20T10:27:01Z</time>
      </trkpt>
      <trkpt lat="45.94349" lon="4.72431">
        <ele>173</ele>
        <time>2017-06-20T10:27:02Z</time>
      </trkpt>
      <trkpt lat="45.94346" lon="4.72425">
        <ele>173</ele>
        <time>2017-06-20T10:27:03Z</time>
      </trkpt>
      <trkpt lat="45.94344" lon="4.72419">
        <ele>173</ele>
        <time>2017-06-20T10:27:04Z</time>
      </trkpt>
      <trkpt lat="45.94342" lon="4.72412">
        <ele>173</ele>
        <time>2017-06-20T10:27:05Z</time>
      </trkpt>
      <trkpt lat="45.94339" lon="4.72405">
        <ele>173</ele>
        <time>2017-06-20T10:27:06Z</time>
      </trkpt>
      <trkpt lat="45.94336" lon="4.72398">
        <ele>172</ele>
        <time>2017-06-20T10:27:07Z</time>
      </trkpt>
      <trkpt lat="45.94332" lon="4.72391">
        <ele>172</ele>
        <time>2017-06-20T10:27:08Z</time>
      </trkpt>
      <trkpt lat="45.9433" lon="4.72384">
        <ele>172</ele>
        <time>2017-06-20T10:27:09Z</time>
      </trkpt>
      <trkpt lat="45.94328" lon="4.72378">
        <ele>172</ele>
        <time>2017-06-20T10:27:10Z</time>
      </trkpt>
      <trkpt lat="45.94326" lon="4.72372">
        <ele>172</ele>
        <time>2017-06-20T10:27:11Z</time>
      </trkpt>
      <trkpt lat="45.94324" lon="4.72366">
        <ele>172</ele>
        <time>2017-06-20T10:27:12Z</time>
      </trkpt>
      <trkpt lat="45.94322" lon="4.72359">
        <ele>172</ele>
        <time>2017-06-20T10:27:13Z</time>
      </trkpt>
      <trkpt lat="45.94319" lon="4.72353">
        <ele>172</ele>
        <time>2017-06-20T10:27:14Z</time>
      </trkpt>
      <trkpt lat="45.94316" lon="4.72347">
        <ele>172</ele>
        <time>2017-06-20T10:27:15Z</time>
      </trkpt>
      <trkpt lat="45.94312" lon="4.7234">
        <ele>172</ele>
        <time>2017-06-20T10:27:16Z</time>
      </trkpt>
      <trkpt lat="45.9431" lon="4.72334">
        <ele>172</ele>
        <time>2017-06-20T10:27:17Z</time>
      </trkpt>
      <trkpt lat="45.94307" lon="4.72327">
        <ele>171</ele>
        <time>2017-06-20T10:27:18Z</time>
      </trkpt>
      <trkpt lat="45.94306" lon="4.72319">
        <ele>171</ele>
        <time>2017-06-20T10:27:19Z</time>
      </trkpt>
      <trkpt lat="45.94303" lon="4.72312">
        <ele>171</ele>
        <time>2017-06-20T10:27:20Z</time>
      </trkpt>
      <trkpt lat="45.94296" lon="4.72304">
        <ele>171</ele>
        <time>2017-06-20T10:27:21Z</time>
      </trkpt>
      <trkpt lat="45.94293" lon="4.72297">
        <ele>171</ele>
        <time>2017-06-20T10:27:22Z</time>
      </trkpt>
      <trkpt lat="45.94288" lon="4.72291">
        <ele>171</ele>
        <time>2017-06-20T10:27:23Z</time>
      </trkpt>
      <trkpt lat="45.94285" lon="4.72284">
        <ele>171</ele>
        <time>2017-06-20T10:27:24Z</time>
      </trkpt>
      <trkpt lat="45.94282" lon="4.7228">
        <ele>171</ele>
        <time>2017-06-20T10:27:25Z</time>
      </trkpt>
      <trkpt lat="45.94276" lon="4.72278">
        <ele>171</ele>
        <time>2017-06-20T10:27:26Z</time>
      </trkpt>
      <trkpt lat="45.9427" lon="4.72278">
        <ele>171</ele>
        <time>2017-06-20T10:27:27Z</time>
      </trkpt>
      <trkpt lat="45.94264" lon="4.72278">
        <ele>171</ele>
        <time>2017-06-20T10:27:28Z</time>
      </trkpt>
      <trkpt lat="45.94258" lon="4.72279">
        <ele>171</ele>
        <time>2017-06-20T10:27:29Z</time>
      </trkpt>
      <trkpt lat="45.94252" lon="4.72281">
        <ele>171</ele>
        <time>2017-06-20T10:27:30Z</time>
      </trkpt>
      <trkpt lat="45.94246" lon="4.72283">
        <ele>171</ele>
        <time>2017-06-20T10:27:31Z</time>
      </trkpt>
      <trkpt lat="45.94239" lon="4.72284">
        <ele>171</ele>
        <time>2017-06-20T10:27:32Z</time>
      </trkpt>
      <trkpt lat="45.94233" lon="4.72285">
        <ele>171</ele>
        <time>2017-06-20T10:27:33Z</time>
      </trkpt>
      <trkpt lat="45.94227" lon="4.72286">
        <ele>171</ele>
        <time>2017-06-20T10:27:34Z</time>
      </trkpt>
      <trkpt lat="45.94221" lon="4.72287">
        <ele>171</ele>
        <time>2017-06-20T10:27:35Z</time>
      </trkpt>
      <trkpt lat="45.94214" lon="4.72287">
        <ele>171</ele>
        <time>2017-06-20T10:27:36Z</time>
      </trkpt>
      <trkpt lat="45.94209" lon="4.72288">
        <ele>171</ele>
        <time>2017-06-20T10:27:37Z</time>
      </trkpt>
      <trkpt lat="45.94203" lon="4.72288">
        <ele>171</ele>
        <time>2017-06-20T10:27:38Z</time>
      </trkpt>
      <trkpt lat="45.94198" lon="4.72288">
        <ele>171</ele>
        <time>2017-06-20T10:27:39Z</time>
      </trkpt>
      <trkpt lat="45.94192" lon="4.72287">
        <ele>171</ele>
        <time>2017-06-20T10:27:40Z</time>
      </trkpt>
      <trkpt lat="45.94187" lon="4.72287">
        <ele>171</ele>
        <time>2017-06-20T10:27:41Z</time>
      </trkpt>
      <trkpt lat="45.94182" lon="4.72287">
        <ele>171</ele>
        <time>2017-06-20T10:27:42Z</time>
      </trkpt>
      <trkpt lat="45.94177" lon="4.72287">
        <ele>171</ele>
        <time>2017-06-20T10:27:43Z</time>
      </trkpt>
      <trkpt lat="45.94173" lon="4.72287">
        <ele>171</ele>
        <time>2017-06-20T10:27:44Z</time>
      </trkpt>
      <trkpt lat="45.94167" lon="4.72287">
        <ele>171</ele>
        <time>2017-06-20T10:27:45Z</time>
      </trkpt>
      <trkpt lat="45.94162" lon="4.72286">
        <ele>171</ele>
        <time>2017-06-20T10:27:46Z</time>
      </trkpt>
      <trkpt lat="45.94158" lon="4.72284">
        <ele>171</ele>
        <time>2017-06-20T10:27:47Z</time>
      </trkpt>
      <trkpt lat="45.94153" lon="4.72283">
        <ele>171</ele>
        <time>2017-06-20T10:27:48Z</time>
      </trkpt>
      <trkpt lat="45.94148" lon="4.72281">
        <ele>171</ele>
        <time>2017-06-20T10:27:49Z</time>
      </trkpt>
      <trkpt lat="45.94144" lon="4.72279">
        <ele>171</ele>
        <time>2017-06-20T10:27:50Z</time>
      </trkpt>
      <trkpt lat="45.94139" lon="4.72277">
        <ele>171</ele>
        <time>2017-06-20T10:27:51Z</time>
      </trkpt>
      <trkpt lat="45.94134" lon="4.72275">
        <ele>171</ele>
        <time>2017-06-20T10:27:52Z</time>
      </trkpt>
      <trkpt lat="45.94129" lon="4.72272">
        <ele>171</ele>
        <time>2017-06-20T10:27:53Z</time>
      </trkpt>
      <trkpt lat="45.94124" lon="4.7227">
        <ele>171</ele>
        <time>2017-06-20T10:27:54Z</time>
      </trkpt>
      <trkpt lat="45.94119" lon="4.72268">
        <ele>171</ele>
        <time>2017-06-20T10:27:55Z</time>
      </trkpt>
      <trkpt lat="45.94113" lon="4.72266">
        <ele>171</ele>
        <time>2017-06-20T10:27:56Z</time>
      </trkpt>
      <trkpt lat="45.94108" lon="4.72265">
        <ele>171</ele>
        <time>2017-06-20T10:27:57Z</time>
      </trkpt>
      <trkpt lat="45.94103" lon="4.72264">
        <ele>171</ele>
        <time>2017-06-20T10:27:58Z</time>
      </trkpt>
      <trkpt lat="45.94098" lon="4.72264">
        <ele>171</ele>
        <time>2017-06-20T10:27:59Z</time>
      </trkpt>
      <trkpt lat="45.94093" lon="4.72265">
        <ele>171</ele>
        <time>2017-06-20T10:28:00Z</time>
      </trkpt>
      <trkpt lat="45.94088" lon="4.72266">
        <ele>171</ele>
        <time>2017-06-20T10:28:01Z</time>
      </trkpt>
      <trkpt lat="45.94083" lon="4.72268">
        <ele>171</ele>
        <time>2017-06-20T10:28:02Z</time>
      </trkpt>
      <trkpt lat="45.94077" lon="4.72272">
        <ele>171</ele>
        <time>2017-06-20T10:28:03Z</time>
      </trkpt>
      <trkpt lat="45.94072" lon="4.72276">
        <ele>171</ele>
        <time>2017-06-20T10:28:04Z</time>
      </trkpt>
      <trkpt lat="45.94067" lon="4.72282">
        <ele>171</ele>
        <time>2017-06-20T10:28:05Z</time>
      </trkpt>
      <trkpt lat="45.94062" lon="4.72287">
        <ele>171</ele>
        <time>2017-06-20T10:28:06Z</time>
      </trkpt>
      <trkpt lat="45.94058" lon="4.72293">
        <ele>171</ele>
        <time>2017-06-20T10:28:07Z</time>
      </trkpt>
      <trkpt lat="45.94054" lon="4.72299">
        <ele>171</ele>
        <time>2017-06-20T10:28:08Z</time>
      </trkpt>
      <trkpt lat="45.94049" lon="4.72305">
        <ele>171</ele>
        <time>2017-06-20T10:28:09Z</time>
      </trkpt>
      <trkpt lat="45.94045" lon="4.72311">
        <ele>171</ele>
        <time>2017-06-20T10:28:10Z</time>
      </trkpt>
      <trkpt lat="45.94041" lon="4.72316">
        <ele>171</ele>
        <time>2017-06-20T10:28:11Z</time>
      </trkpt>
      <trkpt lat="45.94037" lon="4.72322">
        <ele>171</ele>
        <time>2017-06-20T10:28:12Z</time>
      </trkpt>
      <trkpt lat="45.94033" lon="4.72327">
        <ele>171</ele>
        <time>2017-06-20T10:28:13Z</time>
      </trkpt>
      <trkpt lat="45.94029" lon="4.72332">
        <ele>171</ele>
        <time>2017-06-20T10:28:14Z</time>
      </trkpt>
      <trkpt lat="45.94025" lon="4.72337">
        <ele>171</ele>
        <time>2017-06-20T10:28:15Z</time>
      </trkpt>
      <trkpt lat="45.94021" lon="4.72342">
        <ele>171</ele>
        <time>2017-06-20T10:28:16Z</time>
      </trkpt>
      <trkpt lat="45.94017" lon="4.72346">
        <ele>171</ele>
        <time>2017-06-20T10:28:17Z</time>
      </trkpt>
      <trkpt lat="45.94013" lon="4.72351">
        <ele>171</ele>
        <time>2017-06-20T10:28:18Z</time>
      </trkpt>
      <trkpt lat="45.94009" lon="4.72355">
        <ele>171</ele>
        <time>2017-06-20T10:28:19Z</time>
      </trkpt>
      <trkpt lat="45.94005" lon="4.7236">
        <ele>171</ele>
        <time>2017-06-20T10:28:20Z</time>
      </trkpt>
      <trkpt lat="45.94002" lon="4.72366">
        <ele>171</ele>
        <time>2017-06-20T10:28:21Z</time>
      </trkpt>
      <trkpt lat="45.93999" lon="4.7237">
        <ele>171</ele>
        <time>2017-06-20T10:28:22Z</time>
      </trkpt>
      <trkpt lat="45.93995" lon="4.72375">
        <ele>171</ele>
        <time>2017-06-20T10:28:23Z</time>
      </trkpt>
      <trkpt lat="45.93991" lon="4.72379">
        <ele>171</ele>
        <time>2017-06-20T10:28:24Z</time>
      </trkpt>
      <trkpt lat="45.93987" lon="4.72384">
        <ele>171</ele>
        <time>2017-06-20T10:28:25Z</time>
      </trkpt>
      <trkpt lat="45.93983" lon="4.72389">
        <ele>171</ele>
        <time>2017-06-20T10:28:26Z</time>
      </trkpt>
      <trkpt lat="45.9398" lon="4.72394">
        <ele>171</ele>
        <time>2017-06-20T10:28:27Z</time>
      </trkpt>
      <trkpt lat="45.93974" lon="4.72402">
        <ele>171</ele>
        <time>2017-06-20T10:28:29Z</time>
      </trkpt>
      <trkpt lat="45.9397" lon="4.72407">
        <ele>171</ele>
        <time>2017-06-20T10:28:30Z</time>
      </trkpt>
      <trkpt lat="45.93966" lon="4.72412">
        <ele>171</ele>
        <time>2017-06-20T10:28:31Z</time>
      </trkpt>
      <trkpt lat="45.93962" lon="4.72417">
        <ele>171</ele>
        <time>2017-06-20T10:28:32Z</time>
      </trkpt>
      <trkpt lat="45.93958" lon="4.72422">
        <ele>171</ele>
        <time>2017-06-20T10:28:33Z</time>
      </trkpt>
      <trkpt lat="45.93953" lon="4.72427">
        <ele>171</ele>
        <time>2017-06-20T10:28:34Z</time>
      </trkpt>
      <trkpt lat="45.93949" lon="4.72431">
        <ele>171</ele>
        <time>2017-06-20T10:28:35Z</time>
      </trkpt>
      <trkpt lat="45.93944" lon="4.72436">
        <ele>171</ele>
        <time>2017-06-20T10:28:36Z</time>
      </trkpt>
      <trkpt lat="45.9394" lon="4.72441">
        <ele>171</ele>
        <time>2017-06-20T10:28:37Z</time>
      </trkpt>
      <trkpt lat="45.93935" lon="4.72447">
        <ele>171</ele>
        <time>2017-06-20T10:28:38Z</time>
      </trkpt>
      <trkpt lat="45.9393" lon="4.72452">
        <ele>171</ele>
        <time>2017-06-20T10:28:39Z</time>
      </trkpt>
      <trkpt lat="45.93926" lon="4.72458">
        <ele>171</ele>
        <time>2017-06-20T10:28:40Z</time>
      </trkpt>
      <trkpt lat="45.93921" lon="4.72464">
        <ele>171</ele>
        <time>2017-06-20T10:28:41Z</time>
      </trkpt>
      <trkpt lat="45.93917" lon="4.72469">
        <ele>171</ele>
        <time>2017-06-20T10:28:42Z</time>
      </trkpt>
      <trkpt lat="45.93913" lon="4.72474">
        <ele>172</ele>
        <time>2017-06-20T10:28:43Z</time>
      </trkpt>
      <trkpt lat="45.93909" lon="4.72478">
        <ele>172</ele>
        <time>2017-06-20T10:28:44Z</time>
      </trkpt>
      <trkpt lat="45.93902" lon="4.72485">
        <ele>172</ele>
        <time>2017-06-20T10:28:46Z</time>
      </trkpt>
      <trkpt lat="45.93898" lon="4.72489">
        <ele>172</ele>
        <time>2017-06-20T10:28:47Z</time>
      </trkpt>
      <trkpt lat="45.93892" lon="4.72497">
        <ele>172</ele>
        <time>2017-06-20T10:28:49Z</time>
      </trkpt>
      <trkpt lat="45.93888" lon="4.72501">
        <ele>173</ele>
        <time>2017-06-20T10:28:50Z</time>
      </trkpt>
      <trkpt lat="45.93881" lon="4.72507">
        <ele>173</ele>
        <time>2017-06-20T10:28:52Z</time>
      </trkpt>
      <trkpt lat="45.93877" lon="4.72509">
        <ele>173</ele>
        <time>2017-06-20T10:28:53Z</time>
      </trkpt>
      <trkpt lat="45.93872" lon="4.72511">
        <ele>173</ele>
        <time>2017-06-20T10:28:54Z</time>
      </trkpt>
      <trkpt lat="45.93867" lon="4.7251">
        <ele>173</ele>
        <time>2017-06-20T10:28:55Z</time>
      </trkpt>
      <trkpt lat="45.93863" lon="4.72508">
        <ele>173</ele>
        <time>2017-06-20T10:28:56Z</time>
      </trkpt>
      <trkpt lat="45.93859" lon="4.72505">
        <ele>173</ele>
        <time>2017-06-20T10:28:57Z</time>
      </trkpt>
      <trkpt lat="45.93852" lon="4.72498">
        <ele>173</ele>
        <time>2017-06-20T10:28:59Z</time>
      </trkpt>
      <trkpt lat="45.93849" lon="4.72495">
        <ele>173</ele>
        <time>2017-06-20T10:29:00Z</time>
      </trkpt>
      <trkpt lat="45.93843" lon="4.72488">
        <ele>173</ele>
        <time>2017-06-20T10:29:02Z</time>
      </trkpt>
      <trkpt lat="45.9384" lon="4.72485">
        <ele>173</ele>
        <time>2017-06-20T10:29:03Z</time>
      </trkpt>
      <trkpt lat="45.93837" lon="4.72478">
        <ele>173</ele>
        <time>2017-06-20T10:29:04Z</time>
      </trkpt>
      <trkpt lat="45.93835" lon="4.72474">
        <ele>173</ele>
        <time>2017-06-20T10:29:05Z</time>
      </trkpt>
      <trkpt lat="45.93827" lon="4.7247">
        <ele>172</ele>
        <time>2017-06-20T10:29:07Z</time>
      </trkpt>
      <trkpt lat="45.93822" lon="4.72467">
        <ele>172</ele>
        <time>2017-06-20T10:29:08Z</time>
      </trkpt>
      <trkpt lat="45.93819" lon="4.72464">
        <ele>172</ele>
        <time>2017-06-20T10:29:09Z</time>
      </trkpt>
      <trkpt lat="45.93815" lon="4.7246">
        <ele>172</ele>
        <time>2017-06-20T10:29:10Z</time>
      </trkpt>
      <trkpt lat="45.93809" lon="4.72457">
        <ele>172</ele>
        <time>2017-06-20T10:29:11Z</time>
      </trkpt>
      <trkpt lat="45.93804" lon="4.72454">
        <ele>172</ele>
        <time>2017-06-20T10:29:12Z</time>
      </trkpt>
      <trkpt lat="45.93799" lon="4.7245">
        <ele>172</ele>
        <time>2017-06-20T10:29:13Z</time>
      </trkpt>
      <trkpt lat="45.93794" lon="4.72446">
        <ele>172</ele>
        <time>2017-06-20T10:29:14Z</time>
      </trkpt>
      <trkpt lat="45.93789" lon="4.72443">
        <ele>172</ele>
        <time>2017-06-20T10:29:15Z</time>
      </trkpt>
      <trkpt lat="45.93784" lon="4.72439">
        <ele>172</ele>
        <time>2017-06-20T10:29:16Z</time>
      </trkpt>
      <trkpt lat="45.9378" lon="4.72436">
        <ele>172</ele>
        <time>2017-06-20T10:29:17Z</time>
      </trkpt>
      <trkpt lat="45.93776" lon="4.72432">
        <ele>171</ele>
        <time>2017-06-20T10:29:18Z</time>
      </trkpt>
      <trkpt lat="45.93769" lon="4.72427">
        <ele>171</ele>
        <time>2017-06-20T10:29:20Z</time>
      </trkpt>
      <trkpt lat="45.93766" lon="4.72422">
        <ele>171</ele>
        <time>2017-06-20T10:29:21Z</time>
      </trkpt>
      <trkpt lat="45.93761" lon="4.72416">
        <ele>171</ele>
        <time>2017-06-20T10:29:22Z</time>
      </trkpt>
      <trkpt lat="45.93755" lon="4.72408">
        <ele>171</ele>
        <time>2017-06-20T10:29:23Z</time>
      </trkpt>
      <trkpt lat="45.93751" lon="4.72405">
        <ele>171</ele>
        <time>2017-06-20T10:29:24Z</time>
      </trkpt>
      <trkpt lat="45.93747" lon="4.724">
        <ele>171</ele>
        <time>2017-06-20T10:29:25Z</time>
      </trkpt>
      <trkpt lat="45.9374" lon="4.72394">
        <ele>171</ele>
        <time>2017-06-20T10:29:27Z</time>
      </trkpt>
      <trkpt lat="45.93737" lon="4.72391">
        <ele>171</ele>
        <time>2017-06-20T10:29:28Z</time>
      </trkpt>
      <trkpt lat="45.9373" lon="4.72385">
        <ele>171</ele>
        <time>2017-06-20T10:29:30Z</time>
      </trkpt>
      <trkpt lat="45.93726" lon="4.72381">
        <ele>171</ele>
        <time>2017-06-20T10:29:31Z</time>
      </trkpt>
      <trkpt lat="45.93723" lon="4.72377">
        <ele>171</ele>
        <time>2017-06-20T10:29:32Z</time>
      </trkpt>
      <trkpt lat="45.93719" lon="4.72372">
        <ele>172</ele>
        <time>2017-06-20T10:29:33Z</time>
      </trkpt>
      <trkpt lat="45.93715" lon="4.72368">
        <ele>172</ele>
        <time>2017-06-20T10:29:34Z</time>
      </trkpt>
      <trkpt lat="45.93712" lon="4.72364">
        <ele>172</ele>
        <time>2017-06-20T10:29:35Z</time>
      </trkpt>
      <trkpt lat="45.93705" lon="4.72358">
        <ele>171</ele>
        <time>2017-06-20T10:29:37Z</time>
      </trkpt>
      <trkpt lat="45.93702" lon="4.72354">
        <ele>171</ele>
        <time>2017-06-20T10:29:38Z</time>
      </trkpt>
      <trkpt lat="45.93698" lon="4.72349">
        <ele>171</ele>
        <time>2017-06-20T10:29:40Z</time>
      </trkpt>
      <trkpt lat="45.93695" lon="4.72346">
        <ele>171</ele>
        <time>2017-06-20T10:29:41Z</time>
      </trkpt>
      <trkpt lat="45.93688" lon="4.72342">
        <ele>171</ele>
        <time>2017-06-20T10:29:43Z</time>
      </trkpt>
      <trkpt lat="45.93685" lon="4.7234">
        <ele>171</ele>
        <time>2017-06-20T10:29:44Z</time>
      </trkpt>
      <trkpt lat="45.93678" lon="4.72335">
        <ele>171</ele>
        <time>2017-06-20T10:29:46Z</time>
      </trkpt>
      <trkpt lat="45.93674" lon="4.72331">
        <ele>171</ele>
        <time>2017-06-20T10:29:47Z</time>
      </trkpt>
      <trkpt lat="45.93667" lon="4.72323">
        <ele>171</ele>
        <time>2017-06-20T10:29:49Z</time>
      </trkpt>
      <trkpt lat="45.93663" lon="4.7232">
        <ele>172</ele>
        <time>2017-06-20T10:29:50Z</time>
      </trkpt>
      <trkpt lat="45.93659" lon="4.72315">
        <ele>172</ele>
        <time>2017-06-20T10:29:51Z</time>
      </trkpt>
      <trkpt lat="45.93655" lon="4.7231">
        <ele>172</ele>
        <time>2017-06-20T10:29:52Z</time>
      </trkpt>
      <trkpt lat="45.93651" lon="4.72307">
        <ele>172</ele>
        <time>2017-06-20T10:29:53Z</time>
      </trkpt>
      <trkpt lat="45.93645" lon="4.72303">
        <ele>172</ele>
        <time>2017-06-20T10:29:54Z</time>
      </trkpt>
      <trkpt lat="45.93638" lon="4.72297">
        <ele>172</ele>
        <time>2017-06-20T10:29:56Z</time>
      </trkpt>
      <trkpt lat="45.93635" lon="4.72293">
        <ele>172</ele>
        <time>2017-06-20T10:29:57Z</time>
      </trkpt>
      <trkpt lat="45.93631" lon="4.72289">
        <ele>172</ele>
        <time>2017-06-20T10:29:58Z</time>
      </trkpt>
      <trkpt lat="45.93628" lon="4.72284">
        <ele>172</ele>
        <time>2017-06-20T10:29:59Z</time>
      </trkpt>
      <trkpt lat="45.93624" lon="4.7228">
        <ele>172</ele>
        <time>2017-06-20T10:30:00Z</time>
      </trkpt>
      <trkpt lat="45.93619" lon="4.72277">
        <ele>172</ele>
        <time>2017-06-20T10:30:01Z</time>
      </trkpt>
      <trkpt lat="45.93615" lon="4.72273">
        <ele>172</ele>
        <time>2017-06-20T10:30:02Z</time>
      </trkpt>
      <trkpt lat="45.93611" lon="4.72269">
        <ele>172</ele>
        <time>2017-06-20T10:30:03Z</time>
      </trkpt>
      <trkpt lat="45.93607" lon="4.72266">
        <ele>172</ele>
        <time>2017-06-20T10:30:04Z</time>
      </trkpt>
      <trkpt lat="45.93603" lon="4.72263">
        <ele>173</ele>
        <time>2017-06-20T10:30:05Z</time>
      </trkpt>
      <trkpt lat="45.93595" lon="4.72257">
        <ele>173</ele>
        <time>2017-06-20T10:30:07Z</time>
      </trkpt>
      <trkpt lat="45.93591" lon="4.72253">
        <ele>173</ele>
        <time>2017-06-20T10:30:08Z</time>
      </trkpt>
      <trkpt lat="45.93586" lon="4.72245">
        <ele>173</ele>
        <time>2017-06-20T10:30:10Z</time>
      </trkpt>
      <trkpt lat="45.93583" lon="4.72241">
        <ele>173</ele>
        <time>2017-06-20T10:30:11Z</time>
      </trkpt>
      <trkpt lat="45.93579" lon="4.72236">
        <ele>173</ele>
        <time>2017-06-20T10:30:12Z</time>
      </trkpt>
      <trkpt lat="45.93575" lon="4.72233">
        <ele>173</ele>
        <time>2017-06-20T10:30:13Z</time>
      </trkpt>
      <trkpt lat="45.93569" lon="4.72227">
        <ele>173</ele>
        <time>2017-06-20T10:30:15Z</time>
      </trkpt>
      <trkpt lat="45.93567" lon="4.72225">
        <ele>173</ele>
        <time>2017-06-20T10:30:16Z</time>
      </trkpt>
      <trkpt lat="45.93561" lon="4.72221">
        <ele>173</ele>
        <time>2017-06-20T10:30:19Z</time>
      </trkpt>
      <trkpt lat="45.93559" lon="4.72219">
        <ele>173</ele>
        <time>2017-06-20T10:30:20Z</time>
      </trkpt>
      <trkpt lat="45.93553" lon="4.72222">
        <ele>173</ele>
        <time>2017-06-20T10:30:22Z</time>
      </trkpt>
      <trkpt lat="45.93551" lon="4.72226">
        <ele>172</ele>
        <time>2017-06-20T10:30:23Z</time>
      </trkpt>
      <trkpt lat="45.93547" lon="4.72234">
        <ele>172</ele>
        <time>2017-06-20T10:30:25Z</time>
      </trkpt>
      <trkpt lat="45.93544" lon="4.72239">
        <ele>172</ele>
        <time>2017-06-20T10:30:26Z</time>
      </trkpt>
      <trkpt lat="45.93542" lon="4.72245">
        <ele>172</ele>
        <time>2017-06-20T10:30:27Z</time>
      </trkpt>
      <trkpt lat="45.93539" lon="4.7225">
        <ele>172</ele>
        <time>2017-06-20T10:30:28Z</time>
      </trkpt>
      <trkpt lat="45.93536" lon="4.72255">
        <ele>172</ele>
        <time>2017-06-20T10:30:29Z</time>
      </trkpt>
      <trkpt lat="45.93533" lon="4.7226">
        <ele>172</ele>
        <time>2017-06-20T10:30:30Z</time>
      </trkpt>
      <trkpt lat="45.93531" lon="4.72266">
        <ele>172</ele>
        <time>2017-06-20T10:30:31Z</time>
      </trkpt>
      <trkpt lat="45.93528" lon="4.72272">
        <ele>172</ele>
        <time>2017-06-20T10:30:32Z</time>
      </trkpt>
      <trkpt lat="45.93526" lon="4.72277">
        <ele>172</ele>
        <time>2017-06-20T10:30:33Z</time>
      </trkpt>
      <trkpt lat="45.93523" lon="4.72284">
        <ele>172</ele>
        <time>2017-06-20T10:30:34Z</time>
      </trkpt>
      <trkpt lat="45.9352" lon="4.72289">
        <ele>172</ele>
        <time>2017-06-20T10:30:35Z</time>
      </trkpt>
      <trkpt lat="45.93516" lon="4.72295">
        <ele>172</ele>
        <time>2017-06-20T10:30:36Z</time>
      </trkpt>
      <trkpt lat="45.93513" lon="4.723">
        <ele>172</ele>
        <time>2017-06-20T10:30:37Z</time>
      </trkpt>
      <trkpt lat="45.93509" lon="4.72305">
        <ele>173</ele>
        <time>2017-06-20T10:30:38Z</time>
      </trkpt>
      <trkpt lat="45.93505" lon="4.72311">
        <ele>173</ele>
        <time>2017-06-20T10:30:39Z</time>
      </trkpt>
      <trkpt lat="45.93501" lon="4.72316">
        <ele>173</ele>
        <time>2017-06-20T10:30:40Z</time>
      </trkpt>
      <trkpt lat="45.93497" lon="4.72322">
        <ele>173</ele>
        <time>2017-06-20T10:30:41Z</time>
      </trkpt>
      <trkpt lat="45.93493" lon="4.72327">
        <ele>173</ele>
        <time>2017-06-20T10:30:42Z</time>
      </trkpt>
      <trkpt lat="45.93488" lon="4.72333">
        <ele>173</ele>
        <time>2017-06-20T10:30:43Z</time>
      </trkpt>
      <trkpt lat="45.93484" lon="4.72338">
        <ele>173</ele>
        <time>2017-06-20T10:30:44Z</time>
      </trkpt>
      <trkpt lat="45.9348" lon="4.72343">
        <ele>173</ele>
        <time>2017-06-20T10:30:45Z</time>
      </trkpt>
      <trkpt lat="45.93475" lon="4.72348">
        <ele>173</ele>
        <time>2017-06-20T10:30:46Z</time>
      </trkpt>
      <trkpt lat="45.93472" lon="4.72353">
        <ele>173</ele>
        <time>2017-06-20T10:30:47Z</time>
      </trkpt>
      <trkpt lat="45.93469" lon="4.72358">
        <ele>173</ele>
        <time>2017-06-20T10:30:48Z</time>
      </trkpt>
      <trkpt lat="45.93465" lon="4.72363">
        <ele>173</ele>
        <time>2017-06-20T10:30:49Z</time>
      </trkpt>
      <trkpt lat="45.93461" lon="4.72367">
        <ele>173</ele>
        <time>2017-06-20T10:30:50Z</time>
      </trkpt>
      <trkpt lat="45.93458" lon="4.72372">
        <ele>173</ele>
        <time>2017-06-20T10:30:51Z</time>
      </trkpt>
      <trkpt lat="45.93454" lon="4.72377">
        <ele>173</ele>
        <time>2017-06-20T10:30:52Z</time>
      </trkpt>
      <trkpt lat="45.93449" lon="4.72381">
        <ele>173</ele>
        <time>2017-06-20T10:30:53Z</time>
      </trkpt>
      <trkpt lat="45.93445" lon="4.72385">
        <ele>173</ele>
        <time>2017-06-20T10:30:54Z</time>
      </trkpt>
      <trkpt lat="45.9344" lon="4.72388">
        <ele>173</ele>
        <time>2017-06-20T10:30:55Z</time>
      </trkpt>
      <trkpt lat="45.93436" lon="4.72392">
        <ele>173</ele>
        <time>2017-06-20T10:30:56Z</time>
      </trkpt>
      <trkpt lat="45.93432" lon="4.72395">
        <ele>173</ele>
        <time>2017-06-20T10:30:57Z</time>
      </trkpt>
      <trkpt lat="45.93427" lon="4.72397">
        <ele>174</ele>
        <time>2017-06-20T10:30:58Z</time>
      </trkpt>
      <trkpt lat="45.93423" lon="4.72399">
        <ele>174</ele>
        <time>2017-06-20T10:30:59Z</time>
      </trkpt>
      <trkpt lat="45.93418" lon="4.72401">
        <ele>174</ele>
        <time>2017-06-20T10:31:00Z</time>
      </trkpt>
      <trkpt lat="45.93413" lon="4.72403">
        <ele>174</ele>
        <time>2017-06-20T10:31:01Z</time>
      </trkpt>
      <trkpt lat="45.93408" lon="4.72404">
        <ele>174</ele>
        <time>2017-06-20T10:31:02Z</time>
      </trkpt>
      <trkpt lat="45.93403" lon="4.72404">
        <ele>174</ele>
        <time>2017-06-20T10:31:03Z</time>
      </trkpt>
      <trkpt lat="45.93398" lon="4.72403">
        <ele>174</ele>
        <time>2017-06-20T10:31:04Z</time>
      </trkpt>
      <trkpt lat="45.93393" lon="4.72403">
        <ele>174</ele>
        <time>2017-06-20T10:31:05Z</time>
      </trkpt>
      <trkpt lat="45.93389" lon="4.72407">
        <ele>174</ele>
        <time>2017-06-20T10:31:06Z</time>
      </trkpt>
      <trkpt lat="45.93386" lon="4.72413">
        <ele>174</ele>
        <time>2017-06-20T10:31:07Z</time>
      </trkpt>
      <trkpt lat="45.93385" lon="4.72421">
        <ele>173</ele>
        <time>2017-06-20T10:31:08Z</time>
      </trkpt>
      <trkpt lat="45.93386" lon="4.72428">
        <ele>173</ele>
        <time>2017-06-20T10:31:09Z</time>
      </trkpt>
      <trkpt lat="45.93388" lon="4.72435">
        <ele>173</ele>
        <time>2017-06-20T10:31:10Z</time>
      </trkpt>
      <trkpt lat="45.9339" lon="4.72442">
        <ele>173</ele>
        <time>2017-06-20T10:31:11Z</time>
      </trkpt>
      <trkpt lat="45.93391" lon="4.72449">
        <ele>173</ele>
        <time>2017-06-20T10:31:12Z</time>
      </trkpt>
      <trkpt lat="45.93389" lon="4.72456">
        <ele>173</ele>
        <time>2017-06-20T10:31:13Z</time>
      </trkpt>
      <trkpt lat="45.93387" lon="4.72462">
        <ele>173</ele>
        <time>2017-06-20T10:31:14Z</time>
      </trkpt>
      <trkpt lat="45.93381" lon="4.72471">
        <ele>173</ele>
        <time>2017-06-20T10:31:16Z</time>
      </trkpt>
      <trkpt lat="45.93378" lon="4.72476">
        <ele>173</ele>
        <time>2017-06-20T10:31:17Z</time>
      </trkpt>
      <trkpt lat="45.93374" lon="4.7248">
        <ele>173</ele>
        <time>2017-06-20T10:31:18Z</time>
      </trkpt>
      <trkpt lat="45.9337" lon="4.72485">
        <ele>173</ele>
        <time>2017-06-20T10:31:19Z</time>
      </trkpt>
      <trkpt lat="45.93366" lon="4.7249">
        <ele>173</ele>
        <time>2017-06-20T10:31:20Z</time>
      </trkpt>
      <trkpt lat="45.93363" lon="4.72494">
        <ele>173</ele>
        <time>2017-06-20T10:31:21Z</time>
      </trkpt>
      <trkpt lat="45.93359" lon="4.72499">
        <ele>173</ele>
        <time>2017-06-20T10:31:22Z</time>
      </trkpt>
      <trkpt lat="45.93355" lon="4.72503">
        <ele>172</ele>
        <time>2017-06-20T10:31:23Z</time>
      </trkpt>
      <trkpt lat="45.9335" lon="4.72508">
        <ele>172</ele>
        <time>2017-06-20T10:31:24Z</time>
      </trkpt>
      <trkpt lat="45.93346" lon="4.72513">
        <ele>172</ele>
        <time>2017-06-20T10:31:25Z</time>
      </trkpt>
      <trkpt lat="45.93342" lon="4.72518">
        <ele>172</ele>
        <time>2017-06-20T10:31:26Z</time>
      </trkpt>
      <trkpt lat="45.93337" lon="4.72523">
        <ele>172</ele>
        <time>2017-06-20T10:31:27Z</time>
      </trkpt>
      <trkpt lat="45.93333" lon="4.72527">
        <ele>172</ele>
        <time>2017-06-20T10:31:28Z</time>
      </trkpt>
      <trkpt lat="45.93329" lon="4.72532">
        <ele>172</ele>
        <time>2017-06-20T10:31:29Z</time>
      </trkpt>
      <trkpt lat="45.93325" lon="4.72536">
        <ele>172</ele>
        <time>2017-06-20T10:31:30Z</time>
      </trkpt>
      <trkpt lat="45.93321" lon="4.72539">
        <ele>172</ele>
        <time>2017-06-20T10:31:31Z</time>
      </trkpt>
      <trkpt lat="45.93317" lon="4.72544">
        <ele>172</ele>
        <time>2017-06-20T10:31:32Z</time>
      </trkpt>
      <trkpt lat="45.93314" lon="4.72548">
        <ele>172</ele>
        <time>2017-06-20T10:31:33Z</time>
      </trkpt>
      <trkpt lat="45.9331" lon="4.72552">
        <ele>172</ele>
        <time>2017-06-20T10:31:34Z</time>
      </trkpt>
      <trkpt lat="45.93306" lon="4.72556">
        <ele>172</ele>
        <time>2017-06-20T10:31:35Z</time>
      </trkpt>
      <trkpt lat="45.93302" lon="4.72561">
        <ele>172</ele>
        <time>2017-06-20T10:31:36Z</time>
      </trkpt>
      <trkpt lat="45.93297" lon="4.72565">
        <ele>172</ele>
        <time>2017-06-20T10:31:37Z</time>
      </trkpt>
      <trkpt lat="45.93293" lon="4.7257">
        <ele>172</ele>
        <time>2017-06-20T10:31:38Z</time>
      </trkpt>
      <trkpt lat="45.9329" lon="4.72574">
        <ele>172</ele>
        <time>2017-06-20T10:31:39Z</time>
      </trkpt>
      <trkpt lat="45.93283" lon="4.72582">
        <ele>171</ele>
        <time>2017-06-20T10:31:41Z</time>
      </trkpt>
      <trkpt lat="45.9328" lon="4.72586">
        <ele>170</ele>
        <time>2017-06-20T10:31:42Z</time>
      </trkpt>
      <trkpt lat="45.93276" lon="4.72591">
        <ele>170</ele>
        <time>2017-06-20T10:31:43Z</time>
      </trkpt>
      <trkpt lat="45.93273" lon="4.72595">
        <ele>170</ele>
        <time>2017-06-20T10:31:44Z</time>
      </trkpt>
      <trkpt lat="45.93269" lon="4.726">
        <ele>170</ele>
        <time>2017-06-20T10:31:45Z</time>
      </trkpt>
      <trkpt lat="45.93265" lon="4.72604">
        <ele>170</ele>
        <time>2017-06-20T10:31:46Z</time>
      </trkpt>
      <trkpt lat="45.93261" lon="4.72609">
        <ele>170</ele>
        <time>2017-06-20T10:31:47Z</time>
      </trkpt>
      <trkpt lat="45.93257" lon="4.72614">
        <ele>170</ele>
        <time>2017-06-20T10:31:48Z</time>
      </trkpt>
      <trkpt lat="45.93253" lon="4.72619">
        <ele>170</ele>
        <time>2017-06-20T10:31:49Z</time>
      </trkpt>
      <trkpt lat="45.93248" lon="4.72624">
        <ele>170</ele>
        <time>2017-06-20T10:31:50Z</time>
      </trkpt>
      <trkpt lat="45.93244" lon="4.72629">
        <ele>170</ele>
        <time>2017-06-20T10:31:51Z</time>
      </trkpt>
      <trkpt lat="45.9324" lon="4.72633">
        <ele>170</ele>
        <time>2017-06-20T10:31:52Z</time>
      </trkpt>
      <trkpt lat="45.93236" lon="4.72638">
        <ele>170</ele>
        <time>2017-06-20T10:31:53Z</time>
      </trkpt>
      <trkpt lat="45.93232" lon="4.72642">
        <ele>170</ele>
        <time>2017-06-20T10:31:54Z</time>
      </trkpt>
      <trkpt lat="45.93229" lon="4.72647">
        <ele>170</ele>
        <time>2017-06-20T10:31:55Z</time>
      </trkpt>
      <trkpt lat="45.93225" lon="4.7265">
        <ele>170</ele>
        <time>2017-06-20T10:31:56Z</time>
      </trkpt>
      <trkpt lat="45.93218" lon="4.72659">
        <ele>170</ele>
        <time>2017-06-20T10:31:58Z</time>
      </trkpt>
      <trkpt lat="45.93214" lon="4.72662">
        <ele>170</ele>
        <time>2017-06-20T10:31:59Z</time>
      </trkpt>
      <trkpt lat="45.93211" lon="4.72667">
        <ele>169</ele>
        <time>2017-06-20T10:32:00Z</time>
      </trkpt>
      <trkpt lat="45.93207" lon="4.72673">
        <ele>169</ele>
        <time>2017-06-20T10:32:01Z</time>
      </trkpt>
      <trkpt lat="45.93203" lon="4.72679">
        <ele>169</ele>
        <time>2017-06-20T10:32:02Z</time>
      </trkpt>
      <trkpt lat="45.93199" lon="4.72684">
        <ele>169</ele>
        <time>2017-06-20T10:32:03Z</time>
      </trkpt>
      <trkpt lat="45.93195" lon="4.72689">
        <ele>169</ele>
        <time>2017-06-20T10:32:04Z</time>
      </trkpt>
      <trkpt lat="45.93191" lon="4.72694">
        <ele>169</ele>
        <time>2017-06-20T10:32:05Z</time>
      </trkpt>
      <trkpt lat="45.93187" lon="4.727">
        <ele>169</ele>
        <time>2017-06-20T10:32:06Z</time>
      </trkpt>
      <trkpt lat="45.93182" lon="4.72705">
        <ele>169</ele>
        <time>2017-06-20T10:32:07Z</time>
      </trkpt>
      <trkpt lat="45.93178" lon="4.7271">
        <ele>169</ele>
        <time>2017-06-20T10:32:08Z</time>
      </trkpt>
      <trkpt lat="45.93173" lon="4.72715">
        <ele>170</ele>
        <time>2017-06-20T10:32:09Z</time>
      </trkpt>
      <trkpt lat="45.93169" lon="4.7272">
        <ele>170</ele>
        <time>2017-06-20T10:32:10Z</time>
      </trkpt>
      <trkpt lat="45.93164" lon="4.72724">
        <ele>170</ele>
        <time>2017-06-20T10:32:11Z</time>
      </trkpt>
      <trkpt lat="45.9316" lon="4.72729">
        <ele>170</ele>
        <time>2017-06-20T10:32:12Z</time>
      </trkpt>
      <trkpt lat="45.93155" lon="4.72734">
        <ele>170</ele>
        <time>2017-06-20T10:32:13Z</time>
      </trkpt>
      <trkpt lat="45.93151" lon="4.72738">
        <ele>170</ele>
        <time>2017-06-20T10:32:14Z</time>
      </trkpt>
      <trkpt lat="45.93147" lon="4.72743">
        <ele>170</ele>
        <time>2017-06-20T10:32:15Z</time>
      </trkpt>
      <trkpt lat="45.93143" lon="4.72748">
        <ele>170</ele>
        <time>2017-06-20T10:32:16Z</time>
      </trkpt>
      <trkpt lat="45.93138" lon="4.72753">
        <ele>171</ele>
        <time>2017-06-20T10:32:17Z</time>
      </trkpt>
      <trkpt lat="45.93134" lon="4.72759">
        <ele>171</ele>
        <time>2017-06-20T10:32:18Z</time>
      </trkpt>
      <trkpt lat="45.9313" lon="4.72764">
        <ele>171</ele>
        <time>2017-06-20T10:32:19Z</time>
      </trkpt>
      <trkpt lat="45.93125" lon="4.7277">
        <ele>171</ele>
        <time>2017-06-20T10:32:20Z</time>
      </trkpt>
      <trkpt lat="45.93121" lon="4.72775">
        <ele>171</ele>
        <time>2017-06-20T10:32:21Z</time>
      </trkpt>
      <trkpt lat="45.93117" lon="4.7278">
        <ele>171</ele>
        <time>2017-06-20T10:32:22Z</time>
      </trkpt>
      <trkpt lat="45.93113" lon="4.72785">
        <ele>171</ele>
        <time>2017-06-20T10:32:23Z</time>
      </trkpt>
      <trkpt lat="45.93109" lon="4.72789">
        <ele>171</ele>
        <time>2017-06-20T10:32:24Z</time>
      </trkpt>
      <trkpt lat="45.93105" lon="4.72794">
        <ele>171</ele>
        <time>2017-06-20T10:32:25Z</time>
      </trkpt>
      <trkpt lat="45.93101" lon="4.72798">
        <ele>171</ele>
        <time>2017-06-20T10:32:26Z</time>
      </trkpt>
      <trkpt lat="45.93097" lon="4.72803">
        <ele>171</ele>
        <time>2017-06-20T10:32:27Z</time>
      </trkpt>
      <trkpt lat="45.93093" lon="4.72807">
        <ele>172</ele>
        <time>2017-06-20T10:32:28Z</time>
      </trkpt>
      <trkpt lat="45.93089" lon="4.72812">
        <ele>172</ele>
        <time>2017-06-20T10:32:29Z</time>
      </trkpt>
      <trkpt lat="45.93085" lon="4.72816">
        <ele>172</ele>
        <time>2017-06-20T10:32:30Z</time>
      </trkpt>
      <trkpt lat="45.93081" lon="4.72819">
        <ele>173</ele>
        <time>2017-06-20T10:32:31Z</time>
      </trkpt>
      <trkpt lat="45.93076" lon="4.72823">
        <ele>173</ele>
        <time>2017-06-20T10:32:32Z</time>
      </trkpt>
      <trkpt lat="45.93072" lon="4.72827">
        <ele>173</ele>
        <time>2017-06-20T10:32:33Z</time>
      </trkpt>
      <trkpt lat="45.93068" lon="4.7283">
        <ele>173</ele>
        <time>2017-06-20T10:32:34Z</time>
      </trkpt>
      <trkpt lat="45.93063" lon="4.72834">
        <ele>173</ele>
        <time>2017-06-20T10:32:35Z</time>
      </trkpt>
      <trkpt lat="45.93062" lon="4.72841">
        <ele>172</ele>
        <time>2017-06-20T10:32:36Z</time>
      </trkpt>
      <trkpt lat="45.93059" lon="4.72846">
        <ele>172</ele>
        <time>2017-06-20T10:32:37Z</time>
      </trkpt>
      <trkpt lat="45.93054" lon="4.72849">
        <ele>172</ele>
        <time>2017-06-20T10:32:38Z</time>
      </trkpt>
      <trkpt lat="45.93051" lon="4.72854">
        <ele>172</ele>
        <time>2017-06-20T10:32:39Z</time>
      </trkpt>
      <trkpt lat="45.93047" lon="4.72859">
        <ele>172</ele>
        <time>2017-06-20T10:32:40Z</time>
      </trkpt>
      <trkpt lat="45.93043" lon="4.72864">
        <ele>172</ele>
        <time>2017-06-20T10:32:41Z</time>
      </trkpt>
      <trkpt lat="45.93039" lon="4.7287">
        <ele>172</ele>
        <time>2017-06-20T10:32:42Z</time>
      </trkpt>
      <trkpt lat="45.93035" lon="4.72874">
        <ele>172</ele>
        <time>2017-06-20T10:32:43Z</time>
      </trkpt>
      <trkpt lat="45.9303" lon="4.72879">
        <ele>172</ele>
        <time>2017-06-20T10:32:44Z</time>
      </trkpt>
      <trkpt lat="45.93026" lon="4.72883">
        <ele>172</ele>
        <time>2017-06-20T10:32:45Z</time>
      </trkpt>
      <trkpt lat="45.93022" lon="4.72889">
        <ele>172</ele>
        <time>2017-06-20T10:32:46Z</time>
      </trkpt>
      <trkpt lat="45.93017" lon="4.72894">
        <ele>172</ele>
        <time>2017-06-20T10:32:47Z</time>
      </trkpt>
      <trkpt lat="45.93013" lon="4.729">
        <ele>172</ele>
        <time>2017-06-20T10:32:48Z</time>
      </trkpt>
      <trkpt lat="45.93008" lon="4.72905">
        <ele>171</ele>
        <time>2017-06-20T10:32:49Z</time>
      </trkpt>
      <trkpt lat="45.93004" lon="4.72911">
        <ele>171</ele>
        <time>2017-06-20T10:32:50Z</time>
      </trkpt>
      <trkpt lat="45.92999" lon="4.72916">
        <ele>171</ele>
        <time>2017-06-20T10:32:51Z</time>
      </trkpt>
      <trkpt lat="45.92994" lon="4.72921">
        <ele>171</ele>
        <time>2017-06-20T10:32:52Z</time>
      </trkpt>
      <trkpt lat="45.9299" lon="4.72926">
        <ele>171</ele>
        <time>2017-06-20T10:32:53Z</time>
      </trkpt>
      <trkpt lat="45.92986" lon="4.7293">
        <ele>171</ele>
        <time>2017-06-20T10:32:54Z</time>
      </trkpt>
      <trkpt lat="45.92982" lon="4.72935">
        <ele>171</ele>
        <time>2017-06-20T10:32:55Z</time>
      </trkpt>
      <trkpt lat="45.92978" lon="4.72939">
        <ele>171</ele>
        <time>2017-06-20T10:32:56Z</time>
      </trkpt>
      <trkpt lat="45.92975" lon="4.72943">
        <ele>171</ele>
        <time>2017-06-20T10:32:57Z</time>
      </trkpt>
      <trkpt lat="45.92971" lon="4.72947">
        <ele>171</ele>
        <time>2017-06-20T10:32:58Z</time>
      </trkpt>
      <trkpt lat="45.92968" lon="4.72951">
        <ele>171</ele>
        <time>2017-06-20T10:32:59Z</time>
      </trkpt>
      <trkpt lat="45.92965" lon="4.72956">
        <ele>171</ele>
        <time>2017-06-20T10:33:00Z</time>
      </trkpt>
      <trkpt lat="45.92961" lon="4.72961">
        <ele>171</ele>
        <time>2017-06-20T10:33:01Z</time>
      </trkpt>
      <trkpt lat="45.92957" lon="4.72965">
        <ele>171</ele>
        <time>2017-06-20T10:33:02Z</time>
      </trkpt>
      <trkpt lat="45.92954" lon="4.72969">
        <ele>171</ele>
        <time>2017-06-20T10:33:03Z</time>
      </trkpt>
      <trkpt lat="45.9295" lon="4.72974">
        <ele>171</ele>
        <time>2017-06-20T10:33:04Z</time>
      </trkpt>
      <trkpt lat="45.92947" lon="4.72978">
        <ele>171</ele>
        <time>2017-06-20T10:33:05Z</time>
      </trkpt>
      <trkpt lat="45.92943" lon="4.72983">
        <ele>171</ele>
        <time>2017-06-20T10:33:06Z</time>
      </trkpt>
      <trkpt lat="45.92939" lon="4.72988">
        <ele>171</ele>
        <time>2017-06-20T10:33:07Z</time>
      </trkpt>
      <trkpt lat="45.92935" lon="4.72993">
        <ele>172</ele>
        <time>2017-06-20T10:33:08Z</time>
      </trkpt>
      <trkpt lat="45.92931" lon="4.72999">
        <ele>172</ele>
        <time>2017-06-20T10:33:09Z</time>
      </trkpt>
      <trkpt lat="45.92927" lon="4.73004">
        <ele>172</ele>
        <time>2017-06-20T10:33:10Z</time>
      </trkpt>
      <trkpt lat="45.92923" lon="4.73009">
        <ele>172</ele>
        <time>2017-06-20T10:33:11Z</time>
      </trkpt>
      <trkpt lat="45.92919" lon="4.73013">
        <ele>172</ele>
        <time>2017-06-20T10:33:12Z</time>
      </trkpt>
      <trkpt lat="45.92915" lon="4.73019">
        <ele>172</ele>
        <time>2017-06-20T10:33:13Z</time>
      </trkpt>
      <trkpt lat="45.92911" lon="4.73024">
        <ele>172</ele>
        <time>2017-06-20T10:33:14Z</time>
      </trkpt>
      <trkpt lat="45.92907" lon="4.73029">
        <ele>172</ele>
        <time>2017-06-20T10:33:15Z</time>
      </trkpt>
      <trkpt lat="45.92903" lon="4.73034">
        <ele>172</ele>
        <time>2017-06-20T10:33:16Z</time>
      </trkpt>
      <trkpt lat="45.92899" lon="4.73039">
        <ele>172</ele>
        <time>2017-06-20T10:33:17Z</time>
      </trkpt>
      <trkpt lat="45.92896" lon="4.73045">
        <ele>172</ele>
        <time>2017-06-20T10:33:18Z</time>
      </trkpt>
      <trkpt lat="45.92892" lon="4.7305">
        <ele>172</ele>
        <time>2017-06-20T10:33:19Z</time>
      </trkpt>
      <trkpt lat="45.92889" lon="4.73055">
        <ele>172</ele>
        <time>2017-06-20T10:33:20Z</time>
      </trkpt>
      <trkpt lat="45.92886" lon="4.7306">
        <ele>172</ele>
        <time>2017-06-20T10:33:21Z</time>
      </trkpt>
      <trkpt lat="45.92882" lon="4.73065">
        <ele>172</ele>
        <time>2017-06-20T10:33:22Z</time>
      </trkpt>
      <trkpt lat="45.92879" lon="4.7307">
        <ele>172</ele>
        <time>2017-06-20T10:33:23Z</time>
      </trkpt>
      <trkpt lat="45.92875" lon="4.73074">
        <ele>172</ele>
        <time>2017-06-20T10:33:24Z</time>
      </trkpt>
      <trkpt lat="45.92872" lon="4.73079">
        <ele>172</ele>
        <time>2017-06-20T10:33:25Z</time>
      </trkpt>
      <trkpt lat="45.92868" lon="4.73084">
        <ele>172</ele>
        <time>2017-06-20T10:33:26Z</time>
      </trkpt>
      <trkpt lat="45.92865" lon="4.73089">
        <ele>172</ele>
        <time>2017-06-20T10:33:27Z</time>
      </trkpt>
      <trkpt lat="45.92861" lon="4.73094">
        <ele>171</ele>
        <time>2017-06-20T10:33:28Z</time>
      </trkpt>
      <trkpt lat="45.92857" lon="4.73097">
        <ele>171</ele>
        <time>2017-06-20T10:33:29Z</time>
      </trkpt>
      <trkpt lat="45.92849" lon="4.73095">
        <ele>171</ele>
        <time>2017-06-20T10:33:32Z</time>
      </trkpt>
      <trkpt lat="45.92847" lon="4.73091">
        <ele>171</ele>
        <time>2017-06-20T10:33:33Z</time>
      </trkpt>
      <trkpt lat="45.92845" lon="4.7308">
        <ele>171</ele>
        <time>2017-06-20T10:33:35Z</time>
      </trkpt>
      <trkpt lat="45.92844" lon="4.73074">
        <ele>171</ele>
        <time>2017-06-20T10:33:36Z</time>
      </trkpt>
      <trkpt lat="45.92843" lon="4.73066">
        <ele>171</ele>
        <time>2017-06-20T10:33:37Z</time>
      </trkpt>
      <trkpt lat="45.92842" lon="4.73059">
        <ele>171</ele>
        <time>2017-06-20T10:33:38Z</time>
      </trkpt>
      <trkpt lat="45.92841" lon="4.73052">
        <ele>171</ele>
        <time>2017-06-20T10:33:39Z</time>
      </trkpt>
      <trkpt lat="45.92839" lon="4.73045">
        <ele>171</ele>
        <time>2017-06-20T10:33:40Z</time>
      </trkpt>
      <trkpt lat="45.92838" lon="4.73039">
        <ele>171</ele>
        <time>2017-06-20T10:33:41Z</time>
      </trkpt>
      <trkpt lat="45.92837" lon="4.73032">
        <ele>171</ele>
        <time>2017-06-20T10:33:42Z</time>
      </trkpt>
      <trkpt lat="45.92836" lon="4.73026">
        <ele>171</ele>
        <time>2017-06-20T10:33:43Z</time>
      </trkpt>
      <trkpt lat="45.92835" lon="4.73019">
        <ele>171</ele>
        <time>2017-06-20T10:33:44Z</time>
      </trkpt>
      <trkpt lat="45.92834" lon="4.73013">
        <ele>171</ele>
        <time>2017-06-20T10:33:45Z</time>
      </trkpt>
      <trkpt lat="45.92833" lon="4.73007">
        <ele>170</ele>
        <time>2017-06-20T10:33:46Z</time>
      </trkpt>
      <trkpt lat="45.92832" lon="4.73">
        <ele>170</ele>
        <time>2017-06-20T10:33:47Z</time>
      </trkpt>
      <trkpt lat="45.92831" lon="4.72993">
        <ele>170</ele>
        <time>2017-06-20T10:33:48Z</time>
      </trkpt>
      <trkpt lat="45.9283" lon="4.72986">
        <ele>170</ele>
        <time>2017-06-20T10:33:49Z</time>
      </trkpt>
      <trkpt lat="45.9283" lon="4.72979">
        <ele>170</ele>
        <time>2017-06-20T10:33:50Z</time>
      </trkpt>
      <trkpt lat="45.92829" lon="4.72972">
        <ele>170</ele>
        <time>2017-06-20T10:33:51Z</time>
      </trkpt>
      <trkpt lat="45.92829" lon="4.72966">
        <ele>170</ele>
        <time>2017-06-20T10:33:52Z</time>
      </trkpt>
      <trkpt lat="45.92829" lon="4.72959">
        <ele>170</ele>
        <time>2017-06-20T10:33:53Z</time>
      </trkpt>
      <trkpt lat="45.92828" lon="4.72951">
        <ele>170</ele>
        <time>2017-06-20T10:33:54Z</time>
      </trkpt>
      <trkpt lat="45.92827" lon="4.72944">
        <ele>170</ele>
        <time>2017-06-20T10:33:55Z</time>
      </trkpt>
      <trkpt lat="45.92827" lon="4.72937">
        <ele>170</ele>
        <time>2017-06-20T10:33:56Z</time>
      </trkpt>
      <trkpt lat="45.92826" lon="4.7293">
        <ele>170</ele>
        <time>2017-06-20T10:33:57Z</time>
      </trkpt>
      <trkpt lat="45.92825" lon="4.72923">
        <ele>170</ele>
        <time>2017-06-20T10:33:58Z</time>
      </trkpt>
      <trkpt lat="45.92825" lon="4.72915">
        <ele>170</ele>
        <time>2017-06-20T10:33:59Z</time>
      </trkpt>
      <trkpt lat="45.92824" lon="4.72909">
        <ele>170</ele>
        <time>2017-06-20T10:34:00Z</time>
      </trkpt>
      <trkpt lat="45.92823" lon="4.72902">
        <ele>170</ele>
        <time>2017-06-20T10:34:01Z</time>
      </trkpt>
      <trkpt lat="45.92823" lon="4.72896">
        <ele>170</ele>
        <time>2017-06-20T10:34:02Z</time>
      </trkpt>
      <trkpt lat="45.92821" lon="4.7289">
        <ele>170</ele>
        <time>2017-06-20T10:34:03Z</time>
      </trkpt>
      <trkpt lat="45.92819" lon="4.72883">
        <ele>170</ele>
        <time>2017-06-20T10:34:04Z</time>
      </trkpt>
      <trkpt lat="45.92817" lon="4.72876">
        <ele>170</ele>
        <time>2017-06-20T10:34:05Z</time>
      </trkpt>
      <trkpt lat="45.92816" lon="4.72868">
        <ele>170</ele>
        <time>2017-06-20T10:34:06Z</time>
      </trkpt>
      <trkpt lat="45.92814" lon="4.72861">
        <ele>170</ele>
        <time>2017-06-20T10:34:07Z</time>
      </trkpt>
      <trkpt lat="45.92813" lon="4.72854">
        <ele>170</ele>
        <time>2017-06-20T10:34:08Z</time>
      </trkpt>
      <trkpt lat="45.92812" lon="4.72847">
        <ele>170</ele>
        <time>2017-06-20T10:34:09Z</time>
      </trkpt>
      <trkpt lat="45.92811" lon="4.7284">
        <ele>170</ele>
        <time>2017-06-20T10:34:10Z</time>
      </trkpt>
      <trkpt lat="45.92809" lon="4.72828">
        <ele>171</ele>
        <time>2017-06-20T10:34:12Z</time>
      </trkpt>
      <trkpt lat="45.92808" lon="4.72822">
        <ele>171</ele>
        <time>2017-06-20T10:34:13Z</time>
      </trkpt>
      <trkpt lat="45.92807" lon="4.72815">
        <ele>171</ele>
        <time>2017-06-20T10:34:14Z</time>
      </trkpt>
      <trkpt lat="45.92806" lon="4.72809">
        <ele>171</ele>
        <time>2017-06-20T10:34:15Z</time>
      </trkpt>
      <trkpt lat="45.92805" lon="4.72802">
        <ele>171</ele>
        <time>2017-06-20T10:34:16Z</time>
      </trkpt>
      <trkpt lat="45.92804" lon="4.72796">
        <ele>171</ele>
        <time>2017-06-20T10:34:17Z</time>
      </trkpt>
      <trkpt lat="45.92798" lon="4.72787">
        <ele>171</ele>
        <time>2017-06-20T10:34:19Z</time>
      </trkpt>
      <trkpt lat="45.92794" lon="4.72787">
        <ele>171</ele>
        <time>2017-06-20T10:34:20Z</time>
      </trkpt>
      <trkpt lat="45.92787" lon="4.72792">
        <ele>170</ele>
        <time>2017-06-20T10:34:22Z</time>
      </trkpt>
      <trkpt lat="45.92783" lon="4.72795">
        <ele>170</ele>
        <time>2017-06-20T10:34:23Z</time>
      </trkpt>
      <trkpt lat="45.92775" lon="4.72801">
        <ele>170</ele>
        <time>2017-06-20T10:34:25Z</time>
      </trkpt>
      <trkpt lat="45.92771" lon="4.72804">
        <ele>170</ele>
        <time>2017-06-20T10:34:26Z</time>
      </trkpt>
      <trkpt lat="45.92764" lon="4.7281">
        <ele>170</ele>
        <time>2017-06-20T10:34:28Z</time>
      </trkpt>
      <trkpt lat="45.9276" lon="4.72814">
        <ele>170</ele>
        <time>2017-06-20T10:34:29Z</time>
      </trkpt>
      <trkpt lat="45.92755" lon="4.72817">
        <ele>170</ele>
        <time>2017-06-20T10:34:30Z</time>
      </trkpt>
      <trkpt lat="45.9275" lon="4.72821">
        <ele>169</ele>
        <time>2017-06-20T10:34:31Z</time>
      </trkpt>
      <trkpt lat="45.92745" lon="4.72824">
        <ele>169</ele>
        <time>2017-06-20T10:34:32Z</time>
      </trkpt>
      <trkpt lat="45.9274" lon="4.72827">
        <ele>169</ele>
        <time>2017-06-20T10:34:33Z</time>
      </trkpt>
      <trkpt lat="45.92735" lon="4.7283">
        <ele>169</ele>
        <time>2017-06-20T10:34:34Z</time>
      </trkpt>
      <trkpt lat="45.92729" lon="4.72834">
        <ele>169</ele>
        <time>2017-06-20T10:34:35Z</time>
      </trkpt>
      <trkpt lat="45.92725" lon="4.72837">
        <ele>169</ele>
        <time>2017-06-20T10:34:36Z</time>
      </trkpt>
      <trkpt lat="45.9272" lon="4.72841">
        <ele>169</ele>
        <time>2017-06-20T10:34:37Z</time>
      </trkpt>
      <trkpt lat="45.92715" lon="4.72844">
        <ele>169</ele>
        <time>2017-06-20T10:34:38Z</time>
      </trkpt>
      <trkpt lat="45.9271" lon="4.72847">
        <ele>169</ele>
        <time>2017-06-20T10:34:39Z</time>
      </trkpt>
      <trkpt lat="45.92706" lon="4.7285">
        <ele>169</ele>
        <time>2017-06-20T10:34:40Z</time>
      </trkpt>
      <trkpt lat="45.92702" lon="4.72853">
        <ele>169</ele>
        <time>2017-06-20T10:34:41Z</time>
      </trkpt>
      <trkpt lat="45.92698" lon="4.72857">
        <ele>169</ele>
        <time>2017-06-20T10:34:42Z</time>
      </trkpt>
      <trkpt lat="45.92694" lon="4.72861">
        <ele>169</ele>
        <time>2017-06-20T10:34:43Z</time>
      </trkpt>
      <trkpt lat="45.9269" lon="4.72864">
        <ele>169</ele>
        <time>2017-06-20T10:34:44Z</time>
      </trkpt>
      <trkpt lat="45.92686" lon="4.72868">
        <ele>169</ele>
        <time>2017-06-20T10:34:45Z</time>
      </trkpt>
      <trkpt lat="45.92681" lon="4.72871">
        <ele>169</ele>
        <time>2017-06-20T10:34:46Z</time>
      </trkpt>
      <trkpt lat="45.92677" lon="4.72875">
        <ele>169</ele>
        <time>2017-06-20T10:34:47Z</time>
      </trkpt>
      <trkpt lat="45.92673" lon="4.72878">
        <ele>170</ele>
        <time>2017-06-20T10:34:48Z</time>
      </trkpt>
      <trkpt lat="45.92668" lon="4.72882">
        <ele>170</ele>
        <time>2017-06-20T10:34:49Z</time>
      </trkpt>
      <trkpt lat="45.92664" lon="4.72886">
        <ele>169</ele>
        <time>2017-06-20T10:34:50Z</time>
      </trkpt>
      <trkpt lat="45.92659" lon="4.72889">
        <ele>169</ele>
        <time>2017-06-20T10:34:51Z</time>
      </trkpt>
      <trkpt lat="45.92654" lon="4.72893">
        <ele>169</ele>
        <time>2017-06-20T10:34:52Z</time>
      </trkpt>
      <trkpt lat="45.92649" lon="4.72897">
        <ele>169</ele>
        <time>2017-06-20T10:34:53Z</time>
      </trkpt>
      <trkpt lat="45.92645" lon="4.729">
        <ele>169</ele>
        <time>2017-06-20T10:34:54Z</time>
      </trkpt>
      <trkpt lat="45.92641" lon="4.72904">
        <ele>169</ele>
        <time>2017-06-20T10:34:55Z</time>
      </trkpt>
      <trkpt lat="45.92637" lon="4.72907">
        <ele>169</ele>
        <time>2017-06-20T10:34:56Z</time>
      </trkpt>
      <trkpt lat="45.92633" lon="4.72911">
        <ele>169</ele>
        <time>2017-06-20T10:34:57Z</time>
      </trkpt>
      <trkpt lat="45.92629" lon="4.72915">
        <ele>169</ele>
        <time>2017-06-20T10:34:58Z</time>
      </trkpt>
      <trkpt lat="45.92625" lon="4.72918">
        <ele>169</ele>
        <time>2017-06-20T10:34:59Z</time>
      </trkpt>
      <trkpt lat="45.9262" lon="4.72922">
        <ele>169</ele>
        <time>2017-06-20T10:35:00Z</time>
      </trkpt>
      <trkpt lat="45.92615" lon="4.72927">
        <ele>169</ele>
        <time>2017-06-20T10:35:01Z</time>
      </trkpt>
      <trkpt lat="45.92611" lon="4.72931">
        <ele>169</ele>
        <time>2017-06-20T10:35:02Z</time>
      </trkpt>
      <trkpt lat="45.92606" lon="4.72935">
        <ele>169</ele>
        <time>2017-06-20T10:35:03Z</time>
      </trkpt>
      <trkpt lat="45.92602" lon="4.72939">
        <ele>169</ele>
        <time>2017-06-20T10:35:04Z</time>
      </trkpt>
      <trkpt lat="45.92597" lon="4.72944">
        <ele>169</ele>
        <time>2017-06-20T10:35:05Z</time>
      </trkpt>
      <trkpt lat="45.92593" lon="4.72948">
        <ele>169</ele>
        <time>2017-06-20T10:35:06Z</time>
      </trkpt>
      <trkpt lat="45.92589" lon="4.72952">
        <ele>169</ele>
        <time>2017-06-20T10:35:07Z</time>
      </trkpt>
      <trkpt lat="45.92586" lon="4.72957">
        <ele>169</ele>
        <time>2017-06-20T10:35:08Z</time>
      </trkpt>
      <trkpt lat="45.92583" lon="4.72962">
        <ele>169</ele>
        <time>2017-06-20T10:35:09Z</time>
      </trkpt>
      <trkpt lat="45.92579" lon="4.72967">
        <ele>169</ele>
        <time>2017-06-20T10:35:10Z</time>
      </trkpt>
      <trkpt lat="45.92575" lon="4.72971">
        <ele>169</ele>
        <time>2017-06-20T10:35:11Z</time>
      </trkpt>
      <trkpt lat="45.92571" lon="4.72975">
        <ele>169</ele>
        <time>2017-06-20T10:35:12Z</time>
      </trkpt>
      <trkpt lat="45.92567" lon="4.72979">
        <ele>169</ele>
        <time>2017-06-20T10:35:13Z</time>
      </trkpt>
      <trkpt lat="45.92563" lon="4.72983">
        <ele>169</ele>
        <time>2017-06-20T10:35:14Z</time>
      </trkpt>
      <trkpt lat="45.92559" lon="4.72987">
        <ele>169</ele>
        <time>2017-06-20T10:35:15Z</time>
      </trkpt>
      <trkpt lat="45.92555" lon="4.72991">
        <ele>169</ele>
        <time>2017-06-20T10:35:16Z</time>
      </trkpt>
      <trkpt lat="45.92551" lon="4.72995">
        <ele>169</ele>
        <time>2017-06-20T10:35:17Z</time>
      </trkpt>
      <trkpt lat="45.92547" lon="4.72999">
        <ele>169</ele>
        <time>2017-06-20T10:35:18Z</time>
      </trkpt>
      <trkpt lat="45.92543" lon="4.73003">
        <ele>169</ele>
        <time>2017-06-20T10:35:19Z</time>
      </trkpt>
      <trkpt lat="45.92539" lon="4.73007">
        <ele>169</ele>
        <time>2017-06-20T10:35:20Z</time>
      </trkpt>
      <trkpt lat="45.92535" lon="4.73011">
        <ele>169</ele>
        <time>2017-06-20T10:35:21Z</time>
      </trkpt>
      <trkpt lat="45.92531" lon="4.73015">
        <ele>169</ele>
        <time>2017-06-20T10:35:22Z</time>
      </trkpt>
      <trkpt lat="45.92527" lon="4.73018">
        <ele>169</ele>
        <time>2017-06-20T10:35:23Z</time>
      </trkpt>
      <trkpt lat="45.92523" lon="4.73022">
        <ele>169</ele>
        <time>2017-06-20T10:35:24Z</time>
      </trkpt>
      <trkpt lat="45.92519" lon="4.73025">
        <ele>169</ele>
        <time>2017-06-20T10:35:25Z</time>
      </trkpt>
      <trkpt lat="45.92511" lon="4.73032">
        <ele>169</ele>
        <time>2017-06-20T10:35:27Z</time>
      </trkpt>
      <trkpt lat="45.92507" lon="4.73035">
        <ele>169</ele>
        <time>2017-06-20T10:35:28Z</time>
      </trkpt>
      <trkpt lat="45.92503" lon="4.73039">
        <ele>169</ele>
        <time>2017-06-20T10:35:29Z</time>
      </trkpt>
      <trkpt lat="45.92499" lon="4.73043">
        <ele>170</ele>
        <time>2017-06-20T10:35:30Z</time>
      </trkpt>
      <trkpt lat="45.92495" lon="4.73046">
        <ele>170</ele>
        <time>2017-06-20T10:35:31Z</time>
      </trkpt>
      <trkpt lat="45.9249" lon="4.7305">
        <ele>170</ele>
        <time>2017-06-20T10:35:32Z</time>
      </trkpt>
      <trkpt lat="45.92486" lon="4.73054">
        <ele>170</ele>
        <time>2017-06-20T10:35:33Z</time>
      </trkpt>
      <trkpt lat="45.92482" lon="4.73057">
        <ele>170</ele>
        <time>2017-06-20T10:35:34Z</time>
      </trkpt>
      <trkpt lat="45.92477" lon="4.73061">
        <ele>170</ele>
        <time>2017-06-20T10:35:35Z</time>
      </trkpt>
      <trkpt lat="45.92472" lon="4.73064">
        <ele>170</ele>
        <time>2017-06-20T10:35:36Z</time>
      </trkpt>
      <trkpt lat="45.92468" lon="4.73068">
        <ele>170</ele>
        <time>2017-06-20T10:35:37Z</time>
      </trkpt>
      <trkpt lat="45.92464" lon="4.73071">
        <ele>170</ele>
        <time>2017-06-20T10:35:38Z</time>
      </trkpt>
      <trkpt lat="45.9246" lon="4.73075">
        <ele>170</ele>
        <time>2017-06-20T10:35:39Z</time>
      </trkpt>
      <trkpt lat="45.92456" lon="4.73079">
        <ele>170</ele>
        <time>2017-06-20T10:35:40Z</time>
      </trkpt>
      <trkpt lat="45.92452" lon="4.73083">
        <ele>170</ele>
        <time>2017-06-20T10:35:41Z</time>
      </trkpt>
      <trkpt lat="45.92448" lon="4.73086">
        <ele>170</ele>
        <time>2017-06-20T10:35:42Z</time>
      </trkpt>
      <trkpt lat="45.9244" lon="4.73092">
        <ele>171</ele>
        <time>2017-06-20T10:35:44Z</time>
      </trkpt>
      <trkpt lat="45.92436" lon="4.73096">
        <ele>171</ele>
        <time>2017-06-20T10:35:45Z</time>
      </trkpt>
      <trkpt lat="45.92432" lon="4.73099">
        <ele>171</ele>
        <time>2017-06-20T10:35:46Z</time>
      </trkpt>
      <trkpt lat="45.92428" lon="4.73103">
        <ele>171</ele>
        <time>2017-06-20T10:35:47Z</time>
      </trkpt>
      <trkpt lat="45.92421" lon="4.73109">
        <ele>170</ele>
        <time>2017-06-20T10:35:49Z</time>
      </trkpt>
      <trkpt lat="45.92417" lon="4.73112">
        <ele>170</ele>
        <time>2017-06-20T10:35:50Z</time>
      </trkpt>
      <trkpt lat="45.92413" lon="4.73122">
        <ele>171</ele>
        <time>2017-06-20T10:35:52Z</time>
      </trkpt>
      <trkpt lat="45.92412" lon="4.73128">
        <ele>171</ele>
        <time>2017-06-20T10:35:53Z</time>
      </trkpt>
      <trkpt lat="45.92411" lon="4.7314">
        <ele>171</ele>
        <time>2017-06-20T10:35:55Z</time>
      </trkpt>
      <trkpt lat="45.9241" lon="4.73146">
        <ele>171</ele>
        <time>2017-06-20T10:35:56Z</time>
      </trkpt>
      <trkpt lat="45.9241" lon="4.73153">
        <ele>170</ele>
        <time>2017-06-20T10:35:57Z</time>
      </trkpt>
      <trkpt lat="45.9241" lon="4.7316">
        <ele>170</ele>
        <time>2017-06-20T10:35:58Z</time>
      </trkpt>
      <trkpt lat="45.9241" lon="4.73167">
        <ele>170</ele>
        <time>2017-06-20T10:35:59Z</time>
      </trkpt>
      <trkpt lat="45.9241" lon="4.73175">
        <ele>170</ele>
        <time>2017-06-20T10:36:00Z</time>
      </trkpt>
      <trkpt lat="45.9241" lon="4.73183">
        <ele>171</ele>
        <time>2017-06-20T10:36:01Z</time>
      </trkpt>
      <trkpt lat="45.9241" lon="4.73191">
        <ele>171</ele>
        <time>2017-06-20T10:36:02Z</time>
      </trkpt>
      <trkpt lat="45.9241" lon="4.73199">
        <ele>171</ele>
        <time>2017-06-20T10:36:03Z</time>
      </trkpt>
      <trkpt lat="45.92411" lon="4.73207">
        <ele>171</ele>
        <time>2017-06-20T10:36:04Z</time>
      </trkpt>
      <trkpt lat="45.92411" lon="4.73214">
        <ele>171</ele>
        <time>2017-06-20T10:36:05Z</time>
      </trkpt>
      <trkpt lat="45.92411" lon="4.73221">
        <ele>171</ele>
        <time>2017-06-20T10:36:06Z</time>
      </trkpt>
      <trkpt lat="45.92411" lon="4.73228">
        <ele>171</ele>
        <time>2017-06-20T10:36:07Z</time>
      </trkpt>
      <trkpt lat="45.92411" lon="4.73234">
        <ele>171</ele>
        <time>2017-06-20T10:36:08Z</time>
      </trkpt>
      <trkpt lat="45.92412" lon="4.73246">
        <ele>171</ele>
        <time>2017-06-20T10:36:10Z</time>
      </trkpt>
      <trkpt lat="45.92412" lon="4.73253">
        <ele>171</ele>
        <time>2017-06-20T10:36:11Z</time>
      </trkpt>
      <trkpt lat="45.92412" lon="4.7326">
        <ele>171</ele>
        <time>2017-06-20T10:36:12Z</time>
      </trkpt>
      <trkpt lat="45.92412" lon="4.73267">
        <ele>171</ele>
        <time>2017-06-20T10:36:13Z</time>
      </trkpt>
      <trkpt lat="45.92413" lon="4.73274">
        <ele>171</ele>
        <time>2017-06-20T10:36:14Z</time>
      </trkpt>
      <trkpt lat="45.92413" lon="4.73281">
        <ele>171</ele>
        <time>2017-06-20T10:36:15Z</time>
      </trkpt>
      <trkpt lat="45.92414" lon="4.73289">
        <ele>171</ele>
        <time>2017-06-20T10:36:16Z</time>
      </trkpt>
      <trkpt lat="45.92415" lon="4.73296">
        <ele>171</ele>
        <time>2017-06-20T10:36:17Z</time>
      </trkpt>
      <trkpt lat="45.92415" lon="4.73303">
        <ele>171</ele>
        <time>2017-06-20T10:36:18Z</time>
      </trkpt>
      <trkpt lat="45.92415" lon="4.73309">
        <ele>171</ele>
        <time>2017-06-20T10:36:19Z</time>
      </trkpt>
      <trkpt lat="45.92416" lon="4.73316">
        <ele>171</ele>
        <time>2017-06-20T10:36:20Z</time>
      </trkpt>
      <trkpt lat="45.92417" lon="4.73324">
        <ele>171</ele>
        <time>2017-06-20T10:36:21Z</time>
      </trkpt>
      <trkpt lat="45.92417" lon="4.73332">
        <ele>171</ele>
        <time>2017-06-20T10:36:22Z</time>
      </trkpt>
      <trkpt lat="45.92418" lon="4.7334">
        <ele>171</ele>
        <time>2017-06-20T10:36:23Z</time>
      </trkpt>
      <trkpt lat="45.9242" lon="4.73348">
        <ele>171</ele>
        <time>2017-06-20T10:36:24Z</time>
      </trkpt>
      <trkpt lat="45.92421" lon="4.73357">
        <ele>171</ele>
        <time>2017-06-20T10:36:25Z</time>
      </trkpt>
      <trkpt lat="45.92422" lon="4.73365">
        <ele>172</ele>
        <time>2017-06-20T10:36:26Z</time>
      </trkpt>
      <trkpt lat="45.92423" lon="4.73373">
        <ele>172</ele>
        <time>2017-06-20T10:36:27Z</time>
      </trkpt>
      <trkpt lat="45.92425" lon="4.73381">
        <ele>172</ele>
        <time>2017-06-20T10:36:28Z</time>
      </trkpt>
      <trkpt lat="45.92427" lon="4.73389">
        <ele>172</ele>
        <time>2017-06-20T10:36:29Z</time>
      </trkpt>
      <trkpt lat="45.92429" lon="4.73396">
        <ele>172</ele>
        <time>2017-06-20T10:36:30Z</time>
      </trkpt>
      <trkpt lat="45.92432" lon="4.73403">
        <ele>172</ele>
        <time>2017-06-20T10:36:31Z</time>
      </trkpt>
      <trkpt lat="45.92435" lon="4.73408">
        <ele>172</ele>
        <time>2017-06-20T10:36:32Z</time>
      </trkpt>
      <trkpt lat="45.92439" lon="4.73412">
        <ele>172</ele>
        <time>2017-06-20T10:36:33Z</time>
      </trkpt>
      <trkpt lat="45.92446" lon="4.73418">
        <ele>173</ele>
        <time>2017-06-20T10:36:35Z</time>
      </trkpt>
      <trkpt lat="45.9245" lon="4.7342">
        <ele>173</ele>
        <time>2017-06-20T10:36:36Z</time>
      </trkpt>
      <trkpt lat="45.92456" lon="4.73426">
        <ele>173</ele>
        <time>2017-06-20T10:36:38Z</time>
      </trkpt>
      <trkpt lat="45.92459" lon="4.73431">
        <ele>173</ele>
        <time>2017-06-20T10:36:39Z</time>
      </trkpt>
      <trkpt lat="45.92464" lon="4.7344">
        <ele>173</ele>
        <time>2017-06-20T10:36:41Z</time>
      </trkpt>
      <trkpt lat="45.92465" lon="4.73446">
        <ele>173</ele>
        <time>2017-06-20T10:36:42Z</time>
      </trkpt>
      <trkpt lat="45.92467" lon="4.73457">
        <ele>173</ele>
        <time>2017-06-20T10:36:44Z</time>
      </trkpt>
      <trkpt lat="45.92468" lon="4.73463">
        <ele>173</ele>
        <time>2017-06-20T10:36:45Z</time>
      </trkpt>
      <trkpt lat="45.92468" lon="4.73476">
        <ele>173</ele>
        <time>2017-06-20T10:36:47Z</time>
      </trkpt>
      <trkpt lat="45.92468" lon="4.73482">
        <ele>173</ele>
        <time>2017-06-20T10:36:48Z</time>
      </trkpt>
      <trkpt lat="45.92468" lon="4.73494">
        <ele>173</ele>
        <time>2017-06-20T10:36:50Z</time>
      </trkpt>
      <trkpt lat="45.92469" lon="4.73501">
        <ele>174</ele>
        <time>2017-06-20T10:36:51Z</time>
      </trkpt>
      <trkpt lat="45.92469" lon="4.73509">
        <ele>174</ele>
        <time>2017-06-20T10:36:52Z</time>
      </trkpt>
      <trkpt lat="45.92469" lon="4.73516">
        <ele>174</ele>
        <time>2017-06-20T10:36:53Z</time>
      </trkpt>
      <trkpt lat="45.92469" lon="4.73524">
        <ele>174</ele>
        <time>2017-06-20T10:36:54Z</time>
      </trkpt>
      <trkpt lat="45.92469" lon="4.73531">
        <ele>174</ele>
        <time>2017-06-20T10:36:55Z</time>
      </trkpt>
      <trkpt lat="45.92469" lon="4.73544">
        <ele>173</ele>
        <time>2017-06-20T10:36:57Z</time>
      </trkpt>
      <trkpt lat="45.92469" lon="4.73551">
        <ele>173</ele>
        <time>2017-06-20T10:36:58Z</time>
      </trkpt>
      <trkpt lat="45.92469" lon="4.73558">
        <ele>173</ele>
        <time>2017-06-20T10:36:59Z</time>
      </trkpt>
      <trkpt lat="45.92469" lon="4.73566">
        <ele>173</ele>
        <time>2017-06-20T10:37:00Z</time>
      </trkpt>
      <trkpt lat="45.92469" lon="4.73574">
        <ele>173</ele>
        <time>2017-06-20T10:37:01Z</time>
      </trkpt>
      <trkpt lat="45.9247" lon="4.73581">
        <ele>173</ele>
        <time>2017-06-20T10:37:02Z</time>
      </trkpt>
      <trkpt lat="45.9247" lon="4.73589">
        <ele>174</ele>
        <time>2017-06-20T10:37:03Z</time>
      </trkpt>
      <trkpt lat="45.9247" lon="4.73597">
        <ele>174</ele>
        <time>2017-06-20T10:37:04Z</time>
      </trkpt>
      <trkpt lat="45.92471" lon="4.73605">
        <ele>174</ele>
        <time>2017-06-20T10:37:05Z</time>
      </trkpt>
      <trkpt lat="45.92471" lon="4.73614">
        <ele>174</ele>
        <time>2017-06-20T10:37:06Z</time>
      </trkpt>
      <trkpt lat="45.92471" lon="4.73622">
        <ele>174</ele>
        <time>2017-06-20T10:37:07Z</time>
      </trkpt>
      <trkpt lat="45.92472" lon="4.73629">
        <ele>174</ele>
        <time>2017-06-20T10:37:08Z</time>
      </trkpt>
      <trkpt lat="45.92472" lon="4.73636">
        <ele>174</ele>
        <time>2017-06-20T10:37:09Z</time>
      </trkpt>
      <trkpt lat="45.92471" lon="4.73644">
        <ele>174</ele>
        <time>2017-06-20T10:37:10Z</time>
      </trkpt>
      <trkpt lat="45.92471" lon="4.73651">
        <ele>174</ele>
        <time>2017-06-20T10:37:11Z</time>
      </trkpt>
      <trkpt lat="45.92471" lon="4.73657">
        <ele>174</ele>
        <time>2017-06-20T10:37:12Z</time>
      </trkpt>
      <trkpt lat="45.9247" lon="4.73669">
        <ele>174</ele>
        <time>2017-06-20T10:37:14Z</time>
      </trkpt>
      <trkpt lat="45.9247" lon="4.73675">
        <ele>174</ele>
        <time>2017-06-20T10:37:15Z</time>
      </trkpt>
      <trkpt lat="45.92469" lon="4.73685">
        <ele>174</ele>
        <time>2017-06-20T10:37:17Z</time>
      </trkpt>
      <trkpt lat="45.92469" lon="4.7369">
        <ele>174</ele>
        <time>2017-06-20T10:37:18Z</time>
      </trkpt>
      <trkpt lat="45.92467" lon="4.73701">
        <ele>174</ele>
        <time>2017-06-20T10:37:22Z</time>
      </trkpt>
      <trkpt lat="45.92467" lon="4.73703">
        <ele>174</ele>
        <time>2017-06-20T10:37:23Z</time>
      </trkpt>
      <trkpt lat="45.92467" lon="4.73703">
        <ele>174</ele>
        <time>2017-06-20T10:37:48.26Z</time>
      </trkpt>
    </trkseg>
  </trk>
</gpx>